<?xml version='1.0' encoding='UTF-8'?><gpx version="1.1" creator="JPX - https://github.com/jenetics/jpx" xmlns="http://www.topografix.com/GPX/1/1"><trk><trkseg><trkpt lat="44.11250613350466" lon="9.90313353056252"><ele>112.99999999999999</ele><time>2026-03-24T16:04:01Z</time></trkpt><trkpt lat="44.11249926986814" lon="9.903032422101413"><ele>113.0</ele><time>2026-03-24T16:04:03Z</time></trkpt><trkpt lat="44.11248723790625" lon="9.902944685099317"><ele>113.0</ele><time>2026-03-24T16:04:05Z</time></trkpt><trkpt lat="44.112480781964926" lon="9.90285035029055"><ele>113.0</ele><time>2026-03-24T16:04:07Z</time></trkpt><trkpt lat="44.11249650575672" lon="9.902707361480118"><ele>112.99999999999999</ele><time>2026-03-24T16:04:10Z</time></trkpt><trkpt lat="44.11249721790722" lon="9.902611030064824"><ele>113.0</ele><time>2026-03-24T16:04:13Z</time></trkpt><trkpt lat="44.112462271471244" lon="9.90248786457614"><ele>113.16666666666666</ele><time>2026-03-24T16:04:16Z</time></trkpt><trkpt lat="44.11241219506526" lon="9.902395646320452"><ele>113.33333333333333</ele><time>2026-03-24T16:04:19Z</time></trkpt><trkpt lat="44.11236247859412" lon="9.902339946528652"><ele>113.5</ele><time>2026-03-24T16:04:22Z</time></trkpt><trkpt lat="44.11228923050678" lon="9.902253512235976"><ele>113.66666666666666</ele><time>2026-03-24T16:04:25Z</time></trkpt><trkpt lat="44.11222727562954" lon="9.902161111285716"><ele>113.83333333333333</ele><time>2026-03-24T16:04:28Z</time></trkpt><trkpt lat="44.1121941453648" lon="9.902078355821697"><ele>114.0</ele><time>2026-03-24T16:04:30Z</time></trkpt><trkpt lat="44.11215959025256" lon="9.90199298267636"><ele>112.85714285714285</ele><time>2026-03-24T16:04:32Z</time></trkpt><trkpt lat="44.11212774127091" lon="9.901909015032734"><ele>111.7142857142857</ele><time>2026-03-24T16:04:34Z</time></trkpt><trkpt lat="44.11209644983883" lon="9.90183131464942"><ele>110.57142857142857</ele><time>2026-03-24T16:04:36Z</time></trkpt><trkpt lat="44.112070795039514" lon="9.9017504964105"><ele>109.42857142857142</ele><time>2026-03-24T16:04:38Z</time></trkpt><trkpt lat="44.11203840231379" lon="9.901671507688663"><ele>108.28571428571428</ele><time>2026-03-24T16:04:40Z</time></trkpt><trkpt lat="44.112003922196635" lon="9.901589636221134"><ele>107.14285714285714</ele><time>2026-03-24T16:04:42Z</time></trkpt><trkpt lat="44.111972874700264" lon="9.90150564319513"><ele>106.0</ele><time>2026-03-24T16:04:44Z</time></trkpt><trkpt lat="44.11195149928462" lon="9.90141979409719"><ele>106.00000000000001</ele><time>2026-03-24T16:04:46Z</time></trkpt><trkpt lat="44.11193125548972" lon="9.901336230718623"><ele>106.0</ele><time>2026-03-24T16:04:48Z</time></trkpt><trkpt lat="44.11189443590531" lon="9.901218504206922"><ele>106.0</ele><time>2026-03-24T16:04:51Z</time></trkpt><trkpt lat="44.11186592858879" lon="9.901097393854336"><ele>106.0</ele><time>2026-03-24T16:04:54Z</time></trkpt><trkpt lat="44.1118528011745" lon="9.900981520769703"><ele>106.00000000000001</ele><time>2026-03-24T16:04:57Z</time></trkpt><trkpt lat="44.1118471773203" lon="9.900870438891438"><ele>106.0</ele><time>2026-03-24T16:05:00Z</time></trkpt><trkpt lat="44.11183957302575" lon="9.900779371458446"><ele>107.83333333333334</ele><time>2026-03-24T16:05:02Z</time></trkpt><trkpt lat="44.11182903784133" lon="9.90069133744622"><ele>109.66666666666667</ele><time>2026-03-24T16:05:04Z</time></trkpt><trkpt lat="44.111821503922855" lon="9.900601905082436"><ele>111.5</ele><time>2026-03-24T16:05:06Z</time></trkpt><trkpt lat="44.11181661503196" lon="9.900477881938702"><ele>113.33333333333334</ele><time>2026-03-24T16:05:09Z</time></trkpt><trkpt lat="44.11181560051017" lon="9.900354792544874"><ele>115.16666666666667</ele><time>2026-03-24T16:05:12Z</time></trkpt><trkpt lat="44.1118025498685" lon="9.90023116303939"><ele>117.0</ele><time>2026-03-24T16:05:15Z</time></trkpt><trkpt lat="44.1118047782475" lon="9.900143196509179"><ele>118.66666666666667</ele><time>2026-03-24T16:05:17Z</time></trkpt><trkpt lat="44.11180221236773" lon="9.90001970067848"><ele>120.33333333333334</ele><time>2026-03-24T16:05:20Z</time></trkpt><trkpt lat="44.111791789276616" lon="9.89991092478305"><ele>122.0</ele><time>2026-03-24T16:05:23Z</time></trkpt><trkpt lat="44.11178563770626" lon="9.899793908988354"><ele>123.66666666666667</ele><time>2026-03-24T16:05:26Z</time></trkpt><trkpt lat="44.11177631285218" lon="9.899668972524957"><ele>125.33333333333334</ele><time>2026-03-24T16:05:29Z</time></trkpt><trkpt lat="44.111769720365345" lon="9.899547067749548"><ele>127.0</ele><time>2026-03-24T16:05:32Z</time></trkpt><trkpt lat="44.11176284517506" lon="9.899420998516158"><ele>127.00000000000001</ele><time>2026-03-24T16:05:35Z</time></trkpt><trkpt lat="44.111759319097786" lon="9.899332751742248"><ele>127.0</ele><time>2026-03-24T16:05:37Z</time></trkpt><trkpt lat="44.11175452355071" lon="9.899211862818579"><ele>127.0</ele><time>2026-03-24T16:05:40Z</time></trkpt><trkpt lat="44.11175181154404" lon="9.899092275887515"><ele>127.0</ele><time>2026-03-24T16:05:43Z</time></trkpt><trkpt lat="44.11174990170114" lon="9.898969187060853"><ele>127.00000000000001</ele><time>2026-03-24T16:05:46Z</time></trkpt><trkpt lat="44.111750486009804" lon="9.898852632897183"><ele>127.0</ele><time>2026-03-24T16:05:49Z</time></trkpt><trkpt lat="44.11175516881006" lon="9.89873905467502"><ele>126.85714285714286</ele><time>2026-03-24T16:05:52Z</time></trkpt><trkpt lat="44.11170529297011" lon="9.898631989007912"><ele>126.71428571428571</ele><time>2026-03-24T16:05:55Z</time></trkpt><trkpt lat="44.11167349037006" lon="9.898536088686472"><ele>126.57142857142857</ele><time>2026-03-24T16:05:58Z</time></trkpt><trkpt lat="44.111639556751264" lon="9.898452935414392"><ele>126.42857142857143</ele><time>2026-03-24T16:06:00Z</time></trkpt><trkpt lat="44.11162483176486" lon="9.898364231948815"><ele>126.28571428571428</ele><time>2026-03-24T16:06:02Z</time></trkpt><trkpt lat="44.11160010962542" lon="9.898273971952596"><ele>126.14285714285714</ele><time>2026-03-24T16:06:04Z</time></trkpt><trkpt lat="44.11158176103961" lon="9.89818587824079"><ele>126.0</ele><time>2026-03-24T16:06:07Z</time></trkpt><trkpt lat="44.11156582764433" lon="9.898100751507735"><ele>124.66666666666667</ele><time>2026-03-24T16:06:09Z</time></trkpt><trkpt lat="44.11154422030486" lon="9.897983114780429"><ele>123.33333333333334</ele><time>2026-03-24T16:06:12Z</time></trkpt><trkpt lat="44.111527463327484" lon="9.897869726947667"><ele>122.0</ele><time>2026-03-24T16:06:15Z</time></trkpt><trkpt lat="44.11150927649615" lon="9.8977523964067"><ele>120.66666666666667</ele><time>2026-03-24T16:06:18Z</time></trkpt><trkpt lat="44.111490425320234" lon="9.897643780357788"><ele>119.33333333333334</ele><time>2026-03-24T16:06:21Z</time></trkpt><trkpt lat="44.111470692940586" lon="9.897555172975718"><ele>118.0</ele><time>2026-03-24T16:06:24Z</time></trkpt><trkpt lat="44.111431539939964" lon="9.897476679026791"><ele>120.66666666666667</ele><time>2026-03-24T16:06:27Z</time></trkpt><trkpt lat="44.11135108777913" lon="9.8974338407492"><ele>123.33333333333334</ele><time>2026-03-24T16:06:31Z</time></trkpt><trkpt lat="44.11128765165532" lon="9.897439622305244"><ele>126.0</ele><time>2026-03-24T16:06:33Z</time></trkpt><trkpt lat="44.11120925284322" lon="9.897430103981069"><ele>128.66666666666666</ele><time>2026-03-24T16:06:36Z</time></trkpt><trkpt lat="44.111125197095944" lon="9.89743164509228"><ele>131.33333333333331</ele><time>2026-03-24T16:06:39Z</time></trkpt><trkpt lat="44.11104650781897" lon="9.897440194908253"><ele>134.0</ele><time>2026-03-24T16:06:42Z</time></trkpt><trkpt lat="44.11096861203198" lon="9.897440903471935"><ele>134.0</ele><time>2026-03-24T16:06:45Z</time></trkpt><trkpt lat="44.11089657951293" lon="9.89744422558597"><ele>134.0</ele><time>2026-03-24T16:06:48Z</time></trkpt><trkpt lat="44.11082348981222" lon="9.897452862384057"><ele>134.0</ele><time>2026-03-24T16:06:53Z</time></trkpt><trkpt lat="44.11075745160804" lon="9.897477227750937"><ele>134.0</ele><time>2026-03-24T16:06:57Z</time></trkpt><trkpt lat="44.1107153871534" lon="9.897549317937683"><ele>134.0</ele><time>2026-03-24T16:10:36.999Z</time></trkpt><trkpt lat="44.11077394962653" lon="9.897459105154528"><ele>134.0</ele><time>2026-03-24T16:10:43.999Z</time></trkpt><trkpt lat="44.110837891973915" lon="9.897450512227518"><ele>134.0</ele><time>2026-03-24T16:10:46.999Z</time></trkpt><trkpt lat="44.11090103535844" lon="9.897451700371375"><ele>134.0</ele><time>2026-03-24T16:10:48.999Z</time></trkpt><trkpt lat="44.110985491292624" lon="9.897424790009122"><ele>134.0</ele><time>2026-03-24T16:10:51.999Z</time></trkpt><trkpt lat="44.111072102446094" lon="9.897423101959163"><ele>134.0</ele><time>2026-03-24T16:10:54.999Z</time></trkpt><trkpt lat="44.11115851678829" lon="9.897412099371442"><ele>134.0</ele><time>2026-03-24T16:10:57.999Z</time></trkpt><trkpt lat="44.111243825958084" lon="9.897415370872537"><ele>134.0</ele><time>2026-03-24T16:11:00.999Z</time></trkpt><trkpt lat="44.11133111556868" lon="9.897428216847057"><ele>134.0</ele><time>2026-03-24T16:11:03.999Z</time></trkpt><trkpt lat="44.11140664530844" lon="9.89744390669071"><ele>134.0</ele><time>2026-03-24T16:11:06.999Z</time></trkpt><trkpt lat="44.11147590127589" lon="9.89751579546873"><ele>134.0</ele><time>2026-03-24T16:11:09.999Z</time></trkpt><trkpt lat="44.11148114291197" lon="9.89762707311241"><ele>134.0</ele><time>2026-03-24T16:11:12.999Z</time></trkpt><trkpt lat="44.11150739337504" lon="9.897754482654486"><ele>134.0</ele><time>2026-03-24T16:11:15.999Z</time></trkpt><trkpt lat="44.111527860314574" lon="9.89784082491433"><ele>134.0</ele><time>2026-03-24T16:11:17.999Z</time></trkpt><trkpt lat="44.11154369565017" lon="9.897932054614806"><ele>134.0</ele><time>2026-03-24T16:11:19.999Z</time></trkpt><trkpt lat="44.11156377699335" lon="9.898029432048636"><ele>134.0</ele><time>2026-03-24T16:11:21.999Z</time></trkpt><trkpt lat="44.11158976842847" lon="9.8981581852306"><ele>134.0</ele><time>2026-03-24T16:11:23.999Z</time></trkpt><trkpt lat="44.111614305100616" lon="9.898305955181709"><ele>134.0</ele><time>2026-03-24T16:11:25.999Z</time></trkpt><trkpt lat="44.111653070169076" lon="9.898465349126043"><ele>134.0</ele><time>2026-03-24T16:11:27.999Z</time></trkpt><trkpt lat="44.11169921346595" lon="9.898604160975"><ele>134.0</ele><time>2026-03-24T16:11:29.999Z</time></trkpt><trkpt lat="44.11174003832267" lon="9.898696584441364"><ele>132.6</ele><time>2026-03-24T16:11:31.999Z</time></trkpt><trkpt lat="44.111777825002456" lon="9.898791641485163"><ele>131.2</ele><time>2026-03-24T16:11:34.999Z</time></trkpt><trkpt lat="44.111752290376735" lon="9.898892108649965"><ele>129.79999999999998</ele><time>2026-03-24T16:11:36.999Z</time></trkpt><trkpt lat="44.11173384707313" lon="9.899028235532"><ele>128.4</ele><time>2026-03-24T16:11:38.999Z</time></trkpt><trkpt lat="44.11174351510448" lon="9.899172447960806"><ele>127.0</ele><time>2026-03-24T16:11:40.999Z</time></trkpt><trkpt lat="44.11175527791595" lon="9.899329347226404"><ele>127.00000000000001</ele><time>2026-03-24T16:11:42.999Z</time></trkpt><trkpt lat="44.11177306167955" lon="9.899499904331806"><ele>127.0</ele><time>2026-03-24T16:11:44.999Z</time></trkpt><trkpt lat="44.11177521690513" lon="9.899593603044753"><ele>127.0</ele><time>2026-03-24T16:11:45.999Z</time></trkpt><trkpt lat="44.111779696995875" lon="9.89969081690661"><ele>127.0</ele><time>2026-03-24T16:11:46.999Z</time></trkpt><trkpt lat="44.1117870223274" lon="9.899792358299583"><ele>127.00000000000001</ele><time>2026-03-24T16:11:47.999Z</time></trkpt><trkpt lat="44.111793487421934" lon="9.899896732842276"><ele>127.0</ele><time>2026-03-24T16:11:48.999Z</time></trkpt><trkpt lat="44.1117710038696" lon="9.900005459116443"><ele>125.33333333333334</ele><time>2026-03-24T16:11:49.999Z</time></trkpt><trkpt lat="44.11177680675939" lon="9.90011473371695"><ele>123.66666666666667</ele><time>2026-03-24T16:11:50.999Z</time></trkpt><trkpt lat="44.11180256189866" lon="9.90022642626908"><ele>122.0</ele><time>2026-03-24T16:11:51.999Z</time></trkpt><trkpt lat="44.11180897781977" lon="9.900340019053862"><ele>120.33333333333334</ele><time>2026-03-24T16:11:52.999Z</time></trkpt><trkpt lat="44.111817286435006" lon="9.900433793870635"><ele>118.66666666666667</ele><time>2026-03-24T16:11:53.999Z</time></trkpt><trkpt lat="44.11182790672352" lon="9.90052534839922"><ele>117.0</ele><time>2026-03-24T16:11:54.999Z</time></trkpt><trkpt lat="44.11180652638643" lon="9.900625749088652"><ele>117.0</ele><time>2026-03-24T16:11:55.999Z</time></trkpt><trkpt lat="44.11181455306832" lon="9.900722300340991"><ele>117.00000000000001</ele><time>2026-03-24T16:11:56.999Z</time></trkpt><trkpt lat="44.11182256908994" lon="9.900818723352286"><ele>117.0</ele><time>2026-03-24T16:11:57.999Z</time></trkpt><trkpt lat="44.11182823469119" lon="9.900906942265635"><ele>117.0</ele><time>2026-03-24T16:11:58.999Z</time></trkpt><trkpt lat="44.11183345052526" lon="9.900995951065356"><ele>117.00000000000001</ele><time>2026-03-24T16:11:59.999Z</time></trkpt><trkpt lat="44.1118405184327" lon="9.901085306641164"><ele>117.0</ele><time>2026-03-24T16:12:00.999Z</time></trkpt><trkpt lat="44.111853860511346" lon="9.90118047814621"><ele>117.0</ele><time>2026-03-24T16:12:01.999Z</time></trkpt><trkpt lat="44.1118772844819" lon="9.901274770111241"><ele>115.16666666666667</ele><time>2026-03-24T16:12:02.999Z</time></trkpt><trkpt lat="44.1119042706669" lon="9.901362137477328"><ele>113.33333333333334</ele><time>2026-03-24T16:12:03.999Z</time></trkpt><trkpt lat="44.11193599342669" lon="9.901449163170167"><ele>111.5</ele><time>2026-03-24T16:12:04.999Z</time></trkpt><trkpt lat="44.111966052676166" lon="9.901528328355427"><ele>109.66666666666667</ele><time>2026-03-24T16:12:05.999Z</time></trkpt><trkpt lat="44.1120237898597" lon="9.90168081421286"><ele>107.83333333333334</ele><time>2026-03-24T16:12:07.999Z</time></trkpt><trkpt lat="44.112079343916186" lon="9.901827600150046"><ele>106.0</ele><time>2026-03-24T16:12:09.999Z</time></trkpt><trkpt lat="44.11213090155783" lon="9.901960586032645"><ele>105.0</ele><time>2026-03-24T16:12:11.999Z</time></trkpt><trkpt lat="44.11218081864472" lon="9.902081318654304"><ele>104.0</ele><time>2026-03-24T16:12:13.999Z</time></trkpt><trkpt lat="44.11223389527026" lon="9.902184850478154"><ele>103.0</ele><time>2026-03-24T16:12:15.999Z</time></trkpt><trkpt lat="44.112299896404146" lon="9.902268368561323"><ele>102.0</ele><time>2026-03-24T16:12:17.999Z</time></trkpt><trkpt lat="44.11237178882583" lon="9.902355758194602"><ele>101.0</ele><time>2026-03-24T16:12:19.999Z</time></trkpt><trkpt lat="44.11244458651213" lon="9.90246481166435"><ele>103.4</ele><time>2026-03-24T16:12:21.999Z</time></trkpt><trkpt lat="44.112493952789116" lon="9.902613324901875"><ele>105.8</ele><time>2026-03-24T16:12:23.999Z</time></trkpt><trkpt lat="44.11251663564999" lon="9.902792181484063"><ele>108.20000000000002</ele><time>2026-03-24T16:12:25.999Z</time></trkpt><trkpt lat="44.1125061126712" lon="9.902882880032882"><ele>110.60000000000001</ele><time>2026-03-24T16:12:26.999Z</time></trkpt><trkpt lat="44.112499006639304" lon="9.902986183416624"><ele>113.0</ele><time>2026-03-24T16:12:27.999Z</time></trkpt><trkpt lat="44.11249099777104" lon="9.903088374110924"><ele>112.99999999999999</ele><time>2026-03-24T16:12:28.999Z</time></trkpt><trkpt lat="44.11248189579989" lon="9.903195129629506"><ele>113.0</ele><time>2026-03-24T16:12:29.999Z</time></trkpt><trkpt lat="44.11247245841129" lon="9.903297356122184"><ele>113.0</ele><time>2026-03-24T16:12:30.999Z</time></trkpt><trkpt lat="44.112462939042324" lon="9.903408969848085"><ele>113.0</ele><time>2026-03-24T16:12:31.999Z</time></trkpt><trkpt lat="44.11245855585711" lon="9.903512150797813"><ele>112.99999999999999</ele><time>2026-03-24T16:12:32.999Z</time></trkpt><trkpt lat="44.11245360196871" lon="9.903690081737032"><ele>113.0</ele><time>2026-03-24T16:12:34.999Z</time></trkpt><trkpt lat="44.11245700772504" lon="9.903848382059726"><ele>112.4</ele><time>2026-03-24T16:12:36.999Z</time></trkpt><trkpt lat="44.11246182968779" lon="9.903942421643269"><ele>111.80000000000001</ele><time>2026-03-24T16:12:38.999Z</time></trkpt><trkpt lat="44.11238130478109" lon="9.904016423439758"><ele>111.2</ele><time>2026-03-24T16:12:41.999Z</time></trkpt><trkpt lat="44.112315537972634" lon="9.904082907683922"><ele>110.6</ele><time>2026-03-24T16:12:43.999Z</time></trkpt><trkpt lat="44.112228810855704" lon="9.904175503115853"><ele>110.0</ele><time>2026-03-24T16:12:45.999Z</time></trkpt><trkpt lat="44.112153074408496" lon="9.904271841178005"><ele>108.33333333333333</ele><time>2026-03-24T16:12:47.999Z</time></trkpt><trkpt lat="44.11207212814625" lon="9.90435650453602"><ele>106.66666666666666</ele><time>2026-03-24T16:12:49.999Z</time></trkpt><trkpt lat="44.11199777524836" lon="9.904443457679863"><ele>105.0</ele><time>2026-03-24T16:12:51.999Z</time></trkpt><trkpt lat="44.11191584561584" lon="9.90451537763092"><ele>103.33333333333334</ele><time>2026-03-24T16:12:53.999Z</time></trkpt><trkpt lat="44.1118445888574" lon="9.904565192769379"><ele>101.66666666666667</ele><time>2026-03-24T16:12:55.999Z</time></trkpt><trkpt lat="44.111784534530706" lon="9.904621389389062"><ele>100.0</ele><time>2026-03-24T16:12:57.999Z</time></trkpt><trkpt lat="44.111765273628194" lon="9.904740278004935"><ele>100.00000000000001</ele><time>2026-03-24T16:12:59.999Z</time></trkpt><trkpt lat="44.11185125821543" lon="9.904859634567599"><ele>100.0</ele><time>2026-03-24T16:13:02.999Z</time></trkpt><trkpt lat="44.11184587325424" lon="9.904951008419395"><ele>100.0</ele><time>2026-03-24T16:13:04.999Z</time></trkpt><trkpt lat="44.111818875811785" lon="9.90505440929747"><ele>100.0</ele><time>2026-03-24T16:13:07.999Z</time></trkpt><trkpt lat="44.111795191918155" lon="9.90514154105569"><ele>100.00000000000001</ele><time>2026-03-24T16:13:10.999Z</time></trkpt><trkpt lat="44.11176820046343" lon="9.90525275512787"><ele>100.0</ele><time>2026-03-24T16:13:13.999Z</time></trkpt><trkpt lat="44.11173805403003" lon="9.905365560862005"><ele>99.50000000000001</ele><time>2026-03-24T16:13:16.999Z</time></trkpt><trkpt lat="44.111700367590345" lon="9.905478654693423"><ele>99.0</ele><time>2026-03-24T16:13:19.999Z</time></trkpt><trkpt lat="44.11166468246271" lon="9.90557880032472"><ele>98.5</ele><time>2026-03-24T16:13:22.999Z</time></trkpt><trkpt lat="44.11162651736677" lon="9.90568871277188"><ele>98.0</ele><time>2026-03-24T16:13:25.999Z</time></trkpt><trkpt lat="44.11158805875421" lon="9.905798635308477"><ele>97.50000000000001</ele><time>2026-03-24T16:13:28.999Z</time></trkpt><trkpt lat="44.111549308576684" lon="9.905898088435322"><ele>97.0</ele><time>2026-03-24T16:13:31.999Z</time></trkpt><trkpt lat="44.111507181802" lon="9.905997815488035"><ele>98.66666666666667</ele><time>2026-03-24T16:13:34.999Z</time></trkpt><trkpt lat="44.1114638332336" lon="9.906099808495114"><ele>100.33333333333334</ele><time>2026-03-24T16:13:37.999Z</time></trkpt><trkpt lat="44.11142619154322" lon="9.906195028390446"><ele>102.0</ele><time>2026-03-24T16:13:40.999Z</time></trkpt><trkpt lat="44.11139242952461" lon="9.906293788381051"><ele>103.66666666666666</ele><time>2026-03-24T16:13:43.999Z</time></trkpt><trkpt lat="44.11135032505927" lon="9.90638815455064"><ele>105.33333333333333</ele><time>2026-03-24T16:13:46.999Z</time></trkpt><trkpt lat="44.11129677778686" lon="9.906469266509308"><ele>107.0</ele><time>2026-03-24T16:13:49.999Z</time></trkpt><trkpt lat="44.111256723131916" lon="9.906556628249968"><ele>106.99999999999999</ele><time>2026-03-24T16:13:52.999Z</time></trkpt><trkpt lat="44.11121949045094" lon="9.90665084614955"><ele>107.0</ele><time>2026-03-24T16:13:55.999Z</time></trkpt><trkpt lat="44.11118908725677" lon="9.90676175448843"><ele>107.0</ele><time>2026-03-24T16:13:58.999Z</time></trkpt><trkpt lat="44.11116396032935" lon="9.906883687364287"><ele>107.0</ele><time>2026-03-24T16:14:01.999Z</time></trkpt><trkpt lat="44.11113992477011" lon="9.906970213474136"><ele>106.99999999999999</ele><time>2026-03-24T16:14:03.999Z</time></trkpt><trkpt lat="44.11110935448722" lon="9.907054092629387"><ele>107.0</ele><time>2026-03-24T16:14:05.999Z</time></trkpt><trkpt lat="44.11108802772518" lon="9.907151767452534"><ele>107.99999999999999</ele><time>2026-03-24T16:14:07.999Z</time></trkpt><trkpt lat="44.11107278461009" lon="9.907275655370661"><ele>109.0</ele><time>2026-03-24T16:14:10.999Z</time></trkpt><trkpt lat="44.11108706357817" lon="9.907390609213303"><ele>110.0</ele><time>2026-03-24T16:14:13.999Z</time></trkpt><trkpt lat="44.11108583106557" lon="9.907497702099807"><ele>111.0</ele><time>2026-03-24T16:14:15.999Z</time></trkpt><trkpt lat="44.1111000730734" lon="9.907624254316824"><ele>111.99999999999999</ele><time>2026-03-24T16:14:17.999Z</time></trkpt><trkpt lat="44.111067244843525" lon="9.907748965814173"><ele>113.0</ele><time>2026-03-24T16:14:19.999Z</time></trkpt><trkpt lat="44.111049647619886" lon="9.907869415058428"><ele>112.99999999999999</ele><time>2026-03-24T16:14:21.999Z</time></trkpt><trkpt lat="44.11101998710666" lon="9.907968885550481"><ele>113.0</ele><time>2026-03-24T16:14:23.999Z</time></trkpt><trkpt lat="44.11100486282049" lon="9.908065760507032"><ele>113.0</ele><time>2026-03-24T16:14:26.999Z</time></trkpt><trkpt lat="44.110970516916" lon="9.908172293023242"><ele>113.0</ele><time>2026-03-24T16:14:29.999Z</time></trkpt><trkpt lat="44.110920119374796" lon="9.908241518496267"><ele>112.99999999999999</ele><time>2026-03-24T16:14:32.999Z</time></trkpt><trkpt lat="44.11086138585747" lon="9.908275284124082"><ele>113.0</ele><time>2026-03-24T16:14:36.999Z</time></trkpt><trkpt lat="44.11080766695076" lon="9.908138905726654"><ele>113.0</ele><time>2026-03-24T16:14:43.999Z</time></trkpt><trkpt lat="44.11082508640701" lon="9.90805170251834"><ele>113.0</ele><time>2026-03-24T16:14:48.999Z</time></trkpt><trkpt lat="44.11087206875843" lon="9.907968887391341"><ele>113.0</ele><time>2026-03-24T16:14:53.999Z</time></trkpt><trkpt lat="44.11093666011914" lon="9.907969835172842"><ele>113.0</ele><time>2026-03-24T16:14:59.999Z</time></trkpt><trkpt lat="44.11086048911982" lon="9.907962472173528"><ele>113.0</ele><time>2026-03-24T16:38:09Z</time></trkpt><trkpt lat="44.110825866847335" lon="9.908055184962874"><ele>113.0</ele><time>2026-03-24T16:38:12.999Z</time></trkpt><trkpt lat="44.11079450226492" lon="9.908138133772388"><ele>113.0</ele><time>2026-03-24T16:39:11.999Z</time></trkpt><trkpt lat="44.110819922280456" lon="9.90822460072171"><ele>113.0</ele><time>2026-03-24T16:39:19.999Z</time></trkpt><trkpt lat="44.110875367977926" lon="9.90827988641768"><ele>113.0</ele><time>2026-03-24T16:39:26.999Z</time></trkpt><trkpt lat="44.11093964268632" lon="9.908219380307"><ele>113.0</ele><time>2026-03-24T16:39:31.999Z</time></trkpt><trkpt lat="44.110984657640145" lon="9.908125893515935"><ele>113.0</ele><time>2026-03-24T16:39:34.999Z</time></trkpt><trkpt lat="44.11100892620045" lon="9.90801232615264"><ele>113.0</ele><time>2026-03-24T16:39:38.999Z</time></trkpt><trkpt lat="44.111032980838075" lon="9.907926615036137"><ele>113.0</ele><time>2026-03-24T16:39:41.999Z</time></trkpt><trkpt lat="44.1110618414506" lon="9.907835543788712"><ele>113.0</ele><time>2026-03-24T16:39:46Z</time></trkpt><trkpt lat="44.1110920917223" lon="9.907738049507168"><ele>112.99999999999999</ele><time>2026-03-24T16:39:51Z</time></trkpt><trkpt lat="44.1111045723708" lon="9.907633098962474"><ele>113.0</ele><time>2026-03-24T16:39:55Z</time></trkpt><trkpt lat="44.11110554040109" lon="9.907527098105666"><ele>113.0</ele><time>2026-03-24T16:39:58Z</time></trkpt><trkpt lat="44.11109017844202" lon="9.907420227364847"><ele>113.0</ele><time>2026-03-24T16:40:01Z</time></trkpt><trkpt lat="44.11107416503911" lon="9.907303780620717"><ele>112.99999999999999</ele><time>2026-03-24T16:40:04Z</time></trkpt><trkpt lat="44.111083562683355" lon="9.90718772591147"><ele>113.0</ele><time>2026-03-24T16:40:07Z</time></trkpt><trkpt lat="44.111106676878784" lon="9.90708068336709"><ele>113.66666666666666</ele><time>2026-03-24T16:40:09.999Z</time></trkpt><trkpt lat="44.11115069275797" lon="9.906960426588679"><ele>114.33333333333333</ele><time>2026-03-24T16:40:12.999Z</time></trkpt><trkpt lat="44.11117327527153" lon="9.90687730758167"><ele>115.0</ele><time>2026-03-24T16:40:14.999Z</time></trkpt><trkpt lat="44.111192889434015" lon="9.906759944804808"><ele>115.66666666666666</ele><time>2026-03-24T16:40:17.999Z</time></trkpt><trkpt lat="44.11123017617919" lon="9.906658112388918"><ele>116.33333333333333</ele><time>2026-03-24T16:40:29.999Z</time></trkpt><trkpt lat="44.11127300820886" lon="9.90657334689824"><ele>117.0</ele><time>2026-03-24T16:40:32.999Z</time></trkpt><trkpt lat="44.11132704276454" lon="9.906504044117685"><ele>115.33333333333333</ele><time>2026-03-24T16:40:35.999Z</time></trkpt><trkpt lat="44.11137327409107" lon="9.906418904051922"><ele>113.66666666666666</ele><time>2026-03-24T16:40:38.999Z</time></trkpt><trkpt lat="44.11139396693546" lon="9.906323866276264"><ele>112.0</ele><time>2026-03-24T16:40:41.999Z</time></trkpt><trkpt lat="44.1114234852027" lon="9.906226939927713"><ele>110.33333333333333</ele><time>2026-03-24T16:40:44.999Z</time></trkpt><trkpt lat="44.111460532304875" lon="9.906153917097608"><ele>108.66666666666666</ele><time>2026-03-24T16:40:47.999Z</time></trkpt><trkpt lat="44.11151373453695" lon="9.90604933883559"><ele>107.0</ele><time>2026-03-24T16:40:50.999Z</time></trkpt><trkpt lat="44.111550006095264" lon="9.905941848064096"><ele>107.49999999999999</ele><time>2026-03-24T16:40:52.999Z</time></trkpt><trkpt lat="44.111585968548205" lon="9.90583595912549"><ele>108.0</ele><time>2026-03-24T16:40:54.999Z</time></trkpt><trkpt lat="44.11161924088069" lon="9.905731531294519"><ele>108.5</ele><time>2026-03-24T16:40:56.999Z</time></trkpt><trkpt lat="44.11165703998324" lon="9.905636288634089"><ele>109.0</ele><time>2026-03-24T16:40:58.999Z</time></trkpt><trkpt lat="44.111701177497956" lon="9.905533251043236"><ele>109.49999999999999</ele><time>2026-03-24T16:41:00.999Z</time></trkpt><trkpt lat="44.1117408064628" lon="9.905411659013714"><ele>110.0</ele><time>2026-03-24T16:41:02.999Z</time></trkpt><trkpt lat="44.11177231447606" lon="9.90529108375969"><ele>109.99999999999999</ele><time>2026-03-24T16:41:04.999Z</time></trkpt><trkpt lat="44.111807703097476" lon="9.905157240946588"><ele>110.0</ele><time>2026-03-24T16:41:06.999Z</time></trkpt><trkpt lat="44.11184251121785" lon="9.905050002005684"><ele>110.0</ele><time>2026-03-24T16:41:08.999Z</time></trkpt><trkpt lat="44.11186476494614" lon="9.904927856802006"><ele>110.0</ele><time>2026-03-24T16:41:10.999Z</time></trkpt><trkpt lat="44.11185741958042" lon="9.904830120439648"><ele>109.99999999999999</ele><time>2026-03-24T16:41:12.999Z</time></trkpt><trkpt lat="44.111820674525845" lon="9.904758769121319"><ele>110.0</ele><time>2026-03-24T16:41:14.999Z</time></trkpt><trkpt lat="44.11181866511102" lon="9.904655125985762"><ele>108.33333333333333</ele><time>2026-03-24T16:41:16.999Z</time></trkpt><trkpt lat="44.111881927665635" lon="9.904576609972956"><ele>106.66666666666666</ele><time>2026-03-24T16:41:18.999Z</time></trkpt><trkpt lat="44.11194273398655" lon="9.904492980826422"><ele>105.0</ele><time>2026-03-24T16:41:21.999Z</time></trkpt><trkpt lat="44.11201139777599" lon="9.904428488880376"><ele>103.33333333333334</ele><time>2026-03-24T16:41:25.999Z</time></trkpt><trkpt lat="44.1120827790454" lon="9.904363488479214"><ele>101.66666666666667</ele><time>2026-03-24T16:41:29.999Z</time></trkpt><trkpt lat="44.11213274550961" lon="9.904308300674954"><ele>100.0</ele><time>2026-03-24T16:41:32.999Z</time></trkpt><trkpt lat="44.112186468541516" lon="9.904253973728915"><ele>101.33333333333334</ele><time>2026-03-24T16:41:35.999Z</time></trkpt><trkpt lat="44.11223999201469" lon="9.90419421255795"><ele>102.66666666666667</ele><time>2026-03-24T16:41:38.999Z</time></trkpt><trkpt lat="44.11230650260454" lon="9.904121217148404"><ele>104.0</ele><time>2026-03-24T16:41:42.999Z</time></trkpt><trkpt lat="44.11236726920353" lon="9.904040176316876"><ele>105.33333333333334</ele><time>2026-03-24T16:41:45.999Z</time></trkpt><trkpt lat="44.11243667717143" lon="9.903981187107341"><ele>106.66666666666667</ele><time>2026-03-24T16:41:48.999Z</time></trkpt><trkpt lat="44.11249814391267" lon="9.903902017128086"><ele>108.0</ele><time>2026-03-24T16:41:52.999Z</time></trkpt><trkpt lat="44.11248043647926" lon="9.903808865724564"><ele>108.28571428571428</ele><time>2026-03-24T16:42:10.999Z</time></trkpt><trkpt lat="44.11248856972407" lon="9.903706727587052"><ele>108.57142857142857</ele><time>2026-03-24T16:42:15.999Z</time></trkpt><trkpt lat="44.1124838093739" lon="9.903616123176642"><ele>108.85714285714286</ele><time>2026-03-24T16:42:20.999Z</time></trkpt><trkpt lat="44.112479641851536" lon="9.903524468033865"><ele>109.14285714285714</ele><time>2026-03-24T16:42:24.999Z</time></trkpt><trkpt lat="44.11249836964297" lon="9.903440549655627"><ele>109.42857142857143</ele><time>2026-03-24T16:42:29.999Z</time></trkpt><trkpt lat="44.11252495554019" lon="9.903354880098263"><ele>109.71428571428571</ele><time>2026-03-24T16:43:32.999Z</time></trkpt><trkpt lat="44.11253324454629" lon="9.903263076637664"><ele>110.0</ele><time>2026-03-24T16:43:35.999Z</time></trkpt><trkpt lat="44.11253470309573" lon="9.90314854270537"><ele>110.49999999999999</ele><time>2026-03-24T16:43:39.999Z</time></trkpt><trkpt lat="44.112538357701226" lon="9.903058265097723"><ele>111.0</ele><time>2026-03-24T16:43:41.999Z</time></trkpt><trkpt lat="44.1125382444338" lon="9.902961488938077"><ele>111.5</ele><time>2026-03-24T16:43:43.999Z</time></trkpt><trkpt lat="44.112539253260465" lon="9.902857680400993"><ele>112.0</ele><time>2026-03-24T16:43:45.999Z</time></trkpt><trkpt lat="44.11253865691648" lon="9.902741346856182"><ele>112.49999999999999</ele><time>2026-03-24T16:43:47.999Z</time></trkpt><trkpt lat="44.112517730895355" lon="9.902616332973315"><ele>113.0</ele><time>2026-03-24T16:43:49.999Z</time></trkpt><trkpt lat="44.11247713917593" lon="9.90250304341159"><ele>113.14285714285714</ele><time>2026-03-24T16:43:51.999Z</time></trkpt><trkpt lat="44.1124246844821" lon="9.902410772098028"><ele>113.28571428571428</ele><time>2026-03-24T16:43:53.999Z</time></trkpt><trkpt lat="44.112369551762335" lon="9.902338434027584"><ele>113.42857142857142</ele><time>2026-03-24T16:43:55.999Z</time></trkpt><trkpt lat="44.11231678764092" lon="9.902270815220811"><ele>113.57142857142857</ele><time>2026-03-24T16:43:57.999Z</time></trkpt><trkpt lat="44.112265887336996" lon="9.902205290728835"><ele>113.7142857142857</ele><time>2026-03-24T16:43:59.999Z</time></trkpt><trkpt lat="44.11222257040791" lon="9.902126037550117"><ele>113.85714285714285</ele><time>2026-03-24T16:44:01.999Z</time></trkpt><trkpt lat="44.11218201224377" lon="9.902037267045205"><ele>114.0</ele><time>2026-03-24T16:44:03.999Z</time></trkpt><trkpt lat="44.11214701168693" lon="9.901948149684541"><ele>112.85714285714285</ele><time>2026-03-24T16:44:06Z</time></trkpt><trkpt lat="44.112110760805784" lon="9.901858650874754"><ele>111.7142857142857</ele><time>2026-03-24T16:44:08Z</time></trkpt><trkpt lat="44.112077026200765" lon="9.901762213324258"><ele>110.57142857142857</ele><time>2026-03-24T16:44:10Z</time></trkpt><trkpt lat="44.112042837174904" lon="9.901671720623368"><ele>109.42857142857142</ele><time>2026-03-24T16:44:12Z</time></trkpt><trkpt lat="44.112007206166275" lon="9.901588535072584"><ele>108.28571428571428</ele><time>2026-03-24T16:44:14Z</time></trkpt><trkpt lat="44.11197553788862" lon="9.901500724193252"><ele>107.14285714285714</ele><time>2026-03-24T16:44:15.999Z</time></trkpt><trkpt lat="44.1119543774381" lon="9.901409439654765"><ele>106.0</ele><time>2026-03-24T16:44:17.999Z</time></trkpt><trkpt lat="44.11193477094931" lon="9.901322454614725"><ele>106.0</ele><time>2026-03-24T16:44:19.999Z</time></trkpt><trkpt lat="44.11189353228749" lon="9.90120747615888"><ele>106.0</ele><time>2026-03-24T16:44:22.999Z</time></trkpt><trkpt lat="44.11187244136611" lon="9.901118762279447"><ele>106.0</ele><time>2026-03-24T16:44:24.999Z</time></trkpt><trkpt lat="44.11186208466822" lon="9.901030070848408"><ele>106.0</ele><time>2026-03-24T16:44:26.999Z</time></trkpt><trkpt lat="44.11185351554173" lon="9.900940937655342"><ele>106.0</ele><time>2026-03-24T16:44:28.999Z</time></trkpt><trkpt lat="44.1118430672311" lon="9.900850455021873"><ele>106.0</ele><time>2026-03-24T16:44:30.999Z</time></trkpt><trkpt lat="44.1118335742617" lon="9.900763739600958"><ele>106.0</ele><time>2026-03-24T16:44:32.999Z</time></trkpt><trkpt lat="44.11182822500283" lon="9.900673677519324"><ele>107.83333333333334</ele><time>2026-03-24T16:44:34.999Z</time></trkpt><trkpt lat="44.11182464829955" lon="9.900584668666147"><ele>109.66666666666667</ele><time>2026-03-24T16:44:36.999Z</time></trkpt><trkpt lat="44.111819858639805" lon="9.900454207709387"><ele>111.5</ele><time>2026-03-24T16:44:39.999Z</time></trkpt><trkpt lat="44.111817698114635" lon="9.900366012124616"><ele>113.33333333333334</ele><time>2026-03-24T16:44:41.999Z</time></trkpt><trkpt lat="44.11181003850097" lon="9.900278659007565"><ele>115.16666666666667</ele><time>2026-03-24T16:44:43.999Z</time></trkpt><trkpt lat="44.11180469181743" lon="9.900150768638895"><ele>117.0</ele><time>2026-03-24T16:44:46.999Z</time></trkpt><trkpt lat="44.11179704713903" lon="9.900020141443347"><ele>118.66666666666667</ele><time>2026-03-24T16:44:49.999Z</time></trkpt><trkpt lat="44.111795511137174" lon="9.899931845767842"><ele>120.33333333333334</ele><time>2026-03-24T16:44:51.999Z</time></trkpt><trkpt lat="44.111785601029005" lon="9.899802327730823"><ele>122.0</ele><time>2026-03-24T16:44:54.999Z</time></trkpt><trkpt lat="44.11177779017677" lon="9.899674842518628"><ele>123.66666666666667</ele><time>2026-03-24T16:44:57.999Z</time></trkpt><trkpt lat="44.11177299628532" lon="9.899586419346903"><ele>125.33333333333334</ele><time>2026-03-24T16:44:59.999Z</time></trkpt><trkpt lat="44.111768114246395" lon="9.89945944231547"><ele>127.0</ele><time>2026-03-24T16:45:02.999Z</time></trkpt><trkpt lat="44.11176316022404" lon="9.89937077080918"><ele>126.83333333333334</ele><time>2026-03-24T16:45:04.999Z</time></trkpt><trkpt lat="44.111754369447134" lon="9.899247399856621"><ele>126.66666666666667</ele><time>2026-03-24T16:45:07.999Z</time></trkpt><trkpt lat="44.11174635498257" lon="9.899118804728394"><ele>126.5</ele><time>2026-03-24T16:45:10.999Z</time></trkpt><trkpt lat="44.1117543134499" lon="9.898990371322038"><ele>126.33333333333334</ele><time>2026-03-24T16:45:13.999Z</time></trkpt><trkpt lat="44.111773755074545" lon="9.898865789314426"><ele>126.16666666666667</ele><time>2026-03-24T16:45:16.999Z</time></trkpt><trkpt lat="44.11180511599313" lon="9.898785459059308"><ele>126.0</ele><time>2026-03-24T16:45:18.999Z</time></trkpt><trkpt lat="44.11184961645919" lon="9.898713245016449"><ele>126.0</ele><time>2026-03-24T16:45:20.999Z</time></trkpt><trkpt lat="44.1118922871485" lon="9.898641544116796"><ele>126.0</ele><time>2026-03-24T16:45:22.999Z</time></trkpt><trkpt lat="44.11193936736283" lon="9.89857470879955"><ele>126.0</ele><time>2026-03-24T16:45:24.999Z</time></trkpt><trkpt lat="44.11198668612233" lon="9.898507383782732"><ele>126.0</ele><time>2026-03-24T16:45:26.999Z</time></trkpt><trkpt lat="44.112034785989295" lon="9.898443334094116"><ele>126.0</ele><time>2026-03-24T16:45:28.999Z</time></trkpt><trkpt lat="44.11208169123786" lon="9.898376243250048"><ele>126.0</ele><time>2026-03-24T16:45:30.999Z</time></trkpt><trkpt lat="44.11213950780521" lon="9.898291222245932"><ele>126.0</ele><time>2026-03-24T16:45:33.999Z</time></trkpt><trkpt lat="44.11221790858564" lon="9.898195836446426"><ele>127.14285714285714</ele><time>2026-03-24T16:45:36.999Z</time></trkpt><trkpt lat="44.11225693432816" lon="9.89810136465634"><ele>128.28571428571428</ele><time>2026-03-24T16:45:38.999Z</time></trkpt><trkpt lat="44.11228127635991" lon="9.89801070453096"><ele>129.42857142857144</ele><time>2026-03-24T16:45:40.999Z</time></trkpt><trkpt lat="44.11230269168978" lon="9.897927616554831"><ele>130.57142857142856</ele><time>2026-03-24T16:45:42.999Z</time></trkpt><trkpt lat="44.11232196516715" lon="9.8978333691409"><ele>131.71428571428572</ele><time>2026-03-24T16:45:44.999Z</time></trkpt><trkpt lat="44.11233599564899" lon="9.89773016459322"><ele>132.85714285714286</ele><time>2026-03-24T16:45:46.999Z</time></trkpt><trkpt lat="44.11235298821705" lon="9.897633463948981"><ele>134.0</ele><time>2026-03-24T16:45:48.999Z</time></trkpt><trkpt lat="44.11237368160721" lon="9.897550001864962"><ele>133.83333333333331</ele><time>2026-03-24T16:45:50.999Z</time></trkpt><trkpt lat="44.11240250053949" lon="9.897433165049016"><ele>133.66666666666666</ele><time>2026-03-24T16:45:53.999Z</time></trkpt><trkpt lat="44.11241853530097" lon="9.8973412107616"><ele>133.5</ele><time>2026-03-24T16:45:55.999Z</time></trkpt><trkpt lat="44.112441299267" lon="9.897237007960689"><ele>133.33333333333334</ele><time>2026-03-24T16:45:57.999Z</time></trkpt><trkpt lat="44.11247021602734" lon="9.897129077739486"><ele>133.16666666666669</ele><time>2026-03-24T16:45:59.999Z</time></trkpt><trkpt lat="44.11249605703863" lon="9.89701614199199"><ele>133.0</ele><time>2026-03-24T16:46:02Z</time></trkpt><trkpt lat="44.112533531273755" lon="9.896917674894539"><ele>133.0</ele><time>2026-03-24T16:46:04Z</time></trkpt><trkpt lat="44.11259321925099" lon="9.89683066265812"><ele>133.0</ele><time>2026-03-24T16:46:06Z</time></trkpt><trkpt lat="44.11266025069394" lon="9.896752082418661"><ele>133.0</ele><time>2026-03-24T16:46:08Z</time></trkpt><trkpt lat="44.112731904659036" lon="9.896682306419972"><ele>133.0</ele><time>2026-03-24T16:46:10Z</time></trkpt><trkpt lat="44.11283747428427" lon="9.896605149539372"><ele>133.0</ele><time>2026-03-24T16:46:12Z</time></trkpt><trkpt lat="44.11294154264409" lon="9.89660480846494"><ele>133.16666666666669</ele><time>2026-03-24T16:46:14Z</time></trkpt><trkpt lat="44.11303307663552" lon="9.896614741876213"><ele>133.33333333333334</ele><time>2026-03-24T16:46:16Z</time></trkpt><trkpt lat="44.113118670474094" lon="9.896628523229634"><ele>133.5</ele><time>2026-03-24T16:46:18Z</time></trkpt><trkpt lat="44.11319444877176" lon="9.896642624955557"><ele>133.66666666666666</ele><time>2026-03-24T16:46:20Z</time></trkpt><trkpt lat="44.11325824937349" lon="9.896649127933264"><ele>133.83333333333331</ele><time>2026-03-24T16:46:23Z</time></trkpt><trkpt lat="44.11333059285763" lon="9.89663677185679"><ele>134.0</ele><time>2026-03-24T16:46:27Z</time></trkpt><trkpt lat="44.113396574277516" lon="9.896613069716164"><ele>134.5</ele><time>2026-03-24T16:46:29Z</time></trkpt><trkpt lat="44.11346605356451" lon="9.896610455881415"><ele>135.0</ele><time>2026-03-24T16:46:31Z</time></trkpt><trkpt lat="44.11354172172941" lon="9.89660798606808"><ele>135.5</ele><time>2026-03-24T16:46:33Z</time></trkpt><trkpt lat="44.113620876954116" lon="9.896607941755493"><ele>136.0</ele><time>2026-03-24T16:46:35Z</time></trkpt><trkpt lat="44.11369943917373" lon="9.896627361368495"><ele>136.5</ele><time>2026-03-24T16:46:37Z</time></trkpt><trkpt lat="44.11378560846354" lon="9.896642410522784"><ele>137.0</ele><time>2026-03-24T16:46:39Z</time></trkpt><trkpt lat="44.113876026641925" lon="9.896651270816585"><ele>137.0</ele><time>2026-03-24T16:46:41Z</time></trkpt><trkpt lat="44.1139630311603" lon="9.896650368945075"><ele>137.0</ele><time>2026-03-24T16:46:43Z</time></trkpt><trkpt lat="44.1140525063403" lon="9.896665423613179"><ele>137.0</ele><time>2026-03-24T16:46:45Z</time></trkpt><trkpt lat="44.114138895402554" lon="9.896694362994785"><ele>137.0</ele><time>2026-03-24T16:46:47Z</time></trkpt><trkpt lat="44.11421610687235" lon="9.896727490005336"><ele>137.0</ele><time>2026-03-24T16:46:49Z</time></trkpt><trkpt lat="44.11429489451501" lon="9.8967796933938"><ele>137.0</ele><time>2026-03-24T16:46:51Z</time></trkpt><trkpt lat="44.11435729437049" lon="9.896841048922788"><ele>135.16666666666666</ele><time>2026-03-24T16:46:53Z</time></trkpt><trkpt lat="44.11443169814643" lon="9.89691883658921"><ele>133.33333333333331</ele><time>2026-03-24T16:46:56Z</time></trkpt><trkpt lat="44.11448671241645" lon="9.8969962854536"><ele>131.5</ele><time>2026-03-24T16:46:58Z</time></trkpt><trkpt lat="44.11454611899528" lon="9.897056416416756"><ele>129.66666666666666</ele><time>2026-03-24T16:47:00Z</time></trkpt><trkpt lat="44.11460283099461" lon="9.897118584495985"><ele>127.83333333333333</ele><time>2026-03-24T16:47:02Z</time></trkpt><trkpt lat="44.11466445145432" lon="9.89718499678967"><ele>126.0</ele><time>2026-03-24T16:47:04Z</time></trkpt><trkpt lat="44.11472573549027" lon="9.897257873273542"><ele>126.0</ele><time>2026-03-24T16:47:05.999Z</time></trkpt><trkpt lat="44.11478062522238" lon="9.897319508276407"><ele>126.0</ele><time>2026-03-24T16:47:07.999Z</time></trkpt><trkpt lat="44.11483719007284" lon="9.897375670401848"><ele>126.0</ele><time>2026-03-24T16:47:09.999Z</time></trkpt><trkpt lat="44.11489499502927" lon="9.897435179585456"><ele>126.0</ele><time>2026-03-24T16:47:11.999Z</time></trkpt><trkpt lat="44.114951714164306" lon="9.897496023101505"><ele>126.0</ele><time>2026-03-24T16:47:13.999Z</time></trkpt><trkpt lat="44.11502299382833" lon="9.89756857315509"><ele>126.0</ele><time>2026-03-24T16:47:16.999Z</time></trkpt><trkpt lat="44.11507410272117" lon="9.897635469712444"><ele>126.0</ele><time>2026-03-24T16:47:19.999Z</time></trkpt><trkpt lat="44.11511373533193" lon="9.897712493025598"><ele>127.42857142857143</ele><time>2026-03-24T16:47:23.999Z</time></trkpt><trkpt lat="44.11512637479962" lon="9.897801628655671"><ele>128.85714285714286</ele><time>2026-03-24T16:47:28.999Z</time></trkpt><trkpt lat="44.1151682743937" lon="9.897731347484262"><ele>130.28571428571428</ele><time>2026-03-24T16:47:33.999Z</time></trkpt><trkpt lat="44.11521700246312" lon="9.89767304135517"><ele>131.71428571428572</ele><time>2026-03-24T16:47:36.999Z</time></trkpt><trkpt lat="44.11526968623661" lon="9.897588878478116"><ele>133.14285714285714</ele><time>2026-03-24T16:47:40.999Z</time></trkpt><trkpt lat="44.11530389154084" lon="9.897502519039907"><ele>134.57142857142856</ele><time>2026-03-24T16:47:44.999Z</time></trkpt><trkpt lat="44.11528288592972" lon="9.897416174125206"><ele>136.0</ele><time>2026-03-24T16:47:47.999Z</time></trkpt><trkpt lat="44.11524007088337" lon="9.897328979947302"><ele>137.66666666666669</ele><time>2026-03-24T16:47:52.999Z</time></trkpt><trkpt lat="44.11518550791758" lon="9.897238780908861"><ele>139.33333333333334</ele><time>2026-03-24T16:47:57.999Z</time></trkpt><trkpt lat="44.11513615429627" lon="9.897164778523718"><ele>141.0</ele><time>2026-03-24T16:48:01.999Z</time></trkpt><trkpt lat="44.115085612222394" lon="9.897082218145117"><ele>142.66666666666666</ele><time>2026-03-24T16:48:05.999Z</time></trkpt><trkpt lat="44.115037067127474" lon="9.896996346980178"><ele>144.33333333333331</ele><time>2026-03-24T16:48:10Z</time></trkpt><trkpt lat="44.11499608719633" lon="9.89689926566171"><ele>146.0</ele><time>2026-03-24T16:48:14Z</time></trkpt><trkpt lat="44.114949759203235" lon="9.89681418043523"><ele>145.16666666666666</ele><time>2026-03-24T16:48:18Z</time></trkpt><trkpt lat="44.11489798930914" lon="9.896728528788355"><ele>144.33333333333331</ele><time>2026-03-24T16:48:22Z</time></trkpt><trkpt lat="44.11485336527672" lon="9.896662145317956"><ele>143.5</ele><time>2026-03-24T16:48:25Z</time></trkpt><trkpt lat="44.1147957929472" lon="9.896600935812751"><ele>142.66666666666666</ele><time>2026-03-24T16:48:28Z</time></trkpt><trkpt lat="44.11472467340318" lon="9.89652380052612"><ele>141.83333333333334</ele><time>2026-03-24T16:48:31Z</time></trkpt><trkpt lat="44.11465479757647" lon="9.896470282209329"><ele>141.0</ele><time>2026-03-24T16:48:34Z</time></trkpt><trkpt lat="44.11459718178559" lon="9.896411073609224"><ele>141.0</ele><time>2026-03-24T16:48:37Z</time></trkpt><trkpt lat="44.11453468487483" lon="9.89633877466603"><ele>141.0</ele><time>2026-03-24T16:48:41Z</time></trkpt><trkpt lat="44.11448840578417" lon="9.896258709131308"><ele>141.0</ele><time>2026-03-24T16:48:45Z</time></trkpt><trkpt lat="44.11449820533896" lon="9.89614618181481"><ele>141.0</ele><time>2026-03-24T16:48:49Z</time></trkpt><trkpt lat="44.11452704319468" lon="9.896050289565133"><ele>141.0</ele><time>2026-03-24T16:48:53Z</time></trkpt><trkpt lat="44.11456460428789" lon="9.895963124997488"><ele>141.0</ele><time>2026-03-24T16:48:57Z</time></trkpt><trkpt lat="44.11463702054597" lon="9.895997451528942"><ele>141.0</ele><time>2026-03-24T16:49:02Z</time></trkpt><trkpt lat="44.11469792535132" lon="9.896032583642864"><ele>141.0</ele><time>2026-03-24T16:49:06Z</time></trkpt><trkpt lat="44.11475826836947" lon="9.896063921924803"><ele>141.0</ele><time>2026-03-24T16:49:10Z</time></trkpt><trkpt lat="44.1148188157399" lon="9.896109484473802"><ele>141.0</ele><time>2026-03-24T16:49:14Z</time></trkpt><trkpt lat="44.11488291728975" lon="9.896137113227143"><ele>141.0</ele><time>2026-03-24T16:49:18Z</time></trkpt><trkpt lat="44.114945442503874" lon="9.896179990126479"><ele>141.0</ele><time>2026-03-24T16:49:22Z</time></trkpt><trkpt lat="44.115015347441194" lon="9.896206258872283"><ele>141.0</ele><time>2026-03-24T16:49:25.999Z</time></trkpt><trkpt lat="44.115082874088095" lon="9.896239146153555"><ele>143.0</ele><time>2026-03-24T16:49:29.999Z</time></trkpt><trkpt lat="44.11514947027398" lon="9.89626984453404"><ele>145.0</ele><time>2026-03-24T16:49:33.999Z</time></trkpt><trkpt lat="44.115221274821366" lon="9.896303752126878"><ele>147.0</ele><time>2026-03-24T16:49:37.999Z</time></trkpt><trkpt lat="44.1152785128544" lon="9.896340983989484"><ele>149.0</ele><time>2026-03-24T16:49:40.999Z</time></trkpt><trkpt lat="44.11535715409045" lon="9.896370848721663"><ele>151.0</ele><time>2026-03-24T16:49:45.999Z</time></trkpt><trkpt lat="44.11541975768013" lon="9.896390345614467"><ele>153.0</ele><time>2026-03-24T16:49:49.999Z</time></trkpt><trkpt lat="44.11548612032656" lon="9.896433421582637"><ele>155.0</ele><time>2026-03-24T16:49:54.999Z</time></trkpt><trkpt lat="44.115502153009054" lon="9.8965237996289"><ele>155.0</ele><time>2026-03-24T16:50:06.999Z</time></trkpt><trkpt lat="44.11556603412961" lon="9.896564793044455"><ele>155.0</ele><time>2026-03-24T16:50:22Z</time></trkpt><trkpt lat="44.11562478537156" lon="9.896611618770196"><ele>155.0</ele><time>2026-03-24T16:51:18Z</time></trkpt><trkpt lat="44.115608185437885" lon="9.896702553818734"><ele>155.0</ele><time>2026-03-24T16:51:39Z</time></trkpt><trkpt lat="44.1155417964061" lon="9.89671135471286"><ele>155.0</ele><time>2026-03-24T16:51:58.999Z</time></trkpt><trkpt lat="44.11547793745577" lon="9.89673393047401"><ele>155.0</ele><time>2026-03-24T16:53:20Z</time></trkpt><trkpt lat="44.115507301297754" lon="9.896649484648472"><ele>155.0</ele><time>2026-03-24T16:57:37Z</time></trkpt><trkpt lat="44.11555311921688" lon="9.896712271581338"><ele>155.0</ele><time>2026-03-24T17:06:26.999Z</time></trkpt><trkpt lat="44.115615823723374" lon="9.896686297888872"><ele>155.0</ele><time>2026-03-24T17:06:36.999Z</time></trkpt><trkpt lat="44.115616671457786" lon="9.896594319979716"><ele>155.0</ele><time>2026-03-24T17:06:52.999Z</time></trkpt><trkpt lat="44.11550083133795" lon="9.89647540596152"><ele>155.0</ele><time>2026-03-24T17:09:23.999Z</time></trkpt><trkpt lat="44.11546871130044" lon="9.896391567619357"><ele>155.0</ele><time>2026-03-24T17:09:30.999Z</time></trkpt><trkpt lat="44.11539776929339" lon="9.896360387094255"><ele>155.0</ele><time>2026-03-24T17:09:36.999Z</time></trkpt><trkpt lat="44.11533196277135" lon="9.896339357317936"><ele>155.0</ele><time>2026-03-24T17:09:42.999Z</time></trkpt><trkpt lat="44.11526223494656" lon="9.896322629354094"><ele>155.0</ele><time>2026-03-24T17:09:48.999Z</time></trkpt><trkpt lat="44.11518287927015" lon="9.896280540902051"><ele>155.0</ele><time>2026-03-24T17:09:54.999Z</time></trkpt><trkpt lat="44.11512138788272" lon="9.896238914609746"><ele>155.0</ele><time>2026-03-24T17:09:58.999Z</time></trkpt><trkpt lat="44.11503983202395" lon="9.8961947011214"><ele>155.0</ele><time>2026-03-24T17:10:01.999Z</time></trkpt><trkpt lat="44.114968098581286" lon="9.896159879067193"><ele>155.0</ele><time>2026-03-24T17:10:03.999Z</time></trkpt><trkpt lat="44.11488983734381" lon="9.896119713700132"><ele>154.57142857142858</ele><time>2026-03-24T17:10:06.999Z</time></trkpt><trkpt lat="44.114815110072" lon="9.896084973659491"><ele>154.14285714285714</ele><time>2026-03-24T17:10:09.999Z</time></trkpt><trkpt lat="44.114753278778096" lon="9.896046803712222"><ele>153.71428571428572</ele><time>2026-03-24T17:10:16.999Z</time></trkpt><trkpt lat="44.11469052853261" lon="9.89602655572063"><ele>153.28571428571428</ele><time>2026-03-24T17:10:25.999Z</time></trkpt><trkpt lat="44.11462838034021" lon="9.895993581105566"><ele>152.85714285714286</ele><time>2026-03-24T17:10:28.999Z</time></trkpt><trkpt lat="44.11456853598383" lon="9.89594498630988"><ele>152.42857142857142</ele><time>2026-03-24T17:10:31.999Z</time></trkpt><trkpt lat="44.11451819266933" lon="9.895879039719908"><ele>152.0</ele><time>2026-03-24T17:10:34.999Z</time></trkpt><trkpt lat="44.114467855055864" lon="9.895822135690171"><ele>152.0</ele><time>2026-03-24T17:10:39.999Z</time></trkpt><trkpt lat="44.114408217018486" lon="9.895773960768553"><ele>152.0</ele><time>2026-03-24T17:10:44.999Z</time></trkpt><trkpt lat="44.11436307119244" lon="9.89570922770158"><ele>152.0</ele><time>2026-03-24T17:10:49.999Z</time></trkpt><trkpt lat="44.114299835503274" lon="9.895631949796984"><ele>152.0</ele><time>2026-03-24T17:10:53.999Z</time></trkpt><trkpt lat="44.11428548567658" lon="9.895542277262338"><ele>152.0</ele><time>2026-03-24T17:10:59.998Z</time></trkpt><trkpt lat="44.114333848406154" lon="9.895437020197178"><ele>152.0</ele><time>2026-03-24T17:11:02.998Z</time></trkpt><trkpt lat="44.114360359367666" lon="9.895353986751301"><ele>152.0</ele><time>2026-03-24T17:11:05.998Z</time></trkpt><trkpt lat="44.11440524565165" lon="9.895276225099147"><ele>152.0</ele><time>2026-03-24T17:11:11.998Z</time></trkpt><trkpt lat="44.114467529244706" lon="9.895298472417327"><ele>152.0</ele><time>2026-03-24T17:11:14.998Z</time></trkpt><trkpt lat="44.11452960821747" lon="9.895371702432028"><ele>152.0</ele><time>2026-03-24T17:11:18.998Z</time></trkpt><trkpt lat="44.11458907763992" lon="9.895414475039736"><ele>152.0</ele><time>2026-03-24T17:11:21.998Z</time></trkpt><trkpt lat="44.114672919443834" lon="9.89540724691682"><ele>152.0</ele><time>2026-03-24T17:11:23.998Z</time></trkpt><trkpt lat="44.11471899753639" lon="9.89532175509596"><ele>152.0</ele><time>2026-03-24T17:11:25.998Z</time></trkpt><trkpt lat="44.11476053031765" lon="9.89521964667407"><ele>152.0</ele><time>2026-03-24T17:11:28.998Z</time></trkpt><trkpt lat="44.11480630883647" lon="9.895150084781553"><ele>152.0</ele><time>2026-03-24T17:11:32.999Z</time></trkpt><trkpt lat="44.114866608567986" lon="9.895100568328226"><ele>152.0</ele><time>2026-03-24T17:11:36.999Z</time></trkpt><trkpt lat="44.1149225751265" lon="9.895038298017345"><ele>152.0</ele><time>2026-03-24T17:11:41.999Z</time></trkpt><trkpt lat="44.114978826485874" lon="9.894983425810619"><ele>152.0</ele><time>2026-03-24T17:11:45.999Z</time></trkpt><trkpt lat="44.11503290506801" lon="9.894929032515012"><ele>152.0</ele><time>2026-03-24T17:11:48.999Z</time></trkpt><trkpt lat="44.11509861697704" lon="9.894844696349676"><ele>152.0</ele><time>2026-03-24T17:11:50.999Z</time></trkpt><trkpt lat="44.11517526680988" lon="9.89473498598842"><ele>150.6</ele><time>2026-03-24T17:11:52.999Z</time></trkpt><trkpt lat="44.11527893908578" lon="9.894659825034667"><ele>149.2</ele><time>2026-03-24T17:11:54.999Z</time></trkpt><trkpt lat="44.115368827943676" lon="9.894585373559881"><ele>147.8</ele><time>2026-03-24T17:11:56.999Z</time></trkpt><trkpt lat="44.11544132986829" lon="9.894522539853732"><ele>146.4</ele><time>2026-03-24T17:11:58.999Z</time></trkpt><trkpt lat="44.115473994755554" lon="9.894433978552824"><ele>145.0</ele><time>2026-03-24T17:12:00.999Z</time></trkpt><trkpt lat="44.11551587531175" lon="9.894352416979432"><ele>144.66666666666669</ele><time>2026-03-24T17:12:03.999Z</time></trkpt><trkpt lat="44.11555177534154" lon="9.894247813792386"><ele>144.33333333333334</ele><time>2026-03-24T17:12:05.999Z</time></trkpt><trkpt lat="44.11559291844464" lon="9.894178289143584"><ele>144.0</ele><time>2026-03-24T17:12:07.999Z</time></trkpt><trkpt lat="44.11563956150346" lon="9.894064716791117"><ele>143.66666666666666</ele><time>2026-03-24T17:12:10.999Z</time></trkpt><trkpt lat="44.115689426166334" lon="9.893993621008514"><ele>143.33333333333331</ele><time>2026-03-24T17:12:13.999Z</time></trkpt><trkpt lat="44.11574369805634" lon="9.893902571688773"><ele>143.0</ele><time>2026-03-24T17:12:17.999Z</time></trkpt><trkpt lat="44.11578840631667" lon="9.893825175967228"><ele>143.0</ele><time>2026-03-24T17:12:21.999Z</time></trkpt><trkpt lat="44.115894726623914" lon="9.893836659036841"><ele>143.0</ele><time>2026-03-24T17:12:25.999Z</time></trkpt><trkpt lat="44.115957997125946" lon="9.893848638355294"><ele>143.0</ele><time>2026-03-24T17:12:26.999Z</time></trkpt><trkpt lat="44.11604415176625" lon="9.893838275108074"><ele>143.0</ele><time>2026-03-24T17:12:28.999Z</time></trkpt><trkpt lat="44.116135543322116" lon="9.893812385315162"><ele>143.0</ele><time>2026-03-24T17:12:30.999Z</time></trkpt><trkpt lat="44.11626600998557" lon="9.89380883517458"><ele>143.0</ele><time>2026-03-24T17:12:32.999Z</time></trkpt><trkpt lat="44.11634030895334" lon="9.893850145514465"><ele>143.0</ele><time>2026-03-24T17:12:33.999Z</time></trkpt><trkpt lat="44.11641797709203" lon="9.893856978177043"><ele>143.0</ele><time>2026-03-24T17:12:34.999Z</time></trkpt><trkpt lat="44.11653098898422" lon="9.893863413139604"><ele>143.0</ele><time>2026-03-24T17:12:36.999Z</time></trkpt><trkpt lat="44.116617454755556" lon="9.893860867394178"><ele>143.0</ele><time>2026-03-24T17:12:38.999Z</time></trkpt><trkpt lat="44.11669869522671" lon="9.893844771634738"><ele>143.0</ele><time>2026-03-24T17:12:40.999Z</time></trkpt><trkpt lat="44.11678631250978" lon="9.893784792601227"><ele>144.0</ele><time>2026-03-24T17:12:42.999Z</time></trkpt><trkpt lat="44.116890363397125" lon="9.893727057080493"><ele>145.0</ele><time>2026-03-24T17:12:44.999Z</time></trkpt><trkpt lat="44.11698147978507" lon="9.893633552814272"><ele>146.0</ele><time>2026-03-24T17:12:46.999Z</time></trkpt><trkpt lat="44.11703747886113" lon="9.893548212191712"><ele>147.0</ele><time>2026-03-24T17:12:48.999Z</time></trkpt><trkpt lat="44.11711659216157" lon="9.893557021711098"><ele>148.0</ele><time>2026-03-24T17:12:50.999Z</time></trkpt><trkpt lat="44.11722191808887" lon="9.893539920509738"><ele>148.0</ele><time>2026-03-24T17:12:52.999Z</time></trkpt><trkpt lat="44.117313964532094" lon="9.893508059867006"><ele>148.0</ele><time>2026-03-24T17:12:54.999Z</time></trkpt><trkpt lat="44.11738800764907" lon="9.893461794485425"><ele>148.0</ele><time>2026-03-24T17:12:56.999Z</time></trkpt><trkpt lat="44.117451783021544" lon="9.893452092101086"><ele>148.0</ele><time>2026-03-24T17:12:59.999Z</time></trkpt><trkpt lat="44.117534529721404" lon="9.89344563788479"><ele>148.0</ele><time>2026-03-24T17:13:03.999Z</time></trkpt><trkpt lat="44.11761480531014" lon="9.893445838107212"><ele>148.0</ele><time>2026-03-24T17:13:07.999Z</time></trkpt><trkpt lat="44.11769487911195" lon="9.893449351084247"><ele>148.33333333333334</ele><time>2026-03-24T17:13:10.998Z</time></trkpt><trkpt lat="44.11777313396293" lon="9.893454800483621"><ele>148.66666666666669</ele><time>2026-03-24T17:13:13.998Z</time></trkpt><trkpt lat="44.11784801964017" lon="9.893461951758285"><ele>149.0</ele><time>2026-03-24T17:13:16.998Z</time></trkpt><trkpt lat="44.117910916258474" lon="9.893482897484427"><ele>149.33333333333334</ele><time>2026-03-24T17:13:19.999Z</time></trkpt><trkpt lat="44.117995961871664" lon="9.89352929139313"><ele>149.66666666666666</ele><time>2026-03-24T17:13:23.999Z</time></trkpt><trkpt lat="44.11809261910162" lon="9.893584379121199"><ele>150.0</ele><time>2026-03-24T17:13:25.999Z</time></trkpt><trkpt lat="44.11817422305433" lon="9.893634552552996"><ele>150.0</ele><time>2026-03-24T17:13:27.999Z</time></trkpt><trkpt lat="44.11823950841951" lon="9.893697208839166"><ele>150.0</ele><time>2026-03-24T17:13:29.999Z</time></trkpt><trkpt lat="44.11823061747031" lon="9.893831497256423"><ele>150.0</ele><time>2026-03-24T17:13:31.999Z</time></trkpt><trkpt lat="44.11822075434905" lon="9.894010372918105"><ele>150.0</ele><time>2026-03-24T17:13:33.999Z</time></trkpt><trkpt lat="44.118213099424096" lon="9.894116349818265"><ele>150.0</ele><time>2026-03-24T17:13:34.999Z</time></trkpt><trkpt lat="44.11819085715563" lon="9.894210287625981"><ele>151.0</ele><time>2026-03-24T17:13:35.999Z</time></trkpt><trkpt lat="44.118177917079144" lon="9.894299583721564"><ele>152.0</ele><time>2026-03-24T17:13:36.999Z</time></trkpt><trkpt lat="44.11817890769876" lon="9.894450512380905"><ele>153.0</ele><time>2026-03-24T17:13:38.999Z</time></trkpt><trkpt lat="44.118183555704555" lon="9.894561302376852"><ele>154.0</ele><time>2026-03-24T17:13:40.999Z</time></trkpt><trkpt lat="44.11817971281086" lon="9.894661751930421"><ele>155.0</ele><time>2026-03-24T17:13:42.999Z</time></trkpt><trkpt lat="44.11817586320845" lon="9.894753878370551"><ele>156.0</ele><time>2026-03-24T17:13:44.999Z</time></trkpt><trkpt lat="44.118178846403794" lon="9.894862789973464"><ele>156.0</ele><time>2026-03-24T17:13:46.999Z</time></trkpt><trkpt lat="44.118180350904694" lon="9.894968657245034"><ele>156.0</ele><time>2026-03-24T17:13:48.999Z</time></trkpt><trkpt lat="44.11817660498474" lon="9.895082049617283"><ele>156.0</ele><time>2026-03-24T17:13:50.999Z</time></trkpt><trkpt lat="44.11815650347072" lon="9.895190902312336"><ele>156.0</ele><time>2026-03-24T17:13:52.999Z</time></trkpt><trkpt lat="44.11813500240355" lon="9.895294433797208"><ele>156.0</ele><time>2026-03-24T17:13:54.999Z</time></trkpt><trkpt lat="44.11810255923774" lon="9.895390261786872"><ele>156.0</ele><time>2026-03-24T17:13:56.999Z</time></trkpt><trkpt lat="44.11804278803778" lon="9.895462236995119"><ele>153.66666666666666</ele><time>2026-03-24T17:13:58.999Z</time></trkpt><trkpt lat="44.117983650449" lon="9.895527091743059"><ele>151.33333333333334</ele><time>2026-03-24T17:14:00.999Z</time></trkpt><trkpt lat="44.117921767872275" lon="9.895595321045281"><ele>149.0</ele><time>2026-03-24T17:14:02.999Z</time></trkpt><trkpt lat="44.11785693312949" lon="9.895654441762321"><ele>146.66666666666669</ele><time>2026-03-24T17:14:04.999Z</time></trkpt><trkpt lat="44.117794623109695" lon="9.895709345020398"><ele>144.33333333333334</ele><time>2026-03-24T17:14:06.999Z</time></trkpt><trkpt lat="44.11772302663767" lon="9.895760715981119"><ele>142.0</ele><time>2026-03-24T17:14:08.999Z</time></trkpt><trkpt lat="44.11765988511009" lon="9.895815388196208"><ele>142.0</ele><time>2026-03-24T17:14:10.999Z</time></trkpt><trkpt lat="44.11759052471398" lon="9.895841352274171"><ele>142.0</ele><time>2026-03-24T17:14:12.999Z</time></trkpt><trkpt lat="44.1175440645521" lon="9.895914453213713"><ele>142.0</ele><time>2026-03-24T17:14:14.999Z</time></trkpt><trkpt lat="44.11745620332963" lon="9.895950932015722"><ele>142.0</ele><time>2026-03-24T17:14:17.999Z</time></trkpt><trkpt lat="44.117396393810814" lon="9.895986298694265"><ele>142.0</ele><time>2026-03-24T17:14:19.999Z</time></trkpt><trkpt lat="44.11733464613492" lon="9.896028510718198"><ele>142.0</ele><time>2026-03-24T17:14:21.999Z</time></trkpt><trkpt lat="44.1172596190267" lon="9.89607539684552"><ele>146.16666666666669</ele><time>2026-03-24T17:14:24.999Z</time></trkpt><trkpt lat="44.117183148752964" lon="9.896111699098178"><ele>150.33333333333334</ele><time>2026-03-24T17:14:27.999Z</time></trkpt><trkpt lat="44.117103414403715" lon="9.896168574878637"><ele>154.5</ele><time>2026-03-24T17:14:30.999Z</time></trkpt><trkpt lat="44.11703703877966" lon="9.896240692999886"><ele>158.66666666666666</ele><time>2026-03-24T17:14:33.999Z</time></trkpt><trkpt lat="44.11697635192008" lon="9.896325544664213"><ele>162.83333333333331</ele><time>2026-03-24T17:14:36.999Z</time></trkpt><trkpt lat="44.11692672170751" lon="9.896417233174263"><ele>167.0</ele><time>2026-03-24T17:14:39.999Z</time></trkpt><trkpt lat="44.11687458840355" lon="9.896503753412938"><ele>167.0</ele><time>2026-03-24T17:14:42.999Z</time></trkpt><trkpt lat="44.116823234923864" lon="9.896613049869856"><ele>167.0</ele><time>2026-03-24T17:14:45.999Z</time></trkpt><trkpt lat="44.11679140819723" lon="9.896692537226667"><ele>167.0</ele><time>2026-03-24T17:14:47.999Z</time></trkpt><trkpt lat="44.116760624018305" lon="9.896770726225693"><ele>167.0</ele><time>2026-03-24T17:14:49.999Z</time></trkpt><trkpt lat="44.11674846487318" lon="9.896911364943207"><ele>167.0</ele><time>2026-03-24T17:14:52.999Z</time></trkpt><trkpt lat="44.11675302150782" lon="9.89704015446069"><ele>167.0</ele><time>2026-03-24T17:14:55.999Z</time></trkpt><trkpt lat="44.11673613185411" lon="9.897164882631538"><ele>165.0</ele><time>2026-03-24T17:14:58.999Z</time></trkpt><trkpt lat="44.11673654454788" lon="9.897277229685441"><ele>163.0</ele><time>2026-03-24T17:15:01.999Z</time></trkpt><trkpt lat="44.116734613202844" lon="9.897389695730201"><ele>161.0</ele><time>2026-03-24T17:15:04.999Z</time></trkpt><trkpt lat="44.1167243505478" lon="9.897503114878115"><ele>159.0</ele><time>2026-03-24T17:15:07.999Z</time></trkpt><trkpt lat="44.116706968318404" lon="9.897627110648399"><ele>157.0</ele><time>2026-03-24T17:15:10.999Z</time></trkpt><trkpt lat="44.11666201770651" lon="9.897724825218548"><ele>155.0</ele><time>2026-03-24T17:15:13.999Z</time></trkpt><trkpt lat="44.11659659878423" lon="9.89782663062852"><ele>153.0</ele><time>2026-03-24T17:15:16.999Z</time></trkpt><trkpt lat="44.11654491934812" lon="9.897898628667384"><ele>151.0</ele><time>2026-03-24T17:15:18.999Z</time></trkpt><trkpt lat="44.1165063352902" lon="9.89797325577932"><ele>149.0</ele><time>2026-03-24T17:15:20.999Z</time></trkpt><trkpt lat="44.11644873947987" lon="9.89803304611395"><ele>147.0</ele><time>2026-03-24T17:15:22.999Z</time></trkpt><trkpt lat="44.11637503024478" lon="9.898100836739031"><ele>145.0</ele><time>2026-03-24T17:15:24.999Z</time></trkpt><trkpt lat="44.11629367795735" lon="9.89814265690541"><ele>143.0</ele><time>2026-03-24T17:15:26.999Z</time></trkpt><trkpt lat="44.116208662227116" lon="9.89816529644859"><ele>143.0</ele><time>2026-03-24T17:15:28.999Z</time></trkpt><trkpt lat="44.11611662163211" lon="9.898186804516499"><ele>143.0</ele><time>2026-03-24T17:15:30.999Z</time></trkpt><trkpt lat="44.11601639412067" lon="9.898201386007388"><ele>143.0</ele><time>2026-03-24T17:15:32.999Z</time></trkpt><trkpt lat="44.11592286646232" lon="9.898209715265443"><ele>143.0</ele><time>2026-03-24T17:15:34.999Z</time></trkpt><trkpt lat="44.11583185211678" lon="9.898191712394395"><ele>143.0</ele><time>2026-03-24T17:15:36.999Z</time></trkpt><trkpt lat="44.11573229887735" lon="9.898150386459541"><ele>141.6</ele><time>2026-03-24T17:15:39Z</time></trkpt><trkpt lat="44.11562327964568" lon="9.898075241793496"><ele>140.20000000000002</ele><time>2026-03-24T17:15:41Z</time></trkpt><trkpt lat="44.11552011669373" lon="9.89797242786466"><ele>138.8</ele><time>2026-03-24T17:15:43Z</time></trkpt><trkpt lat="44.11546864973523" lon="9.897918304167968"><ele>137.4</ele><time>2026-03-24T17:15:44Z</time></trkpt><trkpt lat="44.115416466400376" lon="9.89786569592891"><ele>136.0</ele><time>2026-03-24T17:15:45Z</time></trkpt><trkpt lat="44.11531810196218" lon="9.897812006954158"><ele>136.0</ele><time>2026-03-24T17:15:47Z</time></trkpt><trkpt lat="44.11523751675118" lon="9.897733973464542"><ele>136.0</ele><time>2026-03-24T17:15:50Z</time></trkpt><trkpt lat="44.115163941599135" lon="9.897661184398173"><ele>136.0</ele><time>2026-03-24T17:15:52Z</time></trkpt><trkpt lat="44.115083564285186" lon="9.89757752906819"><ele>136.0</ele><time>2026-03-24T17:15:54Z</time></trkpt><trkpt lat="44.115023178379936" lon="9.897515127331104"><ele>136.0</ele><time>2026-03-24T17:15:56Z</time></trkpt><trkpt lat="44.114967339910464" lon="9.897454520526809"><ele>136.0</ele><time>2026-03-24T17:15:58Z</time></trkpt><trkpt lat="44.11490044398667" lon="9.89736050936933"><ele>134.0</ele><time>2026-03-24T17:16:00Z</time></trkpt><trkpt lat="44.11480852053388" lon="9.897275212599851"><ele>132.0</ele><time>2026-03-24T17:16:02Z</time></trkpt><trkpt lat="44.1147145785447" lon="9.897170039238109"><ele>130.0</ele><time>2026-03-24T17:16:04Z</time></trkpt><trkpt lat="44.11466380316617" lon="9.897115121870801"><ele>128.0</ele><time>2026-03-24T17:16:05Z</time></trkpt><trkpt lat="44.11455986011747" lon="9.89700137775433"><ele>126.0</ele><time>2026-03-24T17:16:07Z</time></trkpt><trkpt lat="44.114502289467296" lon="9.896940266048192"><ele>126.0</ele><time>2026-03-24T17:16:08Z</time></trkpt><trkpt lat="44.11444186152985" lon="9.896880963803468"><ele>126.0</ele><time>2026-03-24T17:16:09Z</time></trkpt><trkpt lat="44.11438265397378" lon="9.896816384193489"><ele>126.0</ele><time>2026-03-24T17:16:10Z</time></trkpt><trkpt lat="44.11431957275681" lon="9.89675356860945"><ele>126.0</ele><time>2026-03-24T17:16:11Z</time></trkpt><trkpt lat="44.11425103425081" lon="9.896706199059736"><ele>126.0</ele><time>2026-03-24T17:16:12Z</time></trkpt><trkpt lat="44.114180649350345" lon="9.896672441915088"><ele>126.0</ele><time>2026-03-24T17:16:13Z</time></trkpt><trkpt lat="44.11411114662021" lon="9.896644518475384"><ele>127.83333333333333</ele><time>2026-03-24T17:16:14Z</time></trkpt><trkpt lat="44.11404360098806" lon="9.896629323033238"><ele>129.66666666666666</ele><time>2026-03-24T17:16:15Z</time></trkpt><trkpt lat="44.11398020835558" lon="9.896620446849173"><ele>131.5</ele><time>2026-03-24T17:16:16Z</time></trkpt><trkpt lat="44.11387514397637" lon="9.896583280613095"><ele>133.33333333333331</ele><time>2026-03-24T17:16:18Z</time></trkpt><trkpt lat="44.11379102234244" lon="9.896580302133282"><ele>135.16666666666666</ele><time>2026-03-24T17:16:20Z</time></trkpt><trkpt lat="44.11370476603303" lon="9.896578030111106"><ele>137.0</ele><time>2026-03-24T17:16:22Z</time></trkpt><trkpt lat="44.113616500535045" lon="9.896576863981847"><ele>137.0</ele><time>2026-03-24T17:16:24Z</time></trkpt><trkpt lat="44.1135226761419" lon="9.896591136984243"><ele>137.0</ele><time>2026-03-24T17:16:26Z</time></trkpt><trkpt lat="44.11342279414392" lon="9.896593744310413"><ele>137.0</ele><time>2026-03-24T17:16:28Z</time></trkpt><trkpt lat="44.11330926360009" lon="9.89660743762009"><ele>137.0</ele><time>2026-03-24T17:16:30Z</time></trkpt><trkpt lat="44.113202746991604" lon="9.8966113918326"><ele>137.0</ele><time>2026-03-24T17:16:32Z</time></trkpt><trkpt lat="44.11309939958458" lon="9.896607392342723"><ele>136.4</ele><time>2026-03-24T17:16:34Z</time></trkpt><trkpt lat="44.11300322243287" lon="9.896595250887799"><ele>135.79999999999998</ele><time>2026-03-24T17:16:36Z</time></trkpt><trkpt lat="44.11290990150633" lon="9.896588334920427"><ele>135.2</ele><time>2026-03-24T17:16:38Z</time></trkpt><trkpt lat="44.1128160722627" lon="9.896596167334225"><ele>134.6</ele><time>2026-03-24T17:16:40Z</time></trkpt><trkpt lat="44.112721483300916" lon="9.896649278868413"><ele>134.0</ele><time>2026-03-24T17:16:42Z</time></trkpt><trkpt lat="44.112636418465875" lon="9.896711412798837"><ele>133.8</ele><time>2026-03-24T17:16:44Z</time></trkpt><trkpt lat="44.11256891725381" lon="9.89679823745304"><ele>133.60000000000002</ele><time>2026-03-24T17:16:46Z</time></trkpt><trkpt lat="44.11250813990705" lon="9.896920776833104"><ele>133.4</ele><time>2026-03-24T17:16:48Z</time></trkpt><trkpt lat="44.11247132139058" lon="9.89705780490807"><ele>133.20000000000002</ele><time>2026-03-24T17:16:50Z</time></trkpt><trkpt lat="44.112421359936526" lon="9.897199833179549"><ele>133.0</ele><time>2026-03-24T17:16:51.999Z</time></trkpt><trkpt lat="44.112389698864774" lon="9.897353910499803"><ele>133.16666666666669</ele><time>2026-03-24T17:16:53.999Z</time></trkpt><trkpt lat="44.112361855021106" lon="9.897499339523256"><ele>133.33333333333334</ele><time>2026-03-24T17:16:55.999Z</time></trkpt><trkpt lat="44.112334821806975" lon="9.897640539137559"><ele>133.5</ele><time>2026-03-24T17:16:57.999Z</time></trkpt><trkpt lat="44.11231166369636" lon="9.897764379113509"><ele>133.66666666666666</ele><time>2026-03-24T17:16:59.999Z</time></trkpt><trkpt lat="44.11230813783605" lon="9.897875807180226"><ele>133.83333333333331</ele><time>2026-03-24T17:17:01.999Z</time></trkpt><trkpt lat="44.11229251281033" lon="9.897961303104099"><ele>134.0</ele><time>2026-03-24T17:17:03.999Z</time></trkpt><trkpt lat="44.11225809390688" lon="9.898081185454435"><ele>134.0</ele><time>2026-03-24T17:17:06.999Z</time></trkpt><trkpt lat="44.11221337593789" lon="9.898166699419267"><ele>134.0</ele><time>2026-03-24T17:17:08.999Z</time></trkpt><trkpt lat="44.11214725205554" lon="9.898248744478805"><ele>134.0</ele><time>2026-03-24T17:17:10.999Z</time></trkpt><trkpt lat="44.11208319713902" lon="9.898333933521274"><ele>134.0</ele><time>2026-03-24T17:17:12.999Z</time></trkpt><trkpt lat="44.11202265757034" lon="9.89841336288264"><ele>134.0</ele><time>2026-03-24T17:17:14.999Z</time></trkpt><trkpt lat="44.11196232722425" lon="9.898500791393857"><ele>134.0</ele><time>2026-03-24T17:17:16.999Z</time></trkpt><trkpt lat="44.111896206949254" lon="9.898604754541065"><ele>132.4</ele><time>2026-03-24T17:17:18.999Z</time></trkpt><trkpt lat="44.11182682795294" lon="9.898715184592051"><ele>130.8</ele><time>2026-03-24T17:17:20.999Z</time></trkpt><trkpt lat="44.11176272164367" lon="9.898828734582201"><ele>129.2</ele><time>2026-03-24T17:17:22.999Z</time></trkpt><trkpt lat="44.111730795269374" lon="9.898993996785581"><ele>127.6</ele><time>2026-03-24T17:17:24.999Z</time></trkpt><trkpt lat="44.11174036010747" lon="9.899082350818238"><ele>126.0</ele><time>2026-03-24T17:17:25.999Z</time></trkpt><trkpt lat="44.11172689470635" lon="9.89917704875721"><ele>126.16666666666667</ele><time>2026-03-24T17:17:26.999Z</time></trkpt><trkpt lat="44.111730624780506" lon="9.899275020616699"><ele>126.33333333333334</ele><time>2026-03-24T17:17:27.999Z</time></trkpt><trkpt lat="44.11173586479722" lon="9.899377351325848"><ele>126.5</ele><time>2026-03-24T17:17:28.999Z</time></trkpt><trkpt lat="44.11174228178177" lon="9.899481444794812"><ele>126.66666666666667</ele><time>2026-03-24T17:17:29.999Z</time></trkpt><trkpt lat="44.11177386769737" lon="9.899581143275615"><ele>126.83333333333334</ele><time>2026-03-24T17:17:31Z</time></trkpt><trkpt lat="44.11178004422293" lon="9.899684540259218"><ele>127.0</ele><time>2026-03-24T17:17:32Z</time></trkpt><trkpt lat="44.11178647581854" lon="9.899792574081834"><ele>127.00000000000001</ele><time>2026-03-24T17:17:33Z</time></trkpt><trkpt lat="44.11179415785551" lon="9.899902523924904"><ele>127.0</ele><time>2026-03-24T17:17:34Z</time></trkpt><trkpt lat="44.11180033232115" lon="9.900014067757192"><ele>127.0</ele><time>2026-03-24T17:17:35Z</time></trkpt><trkpt lat="44.11180432791331" lon="9.900121484102105"><ele>127.0</ele><time>2026-03-24T17:17:36Z</time></trkpt><trkpt lat="44.11180917811211" lon="9.900231775652678"><ele>127.00000000000001</ele><time>2026-03-24T17:17:37Z</time></trkpt><trkpt lat="44.111815700262405" lon="9.900345718824193"><ele>127.0</ele><time>2026-03-24T17:17:38Z</time></trkpt><trkpt lat="44.11179581093844" lon="9.900463619795186"><ele>125.33333333333334</ele><time>2026-03-24T17:17:39Z</time></trkpt><trkpt lat="44.111803007856665" lon="9.900580895030787"><ele>123.66666666666667</ele><time>2026-03-24T17:17:40Z</time></trkpt><trkpt lat="44.11181276992375" lon="9.900700851223416"><ele>122.0</ele><time>2026-03-24T17:17:41Z</time></trkpt><trkpt lat="44.11182270880849" lon="9.900820403987371"><ele>120.33333333333334</ele><time>2026-03-24T17:17:42Z</time></trkpt><trkpt lat="44.11183009023033" lon="9.90094021604316"><ele>118.66666666666667</ele><time>2026-03-24T17:17:43Z</time></trkpt><trkpt lat="44.111838613957595" lon="9.901062760055868"><ele>117.0</ele><time>2026-03-24T17:17:44Z</time></trkpt><trkpt lat="44.11185502871626" lon="9.90118796285144"><ele>115.16666666666667</ele><time>2026-03-24T17:17:45Z</time></trkpt><trkpt lat="44.11188604355033" lon="9.901308042092962"><ele>113.33333333333334</ele><time>2026-03-24T17:17:46Z</time></trkpt><trkpt lat="44.11192510097276" lon="9.901421647068041"><ele>111.5</ele><time>2026-03-24T17:17:47Z</time></trkpt><trkpt lat="44.11196653448412" lon="9.901529597312804"><ele>109.66666666666667</ele><time>2026-03-24T17:17:48Z</time></trkpt><trkpt lat="44.11200540404619" lon="9.901632234943955"><ele>107.83333333333334</ele><time>2026-03-24T17:17:49Z</time></trkpt><trkpt lat="44.11204225128576" lon="9.90172959333147"><ele>106.0</ele><time>2026-03-24T17:17:50Z</time></trkpt><trkpt lat="44.11207746898431" lon="9.901822646135217"><ele>105.16666666666667</ele><time>2026-03-24T17:17:51Z</time></trkpt><trkpt lat="44.11211252232233" lon="9.901914328905177"><ele>104.33333333333334</ele><time>2026-03-24T17:17:52Z</time></trkpt><trkpt lat="44.11214600029931" lon="9.901998586929212"><ele>103.5</ele><time>2026-03-24T17:17:53Z</time></trkpt><trkpt lat="44.11218090416784" lon="9.902081513582338"><ele>102.66666666666666</ele><time>2026-03-24T17:17:54Z</time></trkpt><trkpt lat="44.11222022615072" lon="9.902159465266209"><ele>101.83333333333333</ele><time>2026-03-24T17:17:55Z</time></trkpt><trkpt lat="44.11226883445848" lon="9.902227381544146"><ele>101.0</ele><time>2026-03-24T17:17:56Z</time></trkpt><trkpt lat="44.112359755409344" lon="9.902340661248576"><ele>102.99999999999999</ele><time>2026-03-24T17:17:58Z</time></trkpt><trkpt lat="44.11244175274311" lon="9.902467265350534"><ele>105.0</ele><time>2026-03-24T17:18:00Z</time></trkpt><trkpt lat="44.11247447785142" lon="9.902550418776617"><ele>107.0</ele><time>2026-03-24T17:18:01Z</time></trkpt><trkpt lat="44.11250351540436" lon="9.90264420176265"><ele>109.0</ele><time>2026-03-24T17:18:02Z</time></trkpt><trkpt lat="44.112513159135545" lon="9.902740532762692"><ele>110.99999999999999</ele><time>2026-03-24T17:18:03Z</time></trkpt><trkpt lat="44.11251032738404" lon="9.902842896789029"><ele>113.0</ele><time>2026-03-24T17:18:04Z</time></trkpt><trkpt lat="44.11250115145873" lon="9.902955003168467"><ele>112.99999999999999</ele><time>2026-03-24T17:18:05Z</time></trkpt><trkpt lat="44.112492395374446" lon="9.903071981852474"><ele>113.0</ele><time>2026-03-24T17:18:06Z</time></trkpt><trkpt lat="44.11248192643742" lon="9.903194770150428"><ele>113.0</ele><time>2026-03-24T17:18:07Z</time></trkpt><trkpt lat="44.11247081815462" lon="9.90331400037365"><ele>113.0</ele><time>2026-03-24T17:18:08Z</time></trkpt><trkpt lat="44.11246152425001" lon="9.903439316677375"><ele>112.99999999999999</ele><time>2026-03-24T17:18:09Z</time></trkpt><trkpt lat="44.11245744733842" lon="9.903547920492414"><ele>113.0</ele><time>2026-03-24T17:18:10Z</time></trkpt><trkpt lat="44.112454639681296" lon="9.903638517796555"><ele>112.57142857142857</ele><time>2026-03-24T17:18:11Z</time></trkpt><trkpt lat="44.11245360196813" lon="9.903728056677911"><ele>112.14285714285714</ele><time>2026-03-24T17:18:12Z</time></trkpt><trkpt lat="44.11245535763325" lon="9.903816202167098"><ele>111.71428571428571</ele><time>2026-03-24T17:18:13Z</time></trkpt><trkpt lat="44.11246883898109" lon="9.903910245694037"><ele>111.28571428571428</ele><time>2026-03-24T17:18:14Z</time></trkpt><trkpt lat="44.112500224821844" lon="9.90398740960352"><ele>110.85714285714286</ele><time>2026-03-24T17:18:15Z</time></trkpt><trkpt lat="44.11256007115033" lon="9.904038433983517"><ele>110.42857142857142</ele><time>2026-03-24T17:18:16Z</time></trkpt><trkpt lat="44.11265972084005" lon="9.904113245368492"><ele>110.0</ele><time>2026-03-24T17:18:18Z</time></trkpt><trkpt lat="44.11274822957372" lon="9.9041963685216"><ele>107.99999999999999</ele><time>2026-03-24T17:18:20Z</time></trkpt><trkpt lat="44.112835887132135" lon="9.90428482465196"><ele>106.0</ele><time>2026-03-24T17:18:22Z</time></trkpt><trkpt lat="44.11292762396068" lon="9.904394553945139"><ele>104.0</ele><time>2026-03-24T17:18:24Z</time></trkpt><trkpt lat="44.11297718162165" lon="9.904452053240945"><ele>102.0</ele><time>2026-03-24T17:18:25Z</time></trkpt><trkpt lat="44.11303078332115" lon="9.90450128065516"><ele>99.99999999999999</ele><time>2026-03-24T17:18:26Z</time></trkpt><trkpt lat="44.11308944013155" lon="9.904545069185653"><ele>98.0</ele><time>2026-03-24T17:18:27Z</time></trkpt><trkpt lat="44.1131514750476" lon="9.904582091698725"><ele>98.0</ele><time>2026-03-24T17:18:28Z</time></trkpt><trkpt lat="44.11321678085633" lon="9.904618772066343"><ele>98.0</ele><time>2026-03-24T17:18:29Z</time></trkpt><trkpt lat="44.11329215122194" lon="9.90465721417077"><ele>98.0</ele><time>2026-03-24T17:18:30Z</time></trkpt><trkpt lat="44.11336061923305" lon="9.904688154407946"><ele>98.0</ele><time>2026-03-24T17:18:31Z</time></trkpt><trkpt lat="44.11343077507765" lon="9.90470958700994"><ele>98.0</ele><time>2026-03-24T17:18:32Z</time></trkpt><trkpt lat="44.11350501335973" lon="9.904698126615882"><ele>98.0</ele><time>2026-03-24T17:18:33Z</time></trkpt><trkpt lat="44.113571598693056" lon="9.904712395446856"><ele>98.0</ele><time>2026-03-24T17:18:34Z</time></trkpt><trkpt lat="44.11367802398396" lon="9.904750177943056"><ele>97.33333333333333</ele><time>2026-03-24T17:18:36Z</time></trkpt><trkpt lat="44.113800678772684" lon="9.904756103459453"><ele>96.66666666666666</ele><time>2026-03-24T17:18:38Z</time></trkpt><trkpt lat="44.11384212210933" lon="9.904654883539747"><ele>96.0</ele><time>2026-03-24T17:18:39Z</time></trkpt><trkpt lat="44.11378342299873" lon="9.90454158589612"><ele>95.33333333333333</ele><time>2026-03-24T17:18:40Z</time></trkpt><trkpt lat="44.11374272266275" lon="9.904455908007067"><ele>94.66666666666666</ele><time>2026-03-24T17:18:41Z</time></trkpt><trkpt lat="44.11370460714509" lon="9.90438318358676"><ele>94.0</ele><time>2026-03-24T17:18:42Z</time></trkpt><trkpt lat="44.11365176637026" lon="9.904281214634569"><ele>94.0</ele><time>2026-03-24T17:18:44Z</time></trkpt><trkpt lat="44.113693380659505" lon="9.904186391971384"><ele>94.0</ele><time>2026-03-24T17:18:46Z</time></trkpt><trkpt lat="44.113746743994035" lon="9.904270353760571"><ele>94.0</ele><time>2026-03-24T17:18:47Z</time></trkpt><trkpt lat="44.11379767195521" lon="9.904410245532139"><ele>94.0</ele><time>2026-03-24T17:18:49Z</time></trkpt><trkpt lat="44.11382836464085" lon="9.904491175802642"><ele>94.0</ele><time>2026-03-24T17:18:50Z</time></trkpt><trkpt lat="44.113876038776695" lon="9.904639156426875"><ele>94.0</ele><time>2026-03-24T17:18:52Z</time></trkpt><trkpt lat="44.113904063630365" lon="9.904743045338593"><ele>94.0</ele><time>2026-03-24T17:18:54Z</time></trkpt><trkpt lat="44.1139849682013" lon="9.904801146572215"><ele>94.0</ele><time>2026-03-24T17:18:56Z</time></trkpt><trkpt lat="44.11402279763688" lon="9.904691486393853"><ele>94.0</ele><time>2026-03-24T17:18:57Z</time></trkpt><trkpt lat="44.113978632131165" lon="9.904562181825987"><ele>94.0</ele><time>2026-03-24T17:18:59Z</time></trkpt><trkpt lat="44.113924179702835" lon="9.904414228815142"><ele>94.0</ele><time>2026-03-24T17:19:01Z</time></trkpt><trkpt lat="44.113893966581585" lon="9.904336518800335"><ele>94.0</ele><time>2026-03-24T17:19:02Z</time></trkpt><trkpt lat="44.11383481759384" lon="9.904180241347051"><ele>94.0</ele><time>2026-03-24T17:19:04Z</time></trkpt><trkpt lat="44.11378967905009" lon="9.9041085928053"><ele>94.0</ele><time>2026-03-24T17:19:05Z</time></trkpt><trkpt lat="44.113734247862695" lon="9.904046615157766"><ele>94.0</ele><time>2026-03-24T17:19:06Z</time></trkpt><trkpt lat="44.11366834587615" lon="9.90400445662878"><ele>94.0</ele><time>2026-03-24T17:19:07Z</time></trkpt><trkpt lat="44.11359680144526" lon="9.903975034381823"><ele>94.5</ele><time>2026-03-24T17:19:08Z</time></trkpt><trkpt lat="44.11352453411289" lon="9.903941244685791"><ele>95.0</ele><time>2026-03-24T17:19:09Z</time></trkpt><trkpt lat="44.11344416436641" lon="9.903909392429716"><ele>95.5</ele><time>2026-03-24T17:19:10Z</time></trkpt><trkpt lat="44.113362175043314" lon="9.903897053885023"><ele>96.0</ele><time>2026-03-24T17:19:11Z</time></trkpt><trkpt lat="44.113279398242845" lon="9.9038792652472"><ele>96.50000000000001</ele><time>2026-03-24T17:19:12Z</time></trkpt><trkpt lat="44.11319371381412" lon="9.903848533821025"><ele>97.0</ele><time>2026-03-24T17:19:13Z</time></trkpt><trkpt lat="44.11311629209728" lon="9.903822982748162"><ele>99.6</ele><time>2026-03-24T17:19:14Z</time></trkpt><trkpt lat="44.1130377381378" lon="9.903797483672092"><ele>102.19999999999999</ele><time>2026-03-24T17:19:15Z</time></trkpt><trkpt lat="44.11296044148563" lon="9.903750609153239"><ele>104.8</ele><time>2026-03-24T17:19:16Z</time></trkpt><trkpt lat="44.11288943360378" lon="9.903675034834107"><ele>107.4</ele><time>2026-03-24T17:19:17Z</time></trkpt><trkpt lat="44.11285412649491" lon="9.903551508421137"><ele>110.0</ele><time>2026-03-24T17:19:18Z</time></trkpt><trkpt lat="44.11286293608656" lon="9.903412127170494"><ele>110.6</ele><time>2026-03-24T17:19:19Z</time></trkpt><trkpt lat="44.112960193423646" lon="9.903330832121318"><ele>111.2</ele><time>2026-03-24T17:19:20Z</time></trkpt><trkpt lat="44.11301431286003" lon="9.903214819593746"><ele>111.80000000000001</ele><time>2026-03-24T17:19:21Z</time></trkpt><trkpt lat="44.11305697952483" lon="9.903130939967264"><ele>112.4</ele><time>2026-03-24T17:19:22Z</time></trkpt><trkpt lat="44.113158250604606" lon="9.903047797536999"><ele>113.0</ele><time>2026-03-24T17:19:24Z</time></trkpt><trkpt lat="44.11315751406004" lon="9.903341748520962"><ele>112.49999999999999</ele><time>2026-03-24T17:19:25Z</time></trkpt><trkpt lat="44.11314439049777" lon="9.903446579366646"><ele>112.0</ele><time>2026-03-24T17:19:26Z</time></trkpt><trkpt lat="44.113183819587356" lon="9.903547877598344"><ele>111.5</ele><time>2026-03-24T17:19:27Z</time></trkpt><trkpt lat="44.11325957293683" lon="9.903633743579938"><ele>111.0</ele><time>2026-03-24T17:19:28Z</time></trkpt><trkpt lat="44.113347972545014" lon="9.903680987359197"><ele>110.49999999999999</ele><time>2026-03-24T17:19:29Z</time></trkpt><trkpt lat="44.11343034043168" lon="9.903699797088528"><ele>110.0</ele><time>2026-03-24T17:19:30Z</time></trkpt><trkpt lat="44.11352150753269" lon="9.903673486743958"><ele>107.4</ele><time>2026-03-24T17:19:31Z</time></trkpt><trkpt lat="44.113608856210284" lon="9.903654861390226"><ele>104.8</ele><time>2026-03-24T17:19:32Z</time></trkpt><trkpt lat="44.11369872194903" lon="9.903716544780872"><ele>102.19999999999999</ele><time>2026-03-24T17:19:33Z</time></trkpt><trkpt lat="44.11379324563916" lon="9.903775059939269"><ele>99.6</ele><time>2026-03-24T17:19:34Z</time></trkpt><trkpt lat="44.11388462180274" lon="9.903836071084582"><ele>97.0</ele><time>2026-03-24T17:19:35Z</time></trkpt><trkpt lat="44.11396881542373" lon="9.903890053609299"><ele>97.0</ele><time>2026-03-24T17:19:36Z</time></trkpt><trkpt lat="44.114043585860564" lon="9.903953162103763"><ele>97.0</ele><time>2026-03-24T17:19:37Z</time></trkpt><trkpt lat="44.11411831767572" lon="9.904042714959976"><ele>97.0</ele><time>2026-03-24T17:19:38Z</time></trkpt><trkpt lat="44.1141653744508" lon="9.90416106743279"><ele>97.0</ele><time>2026-03-24T17:19:39Z</time></trkpt><trkpt lat="44.11425204764911" lon="9.904267826613454"><ele>97.0</ele><time>2026-03-24T17:19:40Z</time></trkpt><trkpt lat="44.114349975081886" lon="9.904319299049325"><ele>94.8</ele><time>2026-03-24T17:19:41Z</time></trkpt><trkpt lat="44.11447051765407" lon="9.904301977022294"><ele>92.6</ele><time>2026-03-24T17:19:42Z</time></trkpt><trkpt lat="44.11456936536847" lon="9.904299307418853"><ele>90.39999999999999</ele><time>2026-03-24T17:19:43Z</time></trkpt><trkpt lat="44.11466069114061" lon="9.904377774538315"><ele>88.19999999999999</ele><time>2026-03-24T17:19:44Z</time></trkpt><trkpt lat="44.114746114306286" lon="9.90445433915377"><ele>86.0</ele><time>2026-03-24T17:19:45Z</time></trkpt><trkpt lat="44.114819624985635" lon="9.904571404420391"><ele>86.0</ele><time>2026-03-24T17:19:46Z</time></trkpt><trkpt lat="44.1148518886325" lon="9.904744837543564"><ele>86.0</ele><time>2026-03-24T17:19:47Z</time></trkpt><trkpt lat="44.114906038755905" lon="9.904885629741434"><ele>86.0</ele><time>2026-03-24T17:19:48Z</time></trkpt><trkpt lat="44.11498950978518" lon="9.90501263515849"><ele>86.0</ele><time>2026-03-24T17:19:49Z</time></trkpt><trkpt lat="44.11507606129056" lon="9.905134072743847"><ele>81.6</ele><time>2026-03-24T17:19:50Z</time></trkpt><trkpt lat="44.11513535514322" lon="9.905265732959778"><ele>77.19999999999999</ele><time>2026-03-24T17:19:51Z</time></trkpt><trkpt lat="44.11519585088501" lon="9.905374519310664"><ele>72.80000000000001</ele><time>2026-03-24T17:19:52Z</time></trkpt><trkpt lat="44.115241932423416" lon="9.905475975979252"><ele>68.4</ele><time>2026-03-24T17:19:53Z</time></trkpt><trkpt lat="44.11527328269903" lon="9.90558469257098"><ele>64.0</ele><time>2026-03-24T17:19:54Z</time></trkpt><trkpt lat="44.115303733704984" lon="9.905687227700547"><ele>63.99999999999999</ele><time>2026-03-24T17:19:55Z</time></trkpt><trkpt lat="44.115331765808925" lon="9.905784841266097"><ele>64.0</ele><time>2026-03-24T17:19:56Z</time></trkpt><trkpt lat="44.115362303539875" lon="9.905873427085856"><ele>64.0</ele><time>2026-03-24T17:19:57Z</time></trkpt><trkpt lat="44.11534173899957" lon="9.905984068356187"><ele>64.0</ele><time>2026-03-24T17:19:58Z</time></trkpt><trkpt lat="44.115339200367664" lon="9.906082839724517"><ele>63.99999999999999</ele><time>2026-03-24T17:19:59Z</time></trkpt><trkpt lat="44.11536300011863" lon="9.906222312847204"><ele>64.0</ele><time>2026-03-24T17:20:01Z</time></trkpt><trkpt lat="44.115357173583064" lon="9.906327871270275"><ele>62.49999999999999</ele><time>2026-03-24T17:20:03Z</time></trkpt><trkpt lat="44.11532411836584" lon="9.906412973945772"><ele>61.0</ele><time>2026-03-24T17:20:05Z</time></trkpt><trkpt lat="44.115305553492284" lon="9.906535732321634"><ele>59.5</ele><time>2026-03-24T17:20:09Z</time></trkpt><trkpt lat="44.11527930588364" lon="9.906619491204815"><ele>58.0</ele><time>2026-03-24T17:20:12Z</time></trkpt><trkpt lat="44.115265859860926" lon="9.906715062113019"><ele>56.49999999999999</ele><time>2026-03-24T17:20:16Z</time></trkpt><trkpt lat="44.115190161408634" lon="9.90677494594851"><ele>55.0</ele><time>2026-03-24T17:20:23Z</time></trkpt><trkpt lat="44.11514600330807" lon="9.906848416552906"><ele>52.99999999999999</ele><time>2026-03-24T17:20:26Z</time></trkpt><trkpt lat="44.11507905277082" lon="9.906926352884577"><ele>51.0</ele><time>2026-03-24T17:20:30Z</time></trkpt><trkpt lat="44.115136957872316" lon="9.907019283300636"><ele>49.0</ele><time>2026-03-24T17:20:34Z</time></trkpt><trkpt lat="44.11511440445842" lon="9.907180461738138"><ele>47.0</ele><time>2026-03-24T17:20:35Z</time></trkpt><trkpt lat="44.11505948133116" lon="9.907224450062479"><ele>45.0</ele><time>2026-03-24T17:20:39Z</time></trkpt><trkpt lat="44.1149989345284" lon="9.907277494549886"><ele>43.0</ele><time>2026-03-24T17:20:43Z</time></trkpt><trkpt lat="44.11494171832526" lon="9.907327304193284"><ele>48.0</ele><time>2026-03-24T17:20:47Z</time></trkpt><trkpt lat="44.11472432714075" lon="9.906975027166387"><ele>53.0</ele><time>2026-03-24T17:20:52Z</time></trkpt><trkpt lat="44.114670702020426" lon="9.90690110827186"><ele>58.0</ele><time>2026-03-24T17:20:57Z</time></trkpt><trkpt lat="44.11462770935687" lon="9.9068253185219"><ele>58.00000000000001</ele><time>2026-03-24T17:21:00Z</time></trkpt><trkpt lat="44.11457524338946" lon="9.90675201499079"><ele>58.0</ele><time>2026-03-24T17:21:04Z</time></trkpt><trkpt lat="44.114531928564915" lon="9.906660946017121"><ele>58.00000000000001</ele><time>2026-03-24T17:21:08Z</time></trkpt><trkpt lat="44.11448197732364" lon="9.906603365616593"><ele>58.00000000000001</ele><time>2026-03-24T17:21:11Z</time></trkpt><trkpt lat="44.11443065108972" lon="9.906549623876929"><ele>58.0</ele><time>2026-03-24T17:21:14Z</time></trkpt><trkpt lat="44.11436511483412" lon="9.906491252984331"><ele>58.00000000000001</ele><time>2026-03-24T17:21:17Z</time></trkpt><trkpt lat="44.1143029119567" lon="9.90643213722782"><ele>58.00000000000001</ele><time>2026-03-24T17:21:21Z</time></trkpt><trkpt lat="44.11424510818321" lon="9.906385512722386"><ele>59.00000000000001</ele><time>2026-03-24T17:21:26Z</time></trkpt><trkpt lat="44.11419186576332" lon="9.906338354188646"><ele>60.0</ele><time>2026-03-24T17:21:30Z</time></trkpt><trkpt lat="44.11413920325743" lon="9.906287491035137"><ele>61.00000000000001</ele><time>2026-03-24T17:21:34Z</time></trkpt><trkpt lat="44.11407902217207" lon="9.906242257000084"><ele>62.00000000000001</ele><time>2026-03-24T17:21:38Z</time></trkpt><trkpt lat="44.11402283315061" lon="9.906172805954297"><ele>63.0</ele><time>2026-03-24T17:21:43Z</time></trkpt><trkpt lat="44.11398691234335" lon="9.906098743273457"><ele>64.00000000000001</ele><time>2026-03-24T17:21:48Z</time></trkpt><trkpt lat="44.11395354878665" lon="9.906013250011943"><ele>65.0</ele><time>2026-03-24T17:21:53Z</time></trkpt><trkpt lat="44.11390847103797" lon="9.905947301651423"><ele>67.57142857142858</ele><time>2026-03-24T17:21:58Z</time></trkpt><trkpt lat="44.11386494343506" lon="9.905877954679188"><ele>70.14285714285714</ele><time>2026-03-24T17:22:02Z</time></trkpt><trkpt lat="44.11380049845807" lon="9.905814173917092"><ele>72.71428571428572</ele><time>2026-03-24T17:22:06Z</time></trkpt><trkpt lat="44.11383167215183" lon="9.9057147106492"><ele>75.28571428571429</ele><time>2026-03-24T17:22:25Z</time></trkpt><trkpt lat="44.11388033785476" lon="9.905649055206636"><ele>77.85714285714286</ele><time>2026-03-24T17:22:51Z</time></trkpt><trkpt lat="44.11390736970843" lon="9.905730966627468"><ele>80.42857142857143</ele><time>2026-03-24T17:22:59Z</time></trkpt><trkpt lat="44.11398485802564" lon="9.905769973202458"><ele>83.0</ele><time>2026-03-24T17:23:02Z</time></trkpt><trkpt lat="44.11403460883563" lon="9.905830761918574"><ele>83.16666666666667</ele><time>2026-03-24T17:23:05Z</time></trkpt><trkpt lat="44.11406168348742" lon="9.905917391684364"><ele>83.33333333333334</ele><time>2026-03-24T17:23:11Z</time></trkpt><trkpt lat="44.11407358978638" lon="9.906045531871566"><ele>83.5</ele><time>2026-03-24T17:23:48.001Z</time></trkpt><trkpt lat="44.114021172579335" lon="9.906095227585997"><ele>83.66666666666667</ele><time>2026-03-24T17:23:55.001Z</time></trkpt><trkpt lat="44.11394793753012" lon="9.90611543120181"><ele>83.83333333333333</ele><time>2026-03-24T17:24:47Z</time></trkpt><trkpt lat="44.11401846765164" lon="9.906111229546331"><ele>84.0</ele><time>2026-03-24T17:25:17Z</time></trkpt><trkpt lat="44.114063473379964" lon="9.905957107458416"><ele>84.0</ele><time>2026-03-24T23:55:49.999Z</time></trkpt><trkpt lat="44.11383548643793" lon="9.905983146258604"><ele>84.0</ele><time>2026-03-25T03:24:53.999Z</time></trkpt><trkpt lat="44.113937665009914" lon="9.906010508241465"><ele>84.0</ele><time>2026-03-25T04:08:27.595Z</time></trkpt><trkpt lat="44.1140072943831" lon="9.906021661040729"><ele>84.0</ele><time>2026-03-25T04:08:43.078Z</time></trkpt><trkpt lat="44.11403882380513" lon="9.905661911672738"><ele>83.83333333333333</ele><time>2026-03-25T05:06:51.995Z</time></trkpt><trkpt lat="44.11397932084854" lon="9.90560847684517"><ele>83.66666666666667</ele><time>2026-03-25T05:06:58.997Z</time></trkpt><trkpt lat="44.113938564926386" lon="9.905531467049355"><ele>83.5</ele><time>2026-03-25T05:07:08.998Z</time></trkpt><trkpt lat="44.113886258240456" lon="9.905481083724819"><ele>83.33333333333334</ele><time>2026-03-25T05:07:20.999Z</time></trkpt><trkpt lat="44.11386848333327" lon="9.905396254076923"><ele>83.16666666666667</ele><time>2026-03-25T05:07:44.999Z</time></trkpt><trkpt lat="44.11388620853243" lon="9.905309222139795"><ele>83.0</ele><time>2026-03-25T05:07:53.999Z</time></trkpt><trkpt lat="44.11401981037096" lon="9.905351778264187"><ele>83.0</ele><time>2026-03-25T05:08:05.079Z</time></trkpt><trkpt lat="44.11398250871095" lon="9.905264442643357"><ele>83.0</ele><time>2026-03-25T05:08:09.999Z</time></trkpt><trkpt lat="44.113933749021776" lon="9.905170824351572"><ele>83.0</ele><time>2026-03-25T05:08:23.999Z</time></trkpt><trkpt lat="44.11393361374676" lon="9.90507431029606"><ele>83.0</ele><time>2026-03-25T05:08:28.999Z</time></trkpt><trkpt lat="44.11394520822936" lon="9.904987039146983"><ele>83.0</ele><time>2026-03-25T05:08:34.999Z</time></trkpt><trkpt lat="44.11390803575545" lon="9.904905107559955"><ele>83.0</ele><time>2026-03-25T05:08:42.998Z</time></trkpt><trkpt lat="44.11390389066243" lon="9.90481603509273"><ele>83.0</ele><time>2026-03-25T05:08:50.998Z</time></trkpt><trkpt lat="44.113910300084804" lon="9.90470117349565"><ele>84.57142857142857</ele><time>2026-03-25T05:08:56Z</time></trkpt><trkpt lat="44.113936749088296" lon="9.90460227589094"><ele>86.14285714285715</ele><time>2026-03-25T05:09:00Z</time></trkpt><trkpt lat="44.113935650508225" lon="9.904510713867856"><ele>87.71428571428572</ele><time>2026-03-25T05:09:06Z</time></trkpt><trkpt lat="44.11389788095882" lon="9.904426796249929"><ele>89.28571428571428</ele><time>2026-03-25T05:09:12Z</time></trkpt><trkpt lat="44.113869878516525" lon="9.90434544398899"><ele>90.85714285714286</ele><time>2026-03-25T05:09:16.999Z</time></trkpt><trkpt lat="44.113847794097474" lon="9.904246381538249"><ele>92.42857142857143</ele><time>2026-03-25T05:09:22.999Z</time></trkpt><trkpt lat="44.113806038116316" lon="9.904169667804979"><ele>94.0</ele><time>2026-03-25T05:09:28.999Z</time></trkpt><trkpt lat="44.11374603823277" lon="9.904125395247819"><ele>94.42857142857143</ele><time>2026-03-25T05:09:33.999Z</time></trkpt><trkpt lat="44.11368289995396" lon="9.90409618286983"><ele>94.85714285714286</ele><time>2026-03-25T05:09:38.999Z</time></trkpt><trkpt lat="44.113619708985865" lon="9.904073996098468"><ele>95.28571428571428</ele><time>2026-03-25T05:09:42.999Z</time></trkpt><trkpt lat="44.113552824867874" lon="9.904046261717058"><ele>95.71428571428572</ele><time>2026-03-25T05:09:47.999Z</time></trkpt><trkpt lat="44.113484901159765" lon="9.904015547408948"><ele>96.14285714285715</ele><time>2026-03-25T05:09:52.999Z</time></trkpt><trkpt lat="44.11342001990668" lon="9.903997609232691"><ele>96.57142857142857</ele><time>2026-03-25T05:09:57.999Z</time></trkpt><trkpt lat="44.113352731013805" lon="9.903966420100485"><ele>97.0</ele><time>2026-03-25T05:10:02.999Z</time></trkpt><trkpt lat="44.11328695347944" lon="9.903940569763618"><ele>98.85714285714285</ele><time>2026-03-25T05:10:07.999Z</time></trkpt><trkpt lat="44.113237078328574" lon="9.903879476570458"><ele>100.71428571428572</ele><time>2026-03-25T05:10:11.999Z</time></trkpt><trkpt lat="44.11317960101864" lon="9.903836396239777"><ele>102.57142857142857</ele><time>2026-03-25T05:10:16.999Z</time></trkpt><trkpt lat="44.113116373170705" lon="9.90380950294779"><ele>104.42857142857142</ele><time>2026-03-25T05:10:21.999Z</time></trkpt><trkpt lat="44.1130974519098" lon="9.903709130349414"><ele>106.28571428571428</ele><time>2026-03-25T05:10:26.999Z</time></trkpt><trkpt lat="44.113116366813834" lon="9.903608888661239"><ele>108.14285714285714</ele><time>2026-03-25T05:10:31.999Z</time></trkpt><trkpt lat="44.113038467255514" lon="9.903631370000138"><ele>110.0</ele><time>2026-03-25T05:11:20Z</time></trkpt><trkpt lat="44.11307964612477" lon="9.903705589092382"><ele>109.99999999999999</ele><time>2026-03-25T05:11:22Z</time></trkpt><trkpt lat="44.11312800220112" lon="9.903780298899617"><ele>110.0</ele><time>2026-03-25T05:11:24Z</time></trkpt><trkpt lat="44.113049943063274" lon="9.90384383086833"><ele>110.0</ele><time>2026-03-25T05:11:27Z</time></trkpt><trkpt lat="44.112950758008026" lon="9.903739989822975"><ele>110.0</ele><time>2026-03-25T05:11:28.999Z</time></trkpt><trkpt lat="44.112900588707376" lon="9.90367767886614"><ele>109.99999999999999</ele><time>2026-03-25T05:11:29.999Z</time></trkpt><trkpt lat="44.11286200152256" lon="9.903605352315905"><ele>110.0</ele><time>2026-03-25T05:11:30.999Z</time></trkpt><trkpt lat="44.112841772655095" lon="9.903516911518683"><ele>110.6</ele><time>2026-03-25T05:11:31.999Z</time></trkpt><trkpt lat="44.112908210788454" lon="9.903379901266888"><ele>111.2</ele><time>2026-03-25T05:11:32.999Z</time></trkpt><trkpt lat="44.11297202126665" lon="9.90330987066384"><ele>111.80000000000001</ele><time>2026-03-25T05:11:33.999Z</time></trkpt><trkpt lat="44.11301549105122" lon="9.903212171713216"><ele>112.4</ele><time>2026-03-25T05:11:35.999Z</time></trkpt><trkpt lat="44.11306983752552" lon="9.903156488784003"><ele>113.0</ele><time>2026-03-25T05:11:37.999Z</time></trkpt><trkpt lat="44.113120094865884" lon="9.903387804435289"><ele>112.49999999999999</ele><time>2026-03-25T05:11:38.999Z</time></trkpt><trkpt lat="44.113150884812896" lon="9.903509544324626"><ele>112.0</ele><time>2026-03-25T05:11:39.999Z</time></trkpt><trkpt lat="44.11320214519432" lon="9.903615123813545"><ele>111.5</ele><time>2026-03-25T05:11:40.999Z</time></trkpt><trkpt lat="44.11326307102064" lon="9.903667472286957"><ele>111.0</ele><time>2026-03-25T05:11:41.999Z</time></trkpt><trkpt lat="44.11334128424011" lon="9.903723769474892"><ele>110.49999999999999</ele><time>2026-03-25T05:11:42.999Z</time></trkpt><trkpt lat="44.11343716647984" lon="9.903725267585527"><ele>110.0</ele><time>2026-03-25T05:11:43.999Z</time></trkpt><trkpt lat="44.11356620286091" lon="9.903717962387688"><ele>107.4</ele><time>2026-03-25T05:11:44.999Z</time></trkpt><trkpt lat="44.113691524268155" lon="9.903768168929583"><ele>104.8</ele><time>2026-03-25T05:11:45.999Z</time></trkpt><trkpt lat="44.11378663945586" lon="9.903834231022758"><ele>102.19999999999999</ele><time>2026-03-25T05:11:46.999Z</time></trkpt><trkpt lat="44.113876013480066" lon="9.903894192767257"><ele>99.6</ele><time>2026-03-25T05:11:47.999Z</time></trkpt><trkpt lat="44.11395787358164" lon="9.903961492501034"><ele>97.0</ele><time>2026-03-25T05:11:48.999Z</time></trkpt><trkpt lat="44.11403293803572" lon="9.90400378434269"><ele>94.8</ele><time>2026-03-25T05:11:49.999Z</time></trkpt><trkpt lat="44.11408821157144" lon="9.904071902566388"><ele>92.6</ele><time>2026-03-25T05:11:50.999Z</time></trkpt><trkpt lat="44.114139335893114" lon="9.904149651873965"><ele>90.39999999999999</ele><time>2026-03-25T05:11:51.999Z</time></trkpt><trkpt lat="44.114215054518084" lon="9.904224878117875"><ele>88.19999999999999</ele><time>2026-03-25T05:11:52.999Z</time></trkpt><trkpt lat="44.114314387115925" lon="9.904279029168869"><ele>86.0</ele><time>2026-03-25T05:11:53.999Z</time></trkpt><trkpt lat="44.11441725763249" lon="9.904303577825566"><ele>86.0</ele><time>2026-03-25T05:11:54.999Z</time></trkpt><trkpt lat="44.11452634149993" lon="9.904331866568075"><ele>86.0</ele><time>2026-03-25T05:11:55.999Z</time></trkpt><trkpt lat="44.114628726586616" lon="9.90439744171682"><ele>86.0</ele><time>2026-03-25T05:11:56.999Z</time></trkpt><trkpt lat="44.1147200778708" lon="9.904478150842836"><ele>86.0</ele><time>2026-03-25T05:11:57.999Z</time></trkpt><trkpt lat="44.11479037607364" lon="9.90458668793403"><ele>86.0</ele><time>2026-03-25T05:11:58.999Z</time></trkpt><trkpt lat="44.11484447002035" lon="9.904704348221653"><ele>86.0</ele><time>2026-03-25T05:11:59.999Z</time></trkpt><trkpt lat="44.114895728826056" lon="9.904830290233532"><ele>86.0</ele><time>2026-03-25T05:12:00.999Z</time></trkpt><trkpt lat="44.114968193275715" lon="9.904974088795832"><ele>86.0</ele><time>2026-03-25T05:12:01.999Z</time></trkpt><trkpt lat="44.11505591619389" lon="9.905129915147345"><ele>86.0</ele><time>2026-03-25T05:12:02.999Z</time></trkpt><trkpt lat="44.11514122827661" lon="9.905282334386289"><ele>80.5</ele><time>2026-03-25T05:12:03.999Z</time></trkpt><trkpt lat="44.11521753227477" lon="9.905441691268269"><ele>75.0</ele><time>2026-03-25T05:12:04.999Z</time></trkpt><trkpt lat="44.11527517375997" lon="9.905610937243772"><ele>69.5</ele><time>2026-03-25T05:12:05.999Z</time></trkpt><trkpt lat="44.11532123059441" lon="9.905781888508239"><ele>64.0</ele><time>2026-03-25T05:12:06.999Z</time></trkpt><trkpt lat="44.11535206143615" lon="9.905955152894364"><ele>61.75</ele><time>2026-03-25T05:12:07.999Z</time></trkpt><trkpt lat="44.11537147228125" lon="9.906125464955029"><ele>59.5</ele><time>2026-03-25T05:12:08.999Z</time></trkpt><trkpt lat="44.115384863333716" lon="9.90629467975229"><ele>57.25</ele><time>2026-03-25T05:12:09.999Z</time></trkpt><trkpt lat="44.115392036643385" lon="9.906464230572412"><ele>55.0</ele><time>2026-03-25T05:12:10.999Z</time></trkpt><trkpt lat="44.11539730811097" lon="9.906630804389746"><ele>52.6</ele><time>2026-03-25T05:12:11.999Z</time></trkpt><trkpt lat="44.11538980228313" lon="9.906789377343626"><ele>50.2</ele><time>2026-03-25T05:12:12.999Z</time></trkpt><trkpt lat="44.11536309778961" lon="9.906928454603795"><ele>47.8</ele><time>2026-03-25T05:12:13.999Z</time></trkpt><trkpt lat="44.11531794610092" lon="9.907045029191583"><ele>45.4</ele><time>2026-03-25T05:12:14.999Z</time></trkpt><trkpt lat="44.11525158339861" lon="9.907140247771862"><ele>43.0</ele><time>2026-03-25T05:12:15.999Z</time></trkpt><trkpt lat="44.11517410881729" lon="9.907210274043994"><ele>43.0</ele><time>2026-03-25T05:12:16.999Z</time></trkpt><trkpt lat="44.11509960303614" lon="9.907265413472878"><ele>43.0</ele><time>2026-03-25T05:12:17.999Z</time></trkpt><trkpt lat="44.115046893364465" lon="9.907314220744086"><ele>43.0</ele><time>2026-03-25T05:12:18.999Z</time></trkpt><trkpt lat="44.11501230479666" lon="9.907410409581782"><ele>43.0</ele><time>2026-03-25T05:12:20.999Z</time></trkpt><trkpt lat="44.11507146817377" lon="9.907518942252482"><ele>43.0</ele><time>2026-03-25T05:12:21.999Z</time></trkpt><trkpt lat="44.11519708621784" lon="9.90749691666083"><ele>43.0</ele><time>2026-03-25T05:12:22.999Z</time></trkpt><trkpt lat="44.115295654991954" lon="9.907466096626102"><ele>43.0</ele><time>2026-03-25T05:12:23.999Z</time></trkpt><trkpt lat="44.115386429569725" lon="9.907440808783665"><ele>43.0</ele><time>2026-03-25T05:12:24.999Z</time></trkpt><trkpt lat="44.11545375272634" lon="9.907455609968881"><ele>43.0</ele><time>2026-03-25T05:12:25.999Z</time></trkpt><trkpt lat="44.115522742097085" lon="9.907507780326226"><ele>43.0</ele><time>2026-03-25T05:12:26.999Z</time></trkpt><trkpt lat="44.11563319463093" lon="9.907604297391556"><ele>43.0</ele><time>2026-03-25T05:12:28.999Z</time></trkpt><trkpt lat="44.115759298095234" lon="9.907624075821364"><ele>39.0</ele><time>2026-03-25T05:12:29.999Z</time></trkpt><trkpt lat="44.1158351112004" lon="9.907686680940099"><ele>35.0</ele><time>2026-03-25T05:12:30.999Z</time></trkpt><trkpt lat="44.11591930659888" lon="9.907777057343402"><ele>31.0</ele><time>2026-03-25T05:12:31.999Z</time></trkpt><trkpt lat="44.115982935050404" lon="9.907909853484405"><ele>27.0</ele><time>2026-03-25T05:12:32.999Z</time></trkpt><trkpt lat="44.11599916583867" lon="9.908049308270671"><ele>23.0</ele><time>2026-03-25T05:12:33.999Z</time></trkpt><trkpt lat="44.116043892271044" lon="9.908172227162789"><ele>23.0</ele><time>2026-03-25T05:12:34.999Z</time></trkpt><trkpt lat="44.116055472011276" lon="9.908262437670274"><ele>23.0</ele><time>2026-03-25T05:12:35.999Z</time></trkpt><trkpt lat="44.11605242179952" lon="9.908351234690997"><ele>23.0</ele><time>2026-03-25T05:12:49.999Z</time></trkpt><trkpt lat="44.11592964827904" lon="9.90845253556948"><ele>23.0</ele><time>2026-03-25T05:13:15Z</time></trkpt><trkpt lat="44.11589176639596" lon="9.908557795385448"><ele>23.0</ele><time>2026-03-25T05:13:19Z</time></trkpt><trkpt lat="44.11585698191975" lon="9.908655513324371"><ele>23.0</ele><time>2026-03-25T05:13:22Z</time></trkpt><trkpt lat="44.115929770102426" lon="9.908645891418132"><ele>23.0</ele><time>2026-03-25T05:13:32Z</time></trkpt><trkpt lat="44.11612895642526" lon="9.908488701761733"><ele>23.0</ele><time>2026-03-25T05:13:38.051Z</time></trkpt><trkpt lat="44.11617887078479" lon="9.90842612705176"><ele>23.0</ele><time>2026-03-25T05:13:50.024Z</time></trkpt><trkpt lat="44.11612114646339" lon="9.908332699018098"><ele>23.0</ele><time>2026-03-25T05:13:57.023Z</time></trkpt><trkpt lat="44.11605262282531" lon="9.908326467942763"><ele>23.0</ele><time>2026-03-25T05:13:59.999Z</time></trkpt><trkpt lat="44.11597764766667" lon="9.908304375465052"><ele>23.0</ele><time>2026-03-25T05:14:07.999Z</time></trkpt><trkpt lat="44.11597387775833" lon="9.908409021696624"><ele>23.0</ele><time>2026-03-25T05:14:18.999Z</time></trkpt><trkpt lat="44.115914556208786" lon="9.908442305398259"><ele>23.0</ele><time>2026-03-25T05:14:31.999Z</time></trkpt><trkpt lat="44.115870521055996" lon="9.908378474226565"><ele>23.0</ele><time>2026-03-25T05:14:34.999Z</time></trkpt><trkpt lat="44.11580527446356" lon="9.908353068129792"><ele>23.0</ele><time>2026-03-25T05:14:42.999Z</time></trkpt><trkpt lat="44.115878094584104" lon="9.908349901455345"><ele>23.0</ele><time>2026-03-25T05:14:59.999Z</time></trkpt><trkpt lat="44.1159489568004" lon="9.908347109036345"><ele>23.0</ele><time>2026-03-25T05:15:03.039Z</time></trkpt><trkpt lat="44.11610163133918" lon="9.908338022542148"><ele>23.0</ele><time>2026-03-25T05:16:50.013Z</time></trkpt><trkpt lat="44.11602244659325" lon="9.908319862987454"><ele>23.0</ele><time>2026-03-25T05:19:11.996Z</time></trkpt><trkpt lat="44.11603586852639" lon="9.908214799742785"><ele>23.0</ele><time>2026-03-25T05:19:16Z</time></trkpt><trkpt lat="44.11597896914046" lon="9.908282853886385"><ele>23.0</ele><time>2026-03-25T05:19:28Z</time></trkpt><trkpt lat="44.116073325658704" lon="9.908285231999306"><ele>23.0</ele><time>2026-03-25T05:19:38Z</time></trkpt><trkpt lat="44.116043879560394" lon="9.908371400285953"><ele>23.0</ele><time>2026-03-25T05:25:34Z</time></trkpt><trkpt lat="44.11599869866941" lon="9.908302175017125"><ele>23.0</ele><time>2026-03-25T05:25:46Z</time></trkpt><trkpt lat="44.116045670658494" lon="9.908374593474738"><ele>23.0</ele><time>2026-03-25T05:26:14Z</time></trkpt><trkpt lat="44.11604803743114" lon="9.908285757621378"><ele>23.0</ele><time>2026-03-25T05:30:13Z</time></trkpt><trkpt lat="44.116101738619356" lon="9.908344510973926"><ele>23.0</ele><time>2026-03-25T05:30:59Z</time></trkpt><trkpt lat="44.11609635362813" lon="9.908199714436277"><ele>23.0</ele><time>2026-03-25T05:31:01Z</time></trkpt><trkpt lat="44.11607573638176" lon="9.908046568878817"><ele>23.0</ele><time>2026-03-25T05:31:03Z</time></trkpt><trkpt lat="44.11605769809191" lon="9.907932743290043"><ele>23.0</ele><time>2026-03-25T05:31:04Z</time></trkpt><trkpt lat="44.116019000235646" lon="9.907790418166098"><ele>23.0</ele><time>2026-03-25T05:31:05Z</time></trkpt><trkpt lat="44.11593223344906" lon="9.907680400261592"><ele>23.0</ele><time>2026-03-25T05:31:06Z</time></trkpt><trkpt lat="44.11585323136282" lon="9.907579396611032"><ele>23.0</ele><time>2026-03-25T05:31:07Z</time></trkpt><trkpt lat="44.11575301953013" lon="9.907512848923087"><ele>28.0</ele><time>2026-03-25T05:31:08Z</time></trkpt><trkpt lat="44.11561490286592" lon="9.907488324069375"><ele>33.0</ele><time>2026-03-25T05:31:09Z</time></trkpt><trkpt lat="44.11547629702731" lon="9.907375821595938"><ele>38.0</ele><time>2026-03-25T05:31:10Z</time></trkpt><trkpt lat="44.11534509326634" lon="9.907313140950828"><ele>43.0</ele><time>2026-03-25T05:31:11Z</time></trkpt><trkpt lat="44.11523105515837" lon="9.90738820053641"><ele>43.0</ele><time>2026-03-25T05:31:12Z</time></trkpt><trkpt lat="44.11509181880523" lon="9.907418214139984"><ele>43.0</ele><time>2026-03-25T05:31:12.999Z</time></trkpt><trkpt lat="44.11499310005335" lon="9.90735710996245"><ele>43.0</ele><time>2026-03-25T05:31:14.999Z</time></trkpt><trkpt lat="44.1151312721107" lon="9.907272199064309"><ele>43.0</ele><time>2026-03-25T05:31:16.999Z</time></trkpt><trkpt lat="44.11523011933122" lon="9.907207065609986"><ele>43.0</ele><time>2026-03-25T05:31:17.999Z</time></trkpt><trkpt lat="44.11530860603771" lon="9.90713637740508"><ele>43.0</ele><time>2026-03-25T05:31:18.999Z</time></trkpt><trkpt lat="44.11540651308525" lon="9.907026629981335"><ele>43.0</ele><time>2026-03-25T05:31:19.999Z</time></trkpt><trkpt lat="44.11543444533096" lon="9.9068000979084"><ele>43.0</ele><time>2026-03-25T05:31:20.999Z</time></trkpt><trkpt lat="44.11544284862974" lon="9.906594031246904"><ele>46.0</ele><time>2026-03-25T05:31:21.999Z</time></trkpt><trkpt lat="44.11542663418125" lon="9.906391678097958"><ele>49.0</ele><time>2026-03-25T05:31:22.999Z</time></trkpt><trkpt lat="44.115415249778216" lon="9.906202570844451"><ele>52.0</ele><time>2026-03-25T05:31:23.999Z</time></trkpt><trkpt lat="44.11538971265833" lon="9.906000038858604"><ele>55.0</ele><time>2026-03-25T05:31:24.999Z</time></trkpt><trkpt lat="44.11537139558528" lon="9.905781298227158"><ele>58.0</ele><time>2026-03-25T05:31:25.999Z</time></trkpt><trkpt lat="44.11530462342592" lon="9.905567944476328"><ele>61.0</ele><time>2026-03-25T05:31:26.999Z</time></trkpt><trkpt lat="44.11524624458112" lon="9.905361296018226"><ele>64.0</ele><time>2026-03-25T05:31:27.999Z</time></trkpt><trkpt lat="44.11517650849234" lon="9.905172030889027"><ele>61.0</ele><time>2026-03-25T05:31:28.999Z</time></trkpt><trkpt lat="44.11505149675696" lon="9.905008119204052"><ele>58.0</ele><time>2026-03-25T05:31:29.999Z</time></trkpt><trkpt lat="44.11493041992139" lon="9.90483534821782"><ele>55.0</ele><time>2026-03-25T05:31:30.999Z</time></trkpt><trkpt lat="44.11484214174489" lon="9.90462522534068"><ele>58.5</ele><time>2026-03-25T05:31:31.999Z</time></trkpt><trkpt lat="44.11478738575252" lon="9.90441696280632"><ele>62.0</ele><time>2026-03-25T05:31:32.999Z</time></trkpt><trkpt lat="44.11471633915137" lon="9.904283115128502"><ele>65.5</ele><time>2026-03-25T05:31:33.999Z</time></trkpt><trkpt lat="44.11461634945684" lon="9.904232083689516"><ele>69.0</ele><time>2026-03-25T05:31:34.999Z</time></trkpt><trkpt lat="44.11453156654162" lon="9.904198662943333"><ele>69.0</ele><time>2026-03-25T05:31:35.999Z</time></trkpt><trkpt lat="44.11438815650929" lon="9.904189880918242"><ele>69.0</ele><time>2026-03-25T05:31:36.999Z</time></trkpt><trkpt lat="44.1142733433275" lon="9.90414909968404"><ele>69.0</ele><time>2026-03-25T05:31:37.999Z</time></trkpt><trkpt lat="44.114167354889915" lon="9.90407745683729"><ele>69.0</ele><time>2026-03-25T05:31:38.999Z</time></trkpt><trkpt lat="44.11411248990307" lon="9.903946279329137"><ele>69.0</ele><time>2026-03-25T05:31:39.999Z</time></trkpt><trkpt lat="44.11407486775393" lon="9.903863515242822"><ele>69.0</ele><time>2026-03-25T05:31:40.999Z</time></trkpt><trkpt lat="44.1139637127147" lon="9.903806005110276"><ele>69.0</ele><time>2026-03-25T05:31:42.999Z</time></trkpt><trkpt lat="44.11387146441455" lon="9.903771263043526"><ele>69.0</ele><time>2026-03-25T05:31:43.999Z</time></trkpt><trkpt lat="44.11376353367551" lon="9.903708560125441"><ele>69.0</ele><time>2026-03-25T05:31:44.999Z</time></trkpt><trkpt lat="44.113639659137206" lon="9.903647146244621"><ele>76.0</ele><time>2026-03-25T05:31:45.999Z</time></trkpt><trkpt lat="44.113517823345305" lon="9.903588832112098"><ele>83.0</ele><time>2026-03-25T05:31:46.999Z</time></trkpt><trkpt lat="44.11338309415248" lon="9.90359732788928"><ele>90.0</ele><time>2026-03-25T05:31:47.999Z</time></trkpt><trkpt lat="44.11326897600751" lon="9.903572769408283"><ele>97.0</ele><time>2026-03-25T05:31:49.001Z</time></trkpt><trkpt lat="44.113200455601906" lon="9.903476766616876"><ele>100.19999999999999</ele><time>2026-03-25T05:31:50.001Z</time></trkpt><trkpt lat="44.11318462240839" lon="9.903375442788969"><ele>103.4</ele><time>2026-03-25T05:31:51.001Z</time></trkpt><trkpt lat="44.11318748706352" lon="9.903258702057824"><ele>106.60000000000001</ele><time>2026-03-25T05:31:52.001Z</time></trkpt><trkpt lat="44.11317893125632" lon="9.90314974403201"><ele>109.80000000000001</ele><time>2026-03-25T05:31:53.001Z</time></trkpt><trkpt lat="44.11306383137473" lon="9.903037750724721"><ele>113.0</ele><time>2026-03-25T05:31:55.001Z</time></trkpt><trkpt lat="44.11298715390183" lon="9.903134618500939"><ele>113.0</ele><time>2026-03-25T05:31:56.001Z</time></trkpt><trkpt lat="44.112926870538594" lon="9.903250369025105"><ele>113.0</ele><time>2026-03-25T05:31:57.001Z</time></trkpt><trkpt lat="44.112824523754945" lon="9.903446443850877"><ele>113.0</ele><time>2026-03-25T05:31:59.001Z</time></trkpt><trkpt lat="44.11282444817506" lon="9.903579101132783"><ele>113.0</ele><time>2026-03-25T05:32:00.001Z</time></trkpt><trkpt lat="44.11285636253686" lon="9.9037049795325"><ele>112.25</ele><time>2026-03-25T05:32:01.001Z</time></trkpt><trkpt lat="44.112922963027835" lon="9.90379943076988"><ele>111.5</ele><time>2026-03-25T05:32:02.001Z</time></trkpt><trkpt lat="44.11302955599386" lon="9.903826096456509"><ele>110.75</ele><time>2026-03-25T05:32:03Z</time></trkpt><trkpt lat="44.11321139409465" lon="9.903913045920207"><ele>110.0</ele><time>2026-03-25T05:32:04Z</time></trkpt><trkpt lat="44.11338097546548" lon="9.903962176158762"><ele>106.75</ele><time>2026-03-25T05:32:05Z</time></trkpt><trkpt lat="44.11353013431165" lon="9.904010130541844"><ele>103.5</ele><time>2026-03-25T05:32:06Z</time></trkpt><trkpt lat="44.113664678769716" lon="9.904090542330952"><ele>100.25</ele><time>2026-03-25T05:32:07Z</time></trkpt><trkpt lat="44.11377392793676" lon="9.904176709651564"><ele>97.0</ele><time>2026-03-25T05:32:08Z</time></trkpt><trkpt lat="44.11384556817305" lon="9.904256389200354"><ele>96.39999999999999</ele><time>2026-03-25T05:32:09Z</time></trkpt><trkpt lat="44.11386958867538" lon="9.904365098539223"><ele>95.8</ele><time>2026-03-25T05:32:10Z</time></trkpt><trkpt lat="44.11391491535088" lon="9.904510114649616"><ele>95.2</ele><time>2026-03-25T05:32:11Z</time></trkpt><trkpt lat="44.11395585150562" lon="9.904638735304358"><ele>94.6</ele><time>2026-03-25T05:32:12Z</time></trkpt><trkpt lat="44.11396906844688" lon="9.904725219291999"><ele>94.0</ele><time>2026-03-25T05:32:13Z</time></trkpt><trkpt lat="44.113884067176556" lon="9.904629171064066"><ele>94.0</ele><time>2026-03-25T05:32:16Z</time></trkpt><trkpt lat="44.113837448610845" lon="9.904416652152955"><ele>94.0</ele><time>2026-03-25T05:32:18Z</time></trkpt><trkpt lat="44.11375224242773" lon="9.904266972676341"><ele>94.0</ele><time>2026-03-25T05:32:19Z</time></trkpt><trkpt lat="44.11369382728137" lon="9.904179238781667"><ele>94.0</ele><time>2026-03-25T05:32:20Z</time></trkpt><trkpt lat="44.113617366168924" lon="9.904200763054138"><ele>94.0</ele><time>2026-03-25T05:32:21Z</time></trkpt><trkpt lat="44.11360057304035" lon="9.904290712484123"><ele>94.0</ele><time>2026-03-25T05:32:23Z</time></trkpt><trkpt lat="44.11370465349007" lon="9.904496504153986"><ele>94.0</ele><time>2026-03-25T05:32:25Z</time></trkpt><trkpt lat="44.11375306261004" lon="9.904600943468207"><ele>94.0</ele><time>2026-03-25T05:32:26Z</time></trkpt><trkpt lat="44.113753417980625" lon="9.90469368534502"><ele>94.0</ele><time>2026-03-25T05:32:27Z</time></trkpt><trkpt lat="44.113699590098996" lon="9.90474434465996"><ele>94.0</ele><time>2026-03-25T05:32:28Z</time></trkpt><trkpt lat="44.11363425562645" lon="9.904731385158506"><ele>94.0</ele><time>2026-03-25T05:32:29Z</time></trkpt><trkpt lat="44.113590455154174" lon="9.904651154460108"><ele>94.0</ele><time>2026-03-25T05:32:30Z</time></trkpt><trkpt lat="44.113509543952674" lon="9.904652330073233"><ele>94.0</ele><time>2026-03-25T05:32:31Z</time></trkpt><trkpt lat="44.11340526848734" lon="9.904655076592762"><ele>94.0</ele><time>2026-03-25T05:32:32Z</time></trkpt><trkpt lat="44.11327660571941" lon="9.904600493946353"><ele>95.0</ele><time>2026-03-25T05:32:33Z</time></trkpt><trkpt lat="44.11316979698008" lon="9.904542991161794"><ele>96.0</ele><time>2026-03-25T05:32:34Z</time></trkpt><trkpt lat="44.11303679722622" lon="9.904452632345926"><ele>97.0</ele><time>2026-03-25T05:32:35Z</time></trkpt><trkpt lat="44.112943963723396" lon="9.904355283492958"><ele>98.0</ele><time>2026-03-25T05:32:36Z</time></trkpt><trkpt lat="44.11283691010329" lon="9.90422735999226"><ele>101.0</ele><time>2026-03-25T05:32:37Z</time></trkpt><trkpt lat="44.112727593463546" lon="9.904120400838785"><ele>104.0</ele><time>2026-03-25T05:32:38Z</time></trkpt><trkpt lat="44.11260610669522" lon="9.904020976485931"><ele>107.0</ele><time>2026-03-25T05:32:39Z</time></trkpt><trkpt lat="44.11251240234831" lon="9.903924470491342"><ele>110.0</ele><time>2026-03-25T05:32:40Z</time></trkpt><trkpt lat="44.112470641795866" lon="9.903806439932708"><ele>110.0</ele><time>2026-03-25T05:32:41Z</time></trkpt><trkpt lat="44.11248690036231" lon="9.903661469615356"><ele>110.0</ele><time>2026-03-25T05:32:42Z</time></trkpt><trkpt lat="44.11248137747574" lon="9.90347783933956"><ele>110.0</ele><time>2026-03-25T05:32:43Z</time></trkpt><trkpt lat="44.112508879533785" lon="9.903270735694939"><ele>110.0</ele><time>2026-03-25T05:32:44Z</time></trkpt><trkpt lat="44.112522277065935" lon="9.903057152395819"><ele>110.75</ele><time>2026-03-25T05:32:45Z</time></trkpt><trkpt lat="44.112535539410956" lon="9.90285815520353"><ele>111.5</ele><time>2026-03-25T05:32:46Z</time></trkpt><trkpt lat="44.11254381220624" lon="9.902699079228329"><ele>112.25</ele><time>2026-03-25T05:32:47Z</time></trkpt><trkpt lat="44.11250845627549" lon="9.902558057666184"><ele>113.0</ele><time>2026-03-25T05:32:48Z</time></trkpt><trkpt lat="44.11245238281581" lon="9.90243805059932"><ele>110.0</ele><time>2026-03-25T05:32:49Z</time></trkpt><trkpt lat="44.11239852493251" lon="9.902321829710322"><ele>107.0</ele><time>2026-03-25T05:32:50Z</time></trkpt><trkpt lat="44.1122964336176" lon="9.902221331617914"><ele>104.0</ele><time>2026-03-25T05:32:51Z</time></trkpt><trkpt lat="44.11221710760876" lon="9.902087589071595"><ele>101.0</ele><time>2026-03-25T05:32:52Z</time></trkpt><trkpt lat="44.112144153642" lon="9.901913912881051"><ele>102.66666666666666</ele><time>2026-03-25T05:32:53Z</time></trkpt><trkpt lat="44.11207112746737" lon="9.901726033521236"><ele>104.33333333333334</ele><time>2026-03-25T05:32:54Z</time></trkpt><trkpt lat="44.11199368374203" lon="9.90151906853654"><ele>106.0</ele><time>2026-03-25T05:32:55Z</time></trkpt><trkpt lat="44.11193448286648" lon="9.901325976276114"><ele>106.0</ele><time>2026-03-25T05:32:56Z</time></trkpt><trkpt lat="44.111885332717954" lon="9.90113766267052"><ele>106.0</ele><time>2026-03-25T05:32:57Z</time></trkpt><trkpt lat="44.111857915468754" lon="9.900936195678923"><ele>106.0</ele><time>2026-03-25T05:32:58Z</time></trkpt><trkpt lat="44.11184269281341" lon="9.900723771081472"><ele>106.0</ele><time>2026-03-25T05:32:59Z</time></trkpt><trkpt lat="44.111832027655346" lon="9.900501429900508"><ele>109.66666666666667</ele><time>2026-03-25T05:33:00Z</time></trkpt><trkpt lat="44.11181466201008" lon="9.900272199182758"><ele>113.33333333333334</ele><time>2026-03-25T05:33:01Z</time></trkpt><trkpt lat="44.111798608740564" lon="9.900036076590029"><ele>117.0</ele><time>2026-03-25T05:33:02Z</time></trkpt><trkpt lat="44.11178987909201" lon="9.899794722390432"><ele>120.0</ele><time>2026-03-25T05:33:03Z</time></trkpt><trkpt lat="44.11177629552945" lon="9.899548010628687"><ele>123.0</ele><time>2026-03-25T05:33:04Z</time></trkpt><trkpt lat="44.11176214898355" lon="9.899314212128404"><ele>126.0</ele><time>2026-03-25T05:33:05Z</time></trkpt><trkpt lat="44.111755356871285" lon="9.899108436501932"><ele>126.0</ele><time>2026-03-25T05:33:06Z</time></trkpt><trkpt lat="44.11176919836211" lon="9.89892484100864"><ele>126.0</ele><time>2026-03-25T05:33:07Z</time></trkpt><trkpt lat="44.11180845560286" lon="9.898757439975189"><ele>126.0</ele><time>2026-03-25T05:33:08Z</time></trkpt><trkpt lat="44.11187415001673" lon="9.898623223255672"><ele>126.0</ele><time>2026-03-25T05:33:09Z</time></trkpt><trkpt lat="44.11197233159315" lon="9.898544181701965"><ele>128.0</ele><time>2026-03-25T05:33:10Z</time></trkpt><trkpt lat="44.112063706441035" lon="9.898413795072988"><ele>130.0</ele><time>2026-03-25T05:33:11Z</time></trkpt><trkpt lat="44.11216662526858" lon="9.898277729306253"><ele>132.0</ele><time>2026-03-25T05:33:12Z</time></trkpt><trkpt lat="44.11223933254372" lon="9.898130784565035"><ele>134.0</ele><time>2026-03-25T05:33:13Z</time></trkpt><trkpt lat="44.11229335085001" lon="9.898024829670382"><ele>134.0</ele><time>2026-03-25T05:33:14Z</time></trkpt><trkpt lat="44.11230560136653" lon="9.8978311798082"><ele>134.0</ele><time>2026-03-25T05:33:16Z</time></trkpt><trkpt lat="44.112321168744" lon="9.897678617250616"><ele>134.0</ele><time>2026-03-25T05:33:17Z</time></trkpt><trkpt lat="44.11236590982783" lon="9.89749769454786"><ele>134.0</ele><time>2026-03-25T05:33:18Z</time></trkpt><trkpt lat="44.112431642247934" lon="9.897316917341087"><ele>134.0</ele><time>2026-03-25T05:33:19Z</time></trkpt><trkpt lat="44.11246262736942" lon="9.897127884760147"><ele>134.0</ele><time>2026-03-25T05:33:20Z</time></trkpt><trkpt lat="44.112511120783985" lon="9.896971222564558"><ele>134.0</ele><time>2026-03-25T05:33:20.999Z</time></trkpt><trkpt lat="44.1125658797688" lon="9.896846292404346"><ele>134.0</ele><time>2026-03-25T05:33:21.999Z</time></trkpt><trkpt lat="44.112646497530406" lon="9.89672560860897"><ele>134.0</ele><time>2026-03-25T05:33:22.999Z</time></trkpt><trkpt lat="44.112755939021255" lon="9.896670285722266"><ele>134.0</ele><time>2026-03-25T05:33:23.999Z</time></trkpt><trkpt lat="44.11286440681601" lon="9.896612816368966"><ele>134.0</ele><time>2026-03-25T05:33:24.999Z</time></trkpt><trkpt lat="44.11295063680832" lon="9.896621653037183"><ele>134.0</ele><time>2026-03-25T05:33:25.999Z</time></trkpt><trkpt lat="44.11306300237263" lon="9.896640874316294"><ele>134.0</ele><time>2026-03-25T05:33:26.999Z</time></trkpt><trkpt lat="44.11320589784609" lon="9.89665949171525"><ele>135.0</ele><time>2026-03-25T05:33:27.999Z</time></trkpt><trkpt lat="44.11335572059833" lon="9.896658508578394"><ele>136.0</ele><time>2026-03-25T05:33:28.999Z</time></trkpt><trkpt lat="44.11351699077625" lon="9.89664256099446"><ele>137.0</ele><time>2026-03-25T05:33:29.999Z</time></trkpt><trkpt lat="44.1136882102073" lon="9.896633387435653"><ele>137.0</ele><time>2026-03-25T05:33:30.999Z</time></trkpt><trkpt lat="44.1138817626922" lon="9.896645675223311"><ele>137.0</ele><time>2026-03-25T05:33:31.999Z</time></trkpt><trkpt lat="44.114049795740144" lon="9.896676463963765"><ele>137.0</ele><time>2026-03-25T05:33:32.999Z</time></trkpt><trkpt lat="44.11422955801814" lon="9.896734886720337"><ele>133.33333333333331</ele><time>2026-03-25T05:33:33.999Z</time></trkpt><trkpt lat="44.114360145432904" lon="9.896847278997697"><ele>129.66666666666666</ele><time>2026-03-25T05:33:34.999Z</time></trkpt><trkpt lat="44.11446654329442" lon="9.89695982208543"><ele>126.0</ele><time>2026-03-25T05:33:35.999Z</time></trkpt><trkpt lat="44.11462484955324" lon="9.897131640259934"><ele>126.0</ele><time>2026-03-25T05:33:36.999Z</time></trkpt><trkpt lat="44.11476325715032" lon="9.897286112393482"><ele>126.0</ele><time>2026-03-25T05:33:37.999Z</time></trkpt><trkpt lat="44.114902452299" lon="9.897442901944164"><ele>126.0</ele><time>2026-03-25T05:33:38.999Z</time></trkpt><trkpt lat="44.11504399460713" lon="9.897596961037086"><ele>128.5</ele><time>2026-03-25T05:33:39.999Z</time></trkpt><trkpt lat="44.11518104151995" lon="9.897734858830196"><ele>131.0</ele><time>2026-03-25T05:33:40.999Z</time></trkpt><trkpt lat="44.11530185816499" lon="9.89785257045168"><ele>133.5</ele><time>2026-03-25T05:33:41.999Z</time></trkpt><trkpt lat="44.11540754971617" lon="9.897952328421335"><ele>136.0</ele><time>2026-03-25T05:33:42.999Z</time></trkpt><trkpt lat="44.11553459444741" lon="9.898068393009222"><ele>136.0</ele><time>2026-03-25T05:33:43.999Z</time></trkpt><trkpt lat="44.11565598016774" lon="9.89816870279032"><ele>136.0</ele><time>2026-03-25T05:33:44.999Z</time></trkpt><trkpt lat="44.11577801213438" lon="9.898242365439796"><ele>136.0</ele><time>2026-03-25T05:33:45.999Z</time></trkpt><trkpt lat="44.11588701003658" lon="9.898277987183276"><ele>136.0</ele><time>2026-03-25T05:33:46.999Z</time></trkpt><trkpt lat="44.115965346720245" lon="9.898254476771267"><ele>137.75</ele><time>2026-03-25T05:33:47.999Z</time></trkpt><trkpt lat="44.11612854755204" lon="9.898228230303443"><ele>139.5</ele><time>2026-03-25T05:33:49.999Z</time></trkpt><trkpt lat="44.116255885807085" lon="9.898197764835617"><ele>141.25</ele><time>2026-03-25T05:33:50.999Z</time></trkpt><trkpt lat="44.11637772567577" lon="9.898153026178838"><ele>143.0</ele><time>2026-03-25T05:33:51.999Z</time></trkpt><trkpt lat="44.116499776308416" lon="9.898033431140856"><ele>142.5</ele><time>2026-03-25T05:33:52.999Z</time></trkpt><trkpt lat="44.11661318849911" lon="9.897932887290045"><ele>142.0</ele><time>2026-03-25T05:33:54.001Z</time></trkpt><trkpt lat="44.11670253323113" lon="9.897774256683185"><ele>141.5</ele><time>2026-03-25T05:33:55.001Z</time></trkpt><trkpt lat="44.1167770979966" lon="9.897631402709967"><ele>141.0</ele><time>2026-03-25T05:33:56.001Z</time></trkpt><trkpt lat="44.11679850317203" lon="9.89753948598225"><ele>144.5</ele><time>2026-03-25T05:33:57.001Z</time></trkpt><trkpt lat="44.11683121051717" lon="9.897374064687233"><ele>148.0</ele><time>2026-03-25T05:33:58.001Z</time></trkpt><trkpt lat="44.11681094425185" lon="9.897179349167676"><ele>151.5</ele><time>2026-03-25T05:33:59.001Z</time></trkpt><trkpt lat="44.11682000808088" lon="9.896956487266854"><ele>155.0</ele><time>2026-03-25T05:34:00.001Z</time></trkpt><trkpt lat="44.1168333852491" lon="9.896738110899703"><ele>159.0</ele><time>2026-03-25T05:34:01.001Z</time></trkpt><trkpt lat="44.116900602041824" lon="9.896536087227616"><ele>163.0</ele><time>2026-03-25T05:34:02.001Z</time></trkpt><trkpt lat="44.11700469621625" lon="9.896340731949904"><ele>167.0</ele><time>2026-03-25T05:34:03.001Z</time></trkpt><trkpt lat="44.11708038373147" lon="9.896118472500694"><ele>167.0</ele><time>2026-03-25T05:34:04.001Z</time></trkpt><trkpt lat="44.11717807887848" lon="9.89596267932381"><ele>167.0</ele><time>2026-03-25T05:34:05.001Z</time></trkpt><trkpt lat="44.117411419218016" lon="9.896031430695997"><ele>167.0</ele><time>2026-03-25T05:34:06.001Z</time></trkpt><trkpt lat="44.11758020124991" lon="9.895904205499916"><ele>158.66666666666666</ele><time>2026-03-25T05:34:07.001Z</time></trkpt><trkpt lat="44.117728451920044" lon="9.895760712876497"><ele>150.33333333333334</ele><time>2026-03-25T05:34:08.001Z</time></trkpt><trkpt lat="44.11789648215843" lon="9.89562992407991"><ele>142.0</ele><time>2026-03-25T05:34:09.001Z</time></trkpt><trkpt lat="44.11804675493989" lon="9.895503293381879"><ele>142.0</ele><time>2026-03-25T05:34:10.001Z</time></trkpt><trkpt lat="44.11816065435597" lon="9.895392463480142"><ele>142.0</ele><time>2026-03-25T05:34:11Z</time></trkpt><trkpt lat="44.11823615163738" lon="9.895273330000627"><ele>142.0</ele><time>2026-03-25T05:34:12Z</time></trkpt><trkpt lat="44.11823906325121" lon="9.895109741401225"><ele>142.0</ele><time>2026-03-25T05:34:13Z</time></trkpt><trkpt lat="44.118244796850064" lon="9.894943896113963"><ele>140.33333333333334</ele><time>2026-03-25T05:34:14Z</time></trkpt><trkpt lat="44.11824806361124" lon="9.894769903919471"><ele>138.66666666666666</ele><time>2026-03-25T05:34:15Z</time></trkpt><trkpt lat="44.11825223296596" lon="9.89450998428501"><ele>137.0</ele><time>2026-03-25T05:34:16Z</time></trkpt><trkpt lat="44.118269456322025" lon="9.8942260347733"><ele>135.66666666666666</ele><time>2026-03-25T05:34:17Z</time></trkpt><trkpt lat="44.118358607039006" lon="9.893964715491968"><ele>134.33333333333334</ele><time>2026-03-25T05:34:18Z</time></trkpt><trkpt lat="44.11842656426983" lon="9.893707524992974"><ele>133.0</ele><time>2026-03-25T05:34:19Z</time></trkpt><trkpt lat="44.11850647996668" lon="9.893433637574361"><ele>133.33333333333334</ele><time>2026-03-25T05:34:20Z</time></trkpt><trkpt lat="44.118573694171296" lon="9.89315510146162"><ele>133.66666666666666</ele><time>2026-03-25T05:34:21Z</time></trkpt><trkpt lat="44.1186642816663" lon="9.89286493710872"><ele>134.0</ele><time>2026-03-25T05:34:22Z</time></trkpt><trkpt lat="44.118759261705044" lon="9.89260926426256"><ele>129.66666666666666</ele><time>2026-03-25T05:34:23Z</time></trkpt><trkpt lat="44.11884148125037" lon="9.892357335384329"><ele>125.33333333333334</ele><time>2026-03-25T05:34:24Z</time></trkpt><trkpt lat="44.11891546729074" lon="9.892107604907848"><ele>121.0</ele><time>2026-03-25T05:34:25Z</time></trkpt><trkpt lat="44.11897507213564" lon="9.891866785685407"><ele>122.66666666666667</ele><time>2026-03-25T05:34:26Z</time></trkpt><trkpt lat="44.119020419535836" lon="9.891632752663531"><ele>124.33333333333334</ele><time>2026-03-25T05:34:27Z</time></trkpt><trkpt lat="44.11905917309226" lon="9.891388066858886"><ele>126.0</ele><time>2026-03-25T05:34:28Z</time></trkpt><trkpt lat="44.11915093676102" lon="9.891182353692242"><ele>126.0</ele><time>2026-03-25T05:34:29Z</time></trkpt><trkpt lat="44.119265590248354" lon="9.890987807731433"><ele>126.0</ele><time>2026-03-25T05:34:30Z</time></trkpt><trkpt lat="44.11939654442221" lon="9.890775371728356"><ele>126.0</ele><time>2026-03-25T05:34:31Z</time></trkpt><trkpt lat="44.1195108211208" lon="9.890559132417877"><ele>120.66666666666666</ele><time>2026-03-25T05:34:32Z</time></trkpt><trkpt lat="44.11957893338856" lon="9.890328422823156"><ele>115.33333333333333</ele><time>2026-03-25T05:34:33Z</time></trkpt><trkpt lat="44.11964536076485" lon="9.89012307285223"><ele>110.0</ele><time>2026-03-25T05:34:34Z</time></trkpt><trkpt lat="44.11978225006082" lon="9.88995187315209"><ele>104.0</ele><time>2026-03-25T05:34:35Z</time></trkpt><trkpt lat="44.119816976661504" lon="9.889439921017276"><ele>98.0</ele><time>2026-03-25T05:34:36Z</time></trkpt><trkpt lat="44.11987804193361" lon="9.889143877109841"><ele>100.0</ele><time>2026-03-25T05:34:37Z</time></trkpt><trkpt lat="44.11992212449665" lon="9.888907210143225"><ele>102.0</ele><time>2026-03-25T05:34:38Z</time></trkpt><trkpt lat="44.119978809298004" lon="9.888760109371171"><ele>104.0</ele><time>2026-03-25T05:34:39Z</time></trkpt><trkpt lat="44.12004639835906" lon="9.888662490549965"><ele>106.0</ele><time>2026-03-25T05:34:40Z</time></trkpt><trkpt lat="44.12013496853073" lon="9.888691648238188"><ele>106.0</ele><time>2026-03-25T05:34:41Z</time></trkpt><trkpt lat="44.12024074542555" lon="9.88868632685043"><ele>106.0</ele><time>2026-03-25T05:34:42Z</time></trkpt><trkpt lat="44.120324075293055" lon="9.888657307272602"><ele>106.0</ele><time>2026-03-25T05:34:43Z</time></trkpt><trkpt lat="44.120382195376216" lon="9.88860645536405"><ele>106.0</ele><time>2026-03-25T05:34:44Z</time></trkpt><trkpt lat="44.12038277572678" lon="9.888498604720546"><ele>106.0</ele><time>2026-03-25T05:34:45Z</time></trkpt><trkpt lat="44.120119487343445" lon="9.888403723075662"><ele>102.25</ele><time>2026-03-25T05:34:47Z</time></trkpt><trkpt lat="44.119946873381096" lon="9.888335280131344"><ele>98.5</ele><time>2026-03-25T05:34:48Z</time></trkpt><trkpt lat="44.119826727285776" lon="9.888340394219666"><ele>94.75</ele><time>2026-03-25T05:34:49Z</time></trkpt><trkpt lat="44.119766941781016" lon="9.888433020064438"><ele>91.0</ele><time>2026-03-25T05:34:50Z</time></trkpt><trkpt lat="44.11970335006251" lon="9.888582337366696"><ele>89.66666666666666</ele><time>2026-03-25T05:34:51Z</time></trkpt><trkpt lat="44.11961913649394" lon="9.888785617210734"><ele>88.33333333333333</ele><time>2026-03-25T05:34:52Z</time></trkpt><trkpt lat="44.11949918883972" lon="9.888963116751198"><ele>87.0</ele><time>2026-03-25T05:34:53Z</time></trkpt><trkpt lat="44.119387095556206" lon="9.889140143959601"><ele>87.0</ele><time>2026-03-25T05:34:54Z</time></trkpt><trkpt lat="44.11930307979865" lon="9.889266864796769"><ele>87.0</ele><time>2026-03-25T05:34:55Z</time></trkpt><trkpt lat="44.11921250166684" lon="9.889242801535827"><ele>87.0</ele><time>2026-03-25T05:34:57Z</time></trkpt><trkpt lat="44.11919457416909" lon="9.88915642571179"><ele>87.0</ele><time>2026-03-25T05:34:58Z</time></trkpt><trkpt lat="44.11926164040978" lon="9.888983029776663"><ele>87.0</ele><time>2026-03-25T05:34:59Z</time></trkpt><trkpt lat="44.11931368740217" lon="9.888867564544094"><ele>87.0</ele><time>2026-03-25T05:35:00Z</time></trkpt><trkpt lat="44.119379754348884" lon="9.888680724797126"><ele>87.0</ele><time>2026-03-25T05:35:01Z</time></trkpt><trkpt lat="44.11943669651038" lon="9.888467954613313"><ele>87.0</ele><time>2026-03-25T05:35:02Z</time></trkpt><trkpt lat="44.11948262140671" lon="9.888183579263663"><ele>84.0</ele><time>2026-03-25T05:35:03Z</time></trkpt><trkpt lat="44.119517967995996" lon="9.887911900015535"><ele>81.0</ele><time>2026-03-25T05:35:04Z</time></trkpt><trkpt lat="44.119585413807734" lon="9.88765618614695"><ele>78.0</ele><time>2026-03-25T05:35:05Z</time></trkpt><trkpt lat="44.11968116558959" lon="9.887379314864111"><ele>77.0</ele><time>2026-03-25T05:35:06Z</time></trkpt><trkpt lat="44.119792846176296" lon="9.887104673963249"><ele>76.0</ele><time>2026-03-25T05:35:07Z</time></trkpt><trkpt lat="44.11990387460962" lon="9.886839610111505"><ele>75.0</ele><time>2026-03-25T05:35:08Z</time></trkpt><trkpt lat="44.119999998090115" lon="9.88659057674745"><ele>74.0</ele><time>2026-03-25T05:35:09Z</time></trkpt><trkpt lat="44.12007365544793" lon="9.886394695255303"><ele>73.0</ele><time>2026-03-25T05:35:10Z</time></trkpt><trkpt lat="44.1201231390406" lon="9.88625665542019"><ele>72.0</ele><time>2026-03-25T05:35:11Z</time></trkpt><trkpt lat="44.120192582806496" lon="9.8862067646437"><ele>71.0</ele><time>2026-03-25T05:35:12Z</time></trkpt><trkpt lat="44.12027613875163" lon="9.886132811165728"><ele>70.0</ele><time>2026-03-25T05:35:13Z</time></trkpt><trkpt lat="44.12032699211596" lon="9.886262379824277"><ele>70.0</ele><time>2026-03-25T05:35:14Z</time></trkpt><trkpt lat="44.12043445418699" lon="9.886268513580355"><ele>70.0</ele><time>2026-03-25T05:35:15Z</time></trkpt><trkpt lat="44.12059285500383" lon="9.886223941517603"><ele>70.0</ele><time>2026-03-25T05:35:16Z</time></trkpt><trkpt lat="44.12071810261075" lon="9.886107884711237"><ele>70.0</ele><time>2026-03-25T05:35:17Z</time></trkpt><trkpt lat="44.120805813492034" lon="9.88597922850796"><ele>66.0</ele><time>2026-03-25T05:35:18Z</time></trkpt><trkpt lat="44.12087834756709" lon="9.885774722703271"><ele>62.0</ele><time>2026-03-25T05:35:19Z</time></trkpt><trkpt lat="44.12093951501229" lon="9.885555184280927"><ele>58.0</ele><time>2026-03-25T05:35:20Z</time></trkpt><trkpt lat="44.121018260471175" lon="9.885294522896142"><ele>57.666666666666664</ele><time>2026-03-25T05:35:21Z</time></trkpt><trkpt lat="44.12111251124099" lon="9.885025208573987"><ele>57.33333333333333</ele><time>2026-03-25T05:35:22Z</time></trkpt><trkpt lat="44.121177435058826" lon="9.884804253641855"><ele>57.0</ele><time>2026-03-25T05:35:23Z</time></trkpt><trkpt lat="44.12122212735445" lon="9.88459472870402"><ele>57.0</ele><time>2026-03-25T05:35:24Z</time></trkpt><trkpt lat="44.121264226416834" lon="9.884444619594158"><ele>57.0</ele><time>2026-03-25T05:35:25Z</time></trkpt><trkpt lat="44.121359888511776" lon="9.884296629782924"><ele>57.0</ele><time>2026-03-25T05:35:26Z</time></trkpt><trkpt lat="44.12144406351256" lon="9.884111426883177"><ele>57.0</ele><time>2026-03-25T05:35:27Z</time></trkpt><trkpt lat="44.121571605499305" lon="9.883920766000879"><ele>55.0</ele><time>2026-03-25T05:35:27.999Z</time></trkpt><trkpt lat="44.121672289409844" lon="9.883748396620026"><ele>53.0</ele><time>2026-03-25T05:35:28.999Z</time></trkpt><trkpt lat="44.121738241677825" lon="9.883638380746241"><ele>51.0</ele><time>2026-03-25T05:35:29.999Z</time></trkpt><trkpt lat="44.12180546398046" lon="9.883605110825407"><ele>49.0</ele><time>2026-03-25T05:35:30.999Z</time></trkpt><trkpt lat="44.121888669391915" lon="9.8836033592613"><ele>47.0</ele><time>2026-03-25T05:35:31.999Z</time></trkpt><trkpt lat="44.12197682891038" lon="9.883610844025764"><ele>47.0</ele><time>2026-03-25T05:35:32.999Z</time></trkpt><trkpt lat="44.122043895551805" lon="9.883556719059122"><ele>47.0</ele><time>2026-03-25T05:35:33.999Z</time></trkpt><trkpt lat="44.122025772242345" lon="9.883395086959794"><ele>47.0</ele><time>2026-03-25T05:35:35.999Z</time></trkpt><trkpt lat="44.121970293094" lon="9.883326688098778"><ele>47.0</ele><time>2026-03-25T05:35:36.999Z</time></trkpt><trkpt lat="44.12191171848319" lon="9.883286331968906"><ele>47.0</ele><time>2026-03-25T05:35:37.999Z</time></trkpt><trkpt lat="44.121824520279255" lon="9.883282688420067"><ele>47.0</ele><time>2026-03-25T05:35:38.999Z</time></trkpt><trkpt lat="44.12172498066364" lon="9.883348935044154"><ele>48.0</ele><time>2026-03-25T05:35:39.999Z</time></trkpt><trkpt lat="44.12155322140465" lon="9.883256392957582"><ele>49.0</ele><time>2026-03-25T05:35:40.999Z</time></trkpt><trkpt lat="44.12139456817773" lon="9.883221708618919"><ele>50.0</ele><time>2026-03-25T05:35:41.999Z</time></trkpt><trkpt lat="44.12122096878005" lon="9.883171308454603"><ele>50.0</ele><time>2026-03-25T05:35:42.999Z</time></trkpt><trkpt lat="44.12105076419042" lon="9.883143615791164"><ele>50.0</ele><time>2026-03-25T05:35:43.999Z</time></trkpt><trkpt lat="44.12089649384413" lon="9.883107229949134"><ele>50.0</ele><time>2026-03-25T05:35:44.999Z</time></trkpt><trkpt lat="44.12075536201558" lon="9.88308147251048"><ele>47.5</ele><time>2026-03-25T05:35:45.999Z</time></trkpt><trkpt lat="44.12061501616022" lon="9.883058511459444"><ele>45.0</ele><time>2026-03-25T05:35:46.999Z</time></trkpt><trkpt lat="44.12048707648364" lon="9.883051436077825"><ele>42.5</ele><time>2026-03-25T05:35:47.999Z</time></trkpt><trkpt lat="44.120357027794846" lon="9.883033990755262"><ele>40.0</ele><time>2026-03-25T05:35:48.999Z</time></trkpt><trkpt lat="44.120226511609275" lon="9.883004375083614"><ele>40.0</ele><time>2026-03-25T05:35:49.999Z</time></trkpt><trkpt lat="44.120085494175285" lon="9.88292384493386"><ele>40.0</ele><time>2026-03-25T05:35:50.999Z</time></trkpt><trkpt lat="44.11998284089695" lon="9.88286223302695"><ele>40.0</ele><time>2026-03-25T05:35:51.999Z</time></trkpt><trkpt lat="44.11985272835309" lon="9.882795132981578"><ele>40.0</ele><time>2026-03-25T05:35:52.999Z</time></trkpt><trkpt lat="44.11972435209678" lon="9.882731935667534"><ele>38.75</ele><time>2026-03-25T05:35:53.999Z</time></trkpt><trkpt lat="44.11959703814728" lon="9.882671681656408"><ele>37.5</ele><time>2026-03-25T05:35:54.999Z</time></trkpt><trkpt lat="44.11947432705791" lon="9.882609695670752"><ele>36.25</ele><time>2026-03-25T05:35:55.999Z</time></trkpt><trkpt lat="44.119346932378804" lon="9.882535507775806"><ele>35.0</ele><time>2026-03-25T05:35:56.999Z</time></trkpt><trkpt lat="44.119228275046055" lon="9.882438163107444"><ele>35.0</ele><time>2026-03-25T05:35:57.999Z</time></trkpt><trkpt lat="44.11911845475531" lon="9.882331526912091"><ele>35.0</ele><time>2026-03-25T05:35:58.999Z</time></trkpt><trkpt lat="44.119011762969855" lon="9.882221492133143"><ele>35.0</ele><time>2026-03-25T05:36:00.001Z</time></trkpt><trkpt lat="44.118911334927475" lon="9.882115312879858"><ele>35.0</ele><time>2026-03-25T05:36:01.001Z</time></trkpt><trkpt lat="44.118809316086335" lon="9.882015423301413"><ele>33.75</ele><time>2026-03-25T05:36:02.001Z</time></trkpt><trkpt lat="44.11871126684301" lon="9.881912460560404"><ele>32.5</ele><time>2026-03-25T05:36:03.001Z</time></trkpt><trkpt lat="44.11860996625122" lon="9.881800422998813"><ele>31.25</ele><time>2026-03-25T05:36:04.001Z</time></trkpt><trkpt lat="44.11850710162861" lon="9.88167081555632"><ele>30.0</ele><time>2026-03-25T05:36:05.001Z</time></trkpt><trkpt lat="44.11840370994338" lon="9.881499973731001"><ele>30.0</ele><time>2026-03-25T05:36:06.001Z</time></trkpt><trkpt lat="44.11829043350727" lon="9.881312700651348"><ele>30.0</ele><time>2026-03-25T05:36:07.001Z</time></trkpt><trkpt lat="44.11815571164556" lon="9.881121865045195"><ele>30.0</ele><time>2026-03-25T05:36:08.001Z</time></trkpt><trkpt lat="44.11802642108187" lon="9.880909372895813"><ele>27.666666666666668</ele><time>2026-03-25T05:36:09.001Z</time></trkpt><trkpt lat="44.11789201744952" lon="9.880685296179323"><ele>25.333333333333336</ele><time>2026-03-25T05:36:10.001Z</time></trkpt><trkpt lat="44.11775535103904" lon="9.880444818653398"><ele>23.0</ele><time>2026-03-25T05:36:11.001Z</time></trkpt><trkpt lat="44.117616168394946" lon="9.880196204306325"><ele>23.0</ele><time>2026-03-25T05:36:12.001Z</time></trkpt><trkpt lat="44.117470770912455" lon="9.87994926272704"><ele>23.0</ele><time>2026-03-25T05:36:13.001Z</time></trkpt><trkpt lat="44.11731757335006" lon="9.879701278450664"><ele>23.0</ele><time>2026-03-25T05:36:14.001Z</time></trkpt><trkpt lat="44.11716183494111" lon="9.879453582406612"><ele>23.0</ele><time>2026-03-25T05:36:15.001Z</time></trkpt><trkpt lat="44.11701629720023" lon="9.879211080653697"><ele>21.333333333333336</ele><time>2026-03-25T05:36:16.001Z</time></trkpt><trkpt lat="44.11687919571985" lon="9.87898373201965"><ele>19.666666666666668</ele><time>2026-03-25T05:36:17.001Z</time></trkpt><trkpt lat="44.116766883178364" lon="9.87879979906383"><ele>18.0</ele><time>2026-03-25T05:36:18.001Z</time></trkpt><trkpt lat="44.116676647706804" lon="9.878630714316014"><ele>18.0</ele><time>2026-03-25T05:36:19.001Z</time></trkpt><trkpt lat="44.1166186864205" lon="9.878452057622596"><ele>18.0</ele><time>2026-03-25T05:36:20Z</time></trkpt><trkpt lat="44.116601308986056" lon="9.878267956104454"><ele>18.0</ele><time>2026-03-25T05:36:21Z</time></trkpt><trkpt lat="44.116634142508524" lon="9.878075688444296"><ele>18.0</ele><time>2026-03-25T05:36:22Z</time></trkpt><trkpt lat="44.11664080817998" lon="9.877866002101221"><ele>17.666666666666668</ele><time>2026-03-25T05:36:23Z</time></trkpt><trkpt lat="44.116675867119206" lon="9.877623074111586"><ele>17.333333333333336</ele><time>2026-03-25T05:36:24Z</time></trkpt><trkpt lat="44.1167090049493" lon="9.877370156411981"><ele>17.0</ele><time>2026-03-25T05:36:25Z</time></trkpt><trkpt lat="44.116727309120954" lon="9.877150553922222"><ele>16.75</ele><time>2026-03-25T05:36:26Z</time></trkpt><trkpt lat="44.11670304587492" lon="9.876935258627336"><ele>16.5</ele><time>2026-03-25T05:36:27Z</time></trkpt><trkpt lat="44.11665092836222" lon="9.876751785064842"><ele>16.25</ele><time>2026-03-25T05:36:28Z</time></trkpt><trkpt lat="44.11659056601546" lon="9.876567869257668"><ele>16.0</ele><time>2026-03-25T05:36:28.999Z</time></trkpt><trkpt lat="44.116547285894484" lon="9.876366341934173"><ele>15.666666666666666</ele><time>2026-03-25T05:36:29.999Z</time></trkpt><trkpt lat="44.116480259470976" lon="9.876126067000747"><ele>15.333333333333332</ele><time>2026-03-25T05:36:30.999Z</time></trkpt><trkpt lat="44.11640597029753" lon="9.8758895727214"><ele>15.0</ele><time>2026-03-25T05:36:31.999Z</time></trkpt><trkpt lat="44.116332902370765" lon="9.875658358539335"><ele>15.0</ele><time>2026-03-25T05:36:32.999Z</time></trkpt><trkpt lat="44.11626354710377" lon="9.875400713751121"><ele>15.0</ele><time>2026-03-25T05:36:33.999Z</time></trkpt><trkpt lat="44.11621634329324" lon="9.87515105518706"><ele>15.0</ele><time>2026-03-25T05:36:34.999Z</time></trkpt><trkpt lat="44.116218521354746" lon="9.874942784325583"><ele>15.0</ele><time>2026-03-25T05:36:35.999Z</time></trkpt><trkpt lat="44.11624555033099" lon="9.874713004130088"><ele>15.0</ele><time>2026-03-25T05:36:36.999Z</time></trkpt><trkpt lat="44.11630583349958" lon="9.874502560970647"><ele>15.0</ele><time>2026-03-25T05:36:37.999Z</time></trkpt><trkpt lat="44.11636665754339" lon="9.874264633366607"><ele>14.0</ele><time>2026-03-25T05:36:38.999Z</time></trkpt><trkpt lat="44.11642439581492" lon="9.874009234489701"><ele>13.0</ele><time>2026-03-25T05:36:39.999Z</time></trkpt><trkpt lat="44.116462677290464" lon="9.873815025270957"><ele>12.0</ele><time>2026-03-25T05:36:40.999Z</time></trkpt><trkpt lat="44.11643229351855" lon="9.873623998568291"><ele>12.0</ele><time>2026-03-25T05:36:41.999Z</time></trkpt><trkpt lat="44.11636486598954" lon="9.873510013819871"><ele>12.0</ele><time>2026-03-25T05:36:42.999Z</time></trkpt><trkpt lat="44.11626966387871" lon="9.873396470791354"><ele>12.0</ele><time>2026-03-25T05:36:43.999Z</time></trkpt><trkpt lat="44.11614481945277" lon="9.873280036252874"><ele>12.0</ele><time>2026-03-25T05:36:44.999Z</time></trkpt><trkpt lat="44.116017081620306" lon="9.87313932478252"><ele>12.333333333333332</ele><time>2026-03-25T05:36:45.999Z</time></trkpt><trkpt lat="44.11587593012871" lon="9.872982796036279"><ele>12.666666666666666</ele><time>2026-03-25T05:36:46.999Z</time></trkpt><trkpt lat="44.115725282361005" lon="9.872826145574882"><ele>13.0</ele><time>2026-03-25T05:36:47.999Z</time></trkpt><trkpt lat="44.11556041270873" lon="9.872668760828283"><ele>12.666666666666666</ele><time>2026-03-25T05:36:48.999Z</time></trkpt><trkpt lat="44.11545505058914" lon="9.872494983936841"><ele>12.333333333333332</ele><time>2026-03-25T05:36:49.999Z</time></trkpt><trkpt lat="44.11536388912633" lon="9.872290065212018"><ele>12.0</ele><time>2026-03-25T05:36:50.999Z</time></trkpt><trkpt lat="44.115285176679485" lon="9.872074932260782"><ele>12.0</ele><time>2026-03-25T05:36:51.999Z</time></trkpt><trkpt lat="44.11525359770466" lon="9.8718649051941"><ele>12.0</ele><time>2026-03-25T05:36:52.999Z</time></trkpt><trkpt lat="44.11527358340019" lon="9.871675338463685"><ele>12.0</ele><time>2026-03-25T05:36:53.999Z</time></trkpt><trkpt lat="44.11531236077266" lon="9.871496513529342"><ele>12.0</ele><time>2026-03-25T05:36:54.999Z</time></trkpt><trkpt lat="44.115363776377656" lon="9.871296183214469"><ele>12.0</ele><time>2026-03-25T05:36:55.999Z</time></trkpt><trkpt lat="44.11538092450091" lon="9.87111975338772"><ele>12.0</ele><time>2026-03-25T05:36:56.999Z</time></trkpt><trkpt lat="44.115351549285684" lon="9.870947531165884"><ele>12.0</ele><time>2026-03-25T05:36:57.999Z</time></trkpt><trkpt lat="44.11531596341598" lon="9.87077728353484"><ele>12.0</ele><time>2026-03-25T05:36:58.999Z</time></trkpt><trkpt lat="44.1152646343108" lon="9.870614739544473"><ele>12.0</ele><time>2026-03-25T05:36:59.999Z</time></trkpt><trkpt lat="44.11521238775823" lon="9.87047288252342"><ele>12.0</ele><time>2026-03-25T05:37:00.999Z</time></trkpt><trkpt lat="44.11516468141055" lon="9.870326190907551"><ele>12.0</ele><time>2026-03-25T05:37:01.999Z</time></trkpt><trkpt lat="44.11516959015362" lon="9.870169491947884"><ele>12.0</ele><time>2026-03-25T05:37:02.999Z</time></trkpt><trkpt lat="44.11518815241424" lon="9.86999751976334"><ele>12.0</ele><time>2026-03-25T05:37:03.999Z</time></trkpt><trkpt lat="44.115219810807424" lon="9.869829483431852"><ele>12.0</ele><time>2026-03-25T05:37:04.999Z</time></trkpt><trkpt lat="44.115225302866385" lon="9.869676572640564"><ele>12.0</ele><time>2026-03-25T05:37:05.999Z</time></trkpt><trkpt lat="44.115234268792314" lon="9.869550761329043"><ele>12.0</ele><time>2026-03-25T05:37:06.999Z</time></trkpt><trkpt lat="44.115264958246705" lon="9.869466971925297"><ele>12.0</ele><time>2026-03-25T05:37:07.999Z</time></trkpt><trkpt lat="44.115276559084094" lon="9.869377024759894"><ele>12.0</ele><time>2026-03-25T05:37:08.999Z</time></trkpt><trkpt lat="44.11531603273884" lon="9.869290078407182"><ele>12.0</ele><time>2026-03-25T05:37:09.999Z</time></trkpt><trkpt lat="44.115371767461916" lon="9.869231318716"><ele>12.0</ele><time>2026-03-25T05:37:10.999Z</time></trkpt><trkpt lat="44.11543958369964" lon="9.869200302522701"><ele>12.0</ele><time>2026-03-25T05:37:11.999Z</time></trkpt><trkpt lat="44.11550953379206" lon="9.869278666858692"><ele>12.0</ele><time>2026-03-25T05:37:12.999Z</time></trkpt><trkpt lat="44.11557017210205" lon="9.869342898777656"><ele>12.0</ele><time>2026-03-25T05:37:13.999Z</time></trkpt><trkpt lat="44.115633175637285" lon="9.86942526152049"><ele>14.25</ele><time>2026-03-25T05:37:14.999Z</time></trkpt><trkpt lat="44.11573968360343" lon="9.869528361938276"><ele>16.5</ele><time>2026-03-25T05:37:15.999Z</time></trkpt><trkpt lat="44.11585050150384" lon="9.869621393950482"><ele>18.75</ele><time>2026-03-25T05:37:16.999Z</time></trkpt><trkpt lat="44.11598452911146" lon="9.86967677641292"><ele>21.0</ele><time>2026-03-25T05:37:17.999Z</time></trkpt><trkpt lat="44.11613202283445" lon="9.869674899854514"><ele>21.0</ele><time>2026-03-25T05:37:18.999Z</time></trkpt><trkpt lat="44.116281626287204" lon="9.869709174155581"><ele>21.0</ele><time>2026-03-25T05:37:19.999Z</time></trkpt><trkpt lat="44.116445725285374" lon="9.869719774670175"><ele>21.0</ele><time>2026-03-25T05:37:20.999Z</time></trkpt><trkpt lat="44.11662317200778" lon="9.869731235733259"><ele>21.0</ele><time>2026-03-25T05:37:21.999Z</time></trkpt><trkpt lat="44.11680736201083" lon="9.86974309977779"><ele>21.0</ele><time>2026-03-25T05:37:22.999Z</time></trkpt><trkpt lat="44.11698296150181" lon="9.869754661493024"><ele>21.0</ele><time>2026-03-25T05:37:23.999Z</time></trkpt><trkpt lat="44.11711797246696" lon="9.869760182350323"><ele>21.0</ele><time>2026-03-25T05:37:24.999Z</time></trkpt><trkpt lat="44.117240070154125" lon="9.86970930507328"><ele>21.0</ele><time>2026-03-25T05:37:25.999Z</time></trkpt><trkpt lat="44.1173445387312" lon="9.869649310218879"><ele>21.0</ele><time>2026-03-25T05:37:26.999Z</time></trkpt><trkpt lat="44.117425149171595" lon="9.869565303665125"><ele>21.0</ele><time>2026-03-25T05:37:27.999Z</time></trkpt><trkpt lat="44.11748513727776" lon="9.869464869065892"><ele>21.0</ele><time>2026-03-25T05:37:28.999Z</time></trkpt><trkpt lat="44.11752814692628" lon="9.869345349147473"><ele>19.8</ele><time>2026-03-25T05:37:29.999Z</time></trkpt><trkpt lat="44.11755150553118" lon="9.869207413663217"><ele>18.6</ele><time>2026-03-25T05:37:30.999Z</time></trkpt><trkpt lat="44.11756431904956" lon="9.869059816349163"><ele>17.4</ele><time>2026-03-25T05:37:31.999Z</time></trkpt><trkpt lat="44.11756748617608" lon="9.86890236029786"><ele>16.2</ele><time>2026-03-25T05:37:32.999Z</time></trkpt><trkpt lat="44.11756948677172" lon="9.868738511580482"><ele>15.0</ele><time>2026-03-25T05:37:33.999Z</time></trkpt><trkpt lat="44.1175742460583" lon="9.86857051395347"><ele>14.25</ele><time>2026-03-25T05:37:34.999Z</time></trkpt><trkpt lat="44.11757573709415" lon="9.868404271441822"><ele>13.5</ele><time>2026-03-25T05:37:35.999Z</time></trkpt><trkpt lat="44.11756741935386" lon="9.868242119630796"><ele>12.75</ele><time>2026-03-25T05:37:36.999Z</time></trkpt><trkpt lat="44.11754175111371" lon="9.868066612857131"><ele>12.0</ele><time>2026-03-25T05:37:37.999Z</time></trkpt><trkpt lat="44.11749391015213" lon="9.867869556777352"><ele>12.0</ele><time>2026-03-25T05:37:38.998Z</time></trkpt><trkpt lat="44.11743582087507" lon="9.86765680132647"><ele>12.0</ele><time>2026-03-25T05:37:39.998Z</time></trkpt><trkpt lat="44.11736908459755" lon="9.867429889919057"><ele>12.0</ele><time>2026-03-25T05:37:40.998Z</time></trkpt><trkpt lat="44.11729590676666" lon="9.867187720802306"><ele>11.333333333333334</ele><time>2026-03-25T05:37:41.998Z</time></trkpt><trkpt lat="44.11722467380142" lon="9.866939555234268"><ele>10.666666666666668</ele><time>2026-03-25T05:37:42.998Z</time></trkpt><trkpt lat="44.1171615063806" lon="9.866671319232147"><ele>10.0</ele><time>2026-03-25T05:37:43.998Z</time></trkpt><trkpt lat="44.1171024950905" lon="9.866397041026614"><ele>10.0</ele><time>2026-03-25T05:37:44.998Z</time></trkpt><trkpt lat="44.117062407203875" lon="9.866138154879119"><ele>10.0</ele><time>2026-03-25T05:37:45.998Z</time></trkpt><trkpt lat="44.117045776304465" lon="9.86587358087943"><ele>10.0</ele><time>2026-03-25T05:37:46.998Z</time></trkpt><trkpt lat="44.11703806093462" lon="9.865599823408926"><ele>10.333333333333334</ele><time>2026-03-25T05:37:47.998Z</time></trkpt><trkpt lat="44.117042164073375" lon="9.86531414011282"><ele>10.666666666666666</ele><time>2026-03-25T05:37:48.998Z</time></trkpt><trkpt lat="44.11704419613249" lon="9.86502993016622"><ele>11.0</ele><time>2026-03-25T05:37:49.998Z</time></trkpt><trkpt lat="44.11705076627409" lon="9.864774806362817"><ele>11.0</ele><time>2026-03-25T05:37:50.998Z</time></trkpt><trkpt lat="44.11706251996604" lon="9.864546404643335"><ele>11.0</ele><time>2026-03-25T05:37:51.998Z</time></trkpt><trkpt lat="44.1170764373805" lon="9.86431230663193"><ele>11.0</ele><time>2026-03-25T05:37:52.998Z</time></trkpt><trkpt lat="44.11712625332634" lon="9.864075467206932"><ele>11.0</ele><time>2026-03-25T05:37:53.998Z</time></trkpt><trkpt lat="44.11715375572104" lon="9.8638224574375"><ele>11.0</ele><time>2026-03-25T05:37:54.998Z</time></trkpt><trkpt lat="44.11720011929333" lon="9.863575436847219"><ele>11.0</ele><time>2026-03-25T05:37:55.998Z</time></trkpt><trkpt lat="44.11723463763968" lon="9.863368437039721"><ele>12.0</ele><time>2026-03-25T05:37:56.998Z</time></trkpt><trkpt lat="44.11725132052326" lon="9.863218661490704"><ele>13.0</ele><time>2026-03-25T05:37:57.998Z</time></trkpt><trkpt lat="44.117266723315865" lon="9.863082786947547"><ele>14.0</ele><time>2026-03-25T05:37:58.998Z</time></trkpt><trkpt lat="44.117141523174645" lon="9.862974448320502"><ele>15.0</ele><time>2026-03-25T05:37:59.998Z</time></trkpt><trkpt lat="44.11704610308006" lon="9.86284075986365"><ele>15.0</ele><time>2026-03-25T05:38:00.998Z</time></trkpt><trkpt lat="44.116973919805524" lon="9.8626795796245"><ele>15.0</ele><time>2026-03-25T05:38:01.998Z</time></trkpt><trkpt lat="44.116954810740594" lon="9.862470941960115"><ele>15.0</ele><time>2026-03-25T05:38:02.998Z</time></trkpt><trkpt lat="44.11690992227485" lon="9.862251747895396"><ele>14.75</ele><time>2026-03-25T05:38:03.998Z</time></trkpt><trkpt lat="44.11686726246823" lon="9.862024180171549"><ele>14.5</ele><time>2026-03-25T05:38:04.998Z</time></trkpt><trkpt lat="44.11681684350223" lon="9.861812201408323"><ele>14.25</ele><time>2026-03-25T05:38:06Z</time></trkpt><trkpt lat="44.11678472395519" lon="9.861652971593148"><ele>14.0</ele><time>2026-03-25T05:38:07Z</time></trkpt><trkpt lat="44.11677160629683" lon="9.861558724415312"><ele>14.0</ele><time>2026-03-25T05:38:08Z</time></trkpt><trkpt lat="44.116758109995345" lon="9.861450267776165"><ele>13.999999999999998</ele><time>2026-03-25T05:38:09Z</time></trkpt><trkpt lat="44.11688160393312" lon="9.861554665079792"><ele>13.999999999999998</ele><time>2026-03-25T05:38:10Z</time></trkpt><trkpt lat="44.11695261409309" lon="9.861593463702292"><ele>14.0</ele><time>2026-03-25T05:38:11Z</time></trkpt><trkpt lat="44.117044751633415" lon="9.86163554250591"><ele>14.0</ele><time>2026-03-25T05:38:12Z</time></trkpt><trkpt lat="44.11717827774131" lon="9.861668482832934"><ele>14.0</ele><time>2026-03-25T05:38:13Z</time></trkpt><trkpt lat="44.11730431869679" lon="9.861645126883284"><ele>14.0</ele><time>2026-03-25T05:38:15Z</time></trkpt><trkpt lat="44.1173011681204" lon="9.861480270586666"><ele>14.0</ele><time>2026-03-25T05:38:17Z</time></trkpt><trkpt lat="44.11730322984985" lon="9.861278718813795"><ele>14.0</ele><time>2026-03-25T05:38:18Z</time></trkpt><trkpt lat="44.117270676229786" lon="9.86104108606176"><ele>15.0</ele><time>2026-03-25T05:38:19Z</time></trkpt><trkpt lat="44.11723382285497" lon="9.860817205937813"><ele>16.0</ele><time>2026-03-25T05:38:20Z</time></trkpt><trkpt lat="44.11719964450839" lon="9.860605385586926"><ele>17.0</ele><time>2026-03-25T05:38:21Z</time></trkpt><trkpt lat="44.11716959056795" lon="9.86036097328448"><ele>18.0</ele><time>2026-03-25T05:38:22Z</time></trkpt><trkpt lat="44.11714056468237" lon="9.860097699043013"><ele>19.0</ele><time>2026-03-25T05:38:23Z</time></trkpt><trkpt lat="44.11709035747442" lon="9.859828780816041"><ele>20.0</ele><time>2026-03-25T05:38:24Z</time></trkpt><trkpt lat="44.11712162235928" lon="9.859560391991254"><ele>20.0</ele><time>2026-03-25T05:38:25Z</time></trkpt><trkpt lat="44.11717723856006" lon="9.859304035750544"><ele>20.0</ele><time>2026-03-25T05:38:26Z</time></trkpt><trkpt lat="44.11726472747691" lon="9.85906999806571"><ele>20.0</ele><time>2026-03-25T05:38:27Z</time></trkpt><trkpt lat="44.11736522870682" lon="9.858870474869981"><ele>19.666666666666668</ele><time>2026-03-25T05:38:28Z</time></trkpt><trkpt lat="44.11748199214131" lon="9.858623415260324"><ele>19.333333333333332</ele><time>2026-03-25T05:38:29Z</time></trkpt><trkpt lat="44.11754986128642" lon="9.858348981194197"><ele>19.0</ele><time>2026-03-25T05:38:29.999Z</time></trkpt><trkpt lat="44.11761601771712" lon="9.858060121969906"><ele>18.5</ele><time>2026-03-25T05:38:30.999Z</time></trkpt><trkpt lat="44.11768011200825" lon="9.857746866233734"><ele>18.0</ele><time>2026-03-25T05:38:31.999Z</time></trkpt><trkpt lat="44.1177640652425" lon="9.857446795322915"><ele>18.0</ele><time>2026-03-25T05:38:32.999Z</time></trkpt><trkpt lat="44.11785523771409" lon="9.857153011796164"><ele>18.0</ele><time>2026-03-25T05:38:33.999Z</time></trkpt><trkpt lat="44.11793354541705" lon="9.856887081245993"><ele>18.0</ele><time>2026-03-25T05:38:34.999Z</time></trkpt><trkpt lat="44.11799391777559" lon="9.85669588583708"><ele>17.6</ele><time>2026-03-25T05:38:35.999Z</time></trkpt><trkpt lat="44.118042105512245" lon="9.856564400098577"><ele>17.200000000000003</ele><time>2026-03-25T05:38:36.999Z</time></trkpt><trkpt lat="44.11807001107846" lon="9.856475279951987"><ele>16.8</ele><time>2026-03-25T05:38:38.999Z</time></trkpt><trkpt lat="44.118113412457085" lon="9.856378919508403"><ele>16.400000000000002</ele><time>2026-03-25T05:38:40.999Z</time></trkpt><trkpt lat="44.11817158013554" lon="9.856249471942828"><ele>16.0</ele><time>2026-03-25T05:38:42.999Z</time></trkpt><trkpt lat="44.11823670948501" lon="9.85604788227046"><ele>15.0</ele><time>2026-03-25T05:38:43.999Z</time></trkpt><trkpt lat="44.11829850389809" lon="9.855846245930742"><ele>14.0</ele><time>2026-03-25T05:38:44.999Z</time></trkpt><trkpt lat="44.118378468154575" lon="9.855677046680155"><ele>13.0</ele><time>2026-03-25T05:38:45.999Z</time></trkpt><trkpt lat="44.1184877114576" lon="9.855482409793607"><ele>13.0</ele><time>2026-03-25T05:38:46.999Z</time></trkpt><trkpt lat="44.11861114344512" lon="9.855315861236228"><ele>13.0</ele><time>2026-03-25T05:38:47.999Z</time></trkpt><trkpt lat="44.11876644020264" lon="9.855128642836585"><ele>13.0</ele><time>2026-03-25T05:38:48.999Z</time></trkpt><trkpt lat="44.11889638639333" lon="9.854972223655432"><ele>12.0</ele><time>2026-03-25T05:38:49.999Z</time></trkpt><trkpt lat="44.119054811076104" lon="9.854789055673711"><ele>11.0</ele><time>2026-03-25T05:38:50.999Z</time></trkpt><trkpt lat="44.119211952309215" lon="9.854600919767979"><ele>10.0</ele><time>2026-03-25T05:38:51.999Z</time></trkpt><trkpt lat="44.11937188979459" lon="9.854409357357401"><ele>10.666666666666668</ele><time>2026-03-25T05:38:52.999Z</time></trkpt><trkpt lat="44.119535120852866" lon="9.854215379342632"><ele>11.333333333333334</ele><time>2026-03-25T05:38:53.999Z</time></trkpt><trkpt lat="44.11969178905909" lon="9.854020969304239"><ele>12.0</ele><time>2026-03-25T05:38:54.999Z</time></trkpt><trkpt lat="44.119837749532735" lon="9.853839485690745"><ele>12.0</ele><time>2026-03-25T05:38:55.999Z</time></trkpt><trkpt lat="44.119977680534966" lon="9.853666018338462"><ele>12.0</ele><time>2026-03-25T05:38:56.999Z</time></trkpt><trkpt lat="44.12011706947126" lon="9.853499590730728"><ele>12.0</ele><time>2026-03-25T05:38:57.999Z</time></trkpt><trkpt lat="44.12025428530581" lon="9.85332622256775"><ele>12.0</ele><time>2026-03-25T05:38:58.999Z</time></trkpt><trkpt lat="44.12039919678342" lon="9.85314109882283"><ele>12.0</ele><time>2026-03-25T05:38:59.999Z</time></trkpt><trkpt lat="44.12054938133796" lon="9.852951851374693"><ele>12.0</ele><time>2026-03-25T05:39:00.999Z</time></trkpt><trkpt lat="44.12069530365331" lon="9.852765308138364"><ele>11.666666666666666</ele><time>2026-03-25T05:39:01.999Z</time></trkpt><trkpt lat="44.120844081259044" lon="9.852586197122237"><ele>11.333333333333332</ele><time>2026-03-25T05:39:02.999Z</time></trkpt><trkpt lat="44.12099397781716" lon="9.852407876900442"><ele>11.0</ele><time>2026-03-25T05:39:03.999Z</time></trkpt><trkpt lat="44.121142732250284" lon="9.852220043552627"><ele>11.0</ele><time>2026-03-25T05:39:04.999Z</time></trkpt><trkpt lat="44.121297760274125" lon="9.85202592319268"><ele>11.0</ele><time>2026-03-25T05:39:05.999Z</time></trkpt><trkpt lat="44.12145517549071" lon="9.851830915653945"><ele>11.0</ele><time>2026-03-25T05:39:06.999Z</time></trkpt><trkpt lat="44.12160585026771" lon="9.851630184815095"><ele>11.666666666666666</ele><time>2026-03-25T05:39:07.999Z</time></trkpt><trkpt lat="44.121772460969154" lon="9.851443806876517"><ele>12.333333333333332</ele><time>2026-03-25T05:39:08.999Z</time></trkpt><trkpt lat="44.121941945754344" lon="9.851257336497817"><ele>13.0</ele><time>2026-03-25T05:39:09.999Z</time></trkpt><trkpt lat="44.12211831944552" lon="9.851087465446605"><ele>13.333333333333332</ele><time>2026-03-25T05:39:10.999Z</time></trkpt><trkpt lat="44.12226924871474" lon="9.85088439679497"><ele>13.666666666666668</ele><time>2026-03-25T05:39:11.999Z</time></trkpt><trkpt lat="44.12241658829811" lon="9.850714398812398"><ele>14.0</ele><time>2026-03-25T05:39:12.999Z</time></trkpt><trkpt lat="44.12255839368042" lon="9.850541417912586"><ele>14.0</ele><time>2026-03-25T05:39:13.999Z</time></trkpt><trkpt lat="44.12267902597214" lon="9.850364105140622"><ele>14.0</ele><time>2026-03-25T05:39:14.999Z</time></trkpt><trkpt lat="44.12276451" lon="9.85016907352719"><ele>14.0</ele><time>2026-03-25T05:39:15.999Z</time></trkpt><trkpt lat="44.12277454694575" lon="9.8499530560192"><ele>14.0</ele><time>2026-03-25T05:39:16.999Z</time></trkpt><trkpt lat="44.122790082535694" lon="9.849735743276982"><ele>14.0</ele><time>2026-03-25T05:39:17.999Z</time></trkpt><trkpt lat="44.12278698063715" lon="9.849508820053925"><ele>14.0</ele><time>2026-03-25T05:39:18.999Z</time></trkpt><trkpt lat="44.122772079448694" lon="9.849268062011133"><ele>13.666666666666668</ele><time>2026-03-25T05:39:19.999Z</time></trkpt><trkpt lat="44.122756752870785" lon="9.84902178528651"><ele>13.333333333333332</ele><time>2026-03-25T05:39:20.999Z</time></trkpt><trkpt lat="44.12274022886646" lon="9.848768989819519"><ele>13.0</ele><time>2026-03-25T05:39:21.999Z</time></trkpt><trkpt lat="44.12272542557588" lon="9.848508960546908"><ele>13.333333333333332</ele><time>2026-03-25T05:39:22.999Z</time></trkpt><trkpt lat="44.12271122511619" lon="9.848266625735892"><ele>13.666666666666668</ele><time>2026-03-25T05:39:23.999Z</time></trkpt><trkpt lat="44.122701959736396" lon="9.848057377589969"><ele>14.0</ele><time>2026-03-25T05:39:24.999Z</time></trkpt><trkpt lat="44.122704168928074" lon="9.847871958214004"><ele>14.0</ele><time>2026-03-25T05:39:25.999Z</time></trkpt><trkpt lat="44.12270189385812" lon="9.847688964408116"><ele>14.0</ele><time>2026-03-25T05:39:26.999Z</time></trkpt><trkpt lat="44.12270809013405" lon="9.847489331399794"><ele>14.0</ele><time>2026-03-25T05:39:27.999Z</time></trkpt><trkpt lat="44.12272386198372" lon="9.847288435961106"><ele>14.0</ele><time>2026-03-25T05:39:28.999Z</time></trkpt><trkpt lat="44.122740303509495" lon="9.847129060980667"><ele>14.2</ele><time>2026-03-25T05:39:29.999Z</time></trkpt><trkpt lat="44.12277579129918" lon="9.84700982502749"><ele>14.399999999999999</ele><time>2026-03-25T05:39:31.999Z</time></trkpt><trkpt lat="44.122754180027904" lon="9.84689600558242"><ele>14.6</ele><time>2026-03-25T05:40:02.998Z</time></trkpt><trkpt lat="44.12278552037748" lon="9.846748499310898"><ele>14.8</ele><time>2026-03-25T05:40:03.998Z</time></trkpt><trkpt lat="44.12282396957976" lon="9.846606281960717"><ele>15.0</ele><time>2026-03-25T05:40:04.998Z</time></trkpt><trkpt lat="44.12289105785264" lon="9.84646394455019"><ele>15.0</ele><time>2026-03-25T05:40:05.998Z</time></trkpt><trkpt lat="44.12293268615782" lon="9.846251854195833"><ele>15.0</ele><time>2026-03-25T05:40:06.998Z</time></trkpt><trkpt lat="44.123004347037366" lon="9.84602846542545"><ele>15.0</ele><time>2026-03-25T05:40:07.998Z</time></trkpt><trkpt lat="44.12302952720932" lon="9.845823787565081"><ele>15.0</ele><time>2026-03-25T05:40:08.998Z</time></trkpt><trkpt lat="44.12305462003018" lon="9.845614349123482"><ele>15.0</ele><time>2026-03-25T05:40:09.998Z</time></trkpt><trkpt lat="44.12307681466146" lon="9.845425566296198"><ele>15.0</ele><time>2026-03-25T05:40:10.998Z</time></trkpt><trkpt lat="44.12309920902461" lon="9.845234704666225"><ele>15.0</ele><time>2026-03-25T05:40:12Z</time></trkpt><trkpt lat="44.12311707456822" lon="9.845079472933433"><ele>14.25</ele><time>2026-03-25T05:40:13Z</time></trkpt><trkpt lat="44.12313545039391" lon="9.844919807578856"><ele>13.5</ele><time>2026-03-25T05:40:14Z</time></trkpt><trkpt lat="44.12315356692562" lon="9.844762396122189"><ele>12.75</ele><time>2026-03-25T05:40:15Z</time></trkpt><trkpt lat="44.12317229423433" lon="9.844596419049912"><ele>12.0</ele><time>2026-03-25T05:40:16Z</time></trkpt><trkpt lat="44.12319583234041" lon="9.844388143102417"><ele>11.75</ele><time>2026-03-25T05:40:17Z</time></trkpt><trkpt lat="44.12321861774721" lon="9.844184906723369"><ele>11.5</ele><time>2026-03-25T05:40:18Z</time></trkpt><trkpt lat="44.12324016355678" lon="9.843991889123378"><ele>11.25</ele><time>2026-03-25T05:40:19Z</time></trkpt><trkpt lat="44.12326094837353" lon="9.843805689137142"><ele>11.0</ele><time>2026-03-25T05:40:20Z</time></trkpt><trkpt lat="44.12327482030235" lon="9.843653158625775"><ele>11.75</ele><time>2026-03-25T05:40:21Z</time></trkpt><trkpt lat="44.123267060483435" lon="9.843538360194783"><ele>12.5</ele><time>2026-03-25T05:40:22Z</time></trkpt><trkpt lat="44.12321966768665" lon="9.843376010286672"><ele>13.25</ele><time>2026-03-25T05:40:23Z</time></trkpt><trkpt lat="44.12305175449356" lon="9.84328120523642"><ele>14.0</ele><time>2026-03-25T05:40:24Z</time></trkpt><trkpt lat="44.12296330690964" lon="9.843124158518131"><ele>14.0</ele><time>2026-03-25T05:40:25Z</time></trkpt><trkpt lat="44.122860535652165" lon="9.842955331666012"><ele>14.0</ele><time>2026-03-25T05:40:26Z</time></trkpt><trkpt lat="44.12275170193225" lon="9.84277698369068"><ele>14.0</ele><time>2026-03-25T05:40:27Z</time></trkpt><trkpt lat="44.12264873727903" lon="9.842590580397381"><ele>13.25</ele><time>2026-03-25T05:40:28Z</time></trkpt><trkpt lat="44.12256000803679" lon="9.842413990141155"><ele>12.5</ele><time>2026-03-25T05:40:29Z</time></trkpt><trkpt lat="44.12247719189663" lon="9.842253636266284"><ele>11.75</ele><time>2026-03-25T05:40:30Z</time></trkpt><trkpt lat="44.12240846631802" lon="9.842083735630052"><ele>11.0</ele><time>2026-03-25T05:40:31Z</time></trkpt><trkpt lat="44.12234746884066" lon="9.841902216277903"><ele>10.75</ele><time>2026-03-25T05:40:32Z</time></trkpt><trkpt lat="44.12233325055307" lon="9.841717932072134"><ele>10.5</ele><time>2026-03-25T05:40:33Z</time></trkpt><trkpt lat="44.122309101365154" lon="9.841524675342969"><ele>10.25</ele><time>2026-03-25T05:40:34Z</time></trkpt><trkpt lat="44.12228766659508" lon="9.841365410308825"><ele>10.0</ele><time>2026-03-25T05:40:35Z</time></trkpt><trkpt lat="44.12224776041589" lon="9.841274875802963"><ele>10.0</ele><time>2026-03-25T05:40:36Z</time></trkpt><trkpt lat="44.12223371617789" lon="9.841140054224649"><ele>10.0</ele><time>2026-03-25T05:40:38Z</time></trkpt><trkpt lat="44.12221931636306" lon="9.84102647043754"><ele>10.0</ele><time>2026-03-25T05:40:39Z</time></trkpt><trkpt lat="44.12222883710199" lon="9.840921236227521"><ele>10.0</ele><time>2026-03-25T05:40:40Z</time></trkpt><trkpt lat="44.122240966596436" lon="9.840797668971279"><ele>10.0</ele><time>2026-03-25T05:40:42Z</time></trkpt><trkpt lat="44.12223807197243" lon="9.84070582443945"><ele>10.0</ele><time>2026-03-25T05:40:44.999Z</time></trkpt><trkpt lat="44.12215205623278" lon="9.840632379000695"><ele>9.833333333333334</ele><time>2026-03-25T05:40:59.999Z</time></trkpt><trkpt lat="44.12218294158122" lon="9.840718518157445"><ele>9.666666666666668</ele><time>2026-03-25T05:41:31.999Z</time></trkpt><trkpt lat="44.12225765609142" lon="9.840707513949715"><ele>9.5</ele><time>2026-03-25T05:41:44.999Z</time></trkpt><trkpt lat="44.12235420284259" lon="9.84074020410498"><ele>9.333333333333334</ele><time>2026-03-25T05:41:51.999Z</time></trkpt><trkpt lat="44.122295863196264" lon="9.840783500257473"><ele>9.166666666666666</ele><time>2026-03-25T05:42:05.998Z</time></trkpt><trkpt lat="44.12229798970207" lon="9.840663775819902"><ele>9.0</ele><time>2026-03-25T05:42:10.998Z</time></trkpt><trkpt lat="44.12221152029814" lon="9.840672477939332"><ele>9.0</ele><time>2026-03-25T05:44:59.999Z</time></trkpt><trkpt lat="44.122162505821244" lon="9.840869842016245"><ele>9.0</ele><time>2026-03-25T05:47:00Z</time></trkpt><trkpt lat="44.12216450211449" lon="9.8409922227055"><ele>9.0</ele><time>2026-03-25T05:47:01Z</time></trkpt><trkpt lat="44.122181103618864" lon="9.841131570469416"><ele>9.0</ele><time>2026-03-25T05:47:03Z</time></trkpt><trkpt lat="44.122091849726104" lon="9.841162839324737"><ele>9.0</ele><time>2026-03-25T05:47:05Z</time></trkpt><trkpt lat="44.122178409361986" lon="9.8411524820539"><ele>9.0</ele><time>2026-03-25T05:47:18.999Z</time></trkpt><trkpt lat="44.12222012764965" lon="9.840830751386596"><ele>9.0</ele><time>2026-03-25T05:47:21.999Z</time></trkpt><trkpt lat="44.12220823582651" lon="9.840710312568472"><ele>9.0</ele><time>2026-03-25T05:47:22.999Z</time></trkpt><trkpt lat="44.12222327217855" lon="9.840618839422833"><ele>9.0</ele><time>2026-03-25T05:47:23.999Z</time></trkpt><trkpt lat="44.12225525722432" lon="9.840540854045658"><ele>9.0</ele><time>2026-03-25T05:47:24.999Z</time></trkpt><trkpt lat="44.122263309125884" lon="9.840401699839935"><ele>9.0</ele><time>2026-03-25T05:47:26.999Z</time></trkpt><trkpt lat="44.12226949265658" lon="9.840297471876232"><ele>9.0</ele><time>2026-03-25T05:47:28.999Z</time></trkpt><trkpt lat="44.12226411942829" lon="9.84019971381107"><ele>9.0</ele><time>2026-03-25T05:47:43.999Z</time></trkpt><trkpt lat="44.122246207037605" lon="9.840288163927998"><ele>9.0</ele><time>2026-03-25T05:48:06.999Z</time></trkpt><trkpt lat="44.12221778597356" lon="9.840371620496054"><ele>9.0</ele><time>2026-03-25T05:48:11.999Z</time></trkpt><trkpt lat="44.12217253719315" lon="9.840459561860555"><ele>9.0</ele><time>2026-03-25T05:48:15.999Z</time></trkpt><trkpt lat="44.122153468248186" lon="9.840572687106267"><ele>9.0</ele><time>2026-03-25T05:48:20.999Z</time></trkpt><trkpt lat="44.12217360532878" lon="9.840664501607085"><ele>9.0</ele><time>2026-03-25T05:48:24.999Z</time></trkpt><trkpt lat="44.1222468259649" lon="9.84069652034563"><ele>9.0</ele><time>2026-03-25T05:48:32.998Z</time></trkpt><trkpt lat="44.12239254157561" lon="9.840742838478869"><ele>9.0</ele><time>2026-03-25T05:48:55Z</time></trkpt><trkpt lat="44.122422424133404" lon="9.840829907238286"><ele>9.0</ele><time>2026-03-25T05:49:01Z</time></trkpt><trkpt lat="44.122482770177555" lon="9.840800429047063"><ele>9.0</ele><time>2026-03-25T05:49:04Z</time></trkpt><trkpt lat="44.12254174124809" lon="9.840752930986612"><ele>9.0</ele><time>2026-03-25T05:49:09Z</time></trkpt><trkpt lat="44.12247510236865" lon="9.840755859035477"><ele>9.0</ele><time>2026-03-25T05:49:13Z</time></trkpt><trkpt lat="44.1223683177057" lon="9.840705893083507"><ele>9.0</ele><time>2026-03-25T05:49:17Z</time></trkpt><trkpt lat="44.12245351810931" lon="9.840720597422925"><ele>9.0</ele><time>2026-03-25T05:49:35.999Z</time></trkpt><trkpt lat="44.12251435857535" lon="9.840790526668629"><ele>9.0</ele><time>2026-03-25T05:49:48.999Z</time></trkpt><trkpt lat="44.12257922047822" lon="9.84080959196594"><ele>9.000000000000002</ele><time>2026-03-25T05:49:50.999Z</time></trkpt><trkpt lat="44.12251139039893" lon="9.840761549236646"><ele>9.0</ele><time>2026-03-25T05:50:02.999Z</time></trkpt><trkpt lat="44.1224448795259" lon="9.840742737498294"><ele>9.0</ele><time>2026-03-25T05:50:09.999Z</time></trkpt><trkpt lat="44.122377806591196" lon="9.840764655629359"><ele>9.0</ele><time>2026-03-25T05:50:15.999Z</time></trkpt><trkpt lat="44.12232942257208" lon="9.840703722593526"><ele>9.0</ele><time>2026-03-25T05:50:20.999Z</time></trkpt><trkpt lat="44.122261640174" lon="9.84072600965173"><ele>9.000000000000002</ele><time>2026-03-25T05:50:33.999Z</time></trkpt><trkpt lat="44.12221453055205" lon="9.840785190209697"><ele>9.0</ele><time>2026-03-25T05:50:39.998Z</time></trkpt><trkpt lat="44.12220326371509" lon="9.84088552704119"><ele>9.000000000000002</ele><time>2026-03-25T05:50:46Z</time></trkpt><trkpt lat="44.1222356268747" lon="9.840965022824502"><ele>9.0</ele><time>2026-03-25T05:50:51Z</time></trkpt><trkpt lat="44.122229543570704" lon="9.841064020944694"><ele>9.0</ele><time>2026-03-25T05:50:58Z</time></trkpt><trkpt lat="44.12215833079882" lon="9.841108830805478"><ele>9.0</ele><time>2026-03-25T05:51:03Z</time></trkpt><trkpt lat="44.12209116139741" lon="9.841105003339825"><ele>9.0</ele><time>2026-03-25T05:51:08Z</time></trkpt><trkpt lat="44.12202264832792" lon="9.841112642768998"><ele>9.000000000000002</ele><time>2026-03-25T05:51:13Z</time></trkpt><trkpt lat="44.1219599424107" lon="9.841130174896493"><ele>9.0</ele><time>2026-03-25T05:51:17Z</time></trkpt><trkpt lat="44.121886429866834" lon="9.841139997080287"><ele>9.000000000000002</ele><time>2026-03-25T05:51:22Z</time></trkpt><trkpt lat="44.12195750571444" lon="9.84115469164203"><ele>9.0</ele><time>2026-03-25T05:51:32.999Z</time></trkpt><trkpt lat="44.12202544253142" lon="9.841159063548144"><ele>9.0</ele><time>2026-03-25T05:51:38.999Z</time></trkpt><trkpt lat="44.122092774104374" lon="9.841162345187467"><ele>9.0</ele><time>2026-03-25T05:51:44.999Z</time></trkpt><trkpt lat="44.12215534648172" lon="9.841109039587455"><ele>9.0</ele><time>2026-03-25T05:51:49.999Z</time></trkpt><trkpt lat="44.12216640193101" lon="9.841007418894984"><ele>9.000000000000002</ele><time>2026-03-25T05:51:54.999Z</time></trkpt><trkpt lat="44.122226155432294" lon="9.84097497092133"><ele>9.0</ele><time>2026-03-25T05:51:59.999Z</time></trkpt><trkpt lat="44.1222415910684" lon="9.840886015668863"><ele>9.0</ele><time>2026-03-25T05:52:06.999Z</time></trkpt><trkpt lat="44.12222646927228" lon="9.840786905441272"><ele>9.0</ele><time>2026-03-25T05:52:13.999Z</time></trkpt><trkpt lat="44.12229396828674" lon="9.840724245306685"><ele>9.0</ele><time>2026-03-25T05:52:25.999Z</time></trkpt><trkpt lat="44.12250247757124" lon="9.84074301568592"><ele>9.0</ele><time>2026-03-25T05:52:52Z</time></trkpt><trkpt lat="44.12236854424908" lon="9.840724389915206"><ele>9.0</ele><time>2026-03-25T05:54:28.013Z</time></trkpt><trkpt lat="44.12237752095032" lon="9.840829457310756"><ele>9.0</ele><time>2026-03-25T05:59:22.026Z</time></trkpt><trkpt lat="44.12243257861096" lon="9.840880040765771"><ele>9.0</ele><time>2026-03-25T05:59:34Z</time></trkpt><trkpt lat="44.122494652744265" lon="9.840844739308887"><ele>9.0</ele><time>2026-03-25T06:00:03.018Z</time></trkpt><trkpt lat="44.12235928156295" lon="9.840741797199383"><ele>9.0</ele><time>2026-03-25T06:00:05.017Z</time></trkpt><trkpt lat="44.1224028870732" lon="9.840588514924551"><ele>9.0</ele><time>2026-03-25T06:00:12.017Z</time></trkpt><trkpt lat="44.12232976712612" lon="9.840714385663569"><ele>9.0</ele><time>2026-03-25T06:00:13.018Z</time></trkpt><trkpt lat="44.122196874139725" lon="9.840720389928117"><ele>9.0</ele><time>2026-03-25T06:00:14.016Z</time></trkpt><trkpt lat="44.122283924408" lon="9.840673983701299"><ele>9.0</ele><time>2026-03-25T06:00:15.019Z</time></trkpt><trkpt lat="44.122392103426186" lon="9.840499863156307"><ele>9.0</ele><time>2026-03-25T06:00:21.019Z</time></trkpt><trkpt lat="44.12236385014243" lon="9.840580297543635"><ele>9.0</ele><time>2026-03-25T06:00:26.018Z</time></trkpt><trkpt lat="44.12236649762699" lon="9.840681800003399"><ele>9.0</ele><time>2026-03-25T06:00:31.019Z</time></trkpt><trkpt lat="44.12234517701527" lon="9.840801862908318"><ele>9.0</ele><time>2026-03-25T06:00:50.017Z</time></trkpt><trkpt lat="44.12232949104484" lon="9.840914835099598"><ele>9.0</ele><time>2026-03-25T06:01:15.018Z</time></trkpt><trkpt lat="44.122246005048495" lon="9.84092387492348"><ele>9.0</ele><time>2026-03-25T06:01:17.999Z</time></trkpt><trkpt lat="44.122225325573" lon="9.840788716879155"><ele>9.000000000000002</ele><time>2026-03-25T06:01:22.999Z</time></trkpt><trkpt lat="44.122192998593974" lon="9.840870644831979"><ele>9.0</ele><time>2026-03-25T06:01:37Z</time></trkpt><trkpt lat="44.12221425238037" lon="9.840978967219286"><ele>9.0</ele><time>2026-03-25T06:01:42Z</time></trkpt><trkpt lat="44.12222929157248" lon="9.841066771246714"><ele>9.0</ele><time>2026-03-25T06:01:46Z</time></trkpt><trkpt lat="44.12229081275358" lon="9.841101659016964"><ele>9.0</ele><time>2026-03-25T06:01:50Z</time></trkpt><trkpt lat="44.12236025385784" lon="9.841107915677176"><ele>9.000000000000002</ele><time>2026-03-25T06:01:54Z</time></trkpt><trkpt lat="44.12243997299876" lon="9.841112473891961"><ele>9.0</ele><time>2026-03-25T06:01:58Z</time></trkpt><trkpt lat="44.122502867076115" lon="9.84113171560022"><ele>9.142857142857144</ele><time>2026-03-25T06:02:02Z</time></trkpt><trkpt lat="44.12256414807112" lon="9.841159671587402"><ele>9.285714285714286</ele><time>2026-03-25T06:02:06Z</time></trkpt><trkpt lat="44.12262767925018" lon="9.841162435536093"><ele>9.428571428571429</ele><time>2026-03-25T06:02:10Z</time></trkpt><trkpt lat="44.122706204789985" lon="9.841145993717884"><ele>9.571428571428573</ele><time>2026-03-25T06:02:14Z</time></trkpt><trkpt lat="44.12277597955122" lon="9.841093871842165"><ele>9.714285714285715</ele><time>2026-03-25T06:02:19Z</time></trkpt><trkpt lat="44.122806637687624" lon="9.841004474684699"><ele>9.857142857142858</ele><time>2026-03-25T06:02:24Z</time></trkpt><trkpt lat="44.12287308418639" lon="9.84094216905461"><ele>10.0</ele><time>2026-03-25T06:02:29Z</time></trkpt><trkpt lat="44.12292900665087" lon="9.840872806044043"><ele>10.0</ele><time>2026-03-25T06:02:34Z</time></trkpt><trkpt lat="44.12298672024339" lon="9.84081755342197"><ele>10.0</ele><time>2026-03-25T06:02:39Z</time></trkpt><trkpt lat="44.1230448811454" lon="9.840774161346541"><ele>10.0</ele><time>2026-03-25T06:02:43Z</time></trkpt><trkpt lat="44.12309974237843" lon="9.840715658214124"><ele>10.0</ele><time>2026-03-25T06:02:49Z</time></trkpt><trkpt lat="44.12316267599793" lon="9.840675890156726"><ele>10.0</ele><time>2026-03-25T06:02:54Z</time></trkpt><trkpt lat="44.12320154002412" lon="9.840585542099229"><ele>10.0</ele><time>2026-03-25T06:03:00.999Z</time></trkpt><trkpt lat="44.12319008400046" lon="9.840491828934278"><ele>10.0</ele><time>2026-03-25T06:03:05.999Z</time></trkpt><trkpt lat="44.12317981556046" lon="9.840404439885825"><ele>10.0</ele><time>2026-03-25T06:03:10.999Z</time></trkpt><trkpt lat="44.12319739883367" lon="9.840308709049275"><ele>10.0</ele><time>2026-03-25T06:03:15.999Z</time></trkpt><trkpt lat="44.123191029579736" lon="9.840219173802543"><ele>10.0</ele><time>2026-03-25T06:03:20.999Z</time></trkpt><trkpt lat="44.123180993139606" lon="9.840131470516267"><ele>10.0</ele><time>2026-03-25T06:03:26.999Z</time></trkpt><trkpt lat="44.123152582683566" lon="9.840049756007287"><ele>10.0</ele><time>2026-03-25T06:03:34.999Z</time></trkpt><trkpt lat="44.12315739138875" lon="9.839956970583602"><ele>10.0</ele><time>2026-03-25T06:03:45Z</time></trkpt><trkpt lat="44.123331383540936" lon="9.840159803643422"><ele>10.0</ele><time>2026-03-25T06:04:06Z</time></trkpt><trkpt lat="44.123392497957795" lon="9.840044534732748"><ele>10.0</ele><time>2026-03-25T06:04:18Z</time></trkpt><trkpt lat="44.12345664080251" lon="9.840063803582112"><ele>10.0</ele><time>2026-03-25T06:04:34Z</time></trkpt><trkpt lat="44.123458032677775" lon="9.840164616122076"><ele>10.0</ele><time>2026-03-25T06:37:31Z</time></trkpt><trkpt lat="44.12347959186763" lon="9.84025173906565"><ele>10.0</ele><time>2026-03-25T06:37:36Z</time></trkpt><trkpt lat="44.12351622162051" lon="9.840362789412705"><ele>10.0</ele><time>2026-03-25T06:37:46Z</time></trkpt><trkpt lat="44.12354132607425" lon="9.840450495514624"><ele>10.0</ele><time>2026-03-25T06:37:49Z</time></trkpt><trkpt lat="44.12358617139633" lon="9.840388629760191"><ele>10.0</ele><time>2026-03-25T06:38:02Z</time></trkpt><trkpt lat="44.12359176179814" lon="9.840476225306903"><ele>10.0</ele><time>2026-03-25T06:38:27.999Z</time></trkpt><trkpt lat="44.12362019234482" lon="9.840563692121595"><ele>10.0</ele><time>2026-03-25T06:38:29.999Z</time></trkpt><trkpt lat="44.12365859804816" lon="9.840677736595739"><ele>10.0</ele><time>2026-03-25T06:38:31.999Z</time></trkpt><trkpt lat="44.123703493148895" lon="9.840815291860302"><ele>10.0</ele><time>2026-03-25T06:38:33.999Z</time></trkpt><trkpt lat="44.12374796557981" lon="9.840965776613917"><ele>10.0</ele><time>2026-03-25T06:38:35.999Z</time></trkpt><trkpt lat="44.12377151125282" lon="9.841058844859026"><ele>10.0</ele><time>2026-03-25T06:38:36.999Z</time></trkpt><trkpt lat="44.12380711414305" lon="9.841222553311932"><ele>10.0</ele><time>2026-03-25T06:38:38.999Z</time></trkpt><trkpt lat="44.12383124852198" lon="9.84131699866325"><ele>10.0</ele><time>2026-03-25T06:38:39.999Z</time></trkpt><trkpt lat="44.12384927766422" lon="9.841405620294463"><ele>10.0</ele><time>2026-03-25T06:38:40.999Z</time></trkpt><trkpt lat="44.12387262669224" lon="9.84150240260721"><ele>10.0</ele><time>2026-03-25T06:38:41.999Z</time></trkpt><trkpt lat="44.12388801724522" lon="9.841600804873023"><ele>10.0</ele><time>2026-03-25T06:38:42.999Z</time></trkpt><trkpt lat="44.12391504649748" lon="9.841721106291413"><ele>10.0</ele><time>2026-03-25T06:38:43.999Z</time></trkpt><trkpt lat="44.12392685398207" lon="9.841843858357773"><ele>10.0</ele><time>2026-03-25T06:38:44.999Z</time></trkpt><trkpt lat="44.12396492305897" lon="9.841967389942559"><ele>10.0</ele><time>2026-03-25T06:38:45.998Z</time></trkpt><trkpt lat="44.12399457240359" lon="9.84209677026946"><ele>10.0</ele><time>2026-03-25T06:38:46.998Z</time></trkpt><trkpt lat="44.12403399983754" lon="9.842246760768782"><ele>10.2</ele><time>2026-03-25T06:38:47.998Z</time></trkpt><trkpt lat="44.1240491119547" lon="9.842400807987584"><ele>10.4</ele><time>2026-03-25T06:38:48.998Z</time></trkpt><trkpt lat="44.12406727135742" lon="9.84255390551673"><ele>10.600000000000001</ele><time>2026-03-25T06:38:49.998Z</time></trkpt><trkpt lat="44.12408086571798" lon="9.842700103447445"><ele>10.8</ele><time>2026-03-25T06:38:50.998Z</time></trkpt><trkpt lat="44.124114870677914" lon="9.842859117974683"><ele>11.0</ele><time>2026-03-25T06:38:51.998Z</time></trkpt><trkpt lat="44.12413514864685" lon="9.843037277547454"><ele>11.5</ele><time>2026-03-25T06:38:52.998Z</time></trkpt><trkpt lat="44.124152765525025" lon="9.843220120511457"><ele>12.0</ele><time>2026-03-25T06:38:53.998Z</time></trkpt><trkpt lat="44.124163495898316" lon="9.843405331297227"><ele>12.5</ele><time>2026-03-25T06:38:54.998Z</time></trkpt><trkpt lat="44.12417752375835" lon="9.84358590075093"><ele>13.0</ele><time>2026-03-25T06:38:55.998Z</time></trkpt><trkpt lat="44.12419106235464" lon="9.843774670744533"><ele>13.25</ele><time>2026-03-25T06:38:56.998Z</time></trkpt><trkpt lat="44.124203991858856" lon="9.843967949766274"><ele>13.5</ele><time>2026-03-25T06:38:57.998Z</time></trkpt><trkpt lat="44.12421184821058" lon="9.844163885970481"><ele>13.75</ele><time>2026-03-25T06:38:58.998Z</time></trkpt><trkpt lat="44.1242171709379" lon="9.844357812717366"><ele>14.0</ele><time>2026-03-25T06:38:59.998Z</time></trkpt><trkpt lat="44.12422957315536" lon="9.844562804988184"><ele>14.5</ele><time>2026-03-25T06:39:00.998Z</time></trkpt><trkpt lat="44.124217564391046" lon="9.844760941844948"><ele>15.0</ele><time>2026-03-25T06:39:01.998Z</time></trkpt><trkpt lat="44.12421184669874" lon="9.84495513692839"><ele>15.5</ele><time>2026-03-25T06:39:02.998Z</time></trkpt><trkpt lat="44.124215288351856" lon="9.84515393997839"><ele>16.0</ele><time>2026-03-25T06:39:03.998Z</time></trkpt><trkpt lat="44.12421610218113" lon="9.845354182145185"><ele>16.0</ele><time>2026-03-25T06:39:04.998Z</time></trkpt><trkpt lat="44.124209571868604" lon="9.84555995192766"><ele>16.0</ele><time>2026-03-25T06:39:05.998Z</time></trkpt><trkpt lat="44.12419421278863" lon="9.84577136786755"><ele>16.0</ele><time>2026-03-25T06:39:06.998Z</time></trkpt><trkpt lat="44.12417981774042" lon="9.845977065496202"><ele>16.0</ele><time>2026-03-25T06:39:07.998Z</time></trkpt><trkpt lat="44.124151099814235" lon="9.846188404556987"><ele>16.0</ele><time>2026-03-25T06:39:08.998Z</time></trkpt><trkpt lat="44.12412652412264" lon="9.84639227968499"><ele>16.0</ele><time>2026-03-25T06:39:09.998Z</time></trkpt><trkpt lat="44.124097906729816" lon="9.846593928898653"><ele>16.0</ele><time>2026-03-25T06:39:10.998Z</time></trkpt><trkpt lat="44.12406475096957" lon="9.846795138589918"><ele>16.0</ele><time>2026-03-25T06:39:11.998Z</time></trkpt><trkpt lat="44.124027418027175" lon="9.84700003026284"><ele>16.333333333333332</ele><time>2026-03-25T06:39:12.998Z</time></trkpt><trkpt lat="44.12398732515871" lon="9.84720547894079"><ele>16.666666666666668</ele><time>2026-03-25T06:39:13.998Z</time></trkpt><trkpt lat="44.12395319800079" lon="9.847414960732157"><ele>17.0</ele><time>2026-03-25T06:39:14.998Z</time></trkpt><trkpt lat="44.12391380463299" lon="9.847624732632264"><ele>16.666666666666668</ele><time>2026-03-25T06:39:15.998Z</time></trkpt><trkpt lat="44.1238678951335" lon="9.847835554191132"><ele>16.333333333333332</ele><time>2026-03-25T06:39:16.998Z</time></trkpt><trkpt lat="44.123825547798134" lon="9.848048272576214"><ele>16.0</ele><time>2026-03-25T06:39:17.998Z</time></trkpt><trkpt lat="44.12377391458517" lon="9.848255562499135"><ele>15.666666666666666</ele><time>2026-03-25T06:39:18.998Z</time></trkpt><trkpt lat="44.123721885478886" lon="9.848460959745303"><ele>15.333333333333332</ele><time>2026-03-25T06:39:19.998Z</time></trkpt><trkpt lat="44.12366213770511" lon="9.848667497957956"><ele>15.0</ele><time>2026-03-25T06:39:20.998Z</time></trkpt><trkpt lat="44.12359729896697" lon="9.84886414524115"><ele>15.0</ele><time>2026-03-25T06:39:22Z</time></trkpt><trkpt lat="44.12353626968219" lon="9.849065851404543"><ele>15.0</ele><time>2026-03-25T06:39:23Z</time></trkpt><trkpt lat="44.12346761994055" lon="9.849265625451103"><ele>15.0</ele><time>2026-03-25T06:39:24Z</time></trkpt><trkpt lat="44.1234015513616" lon="9.849460955938682"><ele>15.0</ele><time>2026-03-25T06:39:25Z</time></trkpt><trkpt lat="44.12332482857739" lon="9.849655132534643"><ele>15.0</ele><time>2026-03-25T06:39:26Z</time></trkpt><trkpt lat="44.123250897337115" lon="9.849846603224972"><ele>15.0</ele><time>2026-03-25T06:39:27Z</time></trkpt><trkpt lat="44.1231734319534" lon="9.850036583201693"><ele>14.666666666666668</ele><time>2026-03-25T06:39:28Z</time></trkpt><trkpt lat="44.12309227251232" lon="9.850223709891635"><ele>14.333333333333334</ele><time>2026-03-25T06:39:29Z</time></trkpt><trkpt lat="44.12300539036153" lon="9.8504098911719"><ele>14.0</ele><time>2026-03-25T06:39:30Z</time></trkpt><trkpt lat="44.12291809058979" lon="9.850595583440079"><ele>14.0</ele><time>2026-03-25T06:39:31Z</time></trkpt><trkpt lat="44.122836456649935" lon="9.850785708489662"><ele>14.0</ele><time>2026-03-25T06:39:32Z</time></trkpt><trkpt lat="44.12274864516353" lon="9.850970465969851"><ele>14.0</ele><time>2026-03-25T06:39:33Z</time></trkpt><trkpt lat="44.122657738545556" lon="9.8511549296369"><ele>14.333333333333334</ele><time>2026-03-25T06:39:34Z</time></trkpt><trkpt lat="44.12256438279692" lon="9.851339772125925"><ele>14.666666666666668</ele><time>2026-03-25T06:39:35Z</time></trkpt><trkpt lat="44.122468710325904" lon="9.851518207288194"><ele>15.0</ele><time>2026-03-25T06:39:36Z</time></trkpt><trkpt lat="44.12236745427847" lon="9.851693811720859"><ele>14.333333333333332</ele><time>2026-03-25T06:39:37Z</time></trkpt><trkpt lat="44.12226098496619" lon="9.851867798019917"><ele>13.666666666666666</ele><time>2026-03-25T06:39:38Z</time></trkpt><trkpt lat="44.12215512817509" lon="9.852031266195933"><ele>13.0</ele><time>2026-03-25T06:39:39Z</time></trkpt><trkpt lat="44.122049829914" lon="9.852183484050196"><ele>13.0</ele><time>2026-03-25T06:39:39.999Z</time></trkpt><trkpt lat="44.12193604849611" lon="9.852323392350728"><ele>13.0</ele><time>2026-03-25T06:39:40.999Z</time></trkpt><trkpt lat="44.121813240115365" lon="9.852466292085094"><ele>13.0</ele><time>2026-03-25T06:39:41.999Z</time></trkpt><trkpt lat="44.12170681124288" lon="9.852590040849345"><ele>12.75</ele><time>2026-03-25T06:39:42.999Z</time></trkpt><trkpt lat="44.121597416632184" lon="9.852714890707453"><ele>12.5</ele><time>2026-03-25T06:39:43.999Z</time></trkpt><trkpt lat="44.12148305614279" lon="9.852834631353453"><ele>12.25</ele><time>2026-03-25T06:39:44.999Z</time></trkpt><trkpt lat="44.121368074720976" lon="9.852950045168704"><ele>12.0</ele><time>2026-03-25T06:39:45.999Z</time></trkpt><trkpt lat="44.12124615088563" lon="9.853050245112916"><ele>12.0</ele><time>2026-03-25T06:39:46.999Z</time></trkpt><trkpt lat="44.121133495998194" lon="9.853155588974468"><ele>12.0</ele><time>2026-03-25T06:39:47.999Z</time></trkpt><trkpt lat="44.12101678472342" lon="9.85325363485638"><ele>12.0</ele><time>2026-03-25T06:39:48.999Z</time></trkpt><trkpt lat="44.12090072504028" lon="9.853349957093018"><ele>12.0</ele><time>2026-03-25T06:39:49.999Z</time></trkpt><trkpt lat="44.12078725017364" lon="9.853442163706571"><ele>13.0</ele><time>2026-03-25T06:39:50.999Z</time></trkpt><trkpt lat="44.12067791671486" lon="9.853533728836105"><ele>14.0</ele><time>2026-03-25T06:39:51.999Z</time></trkpt><trkpt lat="44.12056839740526" lon="9.853621457442287"><ele>15.0</ele><time>2026-03-25T06:39:52.999Z</time></trkpt><trkpt lat="44.120462988816094" lon="9.85370719142257"><ele>16.0</ele><time>2026-03-25T06:39:53.999Z</time></trkpt><trkpt lat="44.120362372642425" lon="9.853789800189086"><ele>16.0</ele><time>2026-03-25T06:39:54.999Z</time></trkpt><trkpt lat="44.120266660392495" lon="9.853871108044135"><ele>16.0</ele><time>2026-03-25T06:39:55.999Z</time></trkpt><trkpt lat="44.120174121865325" lon="9.853947960155198"><ele>16.0</ele><time>2026-03-25T06:39:56.999Z</time></trkpt><trkpt lat="44.120086292579614" lon="9.854025759299784"><ele>16.0</ele><time>2026-03-25T06:39:57.999Z</time></trkpt><trkpt lat="44.120001094959356" lon="9.854101400629988"><ele>16.0</ele><time>2026-03-25T06:39:58.999Z</time></trkpt><trkpt lat="44.11991810895978" lon="9.85417823732901"><ele>16.400000000000002</ele><time>2026-03-25T06:39:59.999Z</time></trkpt><trkpt lat="44.119837187029624" lon="9.85425586140417"><ele>16.8</ele><time>2026-03-25T06:40:00.999Z</time></trkpt><trkpt lat="44.11975676208813" lon="9.854332913038325"><ele>17.200000000000003</ele><time>2026-03-25T06:40:01.999Z</time></trkpt><trkpt lat="44.11967869389148" lon="9.854411992382026"><ele>17.6</ele><time>2026-03-25T06:40:02.999Z</time></trkpt><trkpt lat="44.11960279562488" lon="9.854491782116673"><ele>18.0</ele><time>2026-03-25T06:40:03.999Z</time></trkpt><trkpt lat="44.11952756621339" lon="9.85457584437605"><ele>18.0</ele><time>2026-03-25T06:40:04.999Z</time></trkpt><trkpt lat="44.11945537836064" lon="9.854658472421816"><ele>18.0</ele><time>2026-03-25T06:40:05.999Z</time></trkpt><trkpt lat="44.11938537097381" lon="9.854741194692089"><ele>18.0</ele><time>2026-03-25T06:40:06.999Z</time></trkpt><trkpt lat="44.11931269625914" lon="9.854828128686247"><ele>18.0</ele><time>2026-03-25T06:40:07.999Z</time></trkpt><trkpt lat="44.11923719639656" lon="9.85492293535604"><ele>18.0</ele><time>2026-03-25T06:40:08.999Z</time></trkpt><trkpt lat="44.119165340312634" lon="9.855014406170332"><ele>18.0</ele><time>2026-03-25T06:40:09.999Z</time></trkpt><trkpt lat="44.1191045158249" lon="9.855112014597921"><ele>18.0</ele><time>2026-03-25T06:40:10.999Z</time></trkpt><trkpt lat="44.11903807903181" lon="9.855216705912206"><ele>18.0</ele><time>2026-03-25T06:40:11.999Z</time></trkpt><trkpt lat="44.11896886019332" lon="9.855322924874832"><ele>18.0</ele><time>2026-03-25T06:40:12.999Z</time></trkpt><trkpt lat="44.118899709966975" lon="9.855431770915978"><ele>18.0</ele><time>2026-03-25T06:40:13.999Z</time></trkpt><trkpt lat="44.11883163300585" lon="9.855542841599114"><ele>17.2</ele><time>2026-03-25T06:40:14.999Z</time></trkpt><trkpt lat="44.118766913666306" lon="9.85565467058525"><ele>16.4</ele><time>2026-03-25T06:40:15.999Z</time></trkpt><trkpt lat="44.11870357955223" lon="9.855774099192223"><ele>15.599999999999998</ele><time>2026-03-25T06:40:16.999Z</time></trkpt><trkpt lat="44.11864017599167" lon="9.855891307977108"><ele>14.799999999999999</ele><time>2026-03-25T06:40:17.999Z</time></trkpt><trkpt lat="44.118577641874474" lon="9.856009958835951"><ele>14.0</ele><time>2026-03-25T06:40:18.999Z</time></trkpt><trkpt lat="44.118520619592225" lon="9.856128168865935"><ele>14.0</ele><time>2026-03-25T06:40:19.999Z</time></trkpt><trkpt lat="44.11846703865168" lon="9.856248842327133"><ele>13.999999999999998</ele><time>2026-03-25T06:40:20.999Z</time></trkpt><trkpt lat="44.118412522077286" lon="9.856371076802393"><ele>13.999999999999998</ele><time>2026-03-25T06:40:21.999Z</time></trkpt><trkpt lat="44.11836170925494" lon="9.856495072718655"><ele>14.0</ele><time>2026-03-25T06:40:22.999Z</time></trkpt><trkpt lat="44.11831366358437" lon="9.856616930737257"><ele>14.0</ele><time>2026-03-25T06:40:23.999Z</time></trkpt><trkpt lat="44.118268223016706" lon="9.856739709431938"><ele>14.799999999999999</ele><time>2026-03-25T06:40:24.999Z</time></trkpt><trkpt lat="44.11822355336802" lon="9.856862666615152"><ele>15.599999999999998</ele><time>2026-03-25T06:40:25.999Z</time></trkpt><trkpt lat="44.118179527357576" lon="9.856985476817556"><ele>16.4</ele><time>2026-03-25T06:40:26.999Z</time></trkpt><trkpt lat="44.118139330812355" lon="9.857110902910843"><ele>17.2</ele><time>2026-03-25T06:40:27.999Z</time></trkpt><trkpt lat="44.118103019361975" lon="9.857230726191123"><ele>18.0</ele><time>2026-03-25T06:40:28.999Z</time></trkpt><trkpt lat="44.11806472442966" lon="9.857353342301346"><ele>18.0</ele><time>2026-03-25T06:40:29.999Z</time></trkpt><trkpt lat="44.11802824273481" lon="9.857477268009156"><ele>18.0</ele><time>2026-03-25T06:40:30.999Z</time></trkpt><trkpt lat="44.11799199820157" lon="9.857599219016251"><ele>18.0</ele><time>2026-03-25T06:40:31.999Z</time></trkpt><trkpt lat="44.11795705590414" lon="9.857722907335516"><ele>18.0</ele><time>2026-03-25T06:40:32.999Z</time></trkpt><trkpt lat="44.117925607385374" lon="9.857846848556202"><ele>18.0</ele><time>2026-03-25T06:40:33.999Z</time></trkpt><trkpt lat="44.11789803478925" lon="9.857971584042792"><ele>18.2</ele><time>2026-03-25T06:40:34.999Z</time></trkpt><trkpt lat="44.11786910850426" lon="9.858101266688964"><ele>18.4</ele><time>2026-03-25T06:40:35.999Z</time></trkpt><trkpt lat="44.11784092216265" lon="9.858235631601605"><ele>18.599999999999998</ele><time>2026-03-25T06:40:36.999Z</time></trkpt><trkpt lat="44.117816348135406" lon="9.85837099928014"><ele>18.8</ele><time>2026-03-25T06:40:37.999Z</time></trkpt><trkpt lat="44.11779135597954" lon="9.858509655496482"><ele>19.0</ele><time>2026-03-25T06:40:38.999Z</time></trkpt><trkpt lat="44.117769122024754" lon="9.85864728358973"><ele>19.0</ele><time>2026-03-25T06:40:39.999Z</time></trkpt><trkpt lat="44.117749927819894" lon="9.85878777879551"><ele>19.0</ele><time>2026-03-25T06:40:40.999Z</time></trkpt><trkpt lat="44.11773017308148" lon="9.858933443430246"><ele>19.0</ele><time>2026-03-25T06:40:41.999Z</time></trkpt><trkpt lat="44.117715622457844" lon="9.859075474908128"><ele>19.0</ele><time>2026-03-25T06:40:42.999Z</time></trkpt><trkpt lat="44.11770127229273" lon="9.859224778284592"><ele>19.0</ele><time>2026-03-25T06:40:43.999Z</time></trkpt><trkpt lat="44.117693804218234" lon="9.859367523761133"><ele>19.2</ele><time>2026-03-25T06:40:44.999Z</time></trkpt><trkpt lat="44.11767867777402" lon="9.859514704410175"><ele>19.4</ele><time>2026-03-25T06:40:45.999Z</time></trkpt><trkpt lat="44.11766681483218" lon="9.859654353896326"><ele>19.6</ele><time>2026-03-25T06:40:46.999Z</time></trkpt><trkpt lat="44.1176563111281" lon="9.859803386479626"><ele>19.8</ele><time>2026-03-25T06:40:47.999Z</time></trkpt><trkpt lat="44.11765790701158" lon="9.859944330611574"><ele>20.0</ele><time>2026-03-25T06:40:48.999Z</time></trkpt><trkpt lat="44.117655018890254" lon="9.860079679446851"><ele>20.0</ele><time>2026-03-25T06:40:49.999Z</time></trkpt><trkpt lat="44.11765324316257" lon="9.860219464620336"><ele>20.0</ele><time>2026-03-25T06:40:50.999Z</time></trkpt><trkpt lat="44.117656564106255" lon="9.860360499736004"><ele>20.0</ele><time>2026-03-25T06:40:51.999Z</time></trkpt><trkpt lat="44.11766143761387" lon="9.860503652137634"><ele>20.0</ele><time>2026-03-25T06:40:52.999Z</time></trkpt><trkpt lat="44.11766784589329" lon="9.860651554524702"><ele>20.0</ele><time>2026-03-25T06:40:53.999Z</time></trkpt><trkpt lat="44.117672091267" lon="9.86079719054331"><ele>20.0</ele><time>2026-03-25T06:40:54.999Z</time></trkpt><trkpt lat="44.11767938526211" lon="9.860944001594923"><ele>20.0</ele><time>2026-03-25T06:40:55.999Z</time></trkpt><trkpt lat="44.11769198351509" lon="9.861083980328242"><ele>20.0</ele><time>2026-03-25T06:40:56.999Z</time></trkpt><trkpt lat="44.117702241929656" lon="9.861224172171712"><ele>20.0</ele><time>2026-03-25T06:40:57.999Z</time></trkpt><trkpt lat="44.117717365053856" lon="9.861368982452673"><ele>20.0</ele><time>2026-03-25T06:40:58.999Z</time></trkpt><trkpt lat="44.117735580104714" lon="9.861503895219725"><ele>19.6</ele><time>2026-03-25T06:40:59.999Z</time></trkpt><trkpt lat="44.1177565829314" lon="9.861638171343856"><ele>19.2</ele><time>2026-03-25T06:41:00.998Z</time></trkpt><trkpt lat="44.117778896768904" lon="9.86176884140141"><ele>18.8</ele><time>2026-03-25T06:41:01.998Z</time></trkpt><trkpt lat="44.11780407624178" lon="9.86190062027213"><ele>18.4</ele><time>2026-03-25T06:41:02.998Z</time></trkpt><trkpt lat="44.11782447778378" lon="9.862020680359187"><ele>18.0</ele><time>2026-03-25T06:41:03.998Z</time></trkpt><trkpt lat="44.117843764754845" lon="9.862140464397102"><ele>17.6</ele><time>2026-03-25T06:41:04.998Z</time></trkpt><trkpt lat="44.117875333351584" lon="9.862264879021437"><ele>17.200000000000003</ele><time>2026-03-25T06:41:05.998Z</time></trkpt><trkpt lat="44.1179031820505" lon="9.862388778246107"><ele>16.8</ele><time>2026-03-25T06:41:06.998Z</time></trkpt><trkpt lat="44.11793120820388" lon="9.862508300000464"><ele>16.400000000000002</ele><time>2026-03-25T06:41:07.998Z</time></trkpt><trkpt lat="44.11795810502507" lon="9.862622827194636"><ele>16.0</ele><time>2026-03-25T06:41:08.998Z</time></trkpt><trkpt lat="44.11798713993908" lon="9.862734906883023"><ele>16.666666666666664</ele><time>2026-03-25T06:41:09.998Z</time></trkpt><trkpt lat="44.11801816913277" lon="9.862845926532199"><ele>17.333333333333332</ele><time>2026-03-25T06:41:10.998Z</time></trkpt><trkpt lat="44.118046054973064" lon="9.862948222829148"><ele>18.0</ele><time>2026-03-25T06:41:11.998Z</time></trkpt><trkpt lat="44.11807115231158" lon="9.863054787492178"><ele>18.666666666666668</ele><time>2026-03-25T06:41:12.998Z</time></trkpt><trkpt lat="44.1181029513698" lon="9.863157681159636"><ele>19.333333333333336</ele><time>2026-03-25T06:41:13.998Z</time></trkpt><trkpt lat="44.11813108736084" lon="9.863262403396748"><ele>20.0</ele><time>2026-03-25T06:41:14.998Z</time></trkpt><trkpt lat="44.118156093568466" lon="9.863355857710939"><ele>19.833333333333336</ele><time>2026-03-25T06:41:15.998Z</time></trkpt><trkpt lat="44.11818488331886" lon="9.863451298871258"><ele>19.666666666666668</ele><time>2026-03-25T06:41:16.998Z</time></trkpt><trkpt lat="44.11823089587152" lon="9.863614048084145"><ele>19.5</ele><time>2026-03-25T06:41:18.998Z</time></trkpt><trkpt lat="44.11825654890155" lon="9.863694137502707"><ele>19.333333333333332</ele><time>2026-03-25T06:41:19.998Z</time></trkpt><trkpt lat="44.118282832557036" lon="9.863777032292155"><ele>19.166666666666664</ele><time>2026-03-25T06:41:20.998Z</time></trkpt><trkpt lat="44.11833006607284" lon="9.863925908845165"><ele>19.0</ele><time>2026-03-25T06:41:22.998Z</time></trkpt><trkpt lat="44.11837137112787" lon="9.864059558850046"><ele>19.0</ele><time>2026-03-25T06:41:24.998Z</time></trkpt><trkpt lat="44.118414826990914" lon="9.864193863720143"><ele>19.0</ele><time>2026-03-25T06:41:26.998Z</time></trkpt><trkpt lat="44.11845226091273" lon="9.864325039448813"><ele>19.0</ele><time>2026-03-25T06:41:29Z</time></trkpt><trkpt lat="44.11848791138894" lon="9.864436725008282"><ele>19.0</ele><time>2026-03-25T06:41:31Z</time></trkpt><trkpt lat="44.118517138472995" lon="9.864535070886973"><ele>19.0</ele><time>2026-03-25T06:41:33Z</time></trkpt><trkpt lat="44.11855019133281" lon="9.86464438338572"><ele>19.0</ele><time>2026-03-25T06:41:36Z</time></trkpt><trkpt lat="44.11860267351994" lon="9.86487720781516"><ele>19.0</ele><time>2026-03-25T06:42:19.999Z</time></trkpt><trkpt lat="44.11863666148461" lon="9.8649995998178"><ele>19.0</ele><time>2026-03-25T06:42:21.999Z</time></trkpt><trkpt lat="44.1186768383327" lon="9.865151854746106"><ele>19.0</ele><time>2026-03-25T06:42:23.999Z</time></trkpt><trkpt lat="44.11869944380565" lon="9.865238462943665"><ele>18.166666666666664</ele><time>2026-03-25T06:42:24.999Z</time></trkpt><trkpt lat="44.1187220094192" lon="9.865333596948107"><ele>17.333333333333332</ele><time>2026-03-25T06:42:25.999Z</time></trkpt><trkpt lat="44.118749102098725" lon="9.865436413496687"><ele>16.5</ele><time>2026-03-25T06:42:26.999Z</time></trkpt><trkpt lat="44.118775647510994" lon="9.865547715216016"><ele>15.666666666666668</ele><time>2026-03-25T06:42:27.999Z</time></trkpt><trkpt lat="44.11880492403563" lon="9.86566701711815"><ele>14.833333333333334</ele><time>2026-03-25T06:42:28.999Z</time></trkpt><trkpt lat="44.11883452905041" lon="9.865796207838871"><ele>14.0</ele><time>2026-03-25T06:42:29.999Z</time></trkpt><trkpt lat="44.118865306080224" lon="9.865933577433864"><ele>14.25</ele><time>2026-03-25T06:42:30.999Z</time></trkpt><trkpt lat="44.11889492935499" lon="9.866079265503169"><ele>14.5</ele><time>2026-03-25T06:42:31.999Z</time></trkpt><trkpt lat="44.118927383481044" lon="9.86623091673183"><ele>14.75</ele><time>2026-03-25T06:42:32.999Z</time></trkpt><trkpt lat="44.118956944688804" lon="9.866391380470088"><ele>15.0</ele><time>2026-03-25T06:42:33.999Z</time></trkpt><trkpt lat="44.11898922306707" lon="9.866561114427553"><ele>15.0</ele><time>2026-03-25T06:42:34.999Z</time></trkpt><trkpt lat="44.1190218933314" lon="9.866739922890252"><ele>15.0</ele><time>2026-03-25T06:42:35.999Z</time></trkpt><trkpt lat="44.11905184626293" lon="9.866918659073093"><ele>15.0</ele><time>2026-03-25T06:42:36.999Z</time></trkpt><trkpt lat="44.11908214565726" lon="9.867106372627907"><ele>15.0</ele><time>2026-03-25T06:42:37.999Z</time></trkpt><trkpt lat="44.11910528196665" lon="9.867305236656795"><ele>16.666666666666668</ele><time>2026-03-25T06:42:38.999Z</time></trkpt><trkpt lat="44.119129009301815" lon="9.867514335051935"><ele>18.333333333333336</ele><time>2026-03-25T06:42:39.999Z</time></trkpt><trkpt lat="44.119158300607424" lon="9.867721651766061"><ele>20.0</ele><time>2026-03-25T06:42:40.999Z</time></trkpt><trkpt lat="44.11918406725749" lon="9.867938074085895"><ele>21.666666666666668</ele><time>2026-03-25T06:42:41.999Z</time></trkpt><trkpt lat="44.11920459019832" lon="9.868163250595147"><ele>23.333333333333336</ele><time>2026-03-25T06:42:42.999Z</time></trkpt><trkpt lat="44.119232673294704" lon="9.868382267918493"><ele>25.0</ele><time>2026-03-25T06:42:43.999Z</time></trkpt><trkpt lat="44.11926214594181" lon="9.868624137465247"><ele>28.333333333333336</ele><time>2026-03-25T06:42:44.999Z</time></trkpt><trkpt lat="44.119304839050486" lon="9.86885508172887"><ele>31.666666666666664</ele><time>2026-03-25T06:42:45.999Z</time></trkpt><trkpt lat="44.11930972295392" lon="9.869124688969144"><ele>35.0</ele><time>2026-03-25T06:42:46.999Z</time></trkpt><trkpt lat="44.11934782940457" lon="9.869392055134705"><ele>36.0</ele><time>2026-03-25T06:42:47.999Z</time></trkpt><trkpt lat="44.119378209915595" lon="9.869610095867769"><ele>37.0</ele><time>2026-03-25T06:42:48.999Z</time></trkpt><trkpt lat="44.119417680825926" lon="9.869849747148988"><ele>38.0</ele><time>2026-03-25T06:42:49.999Z</time></trkpt><trkpt lat="44.11945449695562" lon="9.870096312048448"><ele>38.33333333333333</ele><time>2026-03-25T06:42:50.999Z</time></trkpt><trkpt lat="44.11948803259067" lon="9.870326990804775"><ele>38.666666666666664</ele><time>2026-03-25T06:42:51.999Z</time></trkpt><trkpt lat="44.11954194259504" lon="9.870596357539661"><ele>39.0</ele><time>2026-03-25T06:42:53.077Z</time></trkpt><trkpt lat="44.11959874903488" lon="9.870835254603325"><ele>34.0</ele><time>2026-03-25T06:42:54.072Z</time></trkpt><trkpt lat="44.11924671613593" lon="9.872214070988322"><ele>34.0</ele><time>2026-03-25T06:42:59.046Z</time></trkpt><trkpt lat="44.11910890640119" lon="9.872417965542768"><ele>34.0</ele><time>2026-03-25T06:42:59.999Z</time></trkpt><trkpt lat="44.11916917684856" lon="9.872664659895266"><ele>34.0</ele><time>2026-03-25T06:43:00.999Z</time></trkpt><trkpt lat="44.11917369679062" lon="9.872930068168644"><ele>35.333333333333336</ele><time>2026-03-25T06:43:01.999Z</time></trkpt><trkpt lat="44.119190600081765" lon="9.87317258978606"><ele>36.666666666666664</ele><time>2026-03-25T06:43:02.999Z</time></trkpt><trkpt lat="44.11915478630979" lon="9.873427947404199"><ele>38.0</ele><time>2026-03-25T06:43:03.999Z</time></trkpt><trkpt lat="44.119048208316244" lon="9.873698582122906"><ele>33.33333333333333</ele><time>2026-03-25T06:43:04.999Z</time></trkpt><trkpt lat="44.118949739024885" lon="9.873952504021421"><ele>28.666666666666664</ele><time>2026-03-25T06:43:05.999Z</time></trkpt><trkpt lat="44.118870482771705" lon="9.87422706814866"><ele>24.0</ele><time>2026-03-25T06:43:06.999Z</time></trkpt><trkpt lat="44.11881298656367" lon="9.874513968123871"><ele>24.0</ele><time>2026-03-25T06:43:07.998Z</time></trkpt><trkpt lat="44.11885633950414" lon="9.87481455343957"><ele>24.0</ele><time>2026-03-25T06:43:08.998Z</time></trkpt><trkpt lat="44.11875612861132" lon="9.875134112208173"><ele>24.0</ele><time>2026-03-25T06:43:09.998Z</time></trkpt><trkpt lat="44.11874318414077" lon="9.87543257992519"><ele>24.0</ele><time>2026-03-25T06:43:10.998Z</time></trkpt><trkpt lat="44.11872258005893" lon="9.875735918206631"><ele>24.0</ele><time>2026-03-25T06:43:11.998Z</time></trkpt><trkpt lat="44.11871091164802" lon="9.876040984231498"><ele>23.666666666666668</ele><time>2026-03-25T06:43:12.998Z</time></trkpt><trkpt lat="44.11868359333835" lon="9.876343768621968"><ele>23.333333333333336</ele><time>2026-03-25T06:43:13.998Z</time></trkpt><trkpt lat="44.118664188898656" lon="9.87664051543951"><ele>23.0</ele><time>2026-03-25T06:43:14.998Z</time></trkpt><trkpt lat="44.11865460110791" lon="9.876926217033073"><ele>23.0</ele><time>2026-03-25T06:43:15.998Z</time></trkpt><trkpt lat="44.11865221374264" lon="9.877220090652614"><ele>23.0</ele><time>2026-03-25T06:43:16.998Z</time></trkpt><trkpt lat="44.1186757065652" lon="9.87751355084683"><ele>23.0</ele><time>2026-03-25T06:43:17.998Z</time></trkpt><trkpt lat="44.11869911919856" lon="9.877804058347364"><ele>23.333333333333336</ele><time>2026-03-25T06:43:18.998Z</time></trkpt><trkpt lat="44.11872145183406" lon="9.878108466465628"><ele>23.666666666666668</ele><time>2026-03-25T06:43:19.998Z</time></trkpt><trkpt lat="44.118758475758085" lon="9.878388879839235"><ele>24.0</ele><time>2026-03-25T06:43:20.998Z</time></trkpt><trkpt lat="44.11880744140786" lon="9.878674561712645"><ele>25.333333333333336</ele><time>2026-03-25T06:43:21.998Z</time></trkpt><trkpt lat="44.11888176881843" lon="9.878944512865356"><ele>26.666666666666668</ele><time>2026-03-25T06:43:22.998Z</time></trkpt><trkpt lat="44.11896896621085" lon="9.879203399624906"><ele>28.0</ele><time>2026-03-25T06:43:23.998Z</time></trkpt><trkpt lat="44.11909333458242" lon="9.879418027296916"><ele>28.333333333333336</ele><time>2026-03-25T06:43:24.998Z</time></trkpt><trkpt lat="44.11919089862445" lon="9.879642903103711"><ele>28.666666666666664</ele><time>2026-03-25T06:43:25.998Z</time></trkpt><trkpt lat="44.11930020714592" lon="9.879858087214673"><ele>29.0</ele><time>2026-03-25T06:43:26.998Z</time></trkpt><trkpt lat="44.11941595955674" lon="9.880070462587252"><ele>30.0</ele><time>2026-03-25T06:43:27.998Z</time></trkpt><trkpt lat="44.11953731194445" lon="9.88026761092926"><ele>31.0</ele><time>2026-03-25T06:43:28.998Z</time></trkpt><trkpt lat="44.11966131422443" lon="9.880456642778844"><ele>32.0</ele><time>2026-03-25T06:43:29.998Z</time></trkpt><trkpt lat="44.11978356736758" lon="9.880636570506393"><ele>34.33333333333333</ele><time>2026-03-25T06:43:30.998Z</time></trkpt><trkpt lat="44.119906625042105" lon="9.880811811117402"><ele>36.666666666666664</ele><time>2026-03-25T06:43:31.998Z</time></trkpt><trkpt lat="44.12002465002762" lon="9.88100007942592"><ele>39.0</ele><time>2026-03-25T06:43:32.998Z</time></trkpt><trkpt lat="44.120167357942286" lon="9.881166453467658"><ele>41.666666666666664</ele><time>2026-03-25T06:43:34Z</time></trkpt><trkpt lat="44.12030345348003" lon="9.881349352505758"><ele>44.33333333333333</ele><time>2026-03-25T06:43:35Z</time></trkpt><trkpt lat="44.12044520229823" lon="9.8815324871663"><ele>47.0</ele><time>2026-03-25T06:43:36Z</time></trkpt><trkpt lat="44.120591176476026" lon="9.881716033754058"><ele>48.666666666666664</ele><time>2026-03-25T06:43:37Z</time></trkpt><trkpt lat="44.12075762955274" lon="9.881915836692121"><ele>50.33333333333333</ele><time>2026-03-25T06:43:38.081Z</time></trkpt><trkpt lat="44.12091791900712" lon="9.882105274829183"><ele>52.0</ele><time>2026-03-25T06:43:39.074Z</time></trkpt><trkpt lat="44.12108358023342" lon="9.882280630876261"><ele>52.0</ele><time>2026-03-25T06:43:40.07Z</time></trkpt><trkpt lat="44.12125533019613" lon="9.88246243116934"><ele>52.0</ele><time>2026-03-25T06:43:41.073Z</time></trkpt><trkpt lat="44.1214337275476" lon="9.882646430923094"><ele>52.0</ele><time>2026-03-25T06:43:42.07Z</time></trkpt><trkpt lat="44.12160942910506" lon="9.882824371616385"><ele>47.0</ele><time>2026-03-25T06:43:43.058Z</time></trkpt><trkpt lat="44.12233848539906" lon="9.883445808576276"><ele>45.5</ele><time>2026-03-25T06:43:46.919Z</time></trkpt><trkpt lat="44.12253544644977" lon="9.883587551244227"><ele>44.0</ele><time>2026-03-25T06:43:47.919Z</time></trkpt><trkpt lat="44.123720102805954" lon="9.884235692106628"><ele>43.75</ele><time>2026-03-25T06:44:00.999Z</time></trkpt><trkpt lat="44.12385600036365" lon="9.884309481603042"><ele>43.5</ele><time>2026-03-25T06:44:01.999Z</time></trkpt><trkpt lat="44.12399629377511" lon="9.884370727568037"><ele>43.25</ele><time>2026-03-25T06:44:02.999Z</time></trkpt><trkpt lat="44.1241319901876" lon="9.884449440416079"><ele>43.0</ele><time>2026-03-25T06:44:03.999Z</time></trkpt><trkpt lat="44.12423704505203" lon="9.88453179809749"><ele>43.0</ele><time>2026-03-25T06:44:04.999Z</time></trkpt><trkpt lat="44.12434466706555" lon="9.884600390889362"><ele>43.0</ele><time>2026-03-25T06:44:05.999Z</time></trkpt><trkpt lat="44.124431573953046" lon="9.884653432194211"><ele>43.0</ele><time>2026-03-25T06:44:06.999Z</time></trkpt><trkpt lat="44.12456216623435" lon="9.884770622758941"><ele>43.0</ele><time>2026-03-25T06:44:07.999Z</time></trkpt><trkpt lat="44.124677270869526" lon="9.884847051021184"><ele>43.0</ele><time>2026-03-25T06:44:08.999Z</time></trkpt><trkpt lat="44.12478914460722" lon="9.884923872336373"><ele>43.0</ele><time>2026-03-25T06:44:09.999Z</time></trkpt><trkpt lat="44.12490587365954" lon="9.885035445006617"><ele>43.0</ele><time>2026-03-25T06:44:10.999Z</time></trkpt><trkpt lat="44.12500261194641" lon="9.885134718749724"><ele>43.0</ele><time>2026-03-25T06:44:11.999Z</time></trkpt><trkpt lat="44.125102985980355" lon="9.88522713308391"><ele>42.5</ele><time>2026-03-25T06:44:12.999Z</time></trkpt><trkpt lat="44.1252072576095" lon="9.88534541501007"><ele>42.0</ele><time>2026-03-25T06:44:13.999Z</time></trkpt><trkpt lat="44.12529481067531" lon="9.885448242374657"><ele>41.5</ele><time>2026-03-25T06:44:14.999Z</time></trkpt><trkpt lat="44.12539896329569" lon="9.885572388494978"><ele>41.0</ele><time>2026-03-25T06:44:15.999Z</time></trkpt><trkpt lat="44.125509541043186" lon="9.885706700252019"><ele>41.0</ele><time>2026-03-25T06:44:16.999Z</time></trkpt><trkpt lat="44.125606904904984" lon="9.885832541361841"><ele>41.0</ele><time>2026-03-25T06:44:17.999Z</time></trkpt><trkpt lat="44.125693951307056" lon="9.885957127643513"><ele>41.0</ele><time>2026-03-25T06:44:18.999Z</time></trkpt><trkpt lat="44.12578077055377" lon="9.886079462053846"><ele>41.0</ele><time>2026-03-25T06:44:19.999Z</time></trkpt><trkpt lat="44.125858024941614" lon="9.886201557429569"><ele>38.5</ele><time>2026-03-25T06:44:20.999Z</time></trkpt><trkpt lat="44.1259402021349" lon="9.886322342478177"><ele>36.0</ele><time>2026-03-25T06:44:21.999Z</time></trkpt><trkpt lat="44.12601616060178" lon="9.886457681796257"><ele>33.5</ele><time>2026-03-25T06:44:22.999Z</time></trkpt><trkpt lat="44.1260827986895" lon="9.886595532797054"><ele>31.0</ele><time>2026-03-25T06:44:23.999Z</time></trkpt><trkpt lat="44.12614323431075" lon="9.886729310440483"><ele>31.4</ele><time>2026-03-25T06:44:24.999Z</time></trkpt><trkpt lat="44.12620144409111" lon="9.8868667079215"><ele>31.8</ele><time>2026-03-25T06:44:25.999Z</time></trkpt><trkpt lat="44.12625960218772" lon="9.887002903382559"><ele>32.199999999999996</ele><time>2026-03-25T06:44:26.999Z</time></trkpt><trkpt lat="44.12631553612386" lon="9.88713581513213"><ele>32.6</ele><time>2026-03-25T06:44:27.999Z</time></trkpt><trkpt lat="44.12637020104496" lon="9.887268486152374"><ele>33.0</ele><time>2026-03-25T06:44:28.999Z</time></trkpt><trkpt lat="44.126430583689235" lon="9.887410523167173"><ele>33.0</ele><time>2026-03-25T06:44:29.999Z</time></trkpt><trkpt lat="44.12649028849925" lon="9.88754254358133"><ele>33.0</ele><time>2026-03-25T06:44:30.999Z</time></trkpt><trkpt lat="44.12655180960343" lon="9.887675068748388"><ele>33.0</ele><time>2026-03-25T06:44:31.999Z</time></trkpt><trkpt lat="44.12661017008307" lon="9.887803979142495"><ele>33.0</ele><time>2026-03-25T06:44:32.999Z</time></trkpt><trkpt lat="44.126666275381886" lon="9.887921246735127"><ele>33.0</ele><time>2026-03-25T06:44:33.999Z</time></trkpt><trkpt lat="44.12671663347109" lon="9.888045200273002"><ele>32.4</ele><time>2026-03-25T06:44:34.999Z</time></trkpt><trkpt lat="44.1267668909003" lon="9.88816542897235"><ele>31.799999999999997</ele><time>2026-03-25T06:44:35.999Z</time></trkpt><trkpt lat="44.12682200217377" lon="9.888289905242315"><ele>31.2</ele><time>2026-03-25T06:44:36.999Z</time></trkpt><trkpt lat="44.12687985986913" lon="9.888406699546646"><ele>30.6</ele><time>2026-03-25T06:44:37.999Z</time></trkpt><trkpt lat="44.12692734511585" lon="9.888520494602858"><ele>30.0</ele><time>2026-03-25T06:44:38.999Z</time></trkpt><trkpt lat="44.1269793678165" lon="9.888642669034825"><ele>29.4</ele><time>2026-03-25T06:44:39.999Z</time></trkpt><trkpt lat="44.127028536762694" lon="9.888758127547458"><ele>28.8</ele><time>2026-03-25T06:44:40.999Z</time></trkpt><trkpt lat="44.12707756101476" lon="9.88887064751106"><ele>28.200000000000003</ele><time>2026-03-25T06:44:41.999Z</time></trkpt><trkpt lat="44.12712758661642" lon="9.888983468981387"><ele>27.6</ele><time>2026-03-25T06:44:42.999Z</time></trkpt><trkpt lat="44.12716831151975" lon="9.889093753503984"><ele>27.0</ele><time>2026-03-25T06:44:43.999Z</time></trkpt><trkpt lat="44.127210656866204" lon="9.88919728958109"><ele>27.0</ele><time>2026-03-25T06:44:44.999Z</time></trkpt><trkpt lat="44.127248031632675" lon="9.889289327469521"><ele>27.0</ele><time>2026-03-25T06:44:45.999Z</time></trkpt><trkpt lat="44.12729292742368" lon="9.88938380880018"><ele>27.0</ele><time>2026-03-25T06:44:46.999Z</time></trkpt><trkpt lat="44.127333421188986" lon="9.88946972022671"><ele>27.0</ele><time>2026-03-25T06:44:47.999Z</time></trkpt><trkpt lat="44.12737840010767" lon="9.889554021526507"><ele>27.0</ele><time>2026-03-25T06:44:48.999Z</time></trkpt><trkpt lat="44.12740764293923" lon="9.889644568184082"><ele>27.0</ele><time>2026-03-25T06:44:49.999Z</time></trkpt><trkpt lat="44.12743993644313" lon="9.88972281978693"><ele>27.0</ele><time>2026-03-25T06:44:50.999Z</time></trkpt><trkpt lat="44.12747816114897" lon="9.889861134791344"><ele>27.0</ele><time>2026-03-25T06:44:52.999Z</time></trkpt><trkpt lat="44.12748801349753" lon="9.8899501308803"><ele>27.0</ele><time>2026-03-25T06:44:54.999Z</time></trkpt><trkpt lat="44.127495286392" lon="9.890044843806795"><ele>27.0</ele><time>2026-03-25T06:45:02.999Z</time></trkpt><trkpt lat="44.12753290696453" lon="9.890166938003167"><ele>27.0</ele><time>2026-03-25T06:45:36.998Z</time></trkpt><trkpt lat="44.127574323746956" lon="9.890267779308713"><ele>27.0</ele><time>2026-03-25T06:45:38.998Z</time></trkpt><trkpt lat="44.12763264944079" lon="9.890398705702548"><ele>27.0</ele><time>2026-03-25T06:45:40.999Z</time></trkpt><trkpt lat="44.12767028414412" lon="9.89048128719917"><ele>27.0</ele><time>2026-03-25T06:45:41.999Z</time></trkpt><trkpt lat="44.12771309007973" lon="9.890562384243408"><ele>27.0</ele><time>2026-03-25T06:45:42.999Z</time></trkpt><trkpt lat="44.1277591587977" lon="9.890663464559895"><ele>27.0</ele><time>2026-03-25T06:45:43.999Z</time></trkpt><trkpt lat="44.12780824743352" lon="9.890773543422453"><ele>27.0</ele><time>2026-03-25T06:45:44.999Z</time></trkpt><trkpt lat="44.12786039157226" lon="9.890880070700002"><ele>27.0</ele><time>2026-03-25T06:45:45.999Z</time></trkpt><trkpt lat="44.12792157557919" lon="9.890994041853917"><ele>27.0</ele><time>2026-03-25T06:45:46.999Z</time></trkpt><trkpt lat="44.12798553992536" lon="9.891121658444206"><ele>26.5</ele><time>2026-03-25T06:45:47.999Z</time></trkpt><trkpt lat="44.12805497867248" lon="9.89126320318731"><ele>26.0</ele><time>2026-03-25T06:45:48.999Z</time></trkpt><trkpt lat="44.1281274537547" lon="9.891398596829747"><ele>25.5</ele><time>2026-03-25T06:45:49.999Z</time></trkpt><trkpt lat="44.128208649316356" lon="9.891533647410554"><ele>25.0</ele><time>2026-03-25T06:45:50.999Z</time></trkpt><trkpt lat="44.12830839951967" lon="9.891674623386773"><ele>25.0</ele><time>2026-03-25T06:45:51.999Z</time></trkpt><trkpt lat="44.12840573858482" lon="9.891812233655951"><ele>25.0</ele><time>2026-03-25T06:45:53Z</time></trkpt><trkpt lat="44.128519948733846" lon="9.891953222628134"><ele>25.0</ele><time>2026-03-25T06:45:54Z</time></trkpt><trkpt lat="44.128640681970104" lon="9.892092777599128"><ele>25.0</ele><time>2026-03-25T06:45:54.999Z</time></trkpt><trkpt lat="44.128763216155434" lon="9.892218561940748"><ele>25.0</ele><time>2026-03-25T06:45:55.999Z</time></trkpt><trkpt lat="44.128893691817154" lon="9.892347529078938"><ele>25.0</ele><time>2026-03-25T06:45:56.999Z</time></trkpt><trkpt lat="44.12903542891956" lon="9.892479634981637"><ele>25.0</ele><time>2026-03-25T06:45:57.999Z</time></trkpt><trkpt lat="44.12917700534288" lon="9.892609632852478"><ele>24.333333333333336</ele><time>2026-03-25T06:45:58.999Z</time></trkpt><trkpt lat="44.12933901464339" lon="9.892733351156682"><ele>23.666666666666668</ele><time>2026-03-25T06:45:59.999Z</time></trkpt><trkpt lat="44.12949582164934" lon="9.892874797766837"><ele>23.0</ele><time>2026-03-25T06:46:00.999Z</time></trkpt><trkpt lat="44.12967131157037" lon="9.893000467170683"><ele>23.0</ele><time>2026-03-25T06:46:01.999Z</time></trkpt><trkpt lat="44.12983236162337" lon="9.893142195337507"><ele>23.0</ele><time>2026-03-25T06:46:02.999Z</time></trkpt><trkpt lat="44.12999726058508" lon="9.893279992292628"><ele>23.0</ele><time>2026-03-25T06:46:03.999Z</time></trkpt><trkpt lat="44.130174736031584" lon="9.893436403223367"><ele>22.666666666666668</ele><time>2026-03-25T06:46:04.999Z</time></trkpt><trkpt lat="44.13035263291331" lon="9.893591763151367"><ele>22.333333333333332</ele><time>2026-03-25T06:46:05.999Z</time></trkpt><trkpt lat="44.1305283184498" lon="9.893733122000516"><ele>22.0</ele><time>2026-03-25T06:46:06.999Z</time></trkpt><trkpt lat="44.1307177190172" lon="9.893866062953002"><ele>23.0</ele><time>2026-03-25T06:46:07.999Z</time></trkpt><trkpt lat="44.130921064397306" lon="9.894022040175338"><ele>24.0</ele><time>2026-03-25T06:46:08.999Z</time></trkpt><trkpt lat="44.1311159599577" lon="9.894176275053798"><ele>24.0</ele><time>2026-03-25T06:46:09.999Z</time></trkpt><trkpt lat="44.13130925385958" lon="9.894342145943316"><ele>24.0</ele><time>2026-03-25T06:46:10.999Z</time></trkpt><trkpt lat="44.13150015389898" lon="9.89452050422512"><ele>24.0</ele><time>2026-03-25T06:46:11.999Z</time></trkpt><trkpt lat="44.13168561888636" lon="9.894711163543604"><ele>24.0</ele><time>2026-03-25T06:46:12.999Z</time></trkpt><trkpt lat="44.1318691969654" lon="9.894939256117079"><ele>23.5</ele><time>2026-03-25T06:46:13.999Z</time></trkpt><trkpt lat="44.132038615936146" lon="9.895162587229645"><ele>23.0</ele><time>2026-03-25T06:46:14.999Z</time></trkpt><trkpt lat="44.13220298078966" lon="9.89539942773904"><ele>23.0</ele><time>2026-03-25T06:46:15.999Z</time></trkpt><trkpt lat="44.13235755837635" lon="9.89565411331093"><ele>23.0</ele><time>2026-03-25T06:46:16.999Z</time></trkpt><trkpt lat="44.13250757201421" lon="9.895913876281426"><ele>25.0</ele><time>2026-03-25T06:46:17.999Z</time></trkpt><trkpt lat="44.132628249591725" lon="9.896204718008516"><ele>27.0</ele><time>2026-03-25T06:46:18.999Z</time></trkpt><trkpt lat="44.13272935544329" lon="9.896492987041558"><ele>28.0</ele><time>2026-03-25T06:46:19.999Z</time></trkpt><trkpt lat="44.13282997752535" lon="9.896797449735816"><ele>29.0</ele><time>2026-03-25T06:46:20.999Z</time></trkpt><trkpt lat="44.13292245391008" lon="9.897110957567605"><ele>29.0</ele><time>2026-03-25T06:46:21.999Z</time></trkpt><trkpt lat="44.132992628313744" lon="9.897434616564883"><ele>29.0</ele><time>2026-03-25T06:46:22.999Z</time></trkpt><trkpt lat="44.1330587247565" lon="9.897752420126128"><ele>26.5</ele><time>2026-03-25T06:46:23.999Z</time></trkpt><trkpt lat="44.13312121763903" lon="9.898052173413504"><ele>24.0</ele><time>2026-03-25T06:46:24.999Z</time></trkpt><trkpt lat="44.133172569524376" lon="9.89836795866111"><ele>29.5</ele><time>2026-03-25T06:46:25.999Z</time></trkpt><trkpt lat="44.133169408308845" lon="9.89870529057719"><ele>35.0</ele><time>2026-03-25T06:46:26.999Z</time></trkpt><trkpt lat="44.1331817137187" lon="9.89903285427315"><ele>33.0</ele><time>2026-03-25T06:46:27.999Z</time></trkpt><trkpt lat="44.13320694214609" lon="9.899370495026817"><ele>31.0</ele><time>2026-03-25T06:46:28.999Z</time></trkpt><trkpt lat="44.13323903195396" lon="9.899693979618108"><ele>31.0</ele><time>2026-03-25T06:46:29.999Z</time></trkpt><trkpt lat="44.1332786970056" lon="9.900020050063754"><ele>31.0</ele><time>2026-03-25T06:46:30.999Z</time></trkpt><trkpt lat="44.13331847797146" lon="9.900345960315333"><ele>39.5</ele><time>2026-03-25T06:46:31.999Z</time></trkpt><trkpt lat="44.13336881481959" lon="9.900672046536346"><ele>48.0</ele><time>2026-03-25T06:46:32.999Z</time></trkpt><trkpt lat="44.1334331534003" lon="9.900986054439347"><ele>60.5</ele><time>2026-03-25T06:46:33.999Z</time></trkpt><trkpt lat="44.13350054826861" lon="9.90129711175868"><ele>73.0</ele><time>2026-03-25T06:46:34.999Z</time></trkpt><trkpt lat="44.13356741553948" lon="9.901608758614806"><ele>83.0</ele><time>2026-03-25T06:46:35.999Z</time></trkpt><trkpt lat="44.133635731042645" lon="9.901920409062736"><ele>93.0</ele><time>2026-03-25T06:46:36.999Z</time></trkpt><trkpt lat="44.13370640539744" lon="9.902231164918817"><ele>93.0</ele><time>2026-03-25T06:46:37.999Z</time></trkpt><trkpt lat="44.13378442459335" lon="9.902566927332789"><ele>93.0</ele><time>2026-03-25T06:46:39.08Z</time></trkpt><trkpt lat="44.13385705301884" lon="9.90287578322226"><ele>91.5</ele><time>2026-03-25T06:46:40.075Z</time></trkpt><trkpt lat="44.133929020392536" lon="9.903182574177197"><ele>90.0</ele><time>2026-03-25T06:46:41.06Z</time></trkpt><trkpt lat="44.1340016511677" lon="9.903492837533586"><ele>67.0</ele><time>2026-03-25T06:46:42.059Z</time></trkpt><trkpt lat="44.134072797117035" lon="9.903802315183848"><ele>44.0</ele><time>2026-03-25T06:46:43.054Z</time></trkpt><trkpt lat="44.13684313718015" lon="9.90591687900546"><ele>26.5</ele><time>2026-03-25T06:46:57.018Z</time></trkpt><trkpt lat="44.13711959917349" lon="9.906066523635616"><ele>9.0</ele><time>2026-03-25T06:46:58.018Z</time></trkpt><trkpt lat="44.13734305181324" lon="9.906215954965985"><ele>9.5</ele><time>2026-03-25T06:46:59.016Z</time></trkpt><trkpt lat="44.13753622420971" lon="9.906392926563417"><ele>10.0</ele><time>2026-03-25T06:47:00.022Z</time></trkpt><trkpt lat="44.137755735788566" lon="9.906556826197551"><ele>10.0</ele><time>2026-03-25T06:47:01.019Z</time></trkpt><trkpt lat="44.13794522829925" lon="9.906722599641876"><ele>10.0</ele><time>2026-03-25T06:47:02.017Z</time></trkpt><trkpt lat="44.13818448921054" lon="9.906883873836966"><ele>13.5</ele><time>2026-03-25T06:47:03.02Z</time></trkpt><trkpt lat="44.13842534877931" lon="9.90704133504432"><ele>17.0</ele><time>2026-03-25T06:47:04.024Z</time></trkpt><trkpt lat="44.138780954284286" lon="9.907176786562047"><ele>17.0</ele><time>2026-03-25T06:47:05.024Z</time></trkpt><trkpt lat="44.13907477175474" lon="9.907308019136304"><ele>17.0</ele><time>2026-03-25T06:47:06.023Z</time></trkpt><trkpt lat="44.139297683744424" lon="9.907458541988902"><ele>16.333333333333336</ele><time>2026-03-25T06:47:07.024Z</time></trkpt><trkpt lat="44.13948515164039" lon="9.907591345524471"><ele>15.666666666666668</ele><time>2026-03-25T06:47:07.999Z</time></trkpt><trkpt lat="44.13966990894928" lon="9.907725921179114"><ele>15.0</ele><time>2026-03-25T06:47:08.999Z</time></trkpt><trkpt lat="44.13983216487464" lon="9.907870839277424"><ele>15.5</ele><time>2026-03-25T06:47:09.999Z</time></trkpt><trkpt lat="44.14004027655524" lon="9.908084120329917"><ele>16.0</ele><time>2026-03-25T06:47:10.999Z</time></trkpt><trkpt lat="44.14024998794319" lon="9.90824351870985"><ele>14.0</ele><time>2026-03-25T06:47:11.999Z</time></trkpt><trkpt lat="44.140484349791876" lon="9.90841211244861"><ele>12.0</ele><time>2026-03-25T06:47:12.999Z</time></trkpt><trkpt lat="44.140676576545054" lon="9.908586901700756"><ele>13.5</ele><time>2026-03-25T06:47:13.999Z</time></trkpt><trkpt lat="44.1408485969264" lon="9.90876562125976"><ele>15.0</ele><time>2026-03-25T06:47:14.999Z</time></trkpt><trkpt lat="44.141072470787634" lon="9.908940682280631"><ele>15.0</ele><time>2026-03-25T06:47:15.999Z</time></trkpt><trkpt lat="44.14127399535696" lon="9.90909738725294"><ele>15.0</ele><time>2026-03-25T06:47:16.999Z</time></trkpt><trkpt lat="44.14146691834083" lon="9.909265969235724"><ele>14.5</ele><time>2026-03-25T06:47:17.999Z</time></trkpt><trkpt lat="44.14166613848379" lon="9.909443049403171"><ele>14.0</ele><time>2026-03-25T06:47:18.999Z</time></trkpt><trkpt lat="44.14186968119287" lon="9.909616821905058"><ele>14.0</ele><time>2026-03-25T06:47:19.999Z</time></trkpt><trkpt lat="44.142063729567205" lon="9.909786304706389"><ele>14.0</ele><time>2026-03-25T06:47:20.999Z</time></trkpt><trkpt lat="44.142266248277366" lon="9.909956943915514"><ele>15.0</ele><time>2026-03-25T06:47:21.999Z</time></trkpt><trkpt lat="44.14246476100929" lon="9.910132860807574"><ele>16.0</ele><time>2026-03-25T06:47:22.999Z</time></trkpt><trkpt lat="44.14265930365831" lon="9.91030765858281"><ele>16.0</ele><time>2026-03-25T06:47:23.999Z</time></trkpt><trkpt lat="44.142852529984395" lon="9.910480909682395"><ele>16.0</ele><time>2026-03-25T06:47:24.999Z</time></trkpt><trkpt lat="44.14304715187187" lon="9.910654863520621"><ele>17.0</ele><time>2026-03-25T06:47:25.998Z</time></trkpt><trkpt lat="44.14323817966847" lon="9.910826360573642"><ele>18.0</ele><time>2026-03-25T06:47:26.998Z</time></trkpt><trkpt lat="44.143435193444965" lon="9.91099814118715"><ele>18.0</ele><time>2026-03-25T06:47:27.998Z</time></trkpt><trkpt lat="44.14362629668791" lon="9.911161887704719"><ele>18.0</ele><time>2026-03-25T06:47:28.998Z</time></trkpt><trkpt lat="44.143808049715204" lon="9.911329356919662"><ele>18.0</ele><time>2026-03-25T06:47:29.998Z</time></trkpt><trkpt lat="44.143990734255766" lon="9.911487645256214"><ele>18.333333333333332</ele><time>2026-03-25T06:47:30.998Z</time></trkpt><trkpt lat="44.144175664852796" lon="9.911653181384668"><ele>18.666666666666664</ele><time>2026-03-25T06:47:31.998Z</time></trkpt><trkpt lat="44.14435996728375" lon="9.911814751638955"><ele>19.0</ele><time>2026-03-25T06:47:32.998Z</time></trkpt><trkpt lat="44.14453611945413" lon="9.911971777898724"><ele>19.0</ele><time>2026-03-25T06:47:33.998Z</time></trkpt><trkpt lat="44.14471450254408" lon="9.912125594227842"><ele>19.0</ele><time>2026-03-25T06:47:34.998Z</time></trkpt><trkpt lat="44.14488507462991" lon="9.91227660078814"><ele>19.0</ele><time>2026-03-25T06:47:35.998Z</time></trkpt><trkpt lat="44.145053606016376" lon="9.91242344732356"><ele>18.666666666666664</ele><time>2026-03-25T06:47:36.998Z</time></trkpt><trkpt lat="44.145220433476695" lon="9.91257103991085"><ele>18.333333333333332</ele><time>2026-03-25T06:47:37.998Z</time></trkpt><trkpt lat="44.14538812519681" lon="9.91271849257389"><ele>18.0</ele><time>2026-03-25T06:47:38.998Z</time></trkpt><trkpt lat="44.14555170052691" lon="9.912861843472825"><ele>18.333333333333332</ele><time>2026-03-25T06:47:39.998Z</time></trkpt><trkpt lat="44.145712055231485" lon="9.913002037496407"><ele>18.666666666666664</ele><time>2026-03-25T06:47:40.998Z</time></trkpt><trkpt lat="44.14587192547925" lon="9.913145233523204"><ele>19.0</ele><time>2026-03-25T06:47:41.998Z</time></trkpt><trkpt lat="44.14603411174648" lon="9.913289888313038"><ele>19.0</ele><time>2026-03-25T06:47:42.998Z</time></trkpt><trkpt lat="44.14619409096961" lon="9.913432711557359"><ele>19.0</ele><time>2026-03-25T06:47:43.998Z</time></trkpt><trkpt lat="44.146354831559606" lon="9.913572655504733"><ele>19.0</ele><time>2026-03-25T06:47:44.998Z</time></trkpt><trkpt lat="44.14651600085629" lon="9.9137121250862"><ele>19.333333333333332</ele><time>2026-03-25T06:47:45.999Z</time></trkpt><trkpt lat="44.146673256478564" lon="9.91385071899624"><ele>19.666666666666668</ele><time>2026-03-25T06:47:46.999Z</time></trkpt><trkpt lat="44.146830283236966" lon="9.913989200846208"><ele>20.0</ele><time>2026-03-25T06:47:47.999Z</time></trkpt><trkpt lat="44.14698603889754" lon="9.914127815877368"><ele>20.0</ele><time>2026-03-25T06:47:48.999Z</time></trkpt><trkpt lat="44.14714227625611" lon="9.91426632896642"><ele>20.0</ele><time>2026-03-25T06:47:49.999Z</time></trkpt><trkpt lat="44.147298442310166" lon="9.914403510307075"><ele>20.0</ele><time>2026-03-25T06:47:50.999Z</time></trkpt><trkpt lat="44.147453525265774" lon="9.914538430460253"><ele>20.0</ele><time>2026-03-25T06:47:51.999Z</time></trkpt><trkpt lat="44.14760934972126" lon="9.914668718350809"><ele>20.0</ele><time>2026-03-25T06:47:52.999Z</time></trkpt><trkpt lat="44.147769028832656" lon="9.914794283550336"><ele>20.0</ele><time>2026-03-25T06:47:53.999Z</time></trkpt><trkpt lat="44.14792927404925" lon="9.914908814653959"><ele>20.0</ele><time>2026-03-25T06:47:54.999Z</time></trkpt><trkpt lat="44.148091487455254" lon="9.915016679140141"><ele>20.0</ele><time>2026-03-25T06:47:55.999Z</time></trkpt><trkpt lat="44.1482474649772" lon="9.915111381989712"><ele>20.0</ele><time>2026-03-25T06:47:56.999Z</time></trkpt><trkpt lat="44.148409924629995" lon="9.915199985499857"><ele>20.0</ele><time>2026-03-25T06:47:57.999Z</time></trkpt><trkpt lat="44.14856846283179" lon="9.915274435509716"><ele>20.0</ele><time>2026-03-25T06:47:58.999Z</time></trkpt><trkpt lat="44.1487268781567" lon="9.91534398094017"><ele>20.0</ele><time>2026-03-25T06:47:59.999Z</time></trkpt><trkpt lat="44.14889027598388" lon="9.91540825220974"><ele>21.0</ele><time>2026-03-25T06:48:00.999Z</time></trkpt><trkpt lat="44.14905156238895" lon="9.915467226291222"><ele>22.0</ele><time>2026-03-25T06:48:01.999Z</time></trkpt><trkpt lat="44.14921210875728" lon="9.91552804228228"><ele>23.0</ele><time>2026-03-25T06:48:02.999Z</time></trkpt><trkpt lat="44.14937055721912" lon="9.915583468849432"><ele>23.0</ele><time>2026-03-25T06:48:03.999Z</time></trkpt><trkpt lat="44.149523367360885" lon="9.915636328113424"><ele>23.0</ele><time>2026-03-25T06:48:04.999Z</time></trkpt><trkpt lat="44.1496799478589" lon="9.915690095537736"><ele>23.0</ele><time>2026-03-25T06:48:05.999Z</time></trkpt><trkpt lat="44.149836730469524" lon="9.915744157007685"><ele>22.333333333333336</ele><time>2026-03-25T06:48:06.999Z</time></trkpt><trkpt lat="44.149995019053875" lon="9.915798130722468"><ele>21.666666666666668</ele><time>2026-03-25T06:48:07.999Z</time></trkpt><trkpt lat="44.15015084946623" lon="9.915851479293881"><ele>21.0</ele><time>2026-03-25T06:48:08.999Z</time></trkpt><trkpt lat="44.150305047993" lon="9.915905253006533"><ele>22.333333333333336</ele><time>2026-03-25T06:48:09.999Z</time></trkpt><trkpt lat="44.15045767608269" lon="9.915958164903948"><ele>23.666666666666668</ele><time>2026-03-25T06:48:10.999Z</time></trkpt><trkpt lat="44.150609671487246" lon="9.916010709760306"><ele>25.0</ele><time>2026-03-25T06:48:11.999Z</time></trkpt><trkpt lat="44.1507589611824" lon="9.91606085957353"><ele>25.0</ele><time>2026-03-25T06:48:12.999Z</time></trkpt><trkpt lat="44.150905417963585" lon="9.916110394856693"><ele>25.0</ele><time>2026-03-25T06:48:13.999Z</time></trkpt><trkpt lat="44.151048655957034" lon="9.916154807367807"><ele>25.0</ele><time>2026-03-25T06:48:14.999Z</time></trkpt><trkpt lat="44.15118941745968" lon="9.916194878728556"><ele>25.0</ele><time>2026-03-25T06:48:15.999Z</time></trkpt><trkpt lat="44.151330916890544" lon="9.916231175968385"><ele>25.0</ele><time>2026-03-25T06:48:16.999Z</time></trkpt><trkpt lat="44.15147271722289" lon="9.916261237842463"><ele>25.0</ele><time>2026-03-25T06:48:17.999Z</time></trkpt><trkpt lat="44.15161298959595" lon="9.916282649422637"><ele>25.0</ele><time>2026-03-25T06:48:18.999Z</time></trkpt><trkpt lat="44.15175220464175" lon="9.916298420966159"><ele>25.0</ele><time>2026-03-25T06:48:19.999Z</time></trkpt><trkpt lat="44.15189090518411" lon="9.91630887816783"><ele>25.25</ele><time>2026-03-25T06:48:20.999Z</time></trkpt><trkpt lat="44.15202749055761" lon="9.916311253931964"><ele>25.5</ele><time>2026-03-25T06:48:21.999Z</time></trkpt><trkpt lat="44.15216353541506" lon="9.916308279242076"><ele>25.75</ele><time>2026-03-25T06:48:22.999Z</time></trkpt><trkpt lat="44.152294792342445" lon="9.916298481641833"><ele>26.0</ele><time>2026-03-25T06:48:23.999Z</time></trkpt><trkpt lat="44.15242980726503" lon="9.916284447274334"><ele>26.0</ele><time>2026-03-25T06:48:24.999Z</time></trkpt><trkpt lat="44.15256263256271" lon="9.916263131714452"><ele>26.0</ele><time>2026-03-25T06:48:25.999Z</time></trkpt><trkpt lat="44.15269362877804" lon="9.916237456458864"><ele>26.0</ele><time>2026-03-25T06:48:26.999Z</time></trkpt><trkpt lat="44.15282199426377" lon="9.916205978229945"><ele>26.0</ele><time>2026-03-25T06:48:27.999Z</time></trkpt><trkpt lat="44.15295036124494" lon="9.91617045629254"><ele>26.0</ele><time>2026-03-25T06:48:28.999Z</time></trkpt><trkpt lat="44.153075606577445" lon="9.91613116907732"><ele>26.0</ele><time>2026-03-25T06:48:29.999Z</time></trkpt><trkpt lat="44.15319669496777" lon="9.91608873369271"><ele>26.0</ele><time>2026-03-25T06:48:30.999Z</time></trkpt><trkpt lat="44.15331308062397" lon="9.91604602817242"><ele>26.0</ele><time>2026-03-25T06:48:31.999Z</time></trkpt><trkpt lat="44.15342863694516" lon="9.916005322298481"><ele>25.200000000000003</ele><time>2026-03-25T06:48:32.999Z</time></trkpt><trkpt lat="44.153538491525325" lon="9.91596485574925"><ele>24.400000000000002</ele><time>2026-03-25T06:48:33.999Z</time></trkpt><trkpt lat="44.15364568335474" lon="9.915924447614143"><ele>23.6</ele><time>2026-03-25T06:48:34.999Z</time></trkpt><trkpt lat="44.15374993822057" lon="9.915885299248714"><ele>22.8</ele><time>2026-03-25T06:48:35.999Z</time></trkpt><trkpt lat="44.153855183347524" lon="9.915847683302744"><ele>22.0</ele><time>2026-03-25T06:48:36.999Z</time></trkpt><trkpt lat="44.15395562886595" lon="9.915809685290856"><ele>22.400000000000002</ele><time>2026-03-25T06:48:37.999Z</time></trkpt><trkpt lat="44.15405204304372" lon="9.915773643514886"><ele>22.8</ele><time>2026-03-25T06:48:38.999Z</time></trkpt><trkpt lat="44.15414493902318" lon="9.915738655188957"><ele>23.2</ele><time>2026-03-25T06:48:39.999Z</time></trkpt><trkpt lat="44.154236169227225" lon="9.915705838996299"><ele>23.6</ele><time>2026-03-25T06:48:40.999Z</time></trkpt><trkpt lat="44.154327311582904" lon="9.915673504316212"><ele>24.0</ele><time>2026-03-25T06:48:41.999Z</time></trkpt><trkpt lat="44.15441888910657" lon="9.915640362639353"><ele>24.0</ele><time>2026-03-25T06:48:42.999Z</time></trkpt><trkpt lat="44.15450981974679" lon="9.915608206424965"><ele>24.0</ele><time>2026-03-25T06:48:43.999Z</time></trkpt><trkpt lat="44.154601151515884" lon="9.915575562689101"><ele>24.0</ele><time>2026-03-25T06:48:44.999Z</time></trkpt><trkpt lat="44.15468857339067" lon="9.915543432272262"><ele>24.0</ele><time>2026-03-25T06:48:45.999Z</time></trkpt><trkpt lat="44.15477425137541" lon="9.915512799937968"><ele>24.0</ele><time>2026-03-25T06:48:46.999Z</time></trkpt><trkpt lat="44.15485769281886" lon="9.91548375280905"><ele>24.5</ele><time>2026-03-25T06:48:47.999Z</time></trkpt><trkpt lat="44.15493999665055" lon="9.915456886075606"><ele>25.0</ele><time>2026-03-25T06:48:48.999Z</time></trkpt><trkpt lat="44.15502191728344" lon="9.915430261064698"><ele>25.5</ele><time>2026-03-25T06:48:49.999Z</time></trkpt><trkpt lat="44.1551028182035" lon="9.915404549503618"><ele>26.0</ele><time>2026-03-25T06:48:50.999Z</time></trkpt><trkpt lat="44.15518221834698" lon="9.915380666796459"><ele>26.5</ele><time>2026-03-25T06:48:51.999Z</time></trkpt><trkpt lat="44.15526038700977" lon="9.915358923824973"><ele>27.0</ele><time>2026-03-25T06:48:52.999Z</time></trkpt><trkpt lat="44.155336947294195" lon="9.915338770686686"><ele>27.0</ele><time>2026-03-25T06:48:53.999Z</time></trkpt><trkpt lat="44.155410171313484" lon="9.915319283578405"><ele>27.0</ele><time>2026-03-25T06:48:54.999Z</time></trkpt><trkpt lat="44.155479885061325" lon="9.915302072122744"><ele>27.0</ele><time>2026-03-25T06:48:55.999Z</time></trkpt><trkpt lat="44.15554932053478" lon="9.915285133213962"><ele>27.0</ele><time>2026-03-25T06:48:56.999Z</time></trkpt><trkpt lat="44.15561665787044" lon="9.915268511118548"><ele>27.0</ele><time>2026-03-25T06:48:57.999Z</time></trkpt><trkpt lat="44.15568033811638" lon="9.915251407068238"><ele>27.0</ele><time>2026-03-25T06:48:58.999Z</time></trkpt><trkpt lat="44.15579968409687" lon="9.915222088778213"><ele>27.333333333333332</ele><time>2026-03-25T06:49:00.999Z</time></trkpt><trkpt lat="44.1559052546806" lon="9.915193735185813"><ele>27.666666666666664</ele><time>2026-03-25T06:49:02.999Z</time></trkpt><trkpt lat="44.15600067959292" lon="9.915167887019022"><ele>28.0</ele><time>2026-03-25T06:49:04.999Z</time></trkpt><trkpt lat="44.15607750569907" lon="9.915146379144002"><ele>28.333333333333332</ele><time>2026-03-25T06:49:06.999Z</time></trkpt><trkpt lat="44.156163037065625" lon="9.915123597864604"><ele>28.666666666666664</ele><time>2026-03-25T06:49:09.999Z</time></trkpt><trkpt lat="44.15622666897154" lon="9.915103862091849"><ele>29.0</ele><time>2026-03-25T06:49:14.999Z</time></trkpt><trkpt lat="44.156290621140776" lon="9.915088698146592"><ele>28.333333333333332</ele><time>2026-03-25T06:49:55.999Z</time></trkpt><trkpt lat="44.156387206201494" lon="9.915059183841379"><ele>27.666666666666664</ele><time>2026-03-25T06:49:58.999Z</time></trkpt><trkpt lat="44.15647758239485" lon="9.915029063199661"><ele>27.0</ele><time>2026-03-25T06:50:00.999Z</time></trkpt><trkpt lat="44.15658737448165" lon="9.915011272328972"><ele>26.333333333333336</ele><time>2026-03-25T06:50:02.999Z</time></trkpt><trkpt lat="44.156653274677055" lon="9.915005733504143"><ele>25.666666666666668</ele><time>2026-03-25T06:50:03.999Z</time></trkpt><trkpt lat="44.15672155554492" lon="9.914996269450741"><ele>25.0</ele><time>2026-03-25T06:50:04.999Z</time></trkpt><trkpt lat="44.15679568841735" lon="9.914988782304844"><ele>25.0</ele><time>2026-03-25T06:50:05.999Z</time></trkpt><trkpt lat="44.15687652820375" lon="9.914983435953799"><ele>25.0</ele><time>2026-03-25T06:50:06.999Z</time></trkpt><trkpt lat="44.15696521039542" lon="9.914978017237885"><ele>25.0</ele><time>2026-03-25T06:50:07.999Z</time></trkpt><trkpt lat="44.15706127978512" lon="9.91497613639117"><ele>25.0</ele><time>2026-03-25T06:50:08.999Z</time></trkpt><trkpt lat="44.157159861568296" lon="9.91497992071822"><ele>25.0</ele><time>2026-03-25T06:50:09.999Z</time></trkpt><trkpt lat="44.1572690198469" lon="9.91498641970416"><ele>25.5</ele><time>2026-03-25T06:50:10.999Z</time></trkpt><trkpt lat="44.157389679112796" lon="9.91499672233493"><ele>26.0</ele><time>2026-03-25T06:50:11.999Z</time></trkpt><trkpt lat="44.15751222991886" lon="9.915009145774397"><ele>26.5</ele><time>2026-03-25T06:50:12.999Z</time></trkpt><trkpt lat="44.15763859784104" lon="9.915023465162378"><ele>27.0</ele><time>2026-03-25T06:50:13.999Z</time></trkpt><trkpt lat="44.157769064103405" lon="9.915040086581337"><ele>27.0</ele><time>2026-03-25T06:50:14.999Z</time></trkpt><trkpt lat="44.15790702580755" lon="9.915056213303586"><ele>27.0</ele><time>2026-03-25T06:50:15.999Z</time></trkpt><trkpt lat="44.15804611050445" lon="9.915077696312851"><ele>27.0</ele><time>2026-03-25T06:50:16.999Z</time></trkpt><trkpt lat="44.15818835000411" lon="9.915096977001411"><ele>27.0</ele><time>2026-03-25T06:50:17.999Z</time></trkpt><trkpt lat="44.15833959227297" lon="9.915111235222415"><ele>28.0</ele><time>2026-03-25T06:50:18.999Z</time></trkpt><trkpt lat="44.15849395022319" lon="9.915132386054491"><ele>29.0</ele><time>2026-03-25T06:50:19.999Z</time></trkpt><trkpt lat="44.158651671961096" lon="9.915151626929443"><ele>30.0</ele><time>2026-03-25T06:50:20.999Z</time></trkpt><trkpt lat="44.15881446951732" lon="9.915174258584127"><ele>30.0</ele><time>2026-03-25T06:50:21.999Z</time></trkpt><trkpt lat="44.15897890532175" lon="9.9151982674936"><ele>30.0</ele><time>2026-03-25T06:50:22.999Z</time></trkpt><trkpt lat="44.15914698187718" lon="9.915227204004106"><ele>30.0</ele><time>2026-03-25T06:50:23.999Z</time></trkpt><trkpt lat="44.15931831307952" lon="9.915263442763356"><ele>30.333333333333336</ele><time>2026-03-25T06:50:24.999Z</time></trkpt><trkpt lat="44.15948878021636" lon="9.915318040780104"><ele>30.666666666666668</ele><time>2026-03-25T06:50:25.999Z</time></trkpt><trkpt lat="44.15966118425709" lon="9.915375373267832"><ele>31.0</ele><time>2026-03-25T06:50:26.999Z</time></trkpt><trkpt lat="44.15983601247631" lon="9.915440332845003"><ele>32.0</ele><time>2026-03-25T06:50:27.999Z</time></trkpt><trkpt lat="44.16002258241198" lon="9.915530489092417"><ele>33.0</ele><time>2026-03-25T06:50:28.999Z</time></trkpt><trkpt lat="44.160205852452634" lon="9.915627525871669"><ele>34.0</ele><time>2026-03-25T06:50:29.999Z</time></trkpt><trkpt lat="44.16037805023339" lon="9.915732071157823"><ele>34.0</ele><time>2026-03-25T06:50:30.999Z</time></trkpt><trkpt lat="44.16055053795782" lon="9.915853581440784"><ele>34.0</ele><time>2026-03-25T06:50:31.999Z</time></trkpt><trkpt lat="44.1607224571832" lon="9.915987450468037"><ele>34.0</ele><time>2026-03-25T06:50:32.999Z</time></trkpt><trkpt lat="44.16089021514229" lon="9.91613666729882"><ele>35.0</ele><time>2026-03-25T06:50:33.999Z</time></trkpt><trkpt lat="44.16105243944004" lon="9.916299884707065"><ele>36.0</ele><time>2026-03-25T06:50:34.999Z</time></trkpt><trkpt lat="44.1612120255546" lon="9.916476731558323"><ele>37.0</ele><time>2026-03-25T06:50:35.999Z</time></trkpt><trkpt lat="44.16136547076145" lon="9.916668010191403"><ele>38.0</ele><time>2026-03-25T06:50:36.999Z</time></trkpt><trkpt lat="44.1615122934111" lon="9.916873426899983"><ele>39.0</ele><time>2026-03-25T06:50:37.999Z</time></trkpt><trkpt lat="44.16165559666795" lon="9.917083971476693"><ele>40.0</ele><time>2026-03-25T06:50:38.999Z</time></trkpt><trkpt lat="44.161775745016435" lon="9.91731192426542"><ele>40.0</ele><time>2026-03-25T06:50:39.999Z</time></trkpt><trkpt lat="44.16190061114116" lon="9.917557147351024"><ele>40.0</ele><time>2026-03-25T06:50:40.999Z</time></trkpt><trkpt lat="44.16197814499615" lon="9.917850864513321"><ele>40.0</ele><time>2026-03-25T06:50:41.999Z</time></trkpt><trkpt lat="44.16209146276345" lon="9.918117820448982"><ele>41.5</ele><time>2026-03-25T06:50:42.999Z</time></trkpt><trkpt lat="44.16221392552589" lon="9.918392801317536"><ele>43.0</ele><time>2026-03-25T06:50:43.999Z</time></trkpt><trkpt lat="44.16234011038997" lon="9.918656651157674"><ele>45.0</ele><time>2026-03-25T06:50:44.999Z</time></trkpt><trkpt lat="44.162475880909334" lon="9.91890763411715"><ele>47.0</ele><time>2026-03-25T06:50:45.999Z</time></trkpt><trkpt lat="44.16259049580465" lon="9.919186109992928"><ele>51.0</ele><time>2026-03-25T06:50:46.999Z</time></trkpt><trkpt lat="44.162722754735114" lon="9.919455615327495"><ele>55.0</ele><time>2026-03-25T06:50:47.999Z</time></trkpt><trkpt lat="44.162852027392134" lon="9.919732676589273"><ele>55.0</ele><time>2026-03-25T06:50:48.999Z</time></trkpt><trkpt lat="44.162978857308715" lon="9.920018619026019"><ele>55.0</ele><time>2026-03-25T06:50:49.999Z</time></trkpt><trkpt lat="44.16310526710734" lon="9.920306971417045"><ele>62.5</ele><time>2026-03-25T06:50:50.999Z</time></trkpt><trkpt lat="44.163232362617705" lon="9.920599904903714"><ele>70.0</ele><time>2026-03-25T06:50:51.999Z</time></trkpt><trkpt lat="44.163359898447396" lon="9.920895001966134"><ele>75.0</ele><time>2026-03-25T06:50:52.999Z</time></trkpt><trkpt lat="44.16348908616547" lon="9.92119354510635"><ele>80.0</ele><time>2026-03-25T06:50:53.999Z</time></trkpt><trkpt lat="44.163612951894486" lon="9.921479789528032"><ele>86.0</ele><time>2026-03-25T06:50:54.999Z</time></trkpt><trkpt lat="44.16373921140418" lon="9.921772462345148"><ele>92.0</ele><time>2026-03-25T06:50:55.999Z</time></trkpt><trkpt lat="44.163865859128215" lon="9.922066541896646"><ele>92.0</ele><time>2026-03-25T06:50:56.999Z</time></trkpt><trkpt lat="44.16399296159767" lon="9.922361677308881"><ele>92.0</ele><time>2026-03-25T06:50:57.999Z</time></trkpt><trkpt lat="44.164123181144284" lon="9.922662949456356"><ele>105.5</ele><time>2026-03-25T06:50:58.999Z</time></trkpt><trkpt lat="44.164252663003495" lon="9.922964062334847"><ele>119.0</ele><time>2026-03-25T06:50:59.999Z</time></trkpt><trkpt lat="44.16437989317628" lon="9.923264413427448"><ele>123.0</ele><time>2026-03-25T06:51:00.999Z</time></trkpt><trkpt lat="44.16450838834862" lon="9.923565826614137"><ele>127.0</ele><time>2026-03-25T06:51:01.999Z</time></trkpt><trkpt lat="44.164638936141245" lon="9.923871889115865"><ele>60.0</ele><time>2026-03-25T06:51:03.013Z</time></trkpt><trkpt lat="44.206784266121815" lon="9.97775981362918"><ele>60.0</ele><time>2026-03-25T06:54:36.997Z</time></trkpt><trkpt lat="44.20695632502447" lon="9.977777013093252"><ele>60.0</ele><time>2026-03-25T06:54:37.997Z</time></trkpt><trkpt lat="44.20709978652482" lon="9.977856169496958"><ele>60.0</ele><time>2026-03-25T06:54:38.997Z</time></trkpt><trkpt lat="44.20728637552763" lon="9.977950495055534"><ele>64.0</ele><time>2026-03-25T06:54:39.997Z</time></trkpt><trkpt lat="44.20754044350522" lon="9.978121373442713"><ele>68.0</ele><time>2026-03-25T06:54:40.997Z</time></trkpt><trkpt lat="44.207723354986875" lon="9.978217424282322"><ele>68.0</ele><time>2026-03-25T06:54:41.999Z</time></trkpt><trkpt lat="44.20791143587256" lon="9.97829060099405"><ele>68.0</ele><time>2026-03-25T06:54:42.999Z</time></trkpt><trkpt lat="44.20811420576574" lon="9.978360448162714"><ele>68.0</ele><time>2026-03-25T06:54:43.999Z</time></trkpt><trkpt lat="44.20830318497195" lon="9.978422736068842"><ele>74.66666666666667</ele><time>2026-03-25T06:54:44.999Z</time></trkpt><trkpt lat="44.208499181069094" lon="9.978487307351838"><ele>81.33333333333333</ele><time>2026-03-25T06:54:45.999Z</time></trkpt><trkpt lat="44.20869208769844" lon="9.978544720897856"><ele>88.0</ele><time>2026-03-25T06:54:46.999Z</time></trkpt><trkpt lat="44.208886449852926" lon="9.978596868099869"><ele>92.66666666666666</ele><time>2026-03-25T06:54:47.999Z</time></trkpt><trkpt lat="44.209083001840575" lon="9.978645841201777"><ele>97.33333333333333</ele><time>2026-03-25T06:54:48.999Z</time></trkpt><trkpt lat="44.2092797513752" lon="9.978689716548738"><ele>102.0</ele><time>2026-03-25T06:54:49.999Z</time></trkpt><trkpt lat="44.20949104557343" lon="9.978727855359965"><ele>102.0</ele><time>2026-03-25T06:54:51.071Z</time></trkpt><trkpt lat="44.20968784513032" lon="9.978762696392462"><ele>102.0</ele><time>2026-03-25T06:54:52.062Z</time></trkpt><trkpt lat="44.211342693250465" lon="9.978996443424872"><ele>97.33333333333333</ele><time>2026-03-25T06:55:01.999Z</time></trkpt><trkpt lat="44.21158852186938" lon="9.978853021796464"><ele>92.66666666666666</ele><time>2026-03-25T06:55:02.999Z</time></trkpt><trkpt lat="44.211746071154394" lon="9.97883416061713"><ele>88.0</ele><time>2026-03-25T06:55:03.999Z</time></trkpt><trkpt lat="44.21192019897113" lon="9.978816634090748"><ele>88.0</ele><time>2026-03-25T06:55:04.999Z</time></trkpt><trkpt lat="44.212055229956995" lon="9.978799454172895"><ele>88.0</ele><time>2026-03-25T06:55:05.999Z</time></trkpt><trkpt lat="44.212199882923244" lon="9.978772702636984"><ele>88.0</ele><time>2026-03-25T06:55:06.999Z</time></trkpt><trkpt lat="44.21235607694654" lon="9.97875004260579"><ele>88.0</ele><time>2026-03-25T06:55:07.999Z</time></trkpt><trkpt lat="44.21249903429076" lon="9.978718798351975"><ele>86.66666666666666</ele><time>2026-03-25T06:55:08.999Z</time></trkpt><trkpt lat="44.212651570110125" lon="9.97869595727743"><ele>85.33333333333333</ele><time>2026-03-25T06:55:09.999Z</time></trkpt><trkpt lat="44.21282495208761" lon="9.978658468284813"><ele>84.0</ele><time>2026-03-25T06:55:10.999Z</time></trkpt><trkpt lat="44.2129847547258" lon="9.978611351484833"><ele>84.0</ele><time>2026-03-25T06:55:11.999Z</time></trkpt><trkpt lat="44.213144698802616" lon="9.978571981929651"><ele>84.0</ele><time>2026-03-25T06:55:12.999Z</time></trkpt><trkpt lat="44.21330199099565" lon="9.97853067465353"><ele>84.0</ele><time>2026-03-25T06:55:13.999Z</time></trkpt><trkpt lat="44.21345652958181" lon="9.978490494350943"><ele>82.33333333333333</ele><time>2026-03-25T06:55:14.999Z</time></trkpt><trkpt lat="44.21361387705677" lon="9.978453494759853"><ele>80.66666666666666</ele><time>2026-03-25T06:55:15.999Z</time></trkpt><trkpt lat="44.21377181631809" lon="9.978416248473323"><ele>79.0</ele><time>2026-03-25T06:55:16.999Z</time></trkpt><trkpt lat="44.21392826598075" lon="9.978379615204766"><ele>75.0</ele><time>2026-03-25T06:55:17.999Z</time></trkpt><trkpt lat="44.21408102026882" lon="9.978342025754268"><ele>71.0</ele><time>2026-03-25T06:55:18.999Z</time></trkpt><trkpt lat="44.21423393533052" lon="9.978306719386582"><ele>67.0</ele><time>2026-03-25T06:55:19.999Z</time></trkpt><trkpt lat="44.21438145128642" lon="9.978271256225522"><ele>67.0</ele><time>2026-03-25T06:55:20.999Z</time></trkpt><trkpt lat="44.214526280803405" lon="9.978236517061774"><ele>67.0</ele><time>2026-03-25T06:55:21.999Z</time></trkpt><trkpt lat="44.214668260908596" lon="9.978201488916751"><ele>67.0</ele><time>2026-03-25T06:55:22.999Z</time></trkpt><trkpt lat="44.214806926246006" lon="9.978167955289276"><ele>67.0</ele><time>2026-03-25T06:55:23.999Z</time></trkpt><trkpt lat="44.21494427563785" lon="9.978135647939911"><ele>67.75</ele><time>2026-03-25T06:55:24.999Z</time></trkpt><trkpt lat="44.21507905321222" lon="9.978104643307216"><ele>68.5</ele><time>2026-03-25T06:55:25.999Z</time></trkpt><trkpt lat="44.21521033755059" lon="9.978074002556928"><ele>69.25</ele><time>2026-03-25T06:55:26.999Z</time></trkpt><trkpt lat="44.215337895659395" lon="9.978043309441128"><ele>70.0</ele><time>2026-03-25T06:55:27.999Z</time></trkpt><trkpt lat="44.21546439851565" lon="9.978014757707829"><ele>70.0</ele><time>2026-03-25T06:55:28.999Z</time></trkpt><trkpt lat="44.21558793553882" lon="9.977986161424404"><ele>70.0</ele><time>2026-03-25T06:55:29.999Z</time></trkpt><trkpt lat="44.21570876563957" lon="9.97795946635901"><ele>70.0</ele><time>2026-03-25T06:55:30.999Z</time></trkpt><trkpt lat="44.215831001957575" lon="9.977936307637071"><ele>70.0</ele><time>2026-03-25T06:55:31.999Z</time></trkpt><trkpt lat="44.21594808596404" lon="9.977911967457617"><ele>70.0</ele><time>2026-03-25T06:55:32.999Z</time></trkpt><trkpt lat="44.216064631020465" lon="9.977881704117904"><ele>70.0</ele><time>2026-03-25T06:55:33.999Z</time></trkpt><trkpt lat="44.21617863771793" lon="9.977857894054532"><ele>70.0</ele><time>2026-03-25T06:55:34.999Z</time></trkpt><trkpt lat="44.21629395568079" lon="9.977835688730403"><ele>70.0</ele><time>2026-03-25T06:55:35.999Z</time></trkpt><trkpt lat="44.21639677554223" lon="9.977809055479819"><ele>71.4</ele><time>2026-03-25T06:55:36.999Z</time></trkpt><trkpt lat="44.21649839753575" lon="9.977784593731457"><ele>72.8</ele><time>2026-03-25T06:55:37.999Z</time></trkpt><trkpt lat="44.21659939558288" lon="9.977758620659657"><ele>74.2</ele><time>2026-03-25T06:55:38.999Z</time></trkpt><trkpt lat="44.216695403183024" lon="9.977732230046632"><ele>75.6</ele><time>2026-03-25T06:55:39.999Z</time></trkpt><trkpt lat="44.21679029772858" lon="9.97770905481569"><ele>77.0</ele><time>2026-03-25T06:55:40.999Z</time></trkpt><trkpt lat="44.21688566138937" lon="9.977685938155682"><ele>77.0</ele><time>2026-03-25T06:55:41.999Z</time></trkpt><trkpt lat="44.21698226533074" lon="9.977663612405971"><ele>77.0</ele><time>2026-03-25T06:55:42.999Z</time></trkpt><trkpt lat="44.217078965698875" lon="9.977639982200671"><ele>77.0</ele><time>2026-03-25T06:55:43.999Z</time></trkpt><trkpt lat="44.217173829647955" lon="9.977615459931432"><ele>77.0</ele><time>2026-03-25T06:55:44.999Z</time></trkpt><trkpt lat="44.217268983741235" lon="9.977590500195586"><ele>77.0</ele><time>2026-03-25T06:55:45.999Z</time></trkpt><trkpt lat="44.217364523511336" lon="9.977565608910055"><ele>77.5</ele><time>2026-03-25T06:55:46.999Z</time></trkpt><trkpt lat="44.217455664407744" lon="9.977539754199128"><ele>78.0</ele><time>2026-03-25T06:55:47.999Z</time></trkpt><trkpt lat="44.21754429245819" lon="9.97751464566731"><ele>78.5</ele><time>2026-03-25T06:55:48.999Z</time></trkpt><trkpt lat="44.21762991274137" lon="9.977489020799913"><ele>79.0</ele><time>2026-03-25T06:55:49.999Z</time></trkpt><trkpt lat="44.21771366473285" lon="9.977463391346507"><ele>79.5</ele><time>2026-03-25T06:55:50.999Z</time></trkpt><trkpt lat="44.217793064351675" lon="9.977438294501178"><ele>80.0</ele><time>2026-03-25T06:55:51.999Z</time></trkpt><trkpt lat="44.217870399618086" lon="9.977414917946025"><ele>79.28571428571428</ele><time>2026-03-25T06:55:52.999Z</time></trkpt><trkpt lat="44.217946888970474" lon="9.977392438915087"><ele>78.57142857142857</ele><time>2026-03-25T06:55:53.999Z</time></trkpt><trkpt lat="44.21801924895076" lon="9.977370284097473"><ele>77.85714285714286</ele><time>2026-03-25T06:55:54.999Z</time></trkpt><trkpt lat="44.21808754516059" lon="9.977349776212586"><ele>77.14285714285714</ele><time>2026-03-25T06:55:55.999Z</time></trkpt><trkpt lat="44.21815409984875" lon="9.977328474664892"><ele>76.42857142857143</ele><time>2026-03-25T06:55:56.999Z</time></trkpt><trkpt lat="44.21821963160257" lon="9.977307902108317"><ele>75.71428571428571</ele><time>2026-03-25T06:55:57.999Z</time></trkpt><trkpt lat="44.218280990642945" lon="9.97728554070658"><ele>75.0</ele><time>2026-03-25T06:55:58.999Z</time></trkpt><trkpt lat="44.21839829680223" lon="9.97724986532125"><ele>75.0</ele><time>2026-03-25T06:56:00.999Z</time></trkpt><trkpt lat="44.218506809303214" lon="9.977216207851589"><ele>75.0</ele><time>2026-03-25T06:56:02.999Z</time></trkpt><trkpt lat="44.218598966270164" lon="9.97719136172458"><ele>75.0</ele><time>2026-03-25T06:56:04.999Z</time></trkpt><trkpt lat="44.218684811033604" lon="9.977162893523866"><ele>75.0</ele><time>2026-03-25T06:56:06.999Z</time></trkpt><trkpt lat="44.21876307318167" lon="9.97714080974581"><ele>75.0</ele><time>2026-03-25T06:56:08.999Z</time></trkpt><trkpt lat="44.21882668156528" lon="9.977125437265608"><ele>75.0</ele><time>2026-03-25T06:56:10.999Z</time></trkpt><trkpt lat="44.21889203047807" lon="9.977111560810789"><ele>75.0</ele><time>2026-03-25T06:56:13.999Z</time></trkpt><trkpt lat="44.218841239809905" lon="9.977036808456957"><ele>75.0</ele><time>2026-03-25T06:57:00.999Z</time></trkpt><trkpt lat="44.218925960006835" lon="9.977003922241803"><ele>75.0</ele><time>2026-03-25T06:57:05Z</time></trkpt><trkpt lat="44.21899134509777" lon="9.9769837690645"><ele>75.0</ele><time>2026-03-25T06:57:07Z</time></trkpt><trkpt lat="44.21906974050414" lon="9.976958782531486"><ele>75.0</ele><time>2026-03-25T06:57:09Z</time></trkpt><trkpt lat="44.219182408641394" lon="9.97692215973793"><ele>75.0</ele><time>2026-03-25T06:57:11Z</time></trkpt><trkpt lat="44.219248213014666" lon="9.976900843818113"><ele>75.66666666666667</ele><time>2026-03-25T06:57:12Z</time></trkpt><trkpt lat="44.21932082115396" lon="9.97688204151026"><ele>76.33333333333333</ele><time>2026-03-25T06:57:13Z</time></trkpt><trkpt lat="44.21940088620616" lon="9.976869709138814"><ele>77.0</ele><time>2026-03-25T06:57:14Z</time></trkpt><trkpt lat="44.219478905167826" lon="9.97685218941698"><ele>77.66666666666666</ele><time>2026-03-25T06:57:15Z</time></trkpt><trkpt lat="44.219572250956354" lon="9.976832966699636"><ele>78.33333333333333</ele><time>2026-03-25T06:57:16Z</time></trkpt><trkpt lat="44.21966462827315" lon="9.97680657289736"><ele>79.0</ele><time>2026-03-25T06:57:17Z</time></trkpt><trkpt lat="44.21975898713812" lon="9.97677452204443"><ele>78.25</ele><time>2026-03-25T06:57:18Z</time></trkpt><trkpt lat="44.219860776592036" lon="9.976739375383916"><ele>77.5</ele><time>2026-03-25T06:57:19Z</time></trkpt><trkpt lat="44.21996766231638" lon="9.976701918079025"><ele>76.75</ele><time>2026-03-25T06:57:20Z</time></trkpt><trkpt lat="44.2200794153727" lon="9.97666237457533"><ele>76.0</ele><time>2026-03-25T06:57:21Z</time></trkpt><trkpt lat="44.22019789640359" lon="9.97662237799384"><ele>76.0</ele><time>2026-03-25T06:57:22Z</time></trkpt><trkpt lat="44.22032146581791" lon="9.976577713333114"><ele>76.0</ele><time>2026-03-25T06:57:23Z</time></trkpt><trkpt lat="44.22044959602949" lon="9.97653270061179"><ele>76.0</ele><time>2026-03-25T06:57:24Z</time></trkpt><trkpt lat="44.22058425136848" lon="9.976485101439591"><ele>76.0</ele><time>2026-03-25T06:57:25Z</time></trkpt><trkpt lat="44.22072313531085" lon="9.976435042293005"><ele>76.0</ele><time>2026-03-25T06:57:26Z</time></trkpt><trkpt lat="44.220865954752014" lon="9.976383751588651"><ele>76.0</ele><time>2026-03-25T06:57:27Z</time></trkpt><trkpt lat="44.22101131470351" lon="9.976333271090954"><ele>76.0</ele><time>2026-03-25T06:57:28Z</time></trkpt><trkpt lat="44.22116509876995" lon="9.97628164205685"><ele>76.0</ele><time>2026-03-25T06:57:29Z</time></trkpt><trkpt lat="44.221324061972794" lon="9.976231057962892"><ele>76.0</ele><time>2026-03-25T06:57:30Z</time></trkpt><trkpt lat="44.221485061539674" lon="9.976177652682452"><ele>76.0</ele><time>2026-03-25T06:57:31Z</time></trkpt><trkpt lat="44.221650774033144" lon="9.976123772904831"><ele>80.33333333333333</ele><time>2026-03-25T06:57:32Z</time></trkpt><trkpt lat="44.2218203517295" lon="9.976069304808842"><ele>84.66666666666667</ele><time>2026-03-25T06:57:33Z</time></trkpt><trkpt lat="44.221994089841665" lon="9.97601641011002"><ele>89.0</ele><time>2026-03-25T06:57:34Z</time></trkpt><trkpt lat="44.22216814148107" lon="9.975961219975684"><ele>86.66666666666667</ele><time>2026-03-25T06:57:35Z</time></trkpt><trkpt lat="44.22234443101444" lon="9.97590431292005"><ele>84.33333333333333</ele><time>2026-03-25T06:57:36Z</time></trkpt><trkpt lat="44.22252358506504" lon="9.975846844411384"><ele>82.0</ele><time>2026-03-25T06:57:37Z</time></trkpt><trkpt lat="44.222700981214025" lon="9.975799856628184"><ele>82.0</ele><time>2026-03-25T06:57:38Z</time></trkpt><trkpt lat="44.22288004447704" lon="9.97574560255138"><ele>82.0</ele><time>2026-03-25T06:57:39Z</time></trkpt><trkpt lat="44.223072302491154" lon="9.975667256597845"><ele>82.0</ele><time>2026-03-25T06:57:40Z</time></trkpt><trkpt lat="44.223264110618146" lon="9.975601945209188"><ele>80.0</ele><time>2026-03-25T06:57:41Z</time></trkpt><trkpt lat="44.22346839174267" lon="9.97553937076568"><ele>78.0</ele><time>2026-03-25T06:57:42Z</time></trkpt><trkpt lat="44.223674589971914" lon="9.975477573774917"><ele>76.0</ele><time>2026-03-25T06:57:43Z</time></trkpt><trkpt lat="44.223883084743555" lon="9.975413252693977"><ele>75.33333333333333</ele><time>2026-03-25T06:57:44Z</time></trkpt><trkpt lat="44.224092425010845" lon="9.975347551927252"><ele>74.66666666666667</ele><time>2026-03-25T06:57:45Z</time></trkpt><trkpt lat="44.22430468299684" lon="9.975281305807648"><ele>74.0</ele><time>2026-03-25T06:57:46Z</time></trkpt><trkpt lat="44.22451870944111" lon="9.975213213165969"><ele>74.0</ele><time>2026-03-25T06:57:47Z</time></trkpt><trkpt lat="44.22473564849932" lon="9.975143197326382"><ele>74.0</ele><time>2026-03-25T06:57:48Z</time></trkpt><trkpt lat="44.22495680410734" lon="9.97507345381372"><ele>74.0</ele><time>2026-03-25T06:57:48.999Z</time></trkpt><trkpt lat="44.22517904059326" lon="9.975000886084189"><ele>70.0</ele><time>2026-03-25T06:57:49.999Z</time></trkpt><trkpt lat="44.22540554586293" lon="9.974928473031259"><ele>66.0</ele><time>2026-03-25T06:57:50.999Z</time></trkpt><trkpt lat="44.22563543608845" lon="9.974855309410168"><ele>69.0</ele><time>2026-03-25T06:57:51.999Z</time></trkpt><trkpt lat="44.2258680174626" lon="9.974781810128544"><ele>72.0</ele><time>2026-03-25T06:57:52.999Z</time></trkpt><trkpt lat="44.226101122589355" lon="9.974707231786823"><ele>72.0</ele><time>2026-03-25T06:57:53.999Z</time></trkpt><trkpt lat="44.22633729541455" lon="9.974632614191062"><ele>72.0</ele><time>2026-03-25T06:57:54.999Z</time></trkpt><trkpt lat="44.22657230998992" lon="9.974556421295718"><ele>78.0</ele><time>2026-03-25T06:57:55.999Z</time></trkpt><trkpt lat="44.22680905906263" lon="9.974481009591102"><ele>84.0</ele><time>2026-03-25T06:57:56.999Z</time></trkpt><trkpt lat="44.227046819603004" lon="9.9744025998492"><ele>84.0</ele><time>2026-03-25T06:57:57.999Z</time></trkpt><trkpt lat="44.22728146154776" lon="9.974322295250705"><ele>84.0</ele><time>2026-03-25T06:57:58.999Z</time></trkpt><trkpt lat="44.227515452490984" lon="9.974239801805819"><ele>87.0</ele><time>2026-03-25T06:57:59.999Z</time></trkpt><trkpt lat="44.227751509194945" lon="9.974155059158063"><ele>90.0</ele><time>2026-03-25T06:58:00.999Z</time></trkpt><trkpt lat="44.22798581822436" lon="9.97406649719217"><ele>93.5</ele><time>2026-03-25T06:58:01.999Z</time></trkpt><trkpt lat="44.22821959881627" lon="9.973974890949007"><ele>97.0</ele><time>2026-03-25T06:58:02.999Z</time></trkpt><trkpt lat="44.22845294153244" lon="9.973878118501661"><ele>97.0</ele><time>2026-03-25T06:58:03.999Z</time></trkpt><trkpt lat="44.22870485998278" lon="9.97377015731423"><ele>97.0</ele><time>2026-03-25T06:58:05.081Z</time></trkpt><trkpt lat="44.22893296845881" lon="9.973669710586758"><ele>82.0</ele><time>2026-03-25T06:58:06.06Z</time></trkpt><trkpt lat="44.23587529053227" lon="9.968551216408864"><ele>82.0</ele><time>2026-03-25T06:58:38.999Z</time></trkpt><trkpt lat="44.236056277081055" lon="9.968383092632594"><ele>82.0</ele><time>2026-03-25T06:58:39.999Z</time></trkpt><trkpt lat="44.236368351846586" lon="9.968311558241043"><ele>79.33333333333333</ele><time>2026-03-25T06:58:40.999Z</time></trkpt><trkpt lat="44.23653686381837" lon="9.968142114330108"><ele>76.66666666666667</ele><time>2026-03-25T06:58:41.999Z</time></trkpt><trkpt lat="44.23670341059503" lon="9.968019590141136"><ele>74.0</ele><time>2026-03-25T06:58:42.999Z</time></trkpt><trkpt lat="44.236907652833615" lon="9.967878988046984"><ele>74.0</ele><time>2026-03-25T06:58:43.999Z</time></trkpt><trkpt lat="44.237052330582266" lon="9.967763872336835"><ele>74.0</ele><time>2026-03-25T06:58:44.999Z</time></trkpt><trkpt lat="44.237195407292624" lon="9.967684522907017"><ele>74.0</ele><time>2026-03-25T06:58:45.999Z</time></trkpt><trkpt lat="44.23731478536099" lon="9.967602855934224"><ele>75.75</ele><time>2026-03-25T06:58:46.999Z</time></trkpt><trkpt lat="44.237413529215615" lon="9.967502891817286"><ele>77.5</ele><time>2026-03-25T06:58:47.999Z</time></trkpt><trkpt lat="44.23752198014957" lon="9.96740577666925"><ele>79.25</ele><time>2026-03-25T06:58:48.999Z</time></trkpt><trkpt lat="44.237633926348906" lon="9.967300647683832"><ele>81.0</ele><time>2026-03-25T06:58:49.999Z</time></trkpt><trkpt lat="44.23773483928881" lon="9.967202628387472"><ele>81.0</ele><time>2026-03-25T06:58:50.999Z</time></trkpt><trkpt lat="44.23783649595116" lon="9.967088819013796"><ele>81.0</ele><time>2026-03-25T06:58:51.999Z</time></trkpt><trkpt lat="44.23793529141679" lon="9.966971147509032"><ele>81.0</ele><time>2026-03-25T06:58:52.999Z</time></trkpt><trkpt lat="44.23802646250237" lon="9.96686838710195"><ele>81.0</ele><time>2026-03-25T06:58:53.999Z</time></trkpt><trkpt lat="44.238122579645726" lon="9.966765595116316"><ele>85.5</ele><time>2026-03-25T06:58:54.999Z</time></trkpt><trkpt lat="44.238227807361355" lon="9.96666676239571"><ele>90.0</ele><time>2026-03-25T06:58:55.999Z</time></trkpt><trkpt lat="44.238326836873526" lon="9.966568222036164"><ele>94.5</ele><time>2026-03-25T06:58:56.999Z</time></trkpt><trkpt lat="44.23842887377504" lon="9.966472261375282"><ele>99.0</ele><time>2026-03-25T06:58:57.999Z</time></trkpt><trkpt lat="44.238527731253335" lon="9.96638069045216"><ele>99.0</ele><time>2026-03-25T06:58:58.999Z</time></trkpt><trkpt lat="44.23862479540032" lon="9.966289593824373"><ele>99.0</ele><time>2026-03-25T06:58:59.999Z</time></trkpt><trkpt lat="44.238720894917755" lon="9.966199204641178"><ele>99.0</ele><time>2026-03-25T06:59:00.999Z</time></trkpt><trkpt lat="44.238813368953224" lon="9.966113037236195"><ele>99.0</ele><time>2026-03-25T06:59:01.999Z</time></trkpt><trkpt lat="44.238912772855" lon="9.966019511094764"><ele>102.0</ele><time>2026-03-25T06:59:03.07Z</time></trkpt><trkpt lat="44.23900433478879" lon="9.965932500473018"><ele>105.0</ele><time>2026-03-25T06:59:04.049Z</time></trkpt><trkpt lat="44.2129847547258" lon="9.978611351484833"><ele>98.0</ele><time>2026-03-25T06:55:11.999Z</time></trkpt><trkpt lat="44.213144698802616" lon="9.978571981929651"><ele>91.0</ele><time>2026-03-25T06:55:12.999Z</time></trkpt><trkpt lat="44.21330199099565" lon="9.97853067465353"><ele>84.0</ele><time>2026-03-25T06:55:13.999Z</time></trkpt><trkpt lat="44.21345652958181" lon="9.978490494350943"><ele>82.33333333333333</ele><time>2026-03-25T06:55:14.999Z</time></trkpt><trkpt lat="44.21361387705677" lon="9.978453494759853"><ele>80.66666666666666</ele><time>2026-03-25T06:55:15.999Z</time></trkpt><trkpt lat="44.21377181631809" lon="9.978416248473323"><ele>79.0</ele><time>2026-03-25T06:55:16.999Z</time></trkpt><trkpt lat="44.21392826598075" lon="9.978379615204766"><ele>75.0</ele><time>2026-03-25T06:55:17.999Z</time></trkpt><trkpt lat="44.21408102026882" lon="9.978342025754268"><ele>71.0</ele><time>2026-03-25T06:55:18.999Z</time></trkpt><trkpt lat="44.21423393533052" lon="9.978306719386582"><ele>67.0</ele><time>2026-03-25T06:55:19.999Z</time></trkpt><trkpt lat="44.21438145128642" lon="9.978271256225522"><ele>67.0</ele><time>2026-03-25T06:55:20.999Z</time></trkpt><trkpt lat="44.214526280803405" lon="9.978236517061774"><ele>67.0</ele><time>2026-03-25T06:55:21.999Z</time></trkpt><trkpt lat="44.214668260908596" lon="9.978201488916751"><ele>67.0</ele><time>2026-03-25T06:55:22.999Z</time></trkpt><trkpt lat="44.214806926246006" lon="9.978167955289276"><ele>67.0</ele><time>2026-03-25T06:55:23.999Z</time></trkpt><trkpt lat="44.21494427563785" lon="9.978135647939911"><ele>67.75</ele><time>2026-03-25T06:55:24.999Z</time></trkpt><trkpt lat="44.21507905321222" lon="9.978104643307216"><ele>68.5</ele><time>2026-03-25T06:55:25.999Z</time></trkpt><trkpt lat="44.21521033755059" lon="9.978074002556928"><ele>69.25</ele><time>2026-03-25T06:55:26.999Z</time></trkpt><trkpt lat="44.215337895659395" lon="9.978043309441128"><ele>70.0</ele><time>2026-03-25T06:55:27.999Z</time></trkpt><trkpt lat="44.21546439851565" lon="9.978014757707829"><ele>70.0</ele><time>2026-03-25T06:55:28.999Z</time></trkpt><trkpt lat="44.21558793553882" lon="9.977986161424404"><ele>70.0</ele><time>2026-03-25T06:55:29.999Z</time></trkpt><trkpt lat="44.21570876563957" lon="9.97795946635901"><ele>70.0</ele><time>2026-03-25T06:55:30.999Z</time></trkpt><trkpt lat="44.215831001957575" lon="9.977936307637071"><ele>70.0</ele><time>2026-03-25T06:55:31.999Z</time></trkpt><trkpt lat="44.21594808596404" lon="9.977911967457617"><ele>70.0</ele><time>2026-03-25T06:55:32.999Z</time></trkpt><trkpt lat="44.216064631020465" lon="9.977881704117904"><ele>70.0</ele><time>2026-03-25T06:55:33.999Z</time></trkpt><trkpt lat="44.21617863771793" lon="9.977857894054532"><ele>70.0</ele><time>2026-03-25T06:55:34.999Z</time></trkpt><trkpt lat="44.21629395568079" lon="9.977835688730403"><ele>70.0</ele><time>2026-03-25T06:55:35.999Z</time></trkpt><trkpt lat="44.21639677554223" lon="9.977809055479819"><ele>71.4</ele><time>2026-03-25T06:55:36.999Z</time></trkpt><trkpt lat="44.21649839753575" lon="9.977784593731457"><ele>72.8</ele><time>2026-03-25T06:55:37.999Z</time></trkpt><trkpt lat="44.21659939558288" lon="9.977758620659657"><ele>74.2</ele><time>2026-03-25T06:55:38.999Z</time></trkpt><trkpt lat="44.216695403183024" lon="9.977732230046632"><ele>75.6</ele><time>2026-03-25T06:55:39.999Z</time></trkpt><trkpt lat="44.21679029772858" lon="9.97770905481569"><ele>77.0</ele><time>2026-03-25T06:55:40.999Z</time></trkpt><trkpt lat="44.21688566138937" lon="9.977685938155682"><ele>77.0</ele><time>2026-03-25T06:55:41.999Z</time></trkpt><trkpt lat="44.21698226533074" lon="9.977663612405971"><ele>77.0</ele><time>2026-03-25T06:55:42.999Z</time></trkpt><trkpt lat="44.217078965698875" lon="9.977639982200671"><ele>77.0</ele><time>2026-03-25T06:55:43.999Z</time></trkpt><trkpt lat="44.217173829647955" lon="9.977615459931432"><ele>77.0</ele><time>2026-03-25T06:55:44.999Z</time></trkpt><trkpt lat="44.217268983741235" lon="9.977590500195586"><ele>77.0</ele><time>2026-03-25T06:55:45.999Z</time></trkpt><trkpt lat="44.217364523511336" lon="9.977565608910055"><ele>77.5</ele><time>2026-03-25T06:55:46.999Z</time></trkpt><trkpt lat="44.217455664407744" lon="9.977539754199128"><ele>78.0</ele><time>2026-03-25T06:55:47.999Z</time></trkpt><trkpt lat="44.21754429245819" lon="9.97751464566731"><ele>78.5</ele><time>2026-03-25T06:55:48.999Z</time></trkpt><trkpt lat="44.21762991274137" lon="9.977489020799913"><ele>79.0</ele><time>2026-03-25T06:55:49.999Z</time></trkpt><trkpt lat="44.21771366473285" lon="9.977463391346507"><ele>79.5</ele><time>2026-03-25T06:55:50.999Z</time></trkpt><trkpt lat="44.217793064351675" lon="9.977438294501178"><ele>80.0</ele><time>2026-03-25T06:55:51.999Z</time></trkpt><trkpt lat="44.217870399618086" lon="9.977414917946025"><ele>79.28571428571428</ele><time>2026-03-25T06:55:52.999Z</time></trkpt><trkpt lat="44.217946888970474" lon="9.977392438915087"><ele>78.57142857142857</ele><time>2026-03-25T06:55:53.999Z</time></trkpt><trkpt lat="44.21801924895076" lon="9.977370284097473"><ele>77.85714285714286</ele><time>2026-03-25T06:55:54.999Z</time></trkpt><trkpt lat="44.21808754516059" lon="9.977349776212586"><ele>77.14285714285714</ele><time>2026-03-25T06:55:55.999Z</time></trkpt><trkpt lat="44.21815409984875" lon="9.977328474664892"><ele>76.42857142857143</ele><time>2026-03-25T06:55:56.999Z</time></trkpt><trkpt lat="44.21821963160257" lon="9.977307902108317"><ele>75.71428571428571</ele><time>2026-03-25T06:55:57.999Z</time></trkpt><trkpt lat="44.218280990642945" lon="9.97728554070658"><ele>75.0</ele><time>2026-03-25T06:55:58.999Z</time></trkpt><trkpt lat="44.21839829680223" lon="9.97724986532125"><ele>75.0</ele><time>2026-03-25T06:56:00.999Z</time></trkpt><trkpt lat="44.218506809303214" lon="9.977216207851589"><ele>75.0</ele><time>2026-03-25T06:56:02.999Z</time></trkpt><trkpt lat="44.218598966270164" lon="9.97719136172458"><ele>75.0</ele><time>2026-03-25T06:56:04.999Z</time></trkpt><trkpt lat="44.218684811033604" lon="9.977162893523866"><ele>75.0</ele><time>2026-03-25T06:56:06.999Z</time></trkpt><trkpt lat="44.21876307318167" lon="9.97714080974581"><ele>75.0</ele><time>2026-03-25T06:56:08.999Z</time></trkpt><trkpt lat="44.21882668156528" lon="9.977125437265608"><ele>75.0</ele><time>2026-03-25T06:56:10.999Z</time></trkpt><trkpt lat="44.21889203047807" lon="9.977111560810789"><ele>75.0</ele><time>2026-03-25T06:56:13.999Z</time></trkpt><trkpt lat="44.218841239809905" lon="9.977036808456957"><ele>75.0</ele><time>2026-03-25T06:57:00.999Z</time></trkpt><trkpt lat="44.218925960006835" lon="9.977003922241803"><ele>75.0</ele><time>2026-03-25T06:57:05Z</time></trkpt><trkpt lat="44.21899134509777" lon="9.9769837690645"><ele>75.0</ele><time>2026-03-25T06:57:07Z</time></trkpt><trkpt lat="44.21906974050414" lon="9.976958782531486"><ele>75.0</ele><time>2026-03-25T06:57:09Z</time></trkpt><trkpt lat="44.219182408641394" lon="9.97692215973793"><ele>75.0</ele><time>2026-03-25T06:57:11Z</time></trkpt><trkpt lat="44.219248213014666" lon="9.976900843818113"><ele>75.66666666666667</ele><time>2026-03-25T06:57:12Z</time></trkpt><trkpt lat="44.21932082115396" lon="9.97688204151026"><ele>76.33333333333333</ele><time>2026-03-25T06:57:13Z</time></trkpt><trkpt lat="44.21940088620616" lon="9.976869709138814"><ele>77.0</ele><time>2026-03-25T06:57:14Z</time></trkpt><trkpt lat="44.219478905167826" lon="9.97685218941698"><ele>77.66666666666666</ele><time>2026-03-25T06:57:15Z</time></trkpt><trkpt lat="44.219572250956354" lon="9.976832966699636"><ele>78.33333333333333</ele><time>2026-03-25T06:57:16Z</time></trkpt><trkpt lat="44.21966462827315" lon="9.97680657289736"><ele>79.0</ele><time>2026-03-25T06:57:17Z</time></trkpt><trkpt lat="44.21975898713812" lon="9.97677452204443"><ele>78.25</ele><time>2026-03-25T06:57:18Z</time></trkpt><trkpt lat="44.219860776592036" lon="9.976739375383916"><ele>77.5</ele><time>2026-03-25T06:57:19Z</time></trkpt><trkpt lat="44.21996766231638" lon="9.976701918079025"><ele>76.75</ele><time>2026-03-25T06:57:20Z</time></trkpt><trkpt lat="44.2200794153727" lon="9.97666237457533"><ele>76.0</ele><time>2026-03-25T06:57:21Z</time></trkpt><trkpt lat="44.22019789640359" lon="9.97662237799384"><ele>76.0</ele><time>2026-03-25T06:57:22Z</time></trkpt><trkpt lat="44.22032146581791" lon="9.976577713333114"><ele>76.0</ele><time>2026-03-25T06:57:23Z</time></trkpt><trkpt lat="44.22044959602949" lon="9.97653270061179"><ele>76.0</ele><time>2026-03-25T06:57:24Z</time></trkpt><trkpt lat="44.22058425136848" lon="9.976485101439591"><ele>76.0</ele><time>2026-03-25T06:57:25Z</time></trkpt><trkpt lat="44.22072313531085" lon="9.976435042293005"><ele>76.0</ele><time>2026-03-25T06:57:26Z</time></trkpt><trkpt lat="44.220865954752014" lon="9.976383751588651"><ele>76.0</ele><time>2026-03-25T06:57:27Z</time></trkpt><trkpt lat="44.22101131470351" lon="9.976333271090954"><ele>76.0</ele><time>2026-03-25T06:57:28Z</time></trkpt><trkpt lat="44.22116509876995" lon="9.97628164205685"><ele>76.0</ele><time>2026-03-25T06:57:29Z</time></trkpt><trkpt lat="44.221324061972794" lon="9.976231057962892"><ele>76.0</ele><time>2026-03-25T06:57:30Z</time></trkpt><trkpt lat="44.221485061539674" lon="9.976177652682452"><ele>76.0</ele><time>2026-03-25T06:57:31Z</time></trkpt><trkpt lat="44.221650774033144" lon="9.976123772904831"><ele>80.33333333333333</ele><time>2026-03-25T06:57:32Z</time></trkpt><trkpt lat="44.2218203517295" lon="9.976069304808842"><ele>84.66666666666667</ele><time>2026-03-25T06:57:33Z</time></trkpt><trkpt lat="44.221994089841665" lon="9.97601641011002"><ele>89.0</ele><time>2026-03-25T06:57:34Z</time></trkpt><trkpt lat="44.22216814148107" lon="9.975961219975684"><ele>86.66666666666667</ele><time>2026-03-25T06:57:35Z</time></trkpt><trkpt lat="44.22234443101444" lon="9.97590431292005"><ele>84.33333333333333</ele><time>2026-03-25T06:57:36Z</time></trkpt><trkpt lat="44.22252358506504" lon="9.975846844411384"><ele>82.0</ele><time>2026-03-25T06:57:37Z</time></trkpt><trkpt lat="44.222700981214025" lon="9.975799856628184"><ele>82.0</ele><time>2026-03-25T06:57:38Z</time></trkpt><trkpt lat="44.22288004447704" lon="9.97574560255138"><ele>82.0</ele><time>2026-03-25T06:57:39Z</time></trkpt><trkpt lat="44.223072302491154" lon="9.975667256597845"><ele>82.0</ele><time>2026-03-25T06:57:40Z</time></trkpt><trkpt lat="44.223264110618146" lon="9.975601945209188"><ele>80.0</ele><time>2026-03-25T06:57:41Z</time></trkpt><trkpt lat="44.22346839174267" lon="9.97553937076568"><ele>78.0</ele><time>2026-03-25T06:57:42Z</time></trkpt><trkpt lat="44.223674589971914" lon="9.975477573774917"><ele>76.0</ele><time>2026-03-25T06:57:43Z</time></trkpt><trkpt lat="44.223883084743555" lon="9.975413252693977"><ele>75.33333333333333</ele><time>2026-03-25T06:57:44Z</time></trkpt><trkpt lat="44.224092425010845" lon="9.975347551927252"><ele>74.66666666666667</ele><time>2026-03-25T06:57:45Z</time></trkpt><trkpt lat="44.22430468299684" lon="9.975281305807648"><ele>74.0</ele><time>2026-03-25T06:57:46Z</time></trkpt><trkpt lat="44.22451870944111" lon="9.975213213165969"><ele>74.0</ele><time>2026-03-25T06:57:47Z</time></trkpt><trkpt lat="44.22473564849932" lon="9.975143197326382"><ele>74.0</ele><time>2026-03-25T06:57:48Z</time></trkpt><trkpt lat="44.22495680410734" lon="9.97507345381372"><ele>74.0</ele><time>2026-03-25T06:57:48.999Z</time></trkpt><trkpt lat="44.22517904059326" lon="9.975000886084189"><ele>70.0</ele><time>2026-03-25T06:57:49.999Z</time></trkpt><trkpt lat="44.22540554586293" lon="9.974928473031259"><ele>66.0</ele><time>2026-03-25T06:57:50.999Z</time></trkpt><trkpt lat="44.22563543608845" lon="9.974855309410168"><ele>69.0</ele><time>2026-03-25T06:57:51.999Z</time></trkpt><trkpt lat="44.2258680174626" lon="9.974781810128544"><ele>72.0</ele><time>2026-03-25T06:57:52.999Z</time></trkpt><trkpt lat="44.226101122589355" lon="9.974707231786823"><ele>72.0</ele><time>2026-03-25T06:57:53.999Z</time></trkpt><trkpt lat="44.22633729541455" lon="9.974632614191062"><ele>72.0</ele><time>2026-03-25T06:57:54.999Z</time></trkpt><trkpt lat="44.22657230998992" lon="9.974556421295718"><ele>78.0</ele><time>2026-03-25T06:57:55.999Z</time></trkpt><trkpt lat="44.22680905906263" lon="9.974481009591102"><ele>84.0</ele><time>2026-03-25T06:57:56.999Z</time></trkpt><trkpt lat="44.227046819603004" lon="9.9744025998492"><ele>84.0</ele><time>2026-03-25T06:57:57.999Z</time></trkpt><trkpt lat="44.22728146154776" lon="9.974322295250705"><ele>84.0</ele><time>2026-03-25T06:57:58.999Z</time></trkpt><trkpt lat="44.227515452490984" lon="9.974239801805819"><ele>87.0</ele><time>2026-03-25T06:57:59.999Z</time></trkpt><trkpt lat="44.227751509194945" lon="9.974155059158063"><ele>90.0</ele><time>2026-03-25T06:58:00.999Z</time></trkpt><trkpt lat="44.22798581822436" lon="9.97406649719217"><ele>93.5</ele><time>2026-03-25T06:58:01.999Z</time></trkpt><trkpt lat="44.22821959881627" lon="9.973974890949007"><ele>97.0</ele><time>2026-03-25T06:58:02.999Z</time></trkpt><trkpt lat="44.22845294153244" lon="9.973878118501661"><ele>97.0</ele><time>2026-03-25T06:58:03.999Z</time></trkpt><trkpt lat="44.22870485998278" lon="9.97377015731423"><ele>97.0</ele><time>2026-03-25T06:58:05.081Z</time></trkpt><trkpt lat="44.22893296845881" lon="9.973669710586758"><ele>82.0</ele><time>2026-03-25T06:58:06.06Z</time></trkpt><trkpt lat="44.23587529053227" lon="9.968551216408864"><ele>82.0</ele><time>2026-03-25T06:58:38.999Z</time></trkpt><trkpt lat="44.236056277081055" lon="9.968383092632594"><ele>82.0</ele><time>2026-03-25T06:58:39.999Z</time></trkpt><trkpt lat="44.236368351846586" lon="9.968311558241043"><ele>79.33333333333333</ele><time>2026-03-25T06:58:40.999Z</time></trkpt><trkpt lat="44.23653686381837" lon="9.968142114330108"><ele>76.66666666666667</ele><time>2026-03-25T06:58:41.999Z</time></trkpt><trkpt lat="44.23670341059503" lon="9.968019590141136"><ele>74.0</ele><time>2026-03-25T06:58:42.999Z</time></trkpt><trkpt lat="44.236907652833615" lon="9.967878988046984"><ele>74.0</ele><time>2026-03-25T06:58:43.999Z</time></trkpt><trkpt lat="44.237052330582266" lon="9.967763872336835"><ele>74.0</ele><time>2026-03-25T06:58:44.999Z</time></trkpt><trkpt lat="44.237195407292624" lon="9.967684522907017"><ele>74.0</ele><time>2026-03-25T06:58:45.999Z</time></trkpt><trkpt lat="44.23731478536099" lon="9.967602855934224"><ele>75.75</ele><time>2026-03-25T06:58:46.999Z</time></trkpt><trkpt lat="44.237413529215615" lon="9.967502891817286"><ele>77.5</ele><time>2026-03-25T06:58:47.999Z</time></trkpt><trkpt lat="44.23752198014957" lon="9.96740577666925"><ele>79.25</ele><time>2026-03-25T06:58:48.999Z</time></trkpt><trkpt lat="44.237633926348906" lon="9.967300647683832"><ele>81.0</ele><time>2026-03-25T06:58:49.999Z</time></trkpt><trkpt lat="44.23773483928881" lon="9.967202628387472"><ele>81.0</ele><time>2026-03-25T06:58:50.999Z</time></trkpt><trkpt lat="44.23783649595116" lon="9.967088819013796"><ele>81.0</ele><time>2026-03-25T06:58:51.999Z</time></trkpt><trkpt lat="44.23793529141679" lon="9.966971147509032"><ele>81.0</ele><time>2026-03-25T06:58:52.999Z</time></trkpt><trkpt lat="44.23802646250237" lon="9.96686838710195"><ele>81.0</ele><time>2026-03-25T06:58:53.999Z</time></trkpt><trkpt lat="44.238122579645726" lon="9.966765595116316"><ele>85.5</ele><time>2026-03-25T06:58:54.999Z</time></trkpt><trkpt lat="44.238227807361355" lon="9.96666676239571"><ele>90.0</ele><time>2026-03-25T06:58:55.999Z</time></trkpt><trkpt lat="44.238326836873526" lon="9.966568222036164"><ele>94.5</ele><time>2026-03-25T06:58:56.999Z</time></trkpt><trkpt lat="44.23842887377504" lon="9.966472261375282"><ele>99.0</ele><time>2026-03-25T06:58:57.999Z</time></trkpt><trkpt lat="44.238527731253335" lon="9.96638069045216"><ele>99.0</ele><time>2026-03-25T06:58:58.999Z</time></trkpt><trkpt lat="44.23862479540032" lon="9.966289593824373"><ele>99.0</ele><time>2026-03-25T06:58:59.999Z</time></trkpt><trkpt lat="44.238720894917755" lon="9.966199204641178"><ele>99.0</ele><time>2026-03-25T06:59:00.999Z</time></trkpt><trkpt lat="44.238813368953224" lon="9.966113037236195"><ele>99.0</ele><time>2026-03-25T06:59:01.999Z</time></trkpt><trkpt lat="44.238912772855" lon="9.966019511094764"><ele>102.0</ele><time>2026-03-25T06:59:03.07Z</time></trkpt><trkpt lat="44.23900433478879" lon="9.965932500473018"><ele>105.0</ele><time>2026-03-25T06:59:04.049Z</time></trkpt><trkpt lat="44.24449218752084" lon="9.9619749537377"><ele>106.5</ele><time>2026-03-25T07:01:02.999Z</time></trkpt><trkpt lat="44.24440977037234" lon="9.96199356212941"><ele>108.0</ele><time>2026-03-25T07:01:06.999Z</time></trkpt><trkpt lat="44.244624674309584" lon="9.962003979081045"><ele>109.5</ele><time>2026-03-25T07:01:07.999Z</time></trkpt><trkpt lat="44.24473277905511" lon="9.96198926371426"><ele>111.0</ele><time>2026-03-25T07:01:08.999Z</time></trkpt><trkpt lat="44.24480453856661" lon="9.961979140906685"><ele>111.0</ele><time>2026-03-25T07:01:10.999Z</time></trkpt><trkpt lat="44.24488315895524" lon="9.96194545346338"><ele>111.0</ele><time>2026-03-25T07:01:13.999Z</time></trkpt><trkpt lat="44.24494355768851" lon="9.96191528549401"><ele>111.0</ele><time>2026-03-25T07:01:17.068Z</time></trkpt><trkpt lat="44.24586387592002" lon="9.961325654958626"><ele>110.75</ele><time>2026-03-25T07:01:59Z</time></trkpt><trkpt lat="44.24601622772631" lon="9.96122435928607"><ele>110.5</ele><time>2026-03-25T07:02:01Z</time></trkpt><trkpt lat="44.24609848958458" lon="9.961147952519681"><ele>110.25</ele><time>2026-03-25T07:02:02Z</time></trkpt><trkpt lat="44.2461768443151" lon="9.961110279427269"><ele>110.0</ele><time>2026-03-25T07:02:03Z</time></trkpt><trkpt lat="44.246266899563416" lon="9.961020878148293"><ele>110.0</ele><time>2026-03-25T07:02:04Z</time></trkpt><trkpt lat="44.246363283569956" lon="9.960917271153924"><ele>110.0</ele><time>2026-03-25T07:02:05Z</time></trkpt><trkpt lat="44.24646594786687" lon="9.960870488592024"><ele>110.0</ele><time>2026-03-25T07:02:06Z</time></trkpt><trkpt lat="44.246560202875564" lon="9.960828984820655"><ele>110.0</ele><time>2026-03-25T07:02:07Z</time></trkpt><trkpt lat="44.24666013050722" lon="9.96076684132945"><ele>110.0</ele><time>2026-03-25T07:02:08Z</time></trkpt><trkpt lat="44.2467710484998" lon="9.960697763626992"><ele>105.0</ele><time>2026-03-25T07:02:09Z</time></trkpt><trkpt lat="44.2468824926457" lon="9.960628025387887"><ele>100.0</ele><time>2026-03-25T07:02:10Z</time></trkpt><trkpt lat="44.24699962093547" lon="9.960554137127698"><ele>95.0</ele><time>2026-03-25T07:02:11Z</time></trkpt><trkpt lat="44.247121534763174" lon="9.960479191751153"><ele>90.0</ele><time>2026-03-25T07:02:12Z</time></trkpt><trkpt lat="44.24724496944668" lon="9.9603989378073"><ele>92.0</ele><time>2026-03-25T07:02:13Z</time></trkpt><trkpt lat="44.247376163374156" lon="9.960317857207775"><ele>94.0</ele><time>2026-03-25T07:02:14Z</time></trkpt><trkpt lat="44.24750428999541" lon="9.960235172923692"><ele>96.0</ele><time>2026-03-25T07:02:15Z</time></trkpt><trkpt lat="44.247638597761636" lon="9.96014606729809"><ele>98.0</ele><time>2026-03-25T07:02:16Z</time></trkpt><trkpt lat="44.247764541860015" lon="9.960050378400483"><ele>100.5</ele><time>2026-03-25T07:02:17Z</time></trkpt><trkpt lat="44.24789112026688" lon="9.959951488548127"><ele>103.0</ele><time>2026-03-25T07:02:18Z</time></trkpt><trkpt lat="44.24801349051536" lon="9.959859639664947"><ele>105.5</ele><time>2026-03-25T07:02:19Z</time></trkpt><trkpt lat="44.248134860674206" lon="9.959755527239839"><ele>108.0</ele><time>2026-03-25T07:02:20Z</time></trkpt><trkpt lat="44.24825660336275" lon="9.95967548940543"><ele>110.25</ele><time>2026-03-25T07:02:21Z</time></trkpt><trkpt lat="44.248383302522484" lon="9.959566278229095"><ele>112.5</ele><time>2026-03-25T07:02:22.074Z</time></trkpt><trkpt lat="44.248497478986565" lon="9.959463467098821"><ele>114.75</ele><time>2026-03-25T07:02:23.058Z</time></trkpt><trkpt lat="44.248620546209956" lon="9.95936913539801"><ele>117.0</ele><time>2026-03-25T07:02:24.052Z</time></trkpt><trkpt lat="44.24873741297908" lon="9.959263958223081"><ele>120.0</ele><time>2026-03-25T07:02:25.052Z</time></trkpt><trkpt lat="44.24885025545548" lon="9.959155551197822"><ele>123.0</ele><time>2026-03-25T07:02:26.05Z</time></trkpt><trkpt lat="44.24888938369517" lon="9.95902045017205"><ele>126.0</ele><time>2026-03-25T07:02:27.044Z</time></trkpt><trkpt lat="44.24816919115702" lon="9.956489297002118"><ele>91.0</ele><time>2026-03-25T07:02:50.017Z</time></trkpt><trkpt lat="44.24874259509204" lon="9.956299924426649"><ele>108.0</ele><time>2026-03-25T07:02:51.014Z</time></trkpt><trkpt lat="44.24919678492663" lon="9.956110510145399"><ele>108.0</ele><time>2026-03-25T07:02:52.016Z</time></trkpt><trkpt lat="44.24918927485747" lon="9.9559698321455"><ele>108.0</ele><time>2026-03-25T07:02:53.017Z</time></trkpt><trkpt lat="44.24918090476113" lon="9.95582496323101"><ele>108.0</ele><time>2026-03-25T07:02:54.019Z</time></trkpt><trkpt lat="44.24937880640097" lon="9.95581865563279"><ele>108.0</ele><time>2026-03-25T07:02:55.02Z</time></trkpt><trkpt lat="44.25047567996076" lon="9.955774026882397"><ele>126.0</ele><time>2026-03-25T07:02:56.019Z</time></trkpt><trkpt lat="44.25128610405695" lon="9.95566046894297"><ele>135.0</ele><time>2026-03-25T07:02:57.021Z</time></trkpt><trkpt lat="44.25184831486809" lon="9.95554784951355"><ele>122.0</ele><time>2026-03-25T07:02:58.02Z</time></trkpt><trkpt lat="44.25292347747183" lon="9.955384624529827"><ele>106.0</ele><time>2026-03-25T07:02:59.018Z</time></trkpt><trkpt lat="44.25369987543897" lon="9.95522674409924"><ele>102.0</ele><time>2026-03-25T07:03:00.017Z</time></trkpt><trkpt lat="44.25418854575532" lon="9.955106544341042"><ele>100.0</ele><time>2026-03-25T07:03:01.02Z</time></trkpt><trkpt lat="44.25449739167466" lon="9.955000956720754"><ele>98.0</ele><time>2026-03-25T07:03:02.02Z</time></trkpt><trkpt lat="44.254755179002" lon="9.954896039117799"><ele>99.0</ele><time>2026-03-25T07:03:03.021Z</time></trkpt><trkpt lat="44.25552397566341" lon="9.954678618160898"><ele>100.5</ele><time>2026-03-25T07:03:04.019Z</time></trkpt><trkpt lat="44.25576813999808" lon="9.954580984801332"><ele>102.0</ele><time>2026-03-25T07:03:05.02Z</time></trkpt><trkpt lat="44.25614248924075" lon="9.954457265332001"><ele>102.0</ele><time>2026-03-25T07:03:06.021Z</time></trkpt><trkpt lat="44.2565059211028" lon="9.954342684286457"><ele>102.0</ele><time>2026-03-25T07:03:07.021Z</time></trkpt><trkpt lat="44.25691500052613" lon="9.954198432602993"><ele>100.0</ele><time>2026-03-25T07:03:08.021Z</time></trkpt><trkpt lat="44.257691178935694" lon="9.95394458082618"><ele>100.0</ele><time>2026-03-25T07:03:09.021Z</time></trkpt><trkpt lat="44.2580350542278" lon="9.95379123108238"><ele>100.0</ele><time>2026-03-25T07:03:10.018Z</time></trkpt><trkpt lat="44.258306673118724" lon="9.953681869596842"><ele>99.0</ele><time>2026-03-25T07:03:11.019Z</time></trkpt><trkpt lat="44.25853540865063" lon="9.953586163894238"><ele>98.0</ele><time>2026-03-25T07:03:12.019Z</time></trkpt><trkpt lat="44.258771497767185" lon="9.953491706789112"><ele>96.5</ele><time>2026-03-25T07:03:13.02Z</time></trkpt><trkpt lat="44.25900885051562" lon="9.953387397397075"><ele>95.0</ele><time>2026-03-25T07:03:14.02Z</time></trkpt><trkpt lat="44.25925687017727" lon="9.953285362076514"><ele>95.0</ele><time>2026-03-25T07:03:15.021Z</time></trkpt><trkpt lat="44.259501264652165" lon="9.953195020412911"><ele>95.0</ele><time>2026-03-25T07:03:16.02Z</time></trkpt><trkpt lat="44.25971593241032" lon="9.953110019155588"><ele>98.0</ele><time>2026-03-25T07:03:17.022Z</time></trkpt><trkpt lat="44.25991886215914" lon="9.953027585144374"><ele>101.0</ele><time>2026-03-25T07:03:18.023Z</time></trkpt><trkpt lat="44.26014047769348" lon="9.952925631918704"><ele>104.0</ele><time>2026-03-25T07:03:19.021Z</time></trkpt><trkpt lat="44.260468467832474" lon="9.952913774648888"><ele>108.0</ele><time>2026-03-25T07:03:20.025Z</time></trkpt><trkpt lat="44.2606987484234" lon="9.952857051242463"><ele>112.0</ele><time>2026-03-25T07:03:21.03Z</time></trkpt><trkpt lat="44.26115317922421" lon="9.952922299001434"><ele>113.0</ele><time>2026-03-25T07:03:22.021Z</time></trkpt><trkpt lat="44.26147990560931" lon="9.952962475575408"><ele>114.0</ele><time>2026-03-25T07:03:23.025Z</time></trkpt><trkpt lat="44.26177209665266" lon="9.952959304722732"><ele>114.0</ele><time>2026-03-25T07:03:24.026Z</time></trkpt><trkpt lat="44.262026729414345" lon="9.952920140800451"><ele>114.0</ele><time>2026-03-25T07:03:25.022Z</time></trkpt><trkpt lat="44.26229039509965" lon="9.952906426610879"><ele>110.0</ele><time>2026-03-25T07:03:26.024Z</time></trkpt><trkpt lat="44.26254666478072" lon="9.952892379514573"><ele>106.0</ele><time>2026-03-25T07:03:27.024Z</time></trkpt><trkpt lat="44.26280557473701" lon="9.95284275704256"><ele>106.0</ele><time>2026-03-25T07:03:28.025Z</time></trkpt><trkpt lat="44.2630535337756" lon="9.952825680235694"><ele>106.0</ele><time>2026-03-25T07:03:28.999Z</time></trkpt><trkpt lat="44.26330859806359" lon="9.95278995910536"><ele>105.0</ele><time>2026-03-25T07:03:29.999Z</time></trkpt><trkpt lat="44.26354715698835" lon="9.952765594490023"><ele>104.0</ele><time>2026-03-25T07:03:30.999Z</time></trkpt><trkpt lat="44.26380503836605" lon="9.952768774094702"><ele>103.0</ele><time>2026-03-25T07:03:31.999Z</time></trkpt><trkpt lat="44.26402584825438" lon="9.952759250491559"><ele>102.0</ele><time>2026-03-25T07:03:32.999Z</time></trkpt><trkpt lat="44.26429173433842" lon="9.95274470907628"><ele>102.0</ele><time>2026-03-25T07:03:33.999Z</time></trkpt><trkpt lat="44.264550999200615" lon="9.95272807547978"><ele>102.0</ele><time>2026-03-25T07:03:34.999Z</time></trkpt><trkpt lat="44.26486187156479" lon="9.952740564762932"><ele>101.0</ele><time>2026-03-25T07:03:35.999Z</time></trkpt><trkpt lat="44.26513519129728" lon="9.952727179842308"><ele>100.0</ele><time>2026-03-25T07:03:36.999Z</time></trkpt><trkpt lat="44.26539855167845" lon="9.952718483854037"><ele>103.5</ele><time>2026-03-25T07:03:37.999Z</time></trkpt><trkpt lat="44.265685927557826" lon="9.952711137922329"><ele>107.0</ele><time>2026-03-25T07:03:38.999Z</time></trkpt><trkpt lat="44.265948059108915" lon="9.952693545405154"><ele>107.0</ele><time>2026-03-25T07:03:40Z</time></trkpt><trkpt lat="44.266189324319186" lon="9.952674489126853"><ele>107.0</ele><time>2026-03-25T07:03:41Z</time></trkpt><trkpt lat="44.2664282842953" lon="9.95265715143405"><ele>108.5</ele><time>2026-03-25T07:03:42Z</time></trkpt><trkpt lat="44.26666514161797" lon="9.952640491537723"><ele>110.0</ele><time>2026-03-25T07:03:43Z</time></trkpt><trkpt lat="44.26690227960978" lon="9.952625723077395"><ele>110.0</ele><time>2026-03-25T07:03:44Z</time></trkpt><trkpt lat="44.26714024816241" lon="9.952606446942577"><ele>110.0</ele><time>2026-03-25T07:03:45Z</time></trkpt><trkpt lat="44.26738129138016" lon="9.952582370729784"><ele>120.0</ele><time>2026-03-25T07:03:46Z</time></trkpt><trkpt lat="44.267624525711526" lon="9.95256181392779"><ele>130.0</ele><time>2026-03-25T07:03:47Z</time></trkpt><trkpt lat="44.26787141413866" lon="9.952548365306852"><ele>119.5</ele><time>2026-03-25T07:03:48Z</time></trkpt><trkpt lat="44.26811268053382" lon="9.952524284472997"><ele>109.0</ele><time>2026-03-25T07:03:49Z</time></trkpt><trkpt lat="44.2683583443333" lon="9.952506435708724"><ele>109.0</ele><time>2026-03-25T07:03:50Z</time></trkpt><trkpt lat="44.268599240847074" lon="9.952478760241105"><ele>109.0</ele><time>2026-03-25T07:03:51Z</time></trkpt><trkpt lat="44.268840706079274" lon="9.952456340331132"><ele>107.5</ele><time>2026-03-25T07:03:52Z</time></trkpt><trkpt lat="44.26908622410196" lon="9.95244964656138"><ele>106.0</ele><time>2026-03-25T07:03:53Z</time></trkpt><trkpt lat="44.26932964817672" lon="9.952453691465966"><ele>106.0</ele><time>2026-03-25T07:03:54Z</time></trkpt><trkpt lat="44.2695670282928" lon="9.952471301064541"><ele>106.0</ele><time>2026-03-25T07:03:55Z</time></trkpt><trkpt lat="44.26980849508254" lon="9.95248900162004"><ele>123.0</ele><time>2026-03-25T07:03:56Z</time></trkpt><trkpt lat="44.27003780925656" lon="9.952543472568653"><ele>140.0</ele><time>2026-03-25T07:03:57Z</time></trkpt><trkpt lat="44.2702935208155" lon="9.952614053024785"><ele>140.0</ele><time>2026-03-25T07:03:58Z</time></trkpt><trkpt lat="44.270549970851285" lon="9.952669601225772"><ele>140.0</ele><time>2026-03-25T07:03:59Z</time></trkpt><trkpt lat="44.270751793558496" lon="9.952760486677349"><ele>136.0</ele><time>2026-03-25T07:04:00Z</time></trkpt><trkpt lat="44.270969216629666" lon="9.952937373463664"><ele>132.0</ele><time>2026-03-25T07:04:01Z</time></trkpt><trkpt lat="44.27120930807223" lon="9.95311155814035"><ele>132.0</ele><time>2026-03-25T07:04:02Z</time></trkpt><trkpt lat="44.27142828804987" lon="9.95330023996118"><ele>132.0</ele><time>2026-03-25T07:04:03Z</time></trkpt><trkpt lat="44.271629256487984" lon="9.953503018522236"><ele>131.33333333333334</ele><time>2026-03-25T07:04:04Z</time></trkpt><trkpt lat="44.271810857264825" lon="9.953662233994898"><ele>130.66666666666669</ele><time>2026-03-25T07:04:05Z</time></trkpt><trkpt lat="44.272007835885724" lon="9.953830188187938"><ele>130.0</ele><time>2026-03-25T07:04:06Z</time></trkpt><trkpt lat="44.27222880366795" lon="9.953989702496077"><ele>134.0</ele><time>2026-03-25T07:04:07Z</time></trkpt><trkpt lat="44.27244376992422" lon="9.954157003272423"><ele>138.0</ele><time>2026-03-25T07:04:08Z</time></trkpt><trkpt lat="44.2726784970562" lon="9.954297468377824"><ele>138.0</ele><time>2026-03-25T07:04:09Z</time></trkpt><trkpt lat="44.27292470851531" lon="9.95442825108243"><ele>138.0</ele><time>2026-03-25T07:04:10Z</time></trkpt><trkpt lat="44.273144786258676" lon="9.954560848011106"><ele>137.0</ele><time>2026-03-25T07:04:11Z</time></trkpt><trkpt lat="44.27337162792614" lon="9.954602245835943"><ele>136.0</ele><time>2026-03-25T07:04:12Z</time></trkpt><trkpt lat="44.273617506597155" lon="9.954615788816422"><ele>136.0</ele><time>2026-03-25T07:04:13Z</time></trkpt><trkpt lat="44.273877324856535" lon="9.954649361806306"><ele>136.0</ele><time>2026-03-25T07:04:14Z</time></trkpt><trkpt lat="44.27411565569561" lon="9.954672025364928"><ele>134.5</ele><time>2026-03-25T07:04:15Z</time></trkpt><trkpt lat="44.27436654498307" lon="9.954707124537235"><ele>133.0</ele><time>2026-03-25T07:04:16Z</time></trkpt><trkpt lat="44.27464764289686" lon="9.954709450996393"><ele>139.0</ele><time>2026-03-25T07:04:17Z</time></trkpt><trkpt lat="44.27492056049338" lon="9.954631596781034"><ele>145.0</ele><time>2026-03-25T07:04:18Z</time></trkpt><trkpt lat="44.275164970068346" lon="9.954595427511949"><ele>145.0</ele><time>2026-03-25T07:04:19Z</time></trkpt><trkpt lat="44.27540318355947" lon="9.95446452462585"><ele>145.0</ele><time>2026-03-25T07:04:20Z</time></trkpt><trkpt lat="44.27568111955379" lon="9.954358697163414"><ele>152.0</ele><time>2026-03-25T07:04:21Z</time></trkpt><trkpt lat="44.275999945643456" lon="9.954316474168426"><ele>159.0</ele><time>2026-03-25T07:04:22Z</time></trkpt><trkpt lat="44.27621893741638" lon="9.954274946995287"><ele>163.5</ele><time>2026-03-25T07:04:23Z</time></trkpt><trkpt lat="44.27645134147365" lon="9.954219663898181"><ele>168.0</ele><time>2026-03-25T07:04:24Z</time></trkpt><trkpt lat="44.27668550917132" lon="9.954097218343394"><ele>157.5</ele><time>2026-03-25T07:04:25Z</time></trkpt><trkpt lat="44.27690591981235" lon="9.953907129145481"><ele>147.0</ele><time>2026-03-25T07:04:26Z</time></trkpt><trkpt lat="44.27711475954052" lon="9.953798445876094"><ele>148.5</ele><time>2026-03-25T07:04:27Z</time></trkpt><trkpt lat="44.27733426115924" lon="9.953695822769483"><ele>150.0</ele><time>2026-03-25T07:04:28Z</time></trkpt><trkpt lat="44.27751659106711" lon="9.953500730197051"><ele>139.0</ele><time>2026-03-25T07:04:29Z</time></trkpt><trkpt lat="44.27774009536281" lon="9.95332147832477"><ele>128.0</ele><time>2026-03-25T07:04:30Z</time></trkpt><trkpt lat="44.277959614473026" lon="9.953138270370243"><ele>137.0</ele><time>2026-03-25T07:04:31Z</time></trkpt><trkpt lat="44.278216171267964" lon="9.952970599482247"><ele>146.0</ele><time>2026-03-25T07:04:32Z</time></trkpt><trkpt lat="44.27844920357514" lon="9.952789061498297"><ele>146.0</ele><time>2026-03-25T07:04:33Z</time></trkpt><trkpt lat="44.27866824278911" lon="9.952628306808789"><ele>146.0</ele><time>2026-03-25T07:04:34Z</time></trkpt><trkpt lat="44.27885001691462" lon="9.952257009556527"><ele>138.0</ele><time>2026-03-25T07:04:35Z</time></trkpt><trkpt lat="44.27909370132733" lon="9.952134655829022"><ele>130.0</ele><time>2026-03-25T07:04:36Z</time></trkpt><trkpt lat="44.27932456664443" lon="9.95201873859103"><ele>130.0</ele><time>2026-03-25T07:04:37Z</time></trkpt><trkpt lat="44.279563636261756" lon="9.951899400833979"><ele>130.0</ele><time>2026-03-25T07:04:38Z</time></trkpt><trkpt lat="44.279843131140936" lon="9.951833969350153"><ele>131.0</ele><time>2026-03-25T07:04:39Z</time></trkpt><trkpt lat="44.280067452968375" lon="9.951730363738974"><ele>132.0</ele><time>2026-03-25T07:04:40Z</time></trkpt><trkpt lat="44.28029218443834" lon="9.951594798017396"><ele>126.5</ele><time>2026-03-25T07:04:41Z</time></trkpt><trkpt lat="44.28051335650609" lon="9.951450134817087"><ele>121.0</ele><time>2026-03-25T07:04:42Z</time></trkpt><trkpt lat="44.2807475344861" lon="9.951298471763318"><ele>121.0</ele><time>2026-03-25T07:04:43Z</time></trkpt><trkpt lat="44.28101399751159" lon="9.951127041588405"><ele>121.0</ele><time>2026-03-25T07:04:44Z</time></trkpt><trkpt lat="44.2812393375413" lon="9.95097812339107"><ele>119.0</ele><time>2026-03-25T07:04:45Z</time></trkpt><trkpt lat="44.28147141280152" lon="9.950861815078321"><ele>117.0</ele><time>2026-03-25T07:04:46Z</time></trkpt><trkpt lat="44.281690122151815" lon="9.950809402176631"><ele>117.0</ele><time>2026-03-25T07:04:47Z</time></trkpt><trkpt lat="44.281892191352654" lon="9.950794678673422"><ele>117.0</ele><time>2026-03-25T07:04:48Z</time></trkpt><trkpt lat="44.28213929626147" lon="9.950783002931361"><ele>117.0</ele><time>2026-03-25T07:04:49Z</time></trkpt><trkpt lat="44.28240223620223" lon="9.950701954857882"><ele>117.0</ele><time>2026-03-25T07:04:50Z</time></trkpt><trkpt lat="44.28269760402802" lon="9.950517941912707"><ele>117.0</ele><time>2026-03-25T07:04:51Z</time></trkpt><trkpt lat="44.282903213192924" lon="9.950304041602344"><ele>117.0</ele><time>2026-03-25T07:04:52Z</time></trkpt><trkpt lat="44.283085643680714" lon="9.95011040917816"><ele>118.66666666666666</ele><time>2026-03-25T07:04:53Z</time></trkpt><trkpt lat="44.28324961937144" lon="9.949944862593528"><ele>120.33333333333333</ele><time>2026-03-25T07:04:54Z</time></trkpt><trkpt lat="44.283429579483425" lon="9.949806151604298"><ele>122.0</ele><time>2026-03-25T07:04:55Z</time></trkpt><trkpt lat="44.283629373569454" lon="9.949697310309336"><ele>122.0</ele><time>2026-03-25T07:04:56Z</time></trkpt><trkpt lat="44.28383754451601" lon="9.949599787785582"><ele>122.0</ele><time>2026-03-25T07:04:57Z</time></trkpt><trkpt lat="44.28397636189994" lon="9.949187638450779"><ele>123.0</ele><time>2026-03-25T07:04:58Z</time></trkpt><trkpt lat="44.28417688420651" lon="9.949066232508144"><ele>124.0</ele><time>2026-03-25T07:04:59Z</time></trkpt><trkpt lat="44.284369310634666" lon="9.948948215675836"><ele>125.0</ele><time>2026-03-25T07:05:00Z</time></trkpt><trkpt lat="44.28456123195922" lon="9.948832047453166"><ele>125.0</ele><time>2026-03-25T07:05:01Z</time></trkpt><trkpt lat="44.284757696848324" lon="9.948748978271837"><ele>125.0</ele><time>2026-03-25T07:05:02Z</time></trkpt><trkpt lat="44.28495003545898" lon="9.948670561820034"><ele>125.0</ele><time>2026-03-25T07:05:03Z</time></trkpt><trkpt lat="44.285235511151996" lon="9.949062967709493"><ele>126.66666666666666</ele><time>2026-03-25T07:05:04Z</time></trkpt><trkpt lat="44.2854150669442" lon="9.948993895513702"><ele>128.33333333333334</ele><time>2026-03-25T07:05:05Z</time></trkpt><trkpt lat="44.28561310943828" lon="9.948917712164121"><ele>130.0</ele><time>2026-03-25T07:05:06Z</time></trkpt><trkpt lat="44.28579118094916" lon="9.948849406752517"><ele>132.33333333333334</ele><time>2026-03-25T07:05:07Z</time></trkpt><trkpt lat="44.285950808203374" lon="9.948793933409666"><ele>134.66666666666666</ele><time>2026-03-25T07:05:08Z</time></trkpt><trkpt lat="44.28614801117693" lon="9.948743197374684"><ele>137.0</ele><time>2026-03-25T07:05:09Z</time></trkpt><trkpt lat="44.28634090695449" lon="9.94869816414556"><ele>140.66666666666666</ele><time>2026-03-25T07:05:10Z</time></trkpt><trkpt lat="44.286527166189686" lon="9.948657427171979"><ele>144.33333333333334</ele><time>2026-03-25T07:05:11Z</time></trkpt><trkpt lat="44.28672305906922" lon="9.948617066888845"><ele>148.0</ele><time>2026-03-25T07:05:12Z</time></trkpt><trkpt lat="44.28691711463976" lon="9.9485779819647"><ele>148.0</ele><time>2026-03-25T07:05:13Z</time></trkpt><trkpt lat="44.28711097577928" lon="9.948538936198482"><ele>148.0</ele><time>2026-03-25T07:05:14Z</time></trkpt><trkpt lat="44.287303825246866" lon="9.94850009419547"><ele>148.0</ele><time>2026-03-25T07:05:15Z</time></trkpt><trkpt lat="44.28750154372391" lon="9.948454218454488"><ele>151.66666666666669</ele><time>2026-03-25T07:05:16Z</time></trkpt><trkpt lat="44.28770770237606" lon="9.948384210835286"><ele>155.33333333333334</ele><time>2026-03-25T07:05:17Z</time></trkpt><trkpt lat="44.28789489172396" lon="9.948308701721976"><ele>159.0</ele><time>2026-03-25T07:05:18Z</time></trkpt><trkpt lat="44.288075166707664" lon="9.948235183989143"><ele>152.33333333333334</ele><time>2026-03-25T07:05:19Z</time></trkpt><trkpt lat="44.28825082967965" lon="9.948163547082597"><ele>145.66666666666669</ele><time>2026-03-25T07:05:20Z</time></trkpt><trkpt lat="44.288423745791626" lon="9.948093967183652"><ele>139.0</ele><time>2026-03-25T07:05:21Z</time></trkpt><trkpt lat="44.288592885695486" lon="9.948030697035895"><ele>139.0</ele><time>2026-03-25T07:05:22Z</time></trkpt><trkpt lat="44.288761228963025" lon="9.94798979303094"><ele>139.0</ele><time>2026-03-25T07:05:23Z</time></trkpt><trkpt lat="44.28891748271567" lon="9.948000019406955"><ele>139.0</ele><time>2026-03-25T07:05:24Z</time></trkpt><trkpt lat="44.28909746977113" lon="9.947964757146437"><ele>134.0</ele><time>2026-03-25T07:05:25Z</time></trkpt><trkpt lat="44.28920677101273" lon="9.948038366101756"><ele>129.0</ele><time>2026-03-25T07:05:26Z</time></trkpt><trkpt lat="44.28947957575703" lon="9.948322241580861"><ele>129.0</ele><time>2026-03-25T07:05:27Z</time></trkpt><trkpt lat="44.289618280177784" lon="9.948292058522421"><ele>129.0</ele><time>2026-03-25T07:05:28Z</time></trkpt><trkpt lat="44.28978926987732" lon="9.948240929602298"><ele>129.0</ele><time>2026-03-25T07:05:29Z</time></trkpt><trkpt lat="44.28993483054733" lon="9.948195741394713"><ele>128.0</ele><time>2026-03-25T07:05:30Z</time></trkpt><trkpt lat="44.290080135370566" lon="9.948150632552924"><ele>127.0</ele><time>2026-03-25T07:05:31Z</time></trkpt><trkpt lat="44.2901816968605" lon="9.947879097163218"><ele>126.0</ele><time>2026-03-25T07:05:32Z</time></trkpt><trkpt lat="44.290337357484056" lon="9.947903624900158"><ele>126.0</ele><time>2026-03-25T07:05:33Z</time></trkpt><trkpt lat="44.290489247762046" lon="9.947921081084296"><ele>126.0</ele><time>2026-03-25T07:05:34Z</time></trkpt><trkpt lat="44.29063776807365" lon="9.94794366950327"><ele>126.0</ele><time>2026-03-25T07:05:35Z</time></trkpt><trkpt lat="44.29078265491291" lon="9.947955192607386"><ele>126.0</ele><time>2026-03-25T07:05:36Z</time></trkpt><trkpt lat="44.2909148218821" lon="9.947987218449754"><ele>124.5</ele><time>2026-03-25T07:05:37Z</time></trkpt><trkpt lat="44.29106181397275" lon="9.948009294033701"><ele>123.0</ele><time>2026-03-25T07:05:38Z</time></trkpt><trkpt lat="44.291204427809056" lon="9.948025464325656"><ele>121.5</ele><time>2026-03-25T07:05:39Z</time></trkpt><trkpt lat="44.29133519965627" lon="9.94804590265607"><ele>120.0</ele><time>2026-03-25T07:05:39.999Z</time></trkpt><trkpt lat="44.291466693946425" lon="9.948067717322694"><ele>120.0</ele><time>2026-03-25T07:05:40.999Z</time></trkpt><trkpt lat="44.29159677514417" lon="9.948088903074462"><ele>120.0</ele><time>2026-03-25T07:05:41.999Z</time></trkpt><trkpt lat="44.29171815475425" lon="9.948110334071915"><ele>120.0</ele><time>2026-03-25T07:05:42.999Z</time></trkpt><trkpt lat="44.29183685412924" lon="9.948129813609341"><ele>120.0</ele><time>2026-03-25T07:05:43.999Z</time></trkpt><trkpt lat="44.29195464676428" lon="9.948151572323063"><ele>120.0</ele><time>2026-03-25T07:05:44.999Z</time></trkpt><trkpt lat="44.292070598820615" lon="9.948172373232266"><ele>120.0</ele><time>2026-03-25T07:05:45.999Z</time></trkpt><trkpt lat="44.292179540872226" lon="9.948190403724254"><ele>120.0</ele><time>2026-03-25T07:05:46.999Z</time></trkpt><trkpt lat="44.292287967429864" lon="9.948207504532274"><ele>120.0</ele><time>2026-03-25T07:05:47.999Z</time></trkpt><trkpt lat="44.292394801045134" lon="9.948225863913107"><ele>120.0</ele><time>2026-03-25T07:05:48.999Z</time></trkpt><trkpt lat="44.29250252724755" lon="9.94824118773246"><ele>121.0</ele><time>2026-03-25T07:05:49.999Z</time></trkpt><trkpt lat="44.292604595763486" lon="9.948252732587552"><ele>122.0</ele><time>2026-03-25T07:05:50.999Z</time></trkpt><trkpt lat="44.2927046507762" lon="9.948265407430222"><ele>123.0</ele><time>2026-03-25T07:05:51.999Z</time></trkpt><trkpt lat="44.292801775634594" lon="9.948276794636763"><ele>124.0</ele><time>2026-03-25T07:05:52.999Z</time></trkpt><trkpt lat="44.29289564372505" lon="9.948284700026484"><ele>125.0</ele><time>2026-03-25T07:05:53.999Z</time></trkpt><trkpt lat="44.29299332978838" lon="9.948290525235645"><ele>124.99999999999999</ele><time>2026-03-25T07:05:54.999Z</time></trkpt><trkpt lat="44.29307910474987" lon="9.948291847395108"><ele>125.0</ele><time>2026-03-25T07:05:55.999Z</time></trkpt><trkpt lat="44.29316885953614" lon="9.94829404473705"><ele>125.0</ele><time>2026-03-25T07:05:56.999Z</time></trkpt><trkpt lat="44.29324591963381" lon="9.948285710479405"><ele>125.0</ele><time>2026-03-25T07:05:57.999Z</time></trkpt><trkpt lat="44.29332957014816" lon="9.948283463875141"><ele>124.99999999999999</ele><time>2026-03-25T07:05:58.999Z</time></trkpt><trkpt lat="44.29341087148292" lon="9.948278366009902"><ele>125.0</ele><time>2026-03-25T07:05:59.999Z</time></trkpt><trkpt lat="44.29348200281736" lon="9.948267870916029"><ele>125.28571428571428</ele><time>2026-03-25T07:06:00.999Z</time></trkpt><trkpt lat="44.293553329809384" lon="9.948257036315015"><ele>125.57142857142858</ele><time>2026-03-25T07:06:01.999Z</time></trkpt><trkpt lat="44.29362694959828" lon="9.948249174593839"><ele>125.85714285714286</ele><time>2026-03-25T07:06:02.999Z</time></trkpt><trkpt lat="44.2936955888211" lon="9.948235314801414"><ele>126.14285714285714</ele><time>2026-03-25T07:06:04Z</time></trkpt><trkpt lat="44.29376544192427" lon="9.948224116107616"><ele>126.42857142857142</ele><time>2026-03-25T07:06:05Z</time></trkpt><trkpt lat="44.293829048759235" lon="9.94821123130775"><ele>126.71428571428572</ele><time>2026-03-25T07:06:06Z</time></trkpt><trkpt lat="44.29390176528597" lon="9.94819871506401"><ele>127.0</ele><time>2026-03-25T07:06:07Z</time></trkpt><trkpt lat="44.293969817276405" lon="9.948183525338015"><ele>127.50000000000001</ele><time>2026-03-25T07:06:08Z</time></trkpt><trkpt lat="44.2940375117652" lon="9.94816865742398"><ele>128.0</ele><time>2026-03-25T07:06:09Z</time></trkpt><trkpt lat="44.294103915542664" lon="9.948154212536117"><ele>128.5</ele><time>2026-03-25T07:06:10Z</time></trkpt><trkpt lat="44.29416933713751" lon="9.948141903928562"><ele>129.0</ele><time>2026-03-25T07:06:11Z</time></trkpt><trkpt lat="44.294290697230906" lon="9.948117168397141"><ele>129.5</ele><time>2026-03-25T07:06:13Z</time></trkpt><trkpt lat="44.29440639266425" lon="9.948094211171021"><ele>130.0</ele><time>2026-03-25T07:06:15Z</time></trkpt><trkpt lat="44.294512895956785" lon="9.948071330914019"><ele>130.0</ele><time>2026-03-25T07:06:17Z</time></trkpt><trkpt lat="44.294605225874754" lon="9.948053263331468"><ele>130.0</ele><time>2026-03-25T07:06:19Z</time></trkpt><trkpt lat="44.29468417492774" lon="9.948036111922018"><ele>130.0</ele><time>2026-03-25T07:06:22Z</time></trkpt><trkpt lat="44.29477548063433" lon="9.948020200095486"><ele>130.0</ele><time>2026-03-25T07:07:15.999Z</time></trkpt><trkpt lat="44.29488443053161" lon="9.947998645572527"><ele>130.0</ele><time>2026-03-25T07:07:18.999Z</time></trkpt><trkpt lat="44.294980665313155" lon="9.947979574020744"><ele>130.6</ele><time>2026-03-25T07:07:20.999Z</time></trkpt><trkpt lat="44.29509709437556" lon="9.9479568086497"><ele>131.2</ele><time>2026-03-25T07:07:22.999Z</time></trkpt><trkpt lat="44.295163972689686" lon="9.94794246317379"><ele>131.8</ele><time>2026-03-25T07:07:23.999Z</time></trkpt><trkpt lat="44.29531095120228" lon="9.947913760814066"><ele>132.4</ele><time>2026-03-25T07:07:25.999Z</time></trkpt><trkpt lat="44.295395554557714" lon="9.947897931052488"><ele>133.0</ele><time>2026-03-25T07:07:26.999Z</time></trkpt><trkpt lat="44.29548172969997" lon="9.947880626264793"><ele>133.0</ele><time>2026-03-25T07:07:27.999Z</time></trkpt><trkpt lat="44.29557401415572" lon="9.94786284271647"><ele>133.0</ele><time>2026-03-25T07:07:28.999Z</time></trkpt><trkpt lat="44.29567033559499" lon="9.947843558416249"><ele>133.0</ele><time>2026-03-25T07:07:29.999Z</time></trkpt><trkpt lat="44.295776186095" lon="9.947823603438469"><ele>133.0</ele><time>2026-03-25T07:07:30.999Z</time></trkpt><trkpt lat="44.29588335832276" lon="9.947800493672817"><ele>133.0</ele><time>2026-03-25T07:07:31.999Z</time></trkpt><trkpt lat="44.296000166786904" lon="9.947777929159974"><ele>133.0</ele><time>2026-03-25T07:07:32.999Z</time></trkpt><trkpt lat="44.29611887979526" lon="9.947753858808719"><ele>133.0</ele><time>2026-03-25T07:07:33.999Z</time></trkpt><trkpt lat="44.29624529717494" lon="9.947730101556722"><ele>133.0</ele><time>2026-03-25T07:07:34.999Z</time></trkpt><trkpt lat="44.29637559908062" lon="9.94770397416435"><ele>133.0</ele><time>2026-03-25T07:07:35.999Z</time></trkpt><trkpt lat="44.29651031203335" lon="9.947677873211207"><ele>134.0</ele><time>2026-03-25T07:07:36.999Z</time></trkpt><trkpt lat="44.29665099550483" lon="9.947649238032332"><ele>135.0</ele><time>2026-03-25T07:07:37.999Z</time></trkpt><trkpt lat="44.29679357097005" lon="9.947621572285204"><ele>136.0</ele><time>2026-03-25T07:07:38.999Z</time></trkpt><trkpt lat="44.296938602789034" lon="9.947588014956487"><ele>137.0</ele><time>2026-03-25T07:07:39.999Z</time></trkpt><trkpt lat="44.29708641758778" lon="9.947554332160184"><ele>137.0</ele><time>2026-03-25T07:07:40.999Z</time></trkpt><trkpt lat="44.29725401633105" lon="9.9475268981283"><ele>137.0</ele><time>2026-03-25T07:07:41.999Z</time></trkpt><trkpt lat="44.29741680428041" lon="9.947491062310974"><ele>137.0</ele><time>2026-03-25T07:07:42.999Z</time></trkpt><trkpt lat="44.29758579772076" lon="9.947457548583593"><ele>137.0</ele><time>2026-03-25T07:07:43.999Z</time></trkpt><trkpt lat="44.29775624446351" lon="9.947433298645334"><ele>137.0</ele><time>2026-03-25T07:07:44.999Z</time></trkpt><trkpt lat="44.29793299667126" lon="9.947394159005153"><ele>137.0</ele><time>2026-03-25T07:07:45.997Z</time></trkpt><trkpt lat="44.29809413942601" lon="9.94735077655274"><ele>137.0</ele><time>2026-03-25T07:07:46.997Z</time></trkpt><trkpt lat="44.29827873154761" lon="9.947305995471698"><ele>137.0</ele><time>2026-03-25T07:07:47.997Z</time></trkpt><trkpt lat="44.29846885321824" lon="9.94727124395844"><ele>137.0</ele><time>2026-03-25T07:07:48.997Z</time></trkpt><trkpt lat="44.29865602407597" lon="9.947229393084397"><ele>137.0</ele><time>2026-03-25T07:07:49.997Z</time></trkpt><trkpt lat="44.2988453945502" lon="9.94718920974309"><ele>137.0</ele><time>2026-03-25T07:07:50.997Z</time></trkpt><trkpt lat="44.29904800334265" lon="9.947152703822622"><ele>137.0</ele><time>2026-03-25T07:07:51.997Z</time></trkpt><trkpt lat="44.299251491439584" lon="9.947117114085565"><ele>137.0</ele><time>2026-03-25T07:07:52.997Z</time></trkpt><trkpt lat="44.2994547664455" lon="9.947078401563036"><ele>137.0</ele><time>2026-03-25T07:07:53.998Z</time></trkpt><trkpt lat="44.299663032693175" lon="9.94703711466349"><ele>137.0</ele><time>2026-03-25T07:07:54.998Z</time></trkpt><trkpt lat="44.299875246012085" lon="9.946996964761915"><ele>137.0</ele><time>2026-03-25T07:07:55.998Z</time></trkpt><trkpt lat="44.30008867178796" lon="9.946954396732755"><ele>137.0</ele><time>2026-03-25T07:07:56.998Z</time></trkpt><trkpt lat="44.300308676853014" lon="9.946912428103074"><ele>137.0</ele><time>2026-03-25T07:07:57.998Z</time></trkpt><trkpt lat="44.30053008585189" lon="9.946867685253208"><ele>139.0</ele><time>2026-03-25T07:07:58.998Z</time></trkpt><trkpt lat="44.30075615640452" lon="9.94682304258407"><ele>141.0</ele><time>2026-03-25T07:07:59.998Z</time></trkpt><trkpt lat="44.30098438131933" lon="9.946776201515538"><ele>141.0</ele><time>2026-03-25T07:08:00.998Z</time></trkpt><trkpt lat="44.301211862859965" lon="9.946728742917589"><ele>141.0</ele><time>2026-03-25T07:08:01.998Z</time></trkpt><trkpt lat="44.30144148429886" lon="9.946680982704"><ele>139.5</ele><time>2026-03-25T07:08:02.998Z</time></trkpt><trkpt lat="44.3016756849156" lon="9.946635115582442"><ele>138.0</ele><time>2026-03-25T07:08:03.998Z</time></trkpt><trkpt lat="44.30190774545495" lon="9.946588928668092"><ele>138.0</ele><time>2026-03-25T07:08:04.998Z</time></trkpt><trkpt lat="44.30213810178344" lon="9.946539842366652"><ele>138.0</ele><time>2026-03-25T07:08:05.998Z</time></trkpt><trkpt lat="44.3023820765752" lon="9.94649479211494"><ele>139.0</ele><time>2026-03-25T07:08:06.998Z</time></trkpt><trkpt lat="44.30262760456524" lon="9.946457852257419"><ele>140.0</ele><time>2026-03-25T07:08:07.998Z</time></trkpt><trkpt lat="44.302868252074695" lon="9.946435799102476"><ele>139.5</ele><time>2026-03-25T07:08:08.998Z</time></trkpt><trkpt lat="44.303110173075105" lon="9.946426544076052"><ele>139.0</ele><time>2026-03-25T07:08:09.998Z</time></trkpt><trkpt lat="44.30335541224802" lon="9.946428456092544"><ele>139.0</ele><time>2026-03-25T07:08:10.998Z</time></trkpt><trkpt lat="44.30360543689607" lon="9.946437369808953"><ele>139.0</ele><time>2026-03-25T07:08:11.998Z</time></trkpt><trkpt lat="44.30385042076911" lon="9.946458529506033"><ele>140.0</ele><time>2026-03-25T07:08:12.998Z</time></trkpt><trkpt lat="44.304099358124695" lon="9.946481914013711"><ele>141.0</ele><time>2026-03-25T07:08:13.998Z</time></trkpt><trkpt lat="44.30434678879181" lon="9.946501471970395"><ele>141.0</ele><time>2026-03-25T07:08:14.998Z</time></trkpt><trkpt lat="44.30459416359109" lon="9.94652662830168"><ele>141.0</ele><time>2026-03-25T07:08:15.998Z</time></trkpt><trkpt lat="44.30484353940388" lon="9.946549608853148"><ele>142.0</ele><time>2026-03-25T07:08:16.998Z</time></trkpt><trkpt lat="44.30509225946449" lon="9.946572884941853"><ele>143.0</ele><time>2026-03-25T07:08:17.998Z</time></trkpt><trkpt lat="44.30533896984835" lon="9.94659404754795"><ele>143.5</ele><time>2026-03-25T07:08:18.998Z</time></trkpt><trkpt lat="44.30558343837032" lon="9.94661693177718"><ele>144.0</ele><time>2026-03-25T07:08:19.998Z</time></trkpt><trkpt lat="44.30581581838973" lon="9.94663724730553"><ele>144.0</ele><time>2026-03-25T07:08:20.998Z</time></trkpt><trkpt lat="44.30605897210227" lon="9.946659611732557"><ele>144.0</ele><time>2026-03-25T07:08:21.998Z</time></trkpt><trkpt lat="44.3062952788034" lon="9.946682644743372"><ele>144.5</ele><time>2026-03-25T07:08:22.998Z</time></trkpt><trkpt lat="44.30654284777581" lon="9.946714226159298"><ele>145.0</ele><time>2026-03-25T07:08:23.998Z</time></trkpt><trkpt lat="44.30678499049664" lon="9.946745209466886"><ele>145.0</ele><time>2026-03-25T07:08:24.998Z</time></trkpt><trkpt lat="44.3070399395762" lon="9.946753406059813"><ele>145.0</ele><time>2026-03-25T07:08:25.998Z</time></trkpt><trkpt lat="44.30728338137182" lon="9.946773653164605"><ele>145.0</ele><time>2026-03-25T07:08:26.999Z</time></trkpt><trkpt lat="44.30753477599058" lon="9.946803353601236"><ele>145.0</ele><time>2026-03-25T07:08:27.999Z</time></trkpt><trkpt lat="44.30778358920171" lon="9.946830304064264"><ele>145.0</ele><time>2026-03-25T07:08:28.999Z</time></trkpt><trkpt lat="44.30803078080085" lon="9.946854706298796"><ele>145.0</ele><time>2026-03-25T07:08:29.999Z</time></trkpt><trkpt lat="44.30827743685725" lon="9.946880359164162"><ele>146.0</ele><time>2026-03-25T07:08:30.999Z</time></trkpt><trkpt lat="44.30852218234817" lon="9.94690446436608"><ele>147.0</ele><time>2026-03-25T07:08:31.999Z</time></trkpt><trkpt lat="44.3087685666493" lon="9.946928213084174"><ele>147.5</ele><time>2026-03-25T07:08:32.999Z</time></trkpt><trkpt lat="44.30901128932485" lon="9.946946854986447"><ele>148.0</ele><time>2026-03-25T07:08:33.999Z</time></trkpt><trkpt lat="44.30925370854528" lon="9.946967868090017"><ele>148.0</ele><time>2026-03-25T07:08:34.999Z</time></trkpt><trkpt lat="44.30950041457223" lon="9.946991425274764"><ele>148.0</ele><time>2026-03-25T07:08:35.999Z</time></trkpt><trkpt lat="44.30974975480606" lon="9.947009131102451"><ele>146.5</ele><time>2026-03-25T07:08:36.999Z</time></trkpt><trkpt lat="44.30999604224787" lon="9.947012899849694"><ele>145.0</ele><time>2026-03-25T07:08:37.999Z</time></trkpt><trkpt lat="44.31025818171962" lon="9.947008948252856"><ele>145.0</ele><time>2026-03-25T07:08:38.999Z</time></trkpt><trkpt lat="44.31051194117651" lon="9.946991980790665"><ele>145.0</ele><time>2026-03-25T07:08:39.999Z</time></trkpt><trkpt lat="44.31074636644413" lon="9.946950360324555"><ele>144.5</ele><time>2026-03-25T07:08:40.999Z</time></trkpt><trkpt lat="44.31098484673842" lon="9.946904524709147"><ele>144.0</ele><time>2026-03-25T07:08:41.999Z</time></trkpt><trkpt lat="44.31123810161022" lon="9.94684848312177"><ele>142.5</ele><time>2026-03-25T07:08:42.999Z</time></trkpt><trkpt lat="44.31148892690285" lon="9.946774822879476"><ele>141.0</ele><time>2026-03-25T07:08:43.999Z</time></trkpt><trkpt lat="44.31174289205185" lon="9.946687499859816"><ele>140.5</ele><time>2026-03-25T07:08:44.999Z</time></trkpt><trkpt lat="44.3119801582725" lon="9.946593689648644"><ele>140.0</ele><time>2026-03-25T07:08:45.999Z</time></trkpt><trkpt lat="44.31219455704492" lon="9.946468131181335"><ele>142.0</ele><time>2026-03-25T07:08:46.999Z</time></trkpt><trkpt lat="44.31241689206057" lon="9.946343234906173"><ele>144.0</ele><time>2026-03-25T07:08:47.999Z</time></trkpt><trkpt lat="44.31264179569269" lon="9.94622565990409"><ele>144.0</ele><time>2026-03-25T07:08:48.999Z</time></trkpt><trkpt lat="44.31286815488745" lon="9.946115497756542"><ele>144.0</ele><time>2026-03-25T07:08:49.999Z</time></trkpt><trkpt lat="44.31309816629888" lon="9.946001497347922"><ele>143.5</ele><time>2026-03-25T07:08:50.999Z</time></trkpt><trkpt lat="44.313338962592354" lon="9.945897703389107"><ele>143.0</ele><time>2026-03-25T07:08:51.999Z</time></trkpt><trkpt lat="44.31357735392416" lon="9.94578727818879"><ele>141.5</ele><time>2026-03-25T07:08:52.999Z</time></trkpt><trkpt lat="44.31381386532753" lon="9.945675200235792"><ele>140.0</ele><time>2026-03-25T07:08:53.999Z</time></trkpt><trkpt lat="44.31404924171555" lon="9.9455609987237"><ele>139.5</ele><time>2026-03-25T07:08:54.999Z</time></trkpt><trkpt lat="44.31428534679935" lon="9.94545112254367"><ele>139.0</ele><time>2026-03-25T07:08:55.999Z</time></trkpt><trkpt lat="44.314515125525105" lon="9.945336691642897"><ele>138.5</ele><time>2026-03-25T07:08:56.999Z</time></trkpt><trkpt lat="44.31474629662488" lon="9.94522400746737"><ele>138.0</ele><time>2026-03-25T07:08:57.999Z</time></trkpt><trkpt lat="44.31497176338176" lon="9.945117090370658"><ele>137.5</ele><time>2026-03-25T07:08:58.999Z</time></trkpt><trkpt lat="44.31520306182794" lon="9.945012915876461"><ele>137.0</ele><time>2026-03-25T07:08:59.999Z</time></trkpt><trkpt lat="44.31543683457071" lon="9.944904948801643"><ele>138.0</ele><time>2026-03-25T07:09:00.999Z</time></trkpt><trkpt lat="44.31566719266702" lon="9.944794045680103"><ele>139.0</ele><time>2026-03-25T07:09:01.999Z</time></trkpt><trkpt lat="44.31589536181146" lon="9.944684679488402"><ele>139.0</ele><time>2026-03-25T07:09:02.999Z</time></trkpt><trkpt lat="44.31612821153337" lon="9.944577164883116"><ele>139.0</ele><time>2026-03-25T07:09:03.999Z</time></trkpt><trkpt lat="44.3163607273238" lon="9.944468231071772"><ele>139.0</ele><time>2026-03-25T07:09:04.999Z</time></trkpt><trkpt lat="44.31659387978893" lon="9.944360849571485"><ele>139.0</ele><time>2026-03-25T07:09:05.999Z</time></trkpt><trkpt lat="44.31682427857407" lon="9.94425339608467"><ele>138.5</ele><time>2026-03-25T07:09:06.999Z</time></trkpt><trkpt lat="44.31705395733082" lon="9.94414672786895"><ele>138.0</ele><time>2026-03-25T07:09:07.999Z</time></trkpt><trkpt lat="44.31727909671341" lon="9.944041355208345"><ele>139.5</ele><time>2026-03-25T07:09:08.999Z</time></trkpt><trkpt lat="44.31750536695474" lon="9.943938567176792"><ele>141.0</ele><time>2026-03-25T07:09:09.999Z</time></trkpt><trkpt lat="44.317729139249245" lon="9.943837645690236"><ele>141.0</ele><time>2026-03-25T07:09:10.999Z</time></trkpt><trkpt lat="44.317953610673456" lon="9.943737954788663"><ele>141.0</ele><time>2026-03-25T07:09:11.999Z</time></trkpt><trkpt lat="44.31816949322665" lon="9.94363984828677"><ele>141.0</ele><time>2026-03-25T07:09:12.999Z</time></trkpt><trkpt lat="44.31838367543948" lon="9.943553649889067"><ele>141.0</ele><time>2026-03-25T07:09:13.999Z</time></trkpt><trkpt lat="44.31859721946124" lon="9.94346218604842"><ele>141.0</ele><time>2026-03-25T07:09:14.999Z</time></trkpt><trkpt lat="44.31881619794008" lon="9.943363655477455"><ele>141.33333333333334</ele><time>2026-03-25T07:09:15.999Z</time></trkpt><trkpt lat="44.31902536818697" lon="9.943265112636215"><ele>141.66666666666669</ele><time>2026-03-25T07:09:16.999Z</time></trkpt><trkpt lat="44.31923980279824" lon="9.943154886118752"><ele>142.0</ele><time>2026-03-25T07:09:17.999Z</time></trkpt><trkpt lat="44.31944922737013" lon="9.943054123001653"><ele>142.0</ele><time>2026-03-25T07:09:18.999Z</time></trkpt><trkpt lat="44.31966149356451" lon="9.942955631766754"><ele>142.0</ele><time>2026-03-25T07:09:19.999Z</time></trkpt><trkpt lat="44.31987306186513" lon="9.94285883738144"><ele>142.0</ele><time>2026-03-25T07:09:20.999Z</time></trkpt><trkpt lat="44.3200824730176" lon="9.94276007427108"><ele>142.0</ele><time>2026-03-25T07:09:21.999Z</time></trkpt><trkpt lat="44.32028875571396" lon="9.942664306981305"><ele>142.0</ele><time>2026-03-25T07:09:22.999Z</time></trkpt><trkpt lat="44.32049749260312" lon="9.942567936801693"><ele>142.0</ele><time>2026-03-25T07:09:23.999Z</time></trkpt><trkpt lat="44.3207040252049" lon="9.942473960123404"><ele>142.0</ele><time>2026-03-25T07:09:24.999Z</time></trkpt><trkpt lat="44.32090929505066" lon="9.942378046689388"><ele>142.0</ele><time>2026-03-25T07:09:25.999Z</time></trkpt><trkpt lat="44.32111200337779" lon="9.942282637138689"><ele>142.0</ele><time>2026-03-25T07:09:26.999Z</time></trkpt><trkpt lat="44.3213143443602" lon="9.942188091385106"><ele>142.33333333333334</ele><time>2026-03-25T07:09:27.999Z</time></trkpt><trkpt lat="44.32151654885167" lon="9.942094562974397"><ele>142.66666666666666</ele><time>2026-03-25T07:09:28.999Z</time></trkpt><trkpt lat="44.321717777294786" lon="9.942001165918159"><ele>143.0</ele><time>2026-03-25T07:09:29.999Z</time></trkpt><trkpt lat="44.321916715311346" lon="9.941910847767165"><ele>143.0</ele><time>2026-03-25T07:09:30.999Z</time></trkpt><trkpt lat="44.322112485524706" lon="9.941819889790033"><ele>143.0</ele><time>2026-03-25T07:09:31.999Z</time></trkpt><trkpt lat="44.32230661989741" lon="9.941729248619426"><ele>143.0</ele><time>2026-03-25T07:09:32.999Z</time></trkpt><trkpt lat="44.322500683508906" lon="9.941640299290311"><ele>143.33333333333331</ele><time>2026-03-25T07:09:33.999Z</time></trkpt><trkpt lat="44.32269461867756" lon="9.941551902489108"><ele>143.66666666666666</ele><time>2026-03-25T07:09:34.999Z</time></trkpt><trkpt lat="44.32288554350481" lon="9.94146302107852"><ele>144.0</ele><time>2026-03-25T07:09:35.999Z</time></trkpt><trkpt lat="44.32307553052488" lon="9.941367284518687"><ele>145.0</ele><time>2026-03-25T07:09:36.999Z</time></trkpt><trkpt lat="44.32326628616959" lon="9.941280560845989"><ele>146.0</ele><time>2026-03-25T07:09:37.999Z</time></trkpt><trkpt lat="44.323449637645176" lon="9.941188959263433"><ele>147.0</ele><time>2026-03-25T07:09:38.999Z</time></trkpt><trkpt lat="44.323642936499" lon="9.941107533566553"><ele>147.0</ele><time>2026-03-25T07:09:39.999Z</time></trkpt><trkpt lat="44.323831706871424" lon="9.941026044856514"><ele>147.0</ele><time>2026-03-25T07:09:40.999Z</time></trkpt><trkpt lat="44.324023521590114" lon="9.940939688481766"><ele>147.0</ele><time>2026-03-25T07:09:41.999Z</time></trkpt><trkpt lat="44.32420810820416" lon="9.94085716864629"><ele>146.66666666666666</ele><time>2026-03-25T07:09:42.999Z</time></trkpt><trkpt lat="44.32439867680716" lon="9.940771931084486"><ele>146.33333333333331</ele><time>2026-03-25T07:09:43.999Z</time></trkpt><trkpt lat="44.32458778739231" lon="9.940685130215739"><ele>146.0</ele><time>2026-03-25T07:09:44.999Z</time></trkpt><trkpt lat="44.32477997171965" lon="9.940596550810582"><ele>148.33333333333331</ele><time>2026-03-25T07:09:45.999Z</time></trkpt><trkpt lat="44.324972956456556" lon="9.940511890600535"><ele>150.66666666666666</ele><time>2026-03-25T07:09:46.999Z</time></trkpt><trkpt lat="44.32516593147752" lon="9.940424449307187"><ele>153.0</ele><time>2026-03-25T07:09:47.999Z</time></trkpt><trkpt lat="44.32535384231193" lon="9.940338216302862"><ele>153.0</ele><time>2026-03-25T07:09:48.999Z</time></trkpt><trkpt lat="44.32553737581543" lon="9.940253420112898"><ele>153.0</ele><time>2026-03-25T07:09:49.999Z</time></trkpt><trkpt lat="44.32571106999073" lon="9.94016674878204"><ele>153.0</ele><time>2026-03-25T07:09:50.999Z</time></trkpt><trkpt lat="44.32588941963753" lon="9.940089877976616"><ele>153.33333333333334</ele><time>2026-03-25T07:09:51.997Z</time></trkpt><trkpt lat="44.326060855829404" lon="9.94000903757201"><ele>153.66666666666669</ele><time>2026-03-25T07:09:52.997Z</time></trkpt><trkpt lat="44.32623321254641" lon="9.93993046947094"><ele>154.0</ele><time>2026-03-25T07:09:53.997Z</time></trkpt><trkpt lat="44.32639966040913" lon="9.939849694839868"><ele>157.33333333333334</ele><time>2026-03-25T07:09:54.997Z</time></trkpt><trkpt lat="44.326564241735554" lon="9.939777277649293"><ele>160.66666666666666</ele><time>2026-03-25T07:09:55.997Z</time></trkpt><trkpt lat="44.32673251133635" lon="9.939715080171391"><ele>164.0</ele><time>2026-03-25T07:09:56.998Z</time></trkpt><trkpt lat="44.326890498066" lon="9.939639541744892"><ele>164.0</ele><time>2026-03-25T07:09:57.998Z</time></trkpt><trkpt lat="44.32704373248567" lon="9.93955724093775"><ele>164.0</ele><time>2026-03-25T07:09:58.998Z</time></trkpt><trkpt lat="44.327193281267434" lon="9.939470014113487"><ele>164.0</ele><time>2026-03-25T07:09:59.998Z</time></trkpt><trkpt lat="44.32733681890936" lon="9.93937472343948"><ele>163.0</ele><time>2026-03-25T07:10:00.998Z</time></trkpt><trkpt lat="44.3274707734364" lon="9.939267000398104"><ele>162.0</ele><time>2026-03-25T07:10:01.998Z</time></trkpt><trkpt lat="44.32760603096401" lon="9.939160012188463"><ele>161.0</ele><time>2026-03-25T07:10:02.998Z</time></trkpt><trkpt lat="44.32773728683661" lon="9.939048670514596"><ele>160.33333333333331</ele><time>2026-03-25T07:10:03.998Z</time></trkpt><trkpt lat="44.32786594752331" lon="9.93893412166582"><ele>159.66666666666666</ele><time>2026-03-25T07:10:04.998Z</time></trkpt><trkpt lat="44.3279888630485" lon="9.938817093604724"><ele>159.0</ele><time>2026-03-25T07:10:05.998Z</time></trkpt><trkpt lat="44.32811363793407" lon="9.938695888159344"><ele>159.0</ele><time>2026-03-25T07:10:06.998Z</time></trkpt><trkpt lat="44.32822261744902" lon="9.938567155335553"><ele>159.0</ele><time>2026-03-25T07:10:07.998Z</time></trkpt><trkpt lat="44.328330575031615" lon="9.938433699632792"><ele>159.0</ele><time>2026-03-25T07:10:08.998Z</time></trkpt><trkpt lat="44.32842825922205" lon="9.938294206870882"><ele>159.0</ele><time>2026-03-25T07:10:09.998Z</time></trkpt><trkpt lat="44.32852338116278" lon="9.938156194544662"><ele>158.75</ele><time>2026-03-25T07:10:10.998Z</time></trkpt><trkpt lat="44.32861213752595" lon="9.938012537960219"><ele>158.5</ele><time>2026-03-25T07:10:11.998Z</time></trkpt><trkpt lat="44.32868917498077" lon="9.937872510704823"><ele>158.25</ele><time>2026-03-25T07:10:12.998Z</time></trkpt><trkpt lat="44.328777041690444" lon="9.937731626430837"><ele>158.0</ele><time>2026-03-25T07:10:13.998Z</time></trkpt><trkpt lat="44.328864199768525" lon="9.937593015696903"><ele>161.75</ele><time>2026-03-25T07:10:14.998Z</time></trkpt><trkpt lat="44.32894947239242" lon="9.937457808079358"><ele>165.5</ele><time>2026-03-25T07:10:15.998Z</time></trkpt><trkpt lat="44.3290342674692" lon="9.937324169524285"><ele>169.25</ele><time>2026-03-25T07:10:16.998Z</time></trkpt><trkpt lat="44.32912272506098" lon="9.937188088650615"><ele>173.0</ele><time>2026-03-25T07:10:17.998Z</time></trkpt><trkpt lat="44.3292048193754" lon="9.937046653187428"><ele>173.0</ele><time>2026-03-25T07:10:18.998Z</time></trkpt><trkpt lat="44.32929022823895" lon="9.936907141822003"><ele>173.0</ele><time>2026-03-25T07:10:19.998Z</time></trkpt><trkpt lat="44.32936789902943" lon="9.936768772859818"><ele>173.0</ele><time>2026-03-25T07:10:20.998Z</time></trkpt><trkpt lat="44.329445352856844" lon="9.936632772273388"><ele>173.0</ele><time>2026-03-25T07:10:21.998Z</time></trkpt><trkpt lat="44.32952500024645" lon="9.93649880561009"><ele>169.5</ele><time>2026-03-25T07:10:22.998Z</time></trkpt><trkpt lat="44.32960223567482" lon="9.936366455627093"><ele>166.0</ele><time>2026-03-25T07:10:23.999Z</time></trkpt><trkpt lat="44.3296801098343" lon="9.936239824136246"><ele>162.5</ele><time>2026-03-25T07:10:24.999Z</time></trkpt><trkpt lat="44.32975824248729" lon="9.93610617443611"><ele>159.0</ele><time>2026-03-25T07:10:25.999Z</time></trkpt><trkpt lat="44.32983821288512" lon="9.935973904154059"><ele>160.75</ele><time>2026-03-25T07:10:26.999Z</time></trkpt><trkpt lat="44.32991740815803" lon="9.935840010910246"><ele>162.5</ele><time>2026-03-25T07:10:27.999Z</time></trkpt><trkpt lat="44.32999207220249" lon="9.935702497728053"><ele>164.25</ele><time>2026-03-25T07:10:28.999Z</time></trkpt><trkpt lat="44.33006695480845" lon="9.935584003116048"><ele>166.0</ele><time>2026-03-25T07:10:29.999Z</time></trkpt><trkpt lat="44.33013941013132" lon="9.935456954692352"><ele>166.0</ele><time>2026-03-25T07:10:30.999Z</time></trkpt><trkpt lat="44.33021072879253" lon="9.935327269024015"><ele>166.0</ele><time>2026-03-25T07:10:31.999Z</time></trkpt><trkpt lat="44.33028393471664" lon="9.93519925571766"><ele>166.0</ele><time>2026-03-25T07:10:32.999Z</time></trkpt><trkpt lat="44.330361494784256" lon="9.935085858053311"><ele>166.0</ele><time>2026-03-25T07:10:33.999Z</time></trkpt><trkpt lat="44.33043350384069" lon="9.934967812473747"><ele>165.4</ele><time>2026-03-25T07:10:34.999Z</time></trkpt><trkpt lat="44.33050343891466" lon="9.934846798676602"><ele>164.8</ele><time>2026-03-25T07:10:35.999Z</time></trkpt><trkpt lat="44.33056882337613" lon="9.93473683606895"><ele>164.20000000000002</ele><time>2026-03-25T07:10:36.999Z</time></trkpt><trkpt lat="44.33063178107867" lon="9.93462250950524"><ele>163.60000000000002</ele><time>2026-03-25T07:10:37.999Z</time></trkpt><trkpt lat="44.33069127300743" lon="9.93450785754463"><ele>163.0</ele><time>2026-03-25T07:10:38.999Z</time></trkpt><trkpt lat="44.3307589022694" lon="9.934401783405194"><ele>163.0</ele><time>2026-03-25T07:10:39.999Z</time></trkpt><trkpt lat="44.330822741322095" lon="9.93429168588622"><ele>163.0</ele><time>2026-03-25T07:10:40.999Z</time></trkpt><trkpt lat="44.33089115098995" lon="9.93418970935563"><ele>163.0</ele><time>2026-03-25T07:10:41.999Z</time></trkpt><trkpt lat="44.330953324240205" lon="9.934088621186666"><ele>163.0</ele><time>2026-03-25T07:10:42.999Z</time></trkpt><trkpt lat="44.3310108707394" lon="9.933988329422888"><ele>163.0</ele><time>2026-03-25T07:10:43.999Z</time></trkpt><trkpt lat="44.331067332357115" lon="9.933893487668582"><ele>162.5</ele><time>2026-03-25T07:10:44.999Z</time></trkpt><trkpt lat="44.331124244965636" lon="9.933799340240547"><ele>162.0</ele><time>2026-03-25T07:10:45.999Z</time></trkpt><trkpt lat="44.33117961544172" lon="9.933705957865334"><ele>161.5</ele><time>2026-03-25T07:10:46.999Z</time></trkpt><trkpt lat="44.33123272587487" lon="9.933620113315776"><ele>161.0</ele><time>2026-03-25T07:10:47.999Z</time></trkpt><trkpt lat="44.331283791795954" lon="9.933529896297983"><ele>160.5</ele><time>2026-03-25T07:10:48.999Z</time></trkpt><trkpt lat="44.33133143665743" lon="9.933446435421926"><ele>160.0</ele><time>2026-03-25T07:10:49.999Z</time></trkpt><trkpt lat="44.33137950245015" lon="9.933364174777232"><ele>160.66666666666669</ele><time>2026-03-25T07:10:50.999Z</time></trkpt><trkpt lat="44.33142425097856" lon="9.933284814939562"><ele>161.33333333333334</ele><time>2026-03-25T07:10:51.999Z</time></trkpt><trkpt lat="44.331467609862" lon="9.933208067625051"><ele>162.0</ele><time>2026-03-25T07:10:52.999Z</time></trkpt><trkpt lat="44.33151435434141" lon="9.933137961308944"><ele>162.66666666666666</ele><time>2026-03-25T07:10:53.999Z</time></trkpt><trkpt lat="44.33155733516874" lon="9.933071640591919"><ele>163.33333333333331</ele><time>2026-03-25T07:10:54.999Z</time></trkpt><trkpt lat="44.33163115332013" lon="9.932937801863416"><ele>164.0</ele><time>2026-03-25T07:10:56.999Z</time></trkpt><trkpt lat="44.33169793357013" lon="9.93281693833919"><ele>164.0</ele><time>2026-03-25T07:10:58.999Z</time></trkpt><trkpt lat="44.33175649716028" lon="9.932715315038923"><ele>164.0</ele><time>2026-03-25T07:11:00.999Z</time></trkpt><trkpt lat="44.3318050385899" lon="9.932631423872003"><ele>164.0</ele><time>2026-03-25T07:11:03.999Z</time></trkpt><trkpt lat="44.331881604670684" lon="9.932504282341956"><ele>164.0</ele><time>2026-03-25T07:11:44.999Z</time></trkpt><trkpt lat="44.33192241464297" lon="9.932419074384526"><ele>164.0</ele><time>2026-03-25T07:11:45.999Z</time></trkpt><trkpt lat="44.331959958022004" lon="9.932343483458833"><ele>164.0</ele><time>2026-03-25T07:11:46.999Z</time></trkpt><trkpt lat="44.33202948174065" lon="9.932202763333697"><ele>163.16666666666666</ele><time>2026-03-25T07:11:48.999Z</time></trkpt><trkpt lat="44.33208005831693" lon="9.932129539877025"><ele>162.33333333333331</ele><time>2026-03-25T07:11:49.999Z</time></trkpt><trkpt lat="44.332130323392136" lon="9.932047654837303"><ele>161.5</ele><time>2026-03-25T07:11:51Z</time></trkpt><trkpt lat="44.332181699967215" lon="9.931959669094232"><ele>160.66666666666666</ele><time>2026-03-25T07:11:52Z</time></trkpt><trkpt lat="44.332236799579334" lon="9.931861130414942"><ele>159.83333333333334</ele><time>2026-03-25T07:11:53Z</time></trkpt><trkpt lat="44.33230517196601" lon="9.931762679364804"><ele>159.0</ele><time>2026-03-25T07:11:54Z</time></trkpt><trkpt lat="44.332372503171165" lon="9.93165836473562"><ele>161.5</ele><time>2026-03-25T07:11:55Z</time></trkpt><trkpt lat="44.33243041754445" lon="9.93153020837077"><ele>164.0</ele><time>2026-03-25T07:11:56Z</time></trkpt><trkpt lat="44.332497023466416" lon="9.931405666189292"><ele>166.5</ele><time>2026-03-25T07:11:57Z</time></trkpt><trkpt lat="44.33257472576467" lon="9.93128079556974"><ele>169.0</ele><time>2026-03-25T07:11:57.999Z</time></trkpt><trkpt lat="44.33265493082531" lon="9.931149956419443"><ele>169.0</ele><time>2026-03-25T07:11:58.999Z</time></trkpt><trkpt lat="44.33273069197429" lon="9.931022805105664"><ele>169.0</ele><time>2026-03-25T07:11:59.999Z</time></trkpt><trkpt lat="44.332799823935915" lon="9.930886414291516"><ele>169.0</ele><time>2026-03-25T07:12:00.999Z</time></trkpt><trkpt lat="44.332877030959025" lon="9.930744706491419"><ele>169.0</ele><time>2026-03-25T07:12:01.999Z</time></trkpt><trkpt lat="44.33295121416135" lon="9.93059801106337"><ele>168.5</ele><time>2026-03-25T07:12:02.999Z</time></trkpt><trkpt lat="44.33301352028298" lon="9.93044386025241"><ele>168.0</ele><time>2026-03-25T07:12:03.999Z</time></trkpt><trkpt lat="44.33308679999387" lon="9.930280495669258"><ele>167.5</ele><time>2026-03-25T07:12:04.999Z</time></trkpt><trkpt lat="44.33322222595444" lon="9.930105601250133"><ele>167.0</ele><time>2026-03-25T07:12:05.999Z</time></trkpt><trkpt lat="44.333331398088454" lon="9.929928995359846"><ele>167.0</ele><time>2026-03-25T07:12:06.999Z</time></trkpt><trkpt lat="44.333439712655384" lon="9.929753614906314"><ele>167.0</ele><time>2026-03-25T07:12:07.999Z</time></trkpt><trkpt lat="44.333548960208695" lon="9.929571312790673"><ele>167.0</ele><time>2026-03-25T07:12:08.999Z</time></trkpt><trkpt lat="44.333662958335566" lon="9.929390959338289"><ele>165.66666666666666</ele><time>2026-03-25T07:12:09.999Z</time></trkpt><trkpt lat="44.33377748898696" lon="9.929199351246952"><ele>164.33333333333334</ele><time>2026-03-25T07:12:10.999Z</time></trkpt><trkpt lat="44.33388594555691" lon="9.929008601440916"><ele>163.0</ele><time>2026-03-25T07:12:11.999Z</time></trkpt><trkpt lat="44.333992508970255" lon="9.92881881900175"><ele>164.0</ele><time>2026-03-25T07:12:12.999Z</time></trkpt><trkpt lat="44.334105393624355" lon="9.928612121663095"><ele>165.0</ele><time>2026-03-25T07:12:13.999Z</time></trkpt><trkpt lat="44.33420738487049" lon="9.92841490950881"><ele>166.0</ele><time>2026-03-25T07:12:14.999Z</time></trkpt><trkpt lat="44.334320096508286" lon="9.928216504586187"><ele>166.0</ele><time>2026-03-25T07:12:15.999Z</time></trkpt><trkpt lat="44.33443329553114" lon="9.928022292133145"><ele>166.0</ele><time>2026-03-25T07:12:16.999Z</time></trkpt><trkpt lat="44.334548075581296" lon="9.92781559354857"><ele>166.0</ele><time>2026-03-25T07:12:17.999Z</time></trkpt><trkpt lat="44.33466159530581" lon="9.927612268246689"><ele>167.66666666666669</ele><time>2026-03-25T07:12:18.999Z</time></trkpt><trkpt lat="44.3347698219597" lon="9.92741209544897"><ele>169.33333333333334</ele><time>2026-03-25T07:12:19.999Z</time></trkpt><trkpt lat="44.33487749712901" lon="9.92721162573275"><ele>171.0</ele><time>2026-03-25T07:12:20.999Z</time></trkpt><trkpt lat="44.33498122903387" lon="9.927000189129428"><ele>171.0</ele><time>2026-03-25T07:12:21.999Z</time></trkpt><trkpt lat="44.33510562854841" lon="9.926776892128881"><ele>171.0</ele><time>2026-03-25T07:12:22.999Z</time></trkpt><trkpt lat="44.33524562415596" lon="9.926547470767584"><ele>171.0</ele><time>2026-03-25T07:12:23.999Z</time></trkpt><trkpt lat="44.335382789409934" lon="9.926312198841934"><ele>170.33333333333334</ele><time>2026-03-25T07:12:24.999Z</time></trkpt><trkpt lat="44.33552135166832" lon="9.926071715867103"><ele>169.66666666666669</ele><time>2026-03-25T07:12:25.999Z</time></trkpt><trkpt lat="44.33564478022948" lon="9.925831135281355"><ele>169.0</ele><time>2026-03-25T07:12:26.999Z</time></trkpt><trkpt lat="44.335766592329705" lon="9.9255830589436"><ele>169.0</ele><time>2026-03-25T07:12:27.999Z</time></trkpt><trkpt lat="44.335887760721164" lon="9.925315888606287"><ele>169.0</ele><time>2026-03-25T07:12:28.999Z</time></trkpt><trkpt lat="44.33600166853987" lon="9.925067219562626"><ele>169.0</ele><time>2026-03-25T07:12:29.999Z</time></trkpt><trkpt lat="44.336082884380055" lon="9.92484590636073"><ele>169.0</ele><time>2026-03-25T07:12:30.999Z</time></trkpt><trkpt lat="44.33619245416724" lon="9.924593177937746"><ele>169.0</ele><time>2026-03-25T07:12:32Z</time></trkpt><trkpt lat="44.33628076165062" lon="9.924331786385189"><ele>169.0</ele><time>2026-03-25T07:12:33Z</time></trkpt><trkpt lat="44.33638276109659" lon="9.924066050049067"><ele>169.33333333333334</ele><time>2026-03-25T07:12:34Z</time></trkpt><trkpt lat="44.33646934599624" lon="9.923800614918052"><ele>169.66666666666666</ele><time>2026-03-25T07:12:35Z</time></trkpt><trkpt lat="44.33654707772544" lon="9.923532271134862"><ele>170.0</ele><time>2026-03-25T07:12:36Z</time></trkpt><trkpt lat="44.336664134698026" lon="9.92325185461823"><ele>170.0</ele><time>2026-03-25T07:12:37Z</time></trkpt><trkpt lat="44.336838416692025" lon="9.92294146861564"><ele>170.0</ele><time>2026-03-25T07:12:38Z</time></trkpt><trkpt lat="44.336978163031624" lon="9.92265533490945"><ele>169.5</ele><time>2026-03-25T07:12:39Z</time></trkpt><trkpt lat="44.33710941911198" lon="9.922366460410153"><ele>169.0</ele><time>2026-03-25T07:12:40Z</time></trkpt><trkpt lat="44.33726764984083" lon="9.922069669001273"><ele>168.5</ele><time>2026-03-25T07:12:41Z</time></trkpt><trkpt lat="44.337390190412975" lon="9.921783351072708"><ele>168.0</ele><time>2026-03-25T07:12:42Z</time></trkpt><trkpt lat="44.33627407004709" lon="9.922976265344158"><ele>168.0</ele><time>2026-03-25T07:12:43Z</time></trkpt><trkpt lat="44.33627949078445" lon="9.92283002683657"><ele>168.0</ele><time>2026-03-25T07:12:44Z</time></trkpt><trkpt lat="44.336254762745284" lon="9.92263886774967"><ele>168.0</ele><time>2026-03-25T07:12:45Z</time></trkpt><trkpt lat="44.3362599554803" lon="9.92246343396018"><ele>168.0</ele><time>2026-03-25T07:12:46Z</time></trkpt><trkpt lat="44.33625876877586" lon="9.922256502963332"><ele>166.5</ele><time>2026-03-25T07:12:47Z</time></trkpt><trkpt lat="44.33624898861858" lon="9.922058444528147"><ele>165.0</ele><time>2026-03-25T07:12:48Z</time></trkpt><trkpt lat="44.336218707446555" lon="9.921626256490475"><ele>164.66666666666666</ele><time>2026-03-25T07:12:50Z</time></trkpt><trkpt lat="44.33617885381632" lon="9.921338127732419"><ele>164.33333333333331</ele><time>2026-03-25T07:12:51Z</time></trkpt><trkpt lat="44.336178504559" lon="9.92105892942528"><ele>164.0</ele><time>2026-03-25T07:12:52Z</time></trkpt><trkpt lat="44.336194732816764" lon="9.920701352407526"><ele>164.0</ele><time>2026-03-25T07:12:53Z</time></trkpt><trkpt lat="44.33619033830283" lon="9.920402393592317"><ele>164.0</ele><time>2026-03-25T07:12:54Z</time></trkpt><trkpt lat="44.33618442876562" lon="9.92008917600786"><ele>164.0</ele><time>2026-03-25T07:12:55Z</time></trkpt><trkpt lat="44.336242507223766" lon="9.919608005631877"><ele>163.5</ele><time>2026-03-25T07:12:56Z</time></trkpt><trkpt lat="44.33622467241156" lon="9.919314161322216"><ele>163.0</ele><time>2026-03-25T07:12:57Z</time></trkpt><trkpt lat="44.336296858829286" lon="9.91885674202302"><ele>163.0</ele><time>2026-03-25T07:12:58Z</time></trkpt><trkpt lat="44.33637144967942" lon="9.91839820145466"><ele>163.0</ele><time>2026-03-25T07:12:59Z</time></trkpt><trkpt lat="44.33644510872584" lon="9.917849526201142"><ele>169.0</ele><time>2026-03-25T07:13:00Z</time></trkpt><trkpt lat="44.33747458698748" lon="9.915561863603896"><ele>169.0</ele><time>2026-03-25T07:13:03Z</time></trkpt><trkpt lat="44.33757284317579" lon="9.91514614796663"><ele>169.0</ele><time>2026-03-25T07:13:04Z</time></trkpt><trkpt lat="44.33762207067973" lon="9.914741751470462"><ele>169.5</ele><time>2026-03-25T07:13:05Z</time></trkpt><trkpt lat="44.337690858916496" lon="9.914382156827083"><ele>170.0</ele><time>2026-03-25T07:13:06Z</time></trkpt><trkpt lat="44.33781142536002" lon="9.913992650371869"><ele>170.5</ele><time>2026-03-25T07:13:07Z</time></trkpt><trkpt lat="44.3379473413732" lon="9.913675219791694"><ele>171.0</ele><time>2026-03-25T07:13:08Z</time></trkpt><trkpt lat="44.338047932666804" lon="9.913391659520451"><ele>172.33333333333334</ele><time>2026-03-25T07:13:09Z</time></trkpt><trkpt lat="44.3381846560959" lon="9.913185571769947"><ele>173.66666666666669</ele><time>2026-03-25T07:13:10Z</time></trkpt><trkpt lat="44.338340307858" lon="9.912986820214908"><ele>175.0</ele><time>2026-03-25T07:13:11Z</time></trkpt><trkpt lat="44.338476563487376" lon="9.91279570765032"><ele>175.0</ele><time>2026-03-25T07:13:12Z</time></trkpt><trkpt lat="44.33870869106032" lon="9.912728984732453"><ele>175.0</ele><time>2026-03-25T07:13:13Z</time></trkpt><trkpt lat="44.3388898132788" lon="9.912568052278901"><ele>176.66666666666669</ele><time>2026-03-25T07:13:14Z</time></trkpt><trkpt lat="44.33896175563161" lon="9.912486929796762"><ele>178.33333333333334</ele><time>2026-03-25T07:13:15Z</time></trkpt><trkpt lat="44.33910343999409" lon="9.912368084142127"><ele>180.0</ele><time>2026-03-25T07:13:16Z</time></trkpt><trkpt lat="44.3393182453845" lon="9.912195500273068"><ele>180.0</ele><time>2026-03-25T07:13:17Z</time></trkpt><trkpt lat="44.339531545849354" lon="9.91203484870269"><ele>180.0</ele><time>2026-03-25T07:13:18Z</time></trkpt><trkpt lat="44.33975007165018" lon="9.911967314731655"><ele>183.0</ele><time>2026-03-25T07:13:19Z</time></trkpt><trkpt lat="44.34039328749943" lon="9.91192260491578"><ele>183.0</ele><time>2026-03-25T07:13:21Z</time></trkpt><trkpt lat="44.34072698353003" lon="9.911900216825245"><ele>183.0</ele><time>2026-03-25T07:13:22Z</time></trkpt><trkpt lat="44.341579089452644" lon="9.911801746086855"><ele>183.0</ele><time>2026-03-25T07:13:24Z</time></trkpt><trkpt lat="44.34187204572852" lon="9.911742744929938"><ele>183.0</ele><time>2026-03-25T07:13:25Z</time></trkpt><trkpt lat="44.34232762913907" lon="9.911662923369173"><ele>183.5</ele><time>2026-03-25T07:13:26Z</time></trkpt><trkpt lat="44.34263399956232" lon="9.91168332334349"><ele>184.0</ele><time>2026-03-25T07:13:27Z</time></trkpt><trkpt lat="44.34284066571776" lon="9.911797655851494"><ele>185.0</ele><time>2026-03-25T07:13:28Z</time></trkpt><trkpt lat="44.343269999655696" lon="9.911811138941681"><ele>186.0</ele><time>2026-03-25T07:13:29Z</time></trkpt><trkpt lat="44.343576791334456" lon="9.9118686412567"><ele>186.0</ele><time>2026-03-25T07:13:30Z</time></trkpt><trkpt lat="44.34386238781642" lon="9.911862411596742"><ele>186.0</ele><time>2026-03-25T07:13:31Z</time></trkpt><trkpt lat="44.34420859560526" lon="9.91195145992791"><ele>187.5</ele><time>2026-03-25T07:13:32Z</time></trkpt><trkpt lat="44.34446938206744" lon="9.912044571879296"><ele>189.0</ele><time>2026-03-25T07:13:33Z</time></trkpt><trkpt lat="44.34472111793084" lon="9.912125821530047"><ele>189.5</ele><time>2026-03-25T07:13:34Z</time></trkpt><trkpt lat="44.34497335544698" lon="9.912172899048878"><ele>190.0</ele><time>2026-03-25T07:13:35Z</time></trkpt><trkpt lat="44.345246015352565" lon="9.912192131003641"><ele>190.0</ele><time>2026-03-25T07:13:36Z</time></trkpt><trkpt lat="44.34549932978366" lon="9.912259997603588"><ele>190.0</ele><time>2026-03-25T07:13:37Z</time></trkpt><trkpt lat="44.34578309678462" lon="9.912306167747744"><ele>191.0</ele><time>2026-03-25T07:13:38Z</time></trkpt><trkpt lat="44.34606366852587" lon="9.91233573947615"><ele>192.0</ele><time>2026-03-25T07:13:39Z</time></trkpt><trkpt lat="44.34633550156223" lon="9.912335358918476"><ele>192.5</ele><time>2026-03-25T07:13:40Z</time></trkpt><trkpt lat="44.34660590149566" lon="9.912327426294972"><ele>193.0</ele><time>2026-03-25T07:13:41Z</time></trkpt><trkpt lat="44.34687735014784" lon="9.912303582458314"><ele>193.0</ele><time>2026-03-25T07:13:42Z</time></trkpt><trkpt lat="44.347085607903566" lon="9.912289545851552"><ele>193.0</ele><time>2026-03-25T07:13:43Z</time></trkpt><trkpt lat="44.34731938506794" lon="9.91226721778818"><ele>193.0</ele><time>2026-03-25T07:13:44Z</time></trkpt><trkpt lat="44.34757445428267" lon="9.912258555787707"><ele>193.5</ele><time>2026-03-25T07:13:45Z</time></trkpt><trkpt lat="44.34783239150757" lon="9.912248849232421"><ele>194.0</ele><time>2026-03-25T07:13:46Z</time></trkpt><trkpt lat="44.348074960382434" lon="9.912253632087085"><ele>195.0</ele><time>2026-03-25T07:13:47Z</time></trkpt><trkpt lat="44.348341732407235" lon="9.91222632002469"><ele>196.0</ele><time>2026-03-25T07:13:48Z</time></trkpt><trkpt lat="44.34858877378888" lon="9.91218808903271"><ele>196.0</ele><time>2026-03-25T07:13:49Z</time></trkpt><trkpt lat="44.348834367093566" lon="9.912151406284602"><ele>196.0</ele><time>2026-03-25T07:13:50Z</time></trkpt><trkpt lat="44.3490807635777" lon="9.91210461436855"><ele>196.5</ele><time>2026-03-25T07:13:51Z</time></trkpt><trkpt lat="44.34931765969917" lon="9.912050730086243"><ele>197.0</ele><time>2026-03-25T07:13:52Z</time></trkpt><trkpt lat="44.349553979154706" lon="9.911955154602024"><ele>195.0</ele><time>2026-03-25T07:13:53Z</time></trkpt><trkpt lat="44.34981278811305" lon="9.911849129568918"><ele>193.0</ele><time>2026-03-25T07:13:54Z</time></trkpt><trkpt lat="44.35006561950257" lon="9.911721589866511"><ele>191.5</ele><time>2026-03-25T07:13:55Z</time></trkpt><trkpt lat="44.350264817730135" lon="9.911559704605821"><ele>190.0</ele><time>2026-03-25T07:13:56Z</time></trkpt><trkpt lat="44.350453414955915" lon="9.911384090453799"><ele>192.0</ele><time>2026-03-25T07:13:57Z</time></trkpt><trkpt lat="44.35062522438612" lon="9.911177528358271"><ele>194.0</ele><time>2026-03-25T07:13:58Z</time></trkpt><trkpt lat="44.350805371433154" lon="9.910965692417331"><ele>194.0</ele><time>2026-03-25T07:13:59Z</time></trkpt><trkpt lat="44.35098989376818" lon="9.910761985438524"><ele>194.0</ele><time>2026-03-25T07:14:00Z</time></trkpt><trkpt lat="44.351159028423865" lon="9.91059001945224"><ele>194.0</ele><time>2026-03-25T07:14:01Z</time></trkpt><trkpt lat="44.35137871043445" lon="9.910396192185585"><ele>198.0</ele><time>2026-03-25T07:14:02Z</time></trkpt><trkpt lat="44.35158674268817" lon="9.910194826600506"><ele>202.0</ele><time>2026-03-25T07:14:03Z</time></trkpt><trkpt lat="44.35177851794526" lon="9.909982605546778"><ele>202.0</ele><time>2026-03-25T07:14:04Z</time></trkpt><trkpt lat="44.35197616743108" lon="9.909771960858167"><ele>202.0</ele><time>2026-03-25T07:14:05Z</time></trkpt><trkpt lat="44.35216714173831" lon="9.9095654044336"><ele>203.5</ele><time>2026-03-25T07:14:06Z</time></trkpt><trkpt lat="44.35237040089522" lon="9.909393045378593"><ele>205.0</ele><time>2026-03-25T07:14:07Z</time></trkpt><trkpt lat="44.35256853490353" lon="9.909192565342455"><ele>205.0</ele><time>2026-03-25T07:14:08Z</time></trkpt><trkpt lat="44.352793241333465" lon="9.909037693577265"><ele>205.0</ele><time>2026-03-25T07:14:09Z</time></trkpt><trkpt lat="44.353009387426795" lon="9.908910148624551"><ele>210.0</ele><time>2026-03-25T07:14:10Z</time></trkpt><trkpt lat="44.35322303986109" lon="9.908754569562593"><ele>215.0</ele><time>2026-03-25T07:14:11Z</time></trkpt><trkpt lat="44.35342959099148" lon="9.908630912115932"><ele>215.0</ele><time>2026-03-25T07:14:12Z</time></trkpt><trkpt lat="44.35365431066662" lon="9.908511107338912"><ele>215.0</ele><time>2026-03-25T07:14:13Z</time></trkpt><trkpt lat="44.35388546225151" lon="9.908381025222962"><ele>211.5</ele><time>2026-03-25T07:14:14Z</time></trkpt><trkpt lat="44.354114641196766" lon="9.908252978262965"><ele>208.0</ele><time>2026-03-25T07:14:15Z</time></trkpt><trkpt lat="44.35434962964937" lon="9.90813086252474"><ele>208.0</ele><time>2026-03-25T07:14:16Z</time></trkpt><trkpt lat="44.3545820979817" lon="9.907984685471739"><ele>208.0</ele><time>2026-03-25T07:14:17Z</time></trkpt><trkpt lat="44.35481525285823" lon="9.90786191886949"><ele>207.0</ele><time>2026-03-25T07:14:18Z</time></trkpt><trkpt lat="44.35502634997579" lon="9.90772495732334"><ele>206.0</ele><time>2026-03-25T07:14:19Z</time></trkpt><trkpt lat="44.35523629675904" lon="9.907574365044775"><ele>206.0</ele><time>2026-03-25T07:14:20Z</time></trkpt><trkpt lat="44.35545726824396" lon="9.907403323060901"><ele>206.0</ele><time>2026-03-25T07:14:21Z</time></trkpt><trkpt lat="44.35566431303668" lon="9.907220314153731"><ele>215.0</ele><time>2026-03-25T07:14:22Z</time></trkpt><trkpt lat="44.35587300284707" lon="9.907041360712462"><ele>224.0</ele><time>2026-03-25T07:14:23Z</time></trkpt><trkpt lat="44.356080289510345" lon="9.90683994505423"><ele>226.0</ele><time>2026-03-25T07:14:24Z</time></trkpt><trkpt lat="44.35628573445827" lon="9.906677513698808"><ele>228.0</ele><time>2026-03-25T07:14:25Z</time></trkpt><trkpt lat="44.35649021683019" lon="9.906495932068202"><ele>228.0</ele><time>2026-03-25T07:14:26Z</time></trkpt><trkpt lat="44.35668078113854" lon="9.90630712778113"><ele>228.0</ele><time>2026-03-25T07:14:27Z</time></trkpt><trkpt lat="44.3568789842923" lon="9.90609413868263"><ele>226.0</ele><time>2026-03-25T07:14:28Z</time></trkpt><trkpt lat="44.357058631366534" lon="9.905894249000294"><ele>224.0</ele><time>2026-03-25T07:14:29Z</time></trkpt><trkpt lat="44.35728691431546" lon="9.905682169061148"><ele>224.0</ele><time>2026-03-25T07:14:30Z</time></trkpt><trkpt lat="44.357511303725" lon="9.905476715642083"><ele>224.0</ele><time>2026-03-25T07:14:31Z</time></trkpt><trkpt lat="44.35768634201712" lon="9.905297349759708"><ele>224.0</ele><time>2026-03-25T07:14:32Z</time></trkpt><trkpt lat="44.357895216286536" lon="9.905146186900659"><ele>224.0</ele><time>2026-03-25T07:14:33Z</time></trkpt><trkpt lat="44.35809546276636" lon="9.905033128793407"><ele>218.0</ele><time>2026-03-25T07:14:34Z</time></trkpt><trkpt lat="44.35836667845116" lon="9.904940573265613"><ele>212.0</ele><time>2026-03-25T07:14:35Z</time></trkpt><trkpt lat="44.35858970598857" lon="9.904851643751375"><ele>212.0</ele><time>2026-03-25T07:14:36Z</time></trkpt><trkpt lat="44.358818589299915" lon="9.90474701121107"><ele>212.0</ele><time>2026-03-25T07:14:37Z</time></trkpt><trkpt lat="44.35904384695239" lon="9.904646915059951"><ele>217.0</ele><time>2026-03-25T07:14:38Z</time></trkpt><trkpt lat="44.3592637424215" lon="9.904535200346304"><ele>222.0</ele><time>2026-03-25T07:14:39Z</time></trkpt><trkpt lat="44.35949468657374" lon="9.904440677576572"><ele>227.0</ele><time>2026-03-25T07:14:40Z</time></trkpt><trkpt lat="44.35972322393769" lon="9.904348945869204"><ele>232.0</ele><time>2026-03-25T07:14:41Z</time></trkpt><trkpt lat="44.359954768775395" lon="9.904248038891597"><ele>223.0</ele><time>2026-03-25T07:14:42Z</time></trkpt><trkpt lat="44.36017603674718" lon="9.904136715217012"><ele>214.0</ele><time>2026-03-25T07:14:43Z</time></trkpt><trkpt lat="44.36040638168976" lon="9.90399942576128"><ele>213.66666666666666</ele><time>2026-03-25T07:14:44Z</time></trkpt><trkpt lat="44.36061728688726" lon="9.903840967609169"><ele>213.33333333333331</ele><time>2026-03-25T07:14:45Z</time></trkpt><trkpt lat="44.36078109184987" lon="9.903673544181142"><ele>213.0</ele><time>2026-03-25T07:14:46Z</time></trkpt><trkpt lat="44.36093136518419" lon="9.903486546234044"><ele>212.33333333333331</ele><time>2026-03-25T07:14:47Z</time></trkpt><trkpt lat="44.36108859659034" lon="9.90328977640056"><ele>211.66666666666666</ele><time>2026-03-25T07:14:48Z</time></trkpt><trkpt lat="44.361245716174174" lon="9.90308068957758"><ele>211.0</ele><time>2026-03-25T07:14:49Z</time></trkpt><trkpt lat="44.3613908103445" lon="9.902860850641"><ele>211.0</ele><time>2026-03-25T07:14:50Z</time></trkpt><trkpt lat="44.36155350432647" lon="9.902654048075728"><ele>211.0</ele><time>2026-03-25T07:14:51Z</time></trkpt><trkpt lat="44.36167669197212" lon="9.90242569684577"><ele>211.0</ele><time>2026-03-25T07:14:52Z</time></trkpt><trkpt lat="44.361831799377" lon="9.902212218148177"><ele>210.66666666666666</ele><time>2026-03-25T07:14:53Z</time></trkpt><trkpt lat="44.36197897446141" lon="9.901985371797696"><ele>210.33333333333331</ele><time>2026-03-25T07:14:54Z</time></trkpt><trkpt lat="44.36208360623043" lon="9.901751916348399"><ele>210.0</ele><time>2026-03-25T07:14:55Z</time></trkpt><trkpt lat="44.36218273459569" lon="9.901530803884777"><ele>211.0</ele><time>2026-03-25T07:14:56Z</time></trkpt><trkpt lat="44.36227243045977" lon="9.901297501687012"><ele>212.0</ele><time>2026-03-25T07:14:57Z</time></trkpt><trkpt lat="44.36234135070192" lon="9.901040661831338"><ele>213.0</ele><time>2026-03-25T07:14:58Z</time></trkpt><trkpt lat="44.362388629498284" lon="9.900791284826298"><ele>214.0</ele><time>2026-03-25T07:14:59Z</time></trkpt><trkpt lat="44.36245634454704" lon="9.900547543453074"><ele>215.0</ele><time>2026-03-25T07:15:00Z</time></trkpt><trkpt lat="44.36253057857064" lon="9.900306293648146"><ele>216.0</ele><time>2026-03-25T07:15:01Z</time></trkpt><trkpt lat="44.36260603926932" lon="9.90006443223961"><ele>217.66666666666669</ele><time>2026-03-25T07:15:02Z</time></trkpt><trkpt lat="44.36265803939753" lon="9.899828682843717"><ele>219.33333333333334</ele><time>2026-03-25T07:15:03Z</time></trkpt><trkpt lat="44.3627310570476" lon="9.899600483234144"><ele>221.0</ele><time>2026-03-25T07:15:04Z</time></trkpt><trkpt lat="44.36279741705343" lon="9.89936193224821"><ele>221.0</ele><time>2026-03-25T07:15:05Z</time></trkpt><trkpt lat="44.36285292804884" lon="9.899133636980801"><ele>221.0</ele><time>2026-03-25T07:15:06Z</time></trkpt><trkpt lat="44.36291751504357" lon="9.898907879287467"><ele>221.0</ele><time>2026-03-25T07:15:07Z</time></trkpt><trkpt lat="44.36301074357185" lon="9.89868749740094"><ele>225.33333333333334</ele><time>2026-03-25T07:15:08.001Z</time></trkpt><trkpt lat="44.36309104536154" lon="9.898458244680432"><ele>229.66666666666669</ele><time>2026-03-25T07:15:09.001Z</time></trkpt><trkpt lat="44.363164073021665" lon="9.898220192106772"><ele>234.0</ele><time>2026-03-25T07:15:10.001Z</time></trkpt><trkpt lat="44.363246863808904" lon="9.898000196906212"><ele>234.0</ele><time>2026-03-25T07:15:11.001Z</time></trkpt><trkpt lat="44.36334335773515" lon="9.897801849055746"><ele>234.0</ele><time>2026-03-25T07:15:12.001Z</time></trkpt><trkpt lat="44.363454474021026" lon="9.897599035768653"><ele>234.0</ele><time>2026-03-25T07:15:13.001Z</time></trkpt><trkpt lat="44.36357670962433" lon="9.897400343714706"><ele>234.33333333333331</ele><time>2026-03-25T07:15:14.001Z</time></trkpt><trkpt lat="44.36368898383456" lon="9.897201923937883"><ele>234.66666666666666</ele><time>2026-03-25T07:15:15.001Z</time></trkpt><trkpt lat="44.36381836925589" lon="9.897014554097465"><ele>235.0</ele><time>2026-03-25T07:15:16.001Z</time></trkpt><trkpt lat="44.36393330604168" lon="9.896820605611065"><ele>229.66666666666666</ele><time>2026-03-25T07:15:17.001Z</time></trkpt><trkpt lat="44.36405559491306" lon="9.896630546335908"><ele>224.33333333333331</ele><time>2026-03-25T07:15:18.001Z</time></trkpt><trkpt lat="44.36415345165794" lon="9.896427665865119"><ele>219.0</ele><time>2026-03-25T07:15:19.001Z</time></trkpt><trkpt lat="44.36425671659263" lon="9.896246576255477"><ele>219.0</ele><time>2026-03-25T07:15:20.001Z</time></trkpt><trkpt lat="44.36436360591088" lon="9.896058904243892"><ele>219.0</ele><time>2026-03-25T07:15:21.001Z</time></trkpt><trkpt lat="44.36447745784507" lon="9.895851419197157"><ele>219.0</ele><time>2026-03-25T07:15:22.001Z</time></trkpt><trkpt lat="44.36455624130862" lon="9.89564861526616"><ele>217.66666666666669</ele><time>2026-03-25T07:15:23.001Z</time></trkpt><trkpt lat="44.36464367797716" lon="9.895425337891282"><ele>216.33333333333334</ele><time>2026-03-25T07:15:24.001Z</time></trkpt><trkpt lat="44.36471098661243" lon="9.89520558016818"><ele>215.0</ele><time>2026-03-25T07:15:25.001Z</time></trkpt><trkpt lat="44.364785949616824" lon="9.894991766139539"><ele>221.66666666666669</ele><time>2026-03-25T07:15:26.001Z</time></trkpt><trkpt lat="44.36485146982384" lon="9.894758456941908"><ele>228.33333333333331</ele><time>2026-03-25T07:15:27.001Z</time></trkpt><trkpt lat="44.36492296462945" lon="9.894525989926393"><ele>235.0</ele><time>2026-03-25T07:15:28.001Z</time></trkpt><trkpt lat="44.36499415897496" lon="9.894301207103197"><ele>234.66666666666666</ele><time>2026-03-25T07:15:29.001Z</time></trkpt><trkpt lat="44.36504469586824" lon="9.89406301618894"><ele>234.33333333333331</ele><time>2026-03-25T07:15:30.001Z</time></trkpt><trkpt lat="44.365046853907415" lon="9.89380339815356"><ele>234.0</ele><time>2026-03-25T07:15:31.001Z</time></trkpt><trkpt lat="44.365053679664356" lon="9.893551148762993"><ele>234.0</ele><time>2026-03-25T07:15:32.001Z</time></trkpt><trkpt lat="44.3650472280269" lon="9.89330205462535"><ele>234.0</ele><time>2026-03-25T07:15:33.001Z</time></trkpt><trkpt lat="44.36503781172399" lon="9.89304170144595"><ele>234.0</ele><time>2026-03-25T07:15:34.001Z</time></trkpt><trkpt lat="44.365041789596205" lon="9.89279785533436"><ele>233.0</ele><time>2026-03-25T07:15:35.001Z</time></trkpt><trkpt lat="44.36503477726379" lon="9.892553500800009"><ele>232.0</ele><time>2026-03-25T07:15:36.001Z</time></trkpt><trkpt lat="44.36502743567286" lon="9.892304633100645"><ele>231.0</ele><time>2026-03-25T07:15:37.001Z</time></trkpt><trkpt lat="44.36497042755369" lon="9.89202892319207"><ele>231.0</ele><time>2026-03-25T07:15:38.001Z</time></trkpt><trkpt lat="44.36489655501182" lon="9.891785848201177"><ele>231.0</ele><time>2026-03-25T07:15:39.001Z</time></trkpt><trkpt lat="44.36508389503688" lon="9.891477357149647"><ele>229.66666666666669</ele><time>2026-03-25T07:15:40.001Z</time></trkpt><trkpt lat="44.36508281889716" lon="9.891220715187222"><ele>228.33333333333334</ele><time>2026-03-25T07:15:41.001Z</time></trkpt><trkpt lat="44.36509768375876" lon="9.890967133905944"><ele>227.0</ele><time>2026-03-25T07:15:42.001Z</time></trkpt><trkpt lat="44.36510778217114" lon="9.890695554057755"><ele>227.0</ele><time>2026-03-25T07:15:43.001Z</time></trkpt><trkpt lat="44.36511032054058" lon="9.890433161068561"><ele>227.0</ele><time>2026-03-25T07:15:44.001Z</time></trkpt><trkpt lat="44.36515624010855" lon="9.890200336148059"><ele>227.0</ele><time>2026-03-25T07:15:45.001Z</time></trkpt><trkpt lat="44.36523143295693" lon="9.889967487569175"><ele>228.0</ele><time>2026-03-25T07:15:46.001Z</time></trkpt><trkpt lat="44.36529748544788" lon="9.889742161732297"><ele>229.0</ele><time>2026-03-25T07:15:47.001Z</time></trkpt><trkpt lat="44.36534732768357" lon="9.889518214893105"><ele>230.0</ele><time>2026-03-25T07:15:48.001Z</time></trkpt><trkpt lat="44.368451966664374" lon="9.883796861800427"><ele>224.0</ele><time>2026-03-25T07:16:13.019Z</time></trkpt><trkpt lat="44.36985821053775" lon="9.883744502581967"><ele>226.0</ele><time>2026-03-25T07:16:14.001Z</time></trkpt><trkpt lat="44.36992370085332" lon="9.885862817333845"><ele>226.0</ele><time>2026-03-25T07:16:15.001Z</time></trkpt><trkpt lat="44.37013847780238" lon="9.88580920574721"><ele>226.0</ele><time>2026-03-25T07:16:16.001Z</time></trkpt><trkpt lat="44.37020499393695" lon="9.885947997789195"><ele>226.0</ele><time>2026-03-25T07:16:17.001Z</time></trkpt><trkpt lat="44.37023915258797" lon="9.886110789193234"><ele>226.60000000000002</ele><time>2026-03-25T07:16:18.001Z</time></trkpt><trkpt lat="44.370272998518246" lon="9.88622988821223"><ele>227.20000000000002</ele><time>2026-03-25T07:16:19.001Z</time></trkpt><trkpt lat="44.37038080803085" lon="9.886298115462097"><ele>227.79999999999998</ele><time>2026-03-25T07:16:20.001Z</time></trkpt><trkpt lat="44.370474664794294" lon="9.886334339327906"><ele>228.39999999999998</ele><time>2026-03-25T07:16:21.001Z</time></trkpt><trkpt lat="44.37054119063876" lon="9.886379520213671"><ele>229.0</ele><time>2026-03-25T07:16:22.001Z</time></trkpt><trkpt lat="44.37060783533522" lon="9.886439295692393"><ele>229.0</ele><time>2026-03-25T07:16:23.001Z</time></trkpt><trkpt lat="44.37071723941813" lon="9.886477307628125"><ele>228.99999999999997</ele><time>2026-03-25T07:16:24.001Z</time></trkpt><trkpt lat="44.370809296792274" lon="9.886511680100803"><ele>228.99999999999997</ele><time>2026-03-25T07:16:25.001Z</time></trkpt><trkpt lat="44.37089673981687" lon="9.886546930854047"><ele>229.0</ele><time>2026-03-25T07:16:26.001Z</time></trkpt><trkpt lat="44.37096888922996" lon="9.886596544000948"><ele>229.0</ele><time>2026-03-25T07:16:27.001Z</time></trkpt><trkpt lat="44.37105946019138" lon="9.88665925182675"><ele>228.99999999999997</ele><time>2026-03-25T07:16:28.001Z</time></trkpt><trkpt lat="44.371134112372864" lon="9.886721173314431"><ele>229.0</ele><time>2026-03-25T07:16:29.001Z</time></trkpt><trkpt lat="44.371200032306824" lon="9.886778908120704"><ele>229.0</ele><time>2026-03-25T07:16:30.001Z</time></trkpt><trkpt lat="44.37123787297613" lon="9.8869101576061"><ele>229.0</ele><time>2026-03-25T07:16:31.001Z</time></trkpt><trkpt lat="44.37131129304358" lon="9.887003026480215"><ele>228.99999999999997</ele><time>2026-03-25T07:16:32.001Z</time></trkpt><trkpt lat="44.37137848283978" lon="9.887061234531743"><ele>229.0</ele><time>2026-03-25T07:16:33.001Z</time></trkpt><trkpt lat="44.37143844501826" lon="9.887144366667668"><ele>229.83333333333331</ele><time>2026-03-25T07:16:34.001Z</time></trkpt><trkpt lat="44.37148649257306" lon="9.887235083607456"><ele>230.66666666666666</ele><time>2026-03-25T07:16:35.001Z</time></trkpt><trkpt lat="44.371539376734496" lon="9.887322311931282"><ele>231.5</ele><time>2026-03-25T07:16:36.001Z</time></trkpt><trkpt lat="44.37155606929385" lon="9.887442026655972"><ele>232.33333333333331</ele><time>2026-03-25T07:16:37.001Z</time></trkpt><trkpt lat="44.37157369116275" lon="9.887556655478301"><ele>233.16666666666666</ele><time>2026-03-25T07:16:38.001Z</time></trkpt><trkpt lat="44.37166422055863" lon="9.887647511842822"><ele>234.0</ele><time>2026-03-25T07:16:40.001Z</time></trkpt><trkpt lat="44.371783454919786" lon="9.887664091102215"><ele>236.2</ele><time>2026-03-25T07:16:42.001Z</time></trkpt><trkpt lat="44.371847448933856" lon="9.887667103693818"><ele>238.39999999999998</ele><time>2026-03-25T07:16:43.001Z</time></trkpt><trkpt lat="44.371924937906726" lon="9.887677994023443"><ele>240.6</ele><time>2026-03-25T07:16:44.001Z</time></trkpt><trkpt lat="44.37203325045984" lon="9.887662099864464"><ele>242.8</ele><time>2026-03-25T07:16:46.001Z</time></trkpt><trkpt lat="44.3721609203876" lon="9.88765594387464"><ele>245.0</ele><time>2026-03-25T07:16:48.001Z</time></trkpt><trkpt lat="44.37227167980667" lon="9.887659436379039"><ele>245.0</ele><time>2026-03-25T07:16:50.001Z</time></trkpt><trkpt lat="44.372377814127525" lon="9.887652936500679"><ele>245.0</ele><time>2026-03-25T07:16:52.001Z</time></trkpt><trkpt lat="44.372441872146815" lon="9.88762649537706"><ele>245.0</ele><time>2026-03-25T07:16:55.001Z</time></trkpt><trkpt lat="44.37232830281956" lon="9.887609100823706"><ele>245.0</ele><time>2026-03-25T07:18:52.001Z</time></trkpt><trkpt lat="44.372409485622605" lon="9.88762271278516"><ele>245.0</ele><time>2026-03-25T07:19:16.001Z</time></trkpt><trkpt lat="44.372551812286694" lon="9.887599574277623"><ele>243.0</ele><time>2026-03-25T07:19:21.001Z</time></trkpt><trkpt lat="44.37265334292221" lon="9.887587398341735"><ele>241.0</ele><time>2026-03-25T07:19:23.001Z</time></trkpt><trkpt lat="44.37277375058591" lon="9.887562520598207"><ele>239.0</ele><time>2026-03-25T07:19:25.001Z</time></trkpt><trkpt lat="44.372889387724534" lon="9.887532896239875"><ele>237.0</ele><time>2026-03-25T07:19:27.001Z</time></trkpt><trkpt lat="44.37295858890175" lon="9.887514704488304"><ele>235.0</ele><time>2026-03-25T07:19:28.001Z</time></trkpt><trkpt lat="44.37302161208871" lon="9.887495433871006"><ele>235.14285714285714</ele><time>2026-03-25T07:19:29.001Z</time></trkpt><trkpt lat="44.37308809291397" lon="9.887476899134683"><ele>235.28571428571428</ele><time>2026-03-25T07:19:30.001Z</time></trkpt><trkpt lat="44.373156290519084" lon="9.887450578135343"><ele>235.42857142857142</ele><time>2026-03-25T07:19:31.001Z</time></trkpt><trkpt lat="44.37322697502587" lon="9.887424980017279"><ele>235.57142857142856</ele><time>2026-03-25T07:19:32.001Z</time></trkpt><trkpt lat="44.37329823979629" lon="9.887402935597327"><ele>235.71428571428572</ele><time>2026-03-25T07:19:33.001Z</time></trkpt><trkpt lat="44.373367157560224" lon="9.887372043584717"><ele>235.85714285714283</ele><time>2026-03-25T07:19:34.001Z</time></trkpt><trkpt lat="44.37343965363946" lon="9.88734103707496"><ele>236.0</ele><time>2026-03-25T07:19:35.001Z</time></trkpt><trkpt lat="44.373509793727585" lon="9.887311964163821"><ele>236.00000000000003</ele><time>2026-03-25T07:19:36.001Z</time></trkpt><trkpt lat="44.3735822424347" lon="9.887281118085223"><ele>236.0</ele><time>2026-03-25T07:19:37.001Z</time></trkpt><trkpt lat="44.373653704135" lon="9.887249330799232"><ele>236.0</ele><time>2026-03-25T07:19:38.001Z</time></trkpt><trkpt lat="44.37372465290078" lon="9.887216698485261"><ele>236.0</ele><time>2026-03-25T07:19:39.001Z</time></trkpt><trkpt lat="44.37379559115181" lon="9.887183491011019"><ele>236.00000000000003</ele><time>2026-03-25T07:19:40.001Z</time></trkpt><trkpt lat="44.373868432786026" lon="9.88715175238737"><ele>236.0</ele><time>2026-03-25T07:19:41.001Z</time></trkpt><trkpt lat="44.373946594344" lon="9.887118056356158"><ele>236.33333333333334</ele><time>2026-03-25T07:19:42.001Z</time></trkpt><trkpt lat="44.37402178898257" lon="9.887079477267784"><ele>236.66666666666669</ele><time>2026-03-25T07:19:43.001Z</time></trkpt><trkpt lat="44.37409856262181" lon="9.88703893465168"><ele>237.0</ele><time>2026-03-25T07:19:44.001Z</time></trkpt><trkpt lat="44.374174068751365" lon="9.886994509682204"><ele>237.33333333333331</ele><time>2026-03-25T07:19:45.001Z</time></trkpt><trkpt lat="44.37425152325289" lon="9.886949117858945"><ele>237.66666666666666</ele><time>2026-03-25T07:19:46.001Z</time></trkpt><trkpt lat="44.374327513279596" lon="9.8868996357481"><ele>238.0</ele><time>2026-03-25T07:19:47.001Z</time></trkpt><trkpt lat="44.374401224638284" lon="9.886846599006525"><ele>238.0</ele><time>2026-03-25T07:19:48.001Z</time></trkpt><trkpt lat="44.37448574053619" lon="9.886790861297644"><ele>238.0</ele><time>2026-03-25T07:19:49.001Z</time></trkpt><trkpt lat="44.374567517784264" lon="9.886732813447544"><ele>238.0</ele><time>2026-03-25T07:19:50.001Z</time></trkpt><trkpt lat="44.374652473342444" lon="9.886672404809634"><ele>238.0</ele><time>2026-03-25T07:19:51.001Z</time></trkpt><trkpt lat="44.37473816868619" lon="9.886611507751034"><ele>238.0</ele><time>2026-03-25T07:19:52.001Z</time></trkpt><trkpt lat="44.37482148921556" lon="9.886541789662186"><ele>238.2</ele><time>2026-03-25T07:19:53.001Z</time></trkpt><trkpt lat="44.37490687746125" lon="9.886471969917144"><ele>238.4</ele><time>2026-03-25T07:19:54.001Z</time></trkpt><trkpt lat="44.37499672741989" lon="9.886393989148033"><ele>238.59999999999997</ele><time>2026-03-25T07:19:55.001Z</time></trkpt><trkpt lat="44.37509010935214" lon="9.886317263494172"><ele>238.79999999999998</ele><time>2026-03-25T07:19:56.001Z</time></trkpt><trkpt lat="44.3751817450185" lon="9.886236435695155"><ele>239.0</ele><time>2026-03-25T07:19:57.001Z</time></trkpt><trkpt lat="44.37528131803002" lon="9.886155350707284"><ele>239.0</ele><time>2026-03-25T07:19:58.001Z</time></trkpt><trkpt lat="44.375383958582866" lon="9.886071747483397"><ele>239.0</ele><time>2026-03-25T07:19:59.001Z</time></trkpt><trkpt lat="44.375484285507596" lon="9.88598607164117"><ele>239.0</ele><time>2026-03-25T07:20:00.001Z</time></trkpt><trkpt lat="44.37559196291091" lon="9.88590320095125"><ele>239.0</ele><time>2026-03-25T07:20:01.001Z</time></trkpt><trkpt lat="44.37570690638985" lon="9.885824236357069"><ele>240.25</ele><time>2026-03-25T07:20:02.001Z</time></trkpt><trkpt lat="44.375820697360986" lon="9.88573659966464"><ele>241.5</ele><time>2026-03-25T07:20:03.001Z</time></trkpt><trkpt lat="44.37593058492977" lon="9.885653960558573"><ele>242.75</ele><time>2026-03-25T07:20:04.001Z</time></trkpt><trkpt lat="44.37603310092309" lon="9.885586346752119"><ele>244.0</ele><time>2026-03-25T07:20:05.001Z</time></trkpt><trkpt lat="44.37615208845036" lon="9.885535890074364"><ele>244.0</ele><time>2026-03-25T07:20:06.001Z</time></trkpt><trkpt lat="44.37626102328335" lon="9.88547298662791"><ele>244.0</ele><time>2026-03-25T07:20:07.001Z</time></trkpt><trkpt lat="44.37635934091609" lon="9.885397615404012"><ele>244.0</ele><time>2026-03-25T07:20:08.001Z</time></trkpt><trkpt lat="44.3764796598739" lon="9.885321127882943"><ele>244.0</ele><time>2026-03-25T07:20:09.001Z</time></trkpt><trkpt lat="44.376634923211896" lon="9.885255039872042"><ele>242.33333333333331</ele><time>2026-03-25T07:20:10.001Z</time></trkpt><trkpt lat="44.376780768741384" lon="9.885198523940847"><ele>240.66666666666669</ele><time>2026-03-25T07:20:11.001Z</time></trkpt><trkpt lat="44.37692868381467" lon="9.885144033143785"><ele>239.0</ele><time>2026-03-25T07:20:12.001Z</time></trkpt><trkpt lat="44.377066924351446" lon="9.885080903216362"><ele>240.25</ele><time>2026-03-25T07:20:13.001Z</time></trkpt><trkpt lat="44.377202071349586" lon="9.885014966822778"><ele>241.5</ele><time>2026-03-25T07:20:14.001Z</time></trkpt><trkpt lat="44.377347712452035" lon="9.884975787083777"><ele>242.75</ele><time>2026-03-25T07:20:15.001Z</time></trkpt><trkpt lat="44.37748417091277" lon="9.88491843649211"><ele>244.0</ele><time>2026-03-25T07:20:16.001Z</time></trkpt><trkpt lat="44.37762526902151" lon="9.884866315983338"><ele>244.0</ele><time>2026-03-25T07:20:17.001Z</time></trkpt><trkpt lat="44.37774608515058" lon="9.884782893523989"><ele>244.0</ele><time>2026-03-25T07:20:18.001Z</time></trkpt><trkpt lat="44.37789243100494" lon="9.884730178205055"><ele>244.0</ele><time>2026-03-25T07:20:19.001Z</time></trkpt><trkpt lat="44.37803801632163" lon="9.88468401729712"><ele>244.0</ele><time>2026-03-25T07:20:20.001Z</time></trkpt><trkpt lat="44.37817517743962" lon="9.884615310418456"><ele>245.33333333333331</ele><time>2026-03-25T07:20:21.001Z</time></trkpt><trkpt lat="44.378334703566864" lon="9.88455903210579"><ele>246.66666666666669</ele><time>2026-03-25T07:20:22.001Z</time></trkpt><trkpt lat="44.37848511829918" lon="9.884512021691618"><ele>248.0</ele><time>2026-03-25T07:20:23.001Z</time></trkpt><trkpt lat="44.378645664411245" lon="9.88446601407521"><ele>248.0</ele><time>2026-03-25T07:20:24.001Z</time></trkpt><trkpt lat="44.378802062823596" lon="9.884406027266161"><ele>248.0</ele><time>2026-03-25T07:20:25.001Z</time></trkpt><trkpt lat="44.37896595766877" lon="9.884347785237637"><ele>248.0</ele><time>2026-03-25T07:20:26.001Z</time></trkpt><trkpt lat="44.37911965822144" lon="9.884285761618843"><ele>246.33333333333334</ele><time>2026-03-25T07:20:27.001Z</time></trkpt><trkpt lat="44.37927844078207" lon="9.884225932547322"><ele>244.66666666666669</ele><time>2026-03-25T07:20:28.001Z</time></trkpt><trkpt lat="44.37943866147301" lon="9.884160020351109"><ele>243.0</ele><time>2026-03-25T07:20:29.001Z</time></trkpt><trkpt lat="44.37959202376807" lon="9.884087352307615"><ele>245.0</ele><time>2026-03-25T07:20:30.001Z</time></trkpt><trkpt lat="44.379752146968" lon="9.88400501781769"><ele>247.0</ele><time>2026-03-25T07:20:31.001Z</time></trkpt><trkpt lat="44.37990691460877" lon="9.883911400490797"><ele>249.0</ele><time>2026-03-25T07:20:32.001Z</time></trkpt><trkpt lat="44.38005934190999" lon="9.883811327585375"><ele>249.0</ele><time>2026-03-25T07:20:33.001Z</time></trkpt><trkpt lat="44.380210381570485" lon="9.8837001369561"><ele>249.0</ele><time>2026-03-25T07:20:34.001Z</time></trkpt><trkpt lat="44.380353832107275" lon="9.883579800315568"><ele>249.0</ele><time>2026-03-25T07:20:35.001Z</time></trkpt><trkpt lat="44.38050792448828" lon="9.883433550689583"><ele>247.0</ele><time>2026-03-25T07:20:36.001Z</time></trkpt><trkpt lat="44.380662924349004" lon="9.88328716072362"><ele>245.0</ele><time>2026-03-25T07:20:37.001Z</time></trkpt><trkpt lat="44.38081530159222" lon="9.883133175170933"><ele>243.0</ele><time>2026-03-25T07:20:38.001Z</time></trkpt><trkpt lat="44.38094823173704" lon="9.88295883871747"><ele>243.0</ele><time>2026-03-25T07:20:39.001Z</time></trkpt><trkpt lat="44.38108169459146" lon="9.882776242946127"><ele>243.0</ele><time>2026-03-25T07:20:40.001Z</time></trkpt><trkpt lat="44.38120521074429" lon="9.882584549305808"><ele>243.0</ele><time>2026-03-25T07:20:41.001Z</time></trkpt><trkpt lat="44.381316407736286" lon="9.882378021441385"><ele>253.33333333333331</ele><time>2026-03-25T07:20:42.001Z</time></trkpt><trkpt lat="44.381420468679295" lon="9.88215661549928"><ele>263.66666666666663</ele><time>2026-03-25T07:20:43.001Z</time></trkpt><trkpt lat="44.381513260098714" lon="9.881928417925657"><ele>274.0</ele><time>2026-03-25T07:20:44.001Z</time></trkpt><trkpt lat="44.38160154783909" lon="9.881695100902956"><ele>282.3333333333333</ele><time>2026-03-25T07:20:45.001Z</time></trkpt><trkpt lat="44.38167653275805" lon="9.881454943089638"><ele>290.6666666666667</ele><time>2026-03-25T07:20:46.001Z</time></trkpt><trkpt lat="44.3817489882338" lon="9.881191262648311"><ele>299.0</ele><time>2026-03-25T07:20:47.08Z</time></trkpt><trkpt lat="44.3818048973462" lon="9.880944958308651"><ele>300.33333333333337</ele><time>2026-03-25T07:20:48.069Z</time></trkpt><trkpt lat="44.38185303049701" lon="9.880694339442943"><ele>301.6666666666667</ele><time>2026-03-25T07:20:49.065Z</time></trkpt><trkpt lat="44.38189564540633" lon="9.880440826991393"><ele>303.0</ele><time>2026-03-25T07:20:50.064Z</time></trkpt><trkpt lat="44.38043839799171" lon="9.874168472554073"><ele>281.5</ele><time>2026-03-25T07:21:16.012Z</time></trkpt><trkpt lat="44.3804208746888" lon="9.873703524462343"><ele>260.0</ele><time>2026-03-25T07:21:18.015Z</time></trkpt><trkpt lat="44.38034899656741" lon="9.873527402874608"><ele>261.33333333333337</ele><time>2026-03-25T07:21:19.02Z</time></trkpt><trkpt lat="44.38035592744015" lon="9.873251166594077"><ele>262.6666666666667</ele><time>2026-03-25T07:21:20.018Z</time></trkpt><trkpt lat="44.380290904315565" lon="9.87304972304456"><ele>264.0</ele><time>2026-03-25T07:21:21.018Z</time></trkpt><trkpt lat="44.38024646886698" lon="9.872822376600652"><ele>264.0</ele><time>2026-03-25T07:21:22.019Z</time></trkpt><trkpt lat="44.38021442877229" lon="9.872615710172619"><ele>264.0</ele><time>2026-03-25T07:21:23.001Z</time></trkpt><trkpt lat="44.380173882849334" lon="9.872403964153257"><ele>264.0</ele><time>2026-03-25T07:21:24.001Z</time></trkpt><trkpt lat="44.38013190277322" lon="9.872215679475792"><ele>264.0</ele><time>2026-03-25T07:21:25.001Z</time></trkpt><trkpt lat="44.38003697882287" lon="9.872008652889704"><ele>264.6666666666667</ele><time>2026-03-25T07:21:26.001Z</time></trkpt><trkpt lat="44.3799117626391" lon="9.871809667052005"><ele>265.33333333333337</ele><time>2026-03-25T07:21:27.001Z</time></trkpt><trkpt lat="44.37980191020974" lon="9.871610479796205"><ele>266.0</ele><time>2026-03-25T07:21:28.001Z</time></trkpt><trkpt lat="44.37969907568872" lon="9.871438225370348"><ele>266.0</ele><time>2026-03-25T07:21:29.001Z</time></trkpt><trkpt lat="44.37955760066147" lon="9.871272750929883"><ele>266.0</ele><time>2026-03-25T07:21:30.001Z</time></trkpt><trkpt lat="44.37936073888546" lon="9.871136687619936"><ele>266.0</ele><time>2026-03-25T07:21:31.001Z</time></trkpt><trkpt lat="44.37922696583057" lon="9.871046250810716"><ele>266.0</ele><time>2026-03-25T07:21:32.001Z</time></trkpt><trkpt lat="44.37909844451209" lon="9.870941191536913"><ele>266.0</ele><time>2026-03-25T07:21:33.001Z</time></trkpt><trkpt lat="44.3789697920509" lon="9.870799700367797"><ele>266.0</ele><time>2026-03-25T07:21:34.001Z</time></trkpt><trkpt lat="44.37883551153911" lon="9.870653046754455"><ele>265.0</ele><time>2026-03-25T07:21:35.001Z</time></trkpt><trkpt lat="44.378658326970886" lon="9.870503611566273"><ele>264.0</ele><time>2026-03-25T07:21:36.001Z</time></trkpt><trkpt lat="44.37851979191644" lon="9.870358610240052"><ele>263.0</ele><time>2026-03-25T07:21:37.001Z</time></trkpt><trkpt lat="44.37838336573435" lon="9.870223890771422"><ele>264.0</ele><time>2026-03-25T07:21:38.001Z</time></trkpt><trkpt lat="44.3782304347632" lon="9.870072968059699"><ele>265.0</ele><time>2026-03-25T07:21:39.001Z</time></trkpt><trkpt lat="44.37808644142491" lon="9.86991361121307"><ele>266.0</ele><time>2026-03-25T07:21:40.001Z</time></trkpt><trkpt lat="44.377958952442185" lon="9.869744530522986"><ele>266.0</ele><time>2026-03-25T07:21:41.001Z</time></trkpt><trkpt lat="44.377848747918755" lon="9.869559067649202"><ele>266.0</ele><time>2026-03-25T07:21:42.001Z</time></trkpt><trkpt lat="44.37774408681539" lon="9.869361793867208"><ele>266.0</ele><time>2026-03-25T07:21:43.001Z</time></trkpt><trkpt lat="44.37764866551882" lon="9.869157277132391"><ele>269.0</ele><time>2026-03-25T07:21:44.001Z</time></trkpt><trkpt lat="44.37755484923102" lon="9.868949913937097"><ele>272.0</ele><time>2026-03-25T07:21:45.001Z</time></trkpt><trkpt lat="44.37746829948171" lon="9.868722841843383"><ele>275.0</ele><time>2026-03-25T07:21:46.001Z</time></trkpt><trkpt lat="44.377398830719" lon="9.868493574977663"><ele>276.6666666666667</ele><time>2026-03-25T07:21:47.001Z</time></trkpt><trkpt lat="44.377340606090705" lon="9.868274217913328"><ele>278.3333333333333</ele><time>2026-03-25T07:21:48.001Z</time></trkpt><trkpt lat="44.377287162219595" lon="9.868057439606831"><ele>280.0</ele><time>2026-03-25T07:21:49.001Z</time></trkpt><trkpt lat="44.37729519153055" lon="9.867845945597443"><ele>280.0</ele><time>2026-03-25T07:21:50.001Z</time></trkpt><trkpt lat="44.37727161571298" lon="9.867613092160447"><ele>280.0</ele><time>2026-03-25T07:21:51.001Z</time></trkpt><trkpt lat="44.377256119150516" lon="9.867370541503465"><ele>280.0</ele><time>2026-03-25T07:21:52.001Z</time></trkpt><trkpt lat="44.37725856795962" lon="9.867130435864476"><ele>280.3333333333333</ele><time>2026-03-25T07:21:53.001Z</time></trkpt><trkpt lat="44.37726415614915" lon="9.866887783938795"><ele>280.6666666666667</ele><time>2026-03-25T07:21:54.001Z</time></trkpt><trkpt lat="44.3772842055564" lon="9.866658643651954"><ele>281.0</ele><time>2026-03-25T07:21:55.001Z</time></trkpt><trkpt lat="44.37732444999316" lon="9.866437402236153"><ele>281.0</ele><time>2026-03-25T07:21:56.001Z</time></trkpt><trkpt lat="44.37737090569744" lon="9.866202527820741"><ele>281.0</ele><time>2026-03-25T07:21:57.001Z</time></trkpt><trkpt lat="44.37746809100623" lon="9.865949730044088"><ele>281.0</ele><time>2026-03-25T07:21:58.001Z</time></trkpt><trkpt lat="44.37753142965989" lon="9.865719817416002"><ele>284.0</ele><time>2026-03-25T07:21:59.001Z</time></trkpt><trkpt lat="44.377608861017954" lon="9.865482774086525"><ele>287.0</ele><time>2026-03-25T07:22:00.001Z</time></trkpt><trkpt lat="44.37768763879005" lon="9.86526397983337"><ele>290.0</ele><time>2026-03-25T07:22:01.001Z</time></trkpt><trkpt lat="44.37779467395149" lon="9.86505249504363"><ele>288.0</ele><time>2026-03-25T07:22:02.001Z</time></trkpt><trkpt lat="44.37791319500396" lon="9.864859631213912"><ele>286.0</ele><time>2026-03-25T07:22:03.001Z</time></trkpt><trkpt lat="44.378035301936755" lon="9.86467312112826"><ele>284.0</ele><time>2026-03-25T07:22:04.001Z</time></trkpt><trkpt lat="44.378151768571854" lon="9.864493184011122"><ele>284.0</ele><time>2026-03-25T07:22:05.001Z</time></trkpt><trkpt lat="44.37827389674645" lon="9.864309072299637"><ele>284.0</ele><time>2026-03-25T07:22:06.001Z</time></trkpt><trkpt lat="44.37840969557314" lon="9.86412174859821"><ele>284.0</ele><time>2026-03-25T07:22:07.001Z</time></trkpt><trkpt lat="44.37854686775096" lon="9.86393722359488"><ele>286.33333333333337</ele><time>2026-03-25T07:22:08.001Z</time></trkpt><trkpt lat="44.37865170867217" lon="9.863766306294615"><ele>288.6666666666667</ele><time>2026-03-25T07:22:09.001Z</time></trkpt><trkpt lat="44.37876375559134" lon="9.863603617776477"><ele>291.0</ele><time>2026-03-25T07:22:10.001Z</time></trkpt><trkpt lat="44.37889156028926" lon="9.863444729222985"><ele>291.3333333333333</ele><time>2026-03-25T07:22:11.001Z</time></trkpt><trkpt lat="44.37901397573421" lon="9.863268249621608"><ele>291.66666666666663</ele><time>2026-03-25T07:22:12.001Z</time></trkpt><trkpt lat="44.37914999593464" lon="9.86308701087241"><ele>292.0</ele><time>2026-03-25T07:22:13.001Z</time></trkpt><trkpt lat="44.379271496216674" lon="9.86289663567518"><ele>292.0</ele><time>2026-03-25T07:22:14.001Z</time></trkpt><trkpt lat="44.37939557383701" lon="9.86269337305725"><ele>292.0</ele><time>2026-03-25T07:22:15.001Z</time></trkpt><trkpt lat="44.37951231743116" lon="9.862488600978185"><ele>292.0</ele><time>2026-03-25T07:22:16.001Z</time></trkpt><trkpt lat="44.37958865478643" lon="9.86226255790239"><ele>295.66666666666663</ele><time>2026-03-25T07:22:17.001Z</time></trkpt><trkpt lat="44.37966338169185" lon="9.862028054095786"><ele>299.3333333333333</ele><time>2026-03-25T07:22:18.001Z</time></trkpt><trkpt lat="44.37973475720576" lon="9.861788226264714"><ele>303.0</ele><time>2026-03-25T07:22:19.001Z</time></trkpt><trkpt lat="44.37978604767823" lon="9.861549540340175"><ele>306.0</ele><time>2026-03-25T07:22:20.001Z</time></trkpt><trkpt lat="44.379996343167335" lon="9.86141082468014"><ele>309.0</ele><time>2026-03-25T07:22:21.001Z</time></trkpt><trkpt lat="44.380072614676855" lon="9.861186760987444"><ele>312.0</ele><time>2026-03-25T07:22:22.001Z</time></trkpt><trkpt lat="44.38014966667196" lon="9.860960404446343"><ele>315.3333333333333</ele><time>2026-03-25T07:22:23.001Z</time></trkpt><trkpt lat="44.38022652317345" lon="9.860734739629342"><ele>318.66666666666663</ele><time>2026-03-25T07:22:24.001Z</time></trkpt><trkpt lat="44.3803096491242" lon="9.860491222003763"><ele>322.0</ele><time>2026-03-25T07:22:25.075Z</time></trkpt><trkpt lat="44.38039237171779" lon="9.860248886041562"><ele>324.66666666666663</ele><time>2026-03-25T07:22:26.054Z</time></trkpt><trkpt lat="44.38047010766001" lon="9.860021158479762"><ele>327.3333333333333</ele><time>2026-03-25T07:22:27.052Z</time></trkpt><trkpt lat="44.3805544081965" lon="9.859774200099412"><ele>330.0</ele><time>2026-03-25T07:22:28.052Z</time></trkpt><trkpt lat="44.380606957393084" lon="9.859504146274904"><ele>333.6666666666667</ele><time>2026-03-25T07:22:29.048Z</time></trkpt><trkpt lat="44.38065512135941" lon="9.859221554760012"><ele>337.33333333333337</ele><time>2026-03-25T07:22:30.045Z</time></trkpt><trkpt lat="44.38069906781704" lon="9.858923422363885"><ele>341.0</ele><time>2026-03-25T07:22:31.04Z</time></trkpt><trkpt lat="44.38003670485741" lon="9.858159580883589"><ele>380.0</ele><time>2026-03-25T07:22:32.037Z</time></trkpt><trkpt lat="44.38051786058639" lon="9.851235946489865"><ele>380.0</ele><time>2026-03-25T07:23:16.015Z</time></trkpt><trkpt lat="44.38053058858829" lon="9.851335045466746"><ele>380.0</ele><time>2026-03-25T07:23:17.016Z</time></trkpt><trkpt lat="44.380528211786554" lon="9.851442349450476"><ele>380.0</ele><time>2026-03-25T07:23:18.013Z</time></trkpt><trkpt lat="44.38051940543783" lon="9.85152976501411"><ele>380.0</ele><time>2026-03-25T07:23:19.016Z</time></trkpt><trkpt lat="44.38046848292187" lon="9.851671759814629"><ele>380.0</ele><time>2026-03-25T07:23:21.015Z</time></trkpt><trkpt lat="44.38041769729193" lon="9.85179029919813"><ele>380.0</ele><time>2026-03-25T07:23:23.014Z</time></trkpt><trkpt lat="44.38037555351908" lon="9.851870163166057"><ele>380.0</ele><time>2026-03-25T07:23:24.018Z</time></trkpt><trkpt lat="44.379610124474766" lon="9.853547855177103"><ele>380.0</ele><time>2026-03-25T07:23:42.017Z</time></trkpt><trkpt lat="44.379507199680525" lon="9.853697634077133"><ele>380.0</ele><time>2026-03-25T07:23:43.018Z</time></trkpt><trkpt lat="44.37942204493137" lon="9.853837448188694"><ele>380.0</ele><time>2026-03-25T07:23:44.019Z</time></trkpt><trkpt lat="44.379423647608434" lon="9.854120594959497"><ele>380.0</ele><time>2026-03-25T07:23:45.018Z</time></trkpt><trkpt lat="44.3793165925188" lon="9.854267586884122"><ele>380.0</ele><time>2026-03-25T07:23:46.019Z</time></trkpt><trkpt lat="44.37920774543697" lon="9.854419879963256"><ele>380.0</ele><time>2026-03-25T07:23:47.02Z</time></trkpt><trkpt lat="44.381511165794166" lon="9.854324259394334"><ele>381.5</ele><time>2026-03-25T07:23:56.02Z</time></trkpt><trkpt lat="44.38173251436367" lon="9.854183185600075"><ele>383.0</ele><time>2026-03-25T07:23:57.02Z</time></trkpt><trkpt lat="44.381331197272765" lon="9.854073094950733"><ele>380.25</ele><time>2026-03-25T07:23:58.02Z</time></trkpt><trkpt lat="44.38135731336002" lon="9.853919062678619"><ele>377.5</ele><time>2026-03-25T07:23:59.019Z</time></trkpt><trkpt lat="44.38138486317875" lon="9.853743604259384"><ele>374.75</ele><time>2026-03-25T07:24:00.019Z</time></trkpt><trkpt lat="44.38140531413955" lon="9.853560894884989"><ele>372.0</ele><time>2026-03-25T07:24:01.02Z</time></trkpt><trkpt lat="44.38142440481152" lon="9.853393209827384"><ele>371.75</ele><time>2026-03-25T07:24:02.02Z</time></trkpt><trkpt lat="44.38144879854174" lon="9.853214148989123"><ele>371.5</ele><time>2026-03-25T07:24:03.02Z</time></trkpt><trkpt lat="44.38146527445277" lon="9.853025579529959"><ele>371.25</ele><time>2026-03-25T07:24:04.019Z</time></trkpt><trkpt lat="44.38148499441327" lon="9.852864887593693"><ele>371.0</ele><time>2026-03-25T07:24:05.019Z</time></trkpt><trkpt lat="44.38155358787947" lon="9.85307450022614"><ele>371.0</ele><time>2026-03-25T07:24:06.021Z</time></trkpt><trkpt lat="44.38162434394946" lon="9.852899022379907"><ele>371.0</ele><time>2026-03-25T07:24:08.022Z</time></trkpt><trkpt lat="44.381654251445966" lon="9.852756718840851"><ele>371.0</ele><time>2026-03-25T07:24:09.021Z</time></trkpt><trkpt lat="44.38167550141105" lon="9.852608487843705"><ele>371.0</ele><time>2026-03-25T07:24:10.026Z</time></trkpt><trkpt lat="44.38169187604884" lon="9.852361961270228"><ele>371.33333333333337</ele><time>2026-03-25T07:24:11.021Z</time></trkpt><trkpt lat="44.38175556164293" lon="9.852122514962787"><ele>371.6666666666667</ele><time>2026-03-25T07:24:12.02Z</time></trkpt><trkpt lat="44.38180892720278" lon="9.851877744586908"><ele>372.0</ele><time>2026-03-25T07:24:13.02Z</time></trkpt><trkpt lat="44.38185978812161" lon="9.851635512319248"><ele>372.0</ele><time>2026-03-25T07:24:14.024Z</time></trkpt><trkpt lat="44.38190785917299" lon="9.851399624821283"><ele>372.0</ele><time>2026-03-25T07:24:15.019Z</time></trkpt><trkpt lat="44.38189968469731" lon="9.851022849431768"><ele>372.0</ele><time>2026-03-25T07:24:16.021Z</time></trkpt><trkpt lat="44.38192904796924" lon="9.850721485372098"><ele>373.0</ele><time>2026-03-25T07:24:17.021Z</time></trkpt><trkpt lat="44.382088059454574" lon="9.848890016267049"><ele>376.0</ele><time>2026-03-25T07:24:29.304Z</time></trkpt><trkpt lat="44.38194767316925" lon="9.850110890985544"><ele>359.0</ele><time>2026-03-25T07:24:40.021Z</time></trkpt><trkpt lat="44.382376971618584" lon="9.851229205016606"><ele>359.0</ele><time>2026-03-25T07:24:49.018Z</time></trkpt><trkpt lat="44.399919832120155" lon="9.850458807249568"><ele>359.0</ele><time>2026-03-25T07:24:58.002Z</time></trkpt><trkpt lat="44.40007470839997" lon="9.850431419371796"><ele>359.0</ele><time>2026-03-25T07:24:59.002Z</time></trkpt><trkpt lat="44.400234845057675" lon="9.850412009754868"><ele>359.0</ele><time>2026-03-25T07:25:00.002Z</time></trkpt><trkpt lat="44.400385409844674" lon="9.850377272428233"><ele>358.0</ele><time>2026-03-25T07:25:01.002Z</time></trkpt><trkpt lat="44.40055269521933" lon="9.850346885954844"><ele>357.0</ele><time>2026-03-25T07:25:02.002Z</time></trkpt><trkpt lat="44.40072570730919" lon="9.850320065508907"><ele>356.0</ele><time>2026-03-25T07:25:03.002Z</time></trkpt><trkpt lat="44.40089870383735" lon="9.850297344672422"><ele>356.0</ele><time>2026-03-25T07:25:04.002Z</time></trkpt><trkpt lat="44.40107584089173" lon="9.850265467334912"><ele>356.0</ele><time>2026-03-25T07:25:05.002Z</time></trkpt><trkpt lat="44.401230469251196" lon="9.850222874599638"><ele>356.0</ele><time>2026-03-25T07:25:06.002Z</time></trkpt><trkpt lat="44.40142282656303" lon="9.850166659405323"><ele>362.0</ele><time>2026-03-25T07:25:07.001Z</time></trkpt><trkpt lat="44.401596272006934" lon="9.850078730690885"><ele>368.0</ele><time>2026-03-25T07:25:08.001Z</time></trkpt><trkpt lat="44.40177544311863" lon="9.849973813831085"><ele>374.0</ele><time>2026-03-25T07:25:09.001Z</time></trkpt><trkpt lat="44.40194803589221" lon="9.849874810482785"><ele>374.0</ele><time>2026-03-25T07:25:10.001Z</time></trkpt><trkpt lat="44.402111047793305" lon="9.849784730998197"><ele>374.0</ele><time>2026-03-25T07:25:11.001Z</time></trkpt><trkpt lat="44.40227039638291" lon="9.849679967522313"><ele>374.0</ele><time>2026-03-25T07:25:12.001Z</time></trkpt><trkpt lat="44.402420711287846" lon="9.849557344921369"><ele>376.6666666666667</ele><time>2026-03-25T07:25:13.001Z</time></trkpt><trkpt lat="44.4025675798247" lon="9.849420282411643"><ele>379.3333333333333</ele><time>2026-03-25T07:25:14.001Z</time></trkpt><trkpt lat="44.40272751930908" lon="9.849246658052126"><ele>382.0</ele><time>2026-03-25T07:25:15.001Z</time></trkpt><trkpt lat="44.40287698455663" lon="9.849090933466982"><ele>377.3333333333333</ele><time>2026-03-25T07:25:16.001Z</time></trkpt><trkpt lat="44.40302173614029" lon="9.848937834735969"><ele>372.6666666666667</ele><time>2026-03-25T07:25:17.001Z</time></trkpt><trkpt lat="44.403167268350764" lon="9.848802498580893"><ele>368.0</ele><time>2026-03-25T07:25:18.001Z</time></trkpt><trkpt lat="44.40331478899181" lon="9.848672125629557"><ele>368.0</ele><time>2026-03-25T07:25:19.001Z</time></trkpt><trkpt lat="44.40346475378543" lon="9.848549223694592"><ele>368.0</ele><time>2026-03-25T07:25:20.001Z</time></trkpt><trkpt lat="44.40362196152097" lon="9.848436895298347"><ele>368.0</ele><time>2026-03-25T07:25:21.001Z</time></trkpt><trkpt lat="44.40378163077046" lon="9.848345747368985"><ele>380.0</ele><time>2026-03-25T07:25:22.001Z</time></trkpt><trkpt lat="44.403934749334375" lon="9.848241199179858"><ele>392.0</ele><time>2026-03-25T07:25:23.001Z</time></trkpt><trkpt lat="44.40408203578054" lon="9.848134702312423"><ele>404.0</ele><time>2026-03-25T07:25:24.001Z</time></trkpt><trkpt lat="44.40427268087611" lon="9.848110201357807"><ele>404.0</ele><time>2026-03-25T07:25:25.001Z</time></trkpt><trkpt lat="44.404437296626746" lon="9.848030215796799"><ele>404.0</ele><time>2026-03-25T07:25:26.001Z</time></trkpt><trkpt lat="44.404615153491555" lon="9.848224837650164"><ele>404.0</ele><time>2026-03-25T07:25:27.001Z</time></trkpt><trkpt lat="44.40478967334323" lon="9.84821518696071"><ele>412.5</ele><time>2026-03-25T07:25:28.074Z</time></trkpt><trkpt lat="44.4049570532265" lon="9.84821075142809"><ele>421.0</ele><time>2026-03-25T07:25:29.063Z</time></trkpt><trkpt lat="44.40524821028528" lon="9.848129526909043"><ele>421.0</ele><time>2026-03-25T07:25:31.059Z</time></trkpt><trkpt lat="44.405404067917374" lon="9.848181626530486"><ele>421.0</ele><time>2026-03-25T07:25:32.058Z</time></trkpt><trkpt lat="44.40555748726436" lon="9.84822356430328"><ele>421.0</ele><time>2026-03-25T07:25:33.051Z</time></trkpt><trkpt lat="44.40571384185106" lon="9.848256043588918"><ele>421.33333333333337</ele><time>2026-03-25T07:25:34.046Z</time></trkpt><trkpt lat="44.40586954231083" lon="9.848288320703565"><ele>421.66666666666663</ele><time>2026-03-25T07:25:35.042Z</time></trkpt><trkpt lat="44.40602536268535" lon="9.848321332257315"><ele>422.0</ele><time>2026-03-25T07:25:36.037Z</time></trkpt><trkpt lat="44.40710831244658" lon="9.85033612516711"><ele>392.0</ele><time>2026-03-25T07:25:45.001Z</time></trkpt><trkpt lat="44.40772233041938" lon="9.850667672844345"><ele>392.0</ele><time>2026-03-25T07:25:47.001Z</time></trkpt><trkpt lat="44.40773841093182" lon="9.850821570650245"><ele>392.0</ele><time>2026-03-25T07:25:48.001Z</time></trkpt><trkpt lat="44.40783863474259" lon="9.850982208244247"><ele>392.0</ele><time>2026-03-25T07:25:49.001Z</time></trkpt><trkpt lat="44.407926205957445" lon="9.851158578585821"><ele>392.0</ele><time>2026-03-25T07:25:50.001Z</time></trkpt><trkpt lat="44.408018694783" lon="9.851376127642427"><ele>418.66666666666663</ele><time>2026-03-25T07:25:51.001Z</time></trkpt><trkpt lat="44.408149522452945" lon="9.851533101854052"><ele>445.33333333333337</ele><time>2026-03-25T07:25:52.001Z</time></trkpt><trkpt lat="44.40827577485841" lon="9.851683754771683"><ele>472.0</ele><time>2026-03-25T07:25:53.001Z</time></trkpt><trkpt lat="44.40840643947733" lon="9.851840986637264"><ele>482.6666666666667</ele><time>2026-03-25T07:25:54.001Z</time></trkpt><trkpt lat="44.40854833269648" lon="9.852007128363265"><ele>493.33333333333337</ele><time>2026-03-25T07:25:55.076Z</time></trkpt><trkpt lat="44.40868108369001" lon="9.852148477609395"><ele>504.0</ele><time>2026-03-25T07:25:56.074Z</time></trkpt><trkpt lat="44.40881144485111" lon="9.852253304268304"><ele>520.5</ele><time>2026-03-25T07:25:57.072Z</time></trkpt><trkpt lat="44.408949206726014" lon="9.852337664666628"><ele>537.0</ele><time>2026-03-25T07:25:58.073Z</time></trkpt><trkpt lat="44.40928131915091" lon="9.853243393862309"><ele>452.0</ele><time>2026-03-25T07:26:09.155Z</time></trkpt><trkpt lat="44.41869247600812" lon="9.846095692356846"><ele>460.66666666666663</ele><time>2026-03-25T07:27:04.001Z</time></trkpt><trkpt lat="44.41884801734643" lon="9.846039445122644"><ele>469.33333333333337</ele><time>2026-03-25T07:27:05.001Z</time></trkpt><trkpt lat="44.41905589657473" lon="9.845972733599314"><ele>478.0</ele><time>2026-03-25T07:27:06.001Z</time></trkpt><trkpt lat="44.419191868626164" lon="9.845951136340693"><ele>478.0</ele><time>2026-03-25T07:27:07.001Z</time></trkpt><trkpt lat="44.41919572651952" lon="9.84606952782322"><ele>478.0</ele><time>2026-03-25T07:27:08.001Z</time></trkpt><trkpt lat="44.41904417756418" lon="9.846008557687451"><ele>478.0</ele><time>2026-03-25T07:27:09.001Z</time></trkpt><trkpt lat="44.419161621898866" lon="9.846043499391001"><ele>478.0</ele><time>2026-03-25T07:27:11.001Z</time></trkpt><trkpt lat="44.4193169935015" lon="9.846044399657448"><ele>478.0</ele><time>2026-03-25T07:27:12.001Z</time></trkpt><trkpt lat="44.41952175454637" lon="9.846018465914934"><ele>478.0</ele><time>2026-03-25T07:27:13.001Z</time></trkpt><trkpt lat="44.41966564699623" lon="9.846018975723085"><ele>478.0</ele><time>2026-03-25T07:27:14.001Z</time></trkpt><trkpt lat="44.41980077216597" lon="9.84600432283056"><ele>484.0</ele><time>2026-03-25T07:27:15.001Z</time></trkpt><trkpt lat="44.4199451055003" lon="9.84596786657521"><ele>490.0</ele><time>2026-03-25T07:27:16.001Z</time></trkpt><trkpt lat="44.42012478203948" lon="9.84587667960883"><ele>496.0</ele><time>2026-03-25T07:27:17.001Z</time></trkpt><trkpt lat="44.42023465830797" lon="9.845791129529202"><ele>485.25</ele><time>2026-03-25T07:27:18.001Z</time></trkpt><trkpt lat="44.42034005301657" lon="9.84569718363689"><ele>474.5</ele><time>2026-03-25T07:27:19.001Z</time></trkpt><trkpt lat="44.420445968637914" lon="9.845589913933862"><ele>463.75</ele><time>2026-03-25T07:27:20.001Z</time></trkpt><trkpt lat="44.42053596259188" lon="9.845474926090645"><ele>453.0</ele><time>2026-03-25T07:27:21.001Z</time></trkpt><trkpt lat="44.420624518725546" lon="9.84535750218727"><ele>453.0</ele><time>2026-03-25T07:27:22.001Z</time></trkpt><trkpt lat="44.420727867405596" lon="9.845242656472514"><ele>453.0</ele><time>2026-03-25T07:27:23.001Z</time></trkpt><trkpt lat="44.42083895634911" lon="9.84511581540268"><ele>453.0</ele><time>2026-03-25T07:27:24.001Z</time></trkpt><trkpt lat="44.420944267471185" lon="9.845009201008791"><ele>453.0</ele><time>2026-03-25T07:27:25.001Z</time></trkpt><trkpt lat="44.42113515301443" lon="9.844834458577177"><ele>451.6666666666667</ele><time>2026-03-25T07:27:26.001Z</time></trkpt><trkpt lat="44.42120723532005" lon="9.844767500651189"><ele>450.33333333333337</ele><time>2026-03-25T07:27:27.001Z</time></trkpt><trkpt lat="44.42127725013262" lon="9.844700810192215"><ele>449.0</ele><time>2026-03-25T07:27:28.001Z</time></trkpt><trkpt lat="44.4213436143984" lon="9.84461843062816"><ele>447.6666666666667</ele><time>2026-03-25T07:27:29.001Z</time></trkpt><trkpt lat="44.42140993776017" lon="9.844554570742376"><ele>446.33333333333337</ele><time>2026-03-25T07:27:30.001Z</time></trkpt><trkpt lat="44.421480772895706" lon="9.844481226436804"><ele>445.0</ele><time>2026-03-25T07:27:31.001Z</time></trkpt><trkpt lat="44.42155751503059" lon="9.844415052750561"><ele>445.0</ele><time>2026-03-25T07:27:32.001Z</time></trkpt><trkpt lat="44.42162343942675" lon="9.84434249426948"><ele>445.0</ele><time>2026-03-25T07:27:33.001Z</time></trkpt><trkpt lat="44.42169238332132" lon="9.844278449365486"><ele>445.0</ele><time>2026-03-25T07:27:34.001Z</time></trkpt><trkpt lat="44.42175927736249" lon="9.844217258918402"><ele>445.0</ele><time>2026-03-25T07:27:35.001Z</time></trkpt><trkpt lat="44.42182687460834" lon="9.844154851392735"><ele>445.0</ele><time>2026-03-25T07:27:36.001Z</time></trkpt><trkpt lat="44.42194153206152" lon="9.844076187139086"><ele>443.83333333333337</ele><time>2026-03-25T07:27:38.001Z</time></trkpt><trkpt lat="44.42200659529387" lon="9.844021040285796"><ele>442.6666666666667</ele><time>2026-03-25T07:27:39.001Z</time></trkpt><trkpt lat="44.422069247459895" lon="9.843972478865368"><ele>441.5</ele><time>2026-03-25T07:27:40.001Z</time></trkpt><trkpt lat="44.42212705210924" lon="9.843929463545528"><ele>440.33333333333337</ele><time>2026-03-25T07:27:41.001Z</time></trkpt><trkpt lat="44.422188836975174" lon="9.84388864510825"><ele>439.1666666666667</ele><time>2026-03-25T07:27:42.001Z</time></trkpt><trkpt lat="44.4222512009324" lon="9.843853666350585"><ele>438.0</ele><time>2026-03-25T07:27:43.001Z</time></trkpt><trkpt lat="44.422346807292854" lon="9.843789466954938"><ele>438.0</ele><time>2026-03-25T07:27:45.001Z</time></trkpt><trkpt lat="44.42243911258171" lon="9.843737643735283"><ele>438.0</ele><time>2026-03-25T07:27:47.001Z</time></trkpt><trkpt lat="44.42253889705703" lon="9.843689019380248"><ele>438.0</ele><time>2026-03-25T07:27:49.001Z</time></trkpt><trkpt lat="44.42263490060211" lon="9.843646882987699"><ele>438.0</ele><time>2026-03-25T07:27:51.001Z</time></trkpt><trkpt lat="44.42270008153726" lon="9.843614090075137"><ele>438.0</ele><time>2026-03-25T07:27:53.001Z</time></trkpt><trkpt lat="44.42276239871784" lon="9.84358689265228"><ele>438.0</ele><time>2026-03-25T07:27:55.001Z</time></trkpt><trkpt lat="44.42282724118001" lon="9.843563648721238"><ele>438.0</ele><time>2026-03-25T07:27:57.001Z</time></trkpt><trkpt lat="44.422889369808196" lon="9.84353953633085"><ele>438.0</ele><time>2026-03-25T07:27:59.001Z</time></trkpt><trkpt lat="44.4229713706207" lon="9.84351000997211"><ele>438.0</ele><time>2026-03-25T07:28:02.001Z</time></trkpt><trkpt lat="44.42304847977989" lon="9.843482465141433"><ele>438.0</ele><time>2026-03-25T07:28:06.001Z</time></trkpt><trkpt lat="44.42311328811083" lon="9.843461336503578"><ele>438.0</ele><time>2026-03-25T07:28:10.001Z</time></trkpt><trkpt lat="44.42318172070192" lon="9.843435266353524"><ele>438.0</ele><time>2026-03-25T07:28:16.001Z</time></trkpt><trkpt lat="44.42325419808336" lon="9.843409860361751"><ele>438.0</ele><time>2026-03-25T07:28:22.001Z</time></trkpt><trkpt lat="44.423328424316615" lon="9.843384440281229"><ele>436.0</ele><time>2026-03-25T07:28:27.001Z</time></trkpt><trkpt lat="44.42339182616398" lon="9.843361610286816"><ele>434.0</ele><time>2026-03-25T07:28:30.001Z</time></trkpt><trkpt lat="44.42345567485788" lon="9.843338796802634"><ele>432.0</ele><time>2026-03-25T07:28:33.001Z</time></trkpt><trkpt lat="44.42353488643233" lon="9.843313163587567"><ele>430.0</ele><time>2026-03-25T07:28:36.001Z</time></trkpt><trkpt lat="44.42361581045788" lon="9.843285732510338"><ele>428.0</ele><time>2026-03-25T07:28:39.001Z</time></trkpt><trkpt lat="44.423696689694296" lon="9.843261303026745"><ele>426.0</ele><time>2026-03-25T07:28:42.001Z</time></trkpt><trkpt lat="44.423767112223935" lon="9.843235315533205"><ele>428.20000000000005</ele><time>2026-03-25T07:28:45.001Z</time></trkpt><trkpt lat="44.42384573774064" lon="9.843174631772264"><ele>430.40000000000003</ele><time>2026-03-25T07:29:01.001Z</time></trkpt><trkpt lat="44.42393459869345" lon="9.843143250522694"><ele>432.6</ele><time>2026-03-25T07:29:03.001Z</time></trkpt><trkpt lat="44.42403863812068" lon="9.843101950106242"><ele>434.8</ele><time>2026-03-25T07:29:05.001Z</time></trkpt><trkpt lat="44.42413525606049" lon="9.843054867186972"><ele>437.0</ele><time>2026-03-25T07:29:07.001Z</time></trkpt><trkpt lat="44.42444725586286" lon="9.84300803331182"><ele>437.0</ele><time>2026-03-25T07:29:08.001Z</time></trkpt><trkpt lat="44.424561994343506" lon="9.84293435372086"><ele>437.00000000000006</ele><time>2026-03-25T07:29:10.001Z</time></trkpt><trkpt lat="44.424672386613054" lon="9.84285065482205"><ele>437.00000000000006</ele><time>2026-03-25T07:29:12.001Z</time></trkpt><trkpt lat="44.42473928152763" lon="9.842801058411908"><ele>437.0</ele><time>2026-03-25T07:29:13.001Z</time></trkpt><trkpt lat="44.42481428803772" lon="9.84274807336001"><ele>437.0</ele><time>2026-03-25T07:29:14.001Z</time></trkpt><trkpt lat="44.42488135745475" lon="9.842688233618043"><ele>434.6</ele><time>2026-03-25T07:29:15.001Z</time></trkpt><trkpt lat="44.424970027181956" lon="9.842615436020212"><ele>432.20000000000005</ele><time>2026-03-25T07:29:16.001Z</time></trkpt><trkpt lat="44.42505910733609" lon="9.842540484339226"><ele>429.8</ele><time>2026-03-25T07:29:17.001Z</time></trkpt><trkpt lat="44.42513505468935" lon="9.842463189717165"><ele>427.4</ele><time>2026-03-25T07:29:18.001Z</time></trkpt><trkpt lat="44.425221867986345" lon="9.842381016859841"><ele>425.0</ele><time>2026-03-25T07:29:19.001Z</time></trkpt><trkpt lat="44.42530644922446" lon="9.842281204994498"><ele>425.0</ele><time>2026-03-25T07:29:20.001Z</time></trkpt><trkpt lat="44.4253929103232" lon="9.84216622162909"><ele>425.0</ele><time>2026-03-25T07:29:21.001Z</time></trkpt><trkpt lat="44.4254818633786" lon="9.84205468737129"><ele>425.0</ele><time>2026-03-25T07:29:22.001Z</time></trkpt><trkpt lat="44.42556204905654" lon="9.84193391492936"><ele>425.0</ele><time>2026-03-25T07:29:23.001Z</time></trkpt><trkpt lat="44.42564207217113" lon="9.841807218858063"><ele>428.5</ele><time>2026-03-25T07:29:24.001Z</time></trkpt><trkpt lat="44.42574206589236" lon="9.841670982742919"><ele>432.0</ele><time>2026-03-25T07:29:25.001Z</time></trkpt><trkpt lat="44.42583865729845" lon="9.841550143951633"><ele>435.5</ele><time>2026-03-25T07:29:26.001Z</time></trkpt><trkpt lat="44.425933780399944" lon="9.841435487759792"><ele>439.0</ele><time>2026-03-25T07:29:27.001Z</time></trkpt><trkpt lat="44.426033075607855" lon="9.841318694760956"><ele>439.0</ele><time>2026-03-25T07:29:28.001Z</time></trkpt><trkpt lat="44.42612996794611" lon="9.841203594959113"><ele>439.0</ele><time>2026-03-25T07:29:29.001Z</time></trkpt><trkpt lat="44.42622511943924" lon="9.841088926457429"><ele>439.0</ele><time>2026-03-25T07:29:30.001Z</time></trkpt><trkpt lat="44.48354119344459" lon="9.781503952458678"><ele>434.4</ele><time>2026-03-25T07:36:24.001Z</time></trkpt><trkpt lat="44.483628546025386" lon="9.781470019472259"><ele>429.79999999999995</ele><time>2026-03-25T07:36:25.001Z</time></trkpt><trkpt lat="44.48374413545424" lon="9.781512857889044"><ele>425.20000000000005</ele><time>2026-03-25T07:36:27Z</time></trkpt><trkpt lat="44.483850479851924" lon="9.781505730115237"><ele>420.6</ele><time>2026-03-25T07:36:28Z</time></trkpt><trkpt lat="44.48397080431237" lon="9.78148438857019"><ele>416.0</ele><time>2026-03-25T07:36:29Z</time></trkpt><trkpt lat="44.48405685431995" lon="9.781460593736725"><ele>415.8333333333333</ele><time>2026-03-25T07:36:30.002Z</time></trkpt><trkpt lat="44.48414536484548" lon="9.781436577933372"><ele>415.66666666666663</ele><time>2026-03-25T07:36:31.002Z</time></trkpt><trkpt lat="44.48422075403547" lon="9.781429846321153"><ele>415.5</ele><time>2026-03-25T07:36:32.002Z</time></trkpt><trkpt lat="44.484302361483316" lon="9.781413740892756"><ele>415.33333333333337</ele><time>2026-03-25T07:36:33.002Z</time></trkpt><trkpt lat="44.48436942603836" lon="9.781411699582964"><ele>415.1666666666667</ele><time>2026-03-25T07:36:34.002Z</time></trkpt><trkpt lat="44.48444547766802" lon="9.781414436678082"><ele>415.0</ele><time>2026-03-25T07:36:35.001Z</time></trkpt><trkpt lat="44.48453578408866" lon="9.781406268467585"><ele>414.57142857142856</ele><time>2026-03-25T07:36:36.001Z</time></trkpt><trkpt lat="44.48461995056119" lon="9.781393960675985"><ele>414.14285714285717</ele><time>2026-03-25T07:36:37.001Z</time></trkpt><trkpt lat="44.48469594362643" lon="9.781379270363866"><ele>413.71428571428567</ele><time>2026-03-25T07:36:38.001Z</time></trkpt><trkpt lat="44.484764343959995" lon="9.781365068330391"><ele>413.2857142857143</ele><time>2026-03-25T07:36:39.001Z</time></trkpt><trkpt lat="44.48483455227645" lon="9.781355823544958"><ele>412.85714285714283</ele><time>2026-03-25T07:36:40.001Z</time></trkpt><trkpt lat="44.484908135947826" lon="9.781350072368053"><ele>412.4285714285714</ele><time>2026-03-25T07:36:41.001Z</time></trkpt><trkpt lat="44.48498229251773" lon="9.7813454846927"><ele>412.0</ele><time>2026-03-25T07:36:42.001Z</time></trkpt><trkpt lat="44.485054538573145" lon="9.781354979859644"><ele>412.00000000000006</ele><time>2026-03-25T07:36:43.001Z</time></trkpt><trkpt lat="44.48513126653777" lon="9.781380285223468"><ele>412.0</ele><time>2026-03-25T07:36:44.001Z</time></trkpt><trkpt lat="44.485187150081224" lon="9.781465078302755"><ele>412.0</ele><time>2026-03-25T07:36:45.001Z</time></trkpt><trkpt lat="44.48526220682621" lon="9.7814715884458"><ele>412.0</ele><time>2026-03-25T07:36:46.001Z</time></trkpt><trkpt lat="44.485339963940824" lon="9.781476930217398"><ele>412.00000000000006</ele><time>2026-03-25T07:36:47.001Z</time></trkpt><trkpt lat="44.485418210727104" lon="9.781487505997807"><ele>412.0</ele><time>2026-03-25T07:36:48.001Z</time></trkpt><trkpt lat="44.48549622978912" lon="9.781485992654993"><ele>412.20000000000005</ele><time>2026-03-25T07:36:49.001Z</time></trkpt><trkpt lat="44.48556451668876" lon="9.781487583363765"><ele>412.4</ele><time>2026-03-25T07:36:50.001Z</time></trkpt><trkpt lat="44.48563076930201" lon="9.781487992015066"><ele>412.6</ele><time>2026-03-25T07:36:51Z</time></trkpt><trkpt lat="44.48575390178173" lon="9.78148658510625"><ele>412.79999999999995</ele><time>2026-03-25T07:36:53Z</time></trkpt><trkpt lat="44.485841251169184" lon="9.781496922262123"><ele>413.0</ele><time>2026-03-25T07:36:54Z</time></trkpt><trkpt lat="44.485966503968285" lon="9.781501782166108"><ele>413.0</ele><time>2026-03-25T07:36:56Z</time></trkpt><trkpt lat="44.48603366364642" lon="9.781497723402309"><ele>413.0</ele><time>2026-03-25T07:36:57Z</time></trkpt><trkpt lat="44.486105334420145" lon="9.781489633118074"><ele>413.0</ele><time>2026-03-25T07:36:58Z</time></trkpt><trkpt lat="44.486227122141045" lon="9.781481515043229"><ele>413.0</ele><time>2026-03-25T07:37:00Z</time></trkpt><trkpt lat="44.48633319891262" lon="9.78148248200004"><ele>413.0</ele><time>2026-03-25T07:37:02Z</time></trkpt><trkpt lat="44.48643167463836" lon="9.781475254073184"><ele>412.66666666666663</ele><time>2026-03-25T07:37:04Z</time></trkpt><trkpt lat="44.48651943074262" lon="9.781479466069474"><ele>412.3333333333333</ele><time>2026-03-25T07:37:06Z</time></trkpt><trkpt lat="44.486588405075224" lon="9.781504919643641"><ele>412.0</ele><time>2026-03-25T07:37:08Z</time></trkpt><trkpt lat="44.48667627100539" lon="9.781523434576634"><ele>411.66666666666663</ele><time>2026-03-25T07:37:10Z</time></trkpt><trkpt lat="44.48676983476979" lon="9.781540244044058"><ele>411.3333333333333</ele><time>2026-03-25T07:37:12Z</time></trkpt><trkpt lat="44.48686088731271" lon="9.781566772038888"><ele>411.0</ele><time>2026-03-25T07:37:14Z</time></trkpt><trkpt lat="44.48694808119296" lon="9.781550215423547"><ele>411.0</ele><time>2026-03-25T07:37:17Z</time></trkpt><trkpt lat="44.48703866119911" lon="9.7815647800107"><ele>411.0</ele><time>2026-03-25T07:37:19Z</time></trkpt><trkpt lat="44.48710262268319" lon="9.781538261555392"><ele>411.0</ele><time>2026-03-25T07:37:23Z</time></trkpt><trkpt lat="44.48704469690124" lon="9.781493430199875"><ele>411.0</ele><time>2026-03-25T07:37:32Z</time></trkpt><trkpt lat="44.486980452544486" lon="9.781497431213811"><ele>411.0</ele><time>2026-03-25T07:38:04Z</time></trkpt><trkpt lat="44.4871838312375" lon="9.781550294484365"><ele>410.3333333333333</ele><time>2026-03-25T07:40:03.999Z</time></trkpt><trkpt lat="44.48725056503231" lon="9.781552672818242"><ele>409.66666666666663</ele><time>2026-03-25T07:40:05.999Z</time></trkpt><trkpt lat="44.48731685851097" lon="9.781551336416463"><ele>409.0</ele><time>2026-03-25T07:40:07.999Z</time></trkpt><trkpt lat="44.48741509587613" lon="9.781558355654294"><ele>408.3333333333333</ele><time>2026-03-25T07:40:10.999Z</time></trkpt><trkpt lat="44.48749613769449" lon="9.781556869562523"><ele>407.66666666666663</ele><time>2026-03-25T07:40:12.999Z</time></trkpt><trkpt lat="44.48758069514946" lon="9.781550123403129"><ele>407.0</ele><time>2026-03-25T07:40:14.999Z</time></trkpt><trkpt lat="44.48767165626039" lon="9.7815334526028"><ele>406.99999999999994</ele><time>2026-03-25T07:40:16.999Z</time></trkpt><trkpt lat="44.48780698199186" lon="9.781534236327628"><ele>407.0</ele><time>2026-03-25T07:40:18.999Z</time></trkpt><trkpt lat="44.487873725772744" lon="9.78153380221663"><ele>407.0</ele><time>2026-03-25T07:40:19.999Z</time></trkpt><trkpt lat="44.48794133427319" lon="9.781526870160269"><ele>407.0</ele><time>2026-03-25T07:40:20.999Z</time></trkpt><trkpt lat="44.48801133387379" lon="9.781529746495373"><ele>406.99999999999994</ele><time>2026-03-25T07:40:21.999Z</time></trkpt><trkpt lat="44.48809191815129" lon="9.781531564857666"><ele>407.0</ele><time>2026-03-25T07:40:23.999Z</time></trkpt><trkpt lat="44.48816850343847" lon="9.78153623277677"><ele>407.0</ele><time>2026-03-25T07:40:24.999Z</time></trkpt><trkpt lat="44.488271883953345" lon="9.781537827041886"><ele>407.0</ele><time>2026-03-25T07:40:26.999Z</time></trkpt><trkpt lat="44.488418308373554" lon="9.781532072992553"><ele>407.0</ele><time>2026-03-25T07:40:28.999Z</time></trkpt><trkpt lat="44.48848776997764" lon="9.78152931356992"><ele>407.0</ele><time>2026-03-25T07:40:29.999Z</time></trkpt><trkpt lat="44.48856833884143" lon="9.781529965642516"><ele>407.0</ele><time>2026-03-25T07:40:30.999Z</time></trkpt><trkpt lat="44.48863360200524" lon="9.781530335274228"><ele>406.99999999999994</ele><time>2026-03-25T07:40:31.999Z</time></trkpt><trkpt lat="44.48870258156771" lon="9.78153039403394"><ele>407.0</ele><time>2026-03-25T07:40:32.999Z</time></trkpt><trkpt lat="44.488765676495696" lon="9.781526055649364"><ele>407.0</ele><time>2026-03-25T07:40:33.999Z</time></trkpt><trkpt lat="44.48889663308689" lon="9.781508885755828"><ele>407.0</ele><time>2026-03-25T07:40:35.999Z</time></trkpt><trkpt lat="44.488970689718" lon="9.781500613782988"><ele>406.99999999999994</ele><time>2026-03-25T07:40:36.999Z</time></trkpt><trkpt lat="44.4890734167043" lon="9.781507802650015"><ele>407.0</ele><time>2026-03-25T07:40:38.999Z</time></trkpt><trkpt lat="44.48916308778871" lon="9.781523274505304"><ele>406.49999999999994</ele><time>2026-03-25T07:40:41Z</time></trkpt><trkpt lat="44.48924189916485" lon="9.781527051035164"><ele>406.0</ele><time>2026-03-25T07:40:42Z</time></trkpt><trkpt lat="44.489320423975755" lon="9.781521743188494"><ele>405.5</ele><time>2026-03-25T07:40:43Z</time></trkpt><trkpt lat="44.48939131400063" lon="9.781521452601895"><ele>405.0</ele><time>2026-03-25T07:40:44Z</time></trkpt><trkpt lat="44.4894922286717" lon="9.781501089248989"><ele>404.49999999999994</ele><time>2026-03-25T07:40:45Z</time></trkpt><trkpt lat="44.489560865543176" lon="9.781508106095044"><ele>404.0</ele><time>2026-03-25T07:40:46Z</time></trkpt><trkpt lat="44.489638592782065" lon="9.781504296392177"><ele>403.66666666666663</ele><time>2026-03-25T07:40:47Z</time></trkpt><trkpt lat="44.48973184791317" lon="9.781497876365128"><ele>403.3333333333333</ele><time>2026-03-25T07:40:48Z</time></trkpt><trkpt lat="44.489819412886625" lon="9.781494435190693"><ele>403.0</ele><time>2026-03-25T07:40:49Z</time></trkpt><trkpt lat="44.489904171005264" lon="9.781487575050058"><ele>402.66666666666663</ele><time>2026-03-25T07:40:50Z</time></trkpt><trkpt lat="44.489981295636596" lon="9.781487514367345"><ele>402.3333333333333</ele><time>2026-03-25T07:40:51Z</time></trkpt><trkpt lat="44.49005495675248" lon="9.781488286285319"><ele>402.0</ele><time>2026-03-25T07:40:52Z</time></trkpt><trkpt lat="44.49013050241123" lon="9.781486731200319"><ele>402.0</ele><time>2026-03-25T07:40:53Z</time></trkpt><trkpt lat="44.490206680385526" lon="9.781488040019847"><ele>402.0</ele><time>2026-03-25T07:40:54Z</time></trkpt><trkpt lat="44.49027746145489" lon="9.78148812468922"><ele>402.0</ele><time>2026-03-25T07:40:55Z</time></trkpt><trkpt lat="44.49035226307773" lon="9.781488614330575"><ele>402.0</ele><time>2026-03-25T07:40:56Z</time></trkpt><trkpt lat="44.490423311672735" lon="9.781488981507355"><ele>402.0</ele><time>2026-03-25T07:40:57Z</time></trkpt><trkpt lat="44.49049740316131" lon="9.781488373972138"><ele>402.0</ele><time>2026-03-25T07:40:58Z</time></trkpt><trkpt lat="44.49057960976343" lon="9.781486786788848"><ele>402.0</ele><time>2026-03-25T07:40:59Z</time></trkpt><trkpt lat="44.490655381044974" lon="9.781483237006295"><ele>401.4285714285714</ele><time>2026-03-25T07:41:00Z</time></trkpt><trkpt lat="44.49072689522783" lon="9.781482837041484"><ele>400.8571428571429</ele><time>2026-03-25T07:41:01Z</time></trkpt><trkpt lat="44.49080265461891" lon="9.781482017274051"><ele>400.2857142857143</ele><time>2026-03-25T07:41:02Z</time></trkpt><trkpt lat="44.49087384066949" lon="9.781482669554292"><ele>399.71428571428567</ele><time>2026-03-25T07:41:03Z</time></trkpt><trkpt lat="44.49094219288823" lon="9.781482036488532"><ele>399.1428571428571</ele><time>2026-03-25T07:41:04Z</time></trkpt><trkpt lat="44.4910146189989" lon="9.781482580779421"><ele>398.57142857142856</ele><time>2026-03-25T07:41:05Z</time></trkpt><trkpt lat="44.49109122300587" lon="9.7814843750173"><ele>398.0</ele><time>2026-03-25T07:41:06Z</time></trkpt><trkpt lat="44.491170045722264" lon="9.781484923431435"><ele>397.99999999999994</ele><time>2026-03-25T07:41:07Z</time></trkpt><trkpt lat="44.49124992751574" lon="9.781486152247238"><ele>398.0</ele><time>2026-03-25T07:41:08Z</time></trkpt><trkpt lat="44.49132132652801" lon="9.781490223621814"><ele>398.0</ele><time>2026-03-25T07:41:09Z</time></trkpt><trkpt lat="44.49139641737833" lon="9.781492906465319"><ele>398.0</ele><time>2026-03-25T07:41:10Z</time></trkpt><trkpt lat="44.49149262077064" lon="9.781492191069175"><ele>397.99999999999994</ele><time>2026-03-25T07:41:11Z</time></trkpt><trkpt lat="44.49158377657145" lon="9.781498771475334"><ele>398.0</ele><time>2026-03-25T07:41:12Z</time></trkpt><trkpt lat="44.4916748062267" lon="9.781504683641957"><ele>397.3333333333333</ele><time>2026-03-25T07:41:13Z</time></trkpt><trkpt lat="44.49176382517518" lon="9.781509944815"><ele>396.66666666666663</ele><time>2026-03-25T07:41:14Z</time></trkpt><trkpt lat="44.49185054077534" lon="9.781523192622211"><ele>396.0</ele><time>2026-03-25T07:41:15Z</time></trkpt><trkpt lat="44.491937737137775" lon="9.781536871536268"><ele>395.33333333333337</ele><time>2026-03-25T07:41:16Z</time></trkpt><trkpt lat="44.4920262697517" lon="9.781551711513755"><ele>394.6666666666667</ele><time>2026-03-25T07:41:17Z</time></trkpt><trkpt lat="44.492112684226434" lon="9.781569182967244"><ele>394.0</ele><time>2026-03-25T07:41:18Z</time></trkpt><trkpt lat="44.49219302414394" lon="9.781588429943877"><ele>394.00000000000006</ele><time>2026-03-25T07:41:19Z</time></trkpt><trkpt lat="44.492276302298876" lon="9.781610312102487"><ele>394.0</ele><time>2026-03-25T07:41:20Z</time></trkpt><trkpt lat="44.49235336621428" lon="9.781636068621035"><ele>394.0</ele><time>2026-03-25T07:41:21Z</time></trkpt><trkpt lat="44.492439353755216" lon="9.781658312366527"><ele>394.0</ele><time>2026-03-25T07:41:22Z</time></trkpt><trkpt lat="44.492523317001606" lon="9.781685826216107"><ele>394.00000000000006</ele><time>2026-03-25T07:41:23Z</time></trkpt><trkpt lat="44.492613586545694" lon="9.781717751160171"><ele>394.0</ele><time>2026-03-25T07:41:24Z</time></trkpt><trkpt lat="44.49269842048508" lon="9.781748853362"><ele>394.00000000000006</ele><time>2026-03-25T07:41:25Z</time></trkpt><trkpt lat="44.49278057690148" lon="9.781785867000183"><ele>394.0</ele><time>2026-03-25T07:41:26Z</time></trkpt><trkpt lat="44.492855605884365" lon="9.781822905884075"><ele>394.0</ele><time>2026-03-25T07:41:27Z</time></trkpt><trkpt lat="44.49293576729548" lon="9.781863140234119"><ele>394.0</ele><time>2026-03-25T07:41:28Z</time></trkpt><trkpt lat="44.493023091384565" lon="9.781905389572595"><ele>394.00000000000006</ele><time>2026-03-25T07:41:29Z</time></trkpt><trkpt lat="44.49310249797584" lon="9.781951137960203"><ele>394.0</ele><time>2026-03-25T07:41:30Z</time></trkpt><trkpt lat="44.49317226608702" lon="9.781999409990885"><ele>392.6666666666667</ele><time>2026-03-25T07:41:31Z</time></trkpt><trkpt lat="44.49324202287055" lon="9.78205056618053"><ele>391.33333333333337</ele><time>2026-03-25T07:41:32Z</time></trkpt><trkpt lat="44.49331393546884" lon="9.782103125397345"><ele>390.0</ele><time>2026-03-25T07:41:33Z</time></trkpt><trkpt lat="44.49338161797864" lon="9.782155929390244"><ele>388.66666666666663</ele><time>2026-03-25T07:41:34Z</time></trkpt><trkpt lat="44.49344881708573" lon="9.782212705624309"><ele>387.3333333333333</ele><time>2026-03-25T07:41:35Z</time></trkpt><trkpt lat="44.493512091498935" lon="9.782269304680861"><ele>386.0</ele><time>2026-03-25T07:41:36Z</time></trkpt><trkpt lat="44.493573060863184" lon="9.782327155259976"><ele>385.99999999999994</ele><time>2026-03-25T07:41:37Z</time></trkpt><trkpt lat="44.493635426505335" lon="9.782389909469414"><ele>386.0</ele><time>2026-03-25T07:41:38Z</time></trkpt><trkpt lat="44.49369891273478" lon="9.782453530903801"><ele>386.0</ele><time>2026-03-25T07:41:39Z</time></trkpt><trkpt lat="44.493760012978996" lon="9.782517780062333"><ele>386.0</ele><time>2026-03-25T07:41:40Z</time></trkpt><trkpt lat="44.493819202108774" lon="9.782582990731806"><ele>385.99999999999994</ele><time>2026-03-25T07:41:41Z</time></trkpt><trkpt lat="44.493882647087354" lon="9.782650067633698"><ele>386.0</ele><time>2026-03-25T07:41:42Z</time></trkpt><trkpt lat="44.49393869074092" lon="9.782721575446168"><ele>387.3333333333333</ele><time>2026-03-25T07:41:43Z</time></trkpt><trkpt lat="44.49399898262507" lon="9.782796062724383"><ele>388.66666666666663</ele><time>2026-03-25T07:41:44Z</time></trkpt><trkpt lat="44.49405677688716" lon="9.782871877194827"><ele>390.0</ele><time>2026-03-25T07:41:45Z</time></trkpt><trkpt lat="44.494112247628344" lon="9.782948205689294"><ele>391.33333333333337</ele><time>2026-03-25T07:41:46Z</time></trkpt><trkpt lat="44.494173578209015" lon="9.783028849014748"><ele>392.6666666666667</ele><time>2026-03-25T07:41:47Z</time></trkpt><trkpt lat="44.49422661225212" lon="9.783109558680794"><ele>394.0</ele><time>2026-03-25T07:41:48Z</time></trkpt><trkpt lat="44.49427591900987" lon="9.78319229927109"><ele>394.00000000000006</ele><time>2026-03-25T07:41:49Z</time></trkpt><trkpt lat="44.494328605172996" lon="9.783277457635313"><ele>394.0</ele><time>2026-03-25T07:41:50Z</time></trkpt><trkpt lat="44.49438039694179" lon="9.783360196035666"><ele>394.0</ele><time>2026-03-25T07:41:51Z</time></trkpt><trkpt lat="44.4944284988599" lon="9.783445904745713"><ele>394.0</ele><time>2026-03-25T07:41:52Z</time></trkpt><trkpt lat="44.49447459929643" lon="9.783532026280787"><ele>394.00000000000006</ele><time>2026-03-25T07:41:53Z</time></trkpt><trkpt lat="44.49452349297193" lon="9.78362354922532"><ele>394.0</ele><time>2026-03-25T07:41:54Z</time></trkpt><trkpt lat="44.49457178087517" lon="9.783719466799425"><ele>396.79999999999995</ele><time>2026-03-25T07:41:55Z</time></trkpt><trkpt lat="44.49461959872474" lon="9.783821625016031"><ele>399.59999999999997</ele><time>2026-03-25T07:41:56Z</time></trkpt><trkpt lat="44.49466428700792" lon="9.783931116783904"><ele>402.4</ele><time>2026-03-25T07:41:57Z</time></trkpt><trkpt lat="44.494715748781026" lon="9.78405258839564"><ele>405.2</ele><time>2026-03-25T07:41:58Z</time></trkpt><trkpt lat="44.49476754702707" lon="9.784172030949446"><ele>408.0</ele><time>2026-03-25T07:41:59Z</time></trkpt><trkpt lat="44.494821167709084" lon="9.784291960139884"><ele>407.59999999999997</ele><time>2026-03-25T07:42:00Z</time></trkpt><trkpt lat="44.49486374708473" lon="9.78442211954991"><ele>407.2</ele><time>2026-03-25T07:42:01Z</time></trkpt><trkpt lat="44.49490532279846" lon="9.784550524037341"><ele>406.8</ele><time>2026-03-25T07:42:02Z</time></trkpt><trkpt lat="44.49494919151234" lon="9.784686593955772"><ele>406.4</ele><time>2026-03-25T07:42:03Z</time></trkpt><trkpt lat="44.49499457338192" lon="9.78483338671"><ele>406.0</ele><time>2026-03-25T07:42:04Z</time></trkpt><trkpt lat="44.495035574534164" lon="9.784988904376348"><ele>406.0</ele><time>2026-03-25T07:42:05Z</time></trkpt><trkpt lat="44.495077689077775" lon="9.785149239002278"><ele>406.0</ele><time>2026-03-25T07:42:06Z</time></trkpt><trkpt lat="44.49511829773377" lon="9.785317986260578"><ele>406.0</ele><time>2026-03-25T07:42:07Z</time></trkpt><trkpt lat="44.495149708534285" lon="9.785491808076884"><ele>406.0</ele><time>2026-03-25T07:42:08Z</time></trkpt><trkpt lat="44.49518002338595" lon="9.785667120488917"><ele>404.75</ele><time>2026-03-25T07:42:09Z</time></trkpt><trkpt lat="44.49521907996124" lon="9.785839434352205"><ele>403.5</ele><time>2026-03-25T07:42:10Z</time></trkpt><trkpt lat="44.495267955298125" lon="9.786030092267234"><ele>402.25</ele><time>2026-03-25T07:42:11Z</time></trkpt><trkpt lat="44.49528388214792" lon="9.786201876578048"><ele>401.0</ele><time>2026-03-25T07:42:12Z</time></trkpt><trkpt lat="44.49531038228303" lon="9.786380116229633"><ele>398.3333333333333</ele><time>2026-03-25T07:42:13Z</time></trkpt><trkpt lat="44.495383809796024" lon="9.78660875420218"><ele>395.66666666666663</ele><time>2026-03-25T07:42:14Z</time></trkpt><trkpt lat="44.495425866965405" lon="9.78681758835343"><ele>393.0</ele><time>2026-03-25T07:42:15Z</time></trkpt><trkpt lat="44.495467496018136" lon="9.787027713839647"><ele>397.66666666666663</ele><time>2026-03-25T07:42:16Z</time></trkpt><trkpt lat="44.49551231239849" lon="9.787249109133512"><ele>402.3333333333333</ele><time>2026-03-25T07:42:17Z</time></trkpt><trkpt lat="44.49556233311327" lon="9.787480612126059"><ele>407.0</ele><time>2026-03-25T07:42:18Z</time></trkpt><trkpt lat="44.495616988094945" lon="9.787707767071371"><ele>407.0</ele><time>2026-03-25T07:42:18.999Z</time></trkpt><trkpt lat="44.495671361753416" lon="9.7879389772101"><ele>407.0</ele><time>2026-03-25T07:42:19.999Z</time></trkpt><trkpt lat="44.49572117201186" lon="9.788179184895533"><ele>407.0</ele><time>2026-03-25T07:42:20.999Z</time></trkpt><trkpt lat="44.495788768479166" lon="9.788424243994356"><ele>403.66666666666663</ele><time>2026-03-25T07:42:21.999Z</time></trkpt><trkpt lat="44.49585460089048" lon="9.788671064723385"><ele>400.33333333333337</ele><time>2026-03-25T07:42:22.999Z</time></trkpt><trkpt lat="44.49592849931475" lon="9.788915561449523"><ele>397.0</ele><time>2026-03-25T07:42:23.999Z</time></trkpt><trkpt lat="44.49601311022523" lon="9.789153263435512"><ele>394.6666666666667</ele><time>2026-03-25T07:42:24.999Z</time></trkpt><trkpt lat="44.49610151133575" lon="9.789395178780378"><ele>392.33333333333337</ele><time>2026-03-25T07:42:25.999Z</time></trkpt><trkpt lat="44.49619225418936" lon="9.789632805792893"><ele>390.0</ele><time>2026-03-25T07:42:26.999Z</time></trkpt><trkpt lat="44.49628392578072" lon="9.789828956110725"><ele>400.33333333333337</ele><time>2026-03-25T07:42:27.999Z</time></trkpt><trkpt lat="44.496387590673436" lon="9.790058231717387"><ele>410.6666666666667</ele><time>2026-03-25T07:42:28.999Z</time></trkpt><trkpt lat="44.49649424033273" lon="9.790263063252235"><ele>421.0</ele><time>2026-03-25T07:42:29.999Z</time></trkpt><trkpt lat="44.49659473675583" lon="9.790480002496327"><ele>421.0</ele><time>2026-03-25T07:42:30.999Z</time></trkpt><trkpt lat="44.496692746069925" lon="9.790692316868387"><ele>421.0</ele><time>2026-03-25T07:42:31.999Z</time></trkpt><trkpt lat="44.49679177082801" lon="9.790902699125681"><ele>421.0</ele><time>2026-03-25T07:42:32.999Z</time></trkpt><trkpt lat="44.49689903836722" lon="9.7911324577577"><ele>417.6666666666667</ele><time>2026-03-25T07:42:34.084Z</time></trkpt><trkpt lat="44.49699632013368" lon="9.791340257681469"><ele>414.33333333333337</ele><time>2026-03-25T07:42:35.056Z</time></trkpt><trkpt lat="44.497096843921355" lon="9.791553858386514"><ele>411.0</ele><time>2026-03-25T07:42:36.054Z</time></trkpt><trkpt lat="44.497197275125096" lon="9.791766621562553"><ele>435.0</ele><time>2026-03-25T07:42:37.052Z</time></trkpt><trkpt lat="44.49729803914504" lon="9.791980122716717"><ele>459.0</ele><time>2026-03-25T07:42:38.054Z</time></trkpt><trkpt lat="44.49739052889635" lon="9.791246113148867"><ele>461.66666666666663</ele><time>2026-03-25T07:42:39.049Z</time></trkpt><trkpt lat="44.497538560999594" lon="9.79130891962865"><ele>464.3333333333333</ele><time>2026-03-25T07:42:40.049Z</time></trkpt><trkpt lat="44.49770041346178" lon="9.791309075900482"><ele>467.0</ele><time>2026-03-25T07:42:41.041Z</time></trkpt><trkpt lat="44.49788294662621" lon="9.791351636414017"><ele>490.5</ele><time>2026-03-25T07:42:42.033Z</time></trkpt><trkpt lat="44.49804469209117" lon="9.79139722622118"><ele>514.0</ele><time>2026-03-25T07:42:43.032Z</time></trkpt><trkpt lat="44.4984636195585" lon="9.79162084833291"><ele>499.0</ele><time>2026-03-25T07:43:34.013Z</time></trkpt><trkpt lat="44.498447189953374" lon="9.792484841214291"><ele>488.0</ele><time>2026-03-25T07:43:35.015Z</time></trkpt><trkpt lat="44.49850131459875" lon="9.793088877550513"><ele>477.0</ele><time>2026-03-25T07:43:36.019Z</time></trkpt><trkpt lat="44.498526022585075" lon="9.79359502860006"><ele>493.5</ele><time>2026-03-25T07:43:37.02Z</time></trkpt><trkpt lat="44.49876118495726" lon="9.793884849879614"><ele>510.0</ele><time>2026-03-25T07:43:38.017Z</time></trkpt><trkpt lat="44.498760537053684" lon="9.794249267430056"><ele>506.0</ele><time>2026-03-25T07:43:39.016Z</time></trkpt><trkpt lat="44.49893532765042" lon="9.794544766747283"><ele>502.0</ele><time>2026-03-25T07:43:40.02Z</time></trkpt><trkpt lat="44.49909505772863" lon="9.794820471606661"><ele>502.0</ele><time>2026-03-25T07:43:41.022Z</time></trkpt><trkpt lat="44.499196235847755" lon="9.795107546597443"><ele>502.0</ele><time>2026-03-25T07:43:42.019Z</time></trkpt><trkpt lat="44.499298341688515" lon="9.795406539943476"><ele>384.0</ele><time>2026-03-25T07:43:42.999Z</time></trkpt><trkpt lat="44.501451346637346" lon="9.80915859268579"><ele>383.0</ele><time>2026-03-25T07:43:43.999Z</time></trkpt><trkpt lat="44.50154652780148" lon="9.809472517220676"><ele>382.0</ele><time>2026-03-25T07:43:44.999Z</time></trkpt><trkpt lat="44.50161478835827" lon="9.809783445607955"><ele>382.0</ele><time>2026-03-25T07:43:45.999Z</time></trkpt><trkpt lat="44.50165092952006" lon="9.810124412632037"><ele>382.0</ele><time>2026-03-25T07:43:46.999Z</time></trkpt><trkpt lat="44.501698003859346" lon="9.810461532061053"><ele>379.5</ele><time>2026-03-25T07:43:47.999Z</time></trkpt><trkpt lat="44.501778779636226" lon="9.81078521441219"><ele>377.0</ele><time>2026-03-25T07:43:49Z</time></trkpt><trkpt lat="44.50183074105268" lon="9.811118836941922"><ele>375.5</ele><time>2026-03-25T07:43:50Z</time></trkpt><trkpt lat="44.50190215764957" lon="9.811422100165585"><ele>374.0</ele><time>2026-03-25T07:43:51Z</time></trkpt><trkpt lat="44.50197531866852" lon="9.811758573190241"><ele>373.5</ele><time>2026-03-25T07:43:52Z</time></trkpt><trkpt lat="44.50207259292268" lon="9.812066168042142"><ele>373.0</ele><time>2026-03-25T07:43:53Z</time></trkpt><trkpt lat="44.50217289240269" lon="9.812365776357439"><ele>373.0</ele><time>2026-03-25T07:43:54Z</time></trkpt><trkpt lat="44.50230963879428" lon="9.812639743480116"><ele>373.0</ele><time>2026-03-25T07:43:55Z</time></trkpt><trkpt lat="44.5146073267574" lon="9.840134528172475"><ele>347.0</ele><time>2026-03-25T07:45:46.999Z</time></trkpt><trkpt lat="44.515695088831436" lon="9.843814931772345"><ele>347.0</ele><time>2026-03-25T07:46:07.022Z</time></trkpt><trkpt lat="44.51583788266036" lon="9.843899469366985"><ele>347.0</ele><time>2026-03-25T07:46:08.022Z</time></trkpt><trkpt lat="44.51597027524381" lon="9.843991409219504"><ele>347.0</ele><time>2026-03-25T07:46:09.023Z</time></trkpt><trkpt lat="44.51609805684864" lon="9.84408568074665"><ele>347.0</ele><time>2026-03-25T07:46:10.018Z</time></trkpt><trkpt lat="44.516195019747826" lon="9.844240819476164"><ele>346.5</ele><time>2026-03-25T07:46:11.021Z</time></trkpt><trkpt lat="44.5162995605189" lon="9.844361469938814"><ele>346.0</ele><time>2026-03-25T07:46:12.022Z</time></trkpt><trkpt lat="44.51641281060689" lon="9.844462515592607"><ele>345.5</ele><time>2026-03-25T07:46:13.021Z</time></trkpt><trkpt lat="44.516527201987124" lon="9.84455200207643"><ele>345.0</ele><time>2026-03-25T07:46:14.022Z</time></trkpt><trkpt lat="44.51663702796512" lon="9.844658372217145"><ele>345.0</ele><time>2026-03-25T07:46:15.021Z</time></trkpt><trkpt lat="44.516746699006156" lon="9.844754023174694"><ele>345.0</ele><time>2026-03-25T07:46:16.017Z</time></trkpt><trkpt lat="44.51685469260375" lon="9.844845298849165"><ele>345.0</ele><time>2026-03-25T07:46:17.016Z</time></trkpt><trkpt lat="44.51696216286561" lon="9.845030978926484"><ele>345.0</ele><time>2026-03-25T07:46:18.02Z</time></trkpt><trkpt lat="44.51706140377988" lon="9.84512590096805"><ele>347.0</ele><time>2026-03-25T07:46:19.021Z</time></trkpt><trkpt lat="44.51715862334207" lon="9.84517561563186"><ele>349.0</ele><time>2026-03-25T07:46:20.02Z</time></trkpt><trkpt lat="44.51725181698322" lon="9.845201864769622"><ele>351.0</ele><time>2026-03-25T07:46:21.02Z</time></trkpt><trkpt lat="44.51735911449105" lon="9.845280168116165"><ele>353.0</ele><time>2026-03-25T07:46:22.019Z</time></trkpt><trkpt lat="44.51746223955633" lon="9.845382714337845"><ele>355.0</ele><time>2026-03-25T07:46:23.019Z</time></trkpt><trkpt lat="44.51755894434738" lon="9.845450710873944"><ele>355.0</ele><time>2026-03-25T07:46:24.019Z</time></trkpt><trkpt lat="44.51765661642775" lon="9.84551405232029"><ele>355.0</ele><time>2026-03-25T07:46:25.02Z</time></trkpt><trkpt lat="44.517755217384675" lon="9.84559205974825"><ele>355.0</ele><time>2026-03-25T07:46:26.02Z</time></trkpt><trkpt lat="44.51784295660692" lon="9.845646901097858"><ele>355.0</ele><time>2026-03-25T07:46:27.02Z</time></trkpt><trkpt lat="44.517936958395" lon="9.845723393966056"><ele>355.0</ele><time>2026-03-25T07:46:28.023Z</time></trkpt><trkpt lat="44.51804227437226" lon="9.84581568930381"><ele>355.0</ele><time>2026-03-25T07:46:29.021Z</time></trkpt><trkpt lat="44.51812972018813" lon="9.845898862004868"><ele>355.0</ele><time>2026-03-25T07:46:30.019Z</time></trkpt><trkpt lat="44.51822698419613" lon="9.845931447161169"><ele>355.0</ele><time>2026-03-25T07:46:31.019Z</time></trkpt><trkpt lat="44.51993540124521" lon="9.844491111778176"><ele>355.0</ele><time>2026-03-25T07:46:32.02Z</time></trkpt><trkpt lat="44.519967443320866" lon="9.844606081439972"><ele>355.0</ele><time>2026-03-25T07:46:33.02Z</time></trkpt><trkpt lat="44.520024598579894" lon="9.84469782406551"><ele>355.0</ele><time>2026-03-25T07:46:35.021Z</time></trkpt><trkpt lat="44.52008877009856" lon="9.844741906989118"><ele>355.0</ele><time>2026-03-25T07:46:36.021Z</time></trkpt><trkpt lat="44.52018014876024" lon="9.844850834773604"><ele>355.0</ele><time>2026-03-25T07:46:38.02Z</time></trkpt><trkpt lat="44.52026861434577" lon="9.844929898071742"><ele>355.0</ele><time>2026-03-25T07:46:40.018Z</time></trkpt><trkpt lat="44.52030106865465" lon="9.84505851887441"><ele>355.0</ele><time>2026-03-25T07:46:42.019Z</time></trkpt><trkpt lat="44.52032987255849" lon="9.845152609931564"><ele>355.0</ele><time>2026-03-25T07:46:44.018Z</time></trkpt><trkpt lat="44.52034260818274" lon="9.845252921558767"><ele>355.0</ele><time>2026-03-25T07:46:46.018Z</time></trkpt><trkpt lat="44.52031507737169" lon="9.845170610647314"><ele>355.0</ele><time>2026-03-25T07:46:47.018Z</time></trkpt><trkpt lat="44.52023698620955" lon="9.845140281639289"><ele>355.0</ele><time>2026-03-25T07:47:28Z</time></trkpt><trkpt lat="44.520288013449225" lon="9.845256770787753"><ele>353.0</ele><time>2026-03-25T07:47:32Z</time></trkpt><trkpt lat="44.52033497102809" lon="9.845328401640167"><ele>351.0</ele><time>2026-03-25T07:47:34Z</time></trkpt><trkpt lat="44.52036955162785" lon="9.845459084938993"><ele>349.0</ele><time>2026-03-25T07:47:37Z</time></trkpt><trkpt lat="44.520483381978636" lon="9.845537961986983"><ele>347.0</ele><time>2026-03-25T07:47:38Z</time></trkpt><trkpt lat="44.52057870949033" lon="9.845664935054929"><ele>345.0</ele><time>2026-03-25T07:47:40Z</time></trkpt><trkpt lat="44.520638262894224" lon="9.845734570627878"><ele>345.0</ele><time>2026-03-25T07:47:41Z</time></trkpt><trkpt lat="44.52069547397865" lon="9.845810497527664"><ele>345.0</ele><time>2026-03-25T07:47:42Z</time></trkpt><trkpt lat="44.52076165280926" lon="9.845888549091299"><ele>345.0</ele><time>2026-03-25T07:47:43Z</time></trkpt><trkpt lat="44.52081708217516" lon="9.845966177942374"><ele>345.0</ele><time>2026-03-25T07:47:44Z</time></trkpt><trkpt lat="44.520880781797096" lon="9.846115409908021"><ele>345.0</ele><time>2026-03-25T07:47:46Z</time></trkpt><trkpt lat="44.52091662420877" lon="9.846196919775219"><ele>345.0</ele><time>2026-03-25T07:47:47Z</time></trkpt><trkpt lat="44.52096883388976" lon="9.846377364191484"><ele>344.2</ele><time>2026-03-25T07:47:49Z</time></trkpt><trkpt lat="44.52103044474965" lon="9.846551636759193"><ele>343.4</ele><time>2026-03-25T07:47:51Z</time></trkpt><trkpt lat="44.52110246135829" lon="9.84665980493842"><ele>342.6</ele><time>2026-03-25T07:47:52Z</time></trkpt><trkpt lat="44.52116279693132" lon="9.846760279107118"><ele>341.8</ele><time>2026-03-25T07:47:53Z</time></trkpt><trkpt lat="44.52118341353044" lon="9.846852199468662"><ele>341.0</ele><time>2026-03-25T07:47:54Z</time></trkpt><trkpt lat="44.52124619226736" lon="9.846969209549552"><ele>339.33333333333337</ele><time>2026-03-25T07:47:55Z</time></trkpt><trkpt lat="44.5213550403106" lon="9.847096397836326"><ele>337.6666666666667</ele><time>2026-03-25T07:47:56Z</time></trkpt><trkpt lat="44.521474186528955" lon="9.847232340268352"><ele>336.0</ele><time>2026-03-25T07:47:57Z</time></trkpt><trkpt lat="44.521594634923524" lon="9.847375135612277"><ele>336.0</ele><time>2026-03-25T07:47:58Z</time></trkpt><trkpt lat="44.5217063070388" lon="9.847524089146795"><ele>336.0</ele><time>2026-03-25T07:47:59Z</time></trkpt><trkpt lat="44.521870968748345" lon="9.847684815889425"><ele>336.0</ele><time>2026-03-25T07:48:00Z</time></trkpt><trkpt lat="44.52204336912938" lon="9.847852192015102"><ele>338.3333333333333</ele><time>2026-03-25T07:48:01Z</time></trkpt><trkpt lat="44.52214658514077" lon="9.848006742357382"><ele>340.66666666666663</ele><time>2026-03-25T07:48:02Z</time></trkpt><trkpt lat="44.52229699372658" lon="9.84820189499662"><ele>343.0</ele><time>2026-03-25T07:48:03Z</time></trkpt><trkpt lat="44.522438480018224" lon="9.848400421345962"><ele>342.3333333333333</ele><time>2026-03-25T07:48:04Z</time></trkpt><trkpt lat="44.522562339089454" lon="9.848588162907195"><ele>341.6666666666667</ele><time>2026-03-25T07:48:05Z</time></trkpt><trkpt lat="44.52267364488747" lon="9.84877344630514"><ele>341.0</ele><time>2026-03-25T07:48:06Z</time></trkpt><trkpt lat="44.52284755154974" lon="9.849007307052576"><ele>342.0</ele><time>2026-03-25T07:48:07Z</time></trkpt><trkpt lat="44.52301257440709" lon="9.849242518411875"><ele>343.0</ele><time>2026-03-25T07:48:08Z</time></trkpt><trkpt lat="44.52311201915012" lon="9.849475652921466"><ele>344.0</ele><time>2026-03-25T07:48:09Z</time></trkpt><trkpt lat="44.52322249757332" lon="9.849727566313838"><ele>344.0</ele><time>2026-03-25T07:48:10Z</time></trkpt><trkpt lat="44.52334627203408" lon="9.849963804152512"><ele>344.0</ele><time>2026-03-25T07:48:11Z</time></trkpt><trkpt lat="44.52354631765939" lon="9.850361858447426"><ele>341.5</ele><time>2026-03-25T07:48:12Z</time></trkpt><trkpt lat="44.523705359105506" lon="9.850716521182589"><ele>339.0</ele><time>2026-03-25T07:48:13Z</time></trkpt><trkpt lat="44.52368371355629" lon="9.851038638897728"><ele>343.5</ele><time>2026-03-25T07:48:14Z</time></trkpt><trkpt lat="44.52375944457518" lon="9.851365075949765"><ele>348.0</ele><time>2026-03-25T07:48:15Z</time></trkpt><trkpt lat="44.52387104524016" lon="9.85166079121132"><ele>345.5</ele><time>2026-03-25T07:48:16Z</time></trkpt><trkpt lat="44.523993990884414" lon="9.851951183435373"><ele>343.0</ele><time>2026-03-25T07:48:17Z</time></trkpt><trkpt lat="44.52410267751652" lon="9.85225359725627"><ele>343.0</ele><time>2026-03-25T07:48:18Z</time></trkpt><trkpt lat="44.52421139553952" lon="9.852558818491223"><ele>343.0</ele><time>2026-03-25T07:48:19Z</time></trkpt><trkpt lat="44.524320430370814" lon="9.85288015746207"><ele>342.5</ele><time>2026-03-25T07:48:20Z</time></trkpt><trkpt lat="44.52443524460787" lon="9.853207127296969"><ele>342.0</ele><time>2026-03-25T07:48:21.074Z</time></trkpt><trkpt lat="44.52453723555459" lon="9.853694343459539"><ele>344.0</ele><time>2026-03-25T07:48:22.049Z</time></trkpt><trkpt lat="44.524639555759876" lon="9.854047578433116"><ele>346.0</ele><time>2026-03-25T07:48:23.043Z</time></trkpt><trkpt lat="44.524746812263864" lon="9.854398217781146"><ele>346.0</ele><time>2026-03-25T07:48:24.045Z</time></trkpt><trkpt lat="44.52485577056724" lon="9.854750217607625"><ele>346.0</ele><time>2026-03-25T07:48:25.044Z</time></trkpt><trkpt lat="44.524962993928256" lon="9.855103660565534"><ele>346.3333333333333</ele><time>2026-03-25T07:48:26.038Z</time></trkpt><trkpt lat="44.52501371319491" lon="9.85547867107905"><ele>346.6666666666667</ele><time>2026-03-25T07:48:27.037Z</time></trkpt><trkpt lat="44.52513008911155" lon="9.85552744780846"><ele>347.0</ele><time>2026-03-25T07:48:28.04Z</time></trkpt><trkpt lat="44.5252619984068" lon="9.855773174171533"><ele>354.0</ele><time>2026-03-25T07:48:29.038Z</time></trkpt><trkpt lat="44.525378354892155" lon="9.856055186090405"><ele>361.0</ele><time>2026-03-25T07:48:30.039Z</time></trkpt><trkpt lat="44.52548771916742" lon="9.856329901347157"><ele>361.0</ele><time>2026-03-25T07:48:31.039Z</time></trkpt><trkpt lat="44.52459786578035" lon="9.856515207880737"><ele>362.0</ele><time>2026-03-25T07:48:32.039Z</time></trkpt><trkpt lat="44.524448051569735" lon="9.856654680192563"><ele>363.0</ele><time>2026-03-25T07:48:33.038Z</time></trkpt><trkpt lat="44.52438529694347" lon="9.856760942556019"><ele>364.0</ele><time>2026-03-25T07:48:34.04Z</time></trkpt><trkpt lat="44.524368864748546" lon="9.856977167760602"><ele>365.0</ele><time>2026-03-25T07:48:35.039Z</time></trkpt><trkpt lat="44.52434221288122" lon="9.857177864025783"><ele>365.0</ele><time>2026-03-25T07:48:36.019Z</time></trkpt><trkpt lat="44.5243489281794" lon="9.857394543700348"><ele>365.0</ele><time>2026-03-25T07:48:37.024Z</time></trkpt><trkpt lat="44.52441400528837" lon="9.857632094617323"><ele>365.0</ele><time>2026-03-25T07:48:38.025Z</time></trkpt><trkpt lat="44.5244842038847" lon="9.857847085581225"><ele>373.0</ele><time>2026-03-25T07:48:39.024Z</time></trkpt><trkpt lat="44.52454603356986" lon="9.858073149377104"><ele>381.0</ele><time>2026-03-25T07:48:40.024Z</time></trkpt><trkpt lat="44.524612611870175" lon="9.858292326614352"><ele>389.0</ele><time>2026-03-25T07:48:41.024Z</time></trkpt><trkpt lat="44.52468362682113" lon="9.858503169774512"><ele>402.66666666666663</ele><time>2026-03-25T07:48:42.024Z</time></trkpt><trkpt lat="44.52475752368468" lon="9.858703862938622"><ele>416.33333333333337</ele><time>2026-03-25T07:48:43.021Z</time></trkpt><trkpt lat="44.52483350294435" lon="9.858892869674616"><ele>430.0</ele><time>2026-03-25T07:48:44.022Z</time></trkpt><trkpt lat="44.52491010309805" lon="9.859068672685346"><ele>430.0</ele><time>2026-03-25T07:48:45.021Z</time></trkpt><trkpt lat="44.524986993455514" lon="9.859233298963911"><ele>430.0</ele><time>2026-03-25T07:48:46.021Z</time></trkpt><trkpt lat="44.525063366404815" lon="9.859386734898397"><ele>430.0</ele><time>2026-03-25T07:48:47.018Z</time></trkpt><trkpt lat="44.52514123261791" lon="9.859528535853357"><ele>430.0</ele><time>2026-03-25T07:48:48.019Z</time></trkpt><trkpt lat="44.52588783023533" lon="9.860791910517133"><ele>348.0</ele><time>2026-03-25T07:48:58.055Z</time></trkpt><trkpt lat="44.5269125790256" lon="9.865509933364557"><ele>348.0</ele><time>2026-03-25T07:49:29.016Z</time></trkpt><trkpt lat="44.52696039610897" lon="9.865587923730569"><ele>348.0</ele><time>2026-03-25T07:49:30.017Z</time></trkpt><trkpt lat="44.52703899186547" lon="9.865693390370728"><ele>348.0</ele><time>2026-03-25T07:49:32.017Z</time></trkpt><trkpt lat="44.527085776204395" lon="9.8657712695061"><ele>348.0</ele><time>2026-03-25T07:49:33.017Z</time></trkpt><trkpt lat="44.52713256212225" lon="9.86584877670272"><ele>348.0</ele><time>2026-03-25T07:49:34.017Z</time></trkpt><trkpt lat="44.527021221175346" lon="9.865652784406022"><ele>352.0</ele><time>2026-03-25T07:49:35.017Z</time></trkpt><trkpt lat="44.52706128025658" lon="9.86584257406992"><ele>356.0</ele><time>2026-03-25T07:50:41.012Z</time></trkpt><trkpt lat="44.52711672538427" lon="9.865966178620788"><ele>360.0</ele><time>2026-03-25T07:50:42.018Z</time></trkpt><trkpt lat="44.52714237745599" lon="9.866063996020113"><ele>364.0</ele><time>2026-03-25T07:50:43.017Z</time></trkpt><trkpt lat="44.52718286782946" lon="9.866163966265228"><ele>368.0</ele><time>2026-03-25T07:50:44.019Z</time></trkpt><trkpt lat="44.527215716381285" lon="9.866267080562015"><ele>369.33333333333337</ele><time>2026-03-25T07:50:45.019Z</time></trkpt><trkpt lat="44.52721566470135" lon="9.866359056626314"><ele>370.6666666666667</ele><time>2026-03-25T07:50:46.021Z</time></trkpt><trkpt lat="44.52752163055201" lon="9.86645157849511"><ele>372.0</ele><time>2026-03-25T07:50:49.021Z</time></trkpt><trkpt lat="44.52757532248788" lon="9.866564110758413"><ele>372.0</ele><time>2026-03-25T07:50:50.02Z</time></trkpt><trkpt lat="44.52764377106069" lon="9.866705470941891"><ele>372.0</ele><time>2026-03-25T07:50:51.022Z</time></trkpt><trkpt lat="44.52771186849626" lon="9.866845490611343"><ele>372.0</ele><time>2026-03-25T07:50:51.999Z</time></trkpt><trkpt lat="44.52777246967508" lon="9.866970096726268"><ele>372.0</ele><time>2026-03-25T07:50:52.999Z</time></trkpt><trkpt lat="44.53104698317691" lon="9.871743772421155"><ele>362.75</ele><time>2026-03-25T07:50:53.999Z</time></trkpt><trkpt lat="44.531093477220175" lon="9.87193228471525"><ele>353.5</ele><time>2026-03-25T07:50:54.999Z</time></trkpt><trkpt lat="44.53110998407904" lon="9.872089190687808"><ele>344.25</ele><time>2026-03-25T07:50:55.999Z</time></trkpt><trkpt lat="44.531056645084796" lon="9.872237294996614"><ele>335.0</ele><time>2026-03-25T07:50:56.999Z</time></trkpt><trkpt lat="44.53106236151846" lon="9.872393581270433"><ele>335.0</ele><time>2026-03-25T07:50:57.999Z</time></trkpt><trkpt lat="44.531080344053315" lon="9.87254183018185"><ele>335.0</ele><time>2026-03-25T07:50:58.999Z</time></trkpt><trkpt lat="44.53108930772582" lon="9.872880473049891"><ele>335.0</ele><time>2026-03-25T07:51:00.999Z</time></trkpt><trkpt lat="44.53113947321335" lon="9.873089684281895"><ele>334.0</ele><time>2026-03-25T07:51:01.999Z</time></trkpt><trkpt lat="44.53119815247333" lon="9.87327378334372"><ele>333.0</ele><time>2026-03-25T07:51:02.999Z</time></trkpt><trkpt lat="44.53125465996884" lon="9.8734558510973"><ele>332.0</ele><time>2026-03-25T07:51:03.999Z</time></trkpt><trkpt lat="44.53141004533782" lon="9.873923347726562"><ele>332.0</ele><time>2026-03-25T07:51:06Z</time></trkpt><trkpt lat="44.53147730625803" lon="9.874140099861306"><ele>332.0</ele><time>2026-03-25T07:51:07Z</time></trkpt><trkpt lat="44.53153172871892" lon="9.87438935720697"><ele>332.0</ele><time>2026-03-25T07:51:08Z</time></trkpt><trkpt lat="44.53157241706712" lon="9.874645261564082"><ele>331.33333333333337</ele><time>2026-03-25T07:51:09Z</time></trkpt><trkpt lat="44.531647971538064" lon="9.874883881770272"><ele>330.6666666666667</ele><time>2026-03-25T07:51:10Z</time></trkpt><trkpt lat="44.53170567158327" lon="9.875095014985758"><ele>330.0</ele><time>2026-03-25T07:51:11Z</time></trkpt><trkpt lat="44.53176669623277" lon="9.875314956927632"><ele>330.0</ele><time>2026-03-25T07:51:12Z</time></trkpt><trkpt lat="44.53183840579144" lon="9.875543327501138"><ele>330.0</ele><time>2026-03-25T07:51:13Z</time></trkpt><trkpt lat="44.53222112615853" lon="9.875844258377537"><ele>334.3333333333333</ele><time>2026-03-25T07:51:14Z</time></trkpt><trkpt lat="44.53235306214869" lon="9.876082958515717"><ele>338.66666666666663</ele><time>2026-03-25T07:51:15Z</time></trkpt><trkpt lat="44.532490426700086" lon="9.876348040137282"><ele>343.0</ele><time>2026-03-25T07:51:16Z</time></trkpt><trkpt lat="44.53265106548041" lon="9.876612074807932"><ele>338.5</ele><time>2026-03-25T07:51:17Z</time></trkpt><trkpt lat="44.53278217812176" lon="9.876913808420303"><ele>334.0</ele><time>2026-03-25T07:51:18Z</time></trkpt><trkpt lat="44.53296819574183" lon="9.877222004999162"><ele>334.0</ele><time>2026-03-25T07:51:19Z</time></trkpt><trkpt lat="44.5332315540047" lon="9.877559390713293"><ele>334.0</ele><time>2026-03-25T07:51:20Z</time></trkpt><trkpt lat="44.53333681736298" lon="9.877865499598501"><ele>337.66666666666663</ele><time>2026-03-25T07:51:21Z</time></trkpt><trkpt lat="44.53331757954007" lon="9.878121281099219"><ele>341.3333333333333</ele><time>2026-03-25T07:51:22Z</time></trkpt><trkpt lat="44.533365396877336" lon="9.878404970341208"><ele>345.0</ele><time>2026-03-25T07:51:23Z</time></trkpt><trkpt lat="44.53349929192758" lon="9.878726348679187"><ele>360.5</ele><time>2026-03-25T07:51:24Z</time></trkpt><trkpt lat="44.53359452379512" lon="9.879031942257411"><ele>376.0</ele><time>2026-03-25T07:51:25Z</time></trkpt><trkpt lat="44.533689512701386" lon="9.879317043863342"><ele>376.5</ele><time>2026-03-25T07:51:26Z</time></trkpt><trkpt lat="44.53378541677356" lon="9.879614110884502"><ele>377.0</ele><time>2026-03-25T07:51:27Z</time></trkpt><trkpt lat="44.53398560611261" lon="9.880535637597555"><ele>393.0</ele><time>2026-03-25T07:51:30.052Z</time></trkpt><trkpt lat="44.534067485410404" lon="9.880839142500783"><ele>409.0</ele><time>2026-03-25T07:51:31.05Z</time></trkpt><trkpt lat="44.53681364739995" lon="9.887816335470367"><ele>336.0</ele><time>2026-03-25T07:51:55.015Z</time></trkpt><trkpt lat="44.537572527456206" lon="9.888132186072541"><ele>329.0</ele><time>2026-03-25T07:51:56.019Z</time></trkpt><trkpt lat="44.53817610666271" lon="9.888072569887782"><ele>329.0</ele><time>2026-03-25T07:52:00.014Z</time></trkpt><trkpt lat="44.53840944946692" lon="9.888389291714804"><ele>329.0</ele><time>2026-03-25T07:52:01.015Z</time></trkpt><trkpt lat="44.53868765415991" lon="9.88881662891128"><ele>326.0</ele><time>2026-03-25T07:52:02.017Z</time></trkpt><trkpt lat="44.53883551801989" lon="9.889136784422396"><ele>323.0</ele><time>2026-03-25T07:52:03.019Z</time></trkpt><trkpt lat="44.538964233176635" lon="9.889466484369402"><ele>323.0</ele><time>2026-03-25T07:52:04.02Z</time></trkpt><trkpt lat="44.539085895580904" lon="9.889760682257547"><ele>323.0</ele><time>2026-03-25T07:52:05.021Z</time></trkpt><trkpt lat="44.53917365554329" lon="9.890071279408605"><ele>325.0</ele><time>2026-03-25T07:52:06.019Z</time></trkpt><trkpt lat="44.53926486305092" lon="9.89039472782652"><ele>327.0</ele><time>2026-03-25T07:52:07Z</time></trkpt><trkpt lat="44.539333964696674" lon="9.89071003956331"><ele>328.0</ele><time>2026-03-25T07:52:08Z</time></trkpt><trkpt lat="44.53937970383282" lon="9.890991142285051"><ele>329.0</ele><time>2026-03-25T07:52:09Z</time></trkpt><trkpt lat="44.539414169324274" lon="9.89130082992271"><ele>330.0</ele><time>2026-03-25T07:52:10Z</time></trkpt><trkpt lat="44.539427281275174" lon="9.891568707080376"><ele>328.6666666666667</ele><time>2026-03-25T07:52:11Z</time></trkpt><trkpt lat="44.53943053897958" lon="9.891886986189299"><ele>327.33333333333337</ele><time>2026-03-25T07:52:12Z</time></trkpt><trkpt lat="44.539419406414574" lon="9.892198868054866"><ele>326.0</ele><time>2026-03-25T07:52:13Z</time></trkpt><trkpt lat="44.53939677160414" lon="9.892505664316527"><ele>324.33333333333337</ele><time>2026-03-25T07:52:14Z</time></trkpt><trkpt lat="44.53936761386468" lon="9.892760848395005"><ele>322.6666666666667</ele><time>2026-03-25T07:52:15Z</time></trkpt><trkpt lat="44.53931629378346" lon="9.893075032343335"><ele>321.0</ele><time>2026-03-25T07:52:16Z</time></trkpt><trkpt lat="44.53924397376389" lon="9.893411784387103"><ele>319.0</ele><time>2026-03-25T07:52:17Z</time></trkpt><trkpt lat="44.53915382842614" lon="9.893741943450674"><ele>317.0</ele><time>2026-03-25T07:52:18Z</time></trkpt><trkpt lat="44.53906586488936" lon="9.894006372280991"><ele>313.5</ele><time>2026-03-25T07:52:19Z</time></trkpt><trkpt lat="44.53895101165608" lon="9.89433626234381"><ele>310.0</ele><time>2026-03-25T07:52:20Z</time></trkpt><trkpt lat="44.538822308819825" lon="9.894674015909155"><ele>317.0</ele><time>2026-03-25T07:52:21Z</time></trkpt><trkpt lat="44.53868907313739" lon="9.895024811677567"><ele>324.0</ele><time>2026-03-25T07:52:22Z</time></trkpt><trkpt lat="44.53853975446936" lon="9.895453303330862"><ele>324.0</ele><time>2026-03-25T07:52:23Z</time></trkpt><trkpt lat="44.53842351981938" lon="9.895855253611973"><ele>324.0</ele><time>2026-03-25T07:52:24Z</time></trkpt><trkpt lat="44.53833041497405" lon="9.896248663701119"><ele>324.0</ele><time>2026-03-25T07:52:25Z</time></trkpt><trkpt lat="44.538252550166405" lon="9.896613000912975"><ele>324.0</ele><time>2026-03-25T07:52:26Z</time></trkpt><trkpt lat="44.538186929764294" lon="9.896939578703385"><ele>321.0</ele><time>2026-03-25T07:52:27Z</time></trkpt><trkpt lat="44.53812405805981" lon="9.89730117840281"><ele>318.0</ele><time>2026-03-25T07:52:28Z</time></trkpt><trkpt lat="44.5380777316348" lon="9.89765879319883"><ele>316.0</ele><time>2026-03-25T07:52:29Z</time></trkpt><trkpt lat="44.538046269795565" lon="9.898011739006398"><ele>314.0</ele><time>2026-03-25T07:52:30Z</time></trkpt><trkpt lat="44.53803272593224" lon="9.8984007321441"><ele>316.0</ele><time>2026-03-25T07:52:31Z</time></trkpt><trkpt lat="44.53804471536891" lon="9.898783827804307"><ele>318.0</ele><time>2026-03-25T07:52:32Z</time></trkpt><trkpt lat="44.53806884293078" lon="9.899134211458879"><ele>318.5</ele><time>2026-03-25T07:52:33Z</time></trkpt><trkpt lat="44.538106388254356" lon="9.899469499040661"><ele>319.0</ele><time>2026-03-25T07:52:34Z</time></trkpt><trkpt lat="44.53816354169935" lon="9.899808998417654"><ele>318.5</ele><time>2026-03-25T07:52:35Z</time></trkpt><trkpt lat="44.53823493281135" lon="9.900168447462768"><ele>318.0</ele><time>2026-03-25T07:52:36Z</time></trkpt><trkpt lat="44.53831678648476" lon="9.900515238778503"><ele>318.0</ele><time>2026-03-25T07:52:37Z</time></trkpt><trkpt lat="44.538405297197926" lon="9.900843610956537"><ele>318.0</ele><time>2026-03-25T07:52:38Z</time></trkpt><trkpt lat="44.538536079145004" lon="9.901156445628326"><ele>325.5</ele><time>2026-03-25T07:52:39Z</time></trkpt><trkpt lat="44.53861136311578" lon="9.901487850220025"><ele>333.0</ele><time>2026-03-25T07:52:40Z</time></trkpt><trkpt lat="44.538705576920016" lon="9.901804843506644"><ele>340.5</ele><time>2026-03-25T07:52:41Z</time></trkpt><trkpt lat="44.53880406289636" lon="9.90212086664262"><ele>348.0</ele><time>2026-03-25T07:52:42Z</time></trkpt><trkpt lat="44.53890294405669" lon="9.902437732146758"><ele>354.0</ele><time>2026-03-25T07:52:43Z</time></trkpt><trkpt lat="44.53899988140493" lon="9.902748368737397"><ele>360.0</ele><time>2026-03-25T07:52:44Z</time></trkpt><trkpt lat="44.53910513537607" lon="9.903086981146055"><ele>360.0</ele><time>2026-03-25T07:52:45.075Z</time></trkpt><trkpt lat="44.53920154459786" lon="9.903397826328415"><ele>360.0</ele><time>2026-03-25T07:52:46.064Z</time></trkpt><trkpt lat="44.53931703913186" lon="9.903655637165622"><ele>367.5</ele><time>2026-03-25T07:52:47.061Z</time></trkpt><trkpt lat="44.53944027367472" lon="9.903943795604722"><ele>375.0</ele><time>2026-03-25T07:52:48.056Z</time></trkpt><trkpt lat="44.53956204808744" lon="9.904231454828906"><ele>387.0</ele><time>2026-03-25T07:52:49.056Z</time></trkpt><trkpt lat="44.539682647974466" lon="9.904517163323929"><ele>399.0</ele><time>2026-03-25T07:52:50.046Z</time></trkpt><trkpt lat="44.53980322741663" lon="9.90480320097673"><ele>424.0</ele><time>2026-03-25T07:52:51.04Z</time></trkpt><trkpt lat="44.54019714373428" lon="9.908686551990858"><ele>409.0</ele><time>2026-03-25T07:53:02.873Z</time></trkpt><trkpt lat="44.539796305078255" lon="9.90793701316904"><ele>409.0</ele><time>2026-03-25T07:54:39.013Z</time></trkpt><trkpt lat="44.53979672281903" lon="9.908038527977054"><ele>409.0</ele><time>2026-03-25T07:54:45.014Z</time></trkpt><trkpt lat="44.53981837718839" lon="9.908263096693544"><ele>409.0</ele><time>2026-03-25T07:54:50.018Z</time></trkpt><trkpt lat="44.5530052643669" lon="9.928827869021422"><ele>366.6666666666667</ele><time>2026-03-25T07:54:52Z</time></trkpt><trkpt lat="44.55311222760154" lon="9.929019236040778"><ele>324.33333333333337</ele><time>2026-03-25T07:54:53Z</time></trkpt><trkpt lat="44.55313799985258" lon="9.92931047464903"><ele>282.0</ele><time>2026-03-25T07:54:54Z</time></trkpt><trkpt lat="44.55320795140555" lon="9.929418928258722"><ele>282.0</ele><time>2026-03-25T07:54:55Z</time></trkpt><trkpt lat="44.553277659254896" lon="9.929516416125807"><ele>282.0</ele><time>2026-03-25T07:54:56Z</time></trkpt><trkpt lat="44.55339065366125" lon="9.929641976024511"><ele>282.0</ele><time>2026-03-25T07:54:57Z</time></trkpt><trkpt lat="44.55349092245372" lon="9.929751653039505"><ele>282.0</ele><time>2026-03-25T07:54:58Z</time></trkpt><trkpt lat="44.55355746608593" lon="9.929881326697087"><ele>282.0</ele><time>2026-03-25T07:54:59Z</time></trkpt><trkpt lat="44.55364949527489" lon="9.92999649763953"><ele>282.0</ele><time>2026-03-25T07:55:00Z</time></trkpt><trkpt lat="44.5537482682807" lon="9.930110917458713"><ele>282.0</ele><time>2026-03-25T07:55:01Z</time></trkpt><trkpt lat="44.5538454969018" lon="9.930216575372892"><ele>282.0</ele><time>2026-03-25T07:55:02Z</time></trkpt><trkpt lat="44.5539521224943" lon="9.9303226231539"><ele>283.25</ele><time>2026-03-25T07:55:03Z</time></trkpt><trkpt lat="44.554059409315975" lon="9.930432125432185"><ele>284.5</ele><time>2026-03-25T07:55:04Z</time></trkpt><trkpt lat="44.55416301353119" lon="9.930526668685065"><ele>285.75</ele><time>2026-03-25T07:55:05Z</time></trkpt><trkpt lat="44.554265613532586" lon="9.930633437583454"><ele>287.0</ele><time>2026-03-25T07:55:06Z</time></trkpt><trkpt lat="44.55437414093251" lon="9.930745063428644"><ele>287.0</ele><time>2026-03-25T07:55:07Z</time></trkpt><trkpt lat="44.55448484638098" lon="9.930851738307759"><ele>287.0</ele><time>2026-03-25T07:55:08Z</time></trkpt><trkpt lat="44.5545744927802" lon="9.930937004894504"><ele>287.0</ele><time>2026-03-25T07:55:09Z</time></trkpt><trkpt lat="44.55467275370523" lon="9.93098862531993"><ele>287.0</ele><time>2026-03-25T07:55:10Z</time></trkpt><trkpt lat="44.554755000323695" lon="9.931037083073587"><ele>287.0</ele><time>2026-03-25T07:55:11Z</time></trkpt><trkpt lat="44.554858684501866" lon="9.93107424521463"><ele>287.8</ele><time>2026-03-25T07:55:12Z</time></trkpt><trkpt lat="44.55495656464953" lon="9.93109442935577"><ele>288.6</ele><time>2026-03-25T07:55:13Z</time></trkpt><trkpt lat="44.555058260438805" lon="9.931147112077"><ele>289.40000000000003</ele><time>2026-03-25T07:55:14Z</time></trkpt><trkpt lat="44.55515263871217" lon="9.931212019172555"><ele>290.2</ele><time>2026-03-25T07:55:15Z</time></trkpt><trkpt lat="44.55524741639273" lon="9.931268669817637"><ele>291.0</ele><time>2026-03-25T07:55:16Z</time></trkpt><trkpt lat="44.55533604367379" lon="9.931319688436982"><ele>290.1666666666667</ele><time>2026-03-25T07:55:17Z</time></trkpt><trkpt lat="44.555445934034246" lon="9.931385053858595"><ele>289.3333333333333</ele><time>2026-03-25T07:55:18Z</time></trkpt><trkpt lat="44.55552340140083" lon="9.93141423603187"><ele>288.5</ele><time>2026-03-25T07:55:19Z</time></trkpt><trkpt lat="44.555617730370955" lon="9.93146871810626"><ele>287.66666666666663</ele><time>2026-03-25T07:55:20Z</time></trkpt><trkpt lat="44.55569535090241" lon="9.931502633530972"><ele>286.8333333333333</ele><time>2026-03-25T07:55:21Z</time></trkpt><trkpt lat="44.555760055063566" lon="9.931515275456292"><ele>286.0</ele><time>2026-03-25T07:55:22Z</time></trkpt><trkpt lat="44.55583246981249" lon="9.931548623625272"><ele>286.0</ele><time>2026-03-25T07:55:23Z</time></trkpt><trkpt lat="44.55589571370442" lon="9.931586561337555"><ele>286.0</ele><time>2026-03-25T07:55:24Z</time></trkpt><trkpt lat="44.555955694447334" lon="9.93162225211804"><ele>286.0</ele><time>2026-03-25T07:55:25Z</time></trkpt><trkpt lat="44.55601718946393" lon="9.931661039039167"><ele>286.0</ele><time>2026-03-25T07:55:26Z</time></trkpt><trkpt lat="44.5561138935019" lon="9.931742190936832"><ele>286.0</ele><time>2026-03-25T07:55:28Z</time></trkpt><trkpt lat="44.556195271652804" lon="9.931795807149292"><ele>286.0</ele><time>2026-03-25T07:55:30Z</time></trkpt><trkpt lat="44.55627406967928" lon="9.931846617949525"><ele>286.40000000000003</ele><time>2026-03-25T07:55:33Z</time></trkpt><trkpt lat="44.5563449158956" lon="9.931887959135317"><ele>286.8</ele><time>2026-03-25T07:56:09Z</time></trkpt><trkpt lat="44.55646058007972" lon="9.931960154973465"><ele>287.20000000000005</ele><time>2026-03-25T07:56:13Z</time></trkpt><trkpt lat="44.55653944948197" lon="9.932011617103916"><ele>287.6</ele><time>2026-03-25T07:56:15Z</time></trkpt><trkpt lat="44.5566324585706" lon="9.932072068084691"><ele>288.0</ele><time>2026-03-25T07:56:17Z</time></trkpt><trkpt lat="44.5567396288508" lon="9.932143738713927"><ele>288.00000000000006</ele><time>2026-03-25T07:56:19Z</time></trkpt><trkpt lat="44.55679779410583" lon="9.932183552607755"><ele>288.0</ele><time>2026-03-25T07:56:20Z</time></trkpt><trkpt lat="44.55685709057948" lon="9.932226102642398"><ele>288.0</ele><time>2026-03-25T07:56:21Z</time></trkpt><trkpt lat="44.55691804192187" lon="9.932270302412386"><ele>288.0</ele><time>2026-03-25T07:56:22Z</time></trkpt><trkpt lat="44.55698040019743" lon="9.9323146523069"><ele>288.0</ele><time>2026-03-25T07:56:23Z</time></trkpt><trkpt lat="44.55704988123129" lon="9.932364214333143"><ele>288.00000000000006</ele><time>2026-03-25T07:56:24Z</time></trkpt><trkpt lat="44.55712223356608" lon="9.93241560698673"><ele>288.0</ele><time>2026-03-25T07:56:25Z</time></trkpt><trkpt lat="44.5571997655545" lon="9.932470472656343"><ele>287.4</ele><time>2026-03-25T07:56:26Z</time></trkpt><trkpt lat="44.55728066192089" lon="9.932529824349945"><ele>286.8</ele><time>2026-03-25T07:56:27Z</time></trkpt><trkpt lat="44.55736781452282" lon="9.932591933314312"><ele>286.2</ele><time>2026-03-25T07:56:28Z</time></trkpt><trkpt lat="44.55746111060436" lon="9.93265892127092"><ele>285.6</ele><time>2026-03-25T07:56:29Z</time></trkpt><trkpt lat="44.557557049958035" lon="9.932728051506416"><ele>285.0</ele><time>2026-03-25T07:56:30Z</time></trkpt><trkpt lat="44.557657039398045" lon="9.932800389252737"><ele>285.75</ele><time>2026-03-25T07:56:31Z</time></trkpt><trkpt lat="44.557762105425745" lon="9.932877392116074"><ele>286.5</ele><time>2026-03-25T07:56:32Z</time></trkpt><trkpt lat="44.55786989787629" lon="9.932956781739165"><ele>287.25</ele><time>2026-03-25T07:56:33Z</time></trkpt><trkpt lat="44.55798639577494" lon="9.933040909361694"><ele>288.0</ele><time>2026-03-25T07:56:34Z</time></trkpt><trkpt lat="44.55810645302915" lon="9.933129593569479"><ele>288.0</ele><time>2026-03-25T07:56:35Z</time></trkpt><trkpt lat="44.55823483592915" lon="9.933221749447565"><ele>288.0</ele><time>2026-03-25T07:56:36Z</time></trkpt><trkpt lat="44.55836786665886" lon="9.933317544717662"><ele>288.0</ele><time>2026-03-25T07:56:37Z</time></trkpt><trkpt lat="44.558505832846606" lon="9.933415915096793"><ele>288.0</ele><time>2026-03-25T07:56:38Z</time></trkpt><trkpt lat="44.55864297689977" lon="9.933518160667164"><ele>287.3333333333333</ele><time>2026-03-25T07:56:39Z</time></trkpt><trkpt lat="44.55878638741635" lon="9.933627132225077"><ele>286.66666666666663</ele><time>2026-03-25T07:56:40Z</time></trkpt><trkpt lat="44.55893322739661" lon="9.933740319774461"><ele>286.0</ele><time>2026-03-25T07:56:41Z</time></trkpt><trkpt lat="44.55908656027467" lon="9.933858826059977"><ele>286.0</ele><time>2026-03-25T07:56:42Z</time></trkpt><trkpt lat="44.55924143490284" lon="9.933979089916381"><ele>286.0</ele><time>2026-03-25T07:56:43Z</time></trkpt><trkpt lat="44.559396513851" lon="9.934100182406779"><ele>286.0</ele><time>2026-03-25T07:56:44Z</time></trkpt><trkpt lat="44.559560904723426" lon="9.934226739233125"><ele>286.66666666666663</ele><time>2026-03-25T07:56:45Z</time></trkpt><trkpt lat="44.559726950954605" lon="9.934355070885418"><ele>287.3333333333333</ele><time>2026-03-25T07:56:46Z</time></trkpt><trkpt lat="44.55989449464607" lon="9.93448486171307"><ele>288.0</ele><time>2026-03-25T07:56:47Z</time></trkpt><trkpt lat="44.560068765058936" lon="9.93461523348079"><ele>288.0</ele><time>2026-03-25T07:56:48Z</time></trkpt><trkpt lat="44.560245688684155" lon="9.934753849556538"><ele>288.0</ele><time>2026-03-25T07:56:49Z</time></trkpt><trkpt lat="44.56042937153409" lon="9.934894005715455"><ele>288.0</ele><time>2026-03-25T07:56:50Z</time></trkpt><trkpt lat="44.560617254252" lon="9.935040841119209"><ele>285.0</ele><time>2026-03-25T07:56:51Z</time></trkpt><trkpt lat="44.56081203216345" lon="9.935186326378115"><ele>282.0</ele><time>2026-03-25T07:56:52Z</time></trkpt><trkpt lat="44.56100427705022" lon="9.935332562380752"><ele>279.0</ele><time>2026-03-25T07:56:53Z</time></trkpt><trkpt lat="44.561198605173885" lon="9.935488342099019"><ele>276.5</ele><time>2026-03-25T07:56:54Z</time></trkpt><trkpt lat="44.56140393384058" lon="9.935644456210177"><ele>274.0</ele><time>2026-03-25T07:56:55Z</time></trkpt><trkpt lat="44.56161113539988" lon="9.93580303286302"><ele>274.0</ele><time>2026-03-25T07:56:56Z</time></trkpt><trkpt lat="44.561827027640305" lon="9.935962791010331"><ele>274.0</ele><time>2026-03-25T07:56:57Z</time></trkpt><trkpt lat="44.562045318612626" lon="9.936128384452244"><ele>272.5</ele><time>2026-03-25T07:56:58Z</time></trkpt><trkpt lat="44.56226614446938" lon="9.936294877680147"><ele>271.0</ele><time>2026-03-25T07:56:59Z</time></trkpt><trkpt lat="44.56249340780944" lon="9.936464059281441"><ele>271.0</ele><time>2026-03-25T07:57:00Z</time></trkpt><trkpt lat="44.56272339820384" lon="9.9366364246315"><ele>271.0</ele><time>2026-03-25T07:57:01Z</time></trkpt><trkpt lat="44.5629563893123" lon="9.936812071529067"><ele>270.5</ele><time>2026-03-25T07:57:02Z</time></trkpt><trkpt lat="44.563191009769646" lon="9.936990005683201"><ele>270.0</ele><time>2026-03-25T07:57:03Z</time></trkpt><trkpt lat="44.563428319998266" lon="9.937169573382954"><ele>270.0</ele><time>2026-03-25T07:57:04Z</time></trkpt><trkpt lat="44.56367224222817" lon="9.93735432266589"><ele>270.0</ele><time>2026-03-25T07:57:05Z</time></trkpt><trkpt lat="44.56391975407247" lon="9.9375391207561"><ele>269.0</ele><time>2026-03-25T07:57:06Z</time></trkpt><trkpt lat="44.564172696671925" lon="9.937727194334443"><ele>268.0</ele><time>2026-03-25T07:57:07Z</time></trkpt><trkpt lat="44.56442317179406" lon="9.937920203100049"><ele>267.5</ele><time>2026-03-25T07:57:08Z</time></trkpt><trkpt lat="44.564678218174656" lon="9.93811159155363"><ele>267.0</ele><time>2026-03-25T07:57:09Z</time></trkpt><trkpt lat="44.564940924253385" lon="9.938308608317142"><ele>267.0</ele><time>2026-03-25T07:57:10Z</time></trkpt><trkpt lat="44.565204456544365" lon="9.938505358696757"><ele>267.0</ele><time>2026-03-25T07:57:11Z</time></trkpt><trkpt lat="44.56547010351708" lon="9.938704169333988"><ele>267.0</ele><time>2026-03-25T07:57:12Z</time></trkpt><trkpt lat="44.56574142477952" lon="9.938901873600342"><ele>267.0</ele><time>2026-03-25T07:57:13Z</time></trkpt><trkpt lat="44.56602095434683" lon="9.939095490460915"><ele>266.0</ele><time>2026-03-25T07:57:14Z</time></trkpt><trkpt lat="44.56630156712217" lon="9.93928245206158"><ele>265.0</ele><time>2026-03-25T07:57:15Z</time></trkpt><trkpt lat="44.56657542327732" lon="9.939470030986753"><ele>265.0</ele><time>2026-03-25T07:57:16Z</time></trkpt><trkpt lat="44.56684395890151" lon="9.939645210060466"><ele>265.0</ele><time>2026-03-25T07:57:17Z</time></trkpt><trkpt lat="44.567128803890306" lon="9.939814375855626"><ele>266.5</ele><time>2026-03-25T07:57:18Z</time></trkpt><trkpt lat="44.567412780405334" lon="9.939985812013767"><ele>268.0</ele><time>2026-03-25T07:57:19Z</time></trkpt><trkpt lat="44.567697630715855" lon="9.940140124036802"><ele>272.5</ele><time>2026-03-25T07:57:20Z</time></trkpt><trkpt lat="44.56798787115808" lon="9.940308027947966"><ele>277.0</ele><time>2026-03-25T07:57:21Z</time></trkpt><trkpt lat="44.56828023833596" lon="9.940476689064319"><ele>277.0</ele><time>2026-03-25T07:57:22Z</time></trkpt><trkpt lat="44.568635097087416" lon="9.940571101362654"><ele>277.0</ele><time>2026-03-25T07:57:23Z</time></trkpt><trkpt lat="44.568933184739464" lon="9.940708143311925"><ele>289.5</ele><time>2026-03-25T07:57:24Z</time></trkpt><trkpt lat="44.56924855101292" lon="9.940689781819607"><ele>302.0</ele><time>2026-03-25T07:57:25Z</time></trkpt><trkpt lat="44.56952619319373" lon="9.940747508521945"><ele>318.0</ele><time>2026-03-25T07:57:26Z</time></trkpt><trkpt lat="44.56985230384843" lon="9.940777683085278"><ele>334.0</ele><time>2026-03-25T07:57:27Z</time></trkpt><trkpt lat="44.57012637908209" lon="9.940826413904611"><ele>347.0</ele><time>2026-03-25T07:57:28Z</time></trkpt><trkpt lat="44.570418414695425" lon="9.94085369137464"><ele>360.0</ele><time>2026-03-25T07:57:29Z</time></trkpt><trkpt lat="44.570737909389365" lon="9.940879516668199"><ele>360.5</ele><time>2026-03-25T07:57:30.078Z</time></trkpt><trkpt lat="44.57101781852834" lon="9.940898410394277"><ele>361.0</ele><time>2026-03-25T07:57:31.058Z</time></trkpt><trkpt lat="44.57131589380932" lon="9.940909777682423"><ele>290.0</ele><time>2026-03-25T07:57:32.057Z</time></trkpt><trkpt lat="44.57454633666943" lon="9.94310342066942"><ele>290.0</ele><time>2026-03-25T07:57:44.095Z</time></trkpt><trkpt lat="44.57501807443499" lon="9.94330535000746"><ele>246.0</ele><time>2026-03-25T07:57:46.049Z</time></trkpt><trkpt lat="44.59491161164911" lon="9.957816802142153"><ele>246.0</ele><time>2026-03-25T07:59:03.017Z</time></trkpt><trkpt lat="44.5950979253774" lon="9.95818614136012"><ele>246.0</ele><time>2026-03-25T07:59:04.014Z</time></trkpt><trkpt lat="44.59525944800002" lon="9.958556487803541"><ele>248.0</ele><time>2026-03-25T07:59:05.015Z</time></trkpt><trkpt lat="44.595428869715754" lon="9.958960953289795"><ele>250.0</ele><time>2026-03-25T07:59:06.02Z</time></trkpt><trkpt lat="44.59572980833243" lon="9.959444983430396"><ele>250.0</ele><time>2026-03-25T07:59:07.019Z</time></trkpt><trkpt lat="44.595908876864755" lon="9.959863684676153"><ele>250.0</ele><time>2026-03-25T07:59:08.02Z</time></trkpt><trkpt lat="44.59609841526005" lon="9.96030191963322"><ele>248.5</ele><time>2026-03-25T07:59:09.021Z</time></trkpt><trkpt lat="44.596285419253775" lon="9.960704747189183"><ele>247.0</ele><time>2026-03-25T07:59:10.018Z</time></trkpt><trkpt lat="44.596425915111084" lon="9.96108416597719"><ele>247.0</ele><time>2026-03-25T07:59:11.021Z</time></trkpt><trkpt lat="44.59653824385569" lon="9.961406716796725"><ele>247.0</ele><time>2026-03-25T07:59:12.018Z</time></trkpt><trkpt lat="44.59669093848536" lon="9.961793758706886"><ele>244.0</ele><time>2026-03-25T07:59:13.02Z</time></trkpt><trkpt lat="44.596742921539466" lon="9.96212313744299"><ele>241.0</ele><time>2026-03-25T07:59:14.021Z</time></trkpt><trkpt lat="44.59690432892129" lon="9.962382257482366"><ele>241.5</ele><time>2026-03-25T07:59:15.022Z</time></trkpt><trkpt lat="44.5970367170369" lon="9.962729780335652"><ele>242.0</ele><time>2026-03-25T07:59:16.015Z</time></trkpt><trkpt lat="44.59722666811607" lon="9.963090173798967"><ele>239.5</ele><time>2026-03-25T07:59:17.018Z</time></trkpt><trkpt lat="44.597413068708335" lon="9.963454931732535"><ele>237.0</ele><time>2026-03-25T07:59:18.019Z</time></trkpt><trkpt lat="44.597689400491596" lon="9.963647079186817"><ele>240.5</ele><time>2026-03-25T07:59:19.017Z</time></trkpt><trkpt lat="44.59790915903673" lon="9.963974105365068"><ele>244.0</ele><time>2026-03-25T07:59:20.019Z</time></trkpt><trkpt lat="44.598135046941515" lon="9.964170979294323"><ele>239.5</ele><time>2026-03-25T07:59:21.018Z</time></trkpt><trkpt lat="44.598332126618516" lon="9.96447331388321"><ele>235.0</ele><time>2026-03-25T07:59:22.017Z</time></trkpt><trkpt lat="44.598567665127604" lon="9.964695490718421"><ele>236.5</ele><time>2026-03-25T07:59:23.019Z</time></trkpt><trkpt lat="44.59877159797833" lon="9.964978239532329"><ele>238.0</ele><time>2026-03-25T07:59:24.017Z</time></trkpt><trkpt lat="44.598956115117964" lon="9.965262660878656"><ele>238.0</ele><time>2026-03-25T07:59:25.017Z</time></trkpt><trkpt lat="44.59920024424213" lon="9.9655448390293"><ele>238.0</ele><time>2026-03-25T07:59:26.014Z</time></trkpt><trkpt lat="44.59946643808215" lon="9.965880305743722"><ele>237.0</ele><time>2026-03-25T07:59:27.016Z</time></trkpt><trkpt lat="44.59971292022622" lon="9.966009579322336"><ele>236.0</ele><time>2026-03-25T07:59:28.017Z</time></trkpt><trkpt lat="44.59994881907513" lon="9.966182269466247"><ele>236.0</ele><time>2026-03-25T07:59:29.019Z</time></trkpt><trkpt lat="44.60018534267089" lon="9.96634314781028"><ele>236.0</ele><time>2026-03-25T07:59:30.018Z</time></trkpt><trkpt lat="44.60039236674604" lon="9.966565184449694"><ele>235.5</ele><time>2026-03-25T07:59:31.018Z</time></trkpt><trkpt lat="44.60060672877836" lon="9.966840586460737"><ele>235.0</ele><time>2026-03-25T07:59:32.018Z</time></trkpt><trkpt lat="44.600846502226716" lon="9.967155035447416"><ele>235.0</ele><time>2026-03-25T07:59:33.019Z</time></trkpt><trkpt lat="44.60106082987125" lon="9.967457361842675"><ele>235.0</ele><time>2026-03-25T07:59:34.019Z</time></trkpt><trkpt lat="44.6012554450667" lon="9.96774421394168"><ele>235.5</ele><time>2026-03-25T07:59:35.019Z</time></trkpt><trkpt lat="44.60141492913778" lon="9.968031094367202"><ele>236.0</ele><time>2026-03-25T07:59:36.018Z</time></trkpt><trkpt lat="44.60156005254733" lon="9.968320473873307"><ele>236.0</ele><time>2026-03-25T07:59:37.019Z</time></trkpt><trkpt lat="44.60179156818428" lon="9.968767917126923"><ele>236.0</ele><time>2026-03-25T07:59:38.019Z</time></trkpt><trkpt lat="44.601994875914166" lon="9.969188352682798"><ele>236.0</ele><time>2026-03-25T07:59:39.019Z</time></trkpt><trkpt lat="44.60217030650518" lon="9.969423803259156"><ele>236.0</ele><time>2026-03-25T07:59:40.019Z</time></trkpt><trkpt lat="44.60235535138803" lon="9.969710454866844"><ele>236.0</ele><time>2026-03-25T07:59:41.019Z</time></trkpt><trkpt lat="44.60253808773024" lon="9.96999952259465"><ele>236.0</ele><time>2026-03-25T07:59:42.019Z</time></trkpt><trkpt lat="44.60272604978535" lon="9.970288417421859"><ele>235.5</ele><time>2026-03-25T07:59:43.02Z</time></trkpt><trkpt lat="44.60290953867179" lon="9.970578124443795"><ele>235.0</ele><time>2026-03-25T07:59:44.019Z</time></trkpt><trkpt lat="44.60309554610664" lon="9.970873224041119"><ele>234.0</ele><time>2026-03-25T07:59:45.018Z</time></trkpt><trkpt lat="44.60328983709497" lon="9.971170659112818"><ele>233.0</ele><time>2026-03-25T07:59:46.018Z</time></trkpt><trkpt lat="44.60348079627578" lon="9.971468037943994"><ele>233.0</ele><time>2026-03-25T07:59:47.019Z</time></trkpt><trkpt lat="44.60366094771743" lon="9.971763474975589"><ele>233.0</ele><time>2026-03-25T07:59:48.019Z</time></trkpt><trkpt lat="44.603833997632435" lon="9.972061874407327"><ele>233.0</ele><time>2026-03-25T07:59:49.019Z</time></trkpt><trkpt lat="44.604000090575326" lon="9.97236989671728"><ele>233.0</ele><time>2026-03-25T07:59:50.022Z</time></trkpt><trkpt lat="44.60417492018159" lon="9.972670095556534"><ele>231.66666666666669</ele><time>2026-03-25T07:59:51.019Z</time></trkpt><trkpt lat="44.604256993169265" lon="9.972666506054285"><ele>230.33333333333331</ele><time>2026-03-25T07:59:52.018Z</time></trkpt><trkpt lat="44.60441337004414" lon="9.972908342971687"><ele>229.0</ele><time>2026-03-25T07:59:53.017Z</time></trkpt><trkpt lat="44.60456922279027" lon="9.973119016566521"><ele>230.33333333333331</ele><time>2026-03-25T07:59:54.018Z</time></trkpt><trkpt lat="44.60471819100076" lon="9.973333727970031"><ele>231.66666666666669</ele><time>2026-03-25T07:59:55.018Z</time></trkpt><trkpt lat="44.60488996702578" lon="9.973550558059738"><ele>233.0</ele><time>2026-03-25T07:59:56.019Z</time></trkpt><trkpt lat="44.6050365709402" lon="9.973780952256607"><ele>233.0</ele><time>2026-03-25T07:59:57.019Z</time></trkpt><trkpt lat="44.60522399324257" lon="9.974019115666808"><ele>233.0</ele><time>2026-03-25T07:59:58.02Z</time></trkpt><trkpt lat="44.605385864618825" lon="9.97418423047606"><ele>233.0</ele><time>2026-03-25T07:59:59.019Z</time></trkpt><trkpt lat="44.60558496681228" lon="9.974413580922269"><ele>233.0</ele><time>2026-03-25T08:00:00.015Z</time></trkpt><trkpt lat="44.60575321793978" lon="9.974632221771456"><ele>233.0</ele><time>2026-03-25T08:00:01.017Z</time></trkpt><trkpt lat="44.605891000557286" lon="9.97483010485484"><ele>233.0</ele><time>2026-03-25T08:00:02.017Z</time></trkpt><trkpt lat="44.60602712620819" lon="9.97500345309462"><ele>233.0</ele><time>2026-03-25T08:00:03.017Z</time></trkpt><trkpt lat="44.606190477391856" lon="9.975202615256467"><ele>232.66666666666669</ele><time>2026-03-25T08:00:04.018Z</time></trkpt><trkpt lat="44.6063532805552" lon="9.975403102453521"><ele>232.33333333333331</ele><time>2026-03-25T08:00:05.017Z</time></trkpt><trkpt lat="44.60648851277791" lon="9.975580505077415"><ele>232.0</ele><time>2026-03-25T08:00:06.019Z</time></trkpt><trkpt lat="44.60664912726336" lon="9.975782570676497"><ele>230.66666666666666</ele><time>2026-03-25T08:00:07.017Z</time></trkpt><trkpt lat="44.606814096986966" lon="9.975988870798128"><ele>229.33333333333331</ele><time>2026-03-25T08:00:08.019Z</time></trkpt><trkpt lat="44.60697574944725" lon="9.976191252848063"><ele>228.0</ele><time>2026-03-25T08:00:09.017Z</time></trkpt><trkpt lat="44.60713707931252" lon="9.976393584035353"><ele>228.0</ele><time>2026-03-25T08:00:10.018Z</time></trkpt><trkpt lat="44.607298771451596" lon="9.97659486406868"><ele>228.0</ele><time>2026-03-25T08:00:11.018Z</time></trkpt><trkpt lat="44.60745938526277" lon="9.976794091538206"><ele>228.0</ele><time>2026-03-25T08:00:12.019Z</time></trkpt><trkpt lat="44.60761420617967" lon="9.976975961944486"><ele>227.0</ele><time>2026-03-25T08:00:13.019Z</time></trkpt><trkpt lat="44.60779952620442" lon="9.977184565217055"><ele>226.0</ele><time>2026-03-25T08:00:14.014Z</time></trkpt><trkpt lat="44.607694712529316" lon="9.977434310913996"><ele>225.0</ele><time>2026-03-25T08:00:15.019Z</time></trkpt><trkpt lat="44.60780481707861" lon="9.977612802008936"><ele>224.66666666666669</ele><time>2026-03-25T08:00:16.02Z</time></trkpt><trkpt lat="44.60803615126728" lon="9.977729530823563"><ele>224.33333333333334</ele><time>2026-03-25T08:00:17.019Z</time></trkpt><trkpt lat="44.60820439017475" lon="9.977823665085396"><ele>224.0</ele><time>2026-03-25T08:00:18.02Z</time></trkpt><trkpt lat="44.608860217434945" lon="9.977799020133979"><ele>223.5</ele><time>2026-03-25T08:00:20.018Z</time></trkpt><trkpt lat="44.60912884195241" lon="9.977823700378874"><ele>223.0</ele><time>2026-03-25T08:00:21.02Z</time></trkpt><trkpt lat="44.60935838476983" lon="9.977835761373493"><ele>223.5</ele><time>2026-03-25T08:00:22.019Z</time></trkpt><trkpt lat="44.609673499137294" lon="9.977829845478686"><ele>224.0</ele><time>2026-03-25T08:00:23.02Z</time></trkpt><trkpt lat="44.61001364066624" lon="9.977839311108172"><ele>224.0</ele><time>2026-03-25T08:00:24.021Z</time></trkpt><trkpt lat="44.6101696121998" lon="9.977985208761973"><ele>224.0</ele><time>2026-03-25T08:00:25.021Z</time></trkpt><trkpt lat="44.610371914892575" lon="9.978073996733025"><ele>224.0</ele><time>2026-03-25T08:00:26.02Z</time></trkpt><trkpt lat="44.61055799994586" lon="9.97816305394128"><ele>225.5</ele><time>2026-03-25T08:00:27.022Z</time></trkpt><trkpt lat="44.610792039960884" lon="9.978236126231307"><ele>227.0</ele><time>2026-03-25T08:00:28.023Z</time></trkpt><trkpt lat="44.61100897625182" lon="9.978306096392751"><ele>227.5</ele><time>2026-03-25T08:00:29Z</time></trkpt><trkpt lat="44.611177801932975" lon="9.97834044190278"><ele>228.0</ele><time>2026-03-25T08:00:30Z</time></trkpt><trkpt lat="44.61132420774127" lon="9.97837144976048"><ele>228.5</ele><time>2026-03-25T08:00:31Z</time></trkpt><trkpt lat="44.611432570300266" lon="9.97840493811482"><ele>229.0</ele><time>2026-03-25T08:00:32Z</time></trkpt><trkpt lat="44.611583283058174" lon="9.978448043750499"><ele>227.66666666666666</ele><time>2026-03-25T08:00:33Z</time></trkpt><trkpt lat="44.6117379738488" lon="9.9784889515346"><ele>226.33333333333331</ele><time>2026-03-25T08:00:34Z</time></trkpt><trkpt lat="44.61189068437739" lon="9.978525949237417"><ele>225.0</ele><time>2026-03-25T08:00:35Z</time></trkpt><trkpt lat="44.61203870692581" lon="9.97855937534447"><ele>225.0</ele><time>2026-03-25T08:00:36Z</time></trkpt><trkpt lat="44.61218575062851" lon="9.978589417578164"><ele>225.0</ele><time>2026-03-25T08:00:37Z</time></trkpt><trkpt lat="44.61232420369927" lon="9.978618141753204"><ele>225.0</ele><time>2026-03-25T08:00:38.001Z</time></trkpt><trkpt lat="44.61256784364169" lon="9.978829494402516"><ele>225.0</ele><time>2026-03-25T08:00:39.001Z</time></trkpt><trkpt lat="44.612728561392" lon="9.978907442169078"><ele>225.0</ele><time>2026-03-25T08:00:40.001Z</time></trkpt><trkpt lat="44.61286082656442" lon="9.978995469015251"><ele>225.0</ele><time>2026-03-25T08:00:41.001Z</time></trkpt><trkpt lat="44.612970294282334" lon="9.979085103418427"><ele>225.0</ele><time>2026-03-25T08:00:42.001Z</time></trkpt><trkpt lat="44.613094216727035" lon="9.979163124746682"><ele>225.5</ele><time>2026-03-25T08:00:43.001Z</time></trkpt><trkpt lat="44.61321648416694" lon="9.979252857715935"><ele>226.0</ele><time>2026-03-25T08:00:44.001Z</time></trkpt><trkpt lat="44.61334674926478" lon="9.979349416012365"><ele>226.5</ele><time>2026-03-25T08:00:45.001Z</time></trkpt><trkpt lat="44.613481828233006" lon="9.979442013671754"><ele>227.0</ele><time>2026-03-25T08:00:46.001Z</time></trkpt><trkpt lat="44.613607503736176" lon="9.979520951031335"><ele>228.0</ele><time>2026-03-25T08:00:47.001Z</time></trkpt><trkpt lat="44.61372171843941" lon="9.979598726724742"><ele>229.0</ele><time>2026-03-25T08:00:48.001Z</time></trkpt><trkpt lat="44.61383214658636" lon="9.979679948483822"><ele>230.0</ele><time>2026-03-25T08:00:49.001Z</time></trkpt><trkpt lat="44.61392335873853" lon="9.979745907477662"><ele>231.0</ele><time>2026-03-25T08:00:50.001Z</time></trkpt><trkpt lat="44.61401670544533" lon="9.97982474135149"><ele>231.0</ele><time>2026-03-25T08:00:51.001Z</time></trkpt><trkpt lat="44.61411377507727" lon="9.979902844107269"><ele>231.0</ele><time>2026-03-25T08:00:52.001Z</time></trkpt><trkpt lat="44.614201386232985" lon="9.979980202459735"><ele>231.0</ele><time>2026-03-25T08:00:53.001Z</time></trkpt><trkpt lat="44.61438789101362" lon="9.980127294341827"><ele>231.0</ele><time>2026-03-25T08:00:54.001Z</time></trkpt><trkpt lat="44.6144865226688" lon="9.980202806854889"><ele>229.5</ele><time>2026-03-25T08:00:55.001Z</time></trkpt><trkpt lat="44.61468376386406" lon="9.980354588323973"><ele>228.0</ele><time>2026-03-25T08:00:56.001Z</time></trkpt><trkpt lat="44.61497963673486" lon="9.980581883222472"><ele>232.0</ele><time>2026-03-25T08:00:57.001Z</time></trkpt><trkpt lat="44.615374133859184" lon="9.980884944603"><ele>224.0</ele><time>2026-03-25T08:00:58.001Z</time></trkpt><trkpt lat="44.61398564195887" lon="9.980865597477415"><ele>227.0</ele><time>2026-03-25T08:01:12.001Z</time></trkpt><trkpt lat="44.614049527041736" lon="9.980107208593562"><ele>227.0</ele><time>2026-03-25T08:01:29.001Z</time></trkpt><trkpt lat="44.61422319643906" lon="9.980231901160588"><ele>227.0</ele><time>2026-03-25T08:01:32Z</time></trkpt><trkpt lat="44.61433243873651" lon="9.980331008514574"><ele>227.0</ele><time>2026-03-25T08:01:42Z</time></trkpt><trkpt lat="44.614420721384136" lon="9.980416327074842"><ele>227.0</ele><time>2026-03-25T08:01:44Z</time></trkpt><trkpt lat="44.61447443580694" lon="9.98046255045824"><ele>227.16666666666669</ele><time>2026-03-25T08:01:45Z</time></trkpt><trkpt lat="44.614531199614554" lon="9.980512505388408"><ele>227.33333333333334</ele><time>2026-03-25T08:01:46Z</time></trkpt><trkpt lat="44.614590311669275" lon="9.980567688451021"><ele>227.5</ele><time>2026-03-25T08:01:47Z</time></trkpt><trkpt lat="44.6146547900076" lon="9.980619038995673"><ele>227.66666666666669</ele><time>2026-03-25T08:01:48Z</time></trkpt><trkpt lat="44.61472054690665" lon="9.980662763531425"><ele>227.83333333333334</ele><time>2026-03-25T08:01:49Z</time></trkpt><trkpt lat="44.61478748675283" lon="9.980695956098561"><ele>228.0</ele><time>2026-03-25T08:01:50Z</time></trkpt><trkpt lat="44.61487945273744" lon="9.980800617683292"><ele>227.60000000000002</ele><time>2026-03-25T08:01:51Z</time></trkpt><trkpt lat="44.61496808988915" lon="9.98088007631261"><ele>227.20000000000002</ele><time>2026-03-25T08:01:52Z</time></trkpt><trkpt lat="44.61506362688626" lon="9.980959564449831"><ele>226.8</ele><time>2026-03-25T08:01:53Z</time></trkpt><trkpt lat="44.61516577551359" lon="9.981041190984142"><ele>226.4</ele><time>2026-03-25T08:01:54Z</time></trkpt><trkpt lat="44.615260668252525" lon="9.981120133251595"><ele>226.0</ele><time>2026-03-25T08:01:55Z</time></trkpt><trkpt lat="44.615364258593964" lon="9.981204906441544"><ele>227.5</ele><time>2026-03-25T08:01:56Z</time></trkpt><trkpt lat="44.615471903594674" lon="9.981291987980883"><ele>229.0</ele><time>2026-03-25T08:01:57Z</time></trkpt><trkpt lat="44.61556394168751" lon="9.9813687822952"><ele>230.5</ele><time>2026-03-25T08:01:58Z</time></trkpt><trkpt lat="44.61566872438776" lon="9.981459957193467"><ele>232.0</ele><time>2026-03-25T08:01:59Z</time></trkpt><trkpt lat="44.61580273580931" lon="9.981565779675298"><ele>230.33333333333331</ele><time>2026-03-25T08:02:00Z</time></trkpt><trkpt lat="44.615957376720296" lon="9.98169508159514"><ele>228.66666666666669</ele><time>2026-03-25T08:02:01Z</time></trkpt><trkpt lat="44.616093568080956" lon="9.981807186634565"><ele>227.0</ele><time>2026-03-25T08:02:02Z</time></trkpt><trkpt lat="44.616232431673055" lon="9.981936639879407"><ele>235.33333333333334</ele><time>2026-03-25T08:02:03Z</time></trkpt><trkpt lat="44.61637163280025" lon="9.982075211742409"><ele>243.66666666666669</ele><time>2026-03-25T08:02:04Z</time></trkpt><trkpt lat="44.61650293104777" lon="9.982210312303508"><ele>252.0</ele><time>2026-03-25T08:02:05Z</time></trkpt><trkpt lat="44.616640654253395" lon="9.982351411411807"><ele>252.0</ele><time>2026-03-25T08:02:06Z</time></trkpt><trkpt lat="44.616775756714425" lon="9.98248904872469"><ele>252.0</ele><time>2026-03-25T08:02:07Z</time></trkpt><trkpt lat="44.61690864449133" lon="9.9826341835383"><ele>252.0</ele><time>2026-03-25T08:02:08Z</time></trkpt><trkpt lat="44.61705395223266" lon="9.982790113243553"><ele>270.6666666666667</ele><time>2026-03-25T08:02:09.075Z</time></trkpt><trkpt lat="44.61718862629092" lon="9.98293426651428"><ele>289.33333333333337</ele><time>2026-03-25T08:02:10.057Z</time></trkpt><trkpt lat="44.61730525187422" lon="9.983077156314849"><ele>308.0</ele><time>2026-03-25T08:02:11.056Z</time></trkpt><trkpt lat="44.645355779407105" lon="10.045947612441125"><ele>247.0</ele><time>2026-03-25T08:05:00.999Z</time></trkpt><trkpt lat="44.64570130625143" lon="10.046128513689688"><ele>186.0</ele><time>2026-03-25T08:05:01.999Z</time></trkpt><trkpt lat="44.646044990277915" lon="10.04628409329292"><ele>184.5</ele><time>2026-03-25T08:05:02.999Z</time></trkpt><trkpt lat="44.646380638220585" lon="10.04641396519837"><ele>183.0</ele><time>2026-03-25T08:05:03.999Z</time></trkpt><trkpt lat="44.64669320528634" lon="10.046542330442856"><ele>183.5</ele><time>2026-03-25T08:05:04.999Z</time></trkpt><trkpt lat="44.64702349142818" lon="10.046635879058341"><ele>184.0</ele><time>2026-03-25T08:05:05.999Z</time></trkpt><trkpt lat="44.64735512609801" lon="10.046745441830073"><ele>184.0</ele><time>2026-03-25T08:05:07Z</time></trkpt><trkpt lat="44.647686241156435" lon="10.046825350585635"><ele>184.0</ele><time>2026-03-25T08:05:08Z</time></trkpt><trkpt lat="44.648023460780976" lon="10.046923155359833"><ele>182.0</ele><time>2026-03-25T08:05:09Z</time></trkpt><trkpt lat="44.64836441321925" lon="10.04702985322252"><ele>180.0</ele><time>2026-03-25T08:05:10Z</time></trkpt><trkpt lat="44.64869015219458" lon="10.047137287302125"><ele>180.0</ele><time>2026-03-25T08:05:11Z</time></trkpt><trkpt lat="44.64898107040995" lon="10.047228820584118"><ele>180.0</ele><time>2026-03-25T08:05:12Z</time></trkpt><trkpt lat="44.64929082053455" lon="10.04736941999769"><ele>183.0</ele><time>2026-03-25T08:05:13Z</time></trkpt><trkpt lat="44.64983002178435" lon="10.04760778300659"><ele>183.0</ele><time>2026-03-25T08:05:14Z</time></trkpt><trkpt lat="44.65013908433646" lon="10.047816752890059"><ele>183.0</ele><time>2026-03-25T08:05:15Z</time></trkpt><trkpt lat="44.650430072321775" lon="10.048018369871697"><ele>183.5</ele><time>2026-03-25T08:05:16Z</time></trkpt><trkpt lat="44.65076535430798" lon="10.04823669606649"><ele>184.0</ele><time>2026-03-25T08:05:17Z</time></trkpt><trkpt lat="44.65107814314968" lon="10.048475671890698"><ele>182.0</ele><time>2026-03-25T08:05:18Z</time></trkpt><trkpt lat="44.65139361217411" lon="10.048725870548312"><ele>180.0</ele><time>2026-03-25T08:05:19Z</time></trkpt><trkpt lat="44.65170948063812" lon="10.048985407080991"><ele>181.5</ele><time>2026-03-25T08:05:20Z</time></trkpt><trkpt lat="44.65201383466959" lon="10.04925042261852"><ele>183.0</ele><time>2026-03-25T08:05:21Z</time></trkpt><trkpt lat="44.652326144111356" lon="10.049496705025334"><ele>183.0</ele><time>2026-03-25T08:05:22Z</time></trkpt><trkpt lat="44.65264681454187" lon="10.049760466998578"><ele>183.0</ele><time>2026-03-25T08:05:23Z</time></trkpt><trkpt lat="44.652961258677834" lon="10.050012111169055"><ele>182.5</ele><time>2026-03-25T08:05:24Z</time></trkpt><trkpt lat="44.65327248567858" lon="10.050260840906935"><ele>182.0</ele><time>2026-03-25T08:05:25Z</time></trkpt><trkpt lat="44.653573954152264" lon="10.050540061937761"><ele>180.0</ele><time>2026-03-25T08:05:26Z</time></trkpt><trkpt lat="44.653847853437" lon="10.050804184352824"><ele>178.0</ele><time>2026-03-25T08:05:27Z</time></trkpt><trkpt lat="44.65419180790757" lon="10.051145776831268"><ele>176.0</ele><time>2026-03-25T08:05:28Z</time></trkpt><trkpt lat="44.654454936695835" lon="10.051475138328748"><ele>174.0</ele><time>2026-03-25T08:05:29Z</time></trkpt><trkpt lat="44.654707196634725" lon="10.051827760747035"><ele>173.5</ele><time>2026-03-25T08:05:30Z</time></trkpt><trkpt lat="44.654953179948656" lon="10.05219719183047"><ele>173.0</ele><time>2026-03-25T08:05:31Z</time></trkpt><trkpt lat="44.655192167284746" lon="10.052577960767563"><ele>171.5</ele><time>2026-03-25T08:05:32Z</time></trkpt><trkpt lat="44.65543362479831" lon="10.052993459398596"><ele>170.0</ele><time>2026-03-25T08:05:33Z</time></trkpt><trkpt lat="44.655672478726764" lon="10.053371424036532"><ele>170.0</ele><time>2026-03-25T08:05:34Z</time></trkpt><trkpt lat="44.65594467986891" lon="10.05376501921338"><ele>170.0</ele><time>2026-03-25T08:05:35Z</time></trkpt><trkpt lat="44.6562183602598" lon="10.054171291545911"><ele>169.5</ele><time>2026-03-25T08:05:36Z</time></trkpt><trkpt lat="44.656466420846286" lon="10.054582255948798"><ele>169.0</ele><time>2026-03-25T08:05:37Z</time></trkpt><trkpt lat="44.656736101885436" lon="10.054984982415533"><ele>168.5</ele><time>2026-03-25T08:05:38Z</time></trkpt><trkpt lat="44.65698607153671" lon="10.055393074854846"><ele>168.0</ele><time>2026-03-25T08:05:39Z</time></trkpt><trkpt lat="44.65726734828978" lon="10.05581487580968"><ele>167.5</ele><time>2026-03-25T08:05:40Z</time></trkpt><trkpt lat="44.65752918114461" lon="10.056287204110914"><ele>167.0</ele><time>2026-03-25T08:05:41Z</time></trkpt><trkpt lat="44.657771815627264" lon="10.056677943705616"><ele>167.0</ele><time>2026-03-25T08:05:42Z</time></trkpt><trkpt lat="44.65797645846514" lon="10.05715288496167"><ele>167.0</ele><time>2026-03-25T08:05:43Z</time></trkpt><trkpt lat="44.65820960933115" lon="10.057608084755943"><ele>167.0</ele><time>2026-03-25T08:05:44Z</time></trkpt><trkpt lat="44.658453702380605" lon="10.05796527675354"><ele>167.0</ele><time>2026-03-25T08:05:45Z</time></trkpt><trkpt lat="44.65870475951229" lon="10.05835029626674"><ele>166.5</ele><time>2026-03-25T08:05:46Z</time></trkpt><trkpt lat="44.658932729540275" lon="10.058733546396583"><ele>166.0</ele><time>2026-03-25T08:05:47Z</time></trkpt><trkpt lat="44.65913932953509" lon="10.059081854910186"><ele>166.5</ele><time>2026-03-25T08:05:48Z</time></trkpt><trkpt lat="44.65931645899272" lon="10.059416777785454"><ele>167.0</ele><time>2026-03-25T08:05:49Z</time></trkpt><trkpt lat="44.659525145244984" lon="10.059804237675957"><ele>166.0</ele><time>2026-03-25T08:05:50Z</time></trkpt><trkpt lat="44.65966139655859" lon="10.060200689327596"><ele>165.0</ele><time>2026-03-25T08:05:51Z</time></trkpt><trkpt lat="44.65979911926022" lon="10.06059372001266"><ele>165.0</ele><time>2026-03-25T08:05:52Z</time></trkpt><trkpt lat="44.66001218629693" lon="10.06095792290213"><ele>165.0</ele><time>2026-03-25T08:05:53Z</time></trkpt><trkpt lat="44.660186837562804" lon="10.061310848674319"><ele>165.0</ele><time>2026-03-25T08:05:54Z</time></trkpt><trkpt lat="44.66040108183434" lon="10.06165217123541"><ele>165.0</ele><time>2026-03-25T08:05:55Z</time></trkpt><trkpt lat="44.66060972789115" lon="10.062031027045865"><ele>165.0</ele><time>2026-03-25T08:05:56Z</time></trkpt><trkpt lat="44.66074684441664" lon="10.062330008429448"><ele>165.0</ele><time>2026-03-25T08:05:57Z</time></trkpt><trkpt lat="44.660939973871926" lon="10.062693544079027"><ele>165.5</ele><time>2026-03-25T08:05:58Z</time></trkpt><trkpt lat="44.66110219908271" lon="10.063056673723231"><ele>166.0</ele><time>2026-03-25T08:05:59Z</time></trkpt><trkpt lat="44.66121854420616" lon="10.063393957667579"><ele>164.0</ele><time>2026-03-25T08:06:00Z</time></trkpt><trkpt lat="44.66136981841987" lon="10.063732305268195"><ele>162.0</ele><time>2026-03-25T08:06:01Z</time></trkpt><trkpt lat="44.66150878751999" lon="10.064020736161018"><ele>162.5</ele><time>2026-03-25T08:06:02Z</time></trkpt><trkpt lat="44.66166299287747" lon="10.064359505814554"><ele>163.0</ele><time>2026-03-25T08:06:03Z</time></trkpt><trkpt lat="44.66182614412962" lon="10.064669443139362"><ele>162.5</ele><time>2026-03-25T08:06:04Z</time></trkpt><trkpt lat="44.66199360578027" lon="10.064983410060098"><ele>162.0</ele><time>2026-03-25T08:06:05Z</time></trkpt><trkpt lat="44.662175528065795" lon="10.06531851295203"><ele>162.0</ele><time>2026-03-25T08:06:06Z</time></trkpt><trkpt lat="44.662353104937125" lon="10.065638520322864"><ele>162.0</ele><time>2026-03-25T08:06:07Z</time></trkpt><trkpt lat="44.66251454640717" lon="10.06595293805314"><ele>163.0</ele><time>2026-03-25T08:06:08Z</time></trkpt><trkpt lat="44.66270203568534" lon="10.066294611329837"><ele>164.0</ele><time>2026-03-25T08:06:09Z</time></trkpt><trkpt lat="44.66286626411269" lon="10.066612568984668"><ele>164.5</ele><time>2026-03-25T08:06:10Z</time></trkpt><trkpt lat="44.66302779509178" lon="10.066908830495034"><ele>165.0</ele><time>2026-03-25T08:06:11Z</time></trkpt><trkpt lat="44.663203023433745" lon="10.067219169235093"><ele>166.0</ele><time>2026-03-25T08:06:12Z</time></trkpt><trkpt lat="44.66336138040579" lon="10.067503279767179"><ele>167.0</ele><time>2026-03-25T08:06:13Z</time></trkpt><trkpt lat="44.6635462479867" lon="10.067806075308566"><ele>166.5</ele><time>2026-03-25T08:06:14Z</time></trkpt><trkpt lat="44.66373338810654" lon="10.06808691901753"><ele>166.0</ele><time>2026-03-25T08:06:15Z</time></trkpt><trkpt lat="44.66390169755166" lon="10.068361451312292"><ele>166.0</ele><time>2026-03-25T08:06:16Z</time></trkpt><trkpt lat="44.66408563830439" lon="10.068631799835808"><ele>166.0</ele><time>2026-03-25T08:06:17Z</time></trkpt><trkpt lat="44.66425584357219" lon="10.068888456913317"><ele>166.5</ele><time>2026-03-25T08:06:18Z</time></trkpt><trkpt lat="44.66443291714973" lon="10.069135511049298"><ele>167.0</ele><time>2026-03-25T08:06:19Z</time></trkpt><trkpt lat="44.66461127531929" lon="10.069397898241332"><ele>164.5</ele><time>2026-03-25T08:06:20Z</time></trkpt><trkpt lat="44.66480373820866" lon="10.069621564651724"><ele>162.0</ele><time>2026-03-25T08:06:21Z</time></trkpt><trkpt lat="44.66500317544914" lon="10.069832218030891"><ele>161.5</ele><time>2026-03-25T08:06:22Z</time></trkpt><trkpt lat="44.6651914662852" lon="10.070061460494184"><ele>161.0</ele><time>2026-03-25T08:06:23Z</time></trkpt><trkpt lat="44.66538210175809" lon="10.07028345031215"><ele>161.0</ele><time>2026-03-25T08:06:24Z</time></trkpt><trkpt lat="44.66558146987766" lon="10.070514388429523"><ele>161.0</ele><time>2026-03-25T08:06:25Z</time></trkpt><trkpt lat="44.66576447143369" lon="10.07076925537806"><ele>161.0</ele><time>2026-03-25T08:06:26Z</time></trkpt><trkpt lat="44.66595933927619" lon="10.071011824042303"><ele>161.0</ele><time>2026-03-25T08:06:27Z</time></trkpt><trkpt lat="44.66613287547128" lon="10.071220545851475"><ele>161.0</ele><time>2026-03-25T08:06:28Z</time></trkpt><trkpt lat="44.66632676027084" lon="10.071449674975941"><ele>161.0</ele><time>2026-03-25T08:06:29Z</time></trkpt><trkpt lat="44.66652591263437" lon="10.071658512538141"><ele>162.5</ele><time>2026-03-25T08:06:30Z</time></trkpt><trkpt lat="44.666727116980674" lon="10.07188770630272"><ele>164.0</ele><time>2026-03-25T08:06:31Z</time></trkpt><trkpt lat="44.6669254625619" lon="10.072099457695371"><ele>164.0</ele><time>2026-03-25T08:06:32Z</time></trkpt><trkpt lat="44.66711936740078" lon="10.072316867900257"><ele>164.0</ele><time>2026-03-25T08:06:33Z</time></trkpt><trkpt lat="44.66729653124124" lon="10.072491921053766"><ele>164.0</ele><time>2026-03-25T08:06:34Z</time></trkpt><trkpt lat="44.66748107222953" lon="10.072690548078272"><ele>164.0</ele><time>2026-03-25T08:06:35Z</time></trkpt><trkpt lat="44.66767281393508" lon="10.072892073559284"><ele>162.5</ele><time>2026-03-25T08:06:36Z</time></trkpt><trkpt lat="44.667859412125544" lon="10.073096778047749"><ele>161.0</ele><time>2026-03-25T08:06:37Z</time></trkpt><trkpt lat="44.66804809538239" lon="10.073289728014625"><ele>161.0</ele><time>2026-03-25T08:06:38Z</time></trkpt><trkpt lat="44.668234148733" lon="10.073464094770724"><ele>161.0</ele><time>2026-03-25T08:06:39Z</time></trkpt><trkpt lat="44.668423748926145" lon="10.07366312118998"><ele>159.5</ele><time>2026-03-25T08:06:40Z</time></trkpt><trkpt lat="44.668618082391035" lon="10.073857971375073"><ele>158.0</ele><time>2026-03-25T08:06:41Z</time></trkpt><trkpt lat="44.66880891612005" lon="10.074061706815307"><ele>159.0</ele><time>2026-03-25T08:06:42Z</time></trkpt><trkpt lat="44.66900028163618" lon="10.07426782537815"><ele>160.0</ele><time>2026-03-25T08:06:43Z</time></trkpt><trkpt lat="44.66919363428706" lon="10.074475876609714"><ele>160.0</ele><time>2026-03-25T08:06:44Z</time></trkpt><trkpt lat="44.66938312688849" lon="10.074689627690466"><ele>160.0</ele><time>2026-03-25T08:06:45Z</time></trkpt><trkpt lat="44.66957583031085" lon="10.07490234872037"><ele>159.0</ele><time>2026-03-25T08:06:46Z</time></trkpt><trkpt lat="44.66976884808333" lon="10.075115609868948"><ele>158.0</ele><time>2026-03-25T08:06:47Z</time></trkpt><trkpt lat="44.6699610062385" lon="10.075327935776562"><ele>158.0</ele><time>2026-03-25T08:06:48Z</time></trkpt><trkpt lat="44.67015649537623" lon="10.075541313292902"><ele>158.0</ele><time>2026-03-25T08:06:49Z</time></trkpt><trkpt lat="44.67034848283435" lon="10.075754977926087"><ele>157.0</ele><time>2026-03-25T08:06:50Z</time></trkpt><trkpt lat="44.67054453671668" lon="10.075967934693782"><ele>156.0</ele><time>2026-03-25T08:06:51Z</time></trkpt><trkpt lat="44.67073769578734" lon="10.076184489524666"><ele>156.0</ele><time>2026-03-25T08:06:52Z</time></trkpt><trkpt lat="44.670931978881534" lon="10.076398126449329"><ele>156.0</ele><time>2026-03-25T08:06:53Z</time></trkpt><trkpt lat="44.67112571589927" lon="10.076613930433899"><ele>156.0</ele><time>2026-03-25T08:06:54Z</time></trkpt><trkpt lat="44.671318637747305" lon="10.0768287057513"><ele>156.0</ele><time>2026-03-25T08:06:55Z</time></trkpt><trkpt lat="44.67151268058121" lon="10.07704293772546"><ele>156.0</ele><time>2026-03-25T08:06:56Z</time></trkpt><trkpt lat="44.67170643670615" lon="10.07725942788306"><ele>156.0</ele><time>2026-03-25T08:06:57Z</time></trkpt><trkpt lat="44.671898550852546" lon="10.077474879222846"><ele>156.0</ele><time>2026-03-25T08:06:58Z</time></trkpt><trkpt lat="44.67209359810033" lon="10.0776928624778"><ele>156.0</ele><time>2026-03-25T08:06:59Z</time></trkpt><trkpt lat="44.67228229293555" lon="10.077916462907003"><ele>156.0</ele><time>2026-03-25T08:07:00Z</time></trkpt><trkpt lat="44.67247061781041" lon="10.078140239805974"><ele>156.0</ele><time>2026-03-25T08:07:01Z</time></trkpt><trkpt lat="44.67265782766871" lon="10.078365743733992"><ele>155.5</ele><time>2026-03-25T08:07:02Z</time></trkpt><trkpt lat="44.67284649952015" lon="10.078601191620184"><ele>155.0</ele><time>2026-03-25T08:07:03Z</time></trkpt><trkpt lat="44.67302952248895" lon="10.078835604421835"><ele>155.0</ele><time>2026-03-25T08:07:04Z</time></trkpt><trkpt lat="44.67320699122864" lon="10.079074490450001"><ele>155.0</ele><time>2026-03-25T08:07:05Z</time></trkpt><trkpt lat="44.673381372928915" lon="10.079320080552698"><ele>156.5</ele><time>2026-03-25T08:07:06Z</time></trkpt><trkpt lat="44.67355463039855" lon="10.079571179561738"><ele>158.0</ele><time>2026-03-25T08:07:07Z</time></trkpt><trkpt lat="44.67371970432134" lon="10.079823154118724"><ele>156.0</ele><time>2026-03-25T08:07:08Z</time></trkpt><trkpt lat="44.67388845116871" lon="10.08007373584723"><ele>154.0</ele><time>2026-03-25T08:07:09Z</time></trkpt><trkpt lat="44.67404544881522" lon="10.080319914191412"><ele>154.0</ele><time>2026-03-25T08:07:10Z</time></trkpt><trkpt lat="44.674204360148686" lon="10.080588674572587"><ele>154.0</ele><time>2026-03-25T08:07:11Z</time></trkpt><trkpt lat="44.674377255094306" lon="10.080857346001874"><ele>153.0</ele><time>2026-03-25T08:07:12Z</time></trkpt><trkpt lat="44.67451273893437" lon="10.081133285129011"><ele>152.0</ele><time>2026-03-25T08:07:13Z</time></trkpt><trkpt lat="44.67466452736691" lon="10.081404612276685"><ele>154.0</ele><time>2026-03-25T08:07:14Z</time></trkpt><trkpt lat="44.674805745716256" lon="10.081677583111432"><ele>156.0</ele><time>2026-03-25T08:07:15Z</time></trkpt><trkpt lat="44.67494843851999" lon="10.081975703381167"><ele>156.0</ele><time>2026-03-25T08:07:16Z</time></trkpt><trkpt lat="44.675093299573305" lon="10.0822712954298"><ele>156.0</ele><time>2026-03-25T08:07:17Z</time></trkpt><trkpt lat="44.675231893080564" lon="10.082564280780824"><ele>153.0</ele><time>2026-03-25T08:07:18Z</time></trkpt><trkpt lat="44.67536670173713" lon="10.082863342077827"><ele>150.0</ele><time>2026-03-25T08:07:19Z</time></trkpt><trkpt lat="44.67549988441424" lon="10.083166838611241"><ele>150.0</ele><time>2026-03-25T08:07:20Z</time></trkpt><trkpt lat="44.675635971766845" lon="10.08348757572735"><ele>150.0</ele><time>2026-03-25T08:07:21Z</time></trkpt><trkpt lat="44.67575222674791" lon="10.083782854196185"><ele>150.0</ele><time>2026-03-25T08:07:22Z</time></trkpt><trkpt lat="44.67586649112253" lon="10.084078410185677"><ele>150.0</ele><time>2026-03-25T08:07:23Z</time></trkpt><trkpt lat="44.67597731492222" lon="10.084373994253342"><ele>148.5</ele><time>2026-03-25T08:07:24Z</time></trkpt><trkpt lat="44.676088544492885" lon="10.084681298787887"><ele>147.0</ele><time>2026-03-25T08:07:25Z</time></trkpt><trkpt lat="44.67621212268393" lon="10.085001190477834"><ele>147.0</ele><time>2026-03-25T08:07:26Z</time></trkpt><trkpt lat="44.67632792877039" lon="10.085310588817833"><ele>147.0</ele><time>2026-03-25T08:07:27Z</time></trkpt><trkpt lat="44.67644480551357" lon="10.085632647868461"><ele>147.0</ele><time>2026-03-25T08:07:28Z</time></trkpt><trkpt lat="44.67656299178703" lon="10.085952669647083"><ele>147.0</ele><time>2026-03-25T08:07:29Z</time></trkpt><trkpt lat="44.67668192534599" lon="10.086272312095396"><ele>147.0</ele><time>2026-03-25T08:07:30Z</time></trkpt><trkpt lat="44.67677748613685" lon="10.086590758691045"><ele>147.0</ele><time>2026-03-25T08:07:31Z</time></trkpt><trkpt lat="44.67688154790199" lon="10.086905268660802"><ele>147.0</ele><time>2026-03-25T08:07:32Z</time></trkpt><trkpt lat="44.6769863330652" lon="10.087222339152722"><ele>147.0</ele><time>2026-03-25T08:07:33Z</time></trkpt><trkpt lat="44.67709428465489" lon="10.087548189711136"><ele>147.0</ele><time>2026-03-25T08:07:34Z</time></trkpt><trkpt lat="44.677200214324415" lon="10.087871464747504"><ele>147.0</ele><time>2026-03-25T08:07:35Z</time></trkpt><trkpt lat="44.67731771232444" lon="10.088198553709102"><ele>148.5</ele><time>2026-03-25T08:07:36Z</time></trkpt><trkpt lat="44.67743176891847" lon="10.088523204969169"><ele>150.0</ele><time>2026-03-25T08:07:37Z</time></trkpt><trkpt lat="44.677545222810025" lon="10.088834882642045"><ele>151.5</ele><time>2026-03-25T08:07:38Z</time></trkpt><trkpt lat="44.67766145624557" lon="10.089146578031647"><ele>153.0</ele><time>2026-03-25T08:07:39Z</time></trkpt><trkpt lat="44.6777783567053" lon="10.089464252844804"><ele>150.0</ele><time>2026-03-25T08:07:40Z</time></trkpt><trkpt lat="44.67789400057214" lon="10.089785367428373"><ele>147.0</ele><time>2026-03-25T08:07:41Z</time></trkpt><trkpt lat="44.67801089317629" lon="10.090109310316857"><ele>146.5</ele><time>2026-03-25T08:07:42Z</time></trkpt><trkpt lat="44.67812634611527" lon="10.090419747382967"><ele>146.0</ele><time>2026-03-25T08:07:43Z</time></trkpt><trkpt lat="44.6782444317002" lon="10.090738181545007"><ele>147.5</ele><time>2026-03-25T08:07:44Z</time></trkpt><trkpt lat="44.67836123889706" lon="10.091047887704377"><ele>149.0</ele><time>2026-03-25T08:07:45Z</time></trkpt><trkpt lat="44.67847996387221" lon="10.091368868570386"><ele>149.0</ele><time>2026-03-25T08:07:46Z</time></trkpt><trkpt lat="44.67860014951624" lon="10.09168198146607"><ele>149.0</ele><time>2026-03-25T08:07:47Z</time></trkpt><trkpt lat="44.67871984845344" lon="10.092003750994225"><ele>148.0</ele><time>2026-03-25T08:07:48Z</time></trkpt><trkpt lat="44.67883711165567" lon="10.092311399478474"><ele>147.0</ele><time>2026-03-25T08:07:49Z</time></trkpt><trkpt lat="44.67896058131819" lon="10.092618920385199"><ele>147.0</ele><time>2026-03-25T08:07:50Z</time></trkpt><trkpt lat="44.67909219626898" lon="10.092926092124081"><ele>147.0</ele><time>2026-03-25T08:07:51Z</time></trkpt><trkpt lat="44.67921629909661" lon="10.093216170375147"><ele>147.5</ele><time>2026-03-25T08:07:52Z</time></trkpt><trkpt lat="44.679348586366835" lon="10.093522625777682"><ele>148.0</ele><time>2026-03-25T08:07:53Z</time></trkpt><trkpt lat="44.679468134476004" lon="10.093818195213164"><ele>148.0</ele><time>2026-03-25T08:07:54Z</time></trkpt><trkpt lat="44.67960675751957" lon="10.094083000426076"><ele>148.0</ele><time>2026-03-25T08:07:55Z</time></trkpt><trkpt lat="44.67977578645786" lon="10.094341067003121"><ele>148.0</ele><time>2026-03-25T08:07:56Z</time></trkpt><trkpt lat="44.67992346885136" lon="10.094572318620342"><ele>148.0</ele><time>2026-03-25T08:07:57Z</time></trkpt><trkpt lat="44.68008946956092" lon="10.094785343187072"><ele>148.0</ele><time>2026-03-25T08:07:58Z</time></trkpt><trkpt lat="44.68027524296315" lon="10.094988631449931"><ele>146.5</ele><time>2026-03-25T08:07:59Z</time></trkpt><trkpt lat="44.68048869006303" lon="10.095190287302747"><ele>145.0</ele><time>2026-03-25T08:08:00Z</time></trkpt><trkpt lat="44.680712306372335" lon="10.095378499067017"><ele>145.0</ele><time>2026-03-25T08:08:01Z</time></trkpt><trkpt lat="44.680925317939135" lon="10.095514620189588"><ele>145.0</ele><time>2026-03-25T08:08:02Z</time></trkpt><trkpt lat="44.681177860414735" lon="10.095634967311556"><ele>145.5</ele><time>2026-03-25T08:08:03Z</time></trkpt><trkpt lat="44.68143324980329" lon="10.095736951651583"><ele>146.0</ele><time>2026-03-25T08:08:04Z</time></trkpt><trkpt lat="44.68168316158154" lon="10.095824623139395"><ele>147.5</ele><time>2026-03-25T08:08:05Z</time></trkpt><trkpt lat="44.681924789105295" lon="10.095905086733291"><ele>149.0</ele><time>2026-03-25T08:08:06Z</time></trkpt><trkpt lat="44.68216944722957" lon="10.09596751212843"><ele>149.0</ele><time>2026-03-25T08:08:07Z</time></trkpt><trkpt lat="44.682418945449335" lon="10.096017608904026"><ele>149.0</ele><time>2026-03-25T08:08:08Z</time></trkpt><trkpt lat="44.68266265234485" lon="10.096082239604502"><ele>147.5</ele><time>2026-03-25T08:08:09Z</time></trkpt><trkpt lat="44.682887735498014" lon="10.096148644456598"><ele>146.0</ele><time>2026-03-25T08:08:10Z</time></trkpt><trkpt lat="44.68313304806128" lon="10.096192198906857"><ele>146.0</ele><time>2026-03-25T08:08:11Z</time></trkpt><trkpt lat="44.68337272149425" lon="10.096229371299952"><ele>146.0</ele><time>2026-03-25T08:08:12Z</time></trkpt><trkpt lat="44.68361523664238" lon="10.096277345272709"><ele>146.0</ele><time>2026-03-25T08:08:13Z</time></trkpt><trkpt lat="44.68385468486203" lon="10.096323282098753"><ele>146.0</ele><time>2026-03-25T08:08:14Z</time></trkpt><trkpt lat="44.68409287322728" lon="10.096369765875227"><ele>146.0</ele><time>2026-03-25T08:08:15Z</time></trkpt><trkpt lat="44.684325901845625" lon="10.096419385175444"><ele>146.0</ele><time>2026-03-25T08:08:16Z</time></trkpt><trkpt lat="44.68456096043166" lon="10.096467108884363"><ele>145.5</ele><time>2026-03-25T08:08:17Z</time></trkpt><trkpt lat="44.68479290469398" lon="10.096512467731156"><ele>145.0</ele><time>2026-03-25T08:08:18Z</time></trkpt><trkpt lat="44.68502780053684" lon="10.096554111448572"><ele>146.5</ele><time>2026-03-25T08:08:19Z</time></trkpt><trkpt lat="44.68526313606425" lon="10.096596880011697"><ele>148.0</ele><time>2026-03-25T08:08:20Z</time></trkpt><trkpt lat="44.685488621139" lon="10.096640816282402"><ele>148.0</ele><time>2026-03-25T08:08:21Z</time></trkpt><trkpt lat="44.68571294691468" lon="10.09668474408146"><ele>148.0</ele><time>2026-03-25T08:08:22Z</time></trkpt><trkpt lat="44.685932576250636" lon="10.096726634503586"><ele>148.0</ele><time>2026-03-25T08:08:23Z</time></trkpt><trkpt lat="44.68615444037154" lon="10.096768249047138"><ele>147.0</ele><time>2026-03-25T08:08:24Z</time></trkpt><trkpt lat="44.68636234956653" lon="10.096807662477769"><ele>146.0</ele><time>2026-03-25T08:08:25Z</time></trkpt><trkpt lat="44.686564759478976" lon="10.096847611272986"><ele>145.0</ele><time>2026-03-25T08:08:26Z</time></trkpt><trkpt lat="44.68677175826357" lon="10.096883259089351"><ele>144.0</ele><time>2026-03-25T08:08:27Z</time></trkpt><trkpt lat="44.68697067721413" lon="10.096921483186446"><ele>143.0</ele><time>2026-03-25T08:08:28Z</time></trkpt><trkpt lat="44.68716200494697" lon="10.096959888570007"><ele>142.0</ele><time>2026-03-25T08:08:29Z</time></trkpt><trkpt lat="44.68735221553693" lon="10.096991359049131"><ele>142.0</ele><time>2026-03-25T08:08:30Z</time></trkpt><trkpt lat="44.687548518794344" lon="10.097019256869046"><ele>142.0</ele><time>2026-03-25T08:08:31Z</time></trkpt><trkpt lat="44.68774181752841" lon="10.09704684080409"><ele>142.0</ele><time>2026-03-25T08:08:32Z</time></trkpt><trkpt lat="44.687931453548586" lon="10.09707054039138"><ele>141.66666666666669</ele><time>2026-03-25T08:08:33Z</time></trkpt><trkpt lat="44.688120342758694" lon="10.09707997854325"><ele>141.33333333333334</ele><time>2026-03-25T08:08:34Z</time></trkpt><trkpt lat="44.68830823940333" lon="10.097097202365726"><ele>141.0</ele><time>2026-03-25T08:08:35Z</time></trkpt><trkpt lat="44.688484639989134" lon="10.097120213217343"><ele>141.0</ele><time>2026-03-25T08:08:36Z</time></trkpt><trkpt lat="44.68865685408537" lon="10.097138340344243"><ele>141.0</ele><time>2026-03-25T08:08:37Z</time></trkpt><trkpt lat="44.68882110688985" lon="10.097162353396005"><ele>141.0</ele><time>2026-03-25T08:08:38Z</time></trkpt><trkpt lat="44.688991440729474" lon="10.097202386725952"><ele>141.0</ele><time>2026-03-25T08:08:39Z</time></trkpt><trkpt lat="44.68915146033334" lon="10.097251058509265"><ele>141.0</ele><time>2026-03-25T08:08:40Z</time></trkpt><trkpt lat="44.689313468662164" lon="10.09731008513245"><ele>141.0</ele><time>2026-03-25T08:08:41Z</time></trkpt><trkpt lat="44.68949005319368" lon="10.09736775991793"><ele>145.66666666666666</ele><time>2026-03-25T08:08:42Z</time></trkpt><trkpt lat="44.68964139367808" lon="10.097444324006872"><ele>150.33333333333331</ele><time>2026-03-25T08:08:43Z</time></trkpt><trkpt lat="44.68978787523926" lon="10.097527594449545"><ele>155.0</ele><time>2026-03-25T08:08:44Z</time></trkpt><trkpt lat="44.68992635100646" lon="10.097616910826439"><ele>155.0</ele><time>2026-03-25T08:08:45Z</time></trkpt><trkpt lat="44.69005843755882" lon="10.097710614764958"><ele>155.0</ele><time>2026-03-25T08:08:46Z</time></trkpt><trkpt lat="44.69019914182945" lon="10.097814768755308"><ele>155.0</ele><time>2026-03-25T08:08:47.079Z</time></trkpt><trkpt lat="44.69031934954549" lon="10.097907855320035"><ele>155.0</ele><time>2026-03-25T08:08:48.073Z</time></trkpt><trkpt lat="44.69043929578773" lon="10.098000190092144"><ele>137.0</ele><time>2026-03-25T08:08:49.06Z</time></trkpt><trkpt lat="44.69377752173271" lon="10.101622291700377"><ele>137.0</ele><time>2026-03-25T08:09:26Z</time></trkpt><trkpt lat="44.69378494702748" lon="10.101378080524837"><ele>137.0</ele><time>2026-03-25T08:09:27Z</time></trkpt><trkpt lat="44.69382160131764" lon="10.10148337097088"><ele>137.0</ele><time>2026-03-25T08:09:28Z</time></trkpt><trkpt lat="44.69382525039316" lon="10.101675893333473"><ele>137.0</ele><time>2026-03-25T08:09:30Z</time></trkpt><trkpt lat="44.69385322536256" lon="10.101784549363677"><ele>137.0</ele><time>2026-03-25T08:09:31Z</time></trkpt><trkpt lat="44.69390059276082" lon="10.101882648002773"><ele>137.0</ele><time>2026-03-25T08:09:32Z</time></trkpt><trkpt lat="44.69396487294506" lon="10.102006917795364"><ele>137.0</ele><time>2026-03-25T08:09:34Z</time></trkpt><trkpt lat="44.6939948311242" lon="10.102115431588414"><ele>137.0</ele><time>2026-03-25T08:09:37Z</time></trkpt><trkpt lat="44.69405333092845" lon="10.102190844691304"><ele>137.0</ele><time>2026-03-25T08:09:41Z</time></trkpt><trkpt lat="44.69398924969463" lon="10.102150405834866"><ele>137.0</ele><time>2026-03-25T08:09:51Z</time></trkpt><trkpt lat="44.69394502116728" lon="10.102077257264687"><ele>137.0</ele><time>2026-03-25T08:10:15Z</time></trkpt><trkpt lat="44.693905564908924" lon="10.101978938010902"><ele>137.0</ele><time>2026-03-25T08:10:58Z</time></trkpt><trkpt lat="44.694453198892845" lon="10.103266332944097"><ele>137.0</ele><time>2026-03-25T08:13:54Z</time></trkpt><trkpt lat="44.69449253300277" lon="10.10335868466736"><ele>137.0</ele><time>2026-03-25T08:13:56Z</time></trkpt><trkpt lat="44.69454459620115" lon="10.103508497529768"><ele>137.0</ele><time>2026-03-25T08:13:58Z</time></trkpt><trkpt lat="44.694600588284075" lon="10.10365538096341"><ele>137.0</ele><time>2026-03-25T08:14:00Z</time></trkpt><trkpt lat="44.69464624501039" lon="10.10374191999763"><ele>137.0</ele><time>2026-03-25T08:14:01Z</time></trkpt><trkpt lat="44.69468085569875" lon="10.103828198399153"><ele>137.00000000000003</ele><time>2026-03-25T08:14:02Z</time></trkpt><trkpt lat="44.69471226167688" lon="10.103917799974129"><ele>137.0</ele><time>2026-03-25T08:14:03Z</time></trkpt><trkpt lat="44.694748675404256" lon="10.104005926138544"><ele>137.0</ele><time>2026-03-25T08:14:04Z</time></trkpt><trkpt lat="44.69478489571195" lon="10.104094378763822"><ele>137.0</ele><time>2026-03-25T08:14:05Z</time></trkpt><trkpt lat="44.69481805305537" lon="10.104178898211636"><ele>137.0</ele><time>2026-03-25T08:14:06Z</time></trkpt><trkpt lat="44.69485277375118" lon="10.104264060183443"><ele>137.00000000000003</ele><time>2026-03-25T08:14:07Z</time></trkpt><trkpt lat="44.69488521844183" lon="10.104350937175157"><ele>137.0</ele><time>2026-03-25T08:14:08Z</time></trkpt><trkpt lat="44.6949175335884" lon="10.104439806329914"><ele>137.14285714285717</ele><time>2026-03-25T08:14:09Z</time></trkpt><trkpt lat="44.69494973756958" lon="10.10452658191225"><ele>137.28571428571428</ele><time>2026-03-25T08:14:10Z</time></trkpt><trkpt lat="44.694983106742555" lon="10.104615845332411"><ele>137.42857142857144</ele><time>2026-03-25T08:14:11Z</time></trkpt><trkpt lat="44.69501370695577" lon="10.104704894106844"><ele>137.57142857142858</ele><time>2026-03-25T08:14:12Z</time></trkpt><trkpt lat="44.69504536385505" lon="10.104791357215978"><ele>137.71428571428572</ele><time>2026-03-25T08:14:13Z</time></trkpt><trkpt lat="44.69507674599661" lon="10.10487945127455"><ele>137.85714285714286</ele><time>2026-03-25T08:14:14Z</time></trkpt><trkpt lat="44.69511033738809" lon="10.104969784686935"><ele>138.0</ele><time>2026-03-25T08:14:15Z</time></trkpt><trkpt lat="44.69514405891433" lon="10.10505829862594"><ele>138.28571428571428</ele><time>2026-03-25T08:14:16Z</time></trkpt><trkpt lat="44.695176483203625" lon="10.105147450892986"><ele>138.57142857142858</ele><time>2026-03-25T08:14:17Z</time></trkpt><trkpt lat="44.69520778716073" lon="10.105236133775879"><ele>138.85714285714286</ele><time>2026-03-25T08:14:18Z</time></trkpt><trkpt lat="44.69523964133083" lon="10.105325743464368"><ele>139.14285714285714</ele><time>2026-03-25T08:14:19Z</time></trkpt><trkpt lat="44.695272234568904" lon="10.105413789528587"><ele>139.42857142857144</ele><time>2026-03-25T08:14:20Z</time></trkpt><trkpt lat="44.69530495863793" lon="10.105503126294147"><ele>139.71428571428572</ele><time>2026-03-25T08:14:21Z</time></trkpt><trkpt lat="44.69533597204695" lon="10.105591325067737"><ele>140.0</ele><time>2026-03-25T08:14:22Z</time></trkpt><trkpt lat="44.695369094913865" lon="10.105679405432957"><ele>139.42857142857142</ele><time>2026-03-25T08:14:23Z</time></trkpt><trkpt lat="44.69540115101921" lon="10.105766582633244"><ele>138.85714285714286</ele><time>2026-03-25T08:14:24Z</time></trkpt><trkpt lat="44.69543326995573" lon="10.105856441626097"><ele>138.28571428571428</ele><time>2026-03-25T08:14:25Z</time></trkpt><trkpt lat="44.695466493374745" lon="10.105944758357792"><ele>137.71428571428572</ele><time>2026-03-25T08:14:26Z</time></trkpt><trkpt lat="44.69549758712707" lon="10.1060322294349"><ele>137.14285714285714</ele><time>2026-03-25T08:14:27Z</time></trkpt><trkpt lat="44.69553024568763" lon="10.10611965453851"><ele>136.57142857142856</ele><time>2026-03-25T08:14:28Z</time></trkpt><trkpt lat="44.695564062050465" lon="10.106204693419384"><ele>136.0</ele><time>2026-03-25T08:14:29Z</time></trkpt><trkpt lat="44.6955958900681" lon="10.106290898443394"><ele>135.99999999999997</ele><time>2026-03-25T08:14:30Z</time></trkpt><trkpt lat="44.695629603607166" lon="10.10637502478558"><ele>136.0</ele><time>2026-03-25T08:14:31Z</time></trkpt><trkpt lat="44.69566724708581" lon="10.10645852011794"><ele>136.0</ele><time>2026-03-25T08:14:32Z</time></trkpt><trkpt lat="44.695699989795415" lon="10.106542819898483"><ele>136.0</ele><time>2026-03-25T08:14:33Z</time></trkpt><trkpt lat="44.69573633911211" lon="10.106623924806827"><ele>136.0</ele><time>2026-03-25T08:14:34Z</time></trkpt><trkpt lat="44.69577020651688" lon="10.106705349480995"><ele>135.99999999999997</ele><time>2026-03-25T08:14:35Z</time></trkpt><trkpt lat="44.695807208251026" lon="10.106788845180429"><ele>136.0</ele><time>2026-03-25T08:14:36Z</time></trkpt><trkpt lat="44.695843741223214" lon="10.106869056402061"><ele>135.85714285714283</ele><time>2026-03-25T08:14:37Z</time></trkpt><trkpt lat="44.69587894391083" lon="10.106949322482246"><ele>135.71428571428572</ele><time>2026-03-25T08:14:38Z</time></trkpt><trkpt lat="44.69591036620288" lon="10.10703141954476"><ele>135.57142857142856</ele><time>2026-03-25T08:14:39Z</time></trkpt><trkpt lat="44.69594194511096" lon="10.107119555133158"><ele>135.42857142857142</ele><time>2026-03-25T08:14:40Z</time></trkpt><trkpt lat="44.695973297748196" lon="10.107197779843167"><ele>135.28571428571428</ele><time>2026-03-25T08:14:41Z</time></trkpt><trkpt lat="44.69600514054933" lon="10.10728923507878"><ele>135.14285714285714</ele><time>2026-03-25T08:14:42Z</time></trkpt><trkpt lat="44.69603150190442" lon="10.10738273165269"><ele>135.0</ele><time>2026-03-25T08:14:43Z</time></trkpt><trkpt lat="44.69605831459295" lon="10.107471582050724"><ele>135.0</ele><time>2026-03-25T08:14:44Z</time></trkpt><trkpt lat="44.69608168795867" lon="10.107561215988367"><ele>135.0</ele><time>2026-03-25T08:14:45Z</time></trkpt><trkpt lat="44.69610799353185" lon="10.107653826026208"><ele>135.0</ele><time>2026-03-25T08:14:46Z</time></trkpt><trkpt lat="44.696137323772376" lon="10.10774789553417"><ele>135.0</ele><time>2026-03-25T08:14:47Z</time></trkpt><trkpt lat="44.69616448344831" lon="10.107844472113813"><ele>135.0</ele><time>2026-03-25T08:14:48Z</time></trkpt><trkpt lat="44.69619188503232" lon="10.107933179984832"><ele>135.0</ele><time>2026-03-25T08:14:49Z</time></trkpt><trkpt lat="44.69622042451653" lon="10.108023773022314"><ele>135.0</ele><time>2026-03-25T08:14:50Z</time></trkpt><trkpt lat="44.696253886880186" lon="10.108121320578086"><ele>135.14285714285714</ele><time>2026-03-25T08:14:51Z</time></trkpt><trkpt lat="44.69628470261581" lon="10.108208120827834"><ele>135.28571428571428</ele><time>2026-03-25T08:14:52Z</time></trkpt><trkpt lat="44.69631764767016" lon="10.108291085800639"><ele>135.42857142857142</ele><time>2026-03-25T08:14:53Z</time></trkpt><trkpt lat="44.69635137241617" lon="10.108378732596536"><ele>135.57142857142856</ele><time>2026-03-25T08:14:54Z</time></trkpt><trkpt lat="44.69638470080099" lon="10.108463119038968"><ele>135.71428571428572</ele><time>2026-03-25T08:14:55Z</time></trkpt><trkpt lat="44.696418045708846" lon="10.108547683075562"><ele>135.85714285714283</ele><time>2026-03-25T08:14:56Z</time></trkpt><trkpt lat="44.696450933314495" lon="10.108630540275556"><ele>136.0</ele><time>2026-03-25T08:14:57Z</time></trkpt><trkpt lat="44.696485611664535" lon="10.10871356218902"><ele>136.0</ele><time>2026-03-25T08:14:58Z</time></trkpt><trkpt lat="44.69652007961835" lon="10.108797954126521"><ele>136.0</ele><time>2026-03-25T08:14:59Z</time></trkpt><trkpt lat="44.69655977693797" lon="10.108881725503917"><ele>136.0</ele><time>2026-03-25T08:15:00Z</time></trkpt><trkpt lat="44.69659680427677" lon="10.10896458247694"><ele>136.0</ele><time>2026-03-25T08:15:01Z</time></trkpt><trkpt lat="44.696637901393046" lon="10.10904778141183"><ele>136.0</ele><time>2026-03-25T08:15:02Z</time></trkpt><trkpt lat="44.69667546805624" lon="10.109134911390527"><ele>136.0</ele><time>2026-03-25T08:15:03Z</time></trkpt><trkpt lat="44.69673578172455" lon="10.10930055410513"><ele>136.0</ele><time>2026-03-25T08:15:05Z</time></trkpt><trkpt lat="44.69678865988562" lon="10.109392629330936"><ele>136.0</ele><time>2026-03-25T08:15:06Z</time></trkpt><trkpt lat="44.69684802497422" lon="10.10948140834365"><ele>136.0</ele><time>2026-03-25T08:15:07Z</time></trkpt><trkpt lat="44.69689819173813" lon="10.109581436280678"><ele>136.0</ele><time>2026-03-25T08:15:08Z</time></trkpt><trkpt lat="44.6969551227221" lon="10.109686089572012"><ele>136.0</ele><time>2026-03-25T08:15:09Z</time></trkpt><trkpt lat="44.69700640618772" lon="10.109792249500611"><ele>136.0</ele><time>2026-03-25T08:15:10Z</time></trkpt><trkpt lat="44.697043617669664" lon="10.109889291130143"><ele>135.6</ele><time>2026-03-25T08:15:11Z</time></trkpt><trkpt lat="44.69708725199726" lon="10.109972666449487"><ele>135.2</ele><time>2026-03-25T08:15:12Z</time></trkpt><trkpt lat="44.69716237569232" lon="10.11009190919316"><ele>134.8</ele><time>2026-03-25T08:15:13Z</time></trkpt><trkpt lat="44.69723671389591" lon="10.110212460406062"><ele>134.4</ele><time>2026-03-25T08:15:14Z</time></trkpt><trkpt lat="44.69731539834862" lon="10.110334599095873"><ele>134.0</ele><time>2026-03-25T08:15:15Z</time></trkpt><trkpt lat="44.6974121713589" lon="10.110464919403979"><ele>134.0</ele><time>2026-03-25T08:15:16Z</time></trkpt><trkpt lat="44.69750595733914" lon="10.11059055646539"><ele>134.0</ele><time>2026-03-25T08:15:17Z</time></trkpt><trkpt lat="44.697581982193405" lon="10.110708454894715"><ele>134.0</ele><time>2026-03-25T08:15:18Z</time></trkpt><trkpt lat="44.69769254165432" lon="10.110856685940528"><ele>134.0</ele><time>2026-03-25T08:15:19Z</time></trkpt><trkpt lat="44.69780705296135" lon="10.110994357815045"><ele>132.66666666666666</ele><time>2026-03-25T08:15:20Z</time></trkpt><trkpt lat="44.6979302635075" lon="10.111131079190029"><ele>131.33333333333334</ele><time>2026-03-25T08:15:21Z</time></trkpt><trkpt lat="44.69806734950404" lon="10.111270925076902"><ele>130.0</ele><time>2026-03-25T08:15:22Z</time></trkpt><trkpt lat="44.69822409061021" lon="10.111405868083134"><ele>130.0</ele><time>2026-03-25T08:15:23Z</time></trkpt><trkpt lat="44.69837311051556" lon="10.111534832162313"><ele>130.0</ele><time>2026-03-25T08:15:24Z</time></trkpt><trkpt lat="44.69852400874325" lon="10.111662113676543"><ele>130.0</ele><time>2026-03-25T08:15:25Z</time></trkpt><trkpt lat="44.69868898543819" lon="10.11177676240009"><ele>130.66666666666669</ele><time>2026-03-25T08:15:26Z</time></trkpt><trkpt lat="44.698835457826675" lon="10.111884602436604"><ele>131.33333333333334</ele><time>2026-03-25T08:15:27Z</time></trkpt><trkpt lat="44.6989960732611" lon="10.111998451316477"><ele>132.0</ele><time>2026-03-25T08:15:28Z</time></trkpt><trkpt lat="44.6991404206929" lon="10.112152679222802"><ele>132.0</ele><time>2026-03-25T08:15:29Z</time></trkpt><trkpt lat="44.699310495827405" lon="10.112285351777931"><ele>132.0</ele><time>2026-03-25T08:15:30Z</time></trkpt><trkpt lat="44.699491898872445" lon="10.11242631733055"><ele>132.0</ele><time>2026-03-25T08:15:31Z</time></trkpt><trkpt lat="44.6996323940989" lon="10.112584503738514"><ele>132.66666666666666</ele><time>2026-03-25T08:15:32Z</time></trkpt><trkpt lat="44.69979497884651" lon="10.112758072267223"><ele>133.33333333333331</ele><time>2026-03-25T08:15:33Z</time></trkpt><trkpt lat="44.69997594870634" lon="10.112940210471416"><ele>134.0</ele><time>2026-03-25T08:15:34Z</time></trkpt><trkpt lat="44.70017451542428" lon="10.113151574189231"><ele>135.5</ele><time>2026-03-25T08:15:35Z</time></trkpt><trkpt lat="44.70033804519002" lon="10.113390509539181"><ele>137.0</ele><time>2026-03-25T08:15:36Z</time></trkpt><trkpt lat="44.700520613567825" lon="10.113612021203824"><ele>137.0</ele><time>2026-03-25T08:15:37Z</time></trkpt><trkpt lat="44.70067609813673" lon="10.11385423064218"><ele>137.0</ele><time>2026-03-25T08:15:38Z</time></trkpt><trkpt lat="44.700798760457246" lon="10.114125195267759"><ele>138.0</ele><time>2026-03-25T08:15:39Z</time></trkpt><trkpt lat="44.70092336918637" lon="10.114437062086203"><ele>139.0</ele><time>2026-03-25T08:15:40Z</time></trkpt><trkpt lat="44.70103392724127" lon="10.11475159568215"><ele>134.0</ele><time>2026-03-25T08:15:41Z</time></trkpt><trkpt lat="44.70113309985831" lon="10.115076526520127"><ele>129.0</ele><time>2026-03-25T08:15:42Z</time></trkpt><trkpt lat="44.70126873317551" lon="10.11528818023505"><ele>129.0</ele><time>2026-03-25T08:15:43Z</time></trkpt><trkpt lat="44.70133063160613" lon="10.115659340286904"><ele>129.0</ele><time>2026-03-25T08:15:44Z</time></trkpt><trkpt lat="44.701431967233816" lon="10.115954283715583"><ele>130.5</ele><time>2026-03-25T08:15:45Z</time></trkpt><trkpt lat="44.7014958848961" lon="10.1162925795615"><ele>132.0</ele><time>2026-03-25T08:15:46Z</time></trkpt><trkpt lat="44.70154499137236" lon="10.116667046223078"><ele>132.0</ele><time>2026-03-25T08:15:47Z</time></trkpt><trkpt lat="44.701605504036955" lon="10.117023161386916"><ele>132.0</ele><time>2026-03-25T08:15:48Z</time></trkpt><trkpt lat="44.70162262433329" lon="10.117379285951854"><ele>133.0</ele><time>2026-03-25T08:15:49Z</time></trkpt><trkpt lat="44.70164274690957" lon="10.11775943064498"><ele>134.0</ele><time>2026-03-25T08:15:50Z</time></trkpt><trkpt lat="44.701684334717136" lon="10.11812935543743"><ele>136.0</ele><time>2026-03-25T08:15:51Z</time></trkpt><trkpt lat="44.70173148815046" lon="10.118439290603714"><ele>138.0</ele><time>2026-03-25T08:15:52Z</time></trkpt><trkpt lat="44.701784137264674" lon="10.118780615419693"><ele>138.0</ele><time>2026-03-25T08:15:53Z</time></trkpt><trkpt lat="44.70184536148092" lon="10.119120579344697"><ele>138.0</ele><time>2026-03-25T08:15:54Z</time></trkpt><trkpt lat="44.701916161672045" lon="10.119457803656227"><ele>133.5</ele><time>2026-03-25T08:15:55Z</time></trkpt><trkpt lat="44.70196569092301" lon="10.119793729296562"><ele>129.0</ele><time>2026-03-25T08:15:56Z</time></trkpt><trkpt lat="44.702017107149224" lon="10.120131995473493"><ele>129.0</ele><time>2026-03-25T08:15:57Z</time></trkpt><trkpt lat="44.70208009141183" lon="10.12046722076476"><ele>129.0</ele><time>2026-03-25T08:15:58Z</time></trkpt><trkpt lat="44.702147147117564" lon="10.120772524636124"><ele>130.5</ele><time>2026-03-25T08:15:59Z</time></trkpt><trkpt lat="44.70221274859855" lon="10.121088040727134"><ele>132.0</ele><time>2026-03-25T08:16:00Z</time></trkpt><trkpt lat="44.70229790228517" lon="10.121408334310834"><ele>133.5</ele><time>2026-03-25T08:16:01Z</time></trkpt><trkpt lat="44.70238862344003" lon="10.121729042233346"><ele>135.0</ele><time>2026-03-25T08:16:02Z</time></trkpt><trkpt lat="44.70249811763673" lon="10.122048903757864"><ele>135.0</ele><time>2026-03-25T08:16:03Z</time></trkpt><trkpt lat="44.70259048398903" lon="10.122376746161107"><ele>135.0</ele><time>2026-03-25T08:16:04Z</time></trkpt><trkpt lat="44.7026855995535" lon="10.122693289873322"><ele>133.0</ele><time>2026-03-25T08:16:05Z</time></trkpt><trkpt lat="44.70278886334741" lon="10.123012913297293"><ele>131.0</ele><time>2026-03-25T08:16:06Z</time></trkpt><trkpt lat="44.702870829768514" lon="10.123334651822185"><ele>131.0</ele><time>2026-03-25T08:16:07Z</time></trkpt><trkpt lat="44.70295389041675" lon="10.123652247474878"><ele>131.0</ele><time>2026-03-25T08:16:08Z</time></trkpt><trkpt lat="44.703056196830374" lon="10.123971125283184"><ele>131.0</ele><time>2026-03-25T08:16:09Z</time></trkpt><trkpt lat="44.70315081104538" lon="10.124286087751884"><ele>131.0</ele><time>2026-03-25T08:16:10Z</time></trkpt><trkpt lat="44.70323759033451" lon="10.1245994300371"><ele>134.5</ele><time>2026-03-25T08:16:11Z</time></trkpt><trkpt lat="44.70333141279681" lon="10.124914466590363"><ele>138.0</ele><time>2026-03-25T08:16:12Z</time></trkpt><trkpt lat="44.70343206364806" lon="10.125230591122516"><ele>138.0</ele><time>2026-03-25T08:16:13Z</time></trkpt><trkpt lat="44.70352122116447" lon="10.125543689163269"><ele>138.0</ele><time>2026-03-25T08:16:14Z</time></trkpt><trkpt lat="44.703628492002494" lon="10.125865499548071"><ele>135.5</ele><time>2026-03-25T08:16:15Z</time></trkpt><trkpt lat="44.70372506305269" lon="10.126183263348299"><ele>133.0</ele><time>2026-03-25T08:16:16Z</time></trkpt><trkpt lat="44.70382257244173" lon="10.126500862539842"><ele>135.0</ele><time>2026-03-25T08:16:17Z</time></trkpt><trkpt lat="44.70391602253075" lon="10.126810328204757"><ele>137.0</ele><time>2026-03-25T08:16:18Z</time></trkpt><trkpt lat="44.70401081025583" lon="10.127110173309392"><ele>137.5</ele><time>2026-03-25T08:16:19Z</time></trkpt><trkpt lat="44.70411084864758" lon="10.127404695226604"><ele>138.0</ele><time>2026-03-25T08:16:20Z</time></trkpt><trkpt lat="44.70422572520104" lon="10.127686694179676"><ele>138.0</ele><time>2026-03-25T08:16:21Z</time></trkpt><trkpt lat="44.704353694994595" lon="10.127968315927605"><ele>138.0</ele><time>2026-03-25T08:16:22Z</time></trkpt><trkpt lat="44.70449124037734" lon="10.128236884711928"><ele>137.5</ele><time>2026-03-25T08:16:23Z</time></trkpt><trkpt lat="44.70462750377246" lon="10.128507899975672"><ele>137.0</ele><time>2026-03-25T08:16:24Z</time></trkpt><trkpt lat="44.704788155785714" lon="10.128777975874456"><ele>137.0</ele><time>2026-03-25T08:16:25Z</time></trkpt><trkpt lat="44.70493158562513" lon="10.129043747269248"><ele>137.0</ele><time>2026-03-25T08:16:26Z</time></trkpt><trkpt lat="44.7050939079785" lon="10.129294997460073"><ele>137.0</ele><time>2026-03-25T08:16:27Z</time></trkpt><trkpt lat="44.70523713041604" lon="10.129534444531963"><ele>137.0</ele><time>2026-03-25T08:16:28Z</time></trkpt><trkpt lat="44.70539426400657" lon="10.129763841060246"><ele>137.0</ele><time>2026-03-25T08:16:29Z</time></trkpt><trkpt lat="44.70553066767426" lon="10.130005809852056"><ele>136.0</ele><time>2026-03-25T08:16:30Z</time></trkpt><trkpt lat="44.70568225861286" lon="10.130243158301802"><ele>135.0</ele><time>2026-03-25T08:16:31Z</time></trkpt><trkpt lat="44.70583437462631" lon="10.130478838909442"><ele>135.0</ele><time>2026-03-25T08:16:32Z</time></trkpt><trkpt lat="44.705990590581074" lon="10.130714077657101"><ele>135.0</ele><time>2026-03-25T08:16:33Z</time></trkpt><trkpt lat="44.70614403140306" lon="10.130946545558192"><ele>135.33333333333334</ele><time>2026-03-25T08:16:34Z</time></trkpt><trkpt lat="44.70629109259989" lon="10.131180714413127"><ele>135.66666666666669</ele><time>2026-03-25T08:16:35Z</time></trkpt><trkpt lat="44.706440277510964" lon="10.13141175261361"><ele>136.0</ele><time>2026-03-25T08:16:36Z</time></trkpt><trkpt lat="44.70659977201854" lon="10.131639462537203"><ele>136.0</ele><time>2026-03-25T08:16:37Z</time></trkpt><trkpt lat="44.7067442856902" lon="10.131867592746284"><ele>136.0</ele><time>2026-03-25T08:16:38Z</time></trkpt><trkpt lat="44.706885630954055" lon="10.132090620628338"><ele>136.0</ele><time>2026-03-25T08:16:39Z</time></trkpt><trkpt lat="44.70702224032372" lon="10.13232201329381"><ele>135.66666666666669</ele><time>2026-03-25T08:16:40Z</time></trkpt><trkpt lat="44.707159303339594" lon="10.132542605818163"><ele>135.33333333333334</ele><time>2026-03-25T08:16:41Z</time></trkpt><trkpt lat="44.707291385489384" lon="10.132758766660347"><ele>135.0</ele><time>2026-03-25T08:16:42Z</time></trkpt><trkpt lat="44.70743279697007" lon="10.13298144964143"><ele>135.0</ele><time>2026-03-25T08:16:43Z</time></trkpt><trkpt lat="44.70757355644664" lon="10.133196435438911"><ele>135.0</ele><time>2026-03-25T08:16:44Z</time></trkpt><trkpt lat="44.70770763135701" lon="10.133410901882064"><ele>135.0</ele><time>2026-03-25T08:16:45Z</time></trkpt><trkpt lat="44.707842361656006" lon="10.133625228902778"><ele>135.33333333333334</ele><time>2026-03-25T08:16:46Z</time></trkpt><trkpt lat="44.70797225403988" lon="10.133840290620192"><ele>135.66666666666669</ele><time>2026-03-25T08:16:47Z</time></trkpt><trkpt lat="44.70810323169809" lon="10.13405192330057"><ele>136.0</ele><time>2026-03-25T08:16:48Z</time></trkpt><trkpt lat="44.70823490102718" lon="10.134261880047367"><ele>136.0</ele><time>2026-03-25T08:16:49Z</time></trkpt><trkpt lat="44.708357986282955" lon="10.134472620463175"><ele>136.0</ele><time>2026-03-25T08:16:50Z</time></trkpt><trkpt lat="44.7084846518479" lon="10.134680297970553"><ele>136.0</ele><time>2026-03-25T08:16:51Z</time></trkpt><trkpt lat="44.70861339254856" lon="10.134888133146122"><ele>135.66666666666669</ele><time>2026-03-25T08:16:52Z</time></trkpt><trkpt lat="44.7087362896764" lon="10.13509076947927"><ele>135.33333333333334</ele><time>2026-03-25T08:16:53Z</time></trkpt><trkpt lat="44.708861390203175" lon="10.135289780861386"><ele>135.0</ele><time>2026-03-25T08:16:54Z</time></trkpt><trkpt lat="44.70898006007435" lon="10.13548935332127"><ele>135.0</ele><time>2026-03-25T08:16:55Z</time></trkpt><trkpt lat="44.70910133242221" lon="10.135691808991371"><ele>135.0</ele><time>2026-03-25T08:16:56Z</time></trkpt><trkpt lat="44.70922241678463" lon="10.135887308822527"><ele>135.0</ele><time>2026-03-25T08:16:57Z</time></trkpt><trkpt lat="44.709344046520314" lon="10.136077615171802"><ele>134.33333333333334</ele><time>2026-03-25T08:16:58Z</time></trkpt><trkpt lat="44.70946133997699" lon="10.136269007831872"><ele>133.66666666666669</ele><time>2026-03-25T08:16:59Z</time></trkpt><trkpt lat="44.70957662053561" lon="10.13645282888258"><ele>133.0</ele><time>2026-03-25T08:17:00Z</time></trkpt><trkpt lat="44.70968495565772" lon="10.13664315067342"><ele>133.0</ele><time>2026-03-25T08:17:01Z</time></trkpt><trkpt lat="44.709790632030916" lon="10.136825472728509"><ele>133.0</ele><time>2026-03-25T08:17:02Z</time></trkpt><trkpt lat="44.70990201033155" lon="10.137004863526284"><ele>133.0</ele><time>2026-03-25T08:17:03Z</time></trkpt><trkpt lat="44.71001025736914" lon="10.137179361827178"><ele>133.0</ele><time>2026-03-25T08:17:04Z</time></trkpt><trkpt lat="44.71011551794443" lon="10.137351247043096"><ele>133.0</ele><time>2026-03-25T08:17:05Z</time></trkpt><trkpt lat="44.710219716753194" lon="10.137518371292195"><ele>133.0</ele><time>2026-03-25T08:17:06Z</time></trkpt><trkpt lat="44.71032247160538" lon="10.137688040478775"><ele>132.25</ele><time>2026-03-25T08:17:07Z</time></trkpt><trkpt lat="44.710418427325045" lon="10.137849806040503"><ele>131.5</ele><time>2026-03-25T08:17:08Z</time></trkpt><trkpt lat="44.71051629511018" lon="10.138013407312023"><ele>130.75</ele><time>2026-03-25T08:17:09Z</time></trkpt><trkpt lat="44.71061383981562" lon="10.1381684912955"><ele>130.0</ele><time>2026-03-25T08:17:10Z</time></trkpt><trkpt lat="44.71069997619068" lon="10.138324884957367"><ele>129.75</ele><time>2026-03-25T08:17:11Z</time></trkpt><trkpt lat="44.71079329255669" lon="10.13848300606131"><ele>129.5</ele><time>2026-03-25T08:17:12Z</time></trkpt><trkpt lat="44.71088147586232" lon="10.138635452315892"><ele>129.25</ele><time>2026-03-25T08:17:13Z</time></trkpt><trkpt lat="44.71097290822729" lon="10.13879119156975"><ele>129.0</ele><time>2026-03-25T08:17:14Z</time></trkpt><trkpt lat="44.711066658667434" lon="10.138944832332577"><ele>128.5</ele><time>2026-03-25T08:17:15Z</time></trkpt><trkpt lat="44.7111594089793" lon="10.139097637427364"><ele>128.0</ele><time>2026-03-25T08:17:16Z</time></trkpt><trkpt lat="44.71125277869663" lon="10.13925075669534"><ele>127.5</ele><time>2026-03-25T08:17:17Z</time></trkpt><trkpt lat="44.71134591707075" lon="10.139403977512588"><ele>127.0</ele><time>2026-03-25T08:17:18Z</time></trkpt><trkpt lat="44.71143451424813" lon="10.139554831727114"><ele>127.0</ele><time>2026-03-25T08:17:19Z</time></trkpt><trkpt lat="44.71152638580933" lon="10.139706824321772"><ele>127.0</ele><time>2026-03-25T08:17:20Z</time></trkpt><trkpt lat="44.71161378967336" lon="10.139848255610797"><ele>127.0</ele><time>2026-03-25T08:17:21Z</time></trkpt><trkpt lat="44.71170364380361" lon="10.139988111219909"><ele>127.0</ele><time>2026-03-25T08:17:22Z</time></trkpt><trkpt lat="44.71178636564172" lon="10.140126908465552"><ele>127.25</ele><time>2026-03-25T08:17:23Z</time></trkpt><trkpt lat="44.71186604222572" lon="10.14025960400733"><ele>127.5</ele><time>2026-03-25T08:17:24Z</time></trkpt><trkpt lat="44.711939518422334" lon="10.140385574257882"><ele>127.75</ele><time>2026-03-25T08:17:25Z</time></trkpt><trkpt lat="44.712014185497004" lon="10.140504801565827"><ele>128.0</ele><time>2026-03-25T08:17:26Z</time></trkpt><trkpt lat="44.712084548336485" lon="10.14062277528217"><ele>128.20000000000002</ele><time>2026-03-25T08:17:27Z</time></trkpt><trkpt lat="44.712150252762974" lon="10.140734620655882"><ele>128.4</ele><time>2026-03-25T08:17:28Z</time></trkpt><trkpt lat="44.71221718844298" lon="10.140839301264355"><ele>128.60000000000002</ele><time>2026-03-25T08:17:29Z</time></trkpt><trkpt lat="44.712282586337615" lon="10.140940073641676"><ele>128.8</ele><time>2026-03-25T08:17:30Z</time></trkpt><trkpt lat="44.71233384847753" lon="10.141030628328776"><ele>129.0</ele><time>2026-03-25T08:17:31Z</time></trkpt><trkpt lat="44.71239153145734" lon="10.141113852231374"><ele>129.0</ele><time>2026-03-25T08:17:32Z</time></trkpt><trkpt lat="44.71243801959972" lon="10.14118708635956"><ele>129.0</ele><time>2026-03-25T08:17:33Z</time></trkpt><trkpt lat="44.71248575597017" lon="10.141259363641435"><ele>129.0</ele><time>2026-03-25T08:17:34Z</time></trkpt><trkpt lat="44.71250852995428" lon="10.141416739631339"><ele>129.0</ele><time>2026-03-25T08:17:36Z</time></trkpt><trkpt lat="44.71255605218844" lon="10.141496092090607"><ele>129.0</ele><time>2026-03-25T08:17:38Z</time></trkpt><trkpt lat="44.71266224513348" lon="10.141661167592769"><ele>129.16666666666666</ele><time>2026-03-25T08:18:20Z</time></trkpt><trkpt lat="44.712720591614136" lon="10.141759230111349"><ele>129.33333333333334</ele><time>2026-03-25T08:18:22Z</time></trkpt><trkpt lat="44.71279426723875" lon="10.141883055540532"><ele>129.5</ele><time>2026-03-25T08:18:24Z</time></trkpt><trkpt lat="44.712838238676035" lon="10.141956957622499"><ele>129.66666666666669</ele><time>2026-03-25T08:18:25Z</time></trkpt><trkpt lat="44.71288618158169" lon="10.142037534487264"><ele>129.83333333333334</ele><time>2026-03-25T08:18:26Z</time></trkpt><trkpt lat="44.71293862175135" lon="10.142125434528634"><ele>130.0</ele><time>2026-03-25T08:18:27Z</time></trkpt><trkpt lat="44.71299453357614" lon="10.142218736990728"><ele>129.6</ele><time>2026-03-25T08:18:28Z</time></trkpt><trkpt lat="44.71305335406913" lon="10.142316893272444"><ele>129.2</ele><time>2026-03-25T08:18:29Z</time></trkpt><trkpt lat="44.71311748917889" lon="10.14242391828258"><ele>128.8</ele><time>2026-03-25T08:18:30Z</time></trkpt><trkpt lat="44.71318612929663" lon="10.142538460993265"><ele>128.4</ele><time>2026-03-25T08:18:31Z</time></trkpt><trkpt lat="44.713257090017734" lon="10.142656877407179"><ele>128.0</ele><time>2026-03-25T08:18:32Z</time></trkpt><trkpt lat="44.71333234709223" lon="10.142782462117541"><ele>128.0</ele><time>2026-03-25T08:18:33Z</time></trkpt><trkpt lat="44.71341117265735" lon="10.142914001768922"><ele>128.0</ele><time>2026-03-25T08:18:34Z</time></trkpt><trkpt lat="44.71349584277628" lon="10.143055294382187"><ele>128.0</ele><time>2026-03-25T08:18:35Z</time></trkpt><trkpt lat="44.713582310665444" lon="10.143199587059888"><ele>128.0</ele><time>2026-03-25T08:18:36Z</time></trkpt><trkpt lat="44.71369410568421" lon="10.14332264109832"><ele>127.66666666666666</ele><time>2026-03-25T08:18:37Z</time></trkpt><trkpt lat="44.713785256708135" lon="10.143483473134138"><ele>127.33333333333334</ele><time>2026-03-25T08:18:38Z</time></trkpt><trkpt lat="44.71388637194302" lon="10.143661056172014"><ele>127.0</ele><time>2026-03-25T08:18:39Z</time></trkpt><trkpt lat="44.713984179797315" lon="10.143842317678214"><ele>127.0</ele><time>2026-03-25T08:18:40Z</time></trkpt><trkpt lat="44.714083883282896" lon="10.144030401115046"><ele>127.0</ele><time>2026-03-25T08:18:41Z</time></trkpt><trkpt lat="44.7142070645724" lon="10.144209528971254"><ele>127.0</ele><time>2026-03-25T08:18:42Z</time></trkpt><trkpt lat="44.71432476440175" lon="10.1443971103242"><ele>127.0</ele><time>2026-03-25T08:18:43Z</time></trkpt><trkpt lat="44.71444261060184" lon="10.144599555251313"><ele>127.0</ele><time>2026-03-25T08:18:44Z</time></trkpt><trkpt lat="44.71456663208212" lon="10.144805916995566"><ele>127.0</ele><time>2026-03-25T08:18:45Z</time></trkpt><trkpt lat="44.71469221951388" lon="10.14501723320308"><ele>126.66666666666667</ele><time>2026-03-25T08:18:46Z</time></trkpt><trkpt lat="44.71482152426884" lon="10.145234811033259"><ele>126.33333333333334</ele><time>2026-03-25T08:18:47Z</time></trkpt><trkpt lat="44.714942750202454" lon="10.145458442928515"><ele>126.0</ele><time>2026-03-25T08:18:48Z</time></trkpt><trkpt lat="44.71507418586209" lon="10.145683623073001"><ele>125.33333333333334</ele><time>2026-03-25T08:18:49Z</time></trkpt><trkpt lat="44.71521325274768" lon="10.145916523416549"><ele>124.66666666666667</ele><time>2026-03-25T08:18:50Z</time></trkpt><trkpt lat="44.715351083589844" lon="10.146151186296775"><ele>124.0</ele><time>2026-03-25T08:18:51Z</time></trkpt><trkpt lat="44.71549376651176" lon="10.14639392635745"><ele>123.5</ele><time>2026-03-25T08:18:52Z</time></trkpt><trkpt lat="44.71563708545451" lon="10.146645380913194"><ele>123.0</ele><time>2026-03-25T08:18:53Z</time></trkpt><trkpt lat="44.715783339558975" lon="10.146897161578387"><ele>123.0</ele><time>2026-03-25T08:18:54Z</time></trkpt><trkpt lat="44.71593538074891" lon="10.147154134463296"><ele>123.0</ele><time>2026-03-25T08:18:55Z</time></trkpt><trkpt lat="44.7160904788627" lon="10.14741657378146"><ele>122.5</ele><time>2026-03-25T08:18:56Z</time></trkpt><trkpt lat="44.71624959397874" lon="10.147681958928732"><ele>122.0</ele><time>2026-03-25T08:18:57Z</time></trkpt><trkpt lat="44.71640996889308" lon="10.147950545424221"><ele>122.5</ele><time>2026-03-25T08:18:58Z</time></trkpt><trkpt lat="44.71657378730929" lon="10.148221351466225"><ele>123.0</ele><time>2026-03-25T08:18:59Z</time></trkpt><trkpt lat="44.71673784740696" lon="10.148499106664758"><ele>123.0</ele><time>2026-03-25T08:19:00Z</time></trkpt><trkpt lat="44.71690458162207" lon="10.148780273993676"><ele>123.0</ele><time>2026-03-25T08:19:01Z</time></trkpt><trkpt lat="44.717072706065565" lon="10.149065496780528"><ele>123.0</ele><time>2026-03-25T08:19:02Z</time></trkpt><trkpt lat="44.71724509349025" lon="10.149357034030418"><ele>123.0</ele><time>2026-03-25T08:19:03Z</time></trkpt><trkpt lat="44.7174209225057" lon="10.149652472367444"><ele>123.0</ele><time>2026-03-25T08:19:04Z</time></trkpt><trkpt lat="44.71760112831778" lon="10.149947449638947"><ele>123.0</ele><time>2026-03-25T08:19:05Z</time></trkpt><trkpt lat="44.71778459512716" lon="10.150249727569838"><ele>122.5</ele><time>2026-03-25T08:19:06Z</time></trkpt><trkpt lat="44.71796811245182" lon="10.150553205837284"><ele>122.0</ele><time>2026-03-25T08:19:07Z</time></trkpt><trkpt lat="44.718160342472636" lon="10.150866974996543"><ele>122.0</ele><time>2026-03-25T08:19:08Z</time></trkpt><trkpt lat="44.71834976238702" lon="10.151179394950349"><ele>122.0</ele><time>2026-03-25T08:19:09Z</time></trkpt><trkpt lat="44.71854550133063" lon="10.151498876593507"><ele>121.0</ele><time>2026-03-25T08:19:10Z</time></trkpt><trkpt lat="44.718737787396456" lon="10.15181767351018"><ele>120.0</ele><time>2026-03-25T08:19:11Z</time></trkpt><trkpt lat="44.718936780655795" lon="10.15214541172636"><ele>121.0</ele><time>2026-03-25T08:19:12Z</time></trkpt><trkpt lat="44.71913491837283" lon="10.152474762775968"><ele>122.0</ele><time>2026-03-25T08:19:13Z</time></trkpt><trkpt lat="44.71933366904992" lon="10.152805797231265"><ele>121.0</ele><time>2026-03-25T08:19:14Z</time></trkpt><trkpt lat="44.719534927273436" lon="10.153138654981337"><ele>120.0</ele><time>2026-03-25T08:19:15Z</time></trkpt><trkpt lat="44.71973763585388" lon="10.153473910796603"><ele>120.0</ele><time>2026-03-25T08:19:16Z</time></trkpt><trkpt lat="44.71994048549495" lon="10.15381034098424"><ele>120.0</ele><time>2026-03-25T08:19:17Z</time></trkpt><trkpt lat="44.72014614884701" lon="10.154149664373925"><ele>119.5</ele><time>2026-03-25T08:19:18Z</time></trkpt><trkpt lat="44.720351046227414" lon="10.154486628555714"><ele>119.0</ele><time>2026-03-25T08:19:19Z</time></trkpt><trkpt lat="44.7205560025109" lon="10.154818966685239"><ele>120.5</ele><time>2026-03-25T08:19:20Z</time></trkpt><trkpt lat="44.72076309697241" lon="10.155157464525931"><ele>122.0</ele><time>2026-03-25T08:19:21Z</time></trkpt><trkpt lat="44.720968524593914" lon="10.155501222564745"><ele>120.5</ele><time>2026-03-25T08:19:22Z</time></trkpt><trkpt lat="44.72117148878142" lon="10.155842300740701"><ele>119.0</ele><time>2026-03-25T08:19:23Z</time></trkpt><trkpt lat="44.721378226609794" lon="10.156181108108287"><ele>119.0</ele><time>2026-03-25T08:19:24Z</time></trkpt><trkpt lat="44.72158246492167" lon="10.156525638093877"><ele>119.0</ele><time>2026-03-25T08:19:25Z</time></trkpt><trkpt lat="44.721781075190115" lon="10.156869271387807"><ele>119.0</ele><time>2026-03-25T08:19:26Z</time></trkpt><trkpt lat="44.72199692002835" lon="10.157218467454166"><ele>119.0</ele><time>2026-03-25T08:19:27Z</time></trkpt><trkpt lat="44.72220829105692" lon="10.15756899232852"><ele>120.5</ele><time>2026-03-25T08:19:28Z</time></trkpt><trkpt lat="44.72241923341722" lon="10.157918681263878"><ele>122.0</ele><time>2026-03-25T08:19:29Z</time></trkpt><trkpt lat="44.722635298063324" lon="10.15826903707845"><ele>122.5</ele><time>2026-03-25T08:19:30Z</time></trkpt><trkpt lat="44.722844381077046" lon="10.158618982732847"><ele>123.0</ele><time>2026-03-25T08:19:31Z</time></trkpt><trkpt lat="44.723050036460705" lon="10.158969672615484"><ele>123.0</ele><time>2026-03-25T08:19:32Z</time></trkpt><trkpt lat="44.72325741063856" lon="10.159319952199105"><ele>123.0</ele><time>2026-03-25T08:19:33Z</time></trkpt><trkpt lat="44.7234654172704" lon="10.1596713508142"><ele>121.0</ele><time>2026-03-25T08:19:34Z</time></trkpt><trkpt lat="44.7236761966326" lon="10.160021451161866"><ele>119.0</ele><time>2026-03-25T08:19:35Z</time></trkpt><trkpt lat="44.72388453035343" lon="10.160371530999273"><ele>118.5</ele><time>2026-03-25T08:19:36Z</time></trkpt><trkpt lat="44.7240971111905" lon="10.160722352970014"><ele>118.0</ele><time>2026-03-25T08:19:37Z</time></trkpt><trkpt lat="44.72430770504515" lon="10.161071780114737"><ele>118.0</ele><time>2026-03-25T08:19:38Z</time></trkpt><trkpt lat="44.72451666052383" lon="10.161422322764944"><ele>118.0</ele><time>2026-03-25T08:19:39Z</time></trkpt><trkpt lat="44.72472616283439" lon="10.161771306681809"><ele>118.0</ele><time>2026-03-25T08:19:40Z</time></trkpt><trkpt lat="44.724927622833775" lon="10.162123562426851"><ele>118.0</ele><time>2026-03-25T08:19:41Z</time></trkpt><trkpt lat="44.725132554676534" lon="10.162474395653001"><ele>116.5</ele><time>2026-03-25T08:19:42Z</time></trkpt><trkpt lat="44.72533794427636" lon="10.16282503442618"><ele>115.0</ele><time>2026-03-25T08:19:43Z</time></trkpt><trkpt lat="44.72554255512122" lon="10.163177302790363"><ele>115.5</ele><time>2026-03-25T08:19:44Z</time></trkpt><trkpt lat="44.72575134546239" lon="10.16352821111558"><ele>116.0</ele><time>2026-03-25T08:19:45Z</time></trkpt><trkpt lat="44.7259572824219" lon="10.163878692105198"><ele>115.5</ele><time>2026-03-25T08:19:46Z</time></trkpt><trkpt lat="44.726162212735574" lon="10.164228552305477"><ele>115.0</ele><time>2026-03-25T08:19:47Z</time></trkpt><trkpt lat="44.726368662420484" lon="10.16457833910241"><ele>116.0</ele><time>2026-03-25T08:19:48Z</time></trkpt><trkpt lat="44.72657889971703" lon="10.164928386996438"><ele>117.0</ele><time>2026-03-25T08:19:49Z</time></trkpt><trkpt lat="44.72678638066272" lon="10.165278703445482"><ele>117.0</ele><time>2026-03-25T08:19:50Z</time></trkpt><trkpt lat="44.726994229786584" lon="10.165628633979276"><ele>117.0</ele><time>2026-03-25T08:19:51Z</time></trkpt><trkpt lat="44.727200607304816" lon="10.165977088952433"><ele>116.5</ele><time>2026-03-25T08:19:52Z</time></trkpt><trkpt lat="44.72740249692801" lon="10.166324091380565"><ele>116.0</ele><time>2026-03-25T08:19:53Z</time></trkpt><trkpt lat="44.72760520514165" lon="10.166672199784363"><ele>114.0</ele><time>2026-03-25T08:19:54Z</time></trkpt><trkpt lat="44.727805253464844" lon="10.167018993152073"><ele>112.0</ele><time>2026-03-25T08:19:55Z</time></trkpt><trkpt lat="44.72801312310773" lon="10.167371600407407"><ele>111.5</ele><time>2026-03-25T08:19:56Z</time></trkpt><trkpt lat="44.72822205031962" lon="10.167726978909467"><ele>111.0</ele><time>2026-03-25T08:19:57Z</time></trkpt><trkpt lat="44.72842770794116" lon="10.168084633207938"><ele>110.5</ele><time>2026-03-25T08:19:58Z</time></trkpt><trkpt lat="44.72862938149016" lon="10.16843636008147"><ele>110.0</ele><time>2026-03-25T08:19:59Z</time></trkpt><trkpt lat="44.728840980701015" lon="10.168787488638579"><ele>110.5</ele><time>2026-03-25T08:20:00Z</time></trkpt><trkpt lat="44.729049805059965" lon="10.169133282764827"><ele>111.0</ele><time>2026-03-25T08:20:01.001Z</time></trkpt><trkpt lat="44.72926286152405" lon="10.169484986933298"><ele>111.5</ele><time>2026-03-25T08:20:02.001Z</time></trkpt><trkpt lat="44.72946420303935" lon="10.16984567929493"><ele>112.0</ele><time>2026-03-25T08:20:03.001Z</time></trkpt><trkpt lat="44.72966688017874" lon="10.170197569623262"><ele>112.0</ele><time>2026-03-25T08:20:04.001Z</time></trkpt><trkpt lat="44.72987342911096" lon="10.170569079436124"><ele>112.0</ele><time>2026-03-25T08:20:05.001Z</time></trkpt><trkpt lat="44.73007661312027" lon="10.17091560450442"><ele>111.0</ele><time>2026-03-25T08:20:06.001Z</time></trkpt><trkpt lat="44.730281262958876" lon="10.17125349998165"><ele>110.0</ele><time>2026-03-25T08:20:07.001Z</time></trkpt><trkpt lat="44.730490363540525" lon="10.171601239317937"><ele>109.5</ele><time>2026-03-25T08:20:08.001Z</time></trkpt><trkpt lat="44.730696782642084" lon="10.171948686953845"><ele>109.0</ele><time>2026-03-25T08:20:09.001Z</time></trkpt><trkpt lat="44.73089966590703" lon="10.172294499497514"><ele>109.0</ele><time>2026-03-25T08:20:10.001Z</time></trkpt><trkpt lat="44.73110201629002" lon="10.17263891420106"><ele>109.0</ele><time>2026-03-25T08:20:11.001Z</time></trkpt><trkpt lat="44.73130820481714" lon="10.17298361340466"><ele>109.0</ele><time>2026-03-25T08:20:12.001Z</time></trkpt><trkpt lat="44.73151612775332" lon="10.173328327389187"><ele>109.0</ele><time>2026-03-25T08:20:13.001Z</time></trkpt><trkpt lat="44.73172292453162" lon="10.17367265754065"><ele>109.0</ele><time>2026-03-25T08:20:14.001Z</time></trkpt><trkpt lat="44.73192974918277" lon="10.174015538135334"><ele>109.0</ele><time>2026-03-25T08:20:15.001Z</time></trkpt><trkpt lat="44.732136715693485" lon="10.174359707244736"><ele>109.0</ele><time>2026-03-25T08:20:16.001Z</time></trkpt><trkpt lat="44.73234251951774" lon="10.174702665079783"><ele>109.0</ele><time>2026-03-25T08:20:17.001Z</time></trkpt><trkpt lat="44.73254872476033" lon="10.175048029450924"><ele>108.5</ele><time>2026-03-25T08:20:18.001Z</time></trkpt><trkpt lat="44.73275510730908" lon="10.17539284909448"><ele>108.0</ele><time>2026-03-25T08:20:19.001Z</time></trkpt><trkpt lat="44.73296179042095" lon="10.17573673809139"><ele>108.0</ele><time>2026-03-25T08:20:20.001Z</time></trkpt><trkpt lat="44.733170449803026" lon="10.1760822170632"><ele>108.0</ele><time>2026-03-25T08:20:21.001Z</time></trkpt><trkpt lat="44.73337766890905" lon="10.176427615566325"><ele>107.0</ele><time>2026-03-25T08:20:22.001Z</time></trkpt><trkpt lat="44.73358419080725" lon="10.176769882965536"><ele>106.0</ele><time>2026-03-25T08:20:23.001Z</time></trkpt><trkpt lat="44.73379111238838" lon="10.177113663571781"><ele>106.5</ele><time>2026-03-25T08:20:24.001Z</time></trkpt><trkpt lat="44.73399730847317" lon="10.177455989781073"><ele>107.0</ele><time>2026-03-25T08:20:25Z</time></trkpt><trkpt lat="44.73420193405279" lon="10.177805117671333"><ele>106.5</ele><time>2026-03-25T08:20:26Z</time></trkpt><trkpt lat="44.73440839624757" lon="10.178149765680022"><ele>106.0</ele><time>2026-03-25T08:20:27Z</time></trkpt><trkpt lat="44.73461536387067" lon="10.17849704690761"><ele>106.0</ele><time>2026-03-25T08:20:28Z</time></trkpt><trkpt lat="44.73482244964133" lon="10.178842246510971"><ele>106.0</ele><time>2026-03-25T08:20:29Z</time></trkpt><trkpt lat="44.73502980765554" lon="10.179187547604107"><ele>106.0</ele><time>2026-03-25T08:20:30Z</time></trkpt><trkpt lat="44.73523644949749" lon="10.179532930179489"><ele>106.0</ele><time>2026-03-25T08:20:31Z</time></trkpt><trkpt lat="44.73544371119349" lon="10.179878554409175"><ele>107.5</ele><time>2026-03-25T08:20:32Z</time></trkpt><trkpt lat="44.7356502904393" lon="10.180224658007166"><ele>109.0</ele><time>2026-03-25T08:20:33Z</time></trkpt><trkpt lat="44.73585701121603" lon="10.180571615485636"><ele>107.5</ele><time>2026-03-25T08:20:34Z</time></trkpt><trkpt lat="44.736063963682696" lon="10.18091771860475"><ele>106.0</ele><time>2026-03-25T08:20:35Z</time></trkpt><trkpt lat="44.736270432433564" lon="10.18126528983744"><ele>107.0</ele><time>2026-03-25T08:20:36Z</time></trkpt><trkpt lat="44.73647717475907" lon="10.181611648606912"><ele>108.0</ele><time>2026-03-25T08:20:37Z</time></trkpt><trkpt lat="44.73668415596079" lon="10.181957365012446"><ele>108.5</ele><time>2026-03-25T08:20:38Z</time></trkpt><trkpt lat="44.73689076517394" lon="10.182304540596782"><ele>109.0</ele><time>2026-03-25T08:20:39Z</time></trkpt><trkpt lat="44.73709646251445" lon="10.182651353505019"><ele>109.5</ele><time>2026-03-25T08:20:40Z</time></trkpt><trkpt lat="44.73730301601331" lon="10.182998681198484"><ele>110.0</ele><time>2026-03-25T08:20:41Z</time></trkpt><trkpt lat="44.73750954943949" lon="10.183346018893282"><ele>110.5</ele><time>2026-03-25T08:20:42Z</time></trkpt><trkpt lat="44.737716980727626" lon="10.183693437374805"><ele>111.0</ele><time>2026-03-25T08:20:43Z</time></trkpt><trkpt lat="44.73792307761467" lon="10.18403923704753"><ele>111.0</ele><time>2026-03-25T08:20:44Z</time></trkpt><trkpt lat="44.738131017457206" lon="10.18438569341487"><ele>111.0</ele><time>2026-03-25T08:20:45Z</time></trkpt><trkpt lat="44.73833703402338" lon="10.184731608320341"><ele>111.5</ele><time>2026-03-25T08:20:46Z</time></trkpt><trkpt lat="44.73854342364526" lon="10.185077522484127"><ele>112.0</ele><time>2026-03-25T08:20:47Z</time></trkpt><trkpt lat="44.73874855492452" lon="10.185422269143988"><ele>111.0</ele><time>2026-03-25T08:20:48Z</time></trkpt><trkpt lat="44.738953600692994" lon="10.18576618001682"><ele>110.0</ele><time>2026-03-25T08:20:49Z</time></trkpt><trkpt lat="44.73915623432392" lon="10.18610705632594"><ele>110.0</ele><time>2026-03-25T08:20:50Z</time></trkpt><trkpt lat="44.73935760805521" lon="10.186445753309847"><ele>110.0</ele><time>2026-03-25T08:20:51Z</time></trkpt><trkpt lat="44.73955768333915" lon="10.18678236492763"><ele>110.0</ele><time>2026-03-25T08:20:52Z</time></trkpt><trkpt lat="44.73975662982685" lon="10.187114801325622"><ele>110.0</ele><time>2026-03-25T08:20:53Z</time></trkpt><trkpt lat="44.7399541032856" lon="10.18744496892108"><ele>110.0</ele><time>2026-03-25T08:20:54Z</time></trkpt><trkpt lat="44.740150732314156" lon="10.187774440284494"><ele>110.0</ele><time>2026-03-25T08:20:55Z</time></trkpt><trkpt lat="44.74034756029089" lon="10.188105563140072"><ele>110.0</ele><time>2026-03-25T08:20:56Z</time></trkpt><trkpt lat="44.74054354150305" lon="10.188433814807187"><ele>110.0</ele><time>2026-03-25T08:20:57Z</time></trkpt><trkpt lat="44.740738536249665" lon="10.188760005392899"><ele>110.5</ele><time>2026-03-25T08:20:58Z</time></trkpt><trkpt lat="44.74093171072584" lon="10.189083854365563"><ele>111.0</ele><time>2026-03-25T08:20:59Z</time></trkpt><trkpt lat="44.74112386439563" lon="10.189404879527062"><ele>111.0</ele><time>2026-03-25T08:21:00Z</time></trkpt><trkpt lat="44.74131379694757" lon="10.189725025512411"><ele>111.0</ele><time>2026-03-25T08:21:01Z</time></trkpt><trkpt lat="44.741503031958075" lon="10.190041924517933"><ele>111.5</ele><time>2026-03-25T08:21:02Z</time></trkpt><trkpt lat="44.74169026050655" lon="10.190357016871122"><ele>112.0</ele><time>2026-03-25T08:21:03Z</time></trkpt><trkpt lat="44.74187705880968" lon="10.190669583675843"><ele>111.5</ele><time>2026-03-25T08:21:04Z</time></trkpt><trkpt lat="44.74206225087187" lon="10.190980697440743"><ele>111.0</ele><time>2026-03-25T08:21:05Z</time></trkpt><trkpt lat="44.74224650939474" lon="10.191288143513875"><ele>111.5</ele><time>2026-03-25T08:21:06Z</time></trkpt><trkpt lat="44.74242824614492" lon="10.191593822582114"><ele>112.0</ele><time>2026-03-25T08:21:07Z</time></trkpt><trkpt lat="44.74261021531749" lon="10.191900040320364"><ele>111.5</ele><time>2026-03-25T08:21:08Z</time></trkpt><trkpt lat="44.74279087153905" lon="10.192206400830782"><ele>111.0</ele><time>2026-03-25T08:21:09Z</time></trkpt><trkpt lat="44.74297234986989" lon="10.192511268907415"><ele>111.0</ele><time>2026-03-25T08:21:10Z</time></trkpt><trkpt lat="44.74315259221452" lon="10.192813398614103"><ele>111.0</ele><time>2026-03-25T08:21:11Z</time></trkpt><trkpt lat="44.743331023543966" lon="10.193112114443151"><ele>111.0</ele><time>2026-03-25T08:21:12Z</time></trkpt><trkpt lat="44.74350892606091" lon="10.19340908506844"><ele>111.0</ele><time>2026-03-25T08:21:13Z</time></trkpt><trkpt lat="44.74368525362035" lon="10.193703185836435"><ele>110.5</ele><time>2026-03-25T08:21:14Z</time></trkpt><trkpt lat="44.743859469933916" lon="10.193996072787655"><ele>110.0</ele><time>2026-03-25T08:21:15Z</time></trkpt><trkpt lat="44.74403258936724" lon="10.194287197013345"><ele>110.5</ele><time>2026-03-25T08:21:16Z</time></trkpt><trkpt lat="44.74420541103868" lon="10.194576626255735"><ele>111.0</ele><time>2026-03-25T08:21:17Z</time></trkpt><trkpt lat="44.744377225393805" lon="10.194865055703534"><ele>111.0</ele><time>2026-03-25T08:21:18Z</time></trkpt><trkpt lat="44.74454862012601" lon="10.195152113109776"><ele>111.0</ele><time>2026-03-25T08:21:19Z</time></trkpt><trkpt lat="44.7447189030675" lon="10.195435251236253"><ele>110.5</ele><time>2026-03-25T08:21:20Z</time></trkpt><trkpt lat="44.74488786352733" lon="10.195718794325689"><ele>110.0</ele><time>2026-03-25T08:21:21Z</time></trkpt><trkpt lat="44.74505519914368" lon="10.195996686097088"><ele>109.5</ele><time>2026-03-25T08:21:22Z</time></trkpt><trkpt lat="44.74522051073948" lon="10.196272753744244"><ele>109.0</ele><time>2026-03-25T08:21:23Z</time></trkpt><trkpt lat="44.74538258456762" lon="10.196546051398105"><ele>108.5</ele><time>2026-03-25T08:21:24Z</time></trkpt><trkpt lat="44.74554329563249" lon="10.196817620727913"><ele>108.0</ele><time>2026-03-25T08:21:25Z</time></trkpt><trkpt lat="44.74570310663395" lon="10.19708761888434"><ele>108.5</ele><time>2026-03-25T08:21:26Z</time></trkpt><trkpt lat="44.74586101817288" lon="10.197355176889301"><ele>109.0</ele><time>2026-03-25T08:21:27Z</time></trkpt><trkpt lat="44.746018496744725" lon="10.197619265562947"><ele>108.5</ele><time>2026-03-25T08:21:28Z</time></trkpt><trkpt lat="44.74617348203216" lon="10.197882079540706"><ele>108.0</ele><time>2026-03-25T08:21:29Z</time></trkpt><trkpt lat="44.74632783255432" lon="10.198141156607136"><ele>108.5</ele><time>2026-03-25T08:21:30Z</time></trkpt><trkpt lat="44.74648136158608" lon="10.198397746023309"><ele>109.0</ele><time>2026-03-25T08:21:31Z</time></trkpt><trkpt lat="44.7466341978148" lon="10.198651753873127"><ele>109.0</ele><time>2026-03-25T08:21:32Z</time></trkpt><trkpt lat="44.74678750490811" lon="10.19890153172485"><ele>109.0</ele><time>2026-03-25T08:21:33Z</time></trkpt><trkpt lat="44.74694006202725" lon="10.199150741395593"><ele>108.5</ele><time>2026-03-25T08:21:34Z</time></trkpt><trkpt lat="44.7470927525656" lon="10.199400360266768"><ele>108.0</ele><time>2026-03-25T08:21:35Z</time></trkpt><trkpt lat="44.74724764451187" lon="10.199647629571006"><ele>108.5</ele><time>2026-03-25T08:21:36Z</time></trkpt><trkpt lat="44.74740184264756" lon="10.199891362366197"><ele>109.0</ele><time>2026-03-25T08:21:37Z</time></trkpt><trkpt lat="44.74755385320125" lon="10.200132750796337"><ele>109.0</ele><time>2026-03-25T08:21:38Z</time></trkpt><trkpt lat="44.74770562878064" lon="10.20037179387888"><ele>109.0</ele><time>2026-03-25T08:21:39Z</time></trkpt><trkpt lat="44.74785637791138" lon="10.200606631648474"><ele>108.33333333333334</ele><time>2026-03-25T08:21:40Z</time></trkpt><trkpt lat="44.74800552616972" lon="10.200839624367086"><ele>107.66666666666666</ele><time>2026-03-25T08:21:41Z</time></trkpt><trkpt lat="44.74815433404127" lon="10.201071823388933"><ele>107.0</ele><time>2026-03-25T08:21:42Z</time></trkpt><trkpt lat="44.748301023315776" lon="10.201302224195269"><ele>107.33333333333333</ele><time>2026-03-25T08:21:43Z</time></trkpt><trkpt lat="44.74844668041657" lon="10.20153183727448"><ele>107.66666666666666</ele><time>2026-03-25T08:21:44Z</time></trkpt><trkpt lat="44.74859115668759" lon="10.201757064676544"><ele>108.0</ele><time>2026-03-25T08:21:45Z</time></trkpt><trkpt lat="44.74873346532705" lon="10.201980376803869"><ele>107.33333333333334</ele><time>2026-03-25T08:21:46Z</time></trkpt><trkpt lat="44.74887421289016" lon="10.202201981449653"><ele>106.66666666666667</ele><time>2026-03-25T08:21:47Z</time></trkpt><trkpt lat="44.749013830683595" lon="10.202419817036578"><ele>106.0</ele><time>2026-03-25T08:21:48Z</time></trkpt><trkpt lat="44.74915243728036" lon="10.202636214167418"><ele>106.0</ele><time>2026-03-25T08:21:49Z</time></trkpt><trkpt lat="44.7492913248479" lon="10.20285247472821"><ele>106.0</ele><time>2026-03-25T08:21:50Z</time></trkpt><trkpt lat="44.74942865477697" lon="10.203066404081106"><ele>106.0</ele><time>2026-03-25T08:21:51Z</time></trkpt><trkpt lat="44.74956381624341" lon="10.203279447356795"><ele>105.66666666666667</ele><time>2026-03-25T08:21:52Z</time></trkpt><trkpt lat="44.74969789122757" lon="10.203489928040417"><ele>105.33333333333334</ele><time>2026-03-25T08:21:53Z</time></trkpt><trkpt lat="44.74983169992222" lon="10.203699881532588"><ele>105.0</ele><time>2026-03-25T08:21:54Z</time></trkpt><trkpt lat="44.74996515046182" lon="10.203910257034389"><ele>105.0</ele><time>2026-03-25T08:21:55Z</time></trkpt><trkpt lat="44.75009812412218" lon="10.204119648941637"><ele>105.0</ele><time>2026-03-25T08:21:56Z</time></trkpt><trkpt lat="44.75022986310699" lon="10.204326362493498"><ele>105.0</ele><time>2026-03-25T08:21:57Z</time></trkpt><trkpt lat="44.75035936729496" lon="10.204528786878852"><ele>105.0</ele><time>2026-03-25T08:21:58Z</time></trkpt><trkpt lat="44.750486060228326" lon="10.204729883808406"><ele>105.0</ele><time>2026-03-25T08:21:59Z</time></trkpt><trkpt lat="44.75061129966637" lon="10.20492843318316"><ele>105.0</ele><time>2026-03-25T08:22:00Z</time></trkpt><trkpt lat="44.750735237699935" lon="10.205124446207366"><ele>105.33333333333334</ele><time>2026-03-25T08:22:01Z</time></trkpt><trkpt lat="44.75085614487737" lon="10.205321435593559"><ele>105.66666666666667</ele><time>2026-03-25T08:22:02Z</time></trkpt><trkpt lat="44.75097954560409" lon="10.205512800894924"><ele>106.0</ele><time>2026-03-25T08:22:03Z</time></trkpt><trkpt lat="44.75110192555754" lon="10.205704999820991"><ele>106.0</ele><time>2026-03-25T08:22:04Z</time></trkpt><trkpt lat="44.75122412673932" lon="10.20589292925812"><ele>106.0</ele><time>2026-03-25T08:22:05Z</time></trkpt><trkpt lat="44.75134346082961" lon="10.206079228756264"><ele>106.0</ele><time>2026-03-25T08:22:06Z</time></trkpt><trkpt lat="44.7514620557909" lon="10.206263290166198"><ele>106.0</ele><time>2026-03-25T08:22:07.001Z</time></trkpt><trkpt lat="44.75157959740618" lon="10.20644364243128"><ele>106.0</ele><time>2026-03-25T08:22:08.001Z</time></trkpt><trkpt lat="44.75169716339648" lon="10.20662236822136"><ele>106.0</ele><time>2026-03-25T08:22:09.001Z</time></trkpt><trkpt lat="44.751812443355234" lon="10.206796261718223"><ele>105.66666666666667</ele><time>2026-03-25T08:22:10.001Z</time></trkpt><trkpt lat="44.75191680842448" lon="10.206968018970796"><ele>105.33333333333334</ele><time>2026-03-25T08:22:11.001Z</time></trkpt><trkpt lat="44.7520258675686" lon="10.207141294424732"><ele>105.0</ele><time>2026-03-25T08:22:12.001Z</time></trkpt><trkpt lat="44.7521392229276" lon="10.207315181997064"><ele>105.66666666666666</ele><time>2026-03-25T08:22:13.001Z</time></trkpt><trkpt lat="44.752250760112695" lon="10.207490465239564"><ele>106.33333333333333</ele><time>2026-03-25T08:22:14.001Z</time></trkpt><trkpt lat="44.752359348304054" lon="10.207662302229851"><ele>107.0</ele><time>2026-03-25T08:22:15.001Z</time></trkpt><trkpt lat="44.752466861668694" lon="10.207828087442518"><ele>107.0</ele><time>2026-03-25T08:22:16.001Z</time></trkpt><trkpt lat="44.7525729319658" lon="10.207992421143132"><ele>107.0</ele><time>2026-03-25T08:22:17.001Z</time></trkpt><trkpt lat="44.752676285504876" lon="10.208156725110088"><ele>107.0</ele><time>2026-03-25T08:22:18.001Z</time></trkpt><trkpt lat="44.75277784339106" lon="10.208317607497744"><ele>106.75</ele><time>2026-03-25T08:22:19.001Z</time></trkpt><trkpt lat="44.75287824629785" lon="10.208475930479743"><ele>106.5</ele><time>2026-03-25T08:22:20.001Z</time></trkpt><trkpt lat="44.75297533940052" lon="10.208629770720295"><ele>106.25</ele><time>2026-03-25T08:22:21.001Z</time></trkpt><trkpt lat="44.75306422909675" lon="10.208776542053862"><ele>106.0</ele><time>2026-03-25T08:22:22.001Z</time></trkpt><trkpt lat="44.75316050170964" lon="10.208919089920803"><ele>106.0</ele><time>2026-03-25T08:22:23.001Z</time></trkpt><trkpt lat="44.753253010764666" lon="10.20905891544698"><ele>106.0</ele><time>2026-03-25T08:22:24.001Z</time></trkpt><trkpt lat="44.75334624003762" lon="10.209193471857494"><ele>106.0</ele><time>2026-03-25T08:22:25.001Z</time></trkpt><trkpt lat="44.75344194899573" lon="10.209334796698023"><ele>106.0</ele><time>2026-03-25T08:22:26.001Z</time></trkpt><trkpt lat="44.75353437079285" lon="10.209482171295907"><ele>106.25</ele><time>2026-03-25T08:22:27.001Z</time></trkpt><trkpt lat="44.753623612306065" lon="10.2096159695199"><ele>106.5</ele><time>2026-03-25T08:22:28.001Z</time></trkpt><trkpt lat="44.75371344653896" lon="10.209755937828701"><ele>106.75</ele><time>2026-03-25T08:22:29.001Z</time></trkpt><trkpt lat="44.75380583157266" lon="10.209879579374947"><ele>107.0</ele><time>2026-03-25T08:22:30.001Z</time></trkpt><trkpt lat="44.753891391272276" lon="10.209999596012159"><ele>106.5</ele><time>2026-03-25T08:22:31.001Z</time></trkpt><trkpt lat="44.753976431942846" lon="10.21012709454349"><ele>106.0</ele><time>2026-03-25T08:22:32.001Z</time></trkpt><trkpt lat="44.754061625563295" lon="10.210256055239052"><ele>105.5</ele><time>2026-03-25T08:22:33.001Z</time></trkpt><trkpt lat="44.754143161895094" lon="10.210369828059747"><ele>105.0</ele><time>2026-03-25T08:22:34Z</time></trkpt><trkpt lat="44.75419259161276" lon="10.210474391920501"><ele>105.0</ele><time>2026-03-25T08:22:35Z</time></trkpt><trkpt lat="44.75426241021866" lon="10.210584343624213"><ele>105.0</ele><time>2026-03-25T08:22:36Z</time></trkpt><trkpt lat="44.754323225204146" lon="10.21068400167162"><ele>105.0</ele><time>2026-03-25T08:22:37Z</time></trkpt><trkpt lat="44.754383765931586" lon="10.210776862764526"><ele>105.0</ele><time>2026-03-25T08:22:38Z</time></trkpt><trkpt lat="44.75444151483414" lon="10.210866282217978"><ele>105.0</ele><time>2026-03-25T08:22:39Z</time></trkpt><trkpt lat="44.75449519422225" lon="10.210948575865293"><ele>104.83333333333333</ele><time>2026-03-25T08:22:40Z</time></trkpt><trkpt lat="44.75454877502257" lon="10.211030479538662"><ele>104.66666666666666</ele><time>2026-03-25T08:22:41Z</time></trkpt><trkpt lat="44.75459649803048" lon="10.211108410353017"><ele>104.5</ele><time>2026-03-25T08:22:42Z</time></trkpt><trkpt lat="44.75464810470571" lon="10.211192945729717"><ele>104.33333333333333</ele><time>2026-03-25T08:22:43Z</time></trkpt><trkpt lat="44.754697946488335" lon="10.211281158700944"><ele>104.16666666666666</ele><time>2026-03-25T08:22:44Z</time></trkpt><trkpt lat="44.75474358950757" lon="10.211357581499545"><ele>104.0</ele><time>2026-03-25T08:22:45Z</time></trkpt><trkpt lat="44.75478769327515" lon="10.211432009507705"><ele>104.49999999999999</ele><time>2026-03-25T08:22:46Z</time></trkpt><trkpt lat="44.754832730601834" lon="10.211499818047189"><ele>105.0</ele><time>2026-03-25T08:22:47Z</time></trkpt><trkpt lat="44.75491000701319" lon="10.211602137806588"><ele>105.5</ele><time>2026-03-25T08:22:49Z</time></trkpt><trkpt lat="44.754972720998" lon="10.211679364224254"><ele>106.0</ele><time>2026-03-25T08:22:51Z</time></trkpt><trkpt lat="44.75503463862801" lon="10.211752806395474"><ele>106.49999999999999</ele><time>2026-03-25T08:22:53Z</time></trkpt><trkpt lat="44.75510518161966" lon="10.211830463771147"><ele>107.0</ele><time>2026-03-25T08:22:55Z</time></trkpt><trkpt lat="44.75503805172961" lon="10.21179632861189"><ele>107.0</ele><time>2026-03-25T08:23:00Z</time></trkpt><trkpt lat="44.75518469811544" lon="10.212066286121987"><ele>107.0</ele><time>2026-03-25T08:23:45Z</time></trkpt><trkpt lat="44.75526909032934" lon="10.212199541094094"><ele>107.0</ele><time>2026-03-25T08:23:47Z</time></trkpt><trkpt lat="44.755316894632536" lon="10.212274469898855"><ele>107.0</ele><time>2026-03-25T08:23:48Z</time></trkpt><trkpt lat="44.75536863115456" lon="10.212356636866826"><ele>106.8</ele><time>2026-03-25T08:23:49Z</time></trkpt><trkpt lat="44.75542379805364" lon="10.212444054858356"><ele>106.6</ele><time>2026-03-25T08:23:50Z</time></trkpt><trkpt lat="44.755483478191415" lon="10.21253791352186"><ele>106.39999999999999</ele><time>2026-03-25T08:23:51Z</time></trkpt><trkpt lat="44.75554724133908" lon="10.212638811071647"><ele>106.19999999999999</ele><time>2026-03-25T08:23:52Z</time></trkpt><trkpt lat="44.755614265565065" lon="10.212744053952994"><ele>106.0</ele><time>2026-03-25T08:23:53Z</time></trkpt><trkpt lat="44.755686467458936" lon="10.212856743371479"><ele>106.0</ele><time>2026-03-25T08:23:54Z</time></trkpt><trkpt lat="44.755760202560424" lon="10.212973520008362"><ele>106.0</ele><time>2026-03-25T08:23:55Z</time></trkpt><trkpt lat="44.75524550786069" lon="10.21226337528298"><ele>106.0</ele><time>2026-03-25T08:23:56Z</time></trkpt><trkpt lat="44.75528353553678" lon="10.2123403784112"><ele>106.0</ele><time>2026-03-25T08:23:57Z</time></trkpt><trkpt lat="44.755395249889304" lon="10.212471080300936"><ele>106.0</ele><time>2026-03-25T08:23:58Z</time></trkpt><trkpt lat="44.75544465391986" lon="10.212623874150083"><ele>106.0</ele><time>2026-03-25T08:23:59Z</time></trkpt><trkpt lat="44.75547688810252" lon="10.212732587112184"><ele>106.0</ele><time>2026-03-25T08:24:00Z</time></trkpt><trkpt lat="44.75563768425155" lon="10.212958164284663"><ele>106.66666666666667</ele><time>2026-03-25T08:24:01Z</time></trkpt><trkpt lat="44.75575952186927" lon="10.213164514546278"><ele>107.33333333333334</ele><time>2026-03-25T08:24:02Z</time></trkpt><trkpt lat="44.7558613262814" lon="10.213334660528064"><ele>108.0</ele><time>2026-03-25T08:24:03Z</time></trkpt><trkpt lat="44.755966443771236" lon="10.21351788101014"><ele>106.5</ele><time>2026-03-25T08:24:04Z</time></trkpt><trkpt lat="44.756189949227974" lon="10.213631264560291"><ele>105.0</ele><time>2026-03-25T08:24:05Z</time></trkpt><trkpt lat="44.75633318712752" lon="10.213858511131665"><ele>106.0</ele><time>2026-03-25T08:24:06Z</time></trkpt><trkpt lat="44.75649634298807" lon="10.21409933367514"><ele>107.0</ele><time>2026-03-25T08:24:07Z</time></trkpt><trkpt lat="44.75662617618698" lon="10.214302223274704"><ele>108.0</ele><time>2026-03-25T08:24:08Z</time></trkpt><trkpt lat="44.756831079478296" lon="10.214660165897834"><ele>108.0</ele><time>2026-03-25T08:24:09Z</time></trkpt><trkpt lat="44.75677473451732" lon="10.214730938285557"><ele>108.00000000000001</ele><time>2026-03-25T08:24:10Z</time></trkpt><trkpt lat="44.756833830960986" lon="10.214883828622641"><ele>108.00000000000001</ele><time>2026-03-25T08:24:13.001Z</time></trkpt><trkpt lat="44.75687257339403" lon="10.214980892715968"><ele>108.0</ele><time>2026-03-25T08:24:14.001Z</time></trkpt><trkpt lat="44.75695010649592" lon="10.21515379047472"><ele>108.0</ele><time>2026-03-25T08:24:15.001Z</time></trkpt><trkpt lat="44.75707488599458" lon="10.215435770836558"><ele>108.0</ele><time>2026-03-25T08:24:16.001Z</time></trkpt><trkpt lat="44.75724245283808" lon="10.215814609694808"><ele>108.0</ele><time>2026-03-25T08:24:17.001Z</time></trkpt><trkpt lat="44.75737562177934" lon="10.21610327232893"><ele>108.0</ele><time>2026-03-25T08:24:18.001Z</time></trkpt><trkpt lat="44.75754338347129" lon="10.21644475540471"><ele>108.0</ele><time>2026-03-25T08:24:19.001Z</time></trkpt><trkpt lat="44.757717197505286" lon="10.21679926465088"><ele>108.0</ele><time>2026-03-25T08:24:20.001Z</time></trkpt><trkpt lat="44.75787751370579" lon="10.217102266007862"><ele>108.0</ele><time>2026-03-25T08:24:21.001Z</time></trkpt><trkpt lat="44.75820863122704" lon="10.217527018598359"><ele>107.5</ele><time>2026-03-25T08:24:22.001Z</time></trkpt><trkpt lat="44.75847448662838" lon="10.217894305686102"><ele>107.0</ele><time>2026-03-25T08:24:23.001Z</time></trkpt><trkpt lat="44.75874407825815" lon="10.21826484554286"><ele>106.5</ele><time>2026-03-25T08:24:24.001Z</time></trkpt><trkpt lat="44.75901722012085" lon="10.218636755385484"><ele>106.0</ele><time>2026-03-25T08:24:25.001Z</time></trkpt><trkpt lat="44.75929311678747" lon="10.219013752862562"><ele>106.0</ele><time>2026-03-25T08:24:26.001Z</time></trkpt><trkpt lat="44.759538596852266" lon="10.21934005284906"><ele>106.0</ele><time>2026-03-25T08:24:27.001Z</time></trkpt><trkpt lat="44.75979038521016" lon="10.21966816206084"><ele>105.5</ele><time>2026-03-25T08:24:28.001Z</time></trkpt><trkpt lat="44.760076766629766" lon="10.220010603992906"><ele>105.0</ele><time>2026-03-25T08:24:29.001Z</time></trkpt><trkpt lat="44.76033097721095" lon="10.220330362507108"><ele>105.0</ele><time>2026-03-25T08:24:30.001Z</time></trkpt><trkpt lat="44.760543453054694" lon="10.220635341493129"><ele>105.0</ele><time>2026-03-25T08:24:31.001Z</time></trkpt><trkpt lat="44.7607518413852" lon="10.220966457798147"><ele>105.0</ele><time>2026-03-25T08:24:32.001Z</time></trkpt><trkpt lat="44.76095049224697" lon="10.221275056412534"><ele>105.0</ele><time>2026-03-25T08:24:33.001Z</time></trkpt><trkpt lat="44.761145876787396" lon="10.221582547413098"><ele>103.5</ele><time>2026-03-25T08:24:34.001Z</time></trkpt><trkpt lat="44.761344171813256" lon="10.221898413309905"><ele>102.0</ele><time>2026-03-25T08:24:35.001Z</time></trkpt><trkpt lat="44.761581636488955" lon="10.222199125390016"><ele>102.5</ele><time>2026-03-25T08:24:36.001Z</time></trkpt><trkpt lat="44.76177199856654" lon="10.222519733924988"><ele>103.0</ele><time>2026-03-25T08:24:37.001Z</time></trkpt><trkpt lat="44.76196717433741" lon="10.22283618130567"><ele>102.5</ele><time>2026-03-25T08:24:38Z</time></trkpt><trkpt lat="44.76216975539204" lon="10.223160961509706"><ele>102.0</ele><time>2026-03-25T08:24:39Z</time></trkpt><trkpt lat="44.76237704896043" lon="10.22348620761021"><ele>102.0</ele><time>2026-03-25T08:24:40Z</time></trkpt><trkpt lat="44.762583675406255" lon="10.223818317832597"><ele>102.0</ele><time>2026-03-25T08:24:41Z</time></trkpt><trkpt lat="44.762795738403526" lon="10.224148123968293"><ele>102.5</ele><time>2026-03-25T08:24:42Z</time></trkpt><trkpt lat="44.76300502854456" lon="10.22448119805815"><ele>103.0</ele><time>2026-03-25T08:24:43Z</time></trkpt><trkpt lat="44.76321522682216" lon="10.224815074334531"><ele>103.0</ele><time>2026-03-25T08:24:44Z</time></trkpt><trkpt lat="44.7634254603422" lon="10.22514932833441"><ele>103.0</ele><time>2026-03-25T08:24:45Z</time></trkpt><trkpt lat="44.76363650950484" lon="10.225480375880606"><ele>102.0</ele><time>2026-03-25T08:24:46Z</time></trkpt><trkpt lat="44.76385065523784" lon="10.225815497133063"><ele>101.0</ele><time>2026-03-25T08:24:47Z</time></trkpt><trkpt lat="44.76406525070566" lon="10.226146054809576"><ele>101.5</ele><time>2026-03-25T08:24:48Z</time></trkpt><trkpt lat="44.764286130101546" lon="10.226478568722975"><ele>102.0</ele><time>2026-03-25T08:24:49Z</time></trkpt><trkpt lat="44.764500553184526" lon="10.22681190375877"><ele>101.5</ele><time>2026-03-25T08:24:50Z</time></trkpt><trkpt lat="44.76471427841926" lon="10.22714746308501"><ele>101.0</ele><time>2026-03-25T08:24:51Z</time></trkpt><trkpt lat="44.76492427773644" lon="10.22748686961469"><ele>101.0</ele><time>2026-03-25T08:24:52Z</time></trkpt><trkpt lat="44.765141580310114" lon="10.227818362456741"><ele>101.0</ele><time>2026-03-25T08:24:53Z</time></trkpt><trkpt lat="44.76536176845007" lon="10.228151735111997"><ele>99.5</ele><time>2026-03-25T08:24:54Z</time></trkpt><trkpt lat="44.765574342252116" lon="10.228482608904766"><ele>98.0</ele><time>2026-03-25T08:24:55Z</time></trkpt><trkpt lat="44.76578744642309" lon="10.22881816897808"><ele>98.0</ele><time>2026-03-25T08:24:56Z</time></trkpt><trkpt lat="44.766001562197566" lon="10.229152476970466"><ele>98.0</ele><time>2026-03-25T08:24:57Z</time></trkpt><trkpt lat="44.766216604625306" lon="10.229488061532937"><ele>99.0</ele><time>2026-03-25T08:24:58Z</time></trkpt><trkpt lat="44.76643498593588" lon="10.229824540380557"><ele>100.0</ele><time>2026-03-25T08:24:59Z</time></trkpt><trkpt lat="44.76664734111082" lon="10.230157204051965"><ele>100.0</ele><time>2026-03-25T08:25:00Z</time></trkpt><trkpt lat="44.76686075893103" lon="10.23049065836557"><ele>100.0</ele><time>2026-03-25T08:25:01Z</time></trkpt><trkpt lat="44.76707499136365" lon="10.230822907895716"><ele>98.0</ele><time>2026-03-25T08:25:02Z</time></trkpt><trkpt lat="44.76729055775203" lon="10.231152018676422"><ele>96.0</ele><time>2026-03-25T08:25:03Z</time></trkpt><trkpt lat="44.76750803396086" lon="10.23149103001248"><ele>96.0</ele><time>2026-03-25T08:25:04Z</time></trkpt><trkpt lat="44.76772215870289" lon="10.23182953512055"><ele>96.0</ele><time>2026-03-25T08:25:05Z</time></trkpt><trkpt lat="44.76792799691245" lon="10.232182867506522"><ele>96.5</ele><time>2026-03-25T08:25:06Z</time></trkpt><trkpt lat="44.76813070113786" lon="10.232538596657276"><ele>97.0</ele><time>2026-03-25T08:25:07Z</time></trkpt><trkpt lat="44.76833119699874" lon="10.232906861364514"><ele>96.0</ele><time>2026-03-25T08:25:08Z</time></trkpt><trkpt lat="44.76852387685256" lon="10.23327658922252"><ele>95.0</ele><time>2026-03-25T08:25:09Z</time></trkpt><trkpt lat="44.76870691856037" lon="10.23364334268655"><ele>95.0</ele><time>2026-03-25T08:25:10Z</time></trkpt><trkpt lat="44.768884513882696" lon="10.234013722418004"><ele>95.0</ele><time>2026-03-25T08:25:11Z</time></trkpt><trkpt lat="44.769053094223466" lon="10.234392257592614"><ele>95.0</ele><time>2026-03-25T08:25:12Z</time></trkpt><trkpt lat="44.76921312486908" lon="10.234773215777857"><ele>95.0</ele><time>2026-03-25T08:25:13Z</time></trkpt><trkpt lat="44.76937131553041" lon="10.235154411951433"><ele>94.0</ele><time>2026-03-25T08:25:14Z</time></trkpt><trkpt lat="44.76951909266614" lon="10.235538539923851"><ele>93.0</ele><time>2026-03-25T08:25:15Z</time></trkpt><trkpt lat="44.769672726678316" lon="10.235928189671304"><ele>93.0</ele><time>2026-03-25T08:25:16Z</time></trkpt><trkpt lat="44.7698190915332" lon="10.236319143327366"><ele>93.0</ele><time>2026-03-25T08:25:17Z</time></trkpt><trkpt lat="44.76996875351339" lon="10.23669822217703"><ele>93.5</ele><time>2026-03-25T08:25:18Z</time></trkpt><trkpt lat="44.77011774019467" lon="10.237078298967182"><ele>94.0</ele><time>2026-03-25T08:25:19Z</time></trkpt><trkpt lat="44.770262398344826" lon="10.237448428893675"><ele>93.0</ele><time>2026-03-25T08:25:20Z</time></trkpt><trkpt lat="44.770405355156484" lon="10.23782080638508"><ele>92.0</ele><time>2026-03-25T08:25:21Z</time></trkpt><trkpt lat="44.77054837929907" lon="10.238191596375694"><ele>92.0</ele><time>2026-03-25T08:25:22Z</time></trkpt><trkpt lat="44.7706862732891" lon="10.238556851395566"><ele>92.0</ele><time>2026-03-25T08:25:23Z</time></trkpt><trkpt lat="44.7708264520615" lon="10.23891820484702"><ele>91.5</ele><time>2026-03-25T08:25:24Z</time></trkpt><trkpt lat="44.770963772554026" lon="10.239286352809648"><ele>91.0</ele><time>2026-03-25T08:25:25Z</time></trkpt><trkpt lat="44.77110412167929" lon="10.239649565716826"><ele>91.5</ele><time>2026-03-25T08:25:26Z</time></trkpt><trkpt lat="44.77124547859872" lon="10.240011062063017"><ele>92.0</ele><time>2026-03-25T08:25:27Z</time></trkpt><trkpt lat="44.77138815626346" lon="10.240373143074667"><ele>92.0</ele><time>2026-03-25T08:25:28Z</time></trkpt><trkpt lat="44.77152988610089" lon="10.240734099190314"><ele>92.0</ele><time>2026-03-25T08:25:29Z</time></trkpt><trkpt lat="44.771669309894726" lon="10.241089272509202"><ele>92.0</ele><time>2026-03-25T08:25:30Z</time></trkpt><trkpt lat="44.77180960114623" lon="10.241444962638207"><ele>92.0</ele><time>2026-03-25T08:25:31Z</time></trkpt><trkpt lat="44.77194982500488" lon="10.241794906564582"><ele>90.5</ele><time>2026-03-25T08:25:32Z</time></trkpt><trkpt lat="44.772087359654876" lon="10.242142992111923"><ele>89.0</ele><time>2026-03-25T08:25:33Z</time></trkpt><trkpt lat="44.77222416262233" lon="10.242488672432337"><ele>89.0</ele><time>2026-03-25T08:25:34Z</time></trkpt><trkpt lat="44.77235916123538" lon="10.24283204671901"><ele>89.0</ele><time>2026-03-25T08:25:35Z</time></trkpt><trkpt lat="44.77249327122174" lon="10.243173938897913"><ele>89.0</ele><time>2026-03-25T08:25:36Z</time></trkpt><trkpt lat="44.77262624980427" lon="10.243514594702722"><ele>89.0</ele><time>2026-03-25T08:25:37Z</time></trkpt><trkpt lat="44.77275864652935" lon="10.243852745556023"><ele>88.5</ele><time>2026-03-25T08:25:38Z</time></trkpt><trkpt lat="44.77288859214658" lon="10.244186887933454"><ele>88.0</ele><time>2026-03-25T08:25:39Z</time></trkpt><trkpt lat="44.773019870847335" lon="10.244518954901892"><ele>88.0</ele><time>2026-03-25T08:25:40Z</time></trkpt><trkpt lat="44.77314697461629" lon="10.244846333403826"><ele>88.0</ele><time>2026-03-25T08:25:41Z</time></trkpt><trkpt lat="44.77327439397136" lon="10.245172029214785"><ele>88.0</ele><time>2026-03-25T08:25:42Z</time></trkpt><trkpt lat="44.77340069278395" lon="10.245493070679403"><ele>88.0</ele><time>2026-03-25T08:25:43Z</time></trkpt><trkpt lat="44.77352380265221" lon="10.245807346975212"><ele>87.0</ele><time>2026-03-25T08:25:44Z</time></trkpt><trkpt lat="44.77364768062203" lon="10.246120119316485"><ele>86.0</ele><time>2026-03-25T08:25:45Z</time></trkpt><trkpt lat="44.77376652674714" lon="10.246424597867197"><ele>85.5</ele><time>2026-03-25T08:25:46Z</time></trkpt><trkpt lat="44.77388395529799" lon="10.24672869896705"><ele>85.0</ele><time>2026-03-25T08:25:47Z</time></trkpt><trkpt lat="44.77400118002868" lon="10.247026788610889"><ele>86.0</ele><time>2026-03-25T08:25:48Z</time></trkpt><trkpt lat="44.77411659000791" lon="10.247320935399273"><ele>87.0</ele><time>2026-03-25T08:25:49Z</time></trkpt><trkpt lat="44.7742306946979" lon="10.24761238325523"><ele>87.0</ele><time>2026-03-25T08:25:50Z</time></trkpt><trkpt lat="44.77434430268828" lon="10.247901020829008"><ele>87.0</ele><time>2026-03-25T08:25:51Z</time></trkpt><trkpt lat="44.77445590935826" lon="10.24818442067745"><ele>86.66666666666667</ele><time>2026-03-25T08:25:52Z</time></trkpt><trkpt lat="44.77456735134262" lon="10.24846614895057"><ele>86.33333333333334</ele><time>2026-03-25T08:25:53Z</time></trkpt><trkpt lat="44.77467391403301" lon="10.248737338255717"><ele>86.0</ele><time>2026-03-25T08:25:54Z</time></trkpt><trkpt lat="44.77477950932704" lon="10.249013141295439"><ele>86.0</ele><time>2026-03-25T08:25:55Z</time></trkpt><trkpt lat="44.7748867160776" lon="10.2492754200949"><ele>86.0</ele><time>2026-03-25T08:25:56Z</time></trkpt><trkpt lat="44.774987786448015" lon="10.249527486523633"><ele>86.0</ele><time>2026-03-25T08:25:57Z</time></trkpt><trkpt lat="44.77508226189083" lon="10.249777262036616"><ele>86.0</ele><time>2026-03-25T08:25:58Z</time></trkpt><trkpt lat="44.775179501448946" lon="10.250022433481304"><ele>86.0</ele><time>2026-03-25T08:25:59Z</time></trkpt><trkpt lat="44.77527473440181" lon="10.250267341322184"><ele>86.0</ele><time>2026-03-25T08:26:00Z</time></trkpt><trkpt lat="44.7753648618187" lon="10.250514249923043"><ele>85.0</ele><time>2026-03-25T08:26:01Z</time></trkpt><trkpt lat="44.775462653778426" lon="10.25074794526292"><ele>84.0</ele><time>2026-03-25T08:26:02Z</time></trkpt><trkpt lat="44.77554722366528" lon="10.250969919975429"><ele>83.0</ele><time>2026-03-25T08:26:03Z</time></trkpt><trkpt lat="44.7756352083565" lon="10.251197107499989"><ele>83.0</ele><time>2026-03-25T08:26:04Z</time></trkpt><trkpt lat="44.77572102617556" lon="10.251419931530787"><ele>83.0</ele><time>2026-03-25T08:26:05Z</time></trkpt><trkpt lat="44.775808033570044" lon="10.251640065197272"><ele>83.0</ele><time>2026-03-25T08:26:06Z</time></trkpt><trkpt lat="44.775891651761036" lon="10.251854785885422"><ele>83.0</ele><time>2026-03-25T08:26:07Z</time></trkpt><trkpt lat="44.775974370017714" lon="10.252068045015685"><ele>83.0</ele><time>2026-03-25T08:26:08Z</time></trkpt><trkpt lat="44.77605691626022" lon="10.252274019071962"><ele>83.0</ele><time>2026-03-25T08:26:09Z</time></trkpt><trkpt lat="44.77613346442739" lon="10.252475901712263"><ele>83.33333333333334</ele><time>2026-03-25T08:26:10Z</time></trkpt><trkpt lat="44.77621072959079" lon="10.2526762395876"><ele>83.66666666666667</ele><time>2026-03-25T08:26:11Z</time></trkpt><trkpt lat="44.776287573300294" lon="10.252873781629793"><ele>84.0</ele><time>2026-03-25T08:26:12Z</time></trkpt><trkpt lat="44.7763656869069" lon="10.253070671468098"><ele>83.66666666666667</ele><time>2026-03-25T08:26:13Z</time></trkpt><trkpt lat="44.77644301829083" lon="10.253268950890892"><ele>83.33333333333334</ele><time>2026-03-25T08:26:14Z</time></trkpt><trkpt lat="44.77651760894708" lon="10.253457971209254"><ele>83.0</ele><time>2026-03-25T08:26:15Z</time></trkpt><trkpt lat="44.776591699441155" lon="10.253649234027085"><ele>83.0</ele><time>2026-03-25T08:26:16Z</time></trkpt><trkpt lat="44.7766653382525" lon="10.253837749674156"><ele>83.0</ele><time>2026-03-25T08:26:17Z</time></trkpt><trkpt lat="44.776736699292194" lon="10.254023854077676"><ele>83.0</ele><time>2026-03-25T08:26:18Z</time></trkpt><trkpt lat="44.776807632009785" lon="10.254206202582587"><ele>82.5</ele><time>2026-03-25T08:26:19.001Z</time></trkpt><trkpt lat="44.776877678903745" lon="10.254385357950786"><ele>82.0</ele><time>2026-03-25T08:26:20.001Z</time></trkpt><trkpt lat="44.776946296266715" lon="10.25456229366459"><ele>81.5</ele><time>2026-03-25T08:26:21.001Z</time></trkpt><trkpt lat="44.777013732864596" lon="10.254734757026812"><ele>81.0</ele><time>2026-03-25T08:26:22.001Z</time></trkpt><trkpt lat="44.77708030737015" lon="10.254904411592141"><ele>81.0</ele><time>2026-03-25T08:26:23.001Z</time></trkpt><trkpt lat="44.77714624968438" lon="10.255079727330246"><ele>81.0</ele><time>2026-03-25T08:26:24.001Z</time></trkpt><trkpt lat="44.777212004071636" lon="10.255248437631366"><ele>81.0</ele><time>2026-03-25T08:26:25.001Z</time></trkpt><trkpt lat="44.77727716464454" lon="10.255418171764902"><ele>81.0</ele><time>2026-03-25T08:26:26.001Z</time></trkpt><trkpt lat="44.7773418075652" lon="10.255586976259469"><ele>81.75</ele><time>2026-03-25T08:26:27.001Z</time></trkpt><trkpt lat="44.77740490026992" lon="10.25575148176346"><ele>82.5</ele><time>2026-03-25T08:26:28.001Z</time></trkpt><trkpt lat="44.777468365220386" lon="10.255916786084427"><ele>83.25</ele><time>2026-03-25T08:26:29.001Z</time></trkpt><trkpt lat="44.77753052950537" lon="10.256076854652145"><ele>84.0</ele><time>2026-03-25T08:26:30.001Z</time></trkpt><trkpt lat="44.77759136954436" lon="10.25623701659923"><ele>84.0</ele><time>2026-03-25T08:26:31.001Z</time></trkpt><trkpt lat="44.77765250741925" lon="10.256394460690617"><ele>84.0</ele><time>2026-03-25T08:26:32.001Z</time></trkpt><trkpt lat="44.777712646735395" lon="10.256546919420197"><ele>84.0</ele><time>2026-03-25T08:26:33.001Z</time></trkpt><trkpt lat="44.77777189120859" lon="10.25669967299144"><ele>84.0</ele><time>2026-03-25T08:26:34.001Z</time></trkpt><trkpt lat="44.77783124124925" lon="10.256847786686992"><ele>83.6</ele><time>2026-03-25T08:26:35.001Z</time></trkpt><trkpt lat="44.77788750677552" lon="10.256990529043508"><ele>83.2</ele><time>2026-03-25T08:26:36.001Z</time></trkpt><trkpt lat="44.777943782483696" lon="10.257128687303618"><ele>82.8</ele><time>2026-03-25T08:26:37.001Z</time></trkpt><trkpt lat="44.777995775273894" lon="10.257264695616653"><ele>82.39999999999999</ele><time>2026-03-25T08:26:38.001Z</time></trkpt><trkpt lat="44.778046633590485" lon="10.257397507056183"><ele>82.0</ele><time>2026-03-25T08:26:39.001Z</time></trkpt><trkpt lat="44.77809715091827" lon="10.25752296203934"><ele>82.0</ele><time>2026-03-25T08:26:40.001Z</time></trkpt><trkpt lat="44.778146820471584" lon="10.257648736434874"><ele>82.0</ele><time>2026-03-25T08:26:41.001Z</time></trkpt><trkpt lat="44.778192641528626" lon="10.257767011977583"><ele>82.0</ele><time>2026-03-25T08:26:42.001Z</time></trkpt><trkpt lat="44.778237665976114" lon="10.257877687793835"><ele>82.0</ele><time>2026-03-25T08:26:43.001Z</time></trkpt><trkpt lat="44.77827860913665" lon="10.25798439832324"><ele>82.0</ele><time>2026-03-25T08:26:44.001Z</time></trkpt><trkpt lat="44.77831586605944" lon="10.2580824621547"><ele>82.16666666666666</ele><time>2026-03-25T08:26:45.001Z</time></trkpt><trkpt lat="44.77835224154499" lon="10.258174673802882"><ele>82.33333333333333</ele><time>2026-03-25T08:26:46.001Z</time></trkpt><trkpt lat="44.77838482567936" lon="10.258260290875462"><ele>82.5</ele><time>2026-03-25T08:26:47.001Z</time></trkpt><trkpt lat="44.77844254310492" lon="10.258407755770726"><ele>82.66666666666667</ele><time>2026-03-25T08:26:49.001Z</time></trkpt><trkpt lat="44.77849060182265" lon="10.258524210281394"><ele>82.83333333333334</ele><time>2026-03-25T08:26:51.001Z</time></trkpt><trkpt lat="44.7785274137611" lon="10.258616802206916"><ele>83.0</ele><time>2026-03-25T08:26:53.001Z</time></trkpt><trkpt lat="44.778565857567926" lon="10.25870547064763"><ele>82.83333333333334</ele><time>2026-03-25T08:26:56Z</time></trkpt><trkpt lat="44.778625014961804" lon="10.258738989697488"><ele>82.66666666666667</ele><time>2026-03-25T08:29:11.999Z</time></trkpt><trkpt lat="44.778657704969056" lon="10.258816646048325"><ele>82.5</ele><time>2026-03-25T08:29:14.999Z</time></trkpt><trkpt lat="44.778694088759096" lon="10.258899930274483"><ele>82.33333333333333</ele><time>2026-03-25T08:29:16.999Z</time></trkpt><trkpt lat="44.77875086749742" lon="10.259015083328176"><ele>82.16666666666666</ele><time>2026-03-25T08:29:18.999Z</time></trkpt><trkpt lat="44.778808331668046" lon="10.259157314151155"><ele>82.0</ele><time>2026-03-25T08:29:20.999Z</time></trkpt><trkpt lat="44.778847511159746" lon="10.259242007859086"><ele>82.0</ele><time>2026-03-25T08:29:21.999Z</time></trkpt><trkpt lat="44.77888802695556" lon="10.259335140937496"><ele>82.0</ele><time>2026-03-25T08:29:22.999Z</time></trkpt><trkpt lat="44.77892481367513" lon="10.25945806617211"><ele>82.0</ele><time>2026-03-25T08:29:23.999Z</time></trkpt><trkpt lat="44.778970553398615" lon="10.259593128832988"><ele>82.0</ele><time>2026-03-25T08:29:24.999Z</time></trkpt><trkpt lat="44.77901901365703" lon="10.259726399054824"><ele>82.0</ele><time>2026-03-25T08:29:25.999Z</time></trkpt><trkpt lat="44.77907410269678" lon="10.259872089718204"><ele>82.0</ele><time>2026-03-25T08:29:26.999Z</time></trkpt><trkpt lat="44.779133174202165" lon="10.260027658854987"><ele>82.0</ele><time>2026-03-25T08:29:27.999Z</time></trkpt><trkpt lat="44.77918954853996" lon="10.26018954065101"><ele>82.0</ele><time>2026-03-25T08:29:28.999Z</time></trkpt><trkpt lat="44.779260425683745" lon="10.260359814854118"><ele>82.0</ele><time>2026-03-25T08:29:29.999Z</time></trkpt><trkpt lat="44.77933074552087" lon="10.260541598156856"><ele>81.66666666666666</ele><time>2026-03-25T08:29:30.999Z</time></trkpt><trkpt lat="44.779402503043585" lon="10.26073187427214"><ele>81.33333333333333</ele><time>2026-03-25T08:29:31.999Z</time></trkpt><trkpt lat="44.77948643607268" lon="10.260939759687767"><ele>81.0</ele><time>2026-03-25T08:29:32.999Z</time></trkpt><trkpt lat="44.77956229097731" lon="10.261136477636672"><ele>81.0</ele><time>2026-03-25T08:29:33.999Z</time></trkpt><trkpt lat="44.77963967557544" lon="10.261347396998387"><ele>81.0</ele><time>2026-03-25T08:29:34.999Z</time></trkpt><trkpt lat="44.779715751875706" lon="10.26155085060226"><ele>81.0</ele><time>2026-03-25T08:29:35.999Z</time></trkpt><trkpt lat="44.77979346719311" lon="10.261750641340843"><ele>81.0</ele><time>2026-03-25T08:29:36.999Z</time></trkpt><trkpt lat="44.77986353396041" lon="10.261949800779268"><ele>81.0</ele><time>2026-03-25T08:29:37.999Z</time></trkpt><trkpt lat="44.77994566585419" lon="10.262158328909575"><ele>81.0</ele><time>2026-03-25T08:29:38.999Z</time></trkpt><trkpt lat="44.780029966179704" lon="10.262379530057439"><ele>81.33333333333333</ele><time>2026-03-25T08:29:39.999Z</time></trkpt><trkpt lat="44.78012804197927" lon="10.262607223326984"><ele>81.66666666666666</ele><time>2026-03-25T08:29:40.999Z</time></trkpt><trkpt lat="44.780219468305134" lon="10.262833445619894"><ele>82.0</ele><time>2026-03-25T08:29:41.999Z</time></trkpt><trkpt lat="44.78032874276912" lon="10.263071626521182"><ele>82.0</ele><time>2026-03-25T08:29:42.999Z</time></trkpt><trkpt lat="44.780393492668736" lon="10.263339892704742"><ele>82.0</ele><time>2026-03-25T08:29:43.999Z</time></trkpt><trkpt lat="44.78049151719398" lon="10.26358866734758"><ele>82.0</ele><time>2026-03-25T08:29:44.999Z</time></trkpt><trkpt lat="44.7805916376171" lon="10.263842253171877"><ele>81.33333333333333</ele><time>2026-03-25T08:29:45.999Z</time></trkpt><trkpt lat="44.78069372021919" lon="10.264099847865676"><ele>80.66666666666667</ele><time>2026-03-25T08:29:46.999Z</time></trkpt><trkpt lat="44.78079936883774" lon="10.264367251055901"><ele>80.0</ele><time>2026-03-25T08:29:47.999Z</time></trkpt><trkpt lat="44.78090428193473" lon="10.264632792355433"><ele>80.0</ele><time>2026-03-25T08:29:48.999Z</time></trkpt><trkpt lat="44.781020359617344" lon="10.264926646798793"><ele>80.0</ele><time>2026-03-25T08:29:49.999Z</time></trkpt><trkpt lat="44.78112415542711" lon="10.265189673595463"><ele>80.0</ele><time>2026-03-25T08:29:50.999Z</time></trkpt><trkpt lat="44.78123177282816" lon="10.265464224834167"><ele>80.0</ele><time>2026-03-25T08:29:51.999Z</time></trkpt><trkpt lat="44.78134445400688" lon="10.265752267271123"><ele>79.5</ele><time>2026-03-25T08:29:52.999Z</time></trkpt><trkpt lat="44.781462492294374" lon="10.266054629900763"><ele>79.0</ele><time>2026-03-25T08:29:53.999Z</time></trkpt><trkpt lat="44.78158918675816" lon="10.266378654926134"><ele>78.5</ele><time>2026-03-25T08:29:54.999Z</time></trkpt><trkpt lat="44.78170311000957" lon="10.26667001718337"><ele>78.0</ele><time>2026-03-25T08:29:55.999Z</time></trkpt><trkpt lat="44.781842109757065" lon="10.267025513364585"><ele>77.5</ele><time>2026-03-25T08:29:56.999Z</time></trkpt><trkpt lat="44.78197011882122" lon="10.267352900517915"><ele>77.0</ele><time>2026-03-25T08:29:57.999Z</time></trkpt><trkpt lat="44.782105304490955" lon="10.267698642997589"><ele>77.0</ele><time>2026-03-25T08:29:58.999Z</time></trkpt><trkpt lat="44.78222505594351" lon="10.268004911062516"><ele>77.0</ele><time>2026-03-25T08:29:59.999Z</time></trkpt><trkpt lat="44.78235634442272" lon="10.268340685436627"><ele>77.0</ele><time>2026-03-25T08:30:00.999Z</time></trkpt><trkpt lat="44.782489101753676" lon="10.268680216438371"><ele>77.0</ele><time>2026-03-25T08:30:01.999Z</time></trkpt><trkpt lat="44.78265493980544" lon="10.26910435241455"><ele>76.5</ele><time>2026-03-25T08:30:02.999Z</time></trkpt><trkpt lat="44.78281397802447" lon="10.269511097608893"><ele>76.0</ele><time>2026-03-25T08:30:03.999Z</time></trkpt><trkpt lat="44.78297836308953" lon="10.269931517521092"><ele>76.5</ele><time>2026-03-25T08:30:04.999Z</time></trkpt><trkpt lat="44.783135761898734" lon="10.270334069866555"><ele>77.0</ele><time>2026-03-25T08:30:05.999Z</time></trkpt><trkpt lat="44.783299195982835" lon="10.270752057624026"><ele>77.0</ele><time>2026-03-25T08:30:06.999Z</time></trkpt><trkpt lat="44.78344908407431" lon="10.271135401079356"><ele>77.0</ele><time>2026-03-25T08:30:07.999Z</time></trkpt><trkpt lat="44.78360362951228" lon="10.271530655845092"><ele>74.0</ele><time>2026-03-25T08:30:08.999Z</time></trkpt><trkpt lat="44.78375491989093" lon="10.271883535076986"><ele>71.0</ele><time>2026-03-25T08:30:09.999Z</time></trkpt><trkpt lat="44.783903780893986" lon="10.272253876414196"><ele>71.5</ele><time>2026-03-25T08:30:10.999Z</time></trkpt><trkpt lat="44.78403703547699" lon="10.272639311771583"><ele>72.0</ele><time>2026-03-25T08:30:11.999Z</time></trkpt><trkpt lat="44.784179774616526" lon="10.273004555117156"><ele>74.0</ele><time>2026-03-25T08:30:12.999Z</time></trkpt><trkpt lat="44.78432466678734" lon="10.273375307674392"><ele>76.0</ele><time>2026-03-25T08:30:13.999Z</time></trkpt><trkpt lat="44.78447678702944" lon="10.273765258197134"><ele>76.0</ele><time>2026-03-25T08:30:14.999Z</time></trkpt><trkpt lat="44.784630795043604" lon="10.274159491751886"><ele>76.0</ele><time>2026-03-25T08:30:15.999Z</time></trkpt><trkpt lat="44.78478846564417" lon="10.27456299790642"><ele>75.5</ele><time>2026-03-25T08:30:16.999Z</time></trkpt><trkpt lat="44.784959112048185" lon="10.274944896600383"><ele>75.0</ele><time>2026-03-25T08:30:17.999Z</time></trkpt><trkpt lat="44.78510240580802" lon="10.275352768984643"><ele>74.5</ele><time>2026-03-25T08:30:18.999Z</time></trkpt><trkpt lat="44.78525681308487" lon="10.275765652491678"><ele>74.0</ele><time>2026-03-25T08:30:19.999Z</time></trkpt><trkpt lat="44.78541540372881" lon="10.276186021439832"><ele>74.0</ele><time>2026-03-25T08:30:20.999Z</time></trkpt><trkpt lat="44.78557257200422" lon="10.276557377616902"><ele>74.0</ele><time>2026-03-25T08:30:21.999Z</time></trkpt><trkpt lat="44.785729666544846" lon="10.276958222897573"><ele>74.5</ele><time>2026-03-25T08:30:22.999Z</time></trkpt><trkpt lat="44.785897287393155" lon="10.277385691622404"><ele>75.0</ele><time>2026-03-25T08:30:23.999Z</time></trkpt><trkpt lat="44.786058988960455" lon="10.277798064920287"><ele>72.5</ele><time>2026-03-25T08:30:24.999Z</time></trkpt><trkpt lat="44.78621759151343" lon="10.278202535074124"><ele>70.0</ele><time>2026-03-25T08:30:25.999Z</time></trkpt><trkpt lat="44.78637528185563" lon="10.278604678897976"><ele>69.0</ele><time>2026-03-25T08:30:26.999Z</time></trkpt><trkpt lat="44.78653171424743" lon="10.279001278133146"><ele>68.0</ele><time>2026-03-25T08:30:27.999Z</time></trkpt><trkpt lat="44.78668746083613" lon="10.279404050682892"><ele>68.5</ele><time>2026-03-25T08:30:28.999Z</time></trkpt><trkpt lat="44.78684368424679" lon="10.279808007537252"><ele>69.0</ele><time>2026-03-25T08:30:29.999Z</time></trkpt><trkpt lat="44.78700031096937" lon="10.28020540951506"><ele>71.0</ele><time>2026-03-25T08:30:31Z</time></trkpt><trkpt lat="44.78715743773382" lon="10.28060657762462"><ele>73.0</ele><time>2026-03-25T08:30:32Z</time></trkpt><trkpt lat="44.78729953467585" lon="10.281011364002696"><ele>73.0</ele><time>2026-03-25T08:30:33Z</time></trkpt><trkpt lat="44.78745769431371" lon="10.281403393707505"><ele>73.0</ele><time>2026-03-25T08:30:34Z</time></trkpt><trkpt lat="44.78760827374998" lon="10.281795814412456"><ele>73.5</ele><time>2026-03-25T08:30:35Z</time></trkpt><trkpt lat="44.78776601817881" lon="10.282197292453963"><ele>74.0</ele><time>2026-03-25T08:30:36Z</time></trkpt><trkpt lat="44.78792499070421" lon="10.282601713893674"><ele>72.5</ele><time>2026-03-25T08:30:37Z</time></trkpt><trkpt lat="44.78809637835762" lon="10.282980015520868"><ele>71.0</ele><time>2026-03-25T08:30:38Z</time></trkpt><trkpt lat="44.78824496683072" lon="10.283374499144728"><ele>70.5</ele><time>2026-03-25T08:30:39Z</time></trkpt><trkpt lat="44.7883935454373" lon="10.283768161161236"><ele>70.0</ele><time>2026-03-25T08:30:40Z</time></trkpt><trkpt lat="44.78854146366568" lon="10.284165400249814"><ele>70.0</ele><time>2026-03-25T08:30:41Z</time></trkpt><trkpt lat="44.788693416532034" lon="10.284557742747568"><ele>70.0</ele><time>2026-03-25T08:30:42Z</time></trkpt><trkpt lat="44.7888528048557" lon="10.284951620880856"><ele>68.5</ele><time>2026-03-25T08:30:43Z</time></trkpt><trkpt lat="44.78900452620472" lon="10.285346522397191"><ele>67.0</ele><time>2026-03-25T08:30:44Z</time></trkpt><trkpt lat="44.78915809812243" lon="10.285733801276345"><ele>66.5</ele><time>2026-03-25T08:30:45Z</time></trkpt><trkpt lat="44.7893106010423" lon="10.28612961151442"><ele>66.0</ele><time>2026-03-25T08:30:46Z</time></trkpt><trkpt lat="44.78946430535096" lon="10.286518391109611"><ele>65.5</ele><time>2026-03-25T08:30:47Z</time></trkpt><trkpt lat="44.789616119280204" lon="10.286893276465657"><ele>65.0</ele><time>2026-03-25T08:30:48Z</time></trkpt><trkpt lat="44.78978111252227" lon="10.287265654883592"><ele>65.0</ele><time>2026-03-25T08:30:49Z</time></trkpt><trkpt lat="44.78994802157999" lon="10.287619080971956"><ele>65.0</ele><time>2026-03-25T08:30:50Z</time></trkpt><trkpt lat="44.79009454311362" lon="10.287963665232894"><ele>64.0</ele><time>2026-03-25T08:30:51Z</time></trkpt><trkpt lat="44.79024966226337" lon="10.288327480583707"><ele>63.0</ele><time>2026-03-25T08:30:52Z</time></trkpt><trkpt lat="44.790415023675926" lon="10.288693095025886"><ele>64.0</ele><time>2026-03-25T08:30:53Z</time></trkpt><trkpt lat="44.790584683262765" lon="10.289002712199231"><ele>65.0</ele><time>2026-03-25T08:30:54Z</time></trkpt><trkpt lat="44.79075142464668" lon="10.289340344683978"><ele>65.0</ele><time>2026-03-25T08:30:55Z</time></trkpt><trkpt lat="44.79092450556182" lon="10.289675046074137"><ele>65.0</ele><time>2026-03-25T08:30:56Z</time></trkpt><trkpt lat="44.791073213027786" lon="10.290011411742197"><ele>64.5</ele><time>2026-03-25T08:30:57Z</time></trkpt><trkpt lat="44.791258479699636" lon="10.290322533997397"><ele>64.0</ele><time>2026-03-25T08:30:58Z</time></trkpt><trkpt lat="44.791452073770714" lon="10.290604994592846"><ele>64.0</ele><time>2026-03-25T08:30:59Z</time></trkpt><trkpt lat="44.79166089420763" lon="10.29089389235099"><ele>64.0</ele><time>2026-03-25T08:31:00Z</time></trkpt><trkpt lat="44.79188161732795" lon="10.291181309116766"><ele>64.0</ele><time>2026-03-25T08:31:01Z</time></trkpt><trkpt lat="44.79209583588903" lon="10.29145893315452"><ele>64.0</ele><time>2026-03-25T08:31:02Z</time></trkpt><trkpt lat="44.792307538481104" lon="10.291719956054115"><ele>64.0</ele><time>2026-03-25T08:31:03Z</time></trkpt><trkpt lat="44.7925199537224" lon="10.29198004184665"><ele>64.0</ele><time>2026-03-25T08:31:04Z</time></trkpt><trkpt lat="44.792723165064466" lon="10.292238125343328"><ele>64.0</ele><time>2026-03-25T08:31:05Z</time></trkpt><trkpt lat="44.79292549540301" lon="10.292488514047808"><ele>64.0</ele><time>2026-03-25T08:31:06Z</time></trkpt><trkpt lat="44.7931066249204" lon="10.292745597223343"><ele>64.0</ele><time>2026-03-25T08:31:07Z</time></trkpt><trkpt lat="44.79330408635049" lon="10.293007804259378"><ele>64.0</ele><time>2026-03-25T08:31:07.999Z</time></trkpt><trkpt lat="44.79350648466686" lon="10.29327011575798"><ele>63.0</ele><time>2026-03-25T08:31:08.999Z</time></trkpt><trkpt lat="44.79370453913135" lon="10.293519117469378"><ele>62.0</ele><time>2026-03-25T08:31:09.999Z</time></trkpt><trkpt lat="44.793920986486306" lon="10.29376567618155"><ele>61.5</ele><time>2026-03-25T08:31:10.999Z</time></trkpt><trkpt lat="44.79412685215229" lon="10.294004739730832"><ele>61.0</ele><time>2026-03-25T08:31:11.999Z</time></trkpt><trkpt lat="44.794323004947834" lon="10.29426284552767"><ele>61.0</ele><time>2026-03-25T08:31:12.999Z</time></trkpt><trkpt lat="44.79452184609077" lon="10.2945180096304"><ele>61.0</ele><time>2026-03-25T08:31:13.999Z</time></trkpt><trkpt lat="44.79470535203097" lon="10.29476465856803"><ele>61.5</ele><time>2026-03-25T08:31:14.999Z</time></trkpt><trkpt lat="44.794891554467995" lon="10.295006068186888"><ele>62.0</ele><time>2026-03-25T08:31:15.999Z</time></trkpt><trkpt lat="44.795075623582605" lon="10.295253567318367"><ele>61.0</ele><time>2026-03-25T08:31:16.999Z</time></trkpt><trkpt lat="44.79525952303343" lon="10.295495856754425"><ele>60.0</ele><time>2026-03-25T08:31:17.999Z</time></trkpt><trkpt lat="44.7954475513799" lon="10.295728931278795"><ele>60.0</ele><time>2026-03-25T08:31:18.999Z</time></trkpt><trkpt lat="44.79562915550046" lon="10.295961031203115"><ele>60.0</ele><time>2026-03-25T08:31:19.999Z</time></trkpt><trkpt lat="44.79580872556284" lon="10.296209087946195"><ele>60.5</ele><time>2026-03-25T08:31:20.999Z</time></trkpt><trkpt lat="44.79598765764618" lon="10.296431908058107"><ele>61.0</ele><time>2026-03-25T08:31:21.999Z</time></trkpt><trkpt lat="44.796170411688976" lon="10.296648596529135"><ele>61.0</ele><time>2026-03-25T08:31:22.999Z</time></trkpt><trkpt lat="44.7963580898821" lon="10.296872428256943"><ele>61.0</ele><time>2026-03-25T08:31:23.999Z</time></trkpt><trkpt lat="44.79653969769381" lon="10.297115044506318"><ele>61.0</ele><time>2026-03-25T08:31:24.999Z</time></trkpt><trkpt lat="44.796735478905575" lon="10.297367744736421"><ele>61.0</ele><time>2026-03-25T08:31:25.999Z</time></trkpt><trkpt lat="44.79692515275857" lon="10.297606699400639"><ele>59.0</ele><time>2026-03-25T08:31:26.999Z</time></trkpt><trkpt lat="44.7971116674159" lon="10.297829602720395"><ele>57.0</ele><time>2026-03-25T08:31:27.999Z</time></trkpt><trkpt lat="44.79729826710498" lon="10.298047759993679"><ele>57.0</ele><time>2026-03-25T08:31:28.999Z</time></trkpt><trkpt lat="44.7974871520518" lon="10.298259322389821"><ele>57.0</ele><time>2026-03-25T08:31:29.999Z</time></trkpt><trkpt lat="44.7976874081743" lon="10.298478716855211"><ele>57.5</ele><time>2026-03-25T08:31:30.999Z</time></trkpt><trkpt lat="44.797882184772" lon="10.29869567187513"><ele>58.0</ele><time>2026-03-25T08:31:31.999Z</time></trkpt><trkpt lat="44.79807525244711" lon="10.298910346934347"><ele>59.0</ele><time>2026-03-25T08:31:32.999Z</time></trkpt><trkpt lat="44.79826800820296" lon="10.299123150922055"><ele>60.0</ele><time>2026-03-25T08:31:33.999Z</time></trkpt><trkpt lat="44.7984673551594" lon="10.299339782084804"><ele>60.0</ele><time>2026-03-25T08:31:34.999Z</time></trkpt><trkpt lat="44.79866582587668" lon="10.299559499003204"><ele>60.0</ele><time>2026-03-25T08:31:35.999Z</time></trkpt><trkpt lat="44.798859844168355" lon="10.299757248660562"><ele>60.0</ele><time>2026-03-25T08:31:36.999Z</time></trkpt><trkpt lat="44.79904482193189" lon="10.29998287270012"><ele>60.0</ele><time>2026-03-25T08:31:37.999Z</time></trkpt><trkpt lat="44.799225245938885" lon="10.300188528650539"><ele>60.0</ele><time>2026-03-25T08:31:38.999Z</time></trkpt><trkpt lat="44.7994145515289" lon="10.300376113382992"><ele>60.0</ele><time>2026-03-25T08:31:39.999Z</time></trkpt><trkpt lat="44.79958852021915" lon="10.30058868537195"><ele>60.0</ele><time>2026-03-25T08:31:40.999Z</time></trkpt><trkpt lat="44.79976360236804" lon="10.300773080271819"><ele>60.0</ele><time>2026-03-25T08:31:41.999Z</time></trkpt><trkpt lat="44.79995855843599" lon="10.300940236612197"><ele>60.0</ele><time>2026-03-25T08:31:42.999Z</time></trkpt><trkpt lat="44.80016204697368" lon="10.30111489934342"><ele>59.33333333333333</ele><time>2026-03-25T08:31:44.08Z</time></trkpt><trkpt lat="44.80033022032753" lon="10.301279676460375"><ele>58.666666666666664</ele><time>2026-03-25T08:31:45.064Z</time></trkpt><trkpt lat="44.80052930074023" lon="10.301296425518508"><ele>58.0</ele><time>2026-03-25T08:31:46.061Z</time></trkpt><trkpt lat="44.800718474013856" lon="10.301377048514404"><ele>58.5</ele><time>2026-03-25T08:31:47.054Z</time></trkpt><trkpt lat="44.80083090339863" lon="10.301775089494496"><ele>59.0</ele><time>2026-03-25T08:31:48.048Z</time></trkpt><trkpt lat="44.800995697399976" lon="10.30193954543812"><ele>58.66666666666667</ele><time>2026-03-25T08:31:49.044Z</time></trkpt><trkpt lat="44.801159563882884" lon="10.302106252380845"><ele>58.33333333333333</ele><time>2026-03-25T08:31:50.05Z</time></trkpt><trkpt lat="44.801324918048884" lon="10.302266188355835"><ele>58.0</ele><time>2026-03-25T08:31:51.039Z</time></trkpt><trkpt lat="44.80156752333863" lon="10.302332447344392"><ele>58.0</ele><time>2026-03-25T08:31:52.042Z</time></trkpt><trkpt lat="44.80184287334911" lon="10.301872199293728"><ele>58.0</ele><time>2026-03-25T08:31:53.042Z</time></trkpt><trkpt lat="44.802290573298826" lon="10.30206941242547"><ele>58.0</ele><time>2026-03-25T08:31:55.039Z</time></trkpt><trkpt lat="44.802493640755046" lon="10.30215983586626"><ele>58.0</ele><time>2026-03-25T08:31:56.04Z</time></trkpt><trkpt lat="44.802710114457916" lon="10.302256258092829"><ele>58.0</ele><time>2026-03-25T08:31:57.042Z</time></trkpt><trkpt lat="44.802908419535065" lon="10.302344592709739"><ele>57.5</ele><time>2026-03-25T08:31:58.036Z</time></trkpt><trkpt lat="44.80320347630679" lon="10.302476351890897"><ele>57.0</ele><time>2026-03-25T08:31:59.022Z</time></trkpt><trkpt lat="44.80345810570245" lon="10.302590046796965"><ele>57.0</ele><time>2026-03-25T08:32:00.019Z</time></trkpt><trkpt lat="44.803686990532825" lon="10.302692477927993"><ele>57.0</ele><time>2026-03-25T08:32:01.022Z</time></trkpt><trkpt lat="44.80388241870463" lon="10.3027799173884"><ele>57.0</ele><time>2026-03-25T08:32:02.019Z</time></trkpt><trkpt lat="44.80409196514928" lon="10.302871457263247"><ele>57.0</ele><time>2026-03-25T08:32:03.025Z</time></trkpt><trkpt lat="44.80426843229425" lon="10.302947097244862"><ele>57.0</ele><time>2026-03-25T08:32:04.023Z</time></trkpt><trkpt lat="44.8044174193616" lon="10.303010958154553"><ele>57.0</ele><time>2026-03-25T08:32:05.021Z</time></trkpt><trkpt lat="44.804589267048485" lon="10.303084617320097"><ele>56.66666666666667</ele><time>2026-03-25T08:32:06.02Z</time></trkpt><trkpt lat="44.80478448142826" lon="10.303133412797447"><ele>56.333333333333336</ele><time>2026-03-25T08:32:07.021Z</time></trkpt><trkpt lat="44.804976752444" lon="10.303221034631486"><ele>56.0</ele><time>2026-03-25T08:32:08.02Z</time></trkpt><trkpt lat="44.80517212494692" lon="10.303310069973818"><ele>56.0</ele><time>2026-03-25T08:32:09.019Z</time></trkpt><trkpt lat="44.80532409548546" lon="10.303379326131115"><ele>56.0</ele><time>2026-03-25T08:32:10.019Z</time></trkpt><trkpt lat="44.805506178123686" lon="10.303462304536268"><ele>56.0</ele><time>2026-03-25T08:32:11.015Z</time></trkpt><trkpt lat="44.8055946146332" lon="10.30347801392897"><ele>56.0</ele><time>2026-03-25T08:32:12.017Z</time></trkpt><trkpt lat="44.80576681518303" lon="10.303549829399001"><ele>56.0</ele><time>2026-03-25T08:32:13.02Z</time></trkpt><trkpt lat="44.80596224490591" lon="10.303641048039538"><ele>56.0</ele><time>2026-03-25T08:32:14.017Z</time></trkpt><trkpt lat="44.806213701223406" lon="10.303792079414755"><ele>55.0</ele><time>2026-03-25T08:32:15.017Z</time></trkpt><trkpt lat="44.80659532091964" lon="10.303405482237617"><ele>54.666666666666664</ele><time>2026-03-25T08:32:16.017Z</time></trkpt><trkpt lat="44.80687061004695" lon="10.303486191950036"><ele>54.33333333333333</ele><time>2026-03-25T08:32:17.016Z</time></trkpt><trkpt lat="44.80701137730898" lon="10.303495984093672"><ele>54.0</ele><time>2026-03-25T08:32:18.017Z</time></trkpt><trkpt lat="44.807206396560304" lon="10.303498974022096"><ele>54.0</ele><time>2026-03-25T08:32:20.019Z</time></trkpt><trkpt lat="44.80733401435653" lon="10.303557951452166"><ele>54.0</ele><time>2026-03-25T08:32:21.016Z</time></trkpt><trkpt lat="44.80748880168298" lon="10.303613378453457"><ele>54.0</ele><time>2026-03-25T08:32:22.018Z</time></trkpt><trkpt lat="44.80764106544965" lon="10.303666962958859"><ele>54.0</ele><time>2026-03-25T08:32:23.018Z</time></trkpt><trkpt lat="44.80779088478634" lon="10.303713014152029"><ele>54.0</ele><time>2026-03-25T08:32:24.017Z</time></trkpt><trkpt lat="44.807936613420196" lon="10.303759709842508"><ele>54.0</ele><time>2026-03-25T08:32:25.018Z</time></trkpt><trkpt lat="44.80804614205989" lon="10.303936611286693"><ele>54.0</ele><time>2026-03-25T08:32:26.017Z</time></trkpt><trkpt lat="44.80817992695761" lon="10.304028197876123"><ele>54.0</ele><time>2026-03-25T08:32:27.02Z</time></trkpt><trkpt lat="44.80830930514077" lon="10.304147328805653"><ele>54.0</ele><time>2026-03-25T08:32:28.019Z</time></trkpt><trkpt lat="44.808434533086526" lon="10.3042688449953"><ele>54.0</ele><time>2026-03-25T08:32:29.019Z</time></trkpt><trkpt lat="44.80855284735104" lon="10.304402730533987"><ele>54.0</ele><time>2026-03-25T08:32:30.018Z</time></trkpt><trkpt lat="44.80960075286642" lon="10.30514622644232"><ele>53.33333333333333</ele><time>2026-03-25T08:32:31.019Z</time></trkpt><trkpt lat="44.80977018973939" lon="10.305303098233194"><ele>52.666666666666664</ele><time>2026-03-25T08:32:32.015Z</time></trkpt><trkpt lat="44.80992412437373" lon="10.30547515902515"><ele>52.0</ele><time>2026-03-25T08:32:33.016Z</time></trkpt><trkpt lat="44.81005877131624" lon="10.30564208226038"><ele>52.0</ele><time>2026-03-25T08:32:34.018Z</time></trkpt><trkpt lat="44.81019273079534" lon="10.305814330910854"><ele>52.0</ele><time>2026-03-25T08:32:35.016Z</time></trkpt><trkpt lat="44.81019576770063" lon="10.306456484860552"><ele>53.0</ele><time>2026-03-25T08:32:36.017Z</time></trkpt><trkpt lat="44.81050704019801" lon="10.306693331053863"><ele>54.0</ele><time>2026-03-25T08:32:37.018Z</time></trkpt><trkpt lat="44.8107056880663" lon="10.30678015132261"><ele>54.0</ele><time>2026-03-25T08:32:38.018Z</time></trkpt><trkpt lat="44.81090077091003" lon="10.306860579301564"><ele>54.0</ele><time>2026-03-25T08:32:39.019Z</time></trkpt><trkpt lat="44.81110478028569" lon="10.306877042388896"><ele>54.0</ele><time>2026-03-25T08:32:40.018Z</time></trkpt><trkpt lat="44.811287404780245" lon="10.307155977685124"><ele>53.5</ele><time>2026-03-25T08:32:41.019Z</time></trkpt><trkpt lat="44.81119098488603" lon="10.307500126628732"><ele>53.0</ele><time>2026-03-25T08:32:42.019Z</time></trkpt><trkpt lat="44.8113405684316" lon="10.307688945158755"><ele>53.0</ele><time>2026-03-25T08:32:43.024Z</time></trkpt><trkpt lat="44.81139406729697" lon="10.308140014360852"><ele>53.0</ele><time>2026-03-25T08:32:44.018Z</time></trkpt><trkpt lat="44.81152971990198" lon="10.308205954772879"><ele>53.0</ele><time>2026-03-25T08:32:45.018Z</time></trkpt><trkpt lat="44.81170987933007" lon="10.308298211494773"><ele>53.0</ele><time>2026-03-25T08:32:46.018Z</time></trkpt><trkpt lat="44.811875826792665" lon="10.308390155233798"><ele>53.0</ele><time>2026-03-25T08:32:47.019Z</time></trkpt><trkpt lat="44.81194357879154" lon="10.308864670515725"><ele>52.5</ele><time>2026-03-25T08:32:48.018Z</time></trkpt><trkpt lat="44.81207644960305" lon="10.309064155971646"><ele>52.0</ele><time>2026-03-25T08:32:48.999Z</time></trkpt><trkpt lat="44.8122201851092" lon="10.309364356094441"><ele>52.0</ele><time>2026-03-25T08:32:49.999Z</time></trkpt><trkpt lat="44.8124018983077" lon="10.309621071676009"><ele>52.0</ele><time>2026-03-25T08:32:50.999Z</time></trkpt><trkpt lat="44.81257309184924" lon="10.30989538464702"><ele>52.0</ele><time>2026-03-25T08:32:51.999Z</time></trkpt><trkpt lat="44.81274691116715" lon="10.310171955276852"><ele>52.0</ele><time>2026-03-25T08:32:52.999Z</time></trkpt><trkpt lat="44.812887254556536" lon="10.310443617906188"><ele>52.0</ele><time>2026-03-25T08:32:53.999Z</time></trkpt><trkpt lat="44.813037048326606" lon="10.310734763520458"><ele>52.0</ele><time>2026-03-25T08:32:54.999Z</time></trkpt><trkpt lat="44.81311287388733" lon="10.311019688974213"><ele>52.0</ele><time>2026-03-25T08:32:55.999Z</time></trkpt><trkpt lat="44.81315081376893" lon="10.311304249404326"><ele>52.0</ele><time>2026-03-25T08:32:56.999Z</time></trkpt><trkpt lat="44.813239156941606" lon="10.311579545719244"><ele>52.0</ele><time>2026-03-25T08:32:57.999Z</time></trkpt><trkpt lat="44.813355289941605" lon="10.311829534244685"><ele>52.0</ele><time>2026-03-25T08:32:58.999Z</time></trkpt><trkpt lat="44.813460659690705" lon="10.312071407429126"><ele>52.0</ele><time>2026-03-25T08:32:59.999Z</time></trkpt><trkpt lat="44.81357141916904" lon="10.31231940815044"><ele>52.0</ele><time>2026-03-25T08:33:00.999Z</time></trkpt><trkpt lat="44.81364526765629" lon="10.312588773603016"><ele>52.0</ele><time>2026-03-25T08:33:01.999Z</time></trkpt><trkpt lat="44.81373930456298" lon="10.312851365262775"><ele>52.0</ele><time>2026-03-25T08:33:02.999Z</time></trkpt><trkpt lat="44.81384361979843" lon="10.313113314411419"><ele>52.0</ele><time>2026-03-25T08:33:03.999Z</time></trkpt><trkpt lat="44.813935621992265" lon="10.313377611846516"><ele>51.666666666666664</ele><time>2026-03-25T08:33:04.999Z</time></trkpt><trkpt lat="44.8140361556484" lon="10.313639403141654"><ele>51.33333333333333</ele><time>2026-03-25T08:33:05.999Z</time></trkpt><trkpt lat="44.81412271589362" lon="10.313907321107397"><ele>51.0</ele><time>2026-03-25T08:33:06.999Z</time></trkpt><trkpt lat="44.814232731885085" lon="10.314185261837224"><ele>51.0</ele><time>2026-03-25T08:33:08.064Z</time></trkpt><trkpt lat="44.81437884263005" lon="10.314383295463072"><ele>51.0</ele><time>2026-03-25T08:33:09.038Z</time></trkpt><trkpt lat="44.81441132966992" lon="10.314609029757516"><ele>51.0</ele><time>2026-03-25T08:33:10.039Z</time></trkpt><trkpt lat="44.814509664666986" lon="10.314857605641395"><ele>51.0</ele><time>2026-03-25T08:33:11.039Z</time></trkpt><trkpt lat="44.8146065309712" lon="10.31510134779963"><ele>51.0</ele><time>2026-03-25T08:33:12.036Z</time></trkpt><trkpt lat="44.81470310205857" lon="10.315345510283425"><ele>51.0</ele><time>2026-03-25T08:33:13.036Z</time></trkpt><trkpt lat="44.814800802108145" lon="10.315590399148805"><ele>54.0</ele><time>2026-03-25T08:33:14.038Z</time></trkpt><trkpt lat="44.813923875302336" lon="10.315698049844885"><ele>54.0</ele><time>2026-03-25T08:33:15.035Z</time></trkpt><trkpt lat="44.813885466632" lon="10.31591884465476"><ele>54.0</ele><time>2026-03-25T08:33:16.036Z</time></trkpt><trkpt lat="44.81385294597972" lon="10.31612707756712"><ele>54.0</ele><time>2026-03-25T08:33:17.037Z</time></trkpt><trkpt lat="44.814013830385534" lon="10.315074188005418"><ele>54.0</ele><time>2026-03-25T08:33:22.031Z</time></trkpt><trkpt lat="44.81407671292476" lon="10.315122677887503"><ele>54.0</ele><time>2026-03-25T08:34:14.009Z</time></trkpt><trkpt lat="44.81392164870438" lon="10.315295841079832"><ele>54.0</ele><time>2026-03-25T08:34:17.014Z</time></trkpt><trkpt lat="44.81386476000083" lon="10.31544412456615"><ele>54.0</ele><time>2026-03-25T08:34:18.015Z</time></trkpt><trkpt lat="44.81395247476109" lon="10.315722171845069"><ele>54.0</ele><time>2026-03-25T08:34:18.999Z</time></trkpt><trkpt lat="44.81391897521181" lon="10.31584632387867"><ele>54.0</ele><time>2026-03-25T08:34:19.999Z</time></trkpt><trkpt lat="44.810547825702116" lon="10.326356789891882"><ele>54.333333333333336</ele><time>2026-03-25T08:34:20.999Z</time></trkpt><trkpt lat="44.81052804714113" lon="10.326466546417539"><ele>54.66666666666667</ele><time>2026-03-25T08:34:21.999Z</time></trkpt><trkpt lat="44.81051001290005" lon="10.326575348159876"><ele>55.0</ele><time>2026-03-25T08:34:22.999Z</time></trkpt><trkpt lat="44.810482200601946" lon="10.326706554446684"><ele>55.333333333333336</ele><time>2026-03-25T08:34:23.999Z</time></trkpt><trkpt lat="44.810462997725715" lon="10.326812997800277"><ele>55.66666666666667</ele><time>2026-03-25T08:34:24.999Z</time></trkpt><trkpt lat="44.81044261496181" lon="10.326921250745832"><ele>56.0</ele><time>2026-03-25T08:34:25.999Z</time></trkpt><trkpt lat="44.810415937106825" lon="10.327044497177614"><ele>56.0</ele><time>2026-03-25T08:34:26.999Z</time></trkpt><trkpt lat="44.81039959020436" lon="10.327158956483332"><ele>55.99999999999999</ele><time>2026-03-25T08:34:27.999Z</time></trkpt><trkpt lat="44.8103772332318" lon="10.32727504784999"><ele>55.99999999999999</ele><time>2026-03-25T08:34:28.999Z</time></trkpt><trkpt lat="44.81035441753857" lon="10.32738784599461"><ele>56.0</ele><time>2026-03-25T08:34:29.999Z</time></trkpt><trkpt lat="44.81033050362421" lon="10.327514584951569"><ele>56.0</ele><time>2026-03-25T08:34:30.999Z</time></trkpt><trkpt lat="44.81016195773874" lon="10.328124469352808"><ele>55.0</ele><time>2026-03-25T08:35:02.013Z</time></trkpt><trkpt lat="44.8101974291045" lon="10.32887466714354"><ele>54.99999999999999</ele><time>2026-03-25T08:35:42.999Z</time></trkpt><trkpt lat="44.81026425267957" lon="10.32885823598663"><ele>55.0</ele><time>2026-03-25T08:36:54.999Z</time></trkpt><trkpt lat="44.81036041529646" lon="10.328965931104776"><ele>55.0</ele><time>2026-03-25T08:37:31.999Z</time></trkpt><trkpt lat="44.81042569087887" lon="10.328931365639283"><ele>55.0</ele><time>2026-03-25T08:37:42.999Z</time></trkpt><trkpt lat="44.81042736843768" lon="10.328836663242187"><ele>54.99999999999999</ele><time>2026-03-25T08:37:51Z</time></trkpt><trkpt lat="44.8104536733145" lon="10.32874884404092"><ele>55.0</ele><time>2026-03-25T08:37:56Z</time></trkpt><trkpt lat="44.81046254894718" lon="10.328839698466306"><ele>55.166666666666664</ele><time>2026-03-25T08:38:11Z</time></trkpt><trkpt lat="44.81045923179037" lon="10.328937331841095"><ele>55.33333333333333</ele><time>2026-03-25T08:38:20Z</time></trkpt><trkpt lat="44.81042971832331" lon="10.32902657251208"><ele>55.5</ele><time>2026-03-25T08:38:29Z</time></trkpt><trkpt lat="44.81044437089432" lon="10.329124069960018"><ele>55.66666666666667</ele><time>2026-03-25T08:39:06.999Z</time></trkpt><trkpt lat="44.810396540091" lon="10.329060746230157"><ele>55.833333333333336</ele><time>2026-03-25T08:41:12Z</time></trkpt><trkpt lat="44.810397063449535" lon="10.329150134985147"><ele>56.0</ele><time>2026-03-25T08:44:47Z</time></trkpt><trkpt lat="44.81030078672698" lon="10.329285023823463"><ele>56.00000000000001</ele><time>2026-03-25T08:47:00Z</time></trkpt><trkpt lat="44.810252760015786" lon="10.329350052486689"><ele>56.0</ele><time>2026-03-25T08:47:08Z</time></trkpt><trkpt lat="44.81016165980325" lon="10.329433985961966"><ele>56.0</ele><time>2026-03-25T08:47:52Z</time></trkpt><trkpt lat="44.810094101891856" lon="10.329405568111836"><ele>56.0</ele><time>2026-03-25T08:47:59Z</time></trkpt><trkpt lat="44.81014232592583" lon="10.329341012264745"><ele>56.00000000000001</ele><time>2026-03-25T08:48:03.999Z</time></trkpt><trkpt lat="44.81021268208131" lon="10.329441447370721"><ele>56.0</ele><time>2026-03-25T08:49:06Z</time></trkpt><trkpt lat="44.81013711641946" lon="10.329417590808928"><ele>56.00000000000001</ele><time>2026-03-25T08:49:53Z</time></trkpt><trkpt lat="44.81009734646999" lon="10.329522772242315"><ele>56.0</ele><time>2026-03-25T08:50:03Z</time></trkpt><trkpt lat="44.81010125340716" lon="10.329647732331392"><ele>56.0</ele><time>2026-03-25T08:50:10Z</time></trkpt><trkpt lat="44.810032193187915" lon="10.329638666815338"><ele>56.0</ele><time>2026-03-25T08:50:55Z</time></trkpt><trkpt lat="44.80997222150122" lon="10.329788230989573"><ele>56.00000000000001</ele><time>2026-03-25T08:51:35Z</time></trkpt><trkpt lat="44.80993565445859" lon="10.329892909126158"><ele>56.0</ele><time>2026-03-25T08:51:42Z</time></trkpt><trkpt lat="44.80998274130181" lon="10.329833463953879"><ele>56.00000000000001</ele><time>2026-03-25T08:52:00Z</time></trkpt><trkpt lat="44.81002695408551" lon="10.329755353688608"><ele>56.0</ele><time>2026-03-25T08:52:09Z</time></trkpt><trkpt lat="44.81004503114885" lon="10.329641360408049"><ele>56.0</ele><time>2026-03-25T08:52:34Z</time></trkpt><trkpt lat="44.81008677814094" lon="10.329532608320067"><ele>56.0</ele><time>2026-03-25T08:53:02Z</time></trkpt><trkpt lat="44.81002459119688" lon="10.329517550961238"><ele>56.00000000000001</ele><time>2026-03-25T08:53:30Z</time></trkpt><trkpt lat="44.81004994998406" lon="10.329390415955867"><ele>56.0</ele><time>2026-03-25T08:53:40Z</time></trkpt><trkpt lat="44.810126971534494" lon="10.329410783558414"><ele>56.0</ele><time>2026-03-25T08:53:52Z</time></trkpt><trkpt lat="44.81012878195521" lon="10.329585960150267"><ele>55.99999999999999</ele><time>2026-03-25T08:53:56Z</time></trkpt><trkpt lat="44.81010475860616" lon="10.329693230346939"><ele>55.99999999999999</ele><time>2026-03-25T08:53:59Z</time></trkpt><trkpt lat="44.81009647520852" lon="10.329600676061505"><ele>56.0</ele><time>2026-03-25T08:54:16.999Z</time></trkpt><trkpt lat="44.810047041260795" lon="10.329420881198383"><ele>56.0</ele><time>2026-03-25T08:54:43Z</time></trkpt><trkpt lat="44.810115779326715" lon="10.329412674581944"><ele>56.00000000000001</ele><time>2026-03-25T08:54:58Z</time></trkpt><trkpt lat="44.81008179532907" lon="10.329266311667581"><ele>56.0</ele><time>2026-03-25T08:55:38Z</time></trkpt><trkpt lat="44.81012793587706" lon="10.32933101406538"><ele>56.0</ele><time>2026-03-25T08:56:13Z</time></trkpt><trkpt lat="44.81010680805558" lon="10.32923740575975"><ele>56.0</ele><time>2026-03-25T08:56:36.999Z</time></trkpt><trkpt lat="44.8101332902774" lon="10.329318628480388"><ele>56.00000000000001</ele><time>2026-03-25T08:56:48Z</time></trkpt><trkpt lat="44.81012519442836" lon="10.329158650280565"><ele>56.0</ele><time>2026-03-25T08:58:05.999Z</time></trkpt><trkpt lat="44.810131154896574" lon="10.328971094628084"><ele>56.0</ele><time>2026-03-25T08:58:16.999Z</time></trkpt><trkpt lat="44.810192443057694" lon="10.32902821349087"><ele>55.99999999999999</ele><time>2026-03-25T08:58:45.998Z</time></trkpt><trkpt lat="44.81018881802705" lon="10.329119411037528"><ele>55.99999999999999</ele><time>2026-03-25T08:58:51.999Z</time></trkpt><trkpt lat="44.810138867796645" lon="10.329308050949937"><ele>56.0</ele><time>2026-03-25T08:59:03.999Z</time></trkpt><trkpt lat="44.810101094558235" lon="10.329445189854596"><ele>56.0</ele><time>2026-03-25T08:59:05.999Z</time></trkpt><trkpt lat="44.81007619680053" lon="10.329573524012408"><ele>56.0</ele><time>2026-03-25T08:59:08.999Z</time></trkpt><trkpt lat="44.81006665904392" lon="10.329713185011244"><ele>55.99999999999999</ele><time>2026-03-25T08:59:10.999Z</time></trkpt><trkpt lat="44.81006060402945" lon="10.329803244764213"><ele>55.99999999999999</ele><time>2026-03-25T08:59:11.999Z</time></trkpt><trkpt lat="44.810032011329646" lon="10.329944021646533"><ele>56.0</ele><time>2026-03-25T08:59:13.999Z</time></trkpt><trkpt lat="44.8099921418668" lon="10.330125456054908"><ele>56.0</ele><time>2026-03-25T08:59:15.999Z</time></trkpt><trkpt lat="44.809961851642" lon="10.33022016776214"><ele>56.00000000000001</ele><time>2026-03-25T08:59:16.999Z</time></trkpt><trkpt lat="44.80993279858494" lon="10.330314688797321"><ele>56.0</ele><time>2026-03-25T08:59:17.999Z</time></trkpt><trkpt lat="44.809906200402835" lon="10.33041427948712"><ele>56.0</ele><time>2026-03-25T08:59:18.999Z</time></trkpt><trkpt lat="44.809881205364995" lon="10.330522355107535"><ele>56.0</ele><time>2026-03-25T08:59:19.999Z</time></trkpt><trkpt lat="44.809843317707355" lon="10.330634659877123"><ele>56.00000000000001</ele><time>2026-03-25T08:59:20.999Z</time></trkpt><trkpt lat="44.80982470445757" lon="10.330735385463516"><ele>56.0</ele><time>2026-03-25T08:59:21.999Z</time></trkpt><trkpt lat="44.80980180130339" lon="10.33082660300485"><ele>55.833333333333336</ele><time>2026-03-25T08:59:22.999Z</time></trkpt><trkpt lat="44.809771110226414" lon="10.330932166172348"><ele>55.66666666666667</ele><time>2026-03-25T08:59:23.999Z</time></trkpt><trkpt lat="44.809746595472944" lon="10.33102644278238"><ele>55.5</ele><time>2026-03-25T08:59:24.999Z</time></trkpt><trkpt lat="44.809718594003826" lon="10.331130375493462"><ele>55.33333333333333</ele><time>2026-03-25T08:59:25.999Z</time></trkpt><trkpt lat="44.80968698331314" lon="10.331234188107599"><ele>55.166666666666664</ele><time>2026-03-25T08:59:26.999Z</time></trkpt><trkpt lat="44.80966354234205" lon="10.33133824992016"><ele>55.0</ele><time>2026-03-25T08:59:27.999Z</time></trkpt><trkpt lat="44.80963950663328" lon="10.331432810152336"><ele>54.71428571428571</ele><time>2026-03-25T08:59:28.999Z</time></trkpt><trkpt lat="44.80961786400441" lon="10.331533086358126"><ele>54.42857142857143</ele><time>2026-03-25T08:59:29.999Z</time></trkpt><trkpt lat="44.80959564523724" lon="10.331631074427326"><ele>54.14285714285714</ele><time>2026-03-25T08:59:30.999Z</time></trkpt><trkpt lat="44.809570564270324" lon="10.331727854491707"><ele>53.857142857142854</ele><time>2026-03-25T08:59:31.999Z</time></trkpt><trkpt lat="44.8095452586743" lon="10.331828006769326"><ele>53.57142857142857</ele><time>2026-03-25T08:59:32.999Z</time></trkpt><trkpt lat="44.809518999190985" lon="10.33192896558074"><ele>53.285714285714285</ele><time>2026-03-25T08:59:33.999Z</time></trkpt><trkpt lat="44.80949558084701" lon="10.332029053764556"><ele>53.0</ele><time>2026-03-25T08:59:34.999Z</time></trkpt><trkpt lat="44.8094691398333" lon="10.332129427825672"><ele>53.00000000000001</ele><time>2026-03-25T08:59:35.999Z</time></trkpt><trkpt lat="44.80944850735623" lon="10.33223838302833"><ele>53.0</ele><time>2026-03-25T08:59:36.999Z</time></trkpt><trkpt lat="44.80942034026698" lon="10.332327007146024"><ele>53.0</ele><time>2026-03-25T08:59:37.999Z</time></trkpt><trkpt lat="44.80938935364316" lon="10.332428610521857"><ele>53.0</ele><time>2026-03-25T08:59:38.999Z</time></trkpt><trkpt lat="44.80936342547372" lon="10.332534389574738"><ele>53.00000000000001</ele><time>2026-03-25T08:59:39.999Z</time></trkpt><trkpt lat="44.80933607423228" lon="10.332641706783988"><ele>53.0</ele><time>2026-03-25T08:59:40.999Z</time></trkpt><trkpt lat="44.80929651340139" lon="10.332765414051382"><ele>53.333333333333336</ele><time>2026-03-25T08:59:41.999Z</time></trkpt><trkpt lat="44.809258714179585" lon="10.332863648995893"><ele>53.66666666666667</ele><time>2026-03-25T08:59:42.999Z</time></trkpt><trkpt lat="44.80923643412713" lon="10.33295934911786"><ele>54.0</ele><time>2026-03-25T08:59:43.999Z</time></trkpt><trkpt lat="44.80921777689956" lon="10.333066095606384"><ele>54.33333333333333</ele><time>2026-03-25T08:59:44.999Z</time></trkpt><trkpt lat="44.80920188479559" lon="10.333152595539458"><ele>54.666666666666664</ele><time>2026-03-25T08:59:45.999Z</time></trkpt><trkpt lat="44.80916680145346" lon="10.333243687354795"><ele>55.0</ele><time>2026-03-25T08:59:46.999Z</time></trkpt><trkpt lat="44.80912647765394" lon="10.333357914871083"><ele>54.99999999999999</ele><time>2026-03-25T08:59:47.999Z</time></trkpt><trkpt lat="44.80909655982718" lon="10.333457864088416"><ele>55.0</ele><time>2026-03-25T08:59:48.999Z</time></trkpt><trkpt lat="44.80906645065512" lon="10.33354540575649"><ele>55.0</ele><time>2026-03-25T08:59:49.999Z</time></trkpt><trkpt lat="44.80903356301431" lon="10.333632145331931"><ele>55.0</ele><time>2026-03-25T08:59:50.999Z</time></trkpt><trkpt lat="44.80900469632971" lon="10.333723998007155"><ele>54.99999999999999</ele><time>2026-03-25T08:59:51.999Z</time></trkpt><trkpt lat="44.808975582335655" lon="10.333816840283271"><ele>55.0</ele><time>2026-03-25T08:59:52.999Z</time></trkpt><trkpt lat="44.80891857577732" lon="10.333998424614045"><ele>54.49999999999999</ele><time>2026-03-25T08:59:54.999Z</time></trkpt><trkpt lat="44.808879383596675" lon="10.334093074743404"><ele>54.0</ele><time>2026-03-25T08:59:55.999Z</time></trkpt><trkpt lat="44.80884728924393" lon="10.33418847566994"><ele>53.5</ele><time>2026-03-25T08:59:56.999Z</time></trkpt><trkpt lat="44.80881800287816" lon="10.334288690952086"><ele>53.0</ele><time>2026-03-25T08:59:57.999Z</time></trkpt><trkpt lat="44.80878849606216" lon="10.334384396513514"><ele>52.49999999999999</ele><time>2026-03-25T08:59:58.999Z</time></trkpt><trkpt lat="44.80876535088934" lon="10.33447991202444"><ele>52.0</ele><time>2026-03-25T08:59:59.999Z</time></trkpt><trkpt lat="44.80874125765004" lon="10.334579837860373"><ele>51.99999999999999</ele><time>2026-03-25T09:00:00.999Z</time></trkpt><trkpt lat="44.80871051544727" lon="10.334677032434913"><ele>52.0</ele><time>2026-03-25T09:00:01.999Z</time></trkpt><trkpt lat="44.80867903346351" lon="10.334780735959756"><ele>52.0</ele><time>2026-03-25T09:00:02.999Z</time></trkpt><trkpt lat="44.80864764819985" lon="10.334882215280489"><ele>52.0</ele><time>2026-03-25T09:00:03.999Z</time></trkpt><trkpt lat="44.808614431750186" lon="10.33498877157337"><ele>51.99999999999999</ele><time>2026-03-25T09:00:04.999Z</time></trkpt><trkpt lat="44.808582137784036" lon="10.335090537223431"><ele>52.0</ele><time>2026-03-25T09:00:05.999Z</time></trkpt><trkpt lat="44.80855781844997" lon="10.335186291296663"><ele>51.83333333333333</ele><time>2026-03-25T09:00:06.999Z</time></trkpt><trkpt lat="44.80852605583289" lon="10.335281940925622"><ele>51.666666666666664</ele><time>2026-03-25T09:00:07.999Z</time></trkpt><trkpt lat="44.80850027318134" lon="10.335373693360973"><ele>51.5</ele><time>2026-03-25T09:00:08.999Z</time></trkpt><trkpt lat="44.80847389566987" lon="10.335478849763954"><ele>51.33333333333333</ele><time>2026-03-25T09:00:09.999Z</time></trkpt><trkpt lat="44.8084439233883" lon="10.335578035901262"><ele>51.166666666666664</ele><time>2026-03-25T09:00:10.999Z</time></trkpt><trkpt lat="44.80841695108147" lon="10.335675590849418"><ele>51.0</ele><time>2026-03-25T09:00:11.999Z</time></trkpt><trkpt lat="44.80839017018151" lon="10.335774839790192"><ele>51.0</ele><time>2026-03-25T09:00:12.999Z</time></trkpt><trkpt lat="44.80836035540244" lon="10.33587452205667"><ele>51.0</ele><time>2026-03-25T09:00:13.999Z</time></trkpt><trkpt lat="44.80833653177778" lon="10.335973302059005"><ele>51.0</ele><time>2026-03-25T09:00:14.999Z</time></trkpt><trkpt lat="44.80830708549116" lon="10.336071315676223"><ele>51.0</ele><time>2026-03-25T09:00:15.999Z</time></trkpt><trkpt lat="44.80827795662875" lon="10.336170703634888"><ele>51.0</ele><time>2026-03-25T09:00:16.999Z</time></trkpt><trkpt lat="44.808250043493196" lon="10.336269388095854"><ele>51.0</ele><time>2026-03-25T09:00:17.999Z</time></trkpt><trkpt lat="44.80822264210943" lon="10.336367983884148"><ele>51.166666666666664</ele><time>2026-03-25T09:00:18.999Z</time></trkpt><trkpt lat="44.808196716604265" lon="10.336463563395988"><ele>51.33333333333333</ele><time>2026-03-25T09:00:19.999Z</time></trkpt><trkpt lat="44.808173236936014" lon="10.336556335711453"><ele>51.5</ele><time>2026-03-25T09:00:20.999Z</time></trkpt><trkpt lat="44.80814143341219" lon="10.336655877549283"><ele>51.666666666666664</ele><time>2026-03-25T09:00:21.999Z</time></trkpt><trkpt lat="44.80811202709793" lon="10.336755749353141"><ele>51.83333333333333</ele><time>2026-03-25T09:00:22.999Z</time></trkpt><trkpt lat="44.808087204657454" lon="10.33686661844102"><ele>52.0</ele><time>2026-03-25T09:00:23.999Z</time></trkpt><trkpt lat="44.80805978134078" lon="10.336967473724291"><ele>51.99999999999999</ele><time>2026-03-25T09:00:24.999Z</time></trkpt><trkpt lat="44.80804587261267" lon="10.337065302210492"><ele>52.0</ele><time>2026-03-25T09:00:25.999Z</time></trkpt><trkpt lat="44.808013239128236" lon="10.337155927116392"><ele>52.0</ele><time>2026-03-25T09:00:26.999Z</time></trkpt><trkpt lat="44.80798345542932" lon="10.337248216353132"><ele>52.0</ele><time>2026-03-25T09:00:27.999Z</time></trkpt><trkpt lat="44.80794730696977" lon="10.337351119649904"><ele>51.99999999999999</ele><time>2026-03-25T09:00:28.999Z</time></trkpt><trkpt lat="44.80791030437574" lon="10.337444545251756"><ele>52.0</ele><time>2026-03-25T09:00:29.999Z</time></trkpt><trkpt lat="44.80786987059805" lon="10.337551245452174"><ele>51.83333333333333</ele><time>2026-03-25T09:00:30.999Z</time></trkpt><trkpt lat="44.80785239767789" lon="10.337648756752474"><ele>51.666666666666664</ele><time>2026-03-25T09:00:31.999Z</time></trkpt><trkpt lat="44.80782193867159" lon="10.337752305284535"><ele>51.5</ele><time>2026-03-25T09:00:32.999Z</time></trkpt><trkpt lat="44.80779058098434" lon="10.337849946976485"><ele>51.33333333333333</ele><time>2026-03-25T09:00:33.999Z</time></trkpt><trkpt lat="44.80775619283153" lon="10.337948068594807"><ele>51.166666666666664</ele><time>2026-03-25T09:00:34.999Z</time></trkpt><trkpt lat="44.80772444647903" lon="10.338044813136062"><ele>51.0</ele><time>2026-03-25T09:00:35.999Z</time></trkpt><trkpt lat="44.8076951364172" lon="10.338134725043393"><ele>51.0</ele><time>2026-03-25T09:00:36.999Z</time></trkpt><trkpt lat="44.80765700071994" lon="10.338226152072002"><ele>51.0</ele><time>2026-03-25T09:00:37.999Z</time></trkpt><trkpt lat="44.80762271343922" lon="10.338316382391406"><ele>51.0</ele><time>2026-03-25T09:00:38.999Z</time></trkpt><trkpt lat="44.80759248743667" lon="10.338405685413049"><ele>51.0</ele><time>2026-03-25T09:00:39.999Z</time></trkpt><trkpt lat="44.80755592744533" lon="10.338498073578736"><ele>51.0</ele><time>2026-03-25T09:00:40.999Z</time></trkpt><trkpt lat="44.80752113796626" lon="10.338583582376664"><ele>51.0</ele><time>2026-03-25T09:00:41.999Z</time></trkpt><trkpt lat="44.807480503791325" lon="10.33866701999251"><ele>51.0</ele><time>2026-03-25T09:00:42.999Z</time></trkpt><trkpt lat="44.80744185449754" lon="10.338758338679655"><ele>51.0</ele><time>2026-03-25T09:00:43.999Z</time></trkpt><trkpt lat="44.80740307609793" lon="10.338852764232188"><ele>51.0</ele><time>2026-03-25T09:00:44.999Z</time></trkpt><trkpt lat="44.807364048754394" lon="10.338941485864236"><ele>51.0</ele><time>2026-03-25T09:00:45.999Z</time></trkpt><trkpt lat="44.80733087893588" lon="10.339031074533269"><ele>51.0</ele><time>2026-03-25T09:00:46.999Z</time></trkpt><trkpt lat="44.80729466425004" lon="10.339131543335098"><ele>51.0</ele><time>2026-03-25T09:00:47.999Z</time></trkpt><trkpt lat="44.80723802834634" lon="10.339294363417288"><ele>51.0</ele><time>2026-03-25T09:00:49.999Z</time></trkpt><trkpt lat="44.80720747801719" lon="10.33938190770364"><ele>50.714285714285715</ele><time>2026-03-25T09:00:50.999Z</time></trkpt><trkpt lat="44.80717605831395" lon="10.339461028534242"><ele>50.42857142857143</ele><time>2026-03-25T09:00:51.999Z</time></trkpt><trkpt lat="44.80714038628671" lon="10.339556582386658"><ele>50.14285714285714</ele><time>2026-03-25T09:00:52.999Z</time></trkpt><trkpt lat="44.80710467296774" lon="10.339646163348617"><ele>49.85714285714286</ele><time>2026-03-25T09:00:53.998Z</time></trkpt><trkpt lat="44.80707168643397" lon="10.339728294525129"><ele>49.57142857142857</ele><time>2026-03-25T09:00:54.998Z</time></trkpt><trkpt lat="44.80703467309355" lon="10.339815754354923"><ele>49.285714285714285</ele><time>2026-03-25T09:00:55.998Z</time></trkpt><trkpt lat="44.80700092769177" lon="10.339894768517263"><ele>49.0</ele><time>2026-03-25T09:00:56.999Z</time></trkpt><trkpt lat="44.80696337851308" lon="10.339989693225933"><ele>48.99999999999999</ele><time>2026-03-25T09:00:57.999Z</time></trkpt><trkpt lat="44.80692887272673" lon="10.3400733334053"><ele>49.0</ele><time>2026-03-25T09:00:58.999Z</time></trkpt><trkpt lat="44.80688952584908" lon="10.340157057287833"><ele>49.0</ele><time>2026-03-25T09:00:59.999Z</time></trkpt><trkpt lat="44.806842982664655" lon="10.340251750544562"><ele>49.0</ele><time>2026-03-25T09:01:00.999Z</time></trkpt><trkpt lat="44.80679796506434" lon="10.340350494869359"><ele>48.99999999999999</ele><time>2026-03-25T09:01:01.999Z</time></trkpt><trkpt lat="44.80675355435078" lon="10.340449414811319"><ele>49.0</ele><time>2026-03-25T09:01:02.999Z</time></trkpt><trkpt lat="44.80671731502886" lon="10.340545448935126"><ele>49.142857142857146</ele><time>2026-03-25T09:01:03.999Z</time></trkpt><trkpt lat="44.80668191377552" lon="10.340628394191414"><ele>49.285714285714285</ele><time>2026-03-25T09:01:04.999Z</time></trkpt><trkpt lat="44.80664781156741" lon="10.340722175467848"><ele>49.42857142857143</ele><time>2026-03-25T09:01:05.999Z</time></trkpt><trkpt lat="44.80661728134815" lon="10.340820072150825"><ele>49.57142857142857</ele><time>2026-03-25T09:01:06.999Z</time></trkpt><trkpt lat="44.80659060629728" lon="10.34091595325614"><ele>49.714285714285715</ele><time>2026-03-25T09:01:07.999Z</time></trkpt><trkpt lat="44.80655875356427" lon="10.341016379326758"><ele>49.85714285714286</ele><time>2026-03-25T09:01:08.999Z</time></trkpt><trkpt lat="44.806520856324795" lon="10.341105449354803"><ele>50.0</ele><time>2026-03-25T09:01:09.999Z</time></trkpt><trkpt lat="44.80646609940191" lon="10.341188525542506"><ele>50.00000000000001</ele><time>2026-03-25T09:01:10.999Z</time></trkpt><trkpt lat="44.8064219389641" lon="10.341274247290087"><ele>50.0</ele><time>2026-03-25T09:01:11.999Z</time></trkpt><trkpt lat="44.806387138730585" lon="10.341360627171209"><ele>50.0</ele><time>2026-03-25T09:01:12.999Z</time></trkpt><trkpt lat="44.806338943272166" lon="10.341453703879688"><ele>50.0</ele><time>2026-03-25T09:01:13.999Z</time></trkpt><trkpt lat="44.80626037830389" lon="10.341608211224981"><ele>50.00000000000001</ele><time>2026-03-25T09:01:15.999Z</time></trkpt><trkpt lat="44.80622503243645" lon="10.341702905714978"><ele>50.0</ele><time>2026-03-25T09:01:16.999Z</time></trkpt><trkpt lat="44.8061905793607" lon="10.341796203542433"><ele>50.00000000000001</ele><time>2026-03-25T09:01:17.999Z</time></trkpt><trkpt lat="44.80615521859427" lon="10.341887902403522"><ele>50.0</ele><time>2026-03-25T09:01:18.999Z</time></trkpt><trkpt lat="44.80612362220699" lon="10.341980314160518"><ele>50.0</ele><time>2026-03-25T09:01:19.999Z</time></trkpt><trkpt lat="44.80608605265694" lon="10.342069214650728"><ele>50.0</ele><time>2026-03-25T09:01:20.999Z</time></trkpt><trkpt lat="44.80604602696553" lon="10.342165156062656"><ele>50.0</ele><time>2026-03-25T09:01:21.999Z</time></trkpt><trkpt lat="44.80600332197441" lon="10.342253187895302"><ele>50.00000000000001</ele><time>2026-03-25T09:01:22.999Z</time></trkpt><trkpt lat="44.80597127547991" lon="10.34234086701482"><ele>50.0</ele><time>2026-03-25T09:01:23.999Z</time></trkpt><trkpt lat="44.805935725307066" lon="10.342427361614044"><ele>50.50000000000001</ele><time>2026-03-25T09:01:24.999Z</time></trkpt><trkpt lat="44.805895817744435" lon="10.342520881923992"><ele>51.0</ele><time>2026-03-25T09:01:25.999Z</time></trkpt><trkpt lat="44.80585809971235" lon="10.342608597333616"><ele>51.5</ele><time>2026-03-25T09:01:26.999Z</time></trkpt><trkpt lat="44.805821630728396" lon="10.342700322254851"><ele>52.0</ele><time>2026-03-25T09:01:27.999Z</time></trkpt><trkpt lat="44.80578131444698" lon="10.34279137746271"><ele>52.50000000000001</ele><time>2026-03-25T09:01:28.999Z</time></trkpt><trkpt lat="44.80573971400767" lon="10.342889106084048"><ele>53.0</ele><time>2026-03-25T09:01:29.999Z</time></trkpt><trkpt lat="44.80570652743176" lon="10.34297263202149"><ele>52.85714285714286</ele><time>2026-03-25T09:01:30.999Z</time></trkpt><trkpt lat="44.805677880657534" lon="10.3430532579785"><ele>52.71428571428571</ele><time>2026-03-25T09:01:31.999Z</time></trkpt><trkpt lat="44.80563441496131" lon="10.343130673157429"><ele>52.57142857142857</ele><time>2026-03-25T09:01:32.999Z</time></trkpt><trkpt lat="44.805588857542205" lon="10.343233031033794"><ele>52.42857142857143</ele><time>2026-03-25T09:01:33.999Z</time></trkpt><trkpt lat="44.805558514650144" lon="10.343320712136855"><ele>52.28571428571429</ele><time>2026-03-25T09:01:34.999Z</time></trkpt><trkpt lat="44.80552614484802" lon="10.343413270544598"><ele>52.14285714285714</ele><time>2026-03-25T09:01:35.999Z</time></trkpt><trkpt lat="44.805489130108256" lon="10.343504462457503"><ele>52.0</ele><time>2026-03-25T09:01:36.999Z</time></trkpt><trkpt lat="44.80545532736109" lon="10.34360371652362"><ele>52.0</ele><time>2026-03-25T09:01:37.999Z</time></trkpt><trkpt lat="44.805425476063085" lon="10.343695097306751"><ele>52.0</ele><time>2026-03-25T09:01:38.999Z</time></trkpt><trkpt lat="44.80538947112903" lon="10.34378380976052"><ele>52.0</ele><time>2026-03-25T09:01:39.999Z</time></trkpt><trkpt lat="44.80535625620435" lon="10.343876717651275"><ele>52.0</ele><time>2026-03-25T09:01:40.999Z</time></trkpt><trkpt lat="44.80532839348283" lon="10.343965978524704"><ele>52.0</ele><time>2026-03-25T09:01:41.999Z</time></trkpt><trkpt lat="44.8053028755242" lon="10.344060462424487"><ele>52.0</ele><time>2026-03-25T09:01:42.999Z</time></trkpt><trkpt lat="44.805272136758624" lon="10.34415282890882"><ele>52.0</ele><time>2026-03-25T09:01:43.999Z</time></trkpt><trkpt lat="44.80524325391243" lon="10.344244214987611"><ele>51.83333333333333</ele><time>2026-03-25T09:01:44.999Z</time></trkpt><trkpt lat="44.80521175850046" lon="10.344339311714137"><ele>51.666666666666664</ele><time>2026-03-25T09:01:45.999Z</time></trkpt><trkpt lat="44.80517544997174" lon="10.344430911307407"><ele>51.5</ele><time>2026-03-25T09:01:46.999Z</time></trkpt><trkpt lat="44.805135264715844" lon="10.34452466664263"><ele>51.33333333333333</ele><time>2026-03-25T09:01:47.999Z</time></trkpt><trkpt lat="44.80508916435804" lon="10.344612952616759"><ele>51.166666666666664</ele><time>2026-03-25T09:01:48.999Z</time></trkpt><trkpt lat="44.8050537845034" lon="10.344698993954346"><ele>51.0</ele><time>2026-03-25T09:01:49.999Z</time></trkpt><trkpt lat="44.80501384092154" lon="10.344788363073093"><ele>50.57142857142857</ele><time>2026-03-25T09:01:50.999Z</time></trkpt><trkpt lat="44.804978846249654" lon="10.344884358561988"><ele>50.142857142857146</ele><time>2026-03-25T09:01:51.999Z</time></trkpt><trkpt lat="44.804937510641444" lon="10.344979531076653"><ele>49.71428571428571</ele><time>2026-03-25T09:01:52.999Z</time></trkpt><trkpt lat="44.80489996592874" lon="10.345068693059487"><ele>49.285714285714285</ele><time>2026-03-25T09:01:53.999Z</time></trkpt><trkpt lat="44.80486841744627" lon="10.345160855622112"><ele>48.857142857142854</ele><time>2026-03-25T09:01:54.999Z</time></trkpt><trkpt lat="44.80482926338234" lon="10.345249451372444"><ele>48.42857142857142</ele><time>2026-03-25T09:01:55.999Z</time></trkpt><trkpt lat="44.80479359033406" lon="10.345338518869658"><ele>48.0</ele><time>2026-03-25T09:01:56.999Z</time></trkpt><trkpt lat="44.80476785614745" lon="10.345429117205265"><ele>47.99999999999999</ele><time>2026-03-25T09:01:57.999Z</time></trkpt><trkpt lat="44.804732426419555" lon="10.345512692374482"><ele>48.0</ele><time>2026-03-25T09:01:58.999Z</time></trkpt><trkpt lat="44.804696444656265" lon="10.34560717800854"><ele>48.0</ele><time>2026-03-25T09:01:59.999Z</time></trkpt><trkpt lat="44.804660957066034" lon="10.345697886501702"><ele>48.0</ele><time>2026-03-25T09:02:00.999Z</time></trkpt><trkpt lat="44.804622385495946" lon="10.345798452261"><ele>48.0</ele><time>2026-03-25T09:02:01.999Z</time></trkpt><trkpt lat="44.80458568679733" lon="10.345884647707388"><ele>47.99999999999999</ele><time>2026-03-25T09:02:02.999Z</time></trkpt><trkpt lat="44.80454638527752" lon="10.345976481914903"><ele>48.0</ele><time>2026-03-25T09:02:03.999Z</time></trkpt><trkpt lat="44.804516387270034" lon="10.346067226170055"><ele>47.99999999999999</ele><time>2026-03-25T09:02:04.999Z</time></trkpt><trkpt lat="44.80448368091138" lon="10.346157862531733"><ele>48.0</ele><time>2026-03-25T09:02:05.999Z</time></trkpt><trkpt lat="44.80444841618147" lon="10.346248355682402"><ele>48.0</ele><time>2026-03-25T09:02:06.999Z</time></trkpt><trkpt lat="44.8044123534365" lon="10.346339070583626"><ele>48.0</ele><time>2026-03-25T09:02:07.999Z</time></trkpt><trkpt lat="44.80437114696187" lon="10.346427156401678"><ele>48.0</ele><time>2026-03-25T09:02:08.999Z</time></trkpt><trkpt lat="44.80433316712943" lon="10.346518800906226"><ele>47.99999999999999</ele><time>2026-03-25T09:02:09.999Z</time></trkpt><trkpt lat="44.80429749565013" lon="10.346608778683747"><ele>48.0</ele><time>2026-03-25T09:02:10.999Z</time></trkpt><trkpt lat="44.80425933964763" lon="10.346700720147476"><ele>47.99999999999999</ele><time>2026-03-25T09:02:11.999Z</time></trkpt><trkpt lat="44.80422161784537" lon="10.346790588891354"><ele>48.0</ele><time>2026-03-25T09:02:12.999Z</time></trkpt><trkpt lat="44.8041853349802" lon="10.346878883184798"><ele>48.0</ele><time>2026-03-25T09:02:13.999Z</time></trkpt><trkpt lat="44.80415122047025" lon="10.346968179639209"><ele>48.0</ele><time>2026-03-25T09:02:14.999Z</time></trkpt><trkpt lat="44.804117229663085" lon="10.347054545932322"><ele>48.0</ele><time>2026-03-25T09:02:15.999Z</time></trkpt><trkpt lat="44.804084073166834" lon="10.347140819145316"><ele>47.99999999999999</ele><time>2026-03-25T09:02:16.999Z</time></trkpt><trkpt lat="44.80405258098877" lon="10.347224959824803"><ele>48.0</ele><time>2026-03-25T09:02:17.999Z</time></trkpt><trkpt lat="44.80401807792188" lon="10.347310986950092"><ele>48.285714285714285</ele><time>2026-03-25T09:02:18.999Z</time></trkpt><trkpt lat="44.80398455689911" lon="10.34739635914798"><ele>48.57142857142857</ele><time>2026-03-25T09:02:19.999Z</time></trkpt><trkpt lat="44.80394987134621" lon="10.34748607722227"><ele>48.85714285714286</ele><time>2026-03-25T09:02:20.999Z</time></trkpt><trkpt lat="44.80390840335664" lon="10.347576245143083"><ele>49.14285714285714</ele><time>2026-03-25T09:02:21.999Z</time></trkpt><trkpt lat="44.803864589559915" lon="10.347668802729359"><ele>49.42857142857143</ele><time>2026-03-25T09:02:22.999Z</time></trkpt><trkpt lat="44.803825301018335" lon="10.34776022314867"><ele>49.714285714285715</ele><time>2026-03-25T09:02:23.999Z</time></trkpt><trkpt lat="44.80379088926321" lon="10.347848795084149"><ele>50.0</ele><time>2026-03-25T09:02:24.999Z</time></trkpt><trkpt lat="44.80375388647723" lon="10.347939386260382"><ele>50.00000000000001</ele><time>2026-03-25T09:02:25.999Z</time></trkpt><trkpt lat="44.80371220308136" lon="10.348030152013836"><ele>50.0</ele><time>2026-03-25T09:02:26.999Z</time></trkpt><trkpt lat="44.80367570947296" lon="10.348121127998297"><ele>50.0</ele><time>2026-03-25T09:02:27.999Z</time></trkpt><trkpt lat="44.80364140914973" lon="10.348206949899557"><ele>50.0</ele><time>2026-03-25T09:02:28.999Z</time></trkpt><trkpt lat="44.80360082772716" lon="10.348292925637775"><ele>50.0</ele><time>2026-03-25T09:02:29.999Z</time></trkpt><trkpt lat="44.803565072299484" lon="10.348380702353559"><ele>50.00000000000001</ele><time>2026-03-25T09:02:30.999Z</time></trkpt><trkpt lat="44.80352271418533" lon="10.348466515537215"><ele>50.0</ele><time>2026-03-25T09:02:31.999Z</time></trkpt><trkpt lat="44.80348518003519" lon="10.348555386022102"><ele>50.00000000000001</ele><time>2026-03-25T09:02:32.999Z</time></trkpt><trkpt lat="44.803452222642015" lon="10.348644120423739"><ele>50.0</ele><time>2026-03-25T09:02:33.999Z</time></trkpt><trkpt lat="44.80341994663963" lon="10.348732537148777"><ele>50.0</ele><time>2026-03-25T09:02:34.999Z</time></trkpt><trkpt lat="44.80338515072365" lon="10.348821597254226"><ele>50.0</ele><time>2026-03-25T09:02:35.999Z</time></trkpt><trkpt lat="44.803347356242966" lon="10.348910681847302"><ele>50.0</ele><time>2026-03-25T09:02:36.999Z</time></trkpt><trkpt lat="44.803309094928075" lon="10.349001163993334"><ele>50.00000000000001</ele><time>2026-03-25T09:02:37.999Z</time></trkpt><trkpt lat="44.80327040004316" lon="10.34908996200124"><ele>50.0</ele><time>2026-03-25T09:02:38.999Z</time></trkpt><trkpt lat="44.80323448852008" lon="10.3491796568937"><ele>49.85714285714286</ele><time>2026-03-25T09:02:39.999Z</time></trkpt><trkpt lat="44.8031980219698" lon="10.349268056305982"><ele>49.714285714285715</ele><time>2026-03-25T09:02:40.999Z</time></trkpt><trkpt lat="44.80316215828704" lon="10.34935668322033"><ele>49.57142857142857</ele><time>2026-03-25T09:02:41.999Z</time></trkpt><trkpt lat="44.80312924870282" lon="10.349443895465777"><ele>49.42857142857143</ele><time>2026-03-25T09:02:42.999Z</time></trkpt><trkpt lat="44.80309760065564" lon="10.349531995945462"><ele>49.285714285714285</ele><time>2026-03-25T09:02:43.999Z</time></trkpt><trkpt lat="44.80306191580883" lon="10.349618452353699"><ele>49.142857142857146</ele><time>2026-03-25T09:02:44.999Z</time></trkpt><trkpt lat="44.80302949418881" lon="10.349705279857007"><ele>49.0</ele><time>2026-03-25T09:02:45.999Z</time></trkpt><trkpt lat="44.8029961514208" lon="10.349797144061917"><ele>48.857142857142854</ele><time>2026-03-25T09:02:46.999Z</time></trkpt><trkpt lat="44.80295538661518" lon="10.34988982861398"><ele>48.714285714285715</ele><time>2026-03-25T09:02:47.999Z</time></trkpt><trkpt lat="44.802927604955265" lon="10.34997240997211"><ele>48.57142857142857</ele><time>2026-03-25T09:02:48.999Z</time></trkpt><trkpt lat="44.80289391269255" lon="10.350057322621435"><ele>48.42857142857143</ele><time>2026-03-25T09:02:49.999Z</time></trkpt><trkpt lat="44.802851100329946" lon="10.350142203669396"><ele>48.285714285714285</ele><time>2026-03-25T09:02:50.999Z</time></trkpt><trkpt lat="44.80280744727556" lon="10.350224595279478"><ele>48.14285714285714</ele><time>2026-03-25T09:02:51.999Z</time></trkpt><trkpt lat="44.80277198289417" lon="10.350308404328572"><ele>48.0</ele><time>2026-03-25T09:02:52.999Z</time></trkpt><trkpt lat="44.80274225980421" lon="10.350395033493172"><ele>48.0</ele><time>2026-03-25T09:02:53.999Z</time></trkpt><trkpt lat="44.80269496923898" lon="10.350488063132365"><ele>48.0</ele><time>2026-03-25T09:02:54.999Z</time></trkpt><trkpt lat="44.802663915658485" lon="10.350587769427356"><ele>48.0</ele><time>2026-03-25T09:02:55.999Z</time></trkpt><trkpt lat="44.80263186966174" lon="10.35068253879179"><ele>48.0</ele><time>2026-03-25T09:02:56.999Z</time></trkpt><trkpt lat="44.80259952041339" lon="10.35077075148574"><ele>48.0</ele><time>2026-03-25T09:02:57.999Z</time></trkpt><trkpt lat="44.802569502779996" lon="10.350876149127256"><ele>48.0</ele><time>2026-03-25T09:02:58.999Z</time></trkpt><trkpt lat="44.80252680142063" lon="10.350966844364704"><ele>48.2</ele><time>2026-03-25T09:02:59.999Z</time></trkpt><trkpt lat="44.802477745165305" lon="10.351062694414788"><ele>48.4</ele><time>2026-03-25T09:03:00.999Z</time></trkpt><trkpt lat="44.80242522297177" lon="10.351161702165843"><ele>48.6</ele><time>2026-03-25T09:03:01.999Z</time></trkpt><trkpt lat="44.802389101109625" lon="10.351261610961744"><ele>48.800000000000004</ele><time>2026-03-25T09:03:02.999Z</time></trkpt><trkpt lat="44.80234392744907" lon="10.351378794953051"><ele>49.0</ele><time>2026-03-25T09:03:03.999Z</time></trkpt><trkpt lat="44.80227145258965" lon="10.351485596134237"><ele>49.0</ele><time>2026-03-25T09:03:04.999Z</time></trkpt><trkpt lat="44.80220923796153" lon="10.351641386836857"><ele>49.0</ele><time>2026-03-25T09:03:05.999Z</time></trkpt><trkpt lat="44.80214674626887" lon="10.351786795836698"><ele>49.0</ele><time>2026-03-25T09:03:06.999Z</time></trkpt><trkpt lat="44.802097052432174" lon="10.351913828339661"><ele>49.0</ele><time>2026-03-25T09:03:07.999Z</time></trkpt><trkpt lat="44.80203169576198" lon="10.352035163311546"><ele>49.0</ele><time>2026-03-25T09:03:08.999Z</time></trkpt><trkpt lat="44.801975282080825" lon="10.352179400607419"><ele>49.0</ele><time>2026-03-25T09:03:09.999Z</time></trkpt><trkpt lat="44.80190484128203" lon="10.35235545463534"><ele>49.0</ele><time>2026-03-25T09:03:10.999Z</time></trkpt><trkpt lat="44.80183367533641" lon="10.352520524219718"><ele>49.0</ele><time>2026-03-25T09:03:11.999Z</time></trkpt><trkpt lat="44.80177669580719" lon="10.352680365114828"><ele>49.2</ele><time>2026-03-25T09:03:12.999Z</time></trkpt><trkpt lat="44.80171561826718" lon="10.352842546241396"><ele>49.400000000000006</ele><time>2026-03-25T09:03:13.999Z</time></trkpt><trkpt lat="44.80168050726482" lon="10.352968658643261"><ele>49.6</ele><time>2026-03-25T09:03:14.999Z</time></trkpt><trkpt lat="44.80164813131941" lon="10.353108066796022"><ele>49.8</ele><time>2026-03-25T09:03:15.999Z</time></trkpt><trkpt lat="44.80161609762607" lon="10.353252843923421"><ele>50.0</ele><time>2026-03-25T09:03:16.999Z</time></trkpt><trkpt lat="44.80158837513363" lon="10.35339006406759"><ele>50.0</ele><time>2026-03-25T09:03:17.999Z</time></trkpt><trkpt lat="44.80147591849571" lon="10.353619214305654"><ele>50.0</ele><time>2026-03-25T09:03:18.999Z</time></trkpt><trkpt lat="44.80140812060077" lon="10.353806489696403"><ele>50.0</ele><time>2026-03-25T09:03:19.999Z</time></trkpt><trkpt lat="44.801340546621354" lon="10.354018771315332"><ele>49.66666666666667</ele><time>2026-03-25T09:03:20.999Z</time></trkpt><trkpt lat="44.801284569816936" lon="10.35422235596762"><ele>49.33333333333333</ele><time>2026-03-25T09:03:21.999Z</time></trkpt><trkpt lat="44.80124100304386" lon="10.354449454215718"><ele>49.0</ele><time>2026-03-25T09:03:22.999Z</time></trkpt><trkpt lat="44.801195791198296" lon="10.354691271811067"><ele>49.0</ele><time>2026-03-25T09:03:23.999Z</time></trkpt><trkpt lat="44.80114475115597" lon="10.354930799545983"><ele>49.0</ele><time>2026-03-25T09:03:24.999Z</time></trkpt><trkpt lat="44.801049486969966" lon="10.355184037782138"><ele>49.0</ele><time>2026-03-25T09:03:25.999Z</time></trkpt><trkpt lat="44.80096764878777" lon="10.355430374384449"><ele>49.33333333333333</ele><time>2026-03-25T09:03:26.999Z</time></trkpt><trkpt lat="44.8008725264067" lon="10.3556923472623"><ele>49.66666666666667</ele><time>2026-03-25T09:03:27.999Z</time></trkpt><trkpt lat="44.80077975423604" lon="10.3559510331342"><ele>50.0</ele><time>2026-03-25T09:03:28.999Z</time></trkpt><trkpt lat="44.80066862993197" lon="10.356230704217106"><ele>50.0</ele><time>2026-03-25T09:03:29.999Z</time></trkpt><trkpt lat="44.80056168961687" lon="10.356511933463981"><ele>50.0</ele><time>2026-03-25T09:03:30.999Z</time></trkpt><trkpt lat="44.80047674157032" lon="10.35677601495073"><ele>50.0</ele><time>2026-03-25T09:03:31.999Z</time></trkpt><trkpt lat="44.80036288281951" lon="10.35706297138054"><ele>50.0</ele><time>2026-03-25T09:03:32.999Z</time></trkpt><trkpt lat="44.800287769192" lon="10.357326397380012"><ele>50.0</ele><time>2026-03-25T09:03:33.999Z</time></trkpt><trkpt lat="44.80016429674536" lon="10.357622029378398"><ele>50.0</ele><time>2026-03-25T09:03:34.999Z</time></trkpt><trkpt lat="44.80004716844547" lon="10.357918577330917"><ele>50.0</ele><time>2026-03-25T09:03:35.999Z</time></trkpt><trkpt lat="44.799947073641796" lon="10.358198761722491"><ele>50.0</ele><time>2026-03-25T09:03:36.999Z</time></trkpt><trkpt lat="44.79983876687071" lon="10.358497328290973"><ele>50.0</ele><time>2026-03-25T09:03:37.999Z</time></trkpt><trkpt lat="44.799688161294874" lon="10.358828584656612"><ele>50.0</ele><time>2026-03-25T09:03:38.999Z</time></trkpt><trkpt lat="44.79954414899735" lon="10.359140771227036"><ele>50.0</ele><time>2026-03-25T09:03:39.999Z</time></trkpt><trkpt lat="44.799430169645554" lon="10.359445753650771"><ele>50.0</ele><time>2026-03-25T09:03:40.999Z</time></trkpt><trkpt lat="44.799285285067285" lon="10.359771182411391"><ele>50.0</ele><time>2026-03-25T09:03:41.999Z</time></trkpt><trkpt lat="44.79911938441043" lon="10.360104185531366"><ele>50.0</ele><time>2026-03-25T09:03:42.999Z</time></trkpt><trkpt lat="44.79895707080425" lon="10.36044189999967"><ele>49.5</ele><time>2026-03-25T09:03:43.999Z</time></trkpt><trkpt lat="44.79880203669146" lon="10.360802241032864"><ele>49.0</ele><time>2026-03-25T09:03:44.999Z</time></trkpt><trkpt lat="44.79862349552613" lon="10.361164606479038"><ele>49.0</ele><time>2026-03-25T09:03:45.999Z</time></trkpt><trkpt lat="44.79846622945217" lon="10.36151434628626"><ele>49.0</ele><time>2026-03-25T09:03:46.999Z</time></trkpt><trkpt lat="44.79831068063333" lon="10.36186821348961"><ele>48.5</ele><time>2026-03-25T09:03:47.999Z</time></trkpt><trkpt lat="44.798152845253014" lon="10.362224262765936"><ele>48.0</ele><time>2026-03-25T09:03:48.999Z</time></trkpt><trkpt lat="44.7979902124641" lon="10.362583600762488"><ele>48.0</ele><time>2026-03-25T09:03:49.999Z</time></trkpt><trkpt lat="44.7978327510931" lon="10.362946678404029"><ele>48.0</ele><time>2026-03-25T09:03:50.999Z</time></trkpt><trkpt lat="44.797647823838076" lon="10.36333058513272"><ele>47.5</ele><time>2026-03-25T09:03:51.999Z</time></trkpt><trkpt lat="44.797467282797136" lon="10.363707253536806"><ele>47.0</ele><time>2026-03-25T09:03:52.999Z</time></trkpt><trkpt lat="44.79727186563509" lon="10.364097850534998"><ele>46.5</ele><time>2026-03-25T09:03:53.999Z</time></trkpt><trkpt lat="44.79708804314363" lon="10.364484159480998"><ele>46.0</ele><time>2026-03-25T09:03:54.999Z</time></trkpt><trkpt lat="44.79691190639703" lon="10.364870529787243"><ele>46.5</ele><time>2026-03-25T09:03:55.999Z</time></trkpt><trkpt lat="44.79673769459155" lon="10.365257861914786"><ele>47.0</ele><time>2026-03-25T09:03:56.999Z</time></trkpt><trkpt lat="44.79656024145557" lon="10.365641407931875"><ele>47.0</ele><time>2026-03-25T09:03:57.999Z</time></trkpt><trkpt lat="44.79639629078431" lon="10.36601991694249"><ele>47.0</ele><time>2026-03-25T09:03:58.999Z</time></trkpt><trkpt lat="44.79622782331506" lon="10.366402459651267"><ele>48.0</ele><time>2026-03-25T09:03:59.999Z</time></trkpt><trkpt lat="44.79605522290245" lon="10.366791401441327"><ele>49.0</ele><time>2026-03-25T09:04:00.999Z</time></trkpt><trkpt lat="44.79589454838702" lon="10.367181054575825"><ele>49.0</ele><time>2026-03-25T09:04:01.999Z</time></trkpt><trkpt lat="44.79573545548862" lon="10.367575085772646"><ele>49.0</ele><time>2026-03-25T09:04:02.999Z</time></trkpt><trkpt lat="44.79555724905656" lon="10.367979603156266"><ele>49.5</ele><time>2026-03-25T09:04:03.999Z</time></trkpt><trkpt lat="44.79538142008169" lon="10.368381389076934"><ele>50.0</ele><time>2026-03-25T09:04:04.999Z</time></trkpt><trkpt lat="44.795218233824244" lon="10.36877748616096"><ele>49.5</ele><time>2026-03-25T09:04:05.999Z</time></trkpt><trkpt lat="44.7950538636677" lon="10.369181978836952"><ele>49.0</ele><time>2026-03-25T09:04:06.999Z</time></trkpt><trkpt lat="44.79488623375956" lon="10.369589706061818"><ele>47.5</ele><time>2026-03-25T09:04:07.999Z</time></trkpt><trkpt lat="44.7947188636219" lon="10.369993530770618"><ele>46.0</ele><time>2026-03-25T09:04:08.999Z</time></trkpt><trkpt lat="44.794536646453906" lon="10.370412919430589"><ele>46.0</ele><time>2026-03-25T09:04:09.999Z</time></trkpt><trkpt lat="44.79436065808335" lon="10.370827857301844"><ele>46.0</ele><time>2026-03-25T09:04:10.999Z</time></trkpt><trkpt lat="44.794196910391115" lon="10.371232216103573"><ele>46.0</ele><time>2026-03-25T09:04:11.999Z</time></trkpt><trkpt lat="44.79404107503812" lon="10.371637285756213"><ele>46.0</ele><time>2026-03-25T09:04:12.999Z</time></trkpt><trkpt lat="44.793876693976806" lon="10.372049727474693"><ele>46.5</ele><time>2026-03-25T09:04:13.999Z</time></trkpt><trkpt lat="44.79369670566231" lon="10.372478253284415"><ele>47.0</ele><time>2026-03-25T09:04:14.999Z</time></trkpt><trkpt lat="44.79352068526707" lon="10.372890782509389"><ele>48.0</ele><time>2026-03-25T09:04:15.999Z</time></trkpt><trkpt lat="44.79334930177685" lon="10.373309237466671"><ele>49.0</ele><time>2026-03-25T09:04:16.999Z</time></trkpt><trkpt lat="44.79317119915696" lon="10.37373453114993"><ele>47.0</ele><time>2026-03-25T09:04:17.999Z</time></trkpt><trkpt lat="44.79298876233804" lon="10.374177622822792"><ele>45.0</ele><time>2026-03-25T09:04:18.999Z</time></trkpt><trkpt lat="44.792811155235434" lon="10.374608295724403"><ele>46.5</ele><time>2026-03-25T09:04:19.999Z</time></trkpt><trkpt lat="44.79263560494617" lon="10.37504148512244"><ele>48.0</ele><time>2026-03-25T09:04:20.999Z</time></trkpt><trkpt lat="44.79245697527964" lon="10.375477543191689"><ele>47.0</ele><time>2026-03-25T09:04:21.999Z</time></trkpt><trkpt lat="44.79227523140303" lon="10.375918188208043"><ele>46.0</ele><time>2026-03-25T09:04:22.999Z</time></trkpt><trkpt lat="44.79208315817099" lon="10.376360152071612"><ele>46.0</ele><time>2026-03-25T09:04:23.999Z</time></trkpt><trkpt lat="44.791892075057355" lon="10.376802018589029"><ele>46.0</ele><time>2026-03-25T09:04:24.999Z</time></trkpt><trkpt lat="44.791703387658444" lon="10.37723662926617"><ele>46.0</ele><time>2026-03-25T09:04:25.999Z</time></trkpt><trkpt lat="44.7915164563118" lon="10.37766612157502"><ele>46.0</ele><time>2026-03-25T09:04:26.999Z</time></trkpt><trkpt lat="44.791328276599565" lon="10.37809150591023"><ele>46.0</ele><time>2026-03-25T09:04:27.999Z</time></trkpt><trkpt lat="44.79115011320749" lon="10.37850544534516"><ele>46.0</ele><time>2026-03-25T09:04:28.999Z</time></trkpt><trkpt lat="44.79098075109145" lon="10.378918084837325"><ele>46.5</ele><time>2026-03-25T09:04:29.999Z</time></trkpt><trkpt lat="44.79081293188413" lon="10.379331095465322"><ele>47.0</ele><time>2026-03-25T09:04:30.999Z</time></trkpt><trkpt lat="44.790660208283185" lon="10.379731614704706"><ele>47.0</ele><time>2026-03-25T09:04:31.999Z</time></trkpt><trkpt lat="44.79049281225172" lon="10.380129059359865"><ele>47.0</ele><time>2026-03-25T09:04:32.999Z</time></trkpt><trkpt lat="44.79032194555059" lon="10.380522973000621"><ele>47.0</ele><time>2026-03-25T09:04:33.999Z</time></trkpt><trkpt lat="44.79016453079992" lon="10.380909043027438"><ele>47.0</ele><time>2026-03-25T09:04:34.999Z</time></trkpt><trkpt lat="44.79000517044619" lon="10.381290561579524"><ele>46.0</ele><time>2026-03-25T09:04:35.999Z</time></trkpt><trkpt lat="44.789854843655505" lon="10.381669718937436"><ele>45.0</ele><time>2026-03-25T09:04:36.999Z</time></trkpt><trkpt lat="44.78970254794479" lon="10.38204434990182"><ele>45.5</ele><time>2026-03-25T09:04:37.999Z</time></trkpt><trkpt lat="44.789558817836706" lon="10.382415196593758"><ele>46.0</ele><time>2026-03-25T09:04:38.999Z</time></trkpt><trkpt lat="44.78941874165031" lon="10.382778802368145"><ele>46.5</ele><time>2026-03-25T09:04:39.999Z</time></trkpt><trkpt lat="44.78928152948302" lon="10.383145255381596"><ele>47.0</ele><time>2026-03-25T09:04:40.999Z</time></trkpt><trkpt lat="44.789137810348436" lon="10.38351278593789"><ele>46.5</ele><time>2026-03-25T09:04:41.999Z</time></trkpt><trkpt lat="44.78899353169893" lon="10.383880480377439"><ele>46.0</ele><time>2026-03-25T09:04:42.999Z</time></trkpt><trkpt lat="44.7888295671582" lon="10.38423768744434"><ele>46.0</ele><time>2026-03-25T09:04:43.999Z</time></trkpt><trkpt lat="44.788698320445825" lon="10.384600777815496"><ele>46.0</ele><time>2026-03-25T09:04:44.999Z</time></trkpt><trkpt lat="44.78855604272943" lon="10.384965765908563"><ele>46.0</ele><time>2026-03-25T09:04:45.999Z</time></trkpt><trkpt lat="44.788420967569806" lon="10.385315234055572"><ele>46.0</ele><time>2026-03-25T09:04:46.999Z</time></trkpt><trkpt lat="44.78825420414845" lon="10.385687683862562"><ele>46.0</ele><time>2026-03-25T09:04:47.999Z</time></trkpt><trkpt lat="44.78808877510669" lon="10.386044692784951"><ele>46.0</ele><time>2026-03-25T09:04:48.999Z</time></trkpt><trkpt lat="44.787920217229654" lon="10.386403042720058"><ele>46.0</ele><time>2026-03-25T09:04:49.999Z</time></trkpt><trkpt lat="44.78775630231178" lon="10.386761972232609"><ele>46.0</ele><time>2026-03-25T09:04:50.999Z</time></trkpt><trkpt lat="44.78760261506571" lon="10.38711951591684"><ele>47.0</ele><time>2026-03-25T09:04:51.999Z</time></trkpt><trkpt lat="44.7874301859988" lon="10.387485650969198"><ele>48.0</ele><time>2026-03-25T09:04:52.999Z</time></trkpt><trkpt lat="44.787275510533924" lon="10.38783532588501"><ele>48.0</ele><time>2026-03-25T09:04:53.999Z</time></trkpt><trkpt lat="44.787135981025884" lon="10.388174917738075"><ele>48.0</ele><time>2026-03-25T09:04:54.999Z</time></trkpt><trkpt lat="44.786980644987885" lon="10.388543541718194"><ele>49.0</ele><time>2026-03-25T09:04:55.999Z</time></trkpt><trkpt lat="44.786832824924446" lon="10.388914786037667"><ele>50.0</ele><time>2026-03-25T09:04:56.999Z</time></trkpt><trkpt lat="44.786692063719414" lon="10.389281944901674"><ele>50.0</ele><time>2026-03-25T09:04:57.999Z</time></trkpt><trkpt lat="44.78655490157152" lon="10.389628223864221"><ele>50.0</ele><time>2026-03-25T09:04:58.999Z</time></trkpt><trkpt lat="44.78641892463683" lon="10.38996575609043"><ele>49.0</ele><time>2026-03-25T09:04:59.999Z</time></trkpt><trkpt lat="44.78628229518197" lon="10.390299530599531"><ele>48.0</ele><time>2026-03-25T09:05:00.999Z</time></trkpt><trkpt lat="44.78614287064335" lon="10.390641154848916"><ele>47.0</ele><time>2026-03-25T09:05:01.999Z</time></trkpt><trkpt lat="44.78601949500479" lon="10.390967925259373"><ele>46.0</ele><time>2026-03-25T09:05:02.999Z</time></trkpt><trkpt lat="44.78589233237017" lon="10.391292045386718"><ele>47.0</ele><time>2026-03-25T09:05:03.999Z</time></trkpt><trkpt lat="44.78576132843495" lon="10.391633366001535"><ele>48.0</ele><time>2026-03-25T09:05:04.999Z</time></trkpt><trkpt lat="44.785629211841254" lon="10.391980582400643"><ele>47.5</ele><time>2026-03-25T09:05:05.999Z</time></trkpt><trkpt lat="44.7855025184372" lon="10.392310373873798"><ele>47.0</ele><time>2026-03-25T09:05:06.999Z</time></trkpt><trkpt lat="44.7853660429016" lon="10.39263721268684"><ele>47.0</ele><time>2026-03-25T09:05:07.999Z</time></trkpt><trkpt lat="44.78522244802946" lon="10.392971328726546"><ele>47.0</ele><time>2026-03-25T09:05:08.999Z</time></trkpt><trkpt lat="44.785089894167115" lon="10.393298371565685"><ele>47.0</ele><time>2026-03-25T09:05:09.999Z</time></trkpt><trkpt lat="44.78495762233575" lon="10.393618299328871"><ele>47.0</ele><time>2026-03-25T09:05:10.999Z</time></trkpt><trkpt lat="44.784828224349724" lon="10.393934802329676"><ele>47.0</ele><time>2026-03-25T09:05:11.999Z</time></trkpt><trkpt lat="44.78470144812519" lon="10.39424793368526"><ele>47.0</ele><time>2026-03-25T09:05:12.999Z</time></trkpt><trkpt lat="44.78456726136411" lon="10.394579939317858"><ele>47.0</ele><time>2026-03-25T09:05:13.999Z</time></trkpt><trkpt lat="44.78442771208811" lon="10.39491671837766"><ele>47.0</ele><time>2026-03-25T09:05:14.999Z</time></trkpt><trkpt lat="44.78428596753262" lon="10.395251215718698"><ele>46.5</ele><time>2026-03-25T09:05:15.999Z</time></trkpt><trkpt lat="44.7841510357319" lon="10.395577378530897"><ele>46.0</ele><time>2026-03-25T09:05:16.999Z</time></trkpt><trkpt lat="44.78402070367043" lon="10.39590245427013"><ele>46.0</ele><time>2026-03-25T09:05:17.999Z</time></trkpt><trkpt lat="44.78388693938558" lon="10.396222202862438"><ele>46.0</ele><time>2026-03-25T09:05:18.999Z</time></trkpt><trkpt lat="44.78375435706346" lon="10.39655283389412"><ele>45.5</ele><time>2026-03-25T09:05:19.999Z</time></trkpt><trkpt lat="44.78361645819036" lon="10.396881000545319"><ele>45.0</ele><time>2026-03-25T09:05:20.999Z</time></trkpt><trkpt lat="44.783483249982815" lon="10.397209334710265"><ele>46.5</ele><time>2026-03-25T09:05:21.999Z</time></trkpt><trkpt lat="44.783344598232325" lon="10.39754443795776"><ele>48.0</ele><time>2026-03-25T09:05:22.999Z</time></trkpt><trkpt lat="44.78320878221003" lon="10.397876588276535"><ele>48.0</ele><time>2026-03-25T09:05:23.999Z</time></trkpt><trkpt lat="44.78307280946391" lon="10.398209264654145"><ele>48.0</ele><time>2026-03-25T09:05:24.999Z</time></trkpt><trkpt lat="44.78293910974119" lon="10.398539409660966"><ele>48.0</ele><time>2026-03-25T09:05:25.999Z</time></trkpt><trkpt lat="44.78280937378273" lon="10.398873412645962"><ele>48.0</ele><time>2026-03-25T09:05:26.999Z</time></trkpt><trkpt lat="44.78267276153131" lon="10.399221649435896"><ele>47.5</ele><time>2026-03-25T09:05:27.999Z</time></trkpt><trkpt lat="44.78253913171713" lon="10.399560575110474"><ele>47.0</ele><time>2026-03-25T09:05:28.999Z</time></trkpt><trkpt lat="44.78240626071111" lon="10.399895464091442"><ele>47.0</ele><time>2026-03-25T09:05:29.999Z</time></trkpt><trkpt lat="44.782276581748576" lon="10.400232642221422"><ele>47.0</ele><time>2026-03-25T09:05:30.999Z</time></trkpt><trkpt lat="44.78213995961247" lon="10.400567362508147"><ele>46.5</ele><time>2026-03-25T09:05:31.999Z</time></trkpt><trkpt lat="44.78200900597623" lon="10.40090463923665"><ele>46.0</ele><time>2026-03-25T09:05:32.999Z</time></trkpt><trkpt lat="44.781857861815055" lon="10.401228882994925"><ele>47.0</ele><time>2026-03-25T09:05:33.999Z</time></trkpt><trkpt lat="44.781717000627474" lon="10.4015611528366"><ele>48.0</ele><time>2026-03-25T09:05:34.999Z</time></trkpt><trkpt lat="44.781579217625335" lon="10.40188833445577"><ele>47.5</ele><time>2026-03-25T09:05:35.999Z</time></trkpt><trkpt lat="44.78144043587844" lon="10.402225495774983"><ele>47.0</ele><time>2026-03-25T09:05:36.999Z</time></trkpt><trkpt lat="44.78130534259514" lon="10.402560711775282"><ele>47.0</ele><time>2026-03-25T09:05:37.999Z</time></trkpt><trkpt lat="44.78116763410342" lon="10.40289558843014"><ele>47.0</ele><time>2026-03-25T09:05:38.999Z</time></trkpt><trkpt lat="44.78103477125899" lon="10.40322740251532"><ele>47.5</ele><time>2026-03-25T09:05:39.999Z</time></trkpt><trkpt lat="44.78089412490317" lon="10.403561718332803"><ele>48.0</ele><time>2026-03-25T09:05:40.999Z</time></trkpt><trkpt lat="44.78075956395054" lon="10.403896928662242"><ele>48.0</ele><time>2026-03-25T09:05:41.999Z</time></trkpt><trkpt lat="44.78062401411106" lon="10.404231798676465"><ele>48.0</ele><time>2026-03-25T09:05:42.999Z</time></trkpt><trkpt lat="44.78048843067846" lon="10.404566500322"><ele>47.5</ele><time>2026-03-25T09:05:43.999Z</time></trkpt><trkpt lat="44.78035277257564" lon="10.404899949773464"><ele>47.0</ele><time>2026-03-25T09:05:44.999Z</time></trkpt><trkpt lat="44.78021077693949" lon="10.405235999242723"><ele>46.5</ele><time>2026-03-25T09:05:45.999Z</time></trkpt><trkpt lat="44.78006580827378" lon="10.405577141416916"><ele>46.0</ele><time>2026-03-25T09:05:46.999Z</time></trkpt><trkpt lat="44.77992994737006" lon="10.40591441596957"><ele>46.0</ele><time>2026-03-25T09:05:47.999Z</time></trkpt><trkpt lat="44.77978773349804" lon="10.406256626717868"><ele>46.0</ele><time>2026-03-25T09:05:48.999Z</time></trkpt><trkpt lat="44.77964464696692" lon="10.406605088400934"><ele>46.5</ele><time>2026-03-25T09:05:49.999Z</time></trkpt><trkpt lat="44.779503926477645" lon="10.406951414045219"><ele>47.0</ele><time>2026-03-25T09:05:50.999Z</time></trkpt><trkpt lat="44.779359993594944" lon="10.407300968535564"><ele>46.5</ele><time>2026-03-25T09:05:51.999Z</time></trkpt><trkpt lat="44.77921477128794" lon="10.407655906834885"><ele>46.0</ele><time>2026-03-25T09:05:52.999Z</time></trkpt><trkpt lat="44.77906764106504" lon="10.408014289042075"><ele>46.0</ele><time>2026-03-25T09:05:53.999Z</time></trkpt><trkpt lat="44.77892217131464" lon="10.408372642121739"><ele>46.0</ele><time>2026-03-25T09:05:54.999Z</time></trkpt><trkpt lat="44.77877297297379" lon="10.408736541303979"><ele>45.5</ele><time>2026-03-25T09:05:55.999Z</time></trkpt><trkpt lat="44.778624199136885" lon="10.40909821571594"><ele>45.0</ele><time>2026-03-25T09:05:56.999Z</time></trkpt><trkpt lat="44.77847483671212" lon="10.409462543153571"><ele>45.5</ele><time>2026-03-25T09:05:57.999Z</time></trkpt><trkpt lat="44.77832489355398" lon="10.409832259054111"><ele>46.0</ele><time>2026-03-25T09:05:58.999Z</time></trkpt><trkpt lat="44.77817729871459" lon="10.41020286497548"><ele>47.0</ele><time>2026-03-25T09:05:59.999Z</time></trkpt><trkpt lat="44.778025868316256" lon="10.410576290432864"><ele>48.0</ele><time>2026-03-25T09:06:00.999Z</time></trkpt><trkpt lat="44.7778755987332" lon="10.410949498882433"><ele>48.0</ele><time>2026-03-25T09:06:01.999Z</time></trkpt><trkpt lat="44.77772883046956" lon="10.411323508205633"><ele>48.0</ele><time>2026-03-25T09:06:02.999Z</time></trkpt><trkpt lat="44.77758152817646" lon="10.411715912518064"><ele>48.5</ele><time>2026-03-25T09:06:03.999Z</time></trkpt><trkpt lat="44.77744251971355" lon="10.412109064272714"><ele>49.0</ele><time>2026-03-25T09:06:04.999Z</time></trkpt><trkpt lat="44.77730521389049" lon="10.41250632337516"><ele>49.0</ele><time>2026-03-25T09:06:05.999Z</time></trkpt><trkpt lat="44.77717248814068" lon="10.412908157267406"><ele>49.0</ele><time>2026-03-25T09:06:06.999Z</time></trkpt><trkpt lat="44.77704158520843" lon="10.413328953959784"><ele>48.5</ele><time>2026-03-25T09:06:07.999Z</time></trkpt><trkpt lat="44.776912020150284" lon="10.413744772437516"><ele>48.0</ele><time>2026-03-25T09:06:08.999Z</time></trkpt><trkpt lat="44.77678295773084" lon="10.414164198640671"><ele>48.0</ele><time>2026-03-25T09:06:09.999Z</time></trkpt><trkpt lat="44.77665273771309" lon="10.41458671620463"><ele>48.0</ele><time>2026-03-25T09:06:10.999Z</time></trkpt><trkpt lat="44.77652324460104" lon="10.415014101540908"><ele>48.0</ele><time>2026-03-25T09:06:11.999Z</time></trkpt><trkpt lat="44.776402187338824" lon="10.41544356937683"><ele>48.0</ele><time>2026-03-25T09:06:12.999Z</time></trkpt><trkpt lat="44.77627839785013" lon="10.415869483361302"><ele>48.0</ele><time>2026-03-25T09:06:13.999Z</time></trkpt><trkpt lat="44.776152757601075" lon="10.416296915915547"><ele>48.0</ele><time>2026-03-25T09:06:14.999Z</time></trkpt><trkpt lat="44.7760271348026" lon="10.41672081552757"><ele>48.5</ele><time>2026-03-25T09:06:15.999Z</time></trkpt><trkpt lat="44.775900984323165" lon="10.417143596115375"><ele>49.0</ele><time>2026-03-25T09:06:16.999Z</time></trkpt><trkpt lat="44.77577547110322" lon="10.417564343626278"><ele>49.5</ele><time>2026-03-25T09:06:17.999Z</time></trkpt><trkpt lat="44.775651650194305" lon="10.417983239900336"><ele>50.0</ele><time>2026-03-25T09:06:18.999Z</time></trkpt><trkpt lat="44.77552847364117" lon="10.418396980912098"><ele>50.0</ele><time>2026-03-25T09:06:19.999Z</time></trkpt><trkpt lat="44.77540552798518" lon="10.418807546744633"><ele>50.0</ele><time>2026-03-25T09:06:20.999Z</time></trkpt><trkpt lat="44.7752832685494" lon="10.419217269448826"><ele>50.0</ele><time>2026-03-25T09:06:21.999Z</time></trkpt><trkpt lat="44.77516262783758" lon="10.419623935026818"><ele>50.0</ele><time>2026-03-25T09:06:22.999Z</time></trkpt><trkpt lat="44.775041597607505" lon="10.420027261112047"><ele>50.0</ele><time>2026-03-25T09:06:23.999Z</time></trkpt><trkpt lat="44.77492245817238" lon="10.420428548709515"><ele>50.0</ele><time>2026-03-25T09:06:24.999Z</time></trkpt><trkpt lat="44.77480477698089" lon="10.420826200810117"><ele>50.0</ele><time>2026-03-25T09:06:25.999Z</time></trkpt><trkpt lat="44.77468926295515" lon="10.421219458261282"><ele>50.0</ele><time>2026-03-25T09:06:26.999Z</time></trkpt><trkpt lat="44.77457299624729" lon="10.421608478947405"><ele>50.5</ele><time>2026-03-25T09:06:27.999Z</time></trkpt><trkpt lat="44.774456855842715" lon="10.421995673169898"><ele>51.0</ele><time>2026-03-25T09:06:28.999Z</time></trkpt><trkpt lat="44.77434476994758" lon="10.422379369608944"><ele>51.0</ele><time>2026-03-25T09:06:29.999Z</time></trkpt><trkpt lat="44.7742311750794" lon="10.422758314900882"><ele>51.0</ele><time>2026-03-25T09:06:30.999Z</time></trkpt><trkpt lat="44.77412190031865" lon="10.423134824518291"><ele>51.0</ele><time>2026-03-25T09:06:31.999Z</time></trkpt><trkpt lat="44.77401050252167" lon="10.423508436446154"><ele>51.0</ele><time>2026-03-25T09:06:32.999Z</time></trkpt><trkpt lat="44.773902345652786" lon="10.423878332921916"><ele>50.5</ele><time>2026-03-25T09:06:33.999Z</time></trkpt><trkpt lat="44.77379478206972" lon="10.424245202374681"><ele>50.0</ele><time>2026-03-25T09:06:34.999Z</time></trkpt><trkpt lat="44.77368829411469" lon="10.424609113056505"><ele>50.0</ele><time>2026-03-25T09:06:35.999Z</time></trkpt><trkpt lat="44.773582852259615" lon="10.424970931823397"><ele>50.0</ele><time>2026-03-25T09:06:36.999Z</time></trkpt><trkpt lat="44.7734789806541" lon="10.425330320479612"><ele>50.5</ele><time>2026-03-25T09:06:37.999Z</time></trkpt><trkpt lat="44.77337503088566" lon="10.42568565021779"><ele>51.0</ele><time>2026-03-25T09:06:38.999Z</time></trkpt><trkpt lat="44.77327183006565" lon="10.426036053871092"><ele>49.0</ele><time>2026-03-25T09:06:39.999Z</time></trkpt><trkpt lat="44.77316738955257" lon="10.426383758165255"><ele>47.0</ele><time>2026-03-25T09:06:40.999Z</time></trkpt><trkpt lat="44.773062520177085" lon="10.426728764147247"><ele>47.0</ele><time>2026-03-25T09:06:41.999Z</time></trkpt><trkpt lat="44.77296178048948" lon="10.42707246280409"><ele>47.0</ele><time>2026-03-25T09:06:42.999Z</time></trkpt><trkpt lat="44.772859616204" lon="10.427414371491786"><ele>47.0</ele><time>2026-03-25T09:06:43.999Z</time></trkpt><trkpt lat="44.77276212764485" lon="10.427754944948754"><ele>47.0</ele><time>2026-03-25T09:06:44.999Z</time></trkpt><trkpt lat="44.77266209653392" lon="10.428091958148933"><ele>49.0</ele><time>2026-03-25T09:06:45.999Z</time></trkpt><trkpt lat="44.77255451973887" lon="10.428423799821237"><ele>51.0</ele><time>2026-03-25T09:06:46.999Z</time></trkpt><trkpt lat="44.772463110848946" lon="10.428758134284442"><ele>51.5</ele><time>2026-03-25T09:06:47.999Z</time></trkpt><trkpt lat="44.77236854479706" lon="10.429089658509817"><ele>52.0</ele><time>2026-03-25T09:06:48.999Z</time></trkpt><trkpt lat="44.77227178495605" lon="10.42941565337405"><ele>51.0</ele><time>2026-03-25T09:06:49.999Z</time></trkpt><trkpt lat="44.77217461952397" lon="10.429739777373179"><ele>50.0</ele><time>2026-03-25T09:06:50.999Z</time></trkpt><trkpt lat="44.772076936381524" lon="10.430061992878702"><ele>50.0</ele><time>2026-03-25T09:06:51.999Z</time></trkpt><trkpt lat="44.771980697310696" lon="10.430383260034716"><ele>50.0</ele><time>2026-03-25T09:06:52.999Z</time></trkpt><trkpt lat="44.771887298599864" lon="10.430706443366594"><ele>51.0</ele><time>2026-03-25T09:06:53.999Z</time></trkpt><trkpt lat="44.77179215681783" lon="10.431031113702222"><ele>52.0</ele><time>2026-03-25T09:06:54.999Z</time></trkpt><trkpt lat="44.77169230896175" lon="10.43135827765338"><ele>52.0</ele><time>2026-03-25T09:06:55.999Z</time></trkpt><trkpt lat="44.771595749811794" lon="10.431680430401013"><ele>52.0</ele><time>2026-03-25T09:06:56.999Z</time></trkpt><trkpt lat="44.77149565471918" lon="10.43199921799587"><ele>51.5</ele><time>2026-03-25T09:06:57.999Z</time></trkpt><trkpt lat="44.77139344488511" lon="10.432321553670056"><ele>51.0</ele><time>2026-03-25T09:06:58.999Z</time></trkpt><trkpt lat="44.771289290681" lon="10.43264876119574"><ele>51.0</ele><time>2026-03-25T09:06:59.999Z</time></trkpt><trkpt lat="44.771191199255036" lon="10.43297234986345"><ele>51.0</ele><time>2026-03-25T09:07:00.999Z</time></trkpt><trkpt lat="44.77109745103713" lon="10.433286774441951"><ele>51.0</ele><time>2026-03-25T09:07:01.999Z</time></trkpt><trkpt lat="44.770999570934855" lon="10.433606747783836"><ele>51.0</ele><time>2026-03-25T09:07:02.999Z</time></trkpt><trkpt lat="44.77090448507437" lon="10.43392423892028"><ele>50.5</ele><time>2026-03-25T09:07:03.999Z</time></trkpt><trkpt lat="44.77080920466971" lon="10.434244804307019"><ele>50.0</ele><time>2026-03-25T09:07:04.999Z</time></trkpt><trkpt lat="44.77071291577529" lon="10.434565130594624"><ele>51.0</ele><time>2026-03-25T09:07:05.999Z</time></trkpt><trkpt lat="44.770617817918065" lon="10.434880733947756"><ele>52.0</ele><time>2026-03-25T09:07:06.999Z</time></trkpt><trkpt lat="44.77052392429677" lon="10.435192449745722"><ele>52.0</ele><time>2026-03-25T09:07:07.999Z</time></trkpt><trkpt lat="44.770430563349734" lon="10.435501553855843"><ele>52.0</ele><time>2026-03-25T09:07:08.999Z</time></trkpt><trkpt lat="44.77033684119516" lon="10.435811521578863"><ele>52.0</ele><time>2026-03-25T09:07:09.999Z</time></trkpt><trkpt lat="44.77024395275026" lon="10.436115315963523"><ele>52.0</ele><time>2026-03-25T09:07:10.999Z</time></trkpt><trkpt lat="44.77015125968219" lon="10.436418662716559"><ele>51.5</ele><time>2026-03-25T09:07:11.999Z</time></trkpt><trkpt lat="44.7700597217091" lon="10.43672121157315"><ele>51.0</ele><time>2026-03-25T09:07:12.999Z</time></trkpt><trkpt lat="44.76996897945299" lon="10.437019697904097"><ele>51.0</ele><time>2026-03-25T09:07:14Z</time></trkpt><trkpt lat="44.7698813224272" lon="10.437309964092675"><ele>51.0</ele><time>2026-03-25T09:07:15Z</time></trkpt><trkpt lat="44.76979534840274" lon="10.437595971704065"><ele>51.0</ele><time>2026-03-25T09:07:16Z</time></trkpt><trkpt lat="44.76970817514597" lon="10.437882918030644"><ele>51.0</ele><time>2026-03-25T09:07:17Z</time></trkpt><trkpt lat="44.76962364910944" lon="10.438157382688384"><ele>51.0</ele><time>2026-03-25T09:07:18Z</time></trkpt><trkpt lat="44.76953999447934" lon="10.438430905605944"><ele>51.0</ele><time>2026-03-25T09:07:19Z</time></trkpt><trkpt lat="44.76945948762295" lon="10.43869891906428"><ele>51.33333333333333</ele><time>2026-03-25T09:07:20Z</time></trkpt><trkpt lat="44.76937779211691" lon="10.438967609928742"><ele>51.666666666666664</ele><time>2026-03-25T09:07:21Z</time></trkpt><trkpt lat="44.76929757503975" lon="10.439231952067642"><ele>52.0</ele><time>2026-03-25T09:07:22Z</time></trkpt><trkpt lat="44.76921944515864" lon="10.439490146153831"><ele>52.0</ele><time>2026-03-25T09:07:23Z</time></trkpt><trkpt lat="44.76914424497995" lon="10.43973956506304"><ele>52.0</ele><time>2026-03-25T09:07:24Z</time></trkpt><trkpt lat="44.76907390921302" lon="10.439984213119947"><ele>52.0</ele><time>2026-03-25T09:07:25Z</time></trkpt><trkpt lat="44.76900284561128" lon="10.440237696556643"><ele>52.33333333333333</ele><time>2026-03-25T09:07:26Z</time></trkpt><trkpt lat="44.768931446572715" lon="10.440484414470944"><ele>52.66666666666667</ele><time>2026-03-25T09:07:27Z</time></trkpt><trkpt lat="44.768862530795694" lon="10.440726526915686"><ele>53.0</ele><time>2026-03-25T09:07:28Z</time></trkpt><trkpt lat="44.768794682745124" lon="10.440963850006117"><ele>53.0</ele><time>2026-03-25T09:07:29Z</time></trkpt><trkpt lat="44.768723323789075" lon="10.441205496093025"><ele>53.0</ele><time>2026-03-25T09:07:30Z</time></trkpt><trkpt lat="44.7686524411613" lon="10.441438273782827"><ele>53.0</ele><time>2026-03-25T09:07:31Z</time></trkpt><trkpt lat="44.768584933818985" lon="10.441668035257052"><ele>53.0</ele><time>2026-03-25T09:07:32Z</time></trkpt><trkpt lat="44.76851566642538" lon="10.44189587767955"><ele>53.0</ele><time>2026-03-25T09:07:33Z</time></trkpt><trkpt lat="44.768448176669466" lon="10.44212019471483"><ele>53.0</ele><time>2026-03-25T09:07:34Z</time></trkpt><trkpt lat="44.768397381763585" lon="10.442332128621386"><ele>53.0</ele><time>2026-03-25T09:07:35Z</time></trkpt><trkpt lat="44.76834077786864" lon="10.442534957445764"><ele>53.0</ele><time>2026-03-25T09:07:36Z</time></trkpt><trkpt lat="44.76828213532698" lon="10.442736777679603"><ele>53.0</ele><time>2026-03-25T09:07:37Z</time></trkpt><trkpt lat="44.768224766867384" lon="10.442937340852511"><ele>52.66666666666667</ele><time>2026-03-25T09:07:38Z</time></trkpt><trkpt lat="44.76816476989159" lon="10.443136422740723"><ele>52.33333333333333</ele><time>2026-03-25T09:07:39Z</time></trkpt><trkpt lat="44.76810460767258" lon="10.443338754759163"><ele>52.0</ele><time>2026-03-25T09:07:40Z</time></trkpt><trkpt lat="44.768051566558036" lon="10.44354538636836"><ele>52.0</ele><time>2026-03-25T09:07:41Z</time></trkpt><trkpt lat="44.76799292457624" lon="10.443751752253487"><ele>52.0</ele><time>2026-03-25T09:07:42Z</time></trkpt><trkpt lat="44.76793513626875" lon="10.443952499767276"><ele>52.0</ele><time>2026-03-25T09:07:43Z</time></trkpt><trkpt lat="44.76788109729144" lon="10.444147053649855"><ele>52.0</ele><time>2026-03-25T09:07:44Z</time></trkpt><trkpt lat="44.76782823957144" lon="10.44432913517552"><ele>52.0</ele><time>2026-03-25T09:07:45Z</time></trkpt><trkpt lat="44.767777014214545" lon="10.444517596245236"><ele>52.0</ele><time>2026-03-25T09:07:46Z</time></trkpt><trkpt lat="44.76772449802943" lon="10.444702160586282"><ele>52.0</ele><time>2026-03-25T09:07:47Z</time></trkpt><trkpt lat="44.767669311394336" lon="10.444883467925147"><ele>52.0</ele><time>2026-03-25T09:07:48Z</time></trkpt><trkpt lat="44.767610620620395" lon="10.445060794124247"><ele>52.0</ele><time>2026-03-25T09:07:49Z</time></trkpt><trkpt lat="44.7675598395066" lon="10.445240269411116"><ele>52.0</ele><time>2026-03-25T09:07:50Z</time></trkpt><trkpt lat="44.76751041482584" lon="10.445420405146676"><ele>52.0</ele><time>2026-03-25T09:07:51Z</time></trkpt><trkpt lat="44.76746443195284" lon="10.445601046838739"><ele>51.75</ele><time>2026-03-25T09:07:52Z</time></trkpt><trkpt lat="44.76741351822495" lon="10.445778362634021"><ele>51.5</ele><time>2026-03-25T09:07:53Z</time></trkpt><trkpt lat="44.767362792515236" lon="10.445951766349525"><ele>51.25</ele><time>2026-03-25T09:07:54Z</time></trkpt><trkpt lat="44.767308437727834" lon="10.446126795598008"><ele>51.0</ele><time>2026-03-25T09:07:55Z</time></trkpt><trkpt lat="44.76725822600895" lon="10.446304574721585"><ele>51.0</ele><time>2026-03-25T09:07:56Z</time></trkpt><trkpt lat="44.76721259263306" lon="10.44648155910716"><ele>51.0</ele><time>2026-03-25T09:07:57Z</time></trkpt><trkpt lat="44.767166320425346" lon="10.446658068076577"><ele>51.0</ele><time>2026-03-25T09:07:58Z</time></trkpt><trkpt lat="44.767118546907575" lon="10.44683863507271"><ele>51.0</ele><time>2026-03-25T09:07:59Z</time></trkpt><trkpt lat="44.7670683579563" lon="10.447017335066572"><ele>51.0</ele><time>2026-03-25T09:08:00Z</time></trkpt><trkpt lat="44.76701759854868" lon="10.447196111841068"><ele>51.0</ele><time>2026-03-25T09:08:01Z</time></trkpt><trkpt lat="44.76696820620083" lon="10.447376336079868"><ele>51.0</ele><time>2026-03-25T09:08:02Z</time></trkpt><trkpt lat="44.76691893386278" lon="10.447552470914115"><ele>51.0</ele><time>2026-03-25T09:08:03Z</time></trkpt><trkpt lat="44.766870261604396" lon="10.447727273255044"><ele>51.5</ele><time>2026-03-25T09:08:04Z</time></trkpt><trkpt lat="44.76682148122096" lon="10.447898070476723"><ele>52.0</ele><time>2026-03-25T09:08:05Z</time></trkpt><trkpt lat="44.766775525459664" lon="10.448061194857598"><ele>52.5</ele><time>2026-03-25T09:08:06Z</time></trkpt><trkpt lat="44.76673362122808" lon="10.448220856703607"><ele>53.0</ele><time>2026-03-25T09:08:06.999Z</time></trkpt><trkpt lat="44.7666899915646" lon="10.448374473470885"><ele>53.0</ele><time>2026-03-25T09:08:07.999Z</time></trkpt><trkpt lat="44.766644636624164" lon="10.448526895540647"><ele>53.0</ele><time>2026-03-25T09:08:08.999Z</time></trkpt><trkpt lat="44.766596523285195" lon="10.448674007919749"><ele>53.0</ele><time>2026-03-25T09:08:09.999Z</time></trkpt><trkpt lat="44.76654817936882" lon="10.44882156160876"><ele>53.0</ele><time>2026-03-25T09:08:10.999Z</time></trkpt><trkpt lat="44.766503151906285" lon="10.448972683604154"><ele>52.599999999999994</ele><time>2026-03-25T09:08:11.999Z</time></trkpt><trkpt lat="44.766454903812885" lon="10.449126020132153"><ele>52.199999999999996</ele><time>2026-03-25T09:08:12.999Z</time></trkpt><trkpt lat="44.76641243491768" lon="10.449265530538122"><ele>51.8</ele><time>2026-03-25T09:08:13.999Z</time></trkpt><trkpt lat="44.76637049312624" lon="10.449401203072187"><ele>51.4</ele><time>2026-03-25T09:08:14.999Z</time></trkpt><trkpt lat="44.76633108868716" lon="10.449523079607392"><ele>51.0</ele><time>2026-03-25T09:08:15.999Z</time></trkpt><trkpt lat="44.766298970583115" lon="10.44963627370315"><ele>51.0</ele><time>2026-03-25T09:08:16.999Z</time></trkpt><trkpt lat="44.766264619003756" lon="10.449743535962149"><ele>51.0</ele><time>2026-03-25T09:08:17.999Z</time></trkpt><trkpt lat="44.76622736574691" lon="10.449860666144582"><ele>51.0</ele><time>2026-03-25T09:08:18.999Z</time></trkpt><trkpt lat="44.76618846281373" lon="10.449977990238468"><ele>51.0</ele><time>2026-03-25T09:08:19.999Z</time></trkpt><trkpt lat="44.76614903684504" lon="10.450099057417377"><ele>51.0</ele><time>2026-03-25T09:08:20.999Z</time></trkpt><trkpt lat="44.766114467070324" lon="10.450215238663"><ele>51.0</ele><time>2026-03-25T09:08:21.999Z</time></trkpt><trkpt lat="44.76608339237659" lon="10.450327941103856"><ele>51.0</ele><time>2026-03-25T09:08:22.999Z</time></trkpt><trkpt lat="44.76606028662242" lon="10.450420005484496"><ele>51.0</ele><time>2026-03-25T09:08:23.999Z</time></trkpt><trkpt lat="44.76603126833836" lon="10.450510639899317"><ele>51.0</ele><time>2026-03-25T09:08:24.999Z</time></trkpt><trkpt lat="44.76600130888796" lon="10.450611399385096"><ele>51.0</ele><time>2026-03-25T09:08:25.999Z</time></trkpt><trkpt lat="44.76596981398718" lon="10.450710691955686"><ele>51.0</ele><time>2026-03-25T09:08:26.999Z</time></trkpt><trkpt lat="44.76594946310898" lon="10.45080324900486"><ele>51.0</ele><time>2026-03-25T09:08:27.999Z</time></trkpt><trkpt lat="44.765900076380746" lon="10.450930899531125"><ele>51.166666666666664</ele><time>2026-03-25T09:08:29.999Z</time></trkpt><trkpt lat="44.76584039903164" lon="10.451046148637744"><ele>51.33333333333333</ele><time>2026-03-25T09:08:31.999Z</time></trkpt><trkpt lat="44.76579737949744" lon="10.451128180055676"><ele>51.5</ele><time>2026-03-25T09:08:33.999Z</time></trkpt><trkpt lat="44.76575602555201" lon="10.451217697619073"><ele>51.666666666666664</ele><time>2026-03-25T09:08:36.999Z</time></trkpt><trkpt lat="44.76572054229165" lon="10.451330674818008"><ele>51.83333333333333</ele><time>2026-03-25T09:08:42.999Z</time></trkpt><trkpt lat="44.7656759221026" lon="10.451429836186337"><ele>52.0</ele><time>2026-03-25T09:09:59Z</time></trkpt><trkpt lat="44.765633474355724" lon="10.45152149510691"><ele>51.99999999999999</ele><time>2026-03-25T09:10:02Z</time></trkpt><trkpt lat="44.765598779508686" lon="10.45164872145179"><ele>52.0</ele><time>2026-03-25T09:10:04Z</time></trkpt><trkpt lat="44.76558016187504" lon="10.451738613906896"><ele>52.0</ele><time>2026-03-25T09:10:05Z</time></trkpt><trkpt lat="44.76553701322221" lon="10.451883591831232"><ele>52.0</ele><time>2026-03-25T09:10:07Z</time></trkpt><trkpt lat="44.76550678007903" lon="10.451977734425933"><ele>51.99999999999999</ele><time>2026-03-25T09:10:08Z</time></trkpt><trkpt lat="44.765476458390765" lon="10.452076288119464"><ele>52.0</ele><time>2026-03-25T09:10:09Z</time></trkpt><trkpt lat="44.76544390411651" lon="10.452198846268516"><ele>51.8</ele><time>2026-03-25T09:10:10Z</time></trkpt><trkpt lat="44.76540145590122" lon="10.452310488958956"><ele>51.6</ele><time>2026-03-25T09:10:11Z</time></trkpt><trkpt lat="44.76534935203374" lon="10.452431613076294"><ele>51.4</ele><time>2026-03-25T09:10:12Z</time></trkpt><trkpt lat="44.7653117088512" lon="10.452552347785971"><ele>51.199999999999996</ele><time>2026-03-25T09:10:13Z</time></trkpt><trkpt lat="44.7652661085101" lon="10.452677329881606"><ele>51.0</ele><time>2026-03-25T09:10:14Z</time></trkpt><trkpt lat="44.7652213657987" lon="10.452804010437877"><ele>51.25</ele><time>2026-03-25T09:10:15Z</time></trkpt><trkpt lat="44.765174805343996" lon="10.452937797269213"><ele>51.5</ele><time>2026-03-25T09:10:16Z</time></trkpt><trkpt lat="44.76511986937613" lon="10.453083256240232"><ele>51.75</ele><time>2026-03-25T09:10:17Z</time></trkpt><trkpt lat="44.76506397839933" lon="10.453233863287853"><ele>52.0</ele><time>2026-03-25T09:10:18Z</time></trkpt><trkpt lat="44.765005826920664" lon="10.453390312094717"><ele>52.0</ele><time>2026-03-25T09:10:19Z</time></trkpt><trkpt lat="44.76494863946915" lon="10.453549550736142"><ele>52.0</ele><time>2026-03-25T09:10:20Z</time></trkpt><trkpt lat="44.76488645616931" lon="10.453716981457461"><ele>52.0</ele><time>2026-03-25T09:10:21Z</time></trkpt><trkpt lat="44.76482576206842" lon="10.453886840349671"><ele>52.0</ele><time>2026-03-25T09:10:22Z</time></trkpt><trkpt lat="44.76476349490384" lon="10.454065187054464"><ele>52.0</ele><time>2026-03-25T09:10:23Z</time></trkpt><trkpt lat="44.76469856072898" lon="10.454238643180583"><ele>52.0</ele><time>2026-03-25T09:10:24Z</time></trkpt><trkpt lat="44.76463351871584" lon="10.45442383836222"><ele>52.0</ele><time>2026-03-25T09:10:25Z</time></trkpt><trkpt lat="44.76456877371939" lon="10.45460820583556"><ele>52.0</ele><time>2026-03-25T09:10:26Z</time></trkpt><trkpt lat="44.76450363014297" lon="10.454795317503384"><ele>52.0</ele><time>2026-03-25T09:10:27Z</time></trkpt><trkpt lat="44.76443790467157" lon="10.454986581278114"><ele>52.0</ele><time>2026-03-25T09:10:28Z</time></trkpt><trkpt lat="44.764368814887625" lon="10.455179031022988"><ele>52.0</ele><time>2026-03-25T09:10:29Z</time></trkpt><trkpt lat="44.76430040690278" lon="10.455378640230709"><ele>52.33333333333333</ele><time>2026-03-25T09:10:29.999Z</time></trkpt><trkpt lat="44.76423045905555" lon="10.45558193435622"><ele>52.66666666666667</ele><time>2026-03-25T09:10:30.999Z</time></trkpt><trkpt lat="44.76416023067053" lon="10.455787414702451"><ele>53.0</ele><time>2026-03-25T09:10:31.999Z</time></trkpt><trkpt lat="44.76408921385178" lon="10.455998500767315"><ele>53.0</ele><time>2026-03-25T09:10:32.999Z</time></trkpt><trkpt lat="44.76401693917689" lon="10.456216372297309"><ele>53.0</ele><time>2026-03-25T09:10:33.999Z</time></trkpt><trkpt lat="44.76394618856967" lon="10.456435421580368"><ele>53.0</ele><time>2026-03-25T09:10:34.999Z</time></trkpt><trkpt lat="44.763875413867105" lon="10.456658094835662"><ele>52.66666666666667</ele><time>2026-03-25T09:10:35.999Z</time></trkpt><trkpt lat="44.763801759982854" lon="10.45688384894649"><ele>52.33333333333333</ele><time>2026-03-25T09:10:36.999Z</time></trkpt><trkpt lat="44.76372396103949" lon="10.457114776567053"><ele>52.0</ele><time>2026-03-25T09:10:37.999Z</time></trkpt><trkpt lat="44.7636446508042" lon="10.457354377174099"><ele>51.666666666666664</ele><time>2026-03-25T09:10:38.999Z</time></trkpt><trkpt lat="44.76356543187152" lon="10.4575986748848"><ele>51.33333333333333</ele><time>2026-03-25T09:10:39.999Z</time></trkpt><trkpt lat="44.76348703565198" lon="10.45785038819326"><ele>51.0</ele><time>2026-03-25T09:10:40.999Z</time></trkpt><trkpt lat="44.76340345878415" lon="10.458107669425152"><ele>51.0</ele><time>2026-03-25T09:10:41.999Z</time></trkpt><trkpt lat="44.763317304374795" lon="10.45836983307285"><ele>51.0</ele><time>2026-03-25T09:10:42.999Z</time></trkpt><trkpt lat="44.76322852188084" lon="10.458636473713142"><ele>51.0</ele><time>2026-03-25T09:10:43.999Z</time></trkpt><trkpt lat="44.763137464776264" lon="10.458907816268363"><ele>51.0</ele><time>2026-03-25T09:10:44.999Z</time></trkpt><trkpt lat="44.76304277583165" lon="10.45918482174801"><ele>51.0</ele><time>2026-03-25T09:10:45.999Z</time></trkpt><trkpt lat="44.76295403211197" lon="10.459462593726862"><ele>51.0</ele><time>2026-03-25T09:10:46.999Z</time></trkpt><trkpt lat="44.762866909103955" lon="10.459744095168592"><ele>51.0</ele><time>2026-03-25T09:10:47.999Z</time></trkpt><trkpt lat="44.762781529146274" lon="10.460030434088871"><ele>51.0</ele><time>2026-03-25T09:10:48.999Z</time></trkpt><trkpt lat="44.76268493617852" lon="10.460324703913832"><ele>50.0</ele><time>2026-03-25T09:10:49.999Z</time></trkpt><trkpt lat="44.76258764247392" lon="10.46063418451615"><ele>49.0</ele><time>2026-03-25T09:10:50.999Z</time></trkpt><trkpt lat="44.762483689103796" lon="10.460945597829845"><ele>49.0</ele><time>2026-03-25T09:10:51.999Z</time></trkpt><trkpt lat="44.762376810831704" lon="10.46126214996893"><ele>49.0</ele><time>2026-03-25T09:10:52.999Z</time></trkpt><trkpt lat="44.76227328607035" lon="10.461577029827305"><ele>48.5</ele><time>2026-03-25T09:10:53.999Z</time></trkpt><trkpt lat="44.76216576996809" lon="10.46190181463798"><ele>48.0</ele><time>2026-03-25T09:10:54.999Z</time></trkpt><trkpt lat="44.76206294351351" lon="10.462224124487765"><ele>48.0</ele><time>2026-03-25T09:10:55.999Z</time></trkpt><trkpt lat="44.76195843395414" lon="10.46254735840231"><ele>48.0</ele><time>2026-03-25T09:10:56.999Z</time></trkpt><trkpt lat="44.761850480812285" lon="10.462869602482932"><ele>48.5</ele><time>2026-03-25T09:10:57.999Z</time></trkpt><trkpt lat="44.76173906891076" lon="10.463191866645701"><ele>49.0</ele><time>2026-03-25T09:10:58.999Z</time></trkpt><trkpt lat="44.761630511950926" lon="10.463534381298695"><ele>49.5</ele><time>2026-03-25T09:10:59.999Z</time></trkpt><trkpt lat="44.761520317973165" lon="10.463881913099407"><ele>50.0</ele><time>2026-03-25T09:11:00.999Z</time></trkpt><trkpt lat="44.761408959664536" lon="10.46423371005858"><ele>50.0</ele><time>2026-03-25T09:11:01.999Z</time></trkpt><trkpt lat="44.76129454388793" lon="10.464587330142626"><ele>50.0</ele><time>2026-03-25T09:11:02.999Z</time></trkpt><trkpt lat="44.76118139835538" lon="10.464940014044215"><ele>49.5</ele><time>2026-03-25T09:11:03.999Z</time></trkpt><trkpt lat="44.7610634572954" lon="10.46529995586833"><ele>49.0</ele><time>2026-03-25T09:11:04.999Z</time></trkpt><trkpt lat="44.76094011298315" lon="10.465666988556059"><ele>49.0</ele><time>2026-03-25T09:11:05.999Z</time></trkpt><trkpt lat="44.76081420437504" lon="10.466038050281833"><ele>49.0</ele><time>2026-03-25T09:11:06.999Z</time></trkpt><trkpt lat="44.76069075346072" lon="10.46641835421712"><ele>48.5</ele><time>2026-03-25T09:11:07.999Z</time></trkpt><trkpt lat="44.76056430874419" lon="10.466800005376703"><ele>48.0</ele><time>2026-03-25T09:11:08.999Z</time></trkpt><trkpt lat="44.760437003226414" lon="10.467191474938321"><ele>47.5</ele><time>2026-03-25T09:11:09.999Z</time></trkpt><trkpt lat="44.7603078458889" lon="10.46758294132486"><ele>47.0</ele><time>2026-03-25T09:11:10.999Z</time></trkpt><trkpt lat="44.76018156502057" lon="10.467977156025485"><ele>48.0</ele><time>2026-03-25T09:11:11.999Z</time></trkpt><trkpt lat="44.76005447202054" lon="10.468366296755143"><ele>49.0</ele><time>2026-03-25T09:11:12.999Z</time></trkpt><trkpt lat="44.759923686412115" lon="10.468763902862529"><ele>48.5</ele><time>2026-03-25T09:11:13.999Z</time></trkpt><trkpt lat="44.75979062508387" lon="10.469167977189484"><ele>48.0</ele><time>2026-03-25T09:11:14.999Z</time></trkpt><trkpt lat="44.75966048624721" lon="10.469571241661377"><ele>47.5</ele><time>2026-03-25T09:11:15.999Z</time></trkpt><trkpt lat="44.75952849727404" lon="10.469974594199286"><ele>47.0</ele><time>2026-03-25T09:11:16.999Z</time></trkpt><trkpt lat="44.759394827375196" lon="10.470380601974819"><ele>47.5</ele><time>2026-03-25T09:11:17.999Z</time></trkpt><trkpt lat="44.759261876866695" lon="10.470784431487107"><ele>48.0</ele><time>2026-03-25T09:11:18.999Z</time></trkpt><trkpt lat="44.75912715907319" lon="10.471192873526599"><ele>48.5</ele><time>2026-03-25T09:11:19.999Z</time></trkpt><trkpt lat="44.75898614461517" lon="10.471608396333664"><ele>49.0</ele><time>2026-03-25T09:11:20.999Z</time></trkpt><trkpt lat="44.75884660995285" lon="10.472033486628915"><ele>48.5</ele><time>2026-03-25T09:11:21.999Z</time></trkpt><trkpt lat="44.758705043386186" lon="10.472459277964719"><ele>48.0</ele><time>2026-03-25T09:11:22.999Z</time></trkpt><trkpt lat="44.758563133593675" lon="10.472885471864256"><ele>48.5</ele><time>2026-03-25T09:11:23.999Z</time></trkpt><trkpt lat="44.75842241313424" lon="10.473310591025344"><ele>49.0</ele><time>2026-03-25T09:11:24.999Z</time></trkpt><trkpt lat="44.758277677776476" lon="10.473742937298947"><ele>48.0</ele><time>2026-03-25T09:11:26Z</time></trkpt><trkpt lat="44.75813777645905" lon="10.474167322330779"><ele>47.0</ele><time>2026-03-25T09:11:27Z</time></trkpt><trkpt lat="44.757996194448666" lon="10.474602073226817"><ele>46.0</ele><time>2026-03-25T09:11:28Z</time></trkpt><trkpt lat="44.757852183878455" lon="10.475036804684175"><ele>45.0</ele><time>2026-03-25T09:11:29Z</time></trkpt><trkpt lat="44.757704332719086" lon="10.47547161986522"><ele>46.0</ele><time>2026-03-25T09:11:30Z</time></trkpt><trkpt lat="44.75756166144032" lon="10.475917289321862"><ele>47.0</ele><time>2026-03-25T09:11:31Z</time></trkpt><trkpt lat="44.75741614686637" lon="10.476355481105935"><ele>46.5</ele><time>2026-03-25T09:11:32Z</time></trkpt><trkpt lat="44.75726988352281" lon="10.476798073349972"><ele>46.0</ele><time>2026-03-25T09:11:33Z</time></trkpt><trkpt lat="44.757124739470775" lon="10.477247090065175"><ele>46.0</ele><time>2026-03-25T09:11:34Z</time></trkpt><trkpt lat="44.75697727190932" lon="10.477698027665536"><ele>46.0</ele><time>2026-03-25T09:11:35Z</time></trkpt><trkpt lat="44.75682573688016" lon="10.478152510765687"><ele>46.0</ele><time>2026-03-25T09:11:36Z</time></trkpt><trkpt lat="44.75667620083418" lon="10.478608781370964"><ele>46.0</ele><time>2026-03-25T09:11:37Z</time></trkpt><trkpt lat="44.756519226926166" lon="10.47907126288141"><ele>46.0</ele><time>2026-03-25T09:11:38Z</time></trkpt><trkpt lat="44.756362192028384" lon="10.479533604162528"><ele>46.0</ele><time>2026-03-25T09:11:39Z</time></trkpt><trkpt lat="44.75620161614502" lon="10.479997203274694"><ele>46.0</ele><time>2026-03-25T09:11:40Z</time></trkpt><trkpt lat="44.75604764759837" lon="10.480466667711555"><ele>46.0</ele><time>2026-03-25T09:11:41Z</time></trkpt><trkpt lat="44.75589332432042" lon="10.480937634478565"><ele>46.5</ele><time>2026-03-25T09:11:42Z</time></trkpt><trkpt lat="44.75572400918482" lon="10.481423418563203"><ele>47.0</ele><time>2026-03-25T09:11:43Z</time></trkpt><trkpt lat="44.75556230439114" lon="10.481916561479801"><ele>47.5</ele><time>2026-03-25T09:11:44Z</time></trkpt><trkpt lat="44.75540412004041" lon="10.48240152377759"><ele>48.0</ele><time>2026-03-25T09:11:45Z</time></trkpt><trkpt lat="44.75523155716135" lon="10.48288383032683"><ele>48.0</ele><time>2026-03-25T09:11:46Z</time></trkpt><trkpt lat="44.75506501865707" lon="10.483369563349491"><ele>48.0</ele><time>2026-03-25T09:11:47Z</time></trkpt><trkpt lat="44.754910635624704" lon="10.483839170001472"><ele>48.0</ele><time>2026-03-25T09:11:48Z</time></trkpt><trkpt lat="44.754741609408356" lon="10.484327175231257"><ele>48.0</ele><time>2026-03-25T09:11:49Z</time></trkpt><trkpt lat="44.7545726508337" lon="10.484809723600417"><ele>48.0</ele><time>2026-03-25T09:11:50Z</time></trkpt><trkpt lat="44.754410741629385" lon="10.485294107494296"><ele>48.0</ele><time>2026-03-25T09:11:51Z</time></trkpt><trkpt lat="44.754248994218344" lon="10.485780181202438"><ele>47.5</ele><time>2026-03-25T09:11:52Z</time></trkpt><trkpt lat="44.7540880069973" lon="10.486264937396868"><ele>47.0</ele><time>2026-03-25T09:11:53Z</time></trkpt><trkpt lat="44.75392772162729" lon="10.486752231897967"><ele>47.5</ele><time>2026-03-25T09:11:54Z</time></trkpt><trkpt lat="44.7537694472807" lon="10.48723952752489"><ele>48.0</ele><time>2026-03-25T09:11:55Z</time></trkpt><trkpt lat="44.753609489964674" lon="10.487727348283435"><ele>48.5</ele><time>2026-03-25T09:11:56Z</time></trkpt><trkpt lat="44.753448189174" lon="10.48821699822687"><ele>49.0</ele><time>2026-03-25T09:11:57Z</time></trkpt><trkpt lat="44.75328765991886" lon="10.488705289251378"><ele>48.5</ele><time>2026-03-25T09:11:58Z</time></trkpt><trkpt lat="44.75312831432665" lon="10.489197755762426"><ele>48.0</ele><time>2026-03-25T09:11:59Z</time></trkpt><trkpt lat="44.75296823645897" lon="10.489691606733166"><ele>47.5</ele><time>2026-03-25T09:12:00Z</time></trkpt><trkpt lat="44.75280754394612" lon="10.490184261448938"><ele>47.0</ele><time>2026-03-25T09:12:01Z</time></trkpt><trkpt lat="44.75264634624768" lon="10.49067803169036"><ele>47.0</ele><time>2026-03-25T09:12:02Z</time></trkpt><trkpt lat="44.752485264452595" lon="10.491171702222559"><ele>47.0</ele><time>2026-03-25T09:12:03Z</time></trkpt><trkpt lat="44.752324660165286" lon="10.491665629107864"><ele>46.5</ele><time>2026-03-25T09:12:04Z</time></trkpt><trkpt lat="44.75216413046435" lon="10.492160309907957"><ele>46.0</ele><time>2026-03-25T09:12:05Z</time></trkpt><trkpt lat="44.75200200000743" lon="10.492660799839006"><ele>47.5</ele><time>2026-03-25T09:12:06Z</time></trkpt><trkpt lat="44.751839191579194" lon="10.493158255844525"><ele>49.0</ele><time>2026-03-25T09:12:07Z</time></trkpt><trkpt lat="44.751676314342575" lon="10.493656217805219"><ele>48.5</ele><time>2026-03-25T09:12:08Z</time></trkpt><trkpt lat="44.75151473889558" lon="10.494153863744796"><ele>48.0</ele><time>2026-03-25T09:12:09Z</time></trkpt><trkpt lat="44.751350706094215" lon="10.494654748847775"><ele>48.0</ele><time>2026-03-25T09:12:10Z</time></trkpt><trkpt lat="44.75118794980345" lon="10.495154851184193"><ele>48.0</ele><time>2026-03-25T09:12:11Z</time></trkpt><trkpt lat="44.75102393987112" lon="10.495656913115177"><ele>47.5</ele><time>2026-03-25T09:12:12Z</time></trkpt><trkpt lat="44.750860738503114" lon="10.49616138834182"><ele>47.0</ele><time>2026-03-25T09:12:13Z</time></trkpt><trkpt lat="44.75069657614676" lon="10.49666589828881"><ele>47.0</ele><time>2026-03-25T09:12:14Z</time></trkpt><trkpt lat="44.75053213362987" lon="10.497170643093984"><ele>47.0</ele><time>2026-03-25T09:12:15Z</time></trkpt><trkpt lat="44.750366808348645" lon="10.497675799403627"><ele>47.0</ele><time>2026-03-25T09:12:16Z</time></trkpt><trkpt lat="44.75020107959947" lon="10.498181543138328"><ele>47.0</ele><time>2026-03-25T09:12:17Z</time></trkpt><trkpt lat="44.750036214745634" lon="10.498687285143346"><ele>46.0</ele><time>2026-03-25T09:12:18Z</time></trkpt><trkpt lat="44.74987260935115" lon="10.499192699852065"><ele>45.0</ele><time>2026-03-25T09:12:19Z</time></trkpt><trkpt lat="44.74970801361829" lon="10.499698303817043"><ele>44.5</ele><time>2026-03-25T09:12:20Z</time></trkpt><trkpt lat="44.7495429336469" lon="10.500207638862662"><ele>44.0</ele><time>2026-03-25T09:12:21Z</time></trkpt><trkpt lat="44.749377485974044" lon="10.500715640058983"><ele>44.5</ele><time>2026-03-25T09:12:22Z</time></trkpt><trkpt lat="44.74921244703213" lon="10.501222624902091"><ele>45.0</ele><time>2026-03-25T09:12:23Z</time></trkpt><trkpt lat="44.74904659005417" lon="10.50172876723655"><ele>44.5</ele><time>2026-03-25T09:12:24Z</time></trkpt><trkpt lat="44.748883129723595" lon="10.502235780641556"><ele>44.0</ele><time>2026-03-25T09:12:25Z</time></trkpt><trkpt lat="44.748716122744675" lon="10.50274580879441"><ele>44.0</ele><time>2026-03-25T09:12:26Z</time></trkpt><trkpt lat="44.748550390553035" lon="10.503242223926597"><ele>44.0</ele><time>2026-03-25T09:12:27Z</time></trkpt><trkpt lat="44.74838432192125" lon="10.50375985016919"><ele>44.0</ele><time>2026-03-25T09:12:28Z</time></trkpt><trkpt lat="44.74821882179401" lon="10.504270858405716"><ele>44.0</ele><time>2026-03-25T09:12:29Z</time></trkpt><trkpt lat="44.7480516691309" lon="10.504781344157712"><ele>44.5</ele><time>2026-03-25T09:12:30Z</time></trkpt><trkpt lat="44.74788519707172" lon="10.505291471488363"><ele>45.0</ele><time>2026-03-25T09:12:31Z</time></trkpt><trkpt lat="44.74771900652628" lon="10.505801264065251"><ele>44.5</ele><time>2026-03-25T09:12:32Z</time></trkpt><trkpt lat="44.7475532329222" lon="10.506310328627348"><ele>44.0</ele><time>2026-03-25T09:12:33Z</time></trkpt><trkpt lat="44.74738658459866" lon="10.506822351100668"><ele>43.5</ele><time>2026-03-25T09:12:34Z</time></trkpt><trkpt lat="44.74721890718073" lon="10.507334421408201"><ele>43.0</ele><time>2026-03-25T09:12:35Z</time></trkpt><trkpt lat="44.7470533110824" lon="10.507844996918775"><ele>43.5</ele><time>2026-03-25T09:12:36Z</time></trkpt><trkpt lat="44.74688820008507" lon="10.508354160449729"><ele>44.0</ele><time>2026-03-25T09:12:37Z</time></trkpt><trkpt lat="44.74672089737609" lon="10.508864359693886"><ele>44.0</ele><time>2026-03-25T09:12:38Z</time></trkpt><trkpt lat="44.74655466648863" lon="10.509374001832061"><ele>44.0</ele><time>2026-03-25T09:12:39Z</time></trkpt><trkpt lat="44.74638949652143" lon="10.509883121668281"><ele>43.5</ele><time>2026-03-25T09:12:40Z</time></trkpt><trkpt lat="44.74622291573614" lon="10.51039127813627"><ele>43.0</ele><time>2026-03-25T09:12:41Z</time></trkpt><trkpt lat="44.746056114298376" lon="10.510901519743829"><ele>44.0</ele><time>2026-03-25T09:12:42Z</time></trkpt><trkpt lat="44.74588999105952" lon="10.511408591865084"><ele>45.0</ele><time>2026-03-25T09:12:43Z</time></trkpt><trkpt lat="44.745718351189836" lon="10.511916075153833"><ele>44.5</ele><time>2026-03-25T09:12:43.999Z</time></trkpt><trkpt lat="44.74554340109247" lon="10.512419698642633"><ele>44.0</ele><time>2026-03-25T09:12:44.999Z</time></trkpt><trkpt lat="44.74536697355307" lon="10.512923732094485"><ele>44.0</ele><time>2026-03-25T09:12:45.999Z</time></trkpt><trkpt lat="44.74519295971075" lon="10.513428003562877"><ele>44.0</ele><time>2026-03-25T09:12:46.999Z</time></trkpt><trkpt lat="44.74502233204153" lon="10.513932847337907"><ele>44.0</ele><time>2026-03-25T09:12:47.999Z</time></trkpt><trkpt lat="44.74485598514288" lon="10.514441202071307"><ele>44.0</ele><time>2026-03-25T09:12:48.999Z</time></trkpt><trkpt lat="44.74469042462148" lon="10.514952119225272"><ele>43.5</ele><time>2026-03-25T09:12:49.999Z</time></trkpt><trkpt lat="44.74452529394277" lon="10.515461551348272"><ele>43.0</ele><time>2026-03-25T09:12:50.999Z</time></trkpt><trkpt lat="44.74435955579699" lon="10.515971268336134"><ele>43.5</ele><time>2026-03-25T09:12:51.999Z</time></trkpt><trkpt lat="44.74419233747447" lon="10.516481859045545"><ele>44.0</ele><time>2026-03-25T09:12:52.999Z</time></trkpt><trkpt lat="44.74402446724256" lon="10.516992708973389"><ele>44.0</ele><time>2026-03-25T09:12:53.999Z</time></trkpt><trkpt lat="44.743859153797715" lon="10.51750414696994"><ele>44.0</ele><time>2026-03-25T09:12:54.999Z</time></trkpt><trkpt lat="44.74369287469965" lon="10.51801418820261"><ele>44.0</ele><time>2026-03-25T09:12:55.999Z</time></trkpt><trkpt lat="44.74352582557366" lon="10.518524686054416"><ele>44.0</ele><time>2026-03-25T09:12:56.999Z</time></trkpt><trkpt lat="44.743359516717156" lon="10.519033937836527"><ele>44.0</ele><time>2026-03-25T09:12:57.999Z</time></trkpt><trkpt lat="44.74319277679459" lon="10.51954359979714"><ele>44.0</ele><time>2026-03-25T09:12:58.999Z</time></trkpt><trkpt lat="44.7430268656829" lon="10.520053240359186"><ele>43.5</ele><time>2026-03-25T09:12:59.999Z</time></trkpt><trkpt lat="44.74286363889496" lon="10.520569839351692"><ele>43.0</ele><time>2026-03-25T09:13:00.999Z</time></trkpt><trkpt lat="44.74269971741252" lon="10.521077980272235"><ele>44.0</ele><time>2026-03-25T09:13:01.999Z</time></trkpt><trkpt lat="44.74254058125609" lon="10.521588313995169"><ele>45.0</ele><time>2026-03-25T09:13:02.999Z</time></trkpt><trkpt lat="44.742382515769535" lon="10.522103212728938"><ele>45.0</ele><time>2026-03-25T09:13:03.999Z</time></trkpt><trkpt lat="44.742224292353306" lon="10.522616959554675"><ele>45.0</ele><time>2026-03-25T09:13:04.999Z</time></trkpt><trkpt lat="44.742065465890434" lon="10.52313074599164"><ele>45.0</ele><time>2026-03-25T09:13:05.999Z</time></trkpt><trkpt lat="44.74190595647304" lon="10.523644030114804"><ele>45.0</ele><time>2026-03-25T09:13:06.999Z</time></trkpt><trkpt lat="44.741746055883624" lon="10.52415270724401"><ele>44.0</ele><time>2026-03-25T09:13:07.999Z</time></trkpt><trkpt lat="44.741581510783654" lon="10.52466342900506"><ele>43.0</ele><time>2026-03-25T09:13:08.999Z</time></trkpt><trkpt lat="44.74141733291458" lon="10.525170805451111"><ele>42.0</ele><time>2026-03-25T09:13:09.999Z</time></trkpt><trkpt lat="44.74125021190372" lon="10.525681510305803"><ele>41.0</ele><time>2026-03-25T09:13:10.999Z</time></trkpt><trkpt lat="44.74108296584355" lon="10.526189759545115"><ele>42.0</ele><time>2026-03-25T09:13:11.999Z</time></trkpt><trkpt lat="44.74091697635117" lon="10.52670076192257"><ele>43.0</ele><time>2026-03-25T09:13:12.999Z</time></trkpt><trkpt lat="44.74075307359377" lon="10.52720758481146"><ele>43.5</ele><time>2026-03-25T09:13:13.999Z</time></trkpt><trkpt lat="44.74058698627297" lon="10.52771845189808"><ele>44.0</ele><time>2026-03-25T09:13:14.999Z</time></trkpt><trkpt lat="44.74042047103356" lon="10.528228266586533"><ele>44.0</ele><time>2026-03-25T09:13:15.999Z</time></trkpt><trkpt lat="44.740255070364015" lon="10.52873941511098"><ele>44.0</ele><time>2026-03-25T09:13:16.999Z</time></trkpt><trkpt lat="44.74008989534562" lon="10.52924815521987"><ele>42.5</ele><time>2026-03-25T09:13:17.999Z</time></trkpt><trkpt lat="44.739924867219244" lon="10.52975958083687"><ele>41.0</ele><time>2026-03-25T09:13:18.999Z</time></trkpt><trkpt lat="44.739758245954484" lon="10.53026976691204"><ele>40.5</ele><time>2026-03-25T09:13:19.999Z</time></trkpt><trkpt lat="44.739591883192325" lon="10.530779981182748"><ele>40.0</ele><time>2026-03-25T09:13:20.999Z</time></trkpt><trkpt lat="44.73942543558696" lon="10.531289705466651"><ele>40.5</ele><time>2026-03-25T09:13:21.999Z</time></trkpt><trkpt lat="44.739259191085125" lon="10.531800700228747"><ele>41.0</ele><time>2026-03-25T09:13:22.999Z</time></trkpt><trkpt lat="44.73909367600982" lon="10.532309249027117"><ele>41.0</ele><time>2026-03-25T09:13:23.999Z</time></trkpt><trkpt lat="44.738926514879246" lon="10.532820434477834"><ele>41.0</ele><time>2026-03-25T09:13:24.999Z</time></trkpt><trkpt lat="44.73876049754087" lon="10.533329909278184"><ele>41.0</ele><time>2026-03-25T09:13:25.999Z</time></trkpt><trkpt lat="44.7385938555442" lon="10.533840598511667"><ele>41.0</ele><time>2026-03-25T09:13:26.999Z</time></trkpt><trkpt lat="44.73842733233572" lon="10.53435126800425"><ele>40.5</ele><time>2026-03-25T09:13:27.999Z</time></trkpt><trkpt lat="44.73826137636142" lon="10.534860725156406"><ele>40.0</ele><time>2026-03-25T09:13:28.999Z</time></trkpt><trkpt lat="44.738095457940574" lon="10.53536940247644"><ele>40.0</ele><time>2026-03-25T09:13:29.999Z</time></trkpt><trkpt lat="44.737929604355486" lon="10.535879061474564"><ele>40.0</ele><time>2026-03-25T09:13:30.999Z</time></trkpt><trkpt lat="44.73776471407581" lon="10.536387971629447"><ele>40.0</ele><time>2026-03-25T09:13:32Z</time></trkpt><trkpt lat="44.73759838213905" lon="10.536897997377368"><ele>40.0</ele><time>2026-03-25T09:13:33Z</time></trkpt><trkpt lat="44.737432972331725" lon="10.537405898881861"><ele>39.5</ele><time>2026-03-25T09:13:34Z</time></trkpt><trkpt lat="44.73726710626961" lon="10.537915315219495"><ele>39.0</ele><time>2026-03-25T09:13:35Z</time></trkpt><trkpt lat="44.73710114072864" lon="10.538424211862171"><ele>39.5</ele><time>2026-03-25T09:13:36Z</time></trkpt><trkpt lat="44.73693539253991" lon="10.538935246456449"><ele>40.0</ele><time>2026-03-25T09:13:37Z</time></trkpt><trkpt lat="44.73676874324802" lon="10.539446068977128"><ele>39.5</ele><time>2026-03-25T09:13:38Z</time></trkpt><trkpt lat="44.736601182158964" lon="10.539956809627578"><ele>39.0</ele><time>2026-03-25T09:13:39Z</time></trkpt><trkpt lat="44.736435647989445" lon="10.540466666125555"><ele>39.0</ele><time>2026-03-25T09:13:40Z</time></trkpt><trkpt lat="44.73627079747297" lon="10.5409750701126"><ele>39.0</ele><time>2026-03-25T09:13:41Z</time></trkpt><trkpt lat="44.736105540580446" lon="10.54148309865311"><ele>39.0</ele><time>2026-03-25T09:13:42Z</time></trkpt><trkpt lat="44.735940589458664" lon="10.541992190253314"><ele>39.0</ele><time>2026-03-25T09:13:43Z</time></trkpt><trkpt lat="44.73577527827285" lon="10.54250132417365"><ele>38.5</ele><time>2026-03-25T09:13:44Z</time></trkpt><trkpt lat="44.73561019016122" lon="10.543010704709559"><ele>38.0</ele><time>2026-03-25T09:13:45Z</time></trkpt><trkpt lat="44.7354406416751" lon="10.5435138192718"><ele>38.0</ele><time>2026-03-25T09:13:46Z</time></trkpt><trkpt lat="44.735280367730994" lon="10.544028339560379"><ele>38.0</ele><time>2026-03-25T09:13:47Z</time></trkpt><trkpt lat="44.7351157709908" lon="10.54454139807929"><ele>38.5</ele><time>2026-03-25T09:13:48Z</time></trkpt><trkpt lat="44.734953345969245" lon="10.54505857254697"><ele>39.0</ele><time>2026-03-25T09:13:49Z</time></trkpt><trkpt lat="44.73478794858175" lon="10.545567071490016"><ele>38.5</ele><time>2026-03-25T09:13:50Z</time></trkpt><trkpt lat="44.73460970787192" lon="10.54608745562949"><ele>38.0</ele><time>2026-03-25T09:13:51Z</time></trkpt><trkpt lat="44.734445696118115" lon="10.5466067327818"><ele>39.0</ele><time>2026-03-25T09:13:52Z</time></trkpt><trkpt lat="44.73428345851563" lon="10.547120816387846"><ele>40.0</ele><time>2026-03-25T09:13:53Z</time></trkpt><trkpt lat="44.73412464689095" lon="10.547633362514658"><ele>39.5</ele><time>2026-03-25T09:13:54Z</time></trkpt><trkpt lat="44.733961385257885" lon="10.548139308605071"><ele>39.0</ele><time>2026-03-25T09:13:55Z</time></trkpt><trkpt lat="44.733788686378254" lon="10.548657408176352"><ele>39.0</ele><time>2026-03-25T09:13:56Z</time></trkpt><trkpt lat="44.733623979852055" lon="10.549177710166566"><ele>39.0</ele><time>2026-03-25T09:13:57Z</time></trkpt><trkpt lat="44.73346380242741" lon="10.54968592348717"><ele>39.0</ele><time>2026-03-25T09:13:58Z</time></trkpt><trkpt lat="44.73329352423442" lon="10.55019614904171"><ele>39.0</ele><time>2026-03-25T09:13:59Z</time></trkpt><trkpt lat="44.733131160032414" lon="10.55070423743796"><ele>37.5</ele><time>2026-03-25T09:14:00Z</time></trkpt><trkpt lat="44.73296138147866" lon="10.551210312123024"><ele>36.0</ele><time>2026-03-25T09:14:01Z</time></trkpt><trkpt lat="44.732798090962625" lon="10.551720339782765"><ele>37.5</ele><time>2026-03-25T09:14:02Z</time></trkpt><trkpt lat="44.73263796838876" lon="10.552221291465756"><ele>39.0</ele><time>2026-03-25T09:14:03Z</time></trkpt><trkpt lat="44.73247676024988" lon="10.5527261320701"><ele>38.0</ele><time>2026-03-25T09:14:04Z</time></trkpt><trkpt lat="44.73231432740737" lon="10.553231312255257"><ele>37.0</ele><time>2026-03-25T09:14:05Z</time></trkpt><trkpt lat="44.73215480705106" lon="10.553732009359601"><ele>37.0</ele><time>2026-03-25T09:14:06Z</time></trkpt><trkpt lat="44.73198280282881" lon="10.554234129633802"><ele>37.0</ele><time>2026-03-25T09:14:07Z</time></trkpt><trkpt lat="44.731818753765" lon="10.554740099327505"><ele>37.5</ele><time>2026-03-25T09:14:08Z</time></trkpt><trkpt lat="44.731659617616465" lon="10.555244818195735"><ele>38.0</ele><time>2026-03-25T09:14:09Z</time></trkpt><trkpt lat="44.73149411365172" lon="10.555736112325741"><ele>39.0</ele><time>2026-03-25T09:14:10Z</time></trkpt><trkpt lat="44.731325249264636" lon="10.556246729827107"><ele>40.0</ele><time>2026-03-25T09:14:11Z</time></trkpt><trkpt lat="44.73114865296733" lon="10.556751305382996"><ele>40.0</ele><time>2026-03-25T09:14:12Z</time></trkpt><trkpt lat="44.73099396413243" lon="10.557253987522225"><ele>40.0</ele><time>2026-03-25T09:14:13Z</time></trkpt><trkpt lat="44.730829406759355" lon="10.557751576404982"><ele>40.0</ele><time>2026-03-25T09:14:14Z</time></trkpt><trkpt lat="44.7306683268464" lon="10.558250373173363"><ele>40.0</ele><time>2026-03-25T09:14:15Z</time></trkpt><trkpt lat="44.73049486595253" lon="10.558755360449878"><ele>40.5</ele><time>2026-03-25T09:14:16Z</time></trkpt><trkpt lat="44.730349999982046" lon="10.55924894637529"><ele>41.0</ele><time>2026-03-25T09:14:17Z</time></trkpt><trkpt lat="44.73018221333702" lon="10.559770134217986"><ele>41.0</ele><time>2026-03-25T09:14:18Z</time></trkpt><trkpt lat="44.730016149623225" lon="10.560270828197254"><ele>41.0</ele><time>2026-03-25T09:14:19Z</time></trkpt><trkpt lat="44.72985827177898" lon="10.560769391474725"><ele>40.0</ele><time>2026-03-25T09:14:20Z</time></trkpt><trkpt lat="44.72969255784388" lon="10.561279526193882"><ele>39.0</ele><time>2026-03-25T09:14:21Z</time></trkpt><trkpt lat="44.72952744010005" lon="10.561790359604254"><ele>39.5</ele><time>2026-03-25T09:14:22Z</time></trkpt><trkpt lat="44.72936255129805" lon="10.562303229007167"><ele>40.0</ele><time>2026-03-25T09:14:23Z</time></trkpt><trkpt lat="44.72920209172629" lon="10.56280108278016"><ele>39.5</ele><time>2026-03-25T09:14:24Z</time></trkpt><trkpt lat="44.72903792021205" lon="10.56330836616493"><ele>39.0</ele><time>2026-03-25T09:14:25Z</time></trkpt><trkpt lat="44.72887309212281" lon="10.563817352226678"><ele>38.5</ele><time>2026-03-25T09:14:26Z</time></trkpt><trkpt lat="44.728699898056234" lon="10.564336514844104"><ele>38.0</ele><time>2026-03-25T09:14:27Z</time></trkpt><trkpt lat="44.72853601707541" lon="10.564842963105386"><ele>39.5</ele><time>2026-03-25T09:14:28Z</time></trkpt><trkpt lat="44.728375078254416" lon="10.565347557154444"><ele>41.0</ele><time>2026-03-25T09:14:29Z</time></trkpt><trkpt lat="44.728208791015675" lon="10.565855985169112"><ele>41.0</ele><time>2026-03-25T09:14:30Z</time></trkpt><trkpt lat="44.728042723802204" lon="10.566373832602263"><ele>41.0</ele><time>2026-03-25T09:14:31Z</time></trkpt><trkpt lat="44.72787551737138" lon="10.566896461516029"><ele>41.0</ele><time>2026-03-25T09:14:32Z</time></trkpt><trkpt lat="44.727709217257555" lon="10.567411142407561"><ele>41.0</ele><time>2026-03-25T09:14:33Z</time></trkpt><trkpt lat="44.727546363528305" lon="10.567914634126687"><ele>41.0</ele><time>2026-03-25T09:14:34Z</time></trkpt><trkpt lat="44.72738975285499" lon="10.568423099028708"><ele>41.0</ele><time>2026-03-25T09:14:35Z</time></trkpt><trkpt lat="44.72722602233011" lon="10.568928541187594"><ele>40.5</ele><time>2026-03-25T09:14:36Z</time></trkpt><trkpt lat="44.72705853825752" lon="10.569436838313537"><ele>40.0</ele><time>2026-03-25T09:14:37Z</time></trkpt><trkpt lat="44.72689109542917" lon="10.569949820615182"><ele>40.5</ele><time>2026-03-25T09:14:38Z</time></trkpt><trkpt lat="44.72672458791521" lon="10.57045500951864"><ele>41.0</ele><time>2026-03-25T09:14:39Z</time></trkpt><trkpt lat="44.726559060823114" lon="10.570960409649572"><ele>41.5</ele><time>2026-03-25T09:14:40Z</time></trkpt><trkpt lat="44.72639504815531" lon="10.571463487144472"><ele>42.0</ele><time>2026-03-25T09:14:41Z</time></trkpt><trkpt lat="44.72623039107288" lon="10.571967502459696"><ele>42.0</ele><time>2026-03-25T09:14:42Z</time></trkpt><trkpt lat="44.72606517062935" lon="10.572464675415752"><ele>42.0</ele><time>2026-03-25T09:14:43Z</time></trkpt><trkpt lat="44.72590191107329" lon="10.572955609087513"><ele>42.0</ele><time>2026-03-25T09:14:44Z</time></trkpt><trkpt lat="44.72574314868216" lon="10.57344558848286"><ele>42.0</ele><time>2026-03-25T09:14:45Z</time></trkpt><trkpt lat="44.72558740054363" lon="10.573911552996"><ele>42.0</ele><time>2026-03-25T09:14:46Z</time></trkpt><trkpt lat="44.72542968023321" lon="10.574376292663011"><ele>42.0</ele><time>2026-03-25T09:14:47Z</time></trkpt><trkpt lat="44.725272134755365" lon="10.574854023930103"><ele>42.0</ele><time>2026-03-25T09:14:48Z</time></trkpt><trkpt lat="44.725130189929125" lon="10.575308952527811"><ele>42.0</ele><time>2026-03-25T09:14:49Z</time></trkpt><trkpt lat="44.724989688445795" lon="10.575737034014665"><ele>41.0</ele><time>2026-03-25T09:14:50Z</time></trkpt><trkpt lat="44.72485455790966" lon="10.576165438462251"><ele>40.0</ele><time>2026-03-25T09:14:51Z</time></trkpt><trkpt lat="44.724708567693014" lon="10.576592403503392"><ele>39.5</ele><time>2026-03-25T09:14:52Z</time></trkpt><trkpt lat="44.72458140815661" lon="10.576996051046848"><ele>39.0</ele><time>2026-03-25T09:14:53Z</time></trkpt><trkpt lat="44.72444326571402" lon="10.577414748192522"><ele>39.5</ele><time>2026-03-25T09:14:54Z</time></trkpt><trkpt lat="44.724313533913225" lon="10.577811855981093"><ele>40.0</ele><time>2026-03-25T09:14:55Z</time></trkpt><trkpt lat="44.72421043033322" lon="10.57818455935107"><ele>40.0</ele><time>2026-03-25T09:14:56Z</time></trkpt><trkpt lat="44.724086673491044" lon="10.578572443171446"><ele>40.0</ele><time>2026-03-25T09:14:57Z</time></trkpt><trkpt lat="44.72396276395726" lon="10.578960408755645"><ele>40.0</ele><time>2026-03-25T09:14:58Z</time></trkpt><trkpt lat="44.72383897912015" lon="10.579341439334684"><ele>40.0</ele><time>2026-03-25T09:14:59Z</time></trkpt><trkpt lat="44.723711199720235" lon="10.57972929210148"><ele>40.0</ele><time>2026-03-25T09:15:00Z</time></trkpt><trkpt lat="44.72358701945257" lon="10.580118200325042"><ele>40.0</ele><time>2026-03-25T09:15:01Z</time></trkpt><trkpt lat="44.72345885775877" lon="10.580499961102333"><ele>40.0</ele><time>2026-03-25T09:15:02Z</time></trkpt><trkpt lat="44.72334561238407" lon="10.580860047480586"><ele>40.0</ele><time>2026-03-25T09:15:03Z</time></trkpt><trkpt lat="44.72322627582812" lon="10.581225600983341"><ele>39.0</ele><time>2026-03-25T09:15:04Z</time></trkpt><trkpt lat="44.723107862128664" lon="10.581590881912012"><ele>38.0</ele><time>2026-03-25T09:15:05Z</time></trkpt><trkpt lat="44.72298749338753" lon="10.581958704872717"><ele>39.0</ele><time>2026-03-25T09:15:06Z</time></trkpt><trkpt lat="44.72286404052145" lon="10.582336549802982"><ele>40.0</ele><time>2026-03-25T09:15:07Z</time></trkpt><trkpt lat="44.722743663742115" lon="10.582705135803357"><ele>40.5</ele><time>2026-03-25T09:15:08Z</time></trkpt><trkpt lat="44.722621715177425" lon="10.58307426760631"><ele>41.0</ele><time>2026-03-25T09:15:09Z</time></trkpt><trkpt lat="44.72250229810579" lon="10.583439673928464"><ele>40.5</ele><time>2026-03-25T09:15:10Z</time></trkpt><trkpt lat="44.72238226787944" lon="10.583812655175299"><ele>40.0</ele><time>2026-03-25T09:15:11Z</time></trkpt><trkpt lat="44.72226229898418" lon="10.584178707907439"><ele>40.5</ele><time>2026-03-25T09:15:12Z</time></trkpt><trkpt lat="44.72214688722755" lon="10.584537224045173"><ele>41.0</ele><time>2026-03-25T09:15:13Z</time></trkpt><trkpt lat="44.72203393546318" lon="10.584889006173563"><ele>41.0</ele><time>2026-03-25T09:15:14Z</time></trkpt><trkpt lat="44.721919062038914" lon="10.585247483120966"><ele>41.0</ele><time>2026-03-25T09:15:15Z</time></trkpt><trkpt lat="44.72180566208526" lon="10.58560030312476"><ele>41.0</ele><time>2026-03-25T09:15:16Z</time></trkpt><trkpt lat="44.72169146172702" lon="10.5859496989565"><ele>41.0</ele><time>2026-03-25T09:15:17Z</time></trkpt><trkpt lat="44.72157638448043" lon="10.586301829014243"><ele>41.0</ele><time>2026-03-25T09:15:18Z</time></trkpt><trkpt lat="44.72145749955057" lon="10.58666010296914"><ele>41.0</ele><time>2026-03-25T09:15:19Z</time></trkpt><trkpt lat="44.72133456420101" lon="10.587027218135033"><ele>40.5</ele><time>2026-03-25T09:15:20Z</time></trkpt><trkpt lat="44.7212169368376" lon="10.58738534076192"><ele>40.0</ele><time>2026-03-25T09:15:21Z</time></trkpt><trkpt lat="44.7211002836335" lon="10.587751558210678"><ele>40.5</ele><time>2026-03-25T09:15:22Z</time></trkpt><trkpt lat="44.720981698466595" lon="10.588118980683685"><ele>41.0</ele><time>2026-03-25T09:15:23Z</time></trkpt><trkpt lat="44.72086010096426" lon="10.588489565749754"><ele>41.0</ele><time>2026-03-25T09:15:24Z</time></trkpt><trkpt lat="44.72073965563435" lon="10.588864737394845"><ele>41.0</ele><time>2026-03-25T09:15:25Z</time></trkpt><trkpt lat="44.720617383523326" lon="10.589240520900796"><ele>41.5</ele><time>2026-03-25T09:15:26Z</time></trkpt><trkpt lat="44.72049356355271" lon="10.58961940967536"><ele>42.0</ele><time>2026-03-25T09:15:27Z</time></trkpt><trkpt lat="44.72037108928911" lon="10.58999762329597"><ele>42.0</ele><time>2026-03-25T09:15:28Z</time></trkpt><trkpt lat="44.720247400705965" lon="10.590373630252326"><ele>42.0</ele><time>2026-03-25T09:15:28.999Z</time></trkpt><trkpt lat="44.72012275770172" lon="10.590754422662542"><ele>42.0</ele><time>2026-03-25T09:15:29.999Z</time></trkpt><trkpt lat="44.71999401201011" lon="10.591146765096196"><ele>42.0</ele><time>2026-03-25T09:15:30.999Z</time></trkpt><trkpt lat="44.71986321396085" lon="10.591539271117336"><ele>42.0</ele><time>2026-03-25T09:15:31.999Z</time></trkpt><trkpt lat="44.719739829690035" lon="10.591929610791855"><ele>42.0</ele><time>2026-03-25T09:15:32.999Z</time></trkpt><trkpt lat="44.71961319913639" lon="10.592322784015652"><ele>41.5</ele><time>2026-03-25T09:15:33.999Z</time></trkpt><trkpt lat="44.71948599628361" lon="10.592714765395861"><ele>41.0</ele><time>2026-03-25T09:15:34.999Z</time></trkpt><trkpt lat="44.71935601891919" lon="10.59312302488527"><ele>41.0</ele><time>2026-03-25T09:15:35.999Z</time></trkpt><trkpt lat="44.71922730992127" lon="10.593521866609903"><ele>41.0</ele><time>2026-03-25T09:15:36.999Z</time></trkpt><trkpt lat="44.71910383481249" lon="10.593916537212447"><ele>41.5</ele><time>2026-03-25T09:15:38Z</time></trkpt><trkpt lat="44.71897542492848" lon="10.594318527875496"><ele>42.0</ele><time>2026-03-25T09:15:39Z</time></trkpt><trkpt lat="44.718834684702074" lon="10.594735146028869"><ele>41.0</ele><time>2026-03-25T09:15:40Z</time></trkpt><trkpt lat="44.71870534648522" lon="10.595146706946075"><ele>40.0</ele><time>2026-03-25T09:15:41Z</time></trkpt><trkpt lat="44.71856971525572" lon="10.595562533092682"><ele>40.0</ele><time>2026-03-25T09:15:42Z</time></trkpt><trkpt lat="44.718433711093475" lon="10.595982013203948"><ele>40.0</ele><time>2026-03-25T09:15:43Z</time></trkpt><trkpt lat="44.71830817644726" lon="10.596394896239536"><ele>40.5</ele><time>2026-03-25T09:15:44Z</time></trkpt><trkpt lat="44.718164617126355" lon="10.596817429083456"><ele>41.0</ele><time>2026-03-25T09:15:45Z</time></trkpt><trkpt lat="44.718026609686426" lon="10.597242527120882"><ele>41.5</ele><time>2026-03-25T09:15:46Z</time></trkpt><trkpt lat="44.71788411031078" lon="10.597668733058349"><ele>42.0</ele><time>2026-03-25T09:15:47Z</time></trkpt><trkpt lat="44.71773524586232" lon="10.598110174487386"><ele>42.0</ele><time>2026-03-25T09:15:48Z</time></trkpt><trkpt lat="44.71760505475737" lon="10.598554862657968"><ele>42.0</ele><time>2026-03-25T09:15:49Z</time></trkpt><trkpt lat="44.71745853344708" lon="10.599025501461988"><ele>41.5</ele><time>2026-03-25T09:15:50Z</time></trkpt><trkpt lat="44.717310535298985" lon="10.599483929318065"><ele>41.0</ele><time>2026-03-25T09:15:51Z</time></trkpt><trkpt lat="44.71717458633806" lon="10.59992806894034"><ele>43.0</ele><time>2026-03-25T09:15:52Z</time></trkpt><trkpt lat="44.71702441520609" lon="10.60038315561543"><ele>45.0</ele><time>2026-03-25T09:15:53Z</time></trkpt><trkpt lat="44.716873751576486" lon="10.600846893562965"><ele>44.0</ele><time>2026-03-25T09:15:54Z</time></trkpt><trkpt lat="44.716721631468054" lon="10.601306911411578"><ele>43.0</ele><time>2026-03-25T09:15:55Z</time></trkpt><trkpt lat="44.71656085231212" lon="10.601781362669666"><ele>41.5</ele><time>2026-03-25T09:15:56Z</time></trkpt><trkpt lat="44.716404084906905" lon="10.602257998843307"><ele>40.0</ele><time>2026-03-25T09:15:57Z</time></trkpt><trkpt lat="44.71625054282133" lon="10.6027256920625"><ele>39.5</ele><time>2026-03-25T09:15:58Z</time></trkpt><trkpt lat="44.71609582466033" lon="10.603187953742706"><ele>39.0</ele><time>2026-03-25T09:15:59Z</time></trkpt><trkpt lat="44.7159422535283" lon="10.603653201637536"><ele>41.0</ele><time>2026-03-25T09:16:00Z</time></trkpt><trkpt lat="44.71579082907944" lon="10.604117585459742"><ele>43.0</ele><time>2026-03-25T09:16:01Z</time></trkpt><trkpt lat="44.71563876848282" lon="10.604585014322275"><ele>43.0</ele><time>2026-03-25T09:16:02Z</time></trkpt><trkpt lat="44.715482743647655" lon="10.605058643661517"><ele>43.0</ele><time>2026-03-25T09:16:03Z</time></trkpt><trkpt lat="44.715325398301395" lon="10.605525656534223"><ele>44.0</ele><time>2026-03-25T09:16:04Z</time></trkpt><trkpt lat="44.71517586106178" lon="10.605992917903787"><ele>45.0</ele><time>2026-03-25T09:16:05Z</time></trkpt><trkpt lat="44.7150360516696" lon="10.606462762474807"><ele>45.0</ele><time>2026-03-25T09:16:06Z</time></trkpt><trkpt lat="44.71491343817752" lon="10.606933555391203"><ele>45.0</ele><time>2026-03-25T09:16:07Z</time></trkpt><trkpt lat="44.71480658822795" lon="10.607403179555776"><ele>44.5</ele><time>2026-03-25T09:16:08Z</time></trkpt><trkpt lat="44.71471180600015" lon="10.607873775552017"><ele>44.0</ele><time>2026-03-25T09:16:09Z</time></trkpt><trkpt lat="44.714628414946056" lon="10.60834413726459"><ele>44.0</ele><time>2026-03-25T09:16:10Z</time></trkpt><trkpt lat="44.714553337211946" lon="10.60881163677059"><ele>44.0</ele><time>2026-03-25T09:16:11Z</time></trkpt><trkpt lat="44.71449212409205" lon="10.609276893853785"><ele>45.0</ele><time>2026-03-25T09:16:12Z</time></trkpt><trkpt lat="44.71443381903657" lon="10.609747056474184"><ele>46.0</ele><time>2026-03-25T09:16:13Z</time></trkpt><trkpt lat="44.71439573649062" lon="10.610210394248504"><ele>47.0</ele><time>2026-03-25T09:16:14Z</time></trkpt><trkpt lat="44.714370945293076" lon="10.610663559865406"><ele>48.0</ele><time>2026-03-25T09:16:15Z</time></trkpt><trkpt lat="44.71435538039195" lon="10.611107035454497"><ele>48.0</ele><time>2026-03-25T09:16:16Z</time></trkpt><trkpt lat="44.714361631840234" lon="10.611550807985939"><ele>48.0</ele><time>2026-03-25T09:16:17Z</time></trkpt><trkpt lat="44.714387708370076" lon="10.611982116729605"><ele>48.0</ele><time>2026-03-25T09:16:18Z</time></trkpt><trkpt lat="44.71439317909168" lon="10.61239515940042"><ele>48.0</ele><time>2026-03-25T09:16:19Z</time></trkpt><trkpt lat="44.714389253054456" lon="10.612818000684968"><ele>47.0</ele><time>2026-03-25T09:16:20Z</time></trkpt><trkpt lat="44.714389559324005" lon="10.613240862141277"><ele>46.0</ele><time>2026-03-25T09:16:21Z</time></trkpt><trkpt lat="44.71438809140034" lon="10.613646385318873"><ele>46.5</ele><time>2026-03-25T09:16:22Z</time></trkpt><trkpt lat="44.7143975617731" lon="10.614035717060798"><ele>47.0</ele><time>2026-03-25T09:16:23Z</time></trkpt><trkpt lat="44.71440436236274" lon="10.614428514321283"><ele>47.5</ele><time>2026-03-25T09:16:24Z</time></trkpt><trkpt lat="44.71440728478277" lon="10.614804076024852"><ele>48.0</ele><time>2026-03-25T09:16:25Z</time></trkpt><trkpt lat="44.71440867423394" lon="10.615178017195197"><ele>47.5</ele><time>2026-03-25T09:16:26Z</time></trkpt><trkpt lat="44.7144276547558" lon="10.61552311101666"><ele>47.0</ele><time>2026-03-25T09:16:27Z</time></trkpt><trkpt lat="44.71443811962199" lon="10.61587545819248"><ele>46.5</ele><time>2026-03-25T09:16:28Z</time></trkpt><trkpt lat="44.71444781300445" lon="10.616216799370326"><ele>46.0</ele><time>2026-03-25T09:16:29Z</time></trkpt><trkpt lat="44.71445565501636" lon="10.616551845397808"><ele>46.0</ele><time>2026-03-25T09:16:30Z</time></trkpt><trkpt lat="44.71445932270197" lon="10.616884957246317"><ele>46.0</ele><time>2026-03-25T09:16:31Z</time></trkpt><trkpt lat="44.71446241650376" lon="10.617210735300239"><ele>46.0</ele><time>2026-03-25T09:16:32Z</time></trkpt><trkpt lat="44.714464361875464" lon="10.617529670773285"><ele>46.0</ele><time>2026-03-25T09:16:33Z</time></trkpt><trkpt lat="44.71447054711958" lon="10.61783387049904"><ele>46.0</ele><time>2026-03-25T09:16:34Z</time></trkpt><trkpt lat="44.714475956594406" lon="10.618131123394193"><ele>47.0</ele><time>2026-03-25T09:16:35Z</time></trkpt><trkpt lat="44.714479263980046" lon="10.618422742903936"><ele>48.0</ele><time>2026-03-25T09:16:36Z</time></trkpt><trkpt lat="44.71448405753619" lon="10.618701754628814"><ele>49.0</ele><time>2026-03-25T09:16:37Z</time></trkpt><trkpt lat="44.714491090004735" lon="10.618970753266902"><ele>49.0</ele><time>2026-03-25T09:16:38Z</time></trkpt><trkpt lat="44.714499112782796" lon="10.619234184434843"><ele>49.0</ele><time>2026-03-25T09:16:39Z</time></trkpt><trkpt lat="44.71450180881384" lon="10.61950147836342"><ele>49.0</ele><time>2026-03-25T09:16:40Z</time></trkpt><trkpt lat="44.7145058762689" lon="10.619761725847646"><ele>49.33333333333333</ele><time>2026-03-25T09:16:41Z</time></trkpt><trkpt lat="44.714505889758826" lon="10.620025133739372"><ele>49.66666666666667</ele><time>2026-03-25T09:16:42Z</time></trkpt><trkpt lat="44.71450893381503" lon="10.620278325149812"><ele>50.0</ele><time>2026-03-25T09:16:43Z</time></trkpt><trkpt lat="44.71451366600908" lon="10.620524204136052"><ele>50.0</ele><time>2026-03-25T09:16:44Z</time></trkpt><trkpt lat="44.71451910641237" lon="10.620764220683158"><ele>50.0</ele><time>2026-03-25T09:16:45Z</time></trkpt><trkpt lat="44.71452751742008" lon="10.62100513736381"><ele>50.0</ele><time>2026-03-25T09:16:46Z</time></trkpt><trkpt lat="44.71453006064659" lon="10.62123343553133"><ele>50.0</ele><time>2026-03-25T09:16:47Z</time></trkpt><trkpt lat="44.714534904366985" lon="10.621457220958067"><ele>50.0</ele><time>2026-03-25T09:16:48Z</time></trkpt><trkpt lat="44.71453004741778" lon="10.621694367923919"><ele>50.0</ele><time>2026-03-25T09:16:49Z</time></trkpt><trkpt lat="44.71451921113878" lon="10.621921696244566"><ele>50.0</ele><time>2026-03-25T09:16:50Z</time></trkpt><trkpt lat="44.71450743317585" lon="10.622145914071213"><ele>50.0</ele><time>2026-03-25T09:16:51Z</time></trkpt><trkpt lat="44.71450042009323" lon="10.622367527723814"><ele>50.0</ele><time>2026-03-25T09:16:52Z</time></trkpt><trkpt lat="44.71449160170955" lon="10.622593587373077"><ele>49.333333333333336</ele><time>2026-03-25T09:16:53Z</time></trkpt><trkpt lat="44.71448167408325" lon="10.62281495459331"><ele>48.66666666666667</ele><time>2026-03-25T09:16:54Z</time></trkpt><trkpt lat="44.71444802146113" lon="10.623052084976868"><ele>48.0</ele><time>2026-03-25T09:16:55Z</time></trkpt><trkpt lat="44.714411759218486" lon="10.623292626429745"><ele>48.0</ele><time>2026-03-25T09:16:56Z</time></trkpt><trkpt lat="44.714380308684355" lon="10.623524747273809"><ele>48.0</ele><time>2026-03-25T09:16:57Z</time></trkpt><trkpt lat="44.71434189912473" lon="10.623765990733084"><ele>48.0</ele><time>2026-03-25T09:16:58Z</time></trkpt><trkpt lat="44.71430439078168" lon="10.623996261061182"><ele>48.0</ele><time>2026-03-25T09:16:59Z</time></trkpt><trkpt lat="44.714260392699" lon="10.624222657695848"><ele>48.0</ele><time>2026-03-25T09:17:00Z</time></trkpt><trkpt lat="44.7142136172959" lon="10.624460534946113"><ele>48.0</ele><time>2026-03-25T09:17:01Z</time></trkpt><trkpt lat="44.71416480161079" lon="10.624710813780004"><ele>47.666666666666664</ele><time>2026-03-25T09:17:02Z</time></trkpt><trkpt lat="44.71410476285882" lon="10.624948566249738"><ele>47.33333333333333</ele><time>2026-03-25T09:17:03Z</time></trkpt><trkpt lat="44.71403664890187" lon="10.625193242882856"><ele>47.0</ele><time>2026-03-25T09:17:04Z</time></trkpt><trkpt lat="44.713966440756664" lon="10.62544268126932"><ele>46.666666666666664</ele><time>2026-03-25T09:17:05Z</time></trkpt><trkpt lat="44.713887359592874" lon="10.625694255896795"><ele>46.333333333333336</ele><time>2026-03-25T09:17:06Z</time></trkpt><trkpt lat="44.71380442523734" lon="10.625944601380265"><ele>46.0</ele><time>2026-03-25T09:17:07Z</time></trkpt><trkpt lat="44.713707077574746" lon="10.626200570955056"><ele>46.0</ele><time>2026-03-25T09:17:08Z</time></trkpt><trkpt lat="44.71361091472152" lon="10.6264572759382"><ele>46.0</ele><time>2026-03-25T09:17:09Z</time></trkpt><trkpt lat="44.7135132131727" lon="10.626706500358775"><ele>46.0</ele><time>2026-03-25T09:17:10Z</time></trkpt><trkpt lat="44.71340027704385" lon="10.626967957951061"><ele>46.66666666666667</ele><time>2026-03-25T09:17:11Z</time></trkpt><trkpt lat="44.713283346826685" lon="10.627225365710823"><ele>47.333333333333336</ele><time>2026-03-25T09:17:12Z</time></trkpt><trkpt lat="44.71314993824429" lon="10.627477550071724"><ele>48.0</ele><time>2026-03-25T09:17:13Z</time></trkpt><trkpt lat="44.712998810888024" lon="10.627735536710068"><ele>48.0</ele><time>2026-03-25T09:17:14Z</time></trkpt><trkpt lat="44.71283576093912" lon="10.627987804525413"><ele>48.0</ele><time>2026-03-25T09:17:15Z</time></trkpt><trkpt lat="44.71268407040489" lon="10.62823035304693"><ele>47.5</ele><time>2026-03-25T09:17:16Z</time></trkpt><trkpt lat="44.712504190659914" lon="10.628503404868995"><ele>47.0</ele><time>2026-03-25T09:17:17Z</time></trkpt><trkpt lat="44.71232888031091" lon="10.628751137797899"><ele>46.5</ele><time>2026-03-25T09:17:18Z</time></trkpt><trkpt lat="44.71216311643499" lon="10.628985488753743"><ele>46.0</ele><time>2026-03-25T09:17:19Z</time></trkpt><trkpt lat="44.71196944515971" lon="10.629218392721555"><ele>46.5</ele><time>2026-03-25T09:17:20Z</time></trkpt><trkpt lat="44.71179679309433" lon="10.629436044600324"><ele>47.0</ele><time>2026-03-25T09:17:21Z</time></trkpt><trkpt lat="44.71158936728543" lon="10.629655361070105"><ele>47.0</ele><time>2026-03-25T09:17:22Z</time></trkpt><trkpt lat="44.711363212073586" lon="10.629868029417729"><ele>47.0</ele><time>2026-03-25T09:17:23Z</time></trkpt><trkpt lat="44.71116606580541" lon="10.630062040119144"><ele>47.0</ele><time>2026-03-25T09:17:24Z</time></trkpt><trkpt lat="44.71096651645704" lon="10.630266209983468"><ele>47.0</ele><time>2026-03-25T09:17:25Z</time></trkpt><trkpt lat="44.71077346875676" lon="10.630457409790607"><ele>46.5</ele><time>2026-03-25T09:17:26Z</time></trkpt><trkpt lat="44.71056801775446" lon="10.630652532705112"><ele>46.0</ele><time>2026-03-25T09:17:27Z</time></trkpt><trkpt lat="44.71035581441522" lon="10.63085843325288"><ele>46.5</ele><time>2026-03-25T09:17:28Z</time></trkpt><trkpt lat="44.71014816921915" lon="10.631059656931361"><ele>47.0</ele><time>2026-03-25T09:17:29Z</time></trkpt><trkpt lat="44.70995850174102" lon="10.631212541440506"><ele>48.0</ele><time>2026-03-25T09:17:30Z</time></trkpt><trkpt lat="44.70975905241673" lon="10.63137129637705"><ele>49.0</ele><time>2026-03-25T09:17:31Z</time></trkpt><trkpt lat="44.70953028168312" lon="10.631532587854572"><ele>48.5</ele><time>2026-03-25T09:17:32Z</time></trkpt><trkpt lat="44.709298179299026" lon="10.631692909014669"><ele>48.0</ele><time>2026-03-25T09:17:33Z</time></trkpt><trkpt lat="44.70907244464035" lon="10.63186003648795"><ele>47.5</ele><time>2026-03-25T09:17:34Z</time></trkpt><trkpt lat="44.70886642501598" lon="10.632043706896427"><ele>47.0</ele><time>2026-03-25T09:17:35Z</time></trkpt><trkpt lat="44.70866518058036" lon="10.632221999658233"><ele>48.5</ele><time>2026-03-25T09:17:36Z</time></trkpt><trkpt lat="44.70844305913459" lon="10.632382646879213"><ele>50.0</ele><time>2026-03-25T09:17:37Z</time></trkpt><trkpt lat="44.708250095595574" lon="10.632549005692674"><ele>50.0</ele><time>2026-03-25T09:17:38Z</time></trkpt><trkpt lat="44.708065859708455" lon="10.632730648187115"><ele>50.0</ele><time>2026-03-25T09:17:39Z</time></trkpt><trkpt lat="44.707835475674074" lon="10.632861941583117"><ele>51.0</ele><time>2026-03-25T09:17:40Z</time></trkpt><trkpt lat="44.70763069914198" lon="10.633022012266991"><ele>52.0</ele><time>2026-03-25T09:17:41Z</time></trkpt><trkpt lat="44.70742947669094" lon="10.633186855998458"><ele>52.0</ele><time>2026-03-25T09:17:42Z</time></trkpt><trkpt lat="44.707215548641145" lon="10.63334550140526"><ele>52.0</ele><time>2026-03-25T09:17:43Z</time></trkpt><trkpt lat="44.70698838868872" lon="10.633497255458797"><ele>50.0</ele><time>2026-03-25T09:17:44Z</time></trkpt><trkpt lat="44.70676153860993" lon="10.633646575287315"><ele>48.0</ele><time>2026-03-25T09:17:45Z</time></trkpt><trkpt lat="44.70654088204853" lon="10.633805024584245"><ele>48.0</ele><time>2026-03-25T09:17:46Z</time></trkpt><trkpt lat="44.70632268820579" lon="10.63395665431333"><ele>48.0</ele><time>2026-03-25T09:17:47Z</time></trkpt><trkpt lat="44.70611671196729" lon="10.634113432733246"><ele>48.5</ele><time>2026-03-25T09:17:48Z</time></trkpt><trkpt lat="44.70591528661137" lon="10.634268549503306"><ele>49.0</ele><time>2026-03-25T09:17:49Z</time></trkpt><trkpt lat="44.70571500500196" lon="10.63442953842162"><ele>49.33333333333333</ele><time>2026-03-25T09:17:50Z</time></trkpt><trkpt lat="44.705520214881304" lon="10.634582814249876"><ele>49.66666666666667</ele><time>2026-03-25T09:17:51Z</time></trkpt><trkpt lat="44.70533079096191" lon="10.634734389428118"><ele>50.0</ele><time>2026-03-25T09:17:52Z</time></trkpt><trkpt lat="44.70511535778723" lon="10.634867931384575"><ele>50.0</ele><time>2026-03-25T09:17:53Z</time></trkpt><trkpt lat="44.704914059327386" lon="10.63501298085619"><ele>50.0</ele><time>2026-03-25T09:17:54Z</time></trkpt><trkpt lat="44.704698716938395" lon="10.635144817655066"><ele>50.0</ele><time>2026-03-25T09:17:55Z</time></trkpt><trkpt lat="44.704508591892456" lon="10.635282377446249"><ele>50.0</ele><time>2026-03-25T09:17:56Z</time></trkpt><trkpt lat="44.70432109806301" lon="10.63542298342651"><ele>50.0</ele><time>2026-03-25T09:17:57Z</time></trkpt><trkpt lat="44.70414496113122" lon="10.635567215311802"><ele>50.66666666666667</ele><time>2026-03-25T09:17:58Z</time></trkpt><trkpt lat="44.703965271680055" lon="10.635694093874672"><ele>51.33333333333333</ele><time>2026-03-25T09:17:59Z</time></trkpt><trkpt lat="44.70378921241263" lon="10.635838853398328"><ele>52.0</ele><time>2026-03-25T09:18:00Z</time></trkpt><trkpt lat="44.703633617746405" lon="10.635987268421282"><ele>52.0</ele><time>2026-03-25T09:18:01Z</time></trkpt><trkpt lat="44.70345745951695" lon="10.636109236898077"><ele>52.0</ele><time>2026-03-25T09:18:02Z</time></trkpt><trkpt lat="44.703296400967936" lon="10.636250321579366"><ele>52.0</ele><time>2026-03-25T09:18:03Z</time></trkpt><trkpt lat="44.70310809908744" lon="10.636369819287069"><ele>52.0</ele><time>2026-03-25T09:18:04Z</time></trkpt><trkpt lat="44.70290814831079" lon="10.636483950897757"><ele>52.0</ele><time>2026-03-25T09:18:05Z</time></trkpt><trkpt lat="44.70273041884021" lon="10.636607591206666"><ele>52.0</ele><time>2026-03-25T09:18:06Z</time></trkpt><trkpt lat="44.70257425438807" lon="10.636733833996468"><ele>52.33333333333333</ele><time>2026-03-25T09:18:07Z</time></trkpt><trkpt lat="44.702407793300004" lon="10.636859896104973"><ele>52.66666666666667</ele><time>2026-03-25T09:18:08Z</time></trkpt><trkpt lat="44.70225257177048" lon="10.636995180790567"><ele>53.0</ele><time>2026-03-25T09:18:09Z</time></trkpt><trkpt lat="44.702105095476476" lon="10.637123752532492"><ele>53.333333333333336</ele><time>2026-03-25T09:18:10Z</time></trkpt><trkpt lat="44.701936999155066" lon="10.63724014737029"><ele>53.66666666666667</ele><time>2026-03-25T09:18:11Z</time></trkpt><trkpt lat="44.701769210068726" lon="10.63736926969432"><ele>54.0</ele><time>2026-03-25T09:18:12Z</time></trkpt><trkpt lat="44.70160230253311" lon="10.637495865777119"><ele>54.0</ele><time>2026-03-25T09:18:13Z</time></trkpt><trkpt lat="44.70143448136599" lon="10.637621516877568"><ele>54.0</ele><time>2026-03-25T09:18:14Z</time></trkpt><trkpt lat="44.70127528290805" lon="10.637738452622237"><ele>54.0</ele><time>2026-03-25T09:18:15Z</time></trkpt><trkpt lat="44.70113126847827" lon="10.637873985105779"><ele>54.0</ele><time>2026-03-25T09:18:16Z</time></trkpt><trkpt lat="44.70099487752914" lon="10.638007847037281"><ele>54.0</ele><time>2026-03-25T09:18:17Z</time></trkpt><trkpt lat="44.70085584749867" lon="10.638162425576297"><ele>54.0</ele><time>2026-03-25T09:18:18Z</time></trkpt><trkpt lat="44.70072251206172" lon="10.638322899545292"><ele>54.0</ele><time>2026-03-25T09:18:19Z</time></trkpt><trkpt lat="44.70058927376005" lon="10.638477327282656"><ele>54.0</ele><time>2026-03-25T09:18:20Z</time></trkpt><trkpt lat="44.70045643437662" lon="10.638638105978195"><ele>54.0</ele><time>2026-03-25T09:18:21Z</time></trkpt><trkpt lat="44.700330121200636" lon="10.638805572418251"><ele>53.33333333333333</ele><time>2026-03-25T09:18:22Z</time></trkpt><trkpt lat="44.70021535577686" lon="10.638962005296884"><ele>52.666666666666664</ele><time>2026-03-25T09:18:23Z</time></trkpt><trkpt lat="44.70009315194012" lon="10.639109538415768"><ele>52.0</ele><time>2026-03-25T09:18:24Z</time></trkpt><trkpt lat="44.699972198940166" lon="10.639256853116416"><ele>52.0</ele><time>2026-03-25T09:18:25Z</time></trkpt><trkpt lat="44.699853717380066" lon="10.639396241945112"><ele>52.0</ele><time>2026-03-25T09:18:26Z</time></trkpt><trkpt lat="44.69973700540424" lon="10.639539483108265"><ele>52.0</ele><time>2026-03-25T09:18:27Z</time></trkpt><trkpt lat="44.69961381260967" lon="10.639681978383448"><ele>52.0</ele><time>2026-03-25T09:18:28Z</time></trkpt><trkpt lat="44.69950359175986" lon="10.639827789159416"><ele>52.0</ele><time>2026-03-25T09:18:29Z</time></trkpt><trkpt lat="44.699403038103995" lon="10.639973097430689"><ele>52.0</ele><time>2026-03-25T09:18:30Z</time></trkpt><trkpt lat="44.69930740825938" lon="10.640120695639922"><ele>52.0</ele><time>2026-03-25T09:18:31Z</time></trkpt><trkpt lat="44.69920471219246" lon="10.640268492753902"><ele>51.5</ele><time>2026-03-25T09:18:32Z</time></trkpt><trkpt lat="44.699128483860534" lon="10.640407814687315"><ele>51.0</ele><time>2026-03-25T09:18:33Z</time></trkpt><trkpt lat="44.699045115394284" lon="10.640555116941725"><ele>50.5</ele><time>2026-03-25T09:18:34Z</time></trkpt><trkpt lat="44.6989540111904" lon="10.640693650555882"><ele>50.0</ele><time>2026-03-25T09:18:35Z</time></trkpt><trkpt lat="44.69885987561864" lon="10.64084740832359"><ele>50.0</ele><time>2026-03-25T09:18:36Z</time></trkpt><trkpt lat="44.69877021577808" lon="10.640992055994495"><ele>50.0</ele><time>2026-03-25T09:18:37Z</time></trkpt><trkpt lat="44.698690107712686" lon="10.641132365849582"><ele>50.0</ele><time>2026-03-25T09:18:38Z</time></trkpt><trkpt lat="44.698607144647674" lon="10.641272231576691"><ele>50.0</ele><time>2026-03-25T09:18:39Z</time></trkpt><trkpt lat="44.69852814855554" lon="10.641430041108002"><ele>50.0</ele><time>2026-03-25T09:18:40Z</time></trkpt><trkpt lat="44.69845479063461" lon="10.641581852927349"><ele>50.0</ele><time>2026-03-25T09:18:41Z</time></trkpt><trkpt lat="44.69838516280977" lon="10.64173194780168"><ele>50.0</ele><time>2026-03-25T09:18:42Z</time></trkpt><trkpt lat="44.69832234677815" lon="10.641872703942703"><ele>50.0</ele><time>2026-03-25T09:18:43Z</time></trkpt><trkpt lat="44.698257146625664" lon="10.642035072680148"><ele>50.0</ele><time>2026-03-25T09:18:44Z</time></trkpt><trkpt lat="44.698190473312536" lon="10.642198923299803"><ele>50.0</ele><time>2026-03-25T09:18:45Z</time></trkpt><trkpt lat="44.6981309717118" lon="10.642362656646725"><ele>50.0</ele><time>2026-03-25T09:18:46Z</time></trkpt><trkpt lat="44.69806836048551" lon="10.64251587751338"><ele>50.0</ele><time>2026-03-25T09:18:47Z</time></trkpt><trkpt lat="44.69799641418048" lon="10.642689422814652"><ele>49.75</ele><time>2026-03-25T09:18:48Z</time></trkpt><trkpt lat="44.6979392970093" lon="10.642855236261079"><ele>49.5</ele><time>2026-03-25T09:18:49Z</time></trkpt><trkpt lat="44.69788154201539" lon="10.643022704338566"><ele>49.25</ele><time>2026-03-25T09:18:50Z</time></trkpt><trkpt lat="44.69782337924347" lon="10.643174422638038"><ele>49.0</ele><time>2026-03-25T09:18:51Z</time></trkpt><trkpt lat="44.69777117634577" lon="10.64332403672927"><ele>49.5</ele><time>2026-03-25T09:18:52Z</time></trkpt><trkpt lat="44.69771711803119" lon="10.64346591243608"><ele>50.0</ele><time>2026-03-25T09:18:53Z</time></trkpt><trkpt lat="44.697657573289916" lon="10.643613661030788"><ele>50.5</ele><time>2026-03-25T09:18:54Z</time></trkpt><trkpt lat="44.697605839540735" lon="10.643761451829539"><ele>51.0</ele><time>2026-03-25T09:18:55Z</time></trkpt><trkpt lat="44.69754787827278" lon="10.643905754367617"><ele>51.0</ele><time>2026-03-25T09:18:56Z</time></trkpt><trkpt lat="44.69749012043677" lon="10.6440431896767"><ele>51.0</ele><time>2026-03-25T09:18:57Z</time></trkpt><trkpt lat="44.69742593629919" lon="10.644175709892574"><ele>51.0</ele><time>2026-03-25T09:18:58Z</time></trkpt><trkpt lat="44.69738200148679" lon="10.644286586961437"><ele>51.0</ele><time>2026-03-25T09:18:59Z</time></trkpt><trkpt lat="44.697354389764065" lon="10.644435546626934"><ele>51.0</ele><time>2026-03-25T09:19:00Z</time></trkpt><trkpt lat="44.69732874687032" lon="10.644544094894648"><ele>51.0</ele><time>2026-03-25T09:19:01Z</time></trkpt><trkpt lat="44.69731271211494" lon="10.644640525569592"><ele>51.0</ele><time>2026-03-25T09:19:02Z</time></trkpt><trkpt lat="44.69727920897079" lon="10.644731934659989"><ele>51.0</ele><time>2026-03-25T09:19:03Z</time></trkpt><trkpt lat="44.69723373576324" lon="10.644859377115631"><ele>51.0</ele><time>2026-03-25T09:19:05Z</time></trkpt><trkpt lat="44.697208363878026" lon="10.644947868892526"><ele>51.0</ele><time>2026-03-25T09:19:06Z</time></trkpt><trkpt lat="44.697271486656845" lon="10.644900979089995"><ele>51.0</ele><time>2026-03-25T09:19:11Z</time></trkpt><trkpt lat="44.69732710928224" lon="10.6448182428766"><ele>51.0</ele><time>2026-03-25T09:19:32Z</time></trkpt><trkpt lat="44.697365722365674" lon="10.644733199734878"><ele>51.0</ele><time>2026-03-25T09:19:48.999Z</time></trkpt><trkpt lat="44.697383455772375" lon="10.644891306315238"><ele>51.0</ele><time>2026-03-25T09:20:43Z</time></trkpt><trkpt lat="44.6973557659181" lon="10.644993969528983"><ele>51.0</ele><time>2026-03-25T09:20:45Z</time></trkpt><trkpt lat="44.69731434683435" lon="10.645123631014298"><ele>51.0</ele><time>2026-03-25T09:20:47Z</time></trkpt><trkpt lat="44.69727049322848" lon="10.64527405719556"><ele>50.833333333333336</ele><time>2026-03-25T09:20:49Z</time></trkpt><trkpt lat="44.69723722485102" lon="10.645366350349896"><ele>50.66666666666667</ele><time>2026-03-25T09:20:50Z</time></trkpt><trkpt lat="44.69720249628482" lon="10.64546497051227"><ele>50.5</ele><time>2026-03-25T09:20:51Z</time></trkpt><trkpt lat="44.697164192371524" lon="10.645569851688373"><ele>50.333333333333336</ele><time>2026-03-25T09:20:52Z</time></trkpt><trkpt lat="44.69712624918223" lon="10.645676939154516"><ele>50.16666666666667</ele><time>2026-03-25T09:20:53Z</time></trkpt><trkpt lat="44.69709039489984" lon="10.64578604052066"><ele>50.0</ele><time>2026-03-25T09:20:54Z</time></trkpt><trkpt lat="44.697046963140636" lon="10.645911030402193"><ele>50.0</ele><time>2026-03-25T09:20:55Z</time></trkpt><trkpt lat="44.697005737079884" lon="10.646034216247635"><ele>50.0</ele><time>2026-03-25T09:20:56Z</time></trkpt><trkpt lat="44.69695928466628" lon="10.646163640626572"><ele>50.0</ele><time>2026-03-25T09:20:57Z</time></trkpt><trkpt lat="44.69691328702284" lon="10.646295374593388"><ele>50.0</ele><time>2026-03-25T09:20:58Z</time></trkpt><trkpt lat="44.696866548477324" lon="10.64642759766729"><ele>50.0</ele><time>2026-03-25T09:20:59Z</time></trkpt><trkpt lat="44.6968275051395" lon="10.646559378470043"><ele>50.0</ele><time>2026-03-25T09:21:00Z</time></trkpt><trkpt lat="44.69678754148062" lon="10.646708617039462"><ele>50.0</ele><time>2026-03-25T09:21:01Z</time></trkpt><trkpt lat="44.69673413944067" lon="10.646853575259895"><ele>50.0</ele><time>2026-03-25T09:21:02Z</time></trkpt><trkpt lat="44.696689172480674" lon="10.647002306033764"><ele>50.0</ele><time>2026-03-25T09:21:03Z</time></trkpt><trkpt lat="44.696632642427325" lon="10.647152755348236"><ele>50.0</ele><time>2026-03-25T09:21:04Z</time></trkpt><trkpt lat="44.696579369226654" lon="10.647307876678973"><ele>50.0</ele><time>2026-03-25T09:21:05Z</time></trkpt><trkpt lat="44.69653688140659" lon="10.647461887088271"><ele>50.0</ele><time>2026-03-25T09:21:06Z</time></trkpt><trkpt lat="44.69647867913799" lon="10.647635547913225"><ele>50.0</ele><time>2026-03-25T09:21:07Z</time></trkpt><trkpt lat="44.696411590115666" lon="10.647812399567716"><ele>50.25</ele><time>2026-03-25T09:21:08Z</time></trkpt><trkpt lat="44.696342901279316" lon="10.647981954805424"><ele>50.5</ele><time>2026-03-25T09:21:09Z</time></trkpt><trkpt lat="44.69628694231899" lon="10.648153970102586"><ele>50.75</ele><time>2026-03-25T09:21:10Z</time></trkpt><trkpt lat="44.69622403000704" lon="10.64832279525366"><ele>51.0</ele><time>2026-03-25T09:21:11Z</time></trkpt><trkpt lat="44.69615332736982" lon="10.64851882905711"><ele>51.0</ele><time>2026-03-25T09:21:12Z</time></trkpt><trkpt lat="44.696082575783485" lon="10.648714826760523"><ele>51.0</ele><time>2026-03-25T09:21:13Z</time></trkpt><trkpt lat="44.69600172343554" lon="10.648911912553242"><ele>51.0</ele><time>2026-03-25T09:21:14Z</time></trkpt><trkpt lat="44.695931647670946" lon="10.64909813771391"><ele>51.0</ele><time>2026-03-25T09:21:15Z</time></trkpt><trkpt lat="44.695859092681964" lon="10.649294189947128"><ele>51.0</ele><time>2026-03-25T09:21:16Z</time></trkpt><trkpt lat="44.695782795125126" lon="10.649509004472398"><ele>51.0</ele><time>2026-03-25T09:21:17Z</time></trkpt><trkpt lat="44.69569523368192" lon="10.649718532823693"><ele>51.0</ele><time>2026-03-25T09:21:18Z</time></trkpt><trkpt lat="44.69561204956828" lon="10.649939193046434"><ele>51.0</ele><time>2026-03-25T09:21:19Z</time></trkpt><trkpt lat="44.69552877153939" lon="10.650178433752906"><ele>51.0</ele><time>2026-03-25T09:21:20Z</time></trkpt><trkpt lat="44.695451164844144" lon="10.650403057278195"><ele>50.66666666666667</ele><time>2026-03-25T09:21:21Z</time></trkpt><trkpt lat="44.69536397674737" lon="10.650630279101843"><ele>50.333333333333336</ele><time>2026-03-25T09:21:22Z</time></trkpt><trkpt lat="44.695271351322795" lon="10.650885240020143"><ele>50.0</ele><time>2026-03-25T09:21:23Z</time></trkpt><trkpt lat="44.6951813082603" lon="10.65113065902784"><ele>50.66666666666667</ele><time>2026-03-25T09:21:24Z</time></trkpt><trkpt lat="44.695099661226664" lon="10.65135528194101"><ele>51.33333333333333</ele><time>2026-03-25T09:21:25Z</time></trkpt><trkpt lat="44.6950240567987" lon="10.651580476374182"><ele>52.0</ele><time>2026-03-25T09:21:26Z</time></trkpt><trkpt lat="44.694947073762286" lon="10.651813618793256"><ele>51.33333333333333</ele><time>2026-03-25T09:21:27Z</time></trkpt><trkpt lat="44.69486613300861" lon="10.652047866553037"><ele>50.66666666666667</ele><time>2026-03-25T09:21:28Z</time></trkpt><trkpt lat="44.69479345137295" lon="10.652289302659204"><ele>50.0</ele><time>2026-03-25T09:21:29Z</time></trkpt><trkpt lat="44.694692426831125" lon="10.652542778056885"><ele>49.66666666666667</ele><time>2026-03-25T09:21:30Z</time></trkpt><trkpt lat="44.694599489924734" lon="10.652799528520156"><ele>49.33333333333333</ele><time>2026-03-25T09:21:31Z</time></trkpt><trkpt lat="44.69450404570423" lon="10.653055913750887"><ele>49.0</ele><time>2026-03-25T09:21:32Z</time></trkpt><trkpt lat="44.694409583088834" lon="10.653309131055366"><ele>49.33333333333333</ele><time>2026-03-25T09:21:33Z</time></trkpt><trkpt lat="44.69432342564406" lon="10.653566657593652"><ele>49.66666666666667</ele><time>2026-03-25T09:21:34Z</time></trkpt><trkpt lat="44.6942349410043" lon="10.653819308212336"><ele>50.0</ele><time>2026-03-25T09:21:35Z</time></trkpt><trkpt lat="44.694148949232215" lon="10.654087927784166"><ele>50.0</ele><time>2026-03-25T09:21:36Z</time></trkpt><trkpt lat="44.694053973659635" lon="10.654376134323247"><ele>50.0</ele><time>2026-03-25T09:21:37Z</time></trkpt><trkpt lat="44.69395710727352" lon="10.654651169045838"><ele>50.0</ele><time>2026-03-25T09:21:38Z</time></trkpt><trkpt lat="44.69385788010451" lon="10.6549529161465"><ele>49.0</ele><time>2026-03-25T09:21:39Z</time></trkpt><trkpt lat="44.69375065824103" lon="10.655278712779573"><ele>48.0</ele><time>2026-03-25T09:21:40Z</time></trkpt><trkpt lat="44.69365429744253" lon="10.65559518759485"><ele>48.0</ele><time>2026-03-25T09:21:41Z</time></trkpt><trkpt lat="44.693554057716995" lon="10.655906144912928"><ele>48.0</ele><time>2026-03-25T09:21:42Z</time></trkpt><trkpt lat="44.69344880451473" lon="10.656228207821318"><ele>47.5</ele><time>2026-03-25T09:21:43Z</time></trkpt><trkpt lat="44.6933430812253" lon="10.656553201097744"><ele>47.0</ele><time>2026-03-25T09:21:44Z</time></trkpt><trkpt lat="44.69323582646013" lon="10.656921686973925"><ele>46.5</ele><time>2026-03-25T09:21:45Z</time></trkpt><trkpt lat="44.69313297236134" lon="10.657270705370662"><ele>46.0</ele><time>2026-03-25T09:21:46Z</time></trkpt><trkpt lat="44.693020675174786" lon="10.657622043657918"><ele>46.5</ele><time>2026-03-25T09:21:47Z</time></trkpt><trkpt lat="44.69292112178198" lon="10.657960150962369"><ele>47.0</ele><time>2026-03-25T09:21:48Z</time></trkpt><trkpt lat="44.69280368682566" lon="10.658315087668305"><ele>48.0</ele><time>2026-03-25T09:21:49Z</time></trkpt><trkpt lat="44.69268702284253" lon="10.65865646874031"><ele>49.0</ele><time>2026-03-25T09:21:50Z</time></trkpt><trkpt lat="44.69257659803449" lon="10.659000893582304"><ele>49.0</ele><time>2026-03-25T09:21:51Z</time></trkpt><trkpt lat="44.6924541789185" lon="10.659343017991494"><ele>49.0</ele><time>2026-03-25T09:21:52Z</time></trkpt><trkpt lat="44.69233375669178" lon="10.65968059036841"><ele>48.5</ele><time>2026-03-25T09:21:53Z</time></trkpt><trkpt lat="44.69222101201505" lon="10.66004077412545"><ele>48.0</ele><time>2026-03-25T09:21:54Z</time></trkpt><trkpt lat="44.69210425349844" lon="10.66040470392418"><ele>47.5</ele><time>2026-03-25T09:21:54.999Z</time></trkpt><trkpt lat="44.69198737887503" lon="10.66077114725361"><ele>47.0</ele><time>2026-03-25T09:21:55.999Z</time></trkpt><trkpt lat="44.69187546637827" lon="10.661127799590979"><ele>47.0</ele><time>2026-03-25T09:21:56.999Z</time></trkpt><trkpt lat="44.691749037234516" lon="10.661487408662538"><ele>47.0</ele><time>2026-03-25T09:21:57.999Z</time></trkpt><trkpt lat="44.691613957295594" lon="10.661867096788491"><ele>46.0</ele><time>2026-03-25T09:21:58.999Z</time></trkpt><trkpt lat="44.69148365928166" lon="10.662253617896488"><ele>45.0</ele><time>2026-03-25T09:21:59.999Z</time></trkpt><trkpt lat="44.69134923404076" lon="10.66263889588747"><ele>45.0</ele><time>2026-03-25T09:22:00.999Z</time></trkpt><trkpt lat="44.6912146283012" lon="10.663020331451497"><ele>45.0</ele><time>2026-03-25T09:22:01.999Z</time></trkpt><trkpt lat="44.69107589016269" lon="10.663405505831994"><ele>45.5</ele><time>2026-03-25T09:22:02.999Z</time></trkpt><trkpt lat="44.69093593433837" lon="10.663797217793038"><ele>46.0</ele><time>2026-03-25T09:22:03.999Z</time></trkpt><trkpt lat="44.690793216383284" lon="10.664182562952684"><ele>46.0</ele><time>2026-03-25T09:22:04.999Z</time></trkpt><trkpt lat="44.690638753211054" lon="10.664578562685398"><ele>46.0</ele><time>2026-03-25T09:22:05.999Z</time></trkpt><trkpt lat="44.690484352679896" lon="10.66497196949301"><ele>46.5</ele><time>2026-03-25T09:22:06.999Z</time></trkpt><trkpt lat="44.69032612162145" lon="10.665365001420016"><ele>47.0</ele><time>2026-03-25T09:22:08Z</time></trkpt><trkpt lat="44.690166365674216" lon="10.66575600426785"><ele>46.5</ele><time>2026-03-25T09:22:09Z</time></trkpt><trkpt lat="44.68999977471035" lon="10.666152313200564"><ele>46.0</ele><time>2026-03-25T09:22:10Z</time></trkpt><trkpt lat="44.68983553888641" lon="10.666537772059765"><ele>46.0</ele><time>2026-03-25T09:22:11Z</time></trkpt><trkpt lat="44.689665354780985" lon="10.66692799058562"><ele>46.0</ele><time>2026-03-25T09:22:12Z</time></trkpt><trkpt lat="44.68949681734552" lon="10.667313667454186"><ele>45.5</ele><time>2026-03-25T09:22:13Z</time></trkpt><trkpt lat="44.68933649700783" lon="10.66770524982121"><ele>45.0</ele><time>2026-03-25T09:22:14Z</time></trkpt><trkpt lat="44.68916555232423" lon="10.668097304197897"><ele>46.0</ele><time>2026-03-25T09:22:15Z</time></trkpt><trkpt lat="44.688989969674424" lon="10.668493398999464"><ele>47.0</ele><time>2026-03-25T09:22:16Z</time></trkpt><trkpt lat="44.68880328239489" lon="10.668899544117522"><ele>47.5</ele><time>2026-03-25T09:22:17Z</time></trkpt><trkpt lat="44.688617636357435" lon="10.669302242453064"><ele>48.0</ele><time>2026-03-25T09:22:18Z</time></trkpt><trkpt lat="44.68843039694139" lon="10.669711529152995"><ele>47.0</ele><time>2026-03-25T09:22:19Z</time></trkpt><trkpt lat="44.68824820580026" lon="10.670120244585895"><ele>46.0</ele><time>2026-03-25T09:22:20Z</time></trkpt><trkpt lat="44.68805730124151" lon="10.670542049587533"><ele>46.0</ele><time>2026-03-25T09:22:21Z</time></trkpt><trkpt lat="44.687867062863894" lon="10.670961753288779"><ele>46.0</ele><time>2026-03-25T09:22:22Z</time></trkpt><trkpt lat="44.687669146677955" lon="10.671375731915976"><ele>46.0</ele><time>2026-03-25T09:22:23Z</time></trkpt><trkpt lat="44.68747471791248" lon="10.671785607320727"><ele>46.0</ele><time>2026-03-25T09:22:24Z</time></trkpt><trkpt lat="44.687275021887444" lon="10.672198232903819"><ele>46.5</ele><time>2026-03-25T09:22:25Z</time></trkpt><trkpt lat="44.68707676123773" lon="10.67261641797199"><ele>47.0</ele><time>2026-03-25T09:22:26Z</time></trkpt><trkpt lat="44.686884896856526" lon="10.673023668048678"><ele>47.5</ele><time>2026-03-25T09:22:27Z</time></trkpt><trkpt lat="44.68669778098187" lon="10.673428360132496"><ele>48.0</ele><time>2026-03-25T09:22:28Z</time></trkpt><trkpt lat="44.68650568987106" lon="10.673846889795776"><ele>47.5</ele><time>2026-03-25T09:22:29Z</time></trkpt><trkpt lat="44.68630502575734" lon="10.674265321650111"><ele>47.0</ele><time>2026-03-25T09:22:30Z</time></trkpt><trkpt lat="44.6861083354687" lon="10.67468759107881"><ele>47.5</ele><time>2026-03-25T09:22:31Z</time></trkpt><trkpt lat="44.68590932534425" lon="10.675117029327684"><ele>48.0</ele><time>2026-03-25T09:22:32Z</time></trkpt><trkpt lat="44.68571078158638" lon="10.675544543358116"><ele>48.0</ele><time>2026-03-25T09:22:33Z</time></trkpt><trkpt lat="44.68551284449395" lon="10.675973638393563"><ele>48.0</ele><time>2026-03-25T09:22:34Z</time></trkpt><trkpt lat="44.685315404167156" lon="10.676401298896469"><ele>48.5</ele><time>2026-03-25T09:22:35Z</time></trkpt><trkpt lat="44.68511762336033" lon="10.676829638495471"><ele>49.0</ele><time>2026-03-25T09:22:36Z</time></trkpt><trkpt lat="44.68491652580972" lon="10.677263091947673"><ele>48.0</ele><time>2026-03-25T09:22:37Z</time></trkpt><trkpt lat="44.68471245846225" lon="10.677699752357722"><ele>47.0</ele><time>2026-03-25T09:22:38Z</time></trkpt><trkpt lat="44.68450878213727" lon="10.678138527413594"><ele>47.0</ele><time>2026-03-25T09:22:39Z</time></trkpt><trkpt lat="44.684303309544376" lon="10.6785783450614"><ele>47.0</ele><time>2026-03-25T09:22:40Z</time></trkpt><trkpt lat="44.68409980006092" lon="10.679017393767666"><ele>47.5</ele><time>2026-03-25T09:22:41Z</time></trkpt><trkpt lat="44.68389470032031" lon="10.67945998972513"><ele>48.0</ele><time>2026-03-25T09:22:42Z</time></trkpt><trkpt lat="44.683689270065265" lon="10.679902729324949"><ele>48.0</ele><time>2026-03-25T09:22:43Z</time></trkpt><trkpt lat="44.68348201528742" lon="10.680348880328363"><ele>48.0</ele><time>2026-03-25T09:22:44Z</time></trkpt><trkpt lat="44.6832747863528" lon="10.680795172088773"><ele>48.5</ele><time>2026-03-25T09:22:45Z</time></trkpt><trkpt lat="44.68306791905122" lon="10.681241363773847"><ele>49.0</ele><time>2026-03-25T09:22:46Z</time></trkpt><trkpt lat="44.682861677658956" lon="10.68169521636572"><ele>49.0</ele><time>2026-03-25T09:22:47Z</time></trkpt><trkpt lat="44.682661069162634" lon="10.682155032652203"><ele>49.0</ele><time>2026-03-25T09:22:48Z</time></trkpt><trkpt lat="44.68246175722012" lon="10.682618700182362"><ele>49.0</ele><time>2026-03-25T09:22:49Z</time></trkpt><trkpt lat="44.68227271192364" lon="10.683086470475475"><ele>49.0</ele><time>2026-03-25T09:22:50Z</time></trkpt><trkpt lat="44.682089327473534" lon="10.68355636414778"><ele>49.5</ele><time>2026-03-25T09:22:51Z</time></trkpt><trkpt lat="44.68191088957377" lon="10.684024868338572"><ele>50.0</ele><time>2026-03-25T09:22:52Z</time></trkpt><trkpt lat="44.681730574907995" lon="10.684498513611228"><ele>50.0</ele><time>2026-03-25T09:22:53Z</time></trkpt><trkpt lat="44.68156016785724" lon="10.68496807703689"><ele>50.0</ele><time>2026-03-25T09:22:54Z</time></trkpt><trkpt lat="44.6813933538991" lon="10.685450704095325"><ele>50.5</ele><time>2026-03-25T09:22:55Z</time></trkpt><trkpt lat="44.68121857785783" lon="10.685949233600152"><ele>51.0</ele><time>2026-03-25T09:22:56Z</time></trkpt><trkpt lat="44.68103813212653" lon="10.686425784112627"><ele>51.0</ele><time>2026-03-25T09:22:57Z</time></trkpt><trkpt lat="44.68086511611625" lon="10.686918895005213"><ele>51.0</ele><time>2026-03-25T09:22:58Z</time></trkpt><trkpt lat="44.680694701368765" lon="10.68740788141978"><ele>51.5</ele><time>2026-03-25T09:22:59Z</time></trkpt><trkpt lat="44.68051254562562" lon="10.687901629201843"><ele>52.0</ele><time>2026-03-25T09:23:00Z</time></trkpt><trkpt lat="44.680330858542504" lon="10.688391015306454"><ele>52.5</ele><time>2026-03-25T09:23:01Z</time></trkpt><trkpt lat="44.680142903882945" lon="10.688879639472743"><ele>53.0</ele><time>2026-03-25T09:23:02Z</time></trkpt><trkpt lat="44.679972056307086" lon="10.689346462158243"><ele>52.5</ele><time>2026-03-25T09:23:03Z</time></trkpt><trkpt lat="44.67981123330607" lon="10.68981957889764"><ele>52.0</ele><time>2026-03-25T09:23:04Z</time></trkpt><trkpt lat="44.67966031682211" lon="10.690299690070649"><ele>52.0</ele><time>2026-03-25T09:23:05Z</time></trkpt><trkpt lat="44.67949060382091" lon="10.690792916078303"><ele>52.0</ele><time>2026-03-25T09:23:06Z</time></trkpt><trkpt lat="44.679318059876465" lon="10.691276048573076"><ele>52.5</ele><time>2026-03-25T09:23:07Z</time></trkpt><trkpt lat="44.67916174748459" lon="10.691756403626183"><ele>53.0</ele><time>2026-03-25T09:23:08Z</time></trkpt><trkpt lat="44.678999580173105" lon="10.69223263384993"><ele>53.0</ele><time>2026-03-25T09:23:09Z</time></trkpt><trkpt lat="44.67887126480016" lon="10.692735388364651"><ele>53.0</ele><time>2026-03-25T09:23:10Z</time></trkpt><trkpt lat="44.678725087539036" lon="10.693238868930973"><ele>52.0</ele><time>2026-03-25T09:23:11Z</time></trkpt><trkpt lat="44.67857493571716" lon="10.69374216973012"><ele>51.0</ele><time>2026-03-25T09:23:12Z</time></trkpt><trkpt lat="44.678443417574854" lon="10.694240247684418"><ele>52.0</ele><time>2026-03-25T09:23:13Z</time></trkpt><trkpt lat="44.67829722060203" lon="10.694740621912205"><ele>53.0</ele><time>2026-03-25T09:23:14Z</time></trkpt><trkpt lat="44.678142698863695" lon="10.69523515448237"><ele>53.5</ele><time>2026-03-25T09:23:15Z</time></trkpt><trkpt lat="44.67798799083197" lon="10.695734681355626"><ele>54.0</ele><time>2026-03-25T09:23:16Z</time></trkpt><trkpt lat="44.677835470722954" lon="10.69623426786385"><ele>53.5</ele><time>2026-03-25T09:23:17Z</time></trkpt><trkpt lat="44.67768808901553" lon="10.69672986459642"><ele>53.0</ele><time>2026-03-25T09:23:18Z</time></trkpt><trkpt lat="44.67752782991847" lon="10.69721977238134"><ele>53.0</ele><time>2026-03-25T09:23:19Z</time></trkpt><trkpt lat="44.67737292842778" lon="10.697728352475938"><ele>53.0</ele><time>2026-03-25T09:23:20Z</time></trkpt><trkpt lat="44.677210499938745" lon="10.698226871066984"><ele>53.0</ele><time>2026-03-25T09:23:21Z</time></trkpt><trkpt lat="44.677052787397784" lon="10.698713170282318"><ele>53.0</ele><time>2026-03-25T09:23:22Z</time></trkpt><trkpt lat="44.676889030948004" lon="10.699206706402435"><ele>53.0</ele><time>2026-03-25T09:23:23Z</time></trkpt><trkpt lat="44.67672419910178" lon="10.699717953040363"><ele>53.0</ele><time>2026-03-25T09:23:24Z</time></trkpt><trkpt lat="44.67656622409528" lon="10.700223166293902"><ele>53.0</ele><time>2026-03-25T09:23:25Z</time></trkpt><trkpt lat="44.67640641031724" lon="10.700731083802896"><ele>53.0</ele><time>2026-03-25T09:23:26Z</time></trkpt><trkpt lat="44.67624092530702" lon="10.701238651621468"><ele>53.0</ele><time>2026-03-25T09:23:27Z</time></trkpt><trkpt lat="44.676076742407176" lon="10.701751525715258"><ele>53.0</ele><time>2026-03-25T09:23:28Z</time></trkpt><trkpt lat="44.675905468854644" lon="10.70227568797251"><ele>52.5</ele><time>2026-03-25T09:23:29Z</time></trkpt><trkpt lat="44.67574256662503" lon="10.702777950888938"><ele>52.0</ele><time>2026-03-25T09:23:30Z</time></trkpt><trkpt lat="44.675576369842936" lon="10.703290455049865"><ele>52.0</ele><time>2026-03-25T09:23:31Z</time></trkpt><trkpt lat="44.67540398289297" lon="10.703805262005654"><ele>52.0</ele><time>2026-03-25T09:23:32Z</time></trkpt><trkpt lat="44.675242875300555" lon="10.704313280512043"><ele>52.0</ele><time>2026-03-25T09:23:33Z</time></trkpt><trkpt lat="44.6750776635763" lon="10.704825656153709"><ele>52.0</ele><time>2026-03-25T09:23:34Z</time></trkpt><trkpt lat="44.6749183509357" lon="10.70531588070501"><ele>52.5</ele><time>2026-03-25T09:23:35Z</time></trkpt><trkpt lat="44.674752086488695" lon="10.705822529264037"><ele>53.0</ele><time>2026-03-25T09:23:36Z</time></trkpt><trkpt lat="44.674587973601156" lon="10.706327008232703"><ele>53.5</ele><time>2026-03-25T09:23:37Z</time></trkpt><trkpt lat="44.67442135728237" lon="10.70683806192081"><ele>54.0</ele><time>2026-03-25T09:23:38Z</time></trkpt><trkpt lat="44.67425537375463" lon="10.707345449273944"><ele>52.5</ele><time>2026-03-25T09:23:39Z</time></trkpt><trkpt lat="44.674089506926094" lon="10.707852164569578"><ele>51.0</ele><time>2026-03-25T09:23:40Z</time></trkpt><trkpt lat="44.67392316884432" lon="10.708357776309802"><ele>52.0</ele><time>2026-03-25T09:23:41Z</time></trkpt><trkpt lat="44.67376084854649" lon="10.708864123583101"><ele>53.0</ele><time>2026-03-25T09:23:42Z</time></trkpt><trkpt lat="44.6735965278717" lon="10.709370857311367"><ele>53.0</ele><time>2026-03-25T09:23:43Z</time></trkpt><trkpt lat="44.67342982079497" lon="10.70987758874243"><ele>53.0</ele><time>2026-03-25T09:23:44Z</time></trkpt><trkpt lat="44.6732661454007" lon="10.710383011198703"><ele>53.0</ele><time>2026-03-25T09:23:45Z</time></trkpt><trkpt lat="44.673099666453915" lon="10.710896430511657"><ele>53.0</ele><time>2026-03-25T09:23:46Z</time></trkpt><trkpt lat="44.67293556044388" lon="10.711405408350476"><ele>53.5</ele><time>2026-03-25T09:23:47Z</time></trkpt><trkpt lat="44.67276758743485" lon="10.711916926728097"><ele>54.0</ele><time>2026-03-25T09:23:48Z</time></trkpt><trkpt lat="44.67260128375254" lon="10.712424641353188"><ele>54.5</ele><time>2026-03-25T09:23:49Z</time></trkpt><trkpt lat="44.67243779480941" lon="10.71293187473346"><ele>55.0</ele><time>2026-03-25T09:23:50Z</time></trkpt><trkpt lat="44.67227298328884" lon="10.713441146880553"><ele>55.5</ele><time>2026-03-25T09:23:51Z</time></trkpt><trkpt lat="44.67210659616929" lon="10.713955778576535"><ele>56.0</ele><time>2026-03-25T09:23:52Z</time></trkpt><trkpt lat="44.67193912740446" lon="10.71446438248463"><ele>56.5</ele><time>2026-03-25T09:23:53Z</time></trkpt><trkpt lat="44.671773760341736" lon="10.714975082896707"><ele>57.0</ele><time>2026-03-25T09:23:54Z</time></trkpt><trkpt lat="44.6716044801009" lon="10.715488823192379"><ele>55.5</ele><time>2026-03-25T09:23:55Z</time></trkpt><trkpt lat="44.671435790768875" lon="10.716003968622053"><ele>54.0</ele><time>2026-03-25T09:23:56Z</time></trkpt><trkpt lat="44.67126643357516" lon="10.716521225985515"><ele>54.0</ele><time>2026-03-25T09:23:57Z</time></trkpt><trkpt lat="44.671097753432015" lon="10.71703351460791"><ele>54.0</ele><time>2026-03-25T09:23:58Z</time></trkpt><trkpt lat="44.67093143754613" lon="10.71754346287104"><ele>53.5</ele><time>2026-03-25T09:23:59Z</time></trkpt><trkpt lat="44.67076739018074" lon="10.718045004502041"><ele>53.0</ele><time>2026-03-25T09:24:00Z</time></trkpt><trkpt lat="44.670603984425114" lon="10.718549348021185"><ele>52.5</ele><time>2026-03-25T09:24:00.999Z</time></trkpt><trkpt lat="44.67044183118823" lon="10.719054249909"><ele>52.0</ele><time>2026-03-25T09:24:01.999Z</time></trkpt><trkpt lat="44.67027750411673" lon="10.719564810957753"><ele>52.0</ele><time>2026-03-25T09:24:02.999Z</time></trkpt><trkpt lat="44.67011607289365" lon="10.720066860693697"><ele>52.0</ele><time>2026-03-25T09:24:03.999Z</time></trkpt><trkpt lat="44.66995362568624" lon="10.720571282236303"><ele>51.5</ele><time>2026-03-25T09:24:04.999Z</time></trkpt><trkpt lat="44.669788435321706" lon="10.721086598903142"><ele>51.0</ele><time>2026-03-25T09:24:05.999Z</time></trkpt><trkpt lat="44.66961570030546" lon="10.721610683127595"><ele>51.0</ele><time>2026-03-25T09:24:06.999Z</time></trkpt><trkpt lat="44.66944801185057" lon="10.722127733604701"><ele>51.0</ele><time>2026-03-25T09:24:07.999Z</time></trkpt><trkpt lat="44.66928641922433" lon="10.72264001430686"><ele>51.5</ele><time>2026-03-25T09:24:08.999Z</time></trkpt><trkpt lat="44.66911854369354" lon="10.723155519664756"><ele>52.0</ele><time>2026-03-25T09:24:09.999Z</time></trkpt><trkpt lat="44.66895451367238" lon="10.723667851676074"><ele>52.0</ele><time>2026-03-25T09:24:10.999Z</time></trkpt><trkpt lat="44.66878789584383" lon="10.724175325620783"><ele>52.0</ele><time>2026-03-25T09:24:11.999Z</time></trkpt><trkpt lat="44.66862106124" lon="10.724687037074917"><ele>52.0</ele><time>2026-03-25T09:24:12.999Z</time></trkpt><trkpt lat="44.668450570315045" lon="10.725200346560298"><ele>52.0</ele><time>2026-03-25T09:24:13.999Z</time></trkpt><trkpt lat="44.668285288561144" lon="10.725705840818339"><ele>51.0</ele><time>2026-03-25T09:24:14.999Z</time></trkpt><trkpt lat="44.668112906735715" lon="10.726202827053376"><ele>50.0</ele><time>2026-03-25T09:24:15.999Z</time></trkpt><trkpt lat="44.66795299893046" lon="10.726702454417534"><ele>49.0</ele><time>2026-03-25T09:24:16.999Z</time></trkpt><trkpt lat="44.66779760648427" lon="10.727200415851977"><ele>48.0</ele><time>2026-03-25T09:24:17.999Z</time></trkpt><trkpt lat="44.66763620938346" lon="10.727708008825367"><ele>49.0</ele><time>2026-03-25T09:24:19Z</time></trkpt><trkpt lat="44.66747532365046" lon="10.728207758632454"><ele>50.0</ele><time>2026-03-25T09:24:20Z</time></trkpt><trkpt lat="44.66731225822639" lon="10.728711967851599"><ele>50.0</ele><time>2026-03-25T09:24:21Z</time></trkpt><trkpt lat="44.66714940360225" lon="10.729215120401673"><ele>50.0</ele><time>2026-03-25T09:24:22Z</time></trkpt><trkpt lat="44.66698431176153" lon="10.729720738213617"><ele>51.0</ele><time>2026-03-25T09:24:23Z</time></trkpt><trkpt lat="44.66682187827716" lon="10.730224701004706"><ele>52.0</ele><time>2026-03-25T09:24:24Z</time></trkpt><trkpt lat="44.66666174955666" lon="10.730733003579642"><ele>51.0</ele><time>2026-03-25T09:24:25Z</time></trkpt><trkpt lat="44.666505830545866" lon="10.731245315326037"><ele>50.0</ele><time>2026-03-25T09:24:26Z</time></trkpt><trkpt lat="44.66636797949016" lon="10.731764605430824"><ele>49.5</ele><time>2026-03-25T09:24:27Z</time></trkpt><trkpt lat="44.66623301236564" lon="10.732281292378275"><ele>49.0</ele><time>2026-03-25T09:24:28Z</time></trkpt><trkpt lat="44.66610376733262" lon="10.73279732351213"><ele>49.5</ele><time>2026-03-25T09:24:29Z</time></trkpt><trkpt lat="44.665972618191155" lon="10.733317787600257"><ele>50.0</ele><time>2026-03-25T09:24:30Z</time></trkpt><trkpt lat="44.66584029304995" lon="10.73383986677914"><ele>50.0</ele><time>2026-03-25T09:24:31Z</time></trkpt><trkpt lat="44.66570658623195" lon="10.734362505991843"><ele>50.0</ele><time>2026-03-25T09:24:32Z</time></trkpt><trkpt lat="44.66557351047515" lon="10.734887208622204"><ele>50.0</ele><time>2026-03-25T09:24:33Z</time></trkpt><trkpt lat="44.665441538211" lon="10.73540876450475"><ele>50.0</ele><time>2026-03-25T09:24:34Z</time></trkpt><trkpt lat="44.66530976033817" lon="10.735929860877858"><ele>50.0</ele><time>2026-03-25T09:24:35Z</time></trkpt><trkpt lat="44.66517635909959" lon="10.736454399583865"><ele>50.0</ele><time>2026-03-25T09:24:36Z</time></trkpt><trkpt lat="44.66504323748839" lon="10.73697841035376"><ele>50.0</ele><time>2026-03-25T09:24:36.999Z</time></trkpt><trkpt lat="44.664908196136594" lon="10.737504854390467"><ele>50.0</ele><time>2026-03-25T09:24:37.999Z</time></trkpt><trkpt lat="44.66477562902522" lon="10.738027208515353"><ele>49.5</ele><time>2026-03-25T09:24:38.999Z</time></trkpt><trkpt lat="44.66464472834905" lon="10.738549894295707"><ele>49.0</ele><time>2026-03-25T09:24:39.999Z</time></trkpt><trkpt lat="44.66451310986237" lon="10.739071502773477"><ele>49.5</ele><time>2026-03-25T09:24:40.999Z</time></trkpt><trkpt lat="44.66438196572774" lon="10.73959000000708"><ele>50.0</ele><time>2026-03-25T09:24:41.999Z</time></trkpt><trkpt lat="44.6642496939984" lon="10.74010973136941"><ele>49.5</ele><time>2026-03-25T09:24:42.999Z</time></trkpt><trkpt lat="44.664117762440384" lon="10.740627962862048"><ele>49.0</ele><time>2026-03-25T09:24:43.999Z</time></trkpt><trkpt lat="44.66398592795202" lon="10.74114621739691"><ele>49.0</ele><time>2026-03-25T09:24:44.999Z</time></trkpt><trkpt lat="44.663854471317535" lon="10.741664743742472"><ele>49.0</ele><time>2026-03-25T09:24:45.999Z</time></trkpt><trkpt lat="44.66372429816633" lon="10.742180974774334"><ele>49.0</ele><time>2026-03-25T09:24:46.999Z</time></trkpt><trkpt lat="44.6635926237174" lon="10.742696396835056"><ele>49.0</ele><time>2026-03-25T09:24:47.999Z</time></trkpt><trkpt lat="44.663462430293634" lon="10.743210771439989"><ele>49.0</ele><time>2026-03-25T09:24:48.999Z</time></trkpt><trkpt lat="44.66333238814727" lon="10.743724523464948"><ele>49.0</ele><time>2026-03-25T09:24:49.999Z</time></trkpt><trkpt lat="44.6632017213152" lon="10.744236786387377"><ele>49.0</ele><time>2026-03-25T09:24:50.999Z</time></trkpt><trkpt lat="44.6630714037011" lon="10.744749056365952"><ele>49.0</ele><time>2026-03-25T09:24:51.999Z</time></trkpt><trkpt lat="44.662940038754975" lon="10.745259587121453"><ele>48.5</ele><time>2026-03-25T09:24:52.999Z</time></trkpt><trkpt lat="44.66281239344711" lon="10.74576797616583"><ele>48.0</ele><time>2026-03-25T09:24:53.999Z</time></trkpt><trkpt lat="44.66268279899298" lon="10.746274380998031"><ele>48.0</ele><time>2026-03-25T09:24:54.999Z</time></trkpt><trkpt lat="44.66255668223763" lon="10.746773770510416"><ele>48.0</ele><time>2026-03-25T09:24:55.999Z</time></trkpt><trkpt lat="44.662428802078935" lon="10.747276929597238"><ele>48.5</ele><time>2026-03-25T09:24:56.999Z</time></trkpt><trkpt lat="44.66230108541491" lon="10.747778124692873"><ele>49.0</ele><time>2026-03-25T09:24:57.999Z</time></trkpt><trkpt lat="44.66217856964564" lon="10.748276883755572"><ele>49.0</ele><time>2026-03-25T09:24:58.999Z</time></trkpt><trkpt lat="44.66204780824927" lon="10.748761199666285"><ele>49.0</ele><time>2026-03-25T09:24:59.999Z</time></trkpt><trkpt lat="44.66192505295943" lon="10.749254259521113"><ele>48.5</ele><time>2026-03-25T09:25:00.999Z</time></trkpt><trkpt lat="44.66179945371598" lon="10.749738500870212"><ele>48.0</ele><time>2026-03-25T09:25:01.999Z</time></trkpt><trkpt lat="44.66167814313855" lon="10.750216604718938"><ele>47.5</ele><time>2026-03-25T09:25:02.999Z</time></trkpt><trkpt lat="44.66155849764963" lon="10.750690633707428"><ele>47.0</ele><time>2026-03-25T09:25:03.999Z</time></trkpt><trkpt lat="44.66144012959163" lon="10.751157012951532"><ele>47.0</ele><time>2026-03-25T09:25:04.999Z</time></trkpt><trkpt lat="44.66132441477531" lon="10.751623070921747"><ele>47.0</ele><time>2026-03-25T09:25:05.999Z</time></trkpt><trkpt lat="44.66120830005517" lon="10.752082958501585"><ele>47.0</ele><time>2026-03-25T09:25:06.999Z</time></trkpt><trkpt lat="44.66109213482654" lon="10.752542153076401"><ele>47.0</ele><time>2026-03-25T09:25:07.999Z</time></trkpt><trkpt lat="44.66098038639516" lon="10.75299705732687"><ele>47.0</ele><time>2026-03-25T09:25:08.999Z</time></trkpt><trkpt lat="44.660873558203086" lon="10.753452385334775"><ele>47.0</ele><time>2026-03-25T09:25:09.999Z</time></trkpt><trkpt lat="44.66077208951417" lon="10.753907499217933"><ele>47.0</ele><time>2026-03-25T09:25:10.999Z</time></trkpt><trkpt lat="44.66067459324586" lon="10.754364606457559"><ele>47.0</ele><time>2026-03-25T09:25:11.999Z</time></trkpt><trkpt lat="44.66058509014919" lon="10.754815657343054"><ele>46.5</ele><time>2026-03-25T09:25:12.999Z</time></trkpt><trkpt lat="44.66050005353077" lon="10.755271205546471"><ele>46.0</ele><time>2026-03-25T09:25:13.999Z</time></trkpt><trkpt lat="44.660419605574006" lon="10.755728403340813"><ele>46.0</ele><time>2026-03-25T09:25:14.999Z</time></trkpt><trkpt lat="44.66034275291222" lon="10.756178097776216"><ele>46.0</ele><time>2026-03-25T09:25:15.999Z</time></trkpt><trkpt lat="44.660265732311224" lon="10.756625821612582"><ele>45.5</ele><time>2026-03-25T09:25:16.999Z</time></trkpt><trkpt lat="44.66018774089203" lon="10.757071431917154"><ele>45.0</ele><time>2026-03-25T09:25:17.999Z</time></trkpt><trkpt lat="44.66011155869525" lon="10.757514476762259"><ele>46.5</ele><time>2026-03-25T09:25:18.999Z</time></trkpt><trkpt lat="44.66003380894716" lon="10.757958135342259"><ele>48.0</ele><time>2026-03-25T09:25:19.999Z</time></trkpt><trkpt lat="44.65995781689373" lon="10.758395333952178"><ele>48.5</ele><time>2026-03-25T09:25:20.999Z</time></trkpt><trkpt lat="44.65988097004584" lon="10.758833303775603"><ele>49.0</ele><time>2026-03-25T09:25:21.999Z</time></trkpt><trkpt lat="44.659806215117406" lon="10.759265426016956"><ele>48.5</ele><time>2026-03-25T09:25:22.999Z</time></trkpt><trkpt lat="44.6597321843248" lon="10.759693661760682"><ele>48.0</ele><time>2026-03-25T09:25:23.999Z</time></trkpt><trkpt lat="44.65965779212216" lon="10.760120950408142"><ele>46.5</ele><time>2026-03-25T09:25:24.999Z</time></trkpt><trkpt lat="44.65958412802369" lon="10.760544064891599"><ele>45.0</ele><time>2026-03-25T09:25:25.999Z</time></trkpt><trkpt lat="44.6595114956808" lon="10.760964101484316"><ele>45.5</ele><time>2026-03-25T09:25:26.999Z</time></trkpt><trkpt lat="44.65943843844042" lon="10.761386596609379"><ele>46.0</ele><time>2026-03-25T09:25:27.999Z</time></trkpt><trkpt lat="44.65936555222131" lon="10.761806268331116"><ele>46.5</ele><time>2026-03-25T09:25:28.999Z</time></trkpt><trkpt lat="44.65929368836278" lon="10.76222119818468"><ele>47.0</ele><time>2026-03-25T09:25:29.999Z</time></trkpt><trkpt lat="44.65922307673125" lon="10.762631172825612"><ele>46.5</ele><time>2026-03-25T09:25:30.999Z</time></trkpt><trkpt lat="44.65915304190197" lon="10.763038365300808"><ele>46.0</ele><time>2026-03-25T09:25:31.999Z</time></trkpt><trkpt lat="44.65908392746043" lon="10.763443190524423"><ele>47.0</ele><time>2026-03-25T09:25:32.999Z</time></trkpt><trkpt lat="44.65901575384619" lon="10.763843431507723"><ele>48.0</ele><time>2026-03-25T09:25:33.999Z</time></trkpt><trkpt lat="44.6589471615326" lon="10.764241948494497"><ele>49.0</ele><time>2026-03-25T09:25:34.999Z</time></trkpt><trkpt lat="44.65887860024545" lon="10.764639329489064"><ele>50.0</ele><time>2026-03-25T09:25:35.999Z</time></trkpt><trkpt lat="44.65881106760661" lon="10.765031168411591"><ele>50.0</ele><time>2026-03-25T09:25:36.999Z</time></trkpt><trkpt lat="44.65874396247894" lon="10.765418300323317"><ele>50.0</ele><time>2026-03-25T09:25:37.999Z</time></trkpt><trkpt lat="44.658677646047416" lon="10.765799210860326"><ele>49.0</ele><time>2026-03-25T09:25:38.999Z</time></trkpt><trkpt lat="44.65861213712447" lon="10.766175143704585"><ele>48.0</ele><time>2026-03-25T09:25:39.999Z</time></trkpt><trkpt lat="44.65854781853796" lon="10.766549745383733"><ele>48.5</ele><time>2026-03-25T09:25:40.999Z</time></trkpt><trkpt lat="44.658483353231276" lon="10.766920872600018"><ele>49.0</ele><time>2026-03-25T09:25:41.999Z</time></trkpt><trkpt lat="44.65842001930171" lon="10.767292186508548"><ele>49.0</ele><time>2026-03-25T09:25:42.999Z</time></trkpt><trkpt lat="44.658356252603575" lon="10.767659402456058"><ele>49.0</ele><time>2026-03-25T09:25:43.999Z</time></trkpt><trkpt lat="44.65829444446108" lon="10.768018935307193"><ele>49.0</ele><time>2026-03-25T09:25:44.999Z</time></trkpt><trkpt lat="44.6582323768837" lon="10.76837823326618"><ele>49.0</ele><time>2026-03-25T09:25:45.999Z</time></trkpt><trkpt lat="44.658164314457714" lon="10.768738758348906"><ele>49.0</ele><time>2026-03-25T09:25:46.999Z</time></trkpt><trkpt lat="44.658100347799234" lon="10.769087395719747"><ele>49.0</ele><time>2026-03-25T09:25:47.999Z</time></trkpt><trkpt lat="44.658044610773594" lon="10.769428445988899"><ele>49.5</ele><time>2026-03-25T09:25:48.999Z</time></trkpt><trkpt lat="44.65798168787538" lon="10.76979041618354"><ele>50.0</ele><time>2026-03-25T09:25:49.999Z</time></trkpt><trkpt lat="44.65792391933374" lon="10.770118078984687"><ele>49.0</ele><time>2026-03-25T09:25:50.999Z</time></trkpt><trkpt lat="44.657874930992904" lon="10.770434491437676"><ele>48.0</ele><time>2026-03-25T09:25:51.999Z</time></trkpt><trkpt lat="44.657817897807185" lon="10.770759907429396"><ele>48.5</ele><time>2026-03-25T09:25:52.999Z</time></trkpt><trkpt lat="44.657756070451136" lon="10.771097589244068"><ele>49.0</ele><time>2026-03-25T09:25:53.999Z</time></trkpt><trkpt lat="44.657694930925985" lon="10.771422312395963"><ele>49.0</ele><time>2026-03-25T09:25:54.999Z</time></trkpt><trkpt lat="44.65763757310714" lon="10.771734151391085"><ele>49.0</ele><time>2026-03-25T09:25:55.999Z</time></trkpt><trkpt lat="44.65758201518905" lon="10.77203790223673"><ele>49.0</ele><time>2026-03-25T09:25:56.999Z</time></trkpt><trkpt lat="44.657526327392894" lon="10.77233898202544"><ele>49.0</ele><time>2026-03-25T09:25:57.999Z</time></trkpt><trkpt lat="44.657473271526634" lon="10.772644256217571"><ele>49.0</ele><time>2026-03-25T09:25:58.999Z</time></trkpt><trkpt lat="44.6574179466429" lon="10.772945230437262"><ele>49.0</ele><time>2026-03-25T09:25:59.999Z</time></trkpt><trkpt lat="44.657361519833" lon="10.773233283223236"><ele>49.0</ele><time>2026-03-25T09:26:00.999Z</time></trkpt><trkpt lat="44.6573180942258" lon="10.773499117876383"><ele>49.0</ele><time>2026-03-25T09:26:01.999Z</time></trkpt><trkpt lat="44.657276187723745" lon="10.773791029354802"><ele>49.0</ele><time>2026-03-25T09:26:02.999Z</time></trkpt><trkpt lat="44.65722573278958" lon="10.774039142689533"><ele>49.0</ele><time>2026-03-25T09:26:03.999Z</time></trkpt><trkpt lat="44.65718453980295" lon="10.774318351510235"><ele>49.0</ele><time>2026-03-25T09:26:04.999Z</time></trkpt><trkpt lat="44.657137581295636" lon="10.774596664726372"><ele>49.33333333333333</ele><time>2026-03-25T09:26:05.999Z</time></trkpt><trkpt lat="44.657078840759546" lon="10.77488290167284"><ele>49.66666666666667</ele><time>2026-03-25T09:26:06.999Z</time></trkpt><trkpt lat="44.657031208629256" lon="10.775154429349675"><ele>50.0</ele><time>2026-03-25T09:26:07.999Z</time></trkpt><trkpt lat="44.65698384705674" lon="10.775422402173335"><ele>50.0</ele><time>2026-03-25T09:26:08.999Z</time></trkpt><trkpt lat="44.65694366576801" lon="10.77567750905425"><ele>50.0</ele><time>2026-03-25T09:26:09.999Z</time></trkpt><trkpt lat="44.65690424222632" lon="10.77593277949123"><ele>50.0</ele><time>2026-03-25T09:26:10.999Z</time></trkpt><trkpt lat="44.65687159000024" lon="10.776186278539772"><ele>50.0</ele><time>2026-03-25T09:26:11.999Z</time></trkpt><trkpt lat="44.656842782990644" lon="10.776421955679185"><ele>50.0</ele><time>2026-03-25T09:26:12.999Z</time></trkpt><trkpt lat="44.656798166575655" lon="10.776641067897856"><ele>50.0</ele><time>2026-03-25T09:26:13.999Z</time></trkpt><trkpt lat="44.656776124981945" lon="10.776834891192605"><ele>50.333333333333336</ele><time>2026-03-25T09:26:14.999Z</time></trkpt><trkpt lat="44.65674968242392" lon="10.777059190094345"><ele>50.66666666666667</ele><time>2026-03-25T09:26:15.999Z</time></trkpt><trkpt lat="44.65673667838432" lon="10.777264739802458"><ele>51.0</ele><time>2026-03-25T09:26:16.999Z</time></trkpt><trkpt lat="44.65672064059166" lon="10.77746864395471"><ele>51.0</ele><time>2026-03-25T09:26:17.999Z</time></trkpt><trkpt lat="44.65670108997834" lon="10.777659536089727"><ele>51.0</ele><time>2026-03-25T09:26:18.999Z</time></trkpt><trkpt lat="44.65669144707627" lon="10.777791862983626"><ele>51.0</ele><time>2026-03-25T09:26:19.999Z</time></trkpt><trkpt lat="44.65668452113822" lon="10.777940832331886"><ele>51.0</ele><time>2026-03-25T09:26:20.999Z</time></trkpt><trkpt lat="44.65666864414914" lon="10.77812168053596"><ele>51.0</ele><time>2026-03-25T09:26:21.999Z</time></trkpt><trkpt lat="44.656652491420175" lon="10.778312100012323"><ele>51.0</ele><time>2026-03-25T09:26:22.999Z</time></trkpt><trkpt lat="44.65660807718165" lon="10.77850449192041"><ele>51.0</ele><time>2026-03-25T09:26:23.999Z</time></trkpt><trkpt lat="44.65659026328077" lon="10.77871699160496"><ele>51.0</ele><time>2026-03-25T09:26:24.999Z</time></trkpt><trkpt lat="44.65655241468667" lon="10.778858848452698"><ele>51.0</ele><time>2026-03-25T09:26:25.999Z</time></trkpt><trkpt lat="44.65654516923429" lon="10.779042419436674"><ele>51.0</ele><time>2026-03-25T09:26:27.999Z</time></trkpt><trkpt lat="44.656561638903646" lon="10.77913422710437"><ele>51.0</ele><time>2026-03-25T09:26:28.999Z</time></trkpt><trkpt lat="44.65654488705411" lon="10.77925990451064"><ele>51.0</ele><time>2026-03-25T09:26:29.999Z</time></trkpt><trkpt lat="44.65651991954624" lon="10.779385083255011"><ele>51.0</ele><time>2026-03-25T09:26:30.999Z</time></trkpt><trkpt lat="44.65650018617098" lon="10.779520875580646"><ele>51.199999999999996</ele><time>2026-03-25T09:26:31.999Z</time></trkpt><trkpt lat="44.65646775233385" lon="10.779640356835818"><ele>51.4</ele><time>2026-03-25T09:26:32.999Z</time></trkpt><trkpt lat="44.656421289331924" lon="10.779779785637915"><ele>51.6</ele><time>2026-03-25T09:26:34.999Z</time></trkpt><trkpt lat="44.6563971551767" lon="10.779882313814142"><ele>51.8</ele><time>2026-03-25T09:26:35.999Z</time></trkpt><trkpt lat="44.6563750009204" lon="10.780013430402109"><ele>52.0</ele><time>2026-03-25T09:26:36.999Z</time></trkpt><trkpt lat="44.65635361537828" lon="10.780144693041299"><ele>52.0</ele><time>2026-03-25T09:26:37.999Z</time></trkpt><trkpt lat="44.65633320602033" lon="10.780266016995169"><ele>52.0</ele><time>2026-03-25T09:26:38.999Z</time></trkpt><trkpt lat="44.656307016322856" lon="10.780374266158393"><ele>52.0</ele><time>2026-03-25T09:26:39.999Z</time></trkpt><trkpt lat="44.65628802634113" lon="10.780472823531518"><ele>52.0</ele><time>2026-03-25T09:26:40.999Z</time></trkpt><trkpt lat="44.65626250598277" lon="10.780642232741508"><ele>52.0</ele><time>2026-03-25T09:26:42.999Z</time></trkpt><trkpt lat="44.656238678369" lon="10.780808809179787"><ele>51.99999999999999</ele><time>2026-03-25T09:26:44.999Z</time></trkpt><trkpt lat="44.65621549879311" lon="10.780962597350419"><ele>52.0</ele><time>2026-03-25T09:26:46.999Z</time></trkpt><trkpt lat="44.65619277579299" lon="10.781076932257854"><ele>52.0</ele><time>2026-03-25T09:26:48.999Z</time></trkpt><trkpt lat="44.65617920320022" lon="10.781173397182855"><ele>52.0</ele><time>2026-03-25T09:26:50.999Z</time></trkpt><trkpt lat="44.65615976507929" lon="10.781282423462708"><ele>51.99999999999999</ele><time>2026-03-25T09:26:52.999Z</time></trkpt><trkpt lat="44.65613626780556" lon="10.781365408909206"><ele>52.0</ele><time>2026-03-25T09:26:54.999Z</time></trkpt><trkpt lat="44.65611680136086" lon="10.781455414625324"><ele>52.0</ele><time>2026-03-25T09:26:57.999Z</time></trkpt><trkpt lat="44.65612657493204" lon="10.781352508868371"><ele>52.0</ele><time>2026-03-25T09:27:20.999Z</time></trkpt><trkpt lat="44.65606008306583" lon="10.782143373438155"><ele>52.0</ele><time>2026-03-25T09:29:08Z</time></trkpt><trkpt lat="44.65595679235047" lon="10.782283483446"><ele>52.0</ele><time>2026-03-25T09:29:11Z</time></trkpt><trkpt lat="44.65591964460353" lon="10.782382347965958"><ele>52.0</ele><time>2026-03-25T09:29:12Z</time></trkpt><trkpt lat="44.655839381988756" lon="10.782538663366807"><ele>52.0</ele><time>2026-03-25T09:29:13Z</time></trkpt><trkpt lat="44.655782220822026" lon="10.782680209885152"><ele>51.33333333333333</ele><time>2026-03-25T09:29:14Z</time></trkpt><trkpt lat="44.65574679127507" lon="10.782917629068073"><ele>50.66666666666667</ele><time>2026-03-25T09:29:15Z</time></trkpt><trkpt lat="44.65570821922427" lon="10.783135183317222"><ele>50.0</ele><time>2026-03-25T09:29:16Z</time></trkpt><trkpt lat="44.655667656396396" lon="10.783305445205952"><ele>50.0</ele><time>2026-03-25T09:29:17Z</time></trkpt><trkpt lat="44.65562594504943" lon="10.783500066868873"><ele>50.0</ele><time>2026-03-25T09:29:18Z</time></trkpt><trkpt lat="44.65558533841836" lon="10.783714459724816"><ele>50.0</ele><time>2026-03-25T09:29:19Z</time></trkpt><trkpt lat="44.65554752328826" lon="10.783907308722434"><ele>50.0</ele><time>2026-03-25T09:29:20Z</time></trkpt><trkpt lat="44.655504826922346" lon="10.784111994751486"><ele>50.0</ele><time>2026-03-25T09:29:21Z</time></trkpt><trkpt lat="44.65546330981532" lon="10.784310668138147"><ele>50.0</ele><time>2026-03-25T09:29:22Z</time></trkpt><trkpt lat="44.655415306018675" lon="10.784500561791742"><ele>50.0</ele><time>2026-03-25T09:29:23Z</time></trkpt><trkpt lat="44.65536762814699" lon="10.784707805984663"><ele>50.0</ele><time>2026-03-25T09:29:24Z</time></trkpt><trkpt lat="44.65529998294361" lon="10.78489679916631"><ele>50.333333333333336</ele><time>2026-03-25T09:29:25Z</time></trkpt><trkpt lat="44.65523279662667" lon="10.785150058390006"><ele>50.66666666666667</ele><time>2026-03-25T09:29:26Z</time></trkpt><trkpt lat="44.655164299056096" lon="10.78535944439318"><ele>51.0</ele><time>2026-03-25T09:29:27Z</time></trkpt><trkpt lat="44.65511943318867" lon="10.785634153659865"><ele>51.0</ele><time>2026-03-25T09:29:28Z</time></trkpt><trkpt lat="44.65505113618519" lon="10.785861272220561"><ele>51.0</ele><time>2026-03-25T09:29:29Z</time></trkpt><trkpt lat="44.65502166169961" lon="10.78598409998075"><ele>51.0</ele><time>2026-03-25T09:29:30Z</time></trkpt><trkpt lat="44.65497483368595" lon="10.786114032056647"><ele>51.0</ele><time>2026-03-25T09:29:31Z</time></trkpt><trkpt lat="44.65491834907828" lon="10.786284973797821"><ele>50.5</ele><time>2026-03-25T09:29:32Z</time></trkpt><trkpt lat="44.65486959094652" lon="10.786418106364335"><ele>50.0</ele><time>2026-03-25T09:29:33Z</time></trkpt><trkpt lat="44.65470813923578" lon="10.787027897422611"><ele>50.0</ele><time>2026-03-25T09:29:34Z</time></trkpt><trkpt lat="44.654589462545836" lon="10.78734076595609"><ele>50.0</ele><time>2026-03-25T09:29:35Z</time></trkpt><trkpt lat="44.654479177141" lon="10.787678210517718"><ele>50.0</ele><time>2026-03-25T09:29:36Z</time></trkpt><trkpt lat="44.654384770449994" lon="10.78796148775462"><ele>50.0</ele><time>2026-03-25T09:29:37Z</time></trkpt><trkpt lat="44.65434088360634" lon="10.788149512606939"><ele>50.0</ele><time>2026-03-25T09:29:38Z</time></trkpt><trkpt lat="44.65430048618045" lon="10.788304957894571"><ele>50.0</ele><time>2026-03-25T09:29:39Z</time></trkpt><trkpt lat="44.654243206113215" lon="10.788457272092362"><ele>50.0</ele><time>2026-03-25T09:29:40Z</time></trkpt><trkpt lat="44.6540840422844" lon="10.789016435433746"><ele>49.5</ele><time>2026-03-25T09:29:41Z</time></trkpt><trkpt lat="44.65401933451361" lon="10.789400413745126"><ele>49.0</ele><time>2026-03-25T09:29:42Z</time></trkpt><trkpt lat="44.653914498209325" lon="10.789784211290293"><ele>49.0</ele><time>2026-03-25T09:29:43Z</time></trkpt><trkpt lat="44.65373979529021" lon="10.790380623202239"><ele>49.0</ele><time>2026-03-25T09:29:44Z</time></trkpt><trkpt lat="44.65350951892735" lon="10.791069979512411"><ele>49.0</ele><time>2026-03-25T09:29:45Z</time></trkpt><trkpt lat="44.653313078118195" lon="10.791703934180337"><ele>50.0</ele><time>2026-03-25T09:29:46Z</time></trkpt><trkpt lat="44.65313078608647" lon="10.792215325801093"><ele>51.0</ele><time>2026-03-25T09:29:47Z</time></trkpt><trkpt lat="44.652863172595346" lon="10.792757155916954"><ele>51.5</ele><time>2026-03-25T09:29:48Z</time></trkpt><trkpt lat="44.652676780721904" lon="10.793249392801497"><ele>52.0</ele><time>2026-03-25T09:29:49Z</time></trkpt><trkpt lat="44.65252316002918" lon="10.793720718235553"><ele>50.5</ele><time>2026-03-25T09:29:50Z</time></trkpt><trkpt lat="44.65238133214236" lon="10.794207112826669"><ele>49.0</ele><time>2026-03-25T09:29:51Z</time></trkpt><trkpt lat="44.65222570929879" lon="10.794734393773197"><ele>48.5</ele><time>2026-03-25T09:29:52Z</time></trkpt><trkpt lat="44.65207858877179" lon="10.795138979166751"><ele>48.0</ele><time>2026-03-25T09:29:53Z</time></trkpt><trkpt lat="44.65193682653832" lon="10.795506535617132"><ele>46.5</ele><time>2026-03-25T09:29:54Z</time></trkpt><trkpt lat="44.65179992945727" lon="10.795865469828682"><ele>45.0</ele><time>2026-03-25T09:29:55Z</time></trkpt><trkpt lat="44.651645203212375" lon="10.79625268144457"><ele>45.0</ele><time>2026-03-25T09:29:56Z</time></trkpt><trkpt lat="44.651485035590206" lon="10.796637284530133"><ele>45.0</ele><time>2026-03-25T09:29:57Z</time></trkpt><trkpt lat="44.651327460581584" lon="10.797021986206618"><ele>45.5</ele><time>2026-03-25T09:29:58Z</time></trkpt><trkpt lat="44.65117444708646" lon="10.7973974245117"><ele>46.0</ele><time>2026-03-25T09:29:59Z</time></trkpt><trkpt lat="44.65100792988647" lon="10.797783597038608"><ele>48.0</ele><time>2026-03-25T09:30:00Z</time></trkpt><trkpt lat="44.650884126181744" lon="10.798137919352735"><ele>50.0</ele><time>2026-03-25T09:30:01Z</time></trkpt><trkpt lat="44.65075955904422" lon="10.798500372433226"><ele>50.0</ele><time>2026-03-25T09:30:02Z</time></trkpt><trkpt lat="44.65063296044781" lon="10.798859121600843"><ele>50.0</ele><time>2026-03-25T09:30:03Z</time></trkpt><trkpt lat="44.65051220781213" lon="10.799214625426902"><ele>50.0</ele><time>2026-03-25T09:30:04Z</time></trkpt><trkpt lat="44.65038987485755" lon="10.799571275216847"><ele>50.0</ele><time>2026-03-25T09:30:05Z</time></trkpt><trkpt lat="44.6502648748476" lon="10.799925704455598"><ele>49.5</ele><time>2026-03-25T09:30:06Z</time></trkpt><trkpt lat="44.650142297792726" lon="10.800284810106833"><ele>49.0</ele><time>2026-03-25T09:30:07Z</time></trkpt><trkpt lat="44.650020226716855" lon="10.800638160904382"><ele>49.0</ele><time>2026-03-25T09:30:08Z</time></trkpt><trkpt lat="44.64990075216123" lon="10.800995783881042"><ele>49.0</ele><time>2026-03-25T09:30:09Z</time></trkpt><trkpt lat="44.64977770577202" lon="10.801360098419082"><ele>49.5</ele><time>2026-03-25T09:30:10Z</time></trkpt><trkpt lat="44.64965832325" lon="10.801725135006796"><ele>50.0</ele><time>2026-03-25T09:30:11Z</time></trkpt><trkpt lat="44.649555721160745" lon="10.802097558214736"><ele>50.5</ele><time>2026-03-25T09:30:12Z</time></trkpt><trkpt lat="44.64945133433889" lon="10.802463704875525"><ele>51.0</ele><time>2026-03-25T09:30:13Z</time></trkpt><trkpt lat="44.649351126664676" lon="10.802838969903334"><ele>52.0</ele><time>2026-03-25T09:30:14Z</time></trkpt><trkpt lat="44.64925492558338" lon="10.803227856746798"><ele>53.0</ele><time>2026-03-25T09:30:15Z</time></trkpt><trkpt lat="44.64915605658143" lon="10.803610993041099"><ele>53.5</ele><time>2026-03-25T09:30:16Z</time></trkpt><trkpt lat="44.64905160023064" lon="10.803995998296944"><ele>54.0</ele><time>2026-03-25T09:30:17Z</time></trkpt><trkpt lat="44.64896358106844" lon="10.804401146758458"><ele>52.5</ele><time>2026-03-25T09:30:18Z</time></trkpt><trkpt lat="44.64886394839679" lon="10.804795764769734"><ele>51.0</ele><time>2026-03-25T09:30:19Z</time></trkpt><trkpt lat="44.64875080230425" lon="10.805185084808256"><ele>50.0</ele><time>2026-03-25T09:30:20Z</time></trkpt><trkpt lat="44.648654938762874" lon="10.805531644763178"><ele>49.0</ele><time>2026-03-25T09:30:21Z</time></trkpt><trkpt lat="44.648544554704394" lon="10.80590842988497"><ele>51.0</ele><time>2026-03-25T09:30:22Z</time></trkpt><trkpt lat="44.64844961201812" lon="10.806287918439226"><ele>53.0</ele><time>2026-03-25T09:30:23Z</time></trkpt><trkpt lat="44.64834880776883" lon="10.8066688108502"><ele>51.5</ele><time>2026-03-25T09:30:24Z</time></trkpt><trkpt lat="44.64824176255391" lon="10.80705454003183"><ele>50.0</ele><time>2026-03-25T09:30:25Z</time></trkpt><trkpt lat="44.64815988954941" lon="10.807400033003818"><ele>49.5</ele><time>2026-03-25T09:30:26Z</time></trkpt><trkpt lat="44.64807037783108" lon="10.807767611372988"><ele>49.0</ele><time>2026-03-25T09:30:27Z</time></trkpt><trkpt lat="44.64797159642047" lon="10.808135712318046"><ele>49.5</ele><time>2026-03-25T09:30:28Z</time></trkpt><trkpt lat="44.647886525666955" lon="10.80850909403949"><ele>50.0</ele><time>2026-03-25T09:30:29Z</time></trkpt><trkpt lat="44.64780373814941" lon="10.808886700163775"><ele>50.0</ele><time>2026-03-25T09:30:30Z</time></trkpt><trkpt lat="44.647723897557334" lon="10.809262376843645"><ele>50.0</ele><time>2026-03-25T09:30:31Z</time></trkpt><trkpt lat="44.64764947151096" lon="10.809644722109939"><ele>50.0</ele><time>2026-03-25T09:30:32Z</time></trkpt><trkpt lat="44.647569647825904" lon="10.810032575814397"><ele>50.0</ele><time>2026-03-25T09:30:33Z</time></trkpt><trkpt lat="44.64749778742776" lon="10.81041739726358"><ele>49.5</ele><time>2026-03-25T09:30:34Z</time></trkpt><trkpt lat="44.64742638016764" lon="10.810811309301076"><ele>49.0</ele><time>2026-03-25T09:30:35Z</time></trkpt><trkpt lat="44.647359633313854" lon="10.811201753352293"><ele>49.0</ele><time>2026-03-25T09:30:36Z</time></trkpt><trkpt lat="44.64729550799482" lon="10.811599864575042"><ele>49.0</ele><time>2026-03-25T09:30:37Z</time></trkpt><trkpt lat="44.6472307360368" lon="10.812011426834133"><ele>49.0</ele><time>2026-03-25T09:30:38Z</time></trkpt><trkpt lat="44.64717024805034" lon="10.812414777356095"><ele>49.0</ele><time>2026-03-25T09:30:39Z</time></trkpt><trkpt lat="44.64711200471933" lon="10.812822456759388"><ele>49.5</ele><time>2026-03-25T09:30:40Z</time></trkpt><trkpt lat="44.647054573262054" lon="10.813226710873112"><ele>50.0</ele><time>2026-03-25T09:30:41Z</time></trkpt><trkpt lat="44.64700239962171" lon="10.813619639920658"><ele>49.0</ele><time>2026-03-25T09:30:42Z</time></trkpt><trkpt lat="44.64695378546775" lon="10.813981562468062"><ele>48.0</ele><time>2026-03-25T09:30:43Z</time></trkpt><trkpt lat="44.64689170835724" lon="10.814412485209647"><ele>48.0</ele><time>2026-03-25T09:30:44Z</time></trkpt><trkpt lat="44.64683682920409" lon="10.814847318559186"><ele>48.0</ele><time>2026-03-25T09:30:45Z</time></trkpt><trkpt lat="44.6467736854262" lon="10.815277982087677"><ele>47.0</ele><time>2026-03-25T09:30:46Z</time></trkpt><trkpt lat="44.64672027185901" lon="10.815703353724066"><ele>46.0</ele><time>2026-03-25T09:30:47Z</time></trkpt><trkpt lat="44.64666337569698" lon="10.816137853928595"><ele>46.0</ele><time>2026-03-25T09:30:48Z</time></trkpt><trkpt lat="44.64660752139893" lon="10.816572057732769"><ele>46.0</ele><time>2026-03-25T09:30:49Z</time></trkpt><trkpt lat="44.64655978618875" lon="10.816997039379082"><ele>46.5</ele><time>2026-03-25T09:30:50Z</time></trkpt><trkpt lat="44.64651485312051" lon="10.817410313344721"><ele>47.0</ele><time>2026-03-25T09:30:51Z</time></trkpt><trkpt lat="44.64646811449341" lon="10.817830711700084"><ele>46.5</ele><time>2026-03-25T09:30:52Z</time></trkpt><trkpt lat="44.64643847471898" lon="10.81826437241811"><ele>46.0</ele><time>2026-03-25T09:30:53Z</time></trkpt><trkpt lat="44.64641752194929" lon="10.818728604737307"><ele>46.0</ele><time>2026-03-25T09:30:54Z</time></trkpt><trkpt lat="44.64639221945543" lon="10.819168091520023"><ele>46.0</ele><time>2026-03-25T09:30:55Z</time></trkpt><trkpt lat="44.64637670631304" lon="10.819620483919921"><ele>46.0</ele><time>2026-03-25T09:30:56Z</time></trkpt><trkpt lat="44.646412521097204" lon="10.820053838771784"><ele>46.0</ele><time>2026-03-25T09:30:57Z</time></trkpt><trkpt lat="44.64642319862122" lon="10.820499467065131"><ele>46.0</ele><time>2026-03-25T09:30:58Z</time></trkpt><trkpt lat="44.64642068594248" lon="10.820874034892308"><ele>46.0</ele><time>2026-03-25T09:30:59Z</time></trkpt><trkpt lat="44.646414557093664" lon="10.821295437060735"><ele>46.0</ele><time>2026-03-25T09:31:00Z</time></trkpt><trkpt lat="44.64641327300761" lon="10.821710232331716"><ele>46.0</ele><time>2026-03-25T09:31:01Z</time></trkpt><trkpt lat="44.646451575666966" lon="10.822088845024888"><ele>45.0</ele><time>2026-03-25T09:31:02Z</time></trkpt><trkpt lat="44.64652876469659" lon="10.822560641367824"><ele>44.0</ele><time>2026-03-25T09:31:03Z</time></trkpt><trkpt lat="44.64656558690203" lon="10.823018826512602"><ele>42.0</ele><time>2026-03-25T09:31:04Z</time></trkpt><trkpt lat="44.64658182046556" lon="10.823755831639305"><ele>41.5</ele><time>2026-03-25T09:31:05Z</time></trkpt><trkpt lat="44.64660590997498" lon="10.824354849709747"><ele>41.0</ele><time>2026-03-25T09:31:06Z</time></trkpt><trkpt lat="44.64664905521574" lon="10.824818241377113"><ele>42.0</ele><time>2026-03-25T09:31:07Z</time></trkpt><trkpt lat="44.6466950882867" lon="10.82533093249496"><ele>43.0</ele><time>2026-03-25T09:31:08Z</time></trkpt><trkpt lat="44.646738167452284" lon="10.82579957473406"><ele>43.0</ele><time>2026-03-25T09:31:09Z</time></trkpt><trkpt lat="44.64667009310456" lon="10.826258365160632"><ele>43.0</ele><time>2026-03-25T09:31:10Z</time></trkpt><trkpt lat="44.64669242524261" lon="10.82672903815409"><ele>43.0</ele><time>2026-03-25T09:31:11Z</time></trkpt><trkpt lat="44.646724891526" lon="10.82726992037606"><ele>43.0</ele><time>2026-03-25T09:31:12Z</time></trkpt><trkpt lat="44.646755597511536" lon="10.827770858293706"><ele>43.0</ele><time>2026-03-25T09:31:13Z</time></trkpt><trkpt lat="44.646781800925375" lon="10.828278372341712"><ele>43.0</ele><time>2026-03-25T09:31:14Z</time></trkpt><trkpt lat="44.64680817946261" lon="10.82884074018522"><ele>43.5</ele><time>2026-03-25T09:31:15.084Z</time></trkpt><trkpt lat="44.64683880201447" lon="10.82928760298318"><ele>44.0</ele><time>2026-03-25T09:31:16.042Z</time></trkpt><trkpt lat="44.64686254045653" lon="10.82976352193991"><ele>42.0</ele><time>2026-03-25T09:31:17.035Z</time></trkpt><trkpt lat="44.64688955398654" lon="10.830158541040486"><ele>40.0</ele><time>2026-03-25T09:31:18.035Z</time></trkpt><trkpt lat="44.64691271869172" lon="10.830539370913558"><ele>40.0</ele><time>2026-03-25T09:31:19.036Z</time></trkpt><trkpt lat="44.64693877581812" lon="10.830989887327057"><ele>40.0</ele><time>2026-03-25T09:31:20.034Z</time></trkpt><trkpt lat="44.64696482536797" lon="10.831442769276215"><ele>40.5</ele><time>2026-03-25T09:31:21.034Z</time></trkpt><trkpt lat="44.64699045063287" lon="10.831901301339323"><ele>41.0</ele><time>2026-03-25T09:31:22.033Z</time></trkpt><trkpt lat="44.64701548570949" lon="10.832356329779378"><ele>41.0</ele><time>2026-03-25T09:31:23.036Z</time></trkpt><trkpt lat="44.647040087610236" lon="10.832800461819154"><ele>41.0</ele><time>2026-03-25T09:31:24.033Z</time></trkpt><trkpt lat="44.64706545610757" lon="10.833241851890136"><ele>41.0</ele><time>2026-03-25T09:31:25.035Z</time></trkpt><trkpt lat="44.64709068264743" lon="10.833679982804073"><ele>41.0</ele><time>2026-03-25T09:31:26.035Z</time></trkpt><trkpt lat="44.64711623465602" lon="10.83412696810479"><ele>42.0</ele><time>2026-03-25T09:31:27.034Z</time></trkpt><trkpt lat="44.647141222948996" lon="10.834569403689708"><ele>43.0</ele><time>2026-03-25T09:31:28.036Z</time></trkpt><trkpt lat="44.64716671696927" lon="10.835014793058921"><ele>43.0</ele><time>2026-03-25T09:31:29.035Z</time></trkpt><trkpt lat="44.64719158975741" lon="10.835447834140785"><ele>43.0</ele><time>2026-03-25T09:31:30.015Z</time></trkpt><trkpt lat="44.6472168137544" lon="10.835892360433757"><ele>42.0</ele><time>2026-03-25T09:31:31.015Z</time></trkpt><trkpt lat="44.64724191750573" lon="10.836339479268144"><ele>41.0</ele><time>2026-03-25T09:31:32.015Z</time></trkpt><trkpt lat="44.64726711511433" lon="10.836788258974858"><ele>40.5</ele><time>2026-03-25T09:31:33.016Z</time></trkpt><trkpt lat="44.64729217050402" lon="10.83723668626486"><ele>40.0</ele><time>2026-03-25T09:31:34.016Z</time></trkpt><trkpt lat="44.64731707462495" lon="10.837684577813581"><ele>44.0</ele><time>2026-03-25T09:31:35.014Z</time></trkpt><trkpt lat="44.64756455924023" lon="10.84216949173911"><ele>34.0</ele><time>2026-03-25T09:31:45.909Z</time></trkpt><trkpt lat="44.66936882860174" lon="10.88875063458924"><ele>34.0</ele><time>2026-03-25T09:33:28Z</time></trkpt><trkpt lat="44.669430737084475" lon="10.889163291147453"><ele>34.0</ele><time>2026-03-25T09:33:29Z</time></trkpt><trkpt lat="44.669454770306714" lon="10.88954683745845"><ele>34.5</ele><time>2026-03-25T09:33:30Z</time></trkpt><trkpt lat="44.66950827983129" lon="10.889975297582119"><ele>35.0</ele><time>2026-03-25T09:33:31Z</time></trkpt><trkpt lat="44.669569516623525" lon="10.890385941873143"><ele>35.0</ele><time>2026-03-25T09:33:32Z</time></trkpt><trkpt lat="44.67009658893217" lon="10.890079270979273"><ele>35.0</ele><time>2026-03-25T09:33:33Z</time></trkpt><trkpt lat="44.669946234910135" lon="10.890911842015294"><ele>35.0</ele><time>2026-03-25T09:33:34.001Z</time></trkpt><trkpt lat="44.669977677418316" lon="10.89138293794463"><ele>35.0</ele><time>2026-03-25T09:33:35.001Z</time></trkpt><trkpt lat="44.66976060697261" lon="10.892011465817896"><ele>35.0</ele><time>2026-03-25T09:33:36.001Z</time></trkpt><trkpt lat="44.669739973360585" lon="10.892474154686488"><ele>35.0</ele><time>2026-03-25T09:33:37.001Z</time></trkpt><trkpt lat="44.66967121227271" lon="10.892979527127055"><ele>36.5</ele><time>2026-03-25T09:33:38.001Z</time></trkpt><trkpt lat="44.6696222822061" lon="10.89344481070461"><ele>38.0</ele><time>2026-03-25T09:33:39.001Z</time></trkpt><trkpt lat="44.66958067779321" lon="10.893893689375842"><ele>38.5</ele><time>2026-03-25T09:33:40.001Z</time></trkpt><trkpt lat="44.669557778879465" lon="10.894340116323262"><ele>39.0</ele><time>2026-03-25T09:33:41.001Z</time></trkpt><trkpt lat="44.669502365973536" lon="10.894776228176971"><ele>36.5</ele><time>2026-03-25T09:33:42.001Z</time></trkpt><trkpt lat="44.669434827348155" lon="10.895227756999477"><ele>34.0</ele><time>2026-03-25T09:33:43.001Z</time></trkpt><trkpt lat="44.66936305524859" lon="10.895682139882243"><ele>34.5</ele><time>2026-03-25T09:33:44.001Z</time></trkpt><trkpt lat="44.66928534074373" lon="10.896106212599994"><ele>35.0</ele><time>2026-03-25T09:33:45.001Z</time></trkpt><trkpt lat="44.669217983730945" lon="10.896514463477812"><ele>36.0</ele><time>2026-03-25T09:33:46.001Z</time></trkpt><trkpt lat="44.66912335572751" lon="10.896900174615832"><ele>37.0</ele><time>2026-03-25T09:33:47.001Z</time></trkpt><trkpt lat="44.66902862091402" lon="10.897280957103082"><ele>37.0</ele><time>2026-03-25T09:33:48.001Z</time></trkpt><trkpt lat="44.66893779408451" lon="10.89765679976847"><ele>37.0</ele><time>2026-03-25T09:33:49.001Z</time></trkpt><trkpt lat="44.66884716705037" lon="10.89803771158665"><ele>37.0</ele><time>2026-03-25T09:33:50.001Z</time></trkpt><trkpt lat="44.668742156421466" lon="10.898394712243274"><ele>37.0</ele><time>2026-03-25T09:33:51.001Z</time></trkpt><trkpt lat="44.66862161540193" lon="10.898747453334138"><ele>36.5</ele><time>2026-03-25T09:33:52.001Z</time></trkpt><trkpt lat="44.66851410127319" lon="10.899088643349879"><ele>36.0</ele><time>2026-03-25T09:33:53Z</time></trkpt><trkpt lat="44.66840434236205" lon="10.899439749334459"><ele>35.0</ele><time>2026-03-25T09:33:54Z</time></trkpt><trkpt lat="44.66830401898416" lon="10.899794486655809"><ele>34.0</ele><time>2026-03-25T09:33:55Z</time></trkpt><trkpt lat="44.668197682177734" lon="10.9001560491202"><ele>33.0</ele><time>2026-03-25T09:33:56Z</time></trkpt><trkpt lat="44.66808779649536" lon="10.900515372605652"><ele>32.0</ele><time>2026-03-25T09:33:57Z</time></trkpt><trkpt lat="44.667994308471535" lon="10.900883994507687"><ele>32.5</ele><time>2026-03-25T09:33:58Z</time></trkpt><trkpt lat="44.6678881121323" lon="10.901237089524827"><ele>33.0</ele><time>2026-03-25T09:33:59Z</time></trkpt><trkpt lat="44.66778588398248" lon="10.901595680681227"><ele>34.0</ele><time>2026-03-25T09:34:00Z</time></trkpt><trkpt lat="44.66768182106408" lon="10.901951182590441"><ele>35.0</ele><time>2026-03-25T09:34:01Z</time></trkpt><trkpt lat="44.667576577104185" lon="10.902303137145578"><ele>34.5</ele><time>2026-03-25T09:34:02Z</time></trkpt><trkpt lat="44.66745217232691" lon="10.902655521345636"><ele>34.0</ele><time>2026-03-25T09:34:03Z</time></trkpt><trkpt lat="44.66734413762792" lon="10.902995477789295"><ele>34.0</ele><time>2026-03-25T09:34:04Z</time></trkpt><trkpt lat="44.66721867379499" lon="10.903324424762957"><ele>34.0</ele><time>2026-03-25T09:34:05Z</time></trkpt><trkpt lat="44.667090325672056" lon="10.903661071068205"><ele>34.5</ele><time>2026-03-25T09:34:06Z</time></trkpt><trkpt lat="44.66694138959783" lon="10.903982120240695"><ele>35.0</ele><time>2026-03-25T09:34:07Z</time></trkpt><trkpt lat="44.66680663061028" lon="10.904300469541075"><ele>34.0</ele><time>2026-03-25T09:34:08Z</time></trkpt><trkpt lat="44.66666525096049" lon="10.904603981753226"><ele>33.0</ele><time>2026-03-25T09:34:09Z</time></trkpt><trkpt lat="44.666520471829635" lon="10.904904162750032"><ele>33.5</ele><time>2026-03-25T09:34:10Z</time></trkpt><trkpt lat="44.66636828502908" lon="10.905201771311052"><ele>34.0</ele><time>2026-03-25T09:34:11Z</time></trkpt><trkpt lat="44.66621852674025" lon="10.905484118034938"><ele>34.0</ele><time>2026-03-25T09:34:12Z</time></trkpt><trkpt lat="44.66605941572444" lon="10.905757422550153"><ele>34.0</ele><time>2026-03-25T09:34:13Z</time></trkpt><trkpt lat="44.66591547053961" lon="10.906032403908823"><ele>34.0</ele><time>2026-03-25T09:34:14Z</time></trkpt><trkpt lat="44.66575553659" lon="10.906317347422167"><ele>34.0</ele><time>2026-03-25T09:34:15Z</time></trkpt><trkpt lat="44.66559644452813" lon="10.906578594830394"><ele>34.0</ele><time>2026-03-25T09:34:16Z</time></trkpt><trkpt lat="44.665402718529805" lon="10.906857589939833"><ele>34.0</ele><time>2026-03-25T09:34:17Z</time></trkpt><trkpt lat="44.66516098981431" lon="10.907127046062365"><ele>33.0</ele><time>2026-03-25T09:34:18Z</time></trkpt><trkpt lat="44.66496878135581" lon="10.907372172156974"><ele>32.0</ele><time>2026-03-25T09:34:19Z</time></trkpt><trkpt lat="44.66478167736617" lon="10.907613006429067"><ele>32.0</ele><time>2026-03-25T09:34:20Z</time></trkpt><trkpt lat="44.66459023754053" lon="10.90783810030556"><ele>32.0</ele><time>2026-03-25T09:34:21Z</time></trkpt><trkpt lat="44.664388443188045" lon="10.908060533256181"><ele>32.5</ele><time>2026-03-25T09:34:22Z</time></trkpt><trkpt lat="44.66416872368469" lon="10.908277059529372"><ele>33.0</ele><time>2026-03-25T09:34:23Z</time></trkpt><trkpt lat="44.663946118642585" lon="10.908493962213877"><ele>32.5</ele><time>2026-03-25T09:34:24Z</time></trkpt><trkpt lat="44.663719260698855" lon="10.908708614873136"><ele>32.0</ele><time>2026-03-25T09:34:25Z</time></trkpt><trkpt lat="44.66348812642947" lon="10.908949947065173"><ele>32.0</ele><time>2026-03-25T09:34:26Z</time></trkpt><trkpt lat="44.663264148751345" lon="10.909185183308454"><ele>32.0</ele><time>2026-03-25T09:34:27Z</time></trkpt><trkpt lat="44.66303731128925" lon="10.90940708942803"><ele>32.0</ele><time>2026-03-25T09:34:28Z</time></trkpt><trkpt lat="44.66282636717821" lon="10.90963304580116"><ele>32.0</ele><time>2026-03-25T09:34:29Z</time></trkpt><trkpt lat="44.662637060754385" lon="10.909854512940882"><ele>32.5</ele><time>2026-03-25T09:34:30Z</time></trkpt><trkpt lat="44.662430836518" lon="10.910088043754582"><ele>33.0</ele><time>2026-03-25T09:34:31Z</time></trkpt><trkpt lat="44.662972466311096" lon="10.909598485222396"><ele>35.0</ele><time>2026-03-25T09:34:32Z</time></trkpt><trkpt lat="44.65980220935243" lon="10.913900458910765"><ele>35.0</ele><time>2026-03-25T09:34:52.018Z</time></trkpt><trkpt lat="44.65969413382992" lon="10.91413847080309"><ele>35.0</ele><time>2026-03-25T09:34:53.017Z</time></trkpt><trkpt lat="44.65913264091769" lon="10.914892696895478"><ele>34.0</ele><time>2026-03-25T09:34:54.017Z</time></trkpt><trkpt lat="44.65890090320902" lon="10.915332099825074"><ele>33.0</ele><time>2026-03-25T09:34:55.018Z</time></trkpt><trkpt lat="44.65877438765236" lon="10.915612167401838"><ele>33.0</ele><time>2026-03-25T09:34:56.017Z</time></trkpt><trkpt lat="44.658489418698544" lon="10.916298866823627"><ele>33.0</ele><time>2026-03-25T09:34:57.017Z</time></trkpt><trkpt lat="44.65834485968189" lon="10.916638527786375"><ele>33.0</ele><time>2026-03-25T09:34:58.018Z</time></trkpt><trkpt lat="44.65819281105653" lon="10.916960485749346"><ele>34.0</ele><time>2026-03-25T09:34:59.017Z</time></trkpt><trkpt lat="44.65808001283074" lon="10.917239366251957"><ele>35.0</ele><time>2026-03-25T09:35:00.014Z</time></trkpt><trkpt lat="44.65794993479386" lon="10.917526566056088"><ele>33.5</ele><time>2026-03-25T09:35:01.016Z</time></trkpt><trkpt lat="44.65777869851439" lon="10.91784635870247"><ele>32.0</ele><time>2026-03-25T09:35:02.015Z</time></trkpt><trkpt lat="44.65761876214818" lon="10.918159048794417"><ele>33.5</ele><time>2026-03-25T09:35:03.017Z</time></trkpt><trkpt lat="44.65749411368948" lon="10.91844535320135"><ele>35.0</ele><time>2026-03-25T09:35:04.016Z</time></trkpt><trkpt lat="44.65733530916962" lon="10.918753966130463"><ele>35.0</ele><time>2026-03-25T09:35:05.015Z</time></trkpt><trkpt lat="44.65713994703283" lon="10.919082772006536"><ele>35.0</ele><time>2026-03-25T09:35:06.015Z</time></trkpt><trkpt lat="44.65701051423565" lon="10.919372431941802"><ele>34.0</ele><time>2026-03-25T09:35:07.015Z</time></trkpt><trkpt lat="44.6568812888218" lon="10.919661971937945"><ele>33.0</ele><time>2026-03-25T09:35:08.016Z</time></trkpt><trkpt lat="44.65671243217498" lon="10.919976257011063"><ele>34.5</ele><time>2026-03-25T09:35:09.015Z</time></trkpt><trkpt lat="44.65652003908392" lon="10.920302182129854"><ele>36.0</ele><time>2026-03-25T09:35:10.016Z</time></trkpt><trkpt lat="44.65634702633428" lon="10.920614120994124"><ele>35.0</ele><time>2026-03-25T09:35:11.016Z</time></trkpt><trkpt lat="44.65620145231571" lon="10.920911040383286"><ele>34.0</ele><time>2026-03-25T09:35:12.014Z</time></trkpt><trkpt lat="44.65606666287045" lon="10.921203458479251"><ele>33.5</ele><time>2026-03-25T09:35:13.015Z</time></trkpt><trkpt lat="44.655934061944244" lon="10.921495715683443"><ele>33.0</ele><time>2026-03-25T09:35:14.016Z</time></trkpt><trkpt lat="44.655801662532774" lon="10.921787181401381"><ele>32.5</ele><time>2026-03-25T09:35:15.015Z</time></trkpt><trkpt lat="44.655670017607" lon="10.922079687861094"><ele>32.0</ele><time>2026-03-25T09:35:16.014Z</time></trkpt><trkpt lat="44.655537880568644" lon="10.922372610838309"><ele>32.0</ele><time>2026-03-25T09:35:17.016Z</time></trkpt><trkpt lat="44.65540617590265" lon="10.922664920371995"><ele>32.0</ele><time>2026-03-25T09:35:18.015Z</time></trkpt><trkpt lat="44.655273765079876" lon="10.92295726868773"><ele>32.0</ele><time>2026-03-25T09:35:19.016Z</time></trkpt><trkpt lat="44.65514176854579" lon="10.923249411222484"><ele>32.0</ele><time>2026-03-25T09:35:20.015Z</time></trkpt><trkpt lat="44.65565619938835" lon="10.923258588762737"><ele>33.0</ele><time>2026-03-25T09:35:21.014Z</time></trkpt><trkpt lat="44.65536708791916" lon="10.926788400163273"><ele>33.0</ele><time>2026-03-25T09:35:35.017Z</time></trkpt><trkpt lat="44.65531167696383" lon="10.92687825458447"><ele>33.0</ele><time>2026-03-25T09:35:39.013Z</time></trkpt><trkpt lat="44.655365806234386" lon="10.927256886724809"><ele>33.0</ele><time>2026-03-25T09:35:40.017Z</time></trkpt><trkpt lat="44.65537520553929" lon="10.927530483281028"><ele>33.0</ele><time>2026-03-25T09:35:41.016Z</time></trkpt><trkpt lat="44.65543849790356" lon="10.927962355075563"><ele>33.0</ele><time>2026-03-25T09:35:42.012Z</time></trkpt><trkpt lat="44.655457467377566" lon="10.92815351363236"><ele>33.0</ele><time>2026-03-25T09:35:43.015Z</time></trkpt><trkpt lat="44.65547367586294" lon="10.928395979644801"><ele>33.0</ele><time>2026-03-25T09:35:44.014Z</time></trkpt><trkpt lat="44.65550297741428" lon="10.92873152760341"><ele>33.0</ele><time>2026-03-25T09:35:45.016Z</time></trkpt><trkpt lat="44.655529555674725" lon="10.928982784408152"><ele>33.0</ele><time>2026-03-25T09:35:46.016Z</time></trkpt><trkpt lat="44.65550027424962" lon="10.929091056411949"><ele>33.0</ele><time>2026-03-25T09:35:47.018Z</time></trkpt><trkpt lat="44.655419002849435" lon="10.929048111983949"><ele>33.0</ele><time>2026-03-25T09:35:48.014Z</time></trkpt><trkpt lat="44.655361953359765" lon="10.929097457137363"><ele>33.0</ele><time>2026-03-25T09:35:49.016Z</time></trkpt><trkpt lat="44.65534564192967" lon="10.929223484638277"><ele>33.0</ele><time>2026-03-25T09:35:50.016Z</time></trkpt><trkpt lat="44.655286942185874" lon="10.929335622603883"><ele>33.0</ele><time>2026-03-25T09:35:51.015Z</time></trkpt><trkpt lat="44.65522453147787" lon="10.929258543513814"><ele>32.6</ele><time>2026-03-25T09:35:52.015Z</time></trkpt><trkpt lat="44.65513345222917" lon="10.929306519275073"><ele>32.199999999999996</ele><time>2026-03-25T09:35:54.016Z</time></trkpt><trkpt lat="44.65514322496584" lon="10.929455140432509"><ele>31.8</ele><time>2026-03-25T09:35:55.018Z</time></trkpt><trkpt lat="44.65505439785074" lon="10.929365586388524"><ele>31.4</ele><time>2026-03-25T09:35:57.016Z</time></trkpt><trkpt lat="44.65496328279901" lon="10.929398630102089"><ele>31.0</ele><time>2026-03-25T09:35:58.017Z</time></trkpt><trkpt lat="44.654909921137964" lon="10.92946440500191"><ele>31.0</ele><time>2026-03-25T09:35:59.017Z</time></trkpt><trkpt lat="44.65481709444063" lon="10.929481359722113"><ele>31.0</ele><time>2026-03-25T09:36:00.016Z</time></trkpt><trkpt lat="44.654734391457616" lon="10.92950465906185"><ele>31.0</ele><time>2026-03-25T09:36:01.018Z</time></trkpt><trkpt lat="44.6546537219513" lon="10.92959470135275"><ele>31.0</ele><time>2026-03-25T09:36:02.017Z</time></trkpt><trkpt lat="44.65453474357108" lon="10.929690582926582"><ele>31.0</ele><time>2026-03-25T09:36:03.017Z</time></trkpt><trkpt lat="44.65444798535902" lon="10.929754926470714"><ele>31.6</ele><time>2026-03-25T09:36:04.013Z</time></trkpt><trkpt lat="44.65431800654898" lon="10.929864934837138"><ele>32.2</ele><time>2026-03-25T09:36:05.016Z</time></trkpt><trkpt lat="44.654245698889916" lon="10.929921279555481"><ele>32.8</ele><time>2026-03-25T09:36:06.012Z</time></trkpt><trkpt lat="44.654186651335436" lon="10.929966198157372"><ele>33.4</ele><time>2026-03-25T09:36:07.014Z</time></trkpt><trkpt lat="44.65412051207748" lon="10.93001706377406"><ele>34.0</ele><time>2026-03-25T09:36:08.016Z</time></trkpt><trkpt lat="44.65405461246317" lon="10.930067491798347"><ele>34.16666666666667</ele><time>2026-03-25T09:36:09.016Z</time></trkpt><trkpt lat="44.65398427967482" lon="10.930122199154122"><ele>34.333333333333336</ele><time>2026-03-25T09:36:10.017Z</time></trkpt><trkpt lat="44.65391376078083" lon="10.93017698799125"><ele>34.5</ele><time>2026-03-25T09:36:11.018Z</time></trkpt><trkpt lat="44.65384351754717" lon="10.93023161032932"><ele>34.666666666666664</ele><time>2026-03-25T09:36:12.017Z</time></trkpt><trkpt lat="44.653773190306325" lon="10.930287192470841"><ele>34.83333333333333</ele><time>2026-03-25T09:36:13.019Z</time></trkpt><trkpt lat="44.653702784151896" lon="10.930341999416655"><ele>35.0</ele><time>2026-03-25T09:36:14.019Z</time></trkpt><trkpt lat="44.653772715212526" lon="10.930864169763746"><ele>34.75</ele><time>2026-03-25T09:36:16.021Z</time></trkpt><trkpt lat="44.653766915743056" lon="10.931126903698253"><ele>34.5</ele><time>2026-03-25T09:36:17.018Z</time></trkpt><trkpt lat="44.6536519760355" lon="10.93100083410643"><ele>34.25</ele><time>2026-03-25T09:36:18.019Z</time></trkpt><trkpt lat="44.65359988594836" lon="10.93109621220697"><ele>34.0</ele><time>2026-03-25T09:36:19.02Z</time></trkpt><trkpt lat="44.65358622167639" lon="10.931303870228353"><ele>34.0</ele><time>2026-03-25T09:36:20.018Z</time></trkpt><trkpt lat="44.65360465317112" lon="10.931401671838072"><ele>34.0</ele><time>2026-03-25T09:36:21.016Z</time></trkpt><trkpt lat="44.65364973243123" lon="10.931580893493333"><ele>34.0</ele><time>2026-03-25T09:36:23.016Z</time></trkpt><trkpt lat="44.65362363620131" lon="10.931789857054513"><ele>34.0</ele><time>2026-03-25T09:36:26.016Z</time></trkpt><trkpt lat="44.65353471558644" lon="10.931755977160323"><ele>34.5</ele><time>2026-03-25T09:36:28.015Z</time></trkpt><trkpt lat="44.653443314037595" lon="10.931728875769489"><ele>35.0</ele><time>2026-03-25T09:36:30.015Z</time></trkpt><trkpt lat="44.64996249521204" lon="10.93148481381117"><ele>36.5</ele><time>2026-03-25T09:36:46.02Z</time></trkpt><trkpt lat="44.65023290486831" lon="10.931514079558953"><ele>38.0</ele><time>2026-03-25T09:36:47.021Z</time></trkpt><trkpt lat="44.65080669138604" lon="10.931518960596609"><ele>38.0</ele><time>2026-03-25T09:36:49.02Z</time></trkpt><trkpt lat="44.65113147519381" lon="10.931489927184982"><ele>38.0</ele><time>2026-03-25T09:36:50.021Z</time></trkpt><trkpt lat="44.65294177415743" lon="10.931312182561104"><ele>37.5</ele><time>2026-03-25T09:36:51.021Z</time></trkpt><trkpt lat="44.65319431930137" lon="10.931282216644384"><ele>37.0</ele><time>2026-03-25T09:36:52.018Z</time></trkpt><trkpt lat="44.653425285128726" lon="10.931247838054418"><ele>35.5</ele><time>2026-03-25T09:36:53.018Z</time></trkpt><trkpt lat="44.65365045942941" lon="10.931205381594403"><ele>34.0</ele><time>2026-03-25T09:36:54.02Z</time></trkpt><trkpt lat="44.65396057882671" lon="10.931184458081033"><ele>34.0</ele><time>2026-03-25T09:36:55.018Z</time></trkpt><trkpt lat="44.65414081564855" lon="10.931157164650244"><ele>34.0</ele><time>2026-03-25T09:36:56.019Z</time></trkpt><trkpt lat="44.65437190857822" lon="10.931095860190407"><ele>34.0</ele><time>2026-03-25T09:37:04.023Z</time></trkpt><trkpt lat="44.65445719381172" lon="10.931057488016041"><ele>33.6</ele><time>2026-03-25T09:37:07.019Z</time></trkpt><trkpt lat="44.654525121488675" lon="10.931023260919616"><ele>33.2</ele><time>2026-03-25T09:37:10.022Z</time></trkpt><trkpt lat="44.65463218618713" lon="10.931008640981856"><ele>32.800000000000004</ele><time>2026-03-25T09:37:22.001Z</time></trkpt><trkpt lat="44.654685636815636" lon="10.931078535349002"><ele>32.4</ele><time>2026-03-25T09:38:32Z</time></trkpt><trkpt lat="44.65460660981971" lon="10.931088869788997"><ele>32.0</ele><time>2026-03-25T09:38:40Z</time></trkpt><trkpt lat="44.65451401754025" lon="10.931491929810472"><ele>31.999999999999996</ele><time>2026-03-25T09:38:53Z</time></trkpt><trkpt lat="44.654504803039174" lon="10.931609949864699"><ele>32.0</ele><time>2026-03-25T09:38:55Z</time></trkpt><trkpt lat="44.65447878937132" lon="10.931713713688001"><ele>32.0</ele><time>2026-03-25T09:38:56Z</time></trkpt><trkpt lat="44.65446290293511" lon="10.931820071752279"><ele>32.0</ele><time>2026-03-25T09:38:57Z</time></trkpt><trkpt lat="44.65443829955499" lon="10.93190690289779"><ele>31.999999999999996</ele><time>2026-03-25T09:38:58Z</time></trkpt><trkpt lat="44.654406640539754" lon="10.932020231864433"><ele>32.0</ele><time>2026-03-25T09:38:59Z</time></trkpt><trkpt lat="44.65438421469123" lon="10.93210826118149"><ele>32.166666666666664</ele><time>2026-03-25T09:39:00Z</time></trkpt><trkpt lat="44.654356921820494" lon="10.932210460565496"><ele>32.33333333333333</ele><time>2026-03-25T09:39:01Z</time></trkpt><trkpt lat="44.65432786758561" lon="10.932318126979776"><ele>32.5</ele><time>2026-03-25T09:39:02Z</time></trkpt><trkpt lat="44.6542979746086" lon="10.932435117778732"><ele>32.666666666666664</ele><time>2026-03-25T09:39:03Z</time></trkpt><trkpt lat="44.654264478780384" lon="10.932553311801627"><ele>32.833333333333336</ele><time>2026-03-25T09:39:04Z</time></trkpt><trkpt lat="44.654229269751404" lon="10.932679889810046"><ele>33.0</ele><time>2026-03-25T09:39:05Z</time></trkpt><trkpt lat="44.654192322895994" lon="10.9328081463506"><ele>33.4</ele><time>2026-03-25T09:39:06Z</time></trkpt><trkpt lat="44.65415158392255" lon="10.932938871489332"><ele>33.8</ele><time>2026-03-25T09:39:07Z</time></trkpt><trkpt lat="44.654115194598276" lon="10.933074717736222"><ele>34.2</ele><time>2026-03-25T09:39:08Z</time></trkpt><trkpt lat="44.65407651755887" lon="10.933192018797618"><ele>34.6</ele><time>2026-03-25T09:39:09Z</time></trkpt><trkpt lat="44.65404292717637" lon="10.933305132647996"><ele>35.0</ele><time>2026-03-25T09:39:10Z</time></trkpt><trkpt lat="44.65400394675594" lon="10.933434489439199"><ele>35.0</ele><time>2026-03-25T09:39:11Z</time></trkpt><trkpt lat="44.653956028954454" lon="10.933569444043847"><ele>35.0</ele><time>2026-03-25T09:39:12Z</time></trkpt><trkpt lat="44.65391068266588" lon="10.933703066210175"><ele>35.0</ele><time>2026-03-25T09:39:13Z</time></trkpt><trkpt lat="44.65386257716162" lon="10.933838046864903"><ele>35.0</ele><time>2026-03-25T09:39:14Z</time></trkpt><trkpt lat="44.65381031482091" lon="10.933972966689183"><ele>35.0</ele><time>2026-03-25T09:39:15Z</time></trkpt><trkpt lat="44.65376702888583" lon="10.934100177128565"><ele>34.8</ele><time>2026-03-25T09:39:16Z</time></trkpt><trkpt lat="44.653713936603914" lon="10.93422931947428"><ele>34.6</ele><time>2026-03-25T09:39:17Z</time></trkpt><trkpt lat="44.653617040210335" lon="10.934322259391228"><ele>34.4</ele><time>2026-03-25T09:39:18Z</time></trkpt><trkpt lat="44.65358448477026" lon="10.9344553186102"><ele>34.2</ele><time>2026-03-25T09:39:19Z</time></trkpt><trkpt lat="44.65354218136887" lon="10.93458569331648"><ele>34.0</ele><time>2026-03-25T09:39:20Z</time></trkpt><trkpt lat="44.6534840781858" lon="10.93475369729436"><ele>34.0</ele><time>2026-03-25T09:39:21Z</time></trkpt><trkpt lat="44.653419344242224" lon="10.934919264450535"><ele>34.0</ele><time>2026-03-25T09:39:22Z</time></trkpt><trkpt lat="44.65334893205161" lon="10.935049825384972"><ele>34.0</ele><time>2026-03-25T09:39:23Z</time></trkpt><trkpt lat="44.65329540437999" lon="10.935215773545465"><ele>34.0</ele><time>2026-03-25T09:39:24Z</time></trkpt><trkpt lat="44.6532059599151" lon="10.935408584453945"><ele>34.25</ele><time>2026-03-25T09:39:25Z</time></trkpt><trkpt lat="44.65312374392803" lon="10.93557789055598"><ele>34.5</ele><time>2026-03-25T09:39:26Z</time></trkpt><trkpt lat="44.653053972004464" lon="10.935758129100691"><ele>34.75</ele><time>2026-03-25T09:39:27Z</time></trkpt><trkpt lat="44.652983683807946" lon="10.935929346163068"><ele>35.0</ele><time>2026-03-25T09:39:28Z</time></trkpt><trkpt lat="44.65290090581624" lon="10.936084443305333"><ele>34.33333333333333</ele><time>2026-03-25T09:39:29Z</time></trkpt><trkpt lat="44.65282478880103" lon="10.936256343250186"><ele>33.666666666666664</ele><time>2026-03-25T09:39:30Z</time></trkpt><trkpt lat="44.65274680127919" lon="10.93652156336865"><ele>33.0</ele><time>2026-03-25T09:39:31Z</time></trkpt><trkpt lat="44.65266675551288" lon="10.936718611119879"><ele>32.666666666666664</ele><time>2026-03-25T09:39:32Z</time></trkpt><trkpt lat="44.65258018577223" lon="10.936971748885643"><ele>32.33333333333333</ele><time>2026-03-25T09:39:33Z</time></trkpt><trkpt lat="44.65249482186326" lon="10.93716944442122"><ele>32.0</ele><time>2026-03-25T09:39:34Z</time></trkpt><trkpt lat="44.65241882738315" lon="10.937362068033531"><ele>32.33333333333333</ele><time>2026-03-25T09:39:35Z</time></trkpt><trkpt lat="44.652348982184876" lon="10.937561171663768"><ele>32.666666666666664</ele><time>2026-03-25T09:39:36Z</time></trkpt><trkpt lat="44.65226930154928" lon="10.937760363204776"><ele>33.0</ele><time>2026-03-25T09:39:37Z</time></trkpt><trkpt lat="44.65218514127572" lon="10.937989026678382"><ele>33.0</ele><time>2026-03-25T09:39:38Z</time></trkpt><trkpt lat="44.652106193546835" lon="10.938225110490075"><ele>33.0</ele><time>2026-03-25T09:39:39Z</time></trkpt><trkpt lat="44.65201576332948" lon="10.938457012048147"><ele>33.0</ele><time>2026-03-25T09:39:40Z</time></trkpt><trkpt lat="44.651926156323455" lon="10.938683539155152"><ele>34.0</ele><time>2026-03-25T09:39:41Z</time></trkpt><trkpt lat="44.65183997643593" lon="10.938910805452497"><ele>35.0</ele><time>2026-03-25T09:39:42Z</time></trkpt><trkpt lat="44.65174796825045" lon="10.939140589546486"><ele>36.0</ele><time>2026-03-25T09:39:43Z</time></trkpt><trkpt lat="44.65165578765959" lon="10.93937703343673"><ele>36.0</ele><time>2026-03-25T09:39:44Z</time></trkpt><trkpt lat="44.65156702755428" lon="10.939617697763667"><ele>36.0</ele><time>2026-03-25T09:39:45Z</time></trkpt><trkpt lat="44.65147394212972" lon="10.939855797065599"><ele>36.0</ele><time>2026-03-25T09:39:46Z</time></trkpt><trkpt lat="44.651369102975906" lon="10.940093043581728"><ele>35.666666666666664</ele><time>2026-03-25T09:39:47Z</time></trkpt><trkpt lat="44.65127424957142" lon="10.940335936449372"><ele>35.33333333333333</ele><time>2026-03-25T09:39:48Z</time></trkpt><trkpt lat="44.65117155404464" lon="10.940578825848394"><ele>35.0</ele><time>2026-03-25T09:39:49Z</time></trkpt><trkpt lat="44.651065836012464" lon="10.940818338460568"><ele>34.666666666666664</ele><time>2026-03-25T09:39:50Z</time></trkpt><trkpt lat="44.65096749886946" lon="10.941070456258554"><ele>34.333333333333336</ele><time>2026-03-25T09:39:51Z</time></trkpt><trkpt lat="44.650874835124114" lon="10.941327525710724"><ele>34.0</ele><time>2026-03-25T09:39:52Z</time></trkpt><trkpt lat="44.65078264403219" lon="10.94159792024375"><ele>34.66666666666667</ele><time>2026-03-25T09:39:53Z</time></trkpt><trkpt lat="44.6507079134366" lon="10.941886316210379"><ele>35.333333333333336</ele><time>2026-03-25T09:39:54Z</time></trkpt><trkpt lat="44.65063985048019" lon="10.94217145441224"><ele>36.0</ele><time>2026-03-25T09:39:55Z</time></trkpt><trkpt lat="44.65054387781777" lon="10.942455401634115"><ele>35.5</ele><time>2026-03-25T09:39:56Z</time></trkpt><trkpt lat="44.650449846357795" lon="10.942747196033439"><ele>35.0</ele><time>2026-03-25T09:39:57Z</time></trkpt><trkpt lat="44.650355467072096" lon="10.943037981958488"><ele>34.5</ele><time>2026-03-25T09:39:58Z</time></trkpt><trkpt lat="44.650268846523026" lon="10.943331352587629"><ele>34.0</ele><time>2026-03-25T09:39:59Z</time></trkpt><trkpt lat="44.650176333919795" lon="10.943641727549222"><ele>34.0</ele><time>2026-03-25T09:40:00Z</time></trkpt><trkpt lat="44.65009585869238" lon="10.943945748972698"><ele>34.0</ele><time>2026-03-25T09:40:01Z</time></trkpt><trkpt lat="44.65001301962066" lon="10.944262015214019"><ele>34.0</ele><time>2026-03-25T09:40:02Z</time></trkpt><trkpt lat="44.64992550813406" lon="10.944577570175088"><ele>34.0</ele><time>2026-03-25T09:40:03Z</time></trkpt><trkpt lat="44.64981302512549" lon="10.944890460362895"><ele>33.0</ele><time>2026-03-25T09:40:04Z</time></trkpt><trkpt lat="44.649728089431065" lon="10.945217548180311"><ele>32.0</ele><time>2026-03-25T09:40:05Z</time></trkpt><trkpt lat="44.64962927350327" lon="10.94556972492985"><ele>32.0</ele><time>2026-03-25T09:40:06Z</time></trkpt><trkpt lat="44.649529076471794" lon="10.94589438880139"><ele>32.0</ele><time>2026-03-25T09:40:07Z</time></trkpt><trkpt lat="44.64943216404134" lon="10.946195940681243"><ele>30.0</ele><time>2026-03-25T09:40:08Z</time></trkpt><trkpt lat="44.649314539281626" lon="10.946500303346781"><ele>28.0</ele><time>2026-03-25T09:40:09Z</time></trkpt><trkpt lat="44.6492055648382" lon="10.946862693147386"><ele>27.0</ele><time>2026-03-25T09:40:10Z</time></trkpt><trkpt lat="44.64909522529042" lon="10.947220271583692"><ele>26.0</ele><time>2026-03-25T09:40:11Z</time></trkpt><trkpt lat="44.648993891839524" lon="10.947597681804066"><ele>25.5</ele><time>2026-03-25T09:40:12Z</time></trkpt><trkpt lat="44.6488933845647" lon="10.94797635272215"><ele>25.0</ele><time>2026-03-25T09:40:13Z</time></trkpt><trkpt lat="44.648784888107045" lon="10.948341558084977"><ele>26.5</ele><time>2026-03-25T09:40:14Z</time></trkpt><trkpt lat="44.64867427923843" lon="10.948719281973704"><ele>28.0</ele><time>2026-03-25T09:40:15Z</time></trkpt><trkpt lat="44.648568554966054" lon="10.949088306079377"><ele>29.0</ele><time>2026-03-25T09:40:16Z</time></trkpt><trkpt lat="44.648453871243284" lon="10.949472433066006"><ele>30.0</ele><time>2026-03-25T09:40:17Z</time></trkpt><trkpt lat="44.64833805431976" lon="10.949858117050015"><ele>29.0</ele><time>2026-03-25T09:40:18Z</time></trkpt><trkpt lat="44.64822039804093" lon="10.950243173718095"><ele>28.0</ele><time>2026-03-25T09:40:19Z</time></trkpt><trkpt lat="44.64809913240381" lon="10.950634993922424"><ele>27.5</ele><time>2026-03-25T09:40:20Z</time></trkpt><trkpt lat="44.64797916569374" lon="10.951028889411925"><ele>27.0</ele><time>2026-03-25T09:40:21Z</time></trkpt><trkpt lat="44.647855634410654" lon="10.951429034722478"><ele>26.5</ele><time>2026-03-25T09:40:22Z</time></trkpt><trkpt lat="44.6477333152395" lon="10.951833415864208"><ele>26.0</ele><time>2026-03-25T09:40:23Z</time></trkpt><trkpt lat="44.647615441159566" lon="10.95224019417089"><ele>28.0</ele><time>2026-03-25T09:40:24Z</time></trkpt><trkpt lat="44.647497207702635" lon="10.952643996016617"><ele>30.0</ele><time>2026-03-25T09:40:25Z</time></trkpt><trkpt lat="44.64737458887405" lon="10.95305815181157"><ele>30.0</ele><time>2026-03-25T09:40:26Z</time></trkpt><trkpt lat="44.6472572539063" lon="10.953462079639362"><ele>30.0</ele><time>2026-03-25T09:40:27Z</time></trkpt><trkpt lat="44.64713690590076" lon="10.953873259624427"><ele>30.0</ele><time>2026-03-25T09:40:28Z</time></trkpt><trkpt lat="44.64701527095572" lon="10.954289401900827"><ele>30.0</ele><time>2026-03-25T09:40:29Z</time></trkpt><trkpt lat="44.64689140634285" lon="10.954709822942588"><ele>30.0</ele><time>2026-03-25T09:40:30Z</time></trkpt><trkpt lat="44.64676514656745" lon="10.955128708078634"><ele>30.0</ele><time>2026-03-25T09:40:31Z</time></trkpt><trkpt lat="44.64664053715798" lon="10.955558985383725"><ele>29.5</ele><time>2026-03-25T09:40:32Z</time></trkpt><trkpt lat="44.64651489350229" lon="10.955984687084191"><ele>29.0</ele><time>2026-03-25T09:40:33Z</time></trkpt><trkpt lat="44.64638880366723" lon="10.956414221354486"><ele>29.0</ele><time>2026-03-25T09:40:34Z</time></trkpt><trkpt lat="44.64626232278604" lon="10.956845884680469"><ele>29.0</ele><time>2026-03-25T09:40:35Z</time></trkpt><trkpt lat="44.6461370272635" lon="10.957279941321795"><ele>29.5</ele><time>2026-03-25T09:40:36Z</time></trkpt><trkpt lat="44.64600988982994" lon="10.957713399880966"><ele>30.0</ele><time>2026-03-25T09:40:37Z</time></trkpt><trkpt lat="44.64588033224328" lon="10.958150724395868"><ele>30.0</ele><time>2026-03-25T09:40:38Z</time></trkpt><trkpt lat="44.645750630112175" lon="10.958590862104522"><ele>30.0</ele><time>2026-03-25T09:40:39Z</time></trkpt><trkpt lat="44.64562060702349" lon="10.95903555795944"><ele>31.0</ele><time>2026-03-25T09:40:40Z</time></trkpt><trkpt lat="44.64548149814238" lon="10.95949346931112"><ele>32.0</ele><time>2026-03-25T09:40:41Z</time></trkpt><trkpt lat="44.64534735994955" lon="10.95994427468361"><ele>31.5</ele><time>2026-03-25T09:40:42Z</time></trkpt><trkpt lat="44.64521158488683" lon="10.96040270104815"><ele>31.0</ele><time>2026-03-25T09:40:43Z</time></trkpt><trkpt lat="44.64507097700737" lon="10.96086962440759"><ele>31.0</ele><time>2026-03-25T09:40:44Z</time></trkpt><trkpt lat="44.644937926287206" lon="10.961325579846674"><ele>31.0</ele><time>2026-03-25T09:40:45Z</time></trkpt><trkpt lat="44.644803585131996" lon="10.961786241256789"><ele>30.0</ele><time>2026-03-25T09:40:46Z</time></trkpt><trkpt lat="44.64466712210678" lon="10.96223936527203"><ele>29.0</ele><time>2026-03-25T09:40:47Z</time></trkpt><trkpt lat="44.6445305990914" lon="10.962704581595506"><ele>29.5</ele><time>2026-03-25T09:40:48Z</time></trkpt><trkpt lat="44.64439473361767" lon="10.963165776107457"><ele>30.0</ele><time>2026-03-25T09:40:49Z</time></trkpt><trkpt lat="44.644255047379616" lon="10.963634841147645"><ele>30.0</ele><time>2026-03-25T09:40:50Z</time></trkpt><trkpt lat="44.64411978121344" lon="10.96410256329884"><ele>30.0</ele><time>2026-03-25T09:40:51Z</time></trkpt><trkpt lat="44.64398098950182" lon="10.96457407329927"><ele>29.0</ele><time>2026-03-25T09:40:52Z</time></trkpt><trkpt lat="44.64384105217742" lon="10.96504877289176"><ele>28.0</ele><time>2026-03-25T09:40:53Z</time></trkpt><trkpt lat="44.643699816356815" lon="10.965526884430966"><ele>28.5</ele><time>2026-03-25T09:40:54Z</time></trkpt><trkpt lat="44.643556753662374" lon="10.96600932308217"><ele>29.0</ele><time>2026-03-25T09:40:55Z</time></trkpt><trkpt lat="44.64341238977746" lon="10.96649347299363"><ele>29.0</ele><time>2026-03-25T09:40:56Z</time></trkpt><trkpt lat="44.64326907835024" lon="10.966979567526886"><ele>29.0</ele><time>2026-03-25T09:40:57Z</time></trkpt><trkpt lat="44.64312218260238" lon="10.967470712659413"><ele>28.0</ele><time>2026-03-25T09:40:58Z</time></trkpt><trkpt lat="44.642977306321846" lon="10.967960749597395"><ele>27.0</ele><time>2026-03-25T09:40:59Z</time></trkpt><trkpt lat="44.64283191603934" lon="10.968450099418046"><ele>28.0</ele><time>2026-03-25T09:41:00Z</time></trkpt><trkpt lat="44.64268298877363" lon="10.968937304408332"><ele>29.0</ele><time>2026-03-25T09:41:01Z</time></trkpt><trkpt lat="44.64253102107802" lon="10.969422336431872"><ele>29.0</ele><time>2026-03-25T09:41:02Z</time></trkpt><trkpt lat="44.642371823123185" lon="10.96990815808642"><ele>29.0</ele><time>2026-03-25T09:41:03Z</time></trkpt><trkpt lat="44.64220341749425" lon="10.970393719894918"><ele>29.5</ele><time>2026-03-25T09:41:04Z</time></trkpt><trkpt lat="44.64203210924161" lon="10.970876012890578"><ele>30.0</ele><time>2026-03-25T09:41:05Z</time></trkpt><trkpt lat="44.64185697281362" lon="10.971353676914264"><ele>30.5</ele><time>2026-03-25T09:41:06Z</time></trkpt><trkpt lat="44.641675828032" lon="10.971827632550719"><ele>31.0</ele><time>2026-03-25T09:41:07Z</time></trkpt><trkpt lat="44.64148901343209" lon="10.972298380583828"><ele>31.0</ele><time>2026-03-25T09:41:08Z</time></trkpt><trkpt lat="44.6412983386238" lon="10.972767054590104"><ele>31.0</ele><time>2026-03-25T09:41:09Z</time></trkpt><trkpt lat="44.64110327789762" lon="10.973230688603799"><ele>31.0</ele><time>2026-03-25T09:41:10Z</time></trkpt><trkpt lat="44.64090528453749" lon="10.973697490110375"><ele>31.0</ele><time>2026-03-25T09:41:11Z</time></trkpt><trkpt lat="44.64070748682283" lon="10.974167370021798"><ele>30.0</ele><time>2026-03-25T09:41:12Z</time></trkpt><trkpt lat="44.64050881727386" lon="10.974635979382398"><ele>29.0</ele><time>2026-03-25T09:41:13Z</time></trkpt><trkpt lat="44.640309627324044" lon="10.97510176400454"><ele>30.0</ele><time>2026-03-25T09:41:14Z</time></trkpt><trkpt lat="44.64010947201919" lon="10.975566074975992"><ele>31.0</ele><time>2026-03-25T09:41:15Z</time></trkpt><trkpt lat="44.639908549380706" lon="10.976030608179675"><ele>31.0</ele><time>2026-03-25T09:41:16Z</time></trkpt><trkpt lat="44.639704028687675" lon="10.976501578698695"><ele>31.0</ele><time>2026-03-25T09:41:17Z</time></trkpt><trkpt lat="44.63949868497232" lon="10.976972712873387"><ele>31.5</ele><time>2026-03-25T09:41:18Z</time></trkpt><trkpt lat="44.63929125754576" lon="10.977439087040032"><ele>32.0</ele><time>2026-03-25T09:41:19Z</time></trkpt><trkpt lat="44.63909063442502" lon="10.977902762054315"><ele>33.0</ele><time>2026-03-25T09:41:20Z</time></trkpt><trkpt lat="44.63889163232092" lon="10.978369381893488"><ele>34.0</ele><time>2026-03-25T09:41:21Z</time></trkpt><trkpt lat="44.6386914879875" lon="10.978836553452314"><ele>33.0</ele><time>2026-03-25T09:41:22Z</time></trkpt><trkpt lat="44.638492970235156" lon="10.97930082968281"><ele>32.0</ele><time>2026-03-25T09:41:23Z</time></trkpt><trkpt lat="44.6382938696964" lon="10.979768911568398"><ele>32.0</ele><time>2026-03-25T09:41:24Z</time></trkpt><trkpt lat="44.638107753660094" lon="10.980242963340043"><ele>32.0</ele><time>2026-03-25T09:41:25Z</time></trkpt><trkpt lat="44.63790443735021" lon="10.980711431590038"><ele>32.0</ele><time>2026-03-25T09:41:26Z</time></trkpt><trkpt lat="44.637702953878666" lon="10.98118231885428"><ele>32.0</ele><time>2026-03-25T09:41:27Z</time></trkpt><trkpt lat="44.6375031837182" lon="10.98164802405626"><ele>31.5</ele><time>2026-03-25T09:41:28Z</time></trkpt><trkpt lat="44.637303544843746" lon="10.98211306819105"><ele>31.0</ele><time>2026-03-25T09:41:29Z</time></trkpt><trkpt lat="44.637103106075685" lon="10.982582041478139"><ele>31.5</ele><time>2026-03-25T09:41:29.999Z</time></trkpt><trkpt lat="44.63690122785614" lon="10.983049461552321"><ele>32.0</ele><time>2026-03-25T09:41:30.999Z</time></trkpt><trkpt lat="44.63670115915697" lon="10.983516862202405"><ele>32.0</ele><time>2026-03-25T09:41:31.999Z</time></trkpt><trkpt lat="44.63650377121367" lon="10.983990349818589"><ele>32.0</ele><time>2026-03-25T09:41:32.999Z</time></trkpt><trkpt lat="44.63630091944016" lon="10.984460072109568"><ele>32.5</ele><time>2026-03-25T09:41:33.999Z</time></trkpt><trkpt lat="44.6360994295402" lon="10.984929737054964"><ele>33.0</ele><time>2026-03-25T09:41:34.999Z</time></trkpt><trkpt lat="44.63589936983656" lon="10.985400890439756"><ele>29.0</ele><time>2026-03-25T09:41:35.999Z</time></trkpt><trkpt lat="44.63570211950469" lon="10.985875492961599"><ele>25.0</ele><time>2026-03-25T09:41:36.999Z</time></trkpt><trkpt lat="44.63550346683694" lon="10.986351280067945"><ele>27.0</ele><time>2026-03-25T09:41:37.999Z</time></trkpt><trkpt lat="44.63530711483748" lon="10.986825593597876"><ele>29.0</ele><time>2026-03-25T09:41:38.999Z</time></trkpt><trkpt lat="44.63511049772324" lon="10.98729771949581"><ele>31.0</ele><time>2026-03-25T09:41:39.999Z</time></trkpt><trkpt lat="44.63491473179023" lon="10.98777211552828"><ele>33.0</ele><time>2026-03-25T09:41:40.999Z</time></trkpt><trkpt lat="44.63471795952415" lon="10.98825100572941"><ele>33.0</ele><time>2026-03-25T09:41:41.999Z</time></trkpt><trkpt lat="44.634513817943194" lon="10.988725961136753"><ele>33.0</ele><time>2026-03-25T09:41:42.999Z</time></trkpt><trkpt lat="44.634304720904865" lon="10.989202064027312"><ele>33.0</ele><time>2026-03-25T09:41:43.999Z</time></trkpt><trkpt lat="44.63409927810021" lon="10.989681309908715"><ele>33.0</ele><time>2026-03-25T09:41:44.999Z</time></trkpt><trkpt lat="44.633898973693846" lon="10.990162791213296"><ele>32.5</ele><time>2026-03-25T09:41:45.999Z</time></trkpt><trkpt lat="44.63369249496376" lon="10.990647581390055"><ele>32.0</ele><time>2026-03-25T09:41:46.999Z</time></trkpt><trkpt lat="44.63348282269678" lon="10.991127222061127"><ele>31.0</ele><time>2026-03-25T09:41:47.999Z</time></trkpt><trkpt lat="44.63326860864608" lon="10.99160550869137"><ele>30.0</ele><time>2026-03-25T09:41:48.999Z</time></trkpt><trkpt lat="44.63306466456608" lon="10.992087141725456"><ele>31.5</ele><time>2026-03-25T09:41:49.999Z</time></trkpt><trkpt lat="44.63285869746853" lon="10.992570439688503"><ele>33.0</ele><time>2026-03-25T09:41:50.999Z</time></trkpt><trkpt lat="44.63264945637289" lon="10.993052384116252"><ele>33.0</ele><time>2026-03-25T09:41:51.999Z</time></trkpt><trkpt lat="44.63244275112459" lon="10.993534182163812"><ele>33.0</ele><time>2026-03-25T09:41:52.999Z</time></trkpt><trkpt lat="44.63223602521726" lon="10.994016661245062"><ele>33.0</ele><time>2026-03-25T09:41:53.999Z</time></trkpt><trkpt lat="44.632026635242255" lon="10.994501481265036"><ele>33.0</ele><time>2026-03-25T09:41:54.999Z</time></trkpt><trkpt lat="44.63181940509005" lon="10.994988302247515"><ele>32.0</ele><time>2026-03-25T09:41:55.999Z</time></trkpt><trkpt lat="44.63161508222391" lon="10.99547468494371"><ele>31.0</ele><time>2026-03-25T09:41:56.999Z</time></trkpt><trkpt lat="44.63141003831713" lon="10.995960529233455"><ele>31.0</ele><time>2026-03-25T09:41:57.999Z</time></trkpt><trkpt lat="44.63120332106567" lon="10.996451751757876"><ele>31.0</ele><time>2026-03-25T09:41:58.999Z</time></trkpt><trkpt lat="44.63099884142951" lon="10.996939791953155"><ele>31.5</ele><time>2026-03-25T09:41:59.999Z</time></trkpt><trkpt lat="44.6307835788892" lon="10.997429950862237"><ele>32.0</ele><time>2026-03-25T09:42:00.999Z</time></trkpt><trkpt lat="44.630579833480425" lon="10.997912143172252"><ele>32.0</ele><time>2026-03-25T09:42:01.999Z</time></trkpt><trkpt lat="44.63037887014049" lon="10.998390175033766"><ele>32.0</ele><time>2026-03-25T09:42:02.999Z</time></trkpt><trkpt lat="44.63016741310905" lon="10.998890369785864"><ele>31.5</ele><time>2026-03-25T09:42:03.999Z</time></trkpt><trkpt lat="44.62996035399078" lon="10.999371678022648"><ele>31.0</ele><time>2026-03-25T09:42:04.999Z</time></trkpt><trkpt lat="44.629746604988675" lon="10.999860694692298"><ele>31.0</ele><time>2026-03-25T09:42:05.999Z</time></trkpt><trkpt lat="44.62954288110546" lon="11.000332544700877"><ele>31.0</ele><time>2026-03-25T09:42:06.999Z</time></trkpt><trkpt lat="44.62933874442233" lon="11.000810284777204"><ele>31.0</ele><time>2026-03-25T09:42:07.999Z</time></trkpt><trkpt lat="44.629136100631065" lon="11.001287457032436"><ele>31.0</ele><time>2026-03-25T09:42:08.999Z</time></trkpt><trkpt lat="44.62893287819673" lon="11.001762848466484"><ele>31.0</ele><time>2026-03-25T09:42:09.999Z</time></trkpt><trkpt lat="44.62873077103488" lon="11.00223166275765"><ele>31.0</ele><time>2026-03-25T09:42:10.999Z</time></trkpt><trkpt lat="44.62852781777256" lon="11.002696744417648"><ele>31.5</ele><time>2026-03-25T09:42:11.999Z</time></trkpt><trkpt lat="44.628327277202786" lon="11.003150713485077"><ele>32.0</ele><time>2026-03-25T09:42:12.999Z</time></trkpt><trkpt lat="44.62811073655841" lon="11.003607603596542"><ele>32.0</ele><time>2026-03-25T09:42:13.999Z</time></trkpt><trkpt lat="44.62789459839249" lon="11.004053162802368"><ele>32.0</ele><time>2026-03-25T09:42:14.999Z</time></trkpt><trkpt lat="44.6276612440901" lon="11.004496919129597"><ele>32.5</ele><time>2026-03-25T09:42:15.999Z</time></trkpt><trkpt lat="44.62742577724959" lon="11.004945810638628"><ele>33.0</ele><time>2026-03-25T09:42:16.999Z</time></trkpt><trkpt lat="44.62718808882186" lon="11.005377854803735"><ele>32.5</ele><time>2026-03-25T09:42:17.999Z</time></trkpt><trkpt lat="44.626915887246554" lon="11.00584354688535"><ele>32.0</ele><time>2026-03-25T09:42:18.999Z</time></trkpt><trkpt lat="44.62666902640062" lon="11.006289431694347"><ele>33.0</ele><time>2026-03-25T09:42:19.999Z</time></trkpt><trkpt lat="44.626426860149174" lon="11.00673018303547"><ele>34.0</ele><time>2026-03-25T09:42:20.999Z</time></trkpt><trkpt lat="44.62617790296507" lon="11.00717250521211"><ele>34.0</ele><time>2026-03-25T09:42:21.999Z</time></trkpt><trkpt lat="44.62592833684607" lon="11.007616251616357"><ele>34.0</ele><time>2026-03-25T09:42:22.999Z</time></trkpt><trkpt lat="44.625684620813836" lon="11.00805962842246"><ele>34.5</ele><time>2026-03-25T09:42:23.999Z</time></trkpt><trkpt lat="44.62543962724341" lon="11.008496222395046"><ele>35.0</ele><time>2026-03-25T09:42:24.999Z</time></trkpt><trkpt lat="44.62521221406309" lon="11.008923075097568"><ele>34.5</ele><time>2026-03-25T09:42:25.999Z</time></trkpt><trkpt lat="44.62497861452574" lon="11.009354609141912"><ele>34.0</ele><time>2026-03-25T09:42:26.999Z</time></trkpt><trkpt lat="44.624747130926956" lon="11.009785200279804"><ele>34.0</ele><time>2026-03-25T09:42:27.999Z</time></trkpt><trkpt lat="44.624515284815" lon="11.010233873691593"><ele>34.0</ele><time>2026-03-25T09:42:28.999Z</time></trkpt><trkpt lat="44.62426778693893" lon="11.010669025192726"><ele>33.5</ele><time>2026-03-25T09:42:29.999Z</time></trkpt><trkpt lat="44.62402383573301" lon="11.011108517021842"><ele>33.0</ele><time>2026-03-25T09:42:30.999Z</time></trkpt><trkpt lat="44.62377790403689" lon="11.011542165910132"><ele>33.5</ele><time>2026-03-25T09:42:31.999Z</time></trkpt><trkpt lat="44.62354035191657" lon="11.011979067897032"><ele>34.0</ele><time>2026-03-25T09:42:32.999Z</time></trkpt><trkpt lat="44.6232983086945" lon="11.012414550465428"><ele>34.0</ele><time>2026-03-25T09:42:33.999Z</time></trkpt><trkpt lat="44.62305434162704" lon="11.012852813021206"><ele>34.0</ele><time>2026-03-25T09:42:34.999Z</time></trkpt><trkpt lat="44.62280723244517" lon="11.01329730383877"><ele>33.0</ele><time>2026-03-25T09:42:35.999Z</time></trkpt><trkpt lat="44.62256515409635" lon="11.013738295892717"><ele>32.0</ele><time>2026-03-25T09:42:36.999Z</time></trkpt><trkpt lat="44.62232372428867" lon="11.014176921140944"><ele>32.0</ele><time>2026-03-25T09:42:37.999Z</time></trkpt><trkpt lat="44.62208303650874" lon="11.014610763277313"><ele>32.0</ele><time>2026-03-25T09:42:38.999Z</time></trkpt><trkpt lat="44.62185170183281" lon="11.015040684107955"><ele>33.0</ele><time>2026-03-25T09:42:39.999Z</time></trkpt><trkpt lat="44.621617196737134" lon="11.015463789369608"><ele>34.0</ele><time>2026-03-25T09:42:40.999Z</time></trkpt><trkpt lat="44.62138411870742" lon="11.015891395228918"><ele>33.0</ele><time>2026-03-25T09:42:41.999Z</time></trkpt><trkpt lat="44.621144890246704" lon="11.016311546345651"><ele>32.0</ele><time>2026-03-25T09:42:42.999Z</time></trkpt><trkpt lat="44.62091295017937" lon="11.016737220789775"><ele>31.5</ele><time>2026-03-25T09:42:43.999Z</time></trkpt><trkpt lat="44.62067953951169" lon="11.017162009806803"><ele>31.0</ele><time>2026-03-25T09:42:44.999Z</time></trkpt><trkpt lat="44.62044084609225" lon="11.017602752242585"><ele>32.5</ele><time>2026-03-25T09:42:45.999Z</time></trkpt><trkpt lat="44.62019851411789" lon="11.018040956242237"><ele>34.0</ele><time>2026-03-25T09:42:46.999Z</time></trkpt><trkpt lat="44.61995595140423" lon="11.018477683038354"><ele>34.0</ele><time>2026-03-25T09:42:47.999Z</time></trkpt><trkpt lat="44.61970591691845" lon="11.018927869296315"><ele>34.0</ele><time>2026-03-25T09:42:48.999Z</time></trkpt><trkpt lat="44.619460576163355" lon="11.019372384475478"><ele>34.5</ele><time>2026-03-25T09:42:49.999Z</time></trkpt><trkpt lat="44.61922002846103" lon="11.01980949551908"><ele>35.0</ele><time>2026-03-25T09:42:50.999Z</time></trkpt><trkpt lat="44.61898346166949" lon="11.020246742290965"><ele>35.5</ele><time>2026-03-25T09:42:51.999Z</time></trkpt><trkpt lat="44.618745256495" lon="11.020686882677738"><ele>36.0</ele><time>2026-03-25T09:42:52.999Z</time></trkpt><trkpt lat="44.61850377454863" lon="11.02112858565734"><ele>36.0</ele><time>2026-03-25T09:42:53.999Z</time></trkpt><trkpt lat="44.61826011360662" lon="11.021564416102802"><ele>36.0</ele><time>2026-03-25T09:42:54.999Z</time></trkpt><trkpt lat="44.618018427345326" lon="11.022002076927356"><ele>36.0</ele><time>2026-03-25T09:42:55.999Z</time></trkpt><trkpt lat="44.61778086362195" lon="11.022442225125214"><ele>36.0</ele><time>2026-03-25T09:42:56.999Z</time></trkpt><trkpt lat="44.6175448604188" lon="11.022882191149344"><ele>35.5</ele><time>2026-03-25T09:42:57.999Z</time></trkpt><trkpt lat="44.617305075993656" lon="11.023318927381709"><ele>35.0</ele><time>2026-03-25T09:42:58.999Z</time></trkpt><trkpt lat="44.6170667424715" lon="11.023756197393972"><ele>35.0</ele><time>2026-03-25T09:42:59.999Z</time></trkpt><trkpt lat="44.616826749238335" lon="11.024194634759443"><ele>35.0</ele><time>2026-03-25T09:43:00.999Z</time></trkpt><trkpt lat="44.61658566312953" lon="11.024631898323518"><ele>35.0</ele><time>2026-03-25T09:43:01.999Z</time></trkpt><trkpt lat="44.61634580296539" lon="11.02507040845802"><ele>35.0</ele><time>2026-03-25T09:43:02.999Z</time></trkpt><trkpt lat="44.61610488150189" lon="11.025507947942035"><ele>34.5</ele><time>2026-03-25T09:43:03.999Z</time></trkpt><trkpt lat="44.61586336566059" lon="11.025946848735757"><ele>34.0</ele><time>2026-03-25T09:43:04.999Z</time></trkpt><trkpt lat="44.61562193050645" lon="11.026384677226275"><ele>33.5</ele><time>2026-03-25T09:43:05.999Z</time></trkpt><trkpt lat="44.615381708558886" lon="11.026820925602406"><ele>33.0</ele><time>2026-03-25T09:43:06.999Z</time></trkpt><trkpt lat="44.61514216033169" lon="11.027255819351133"><ele>33.5</ele><time>2026-03-25T09:43:07.999Z</time></trkpt><trkpt lat="44.61490599977022" lon="11.02768565485423"><ele>34.0</ele><time>2026-03-25T09:43:08.999Z</time></trkpt><trkpt lat="44.614668376929686" lon="11.02811614923087"><ele>35.0</ele><time>2026-03-25T09:43:09.999Z</time></trkpt><trkpt lat="44.61443114111089" lon="11.02854538197008"><ele>36.0</ele><time>2026-03-25T09:43:10.999Z</time></trkpt><trkpt lat="44.614201991709216" lon="11.02896606793"><ele>36.0</ele><time>2026-03-25T09:43:11.999Z</time></trkpt><trkpt lat="44.613964971234026" lon="11.029377958298427"><ele>36.0</ele><time>2026-03-25T09:43:12.999Z</time></trkpt><trkpt lat="44.61372866402241" lon="11.029789167470309"><ele>36.0</ele><time>2026-03-25T09:43:13.999Z</time></trkpt><trkpt lat="44.613493132572934" lon="11.030200342549813"><ele>36.0</ele><time>2026-03-25T09:43:14.999Z</time></trkpt><trkpt lat="44.613248735612956" lon="11.03062435745395"><ele>36.0</ele><time>2026-03-25T09:43:15.999Z</time></trkpt><trkpt lat="44.61301884010584" lon="11.031067219751067"><ele>36.0</ele><time>2026-03-25T09:43:16.999Z</time></trkpt><trkpt lat="44.6127806547448" lon="11.031495547810254"><ele>37.0</ele><time>2026-03-25T09:43:17.999Z</time></trkpt><trkpt lat="44.61253148845585" lon="11.031899346974445"><ele>38.0</ele><time>2026-03-25T09:43:18.999Z</time></trkpt><trkpt lat="44.61225821440982" lon="11.032333340012007"><ele>38.0</ele><time>2026-03-25T09:43:20.077Z</time></trkpt><trkpt lat="44.61201919734194" lon="11.032736748939957"><ele>38.0</ele><time>2026-03-25T09:43:21.054Z</time></trkpt><trkpt lat="44.6117851797396" lon="11.033179402595993"><ele>38.0</ele><time>2026-03-25T09:43:22.05Z</time></trkpt><trkpt lat="44.611508202538865" lon="11.033635403040181"><ele>38.0</ele><time>2026-03-25T09:43:24.038Z</time></trkpt><trkpt lat="44.61129133135393" lon="11.034001633325719"><ele>38.5</ele><time>2026-03-25T09:43:25.037Z</time></trkpt><trkpt lat="44.61100011366685" lon="11.0343331437199"><ele>39.0</ele><time>2026-03-25T09:43:26.037Z</time></trkpt><trkpt lat="44.61077399988905" lon="11.034668517391566"><ele>39.0</ele><time>2026-03-25T09:43:27.034Z</time></trkpt><trkpt lat="44.610417566408614" lon="11.034972705431448"><ele>39.0</ele><time>2026-03-25T09:43:28.033Z</time></trkpt><trkpt lat="44.610163351547506" lon="11.03529611056284"><ele>39.0</ele><time>2026-03-25T09:43:29.035Z</time></trkpt><trkpt lat="44.60994159893669" lon="11.035627560822054"><ele>39.0</ele><time>2026-03-25T09:43:30.035Z</time></trkpt><trkpt lat="44.60970022029484" lon="11.035950927346754"><ele>39.5</ele><time>2026-03-25T09:43:31.032Z</time></trkpt><trkpt lat="44.60946943690316" lon="11.036276134045332"><ele>40.0</ele><time>2026-03-25T09:43:32.031Z</time></trkpt><trkpt lat="44.60923648005688" lon="11.036599701703345"><ele>39.0</ele><time>2026-03-25T09:43:33.033Z</time></trkpt><trkpt lat="44.609025113577545" lon="11.036925061295154"><ele>38.0</ele><time>2026-03-25T09:43:34.031Z</time></trkpt><trkpt lat="44.60880562090108" lon="11.037240828404041"><ele>38.0</ele><time>2026-03-25T09:43:35.011Z</time></trkpt><trkpt lat="44.608589071702276" lon="11.03756471414405"><ele>38.0</ele><time>2026-03-25T09:43:36.013Z</time></trkpt><trkpt lat="44.60836758573225" lon="11.037884516706976"><ele>38.0</ele><time>2026-03-25T09:43:37.013Z</time></trkpt><trkpt lat="44.60816236281783" lon="11.038207901807644"><ele>38.0</ele><time>2026-03-25T09:43:38.014Z</time></trkpt><trkpt lat="44.607950182023515" lon="11.038526856819072"><ele>38.5</ele><time>2026-03-25T09:43:39.013Z</time></trkpt><trkpt lat="44.60774154240639" lon="11.038845875855872"><ele>39.0</ele><time>2026-03-25T09:43:40.013Z</time></trkpt><trkpt lat="44.60052248512461" lon="11.04956833086241"><ele>40.0</ele><time>2026-03-25T09:45:43.014Z</time></trkpt><trkpt lat="44.52387968310836" lon="11.274526819140545"><ele>40.5</ele><time>2026-03-25T10:01:40Z</time></trkpt><trkpt lat="44.523730886107856" lon="11.274913386736094"><ele>41.0</ele><time>2026-03-25T10:01:41Z</time></trkpt><trkpt lat="44.523275245660464" lon="11.27498783352057"><ele>41.0</ele><time>2026-03-25T10:01:42Z</time></trkpt><trkpt lat="44.523053477708075" lon="11.275401388296169"><ele>41.0</ele><time>2026-03-25T10:01:42.999Z</time></trkpt><trkpt lat="44.52290719177959" lon="11.275780967635777"><ele>41.0</ele><time>2026-03-25T10:01:43.998Z</time></trkpt><trkpt lat="44.522743921732086" lon="11.276158135292746"><ele>41.0</ele><time>2026-03-25T10:01:45.004Z</time></trkpt><trkpt lat="44.52260108095314" lon="11.276541253742874"><ele>41.0</ele><time>2026-03-25T10:01:46.004Z</time></trkpt><trkpt lat="44.52245766566764" lon="11.276898248229768"><ele>41.0</ele><time>2026-03-25T10:01:47.004Z</time></trkpt><trkpt lat="44.522292862478885" lon="11.277281009685366"><ele>41.0</ele><time>2026-03-25T10:01:48.004Z</time></trkpt><trkpt lat="44.52213799989825" lon="11.277645805793505"><ele>41.0</ele><time>2026-03-25T10:01:49.004Z</time></trkpt><trkpt lat="44.52197376671002" lon="11.278012841175022"><ele>42.0</ele><time>2026-03-25T10:01:50.004Z</time></trkpt><trkpt lat="44.52183832748155" lon="11.278369997508415"><ele>43.0</ele><time>2026-03-25T10:01:51.003Z</time></trkpt><trkpt lat="44.52171658008631" lon="11.27876893038681"><ele>43.5</ele><time>2026-03-25T10:01:52.003Z</time></trkpt><trkpt lat="44.521598058087484" lon="11.27913698839484"><ele>44.0</ele><time>2026-03-25T10:01:53.003Z</time></trkpt><trkpt lat="44.52147889594999" lon="11.279503458632494"><ele>42.5</ele><time>2026-03-25T10:01:54.003Z</time></trkpt><trkpt lat="44.52135603874902" lon="11.279870910340808"><ele>41.0</ele><time>2026-03-25T10:01:55.003Z</time></trkpt><trkpt lat="44.52125745286929" lon="11.280256865837691"><ele>41.5</ele><time>2026-03-25T10:01:56.002Z</time></trkpt><trkpt lat="44.521186030107145" lon="11.28059985606111"><ele>42.0</ele><time>2026-03-25T10:01:57.002Z</time></trkpt><trkpt lat="44.52110705128645" lon="11.280942770872706"><ele>42.0</ele><time>2026-03-25T10:01:58.002Z</time></trkpt><trkpt lat="44.521008661869075" lon="11.281280050637628"><ele>42.0</ele><time>2026-03-25T10:01:59.002Z</time></trkpt><trkpt lat="44.52085741139577" lon="11.281641021111632"><ele>42.5</ele><time>2026-03-25T10:02:00.002Z</time></trkpt><trkpt lat="44.52073687553351" lon="11.281990959956417"><ele>43.0</ele><time>2026-03-25T10:02:01.002Z</time></trkpt><trkpt lat="44.520626317164165" lon="11.282345601323433"><ele>42.5</ele><time>2026-03-25T10:02:02.002Z</time></trkpt><trkpt lat="44.52050038804516" lon="11.282699730065527"><ele>42.0</ele><time>2026-03-25T10:02:03.001Z</time></trkpt><trkpt lat="44.52039271491497" lon="11.28304226140726"><ele>43.5</ele><time>2026-03-25T10:02:04.001Z</time></trkpt><trkpt lat="44.520289413646395" lon="11.283381460796974"><ele>45.0</ele><time>2026-03-25T10:02:05.001Z</time></trkpt><trkpt lat="44.52018758456283" lon="11.283718510834102"><ele>45.0</ele><time>2026-03-25T10:02:06.001Z</time></trkpt><trkpt lat="44.520087478509964" lon="11.284061371414126"><ele>45.0</ele><time>2026-03-25T10:02:07.001Z</time></trkpt><trkpt lat="44.51999423573601" lon="11.284393721247486"><ele>45.0</ele><time>2026-03-25T10:02:08.001Z</time></trkpt><trkpt lat="44.519898602258436" lon="11.284734506944213"><ele>45.0</ele><time>2026-03-25T10:02:09.001Z</time></trkpt><trkpt lat="44.519781664520046" lon="11.285063594266212"><ele>43.5</ele><time>2026-03-25T10:02:10.001Z</time></trkpt><trkpt lat="44.51966647521516" lon="11.285422562049119"><ele>42.0</ele><time>2026-03-25T10:02:11.001Z</time></trkpt><trkpt lat="44.519583506104674" lon="11.285753369601402"><ele>42.0</ele><time>2026-03-25T10:02:12.001Z</time></trkpt><trkpt lat="44.51950478112222" lon="11.286094756562074"><ele>42.0</ele><time>2026-03-25T10:02:13.001Z</time></trkpt><trkpt lat="44.5194252044979" lon="11.286407847084233"><ele>41.5</ele><time>2026-03-25T10:02:14.001Z</time></trkpt><trkpt lat="44.519339231680625" lon="11.286746231302368"><ele>41.0</ele><time>2026-03-25T10:02:15.001Z</time></trkpt><trkpt lat="44.519256718107606" lon="11.287071379808346"><ele>40.5</ele><time>2026-03-25T10:02:16.001Z</time></trkpt><trkpt lat="44.519172281676354" lon="11.287405713610083"><ele>40.0</ele><time>2026-03-25T10:02:17Z</time></trkpt><trkpt lat="44.51908454807509" lon="11.287742220142176"><ele>40.0</ele><time>2026-03-25T10:02:18Z</time></trkpt><trkpt lat="44.518999342098795" lon="11.288068413899685"><ele>40.0</ele><time>2026-03-25T10:02:19Z</time></trkpt><trkpt lat="44.518913665310684" lon="11.288397449006165"><ele>40.0</ele><time>2026-03-25T10:02:20Z</time></trkpt><trkpt lat="44.51882849984025" lon="11.288726008982117"><ele>40.0</ele><time>2026-03-25T10:02:21Z</time></trkpt><trkpt lat="44.518739627378345" lon="11.289047537541968"><ele>42.0</ele><time>2026-03-25T10:02:22Z</time></trkpt><trkpt lat="44.51865395479886" lon="11.289376227488896"><ele>44.0</ele><time>2026-03-25T10:02:23Z</time></trkpt><trkpt lat="44.51857076578194" lon="11.289698063906844"><ele>43.0</ele><time>2026-03-25T10:02:24Z</time></trkpt><trkpt lat="44.51848705942107" lon="11.290032456157073"><ele>42.0</ele><time>2026-03-25T10:02:25Z</time></trkpt><trkpt lat="44.5183937131996" lon="11.290367216019826"><ele>42.0</ele><time>2026-03-25T10:02:26Z</time></trkpt><trkpt lat="44.51831221729217" lon="11.290684585922435"><ele>42.0</ele><time>2026-03-25T10:02:27Z</time></trkpt><trkpt lat="44.51822600492176" lon="11.291008326463013"><ele>42.0</ele><time>2026-03-25T10:02:28Z</time></trkpt><trkpt lat="44.51814178706249" lon="11.291338189041362"><ele>42.0</ele><time>2026-03-25T10:02:29Z</time></trkpt><trkpt lat="44.51805877679413" lon="11.291665438174482"><ele>42.0</ele><time>2026-03-25T10:02:30Z</time></trkpt><trkpt lat="44.517972824499736" lon="11.291990470365647"><ele>42.0</ele><time>2026-03-25T10:02:31Z</time></trkpt><trkpt lat="44.517888071703375" lon="11.29231431704109"><ele>42.0</ele><time>2026-03-25T10:02:32Z</time></trkpt><trkpt lat="44.517802198956716" lon="11.292640950173826"><ele>42.0</ele><time>2026-03-25T10:02:33Z</time></trkpt><trkpt lat="44.51771852753767" lon="11.292965432126426"><ele>42.5</ele><time>2026-03-25T10:02:34Z</time></trkpt><trkpt lat="44.51763151446825" lon="11.293288108013623"><ele>43.0</ele><time>2026-03-25T10:02:35Z</time></trkpt><trkpt lat="44.51754387952328" lon="11.293610063374613"><ele>42.5</ele><time>2026-03-25T10:02:36Z</time></trkpt><trkpt lat="44.517460269437365" lon="11.293933809889229"><ele>42.0</ele><time>2026-03-25T10:02:37Z</time></trkpt><trkpt lat="44.517376099753015" lon="11.294253180497803"><ele>42.0</ele><time>2026-03-25T10:02:38Z</time></trkpt><trkpt lat="44.5172869222618" lon="11.294575103116323"><ele>42.0</ele><time>2026-03-25T10:02:39Z</time></trkpt><trkpt lat="44.51720517244921" lon="11.294895576120389"><ele>42.5</ele><time>2026-03-25T10:02:40Z</time></trkpt><trkpt lat="44.51712746016144" lon="11.295218485544305"><ele>43.0</ele><time>2026-03-25T10:02:41Z</time></trkpt><trkpt lat="44.51705108352904" lon="11.295547882994054"><ele>42.0</ele><time>2026-03-25T10:02:42Z</time></trkpt><trkpt lat="44.51695573488278" lon="11.295891622118523"><ele>41.0</ele><time>2026-03-25T10:02:43Z</time></trkpt><trkpt lat="44.516878260074584" lon="11.296201155109562"><ele>42.0</ele><time>2026-03-25T10:02:44Z</time></trkpt><trkpt lat="44.51679390124262" lon="11.296517019493109"><ele>43.0</ele><time>2026-03-25T10:02:45Z</time></trkpt><trkpt lat="44.516698495169386" lon="11.29684854271403"><ele>43.0</ele><time>2026-03-25T10:02:46Z</time></trkpt><trkpt lat="44.516606780126295" lon="11.297166846188649"><ele>43.0</ele><time>2026-03-25T10:02:47Z</time></trkpt><trkpt lat="44.51652291260665" lon="11.297471425635418"><ele>40.5</ele><time>2026-03-25T10:02:48Z</time></trkpt><trkpt lat="44.51644212050125" lon="11.297780653104757"><ele>38.0</ele><time>2026-03-25T10:02:49Z</time></trkpt><trkpt lat="44.51635668377866" lon="11.298088511206885"><ele>38.0</ele><time>2026-03-25T10:02:50Z</time></trkpt><trkpt lat="44.51627349439191" lon="11.29838719640579"><ele>38.0</ele><time>2026-03-25T10:02:51Z</time></trkpt><trkpt lat="44.51619127884933" lon="11.298696034473748"><ele>39.0</ele><time>2026-03-25T10:02:52Z</time></trkpt><trkpt lat="44.5161073964938" lon="11.298999174762619"><ele>40.0</ele><time>2026-03-25T10:02:53Z</time></trkpt><trkpt lat="44.516028110754824" lon="11.299295067007517"><ele>40.0</ele><time>2026-03-25T10:02:54Z</time></trkpt><trkpt lat="44.51594787168426" lon="11.299594861401282"><ele>40.0</ele><time>2026-03-25T10:02:55Z</time></trkpt><trkpt lat="44.51587118339423" lon="11.29989392475837"><ele>40.333333333333336</ele><time>2026-03-25T10:02:56Z</time></trkpt><trkpt lat="44.51577965170106" lon="11.30018143777556"><ele>40.666666666666664</ele><time>2026-03-25T10:02:57Z</time></trkpt><trkpt lat="44.51569866246944" lon="11.300474527924726"><ele>41.0</ele><time>2026-03-25T10:02:58Z</time></trkpt><trkpt lat="44.51562396181287" lon="11.30076792158108"><ele>41.5</ele><time>2026-03-25T10:02:59Z</time></trkpt><trkpt lat="44.51553375760995" lon="11.301076904142823"><ele>42.0</ele><time>2026-03-25T10:03:00Z</time></trkpt><trkpt lat="44.51544605865651" lon="11.301366657808405"><ele>42.0</ele><time>2026-03-25T10:03:01Z</time></trkpt><trkpt lat="44.515356176378916" lon="11.301668791841701"><ele>42.0</ele><time>2026-03-25T10:03:02Z</time></trkpt><trkpt lat="44.51527143539817" lon="11.30196411294731"><ele>42.0</ele><time>2026-03-25T10:03:03Z</time></trkpt><trkpt lat="44.515201540253116" lon="11.302219546426938"><ele>42.0</ele><time>2026-03-25T10:03:04Z</time></trkpt><trkpt lat="44.515135148721065" lon="11.302495237854172"><ele>42.0</ele><time>2026-03-25T10:03:05Z</time></trkpt><trkpt lat="44.515061825302396" lon="11.302803642599804"><ele>42.666666666666664</ele><time>2026-03-25T10:03:06Z</time></trkpt><trkpt lat="44.51498957065748" lon="11.303075242429648"><ele>43.33333333333333</ele><time>2026-03-25T10:03:07Z</time></trkpt><trkpt lat="44.51491720885902" lon="11.30332871237251"><ele>44.0</ele><time>2026-03-25T10:03:08Z</time></trkpt><trkpt lat="44.514857682302754" lon="11.303584726159116"><ele>44.0</ele><time>2026-03-25T10:03:09Z</time></trkpt><trkpt lat="44.5147988196268" lon="11.303847268540656"><ele>44.0</ele><time>2026-03-25T10:03:10Z</time></trkpt><trkpt lat="44.51473345027688" lon="11.304118240454224"><ele>44.0</ele><time>2026-03-25T10:03:11Z</time></trkpt><trkpt lat="44.51466775975244" lon="11.304391311801831"><ele>43.666666666666664</ele><time>2026-03-25T10:03:12Z</time></trkpt><trkpt lat="44.51460496584929" lon="11.30464373341998"><ele>43.333333333333336</ele><time>2026-03-25T10:03:13Z</time></trkpt><trkpt lat="44.51454583195149" lon="11.304898808875675"><ele>43.0</ele><time>2026-03-25T10:03:14Z</time></trkpt><trkpt lat="44.51448324463615" lon="11.305169108003739"><ele>42.66666666666667</ele><time>2026-03-25T10:03:15Z</time></trkpt><trkpt lat="44.514420949341506" lon="11.305431026393522"><ele>42.333333333333336</ele><time>2026-03-25T10:03:16Z</time></trkpt><trkpt lat="44.51436487425685" lon="11.305652943549443"><ele>42.0</ele><time>2026-03-25T10:03:17Z</time></trkpt><trkpt lat="44.51430111552758" lon="11.305900060327627"><ele>42.0</ele><time>2026-03-25T10:03:18Z</time></trkpt><trkpt lat="44.51423688595426" lon="11.306136756357931"><ele>42.0</ele><time>2026-03-25T10:03:19Z</time></trkpt><trkpt lat="44.514178112135525" lon="11.306391436879904"><ele>42.0</ele><time>2026-03-25T10:03:20Z</time></trkpt><trkpt lat="44.51411839174411" lon="11.306630093873721"><ele>42.333333333333336</ele><time>2026-03-25T10:03:21Z</time></trkpt><trkpt lat="44.51406011980298" lon="11.306892154597428"><ele>42.66666666666667</ele><time>2026-03-25T10:03:22Z</time></trkpt><trkpt lat="44.51399853590735" lon="11.30717773534142"><ele>43.0</ele><time>2026-03-25T10:03:23Z</time></trkpt><trkpt lat="44.51393787869441" lon="11.307415741346972"><ele>43.0</ele><time>2026-03-25T10:03:24Z</time></trkpt><trkpt lat="44.513876853612466" lon="11.307652036472756"><ele>43.0</ele><time>2026-03-25T10:03:25Z</time></trkpt><trkpt lat="44.513819974833844" lon="11.307894042681626"><ele>43.0</ele><time>2026-03-25T10:03:25.999Z</time></trkpt><trkpt lat="44.51376610964708" lon="11.30812289749345"><ele>42.66666666666667</ele><time>2026-03-25T10:03:26.999Z</time></trkpt><trkpt lat="44.513706394885375" lon="11.308331876188051"><ele>42.333333333333336</ele><time>2026-03-25T10:03:27.999Z</time></trkpt><trkpt lat="44.513659801212434" lon="11.308533556371941"><ele>42.0</ele><time>2026-03-25T10:03:28.999Z</time></trkpt><trkpt lat="44.513600046885294" lon="11.308729209067032"><ele>42.333333333333336</ele><time>2026-03-25T10:03:29.999Z</time></trkpt><trkpt lat="44.51355258501159" lon="11.308939881755112"><ele>42.66666666666667</ele><time>2026-03-25T10:03:30.999Z</time></trkpt><trkpt lat="44.51350153515444" lon="11.309143429808971"><ele>43.0</ele><time>2026-03-25T10:03:31.999Z</time></trkpt><trkpt lat="44.513445644493146" lon="11.309341465206797"><ele>43.0</ele><time>2026-03-25T10:03:32.999Z</time></trkpt><trkpt lat="44.51338353401208" lon="11.309550686643956"><ele>43.0</ele><time>2026-03-25T10:03:33.999Z</time></trkpt><trkpt lat="44.5133279956139" lon="11.309755701517208"><ele>43.0</ele><time>2026-03-25T10:03:34.999Z</time></trkpt><trkpt lat="44.51327056980143" lon="11.309961400195817"><ele>42.66666666666667</ele><time>2026-03-25T10:03:35.999Z</time></trkpt><trkpt lat="44.513210796449904" lon="11.310168479950592"><ele>42.333333333333336</ele><time>2026-03-25T10:03:36.999Z</time></trkpt><trkpt lat="44.51314989682452" lon="11.310388684815186"><ele>42.0</ele><time>2026-03-25T10:03:37.999Z</time></trkpt><trkpt lat="44.51308634834115" lon="11.310617598998304"><ele>42.666666666666664</ele><time>2026-03-25T10:03:38.999Z</time></trkpt><trkpt lat="44.51303077415871" lon="11.310833426432795"><ele>43.33333333333333</ele><time>2026-03-25T10:03:39.999Z</time></trkpt><trkpt lat="44.51297550306534" lon="11.311047705679355"><ele>44.0</ele><time>2026-03-25T10:03:40.999Z</time></trkpt><trkpt lat="44.5129246721491" lon="11.311263966295455"><ele>43.0</ele><time>2026-03-25T10:03:41.999Z</time></trkpt><trkpt lat="44.51286833578537" lon="11.311480828587882"><ele>42.0</ele><time>2026-03-25T10:03:42.999Z</time></trkpt><trkpt lat="44.51281237260173" lon="11.311692575232152"><ele>41.0</ele><time>2026-03-25T10:03:43.999Z</time></trkpt><trkpt lat="44.512752591065826" lon="11.311896290814305"><ele>41.0</ele><time>2026-03-25T10:03:44.999Z</time></trkpt><trkpt lat="44.512695109435775" lon="11.312106934537034"><ele>41.0</ele><time>2026-03-25T10:03:45.999Z</time></trkpt><trkpt lat="44.5126452832926" lon="11.312322616412523"><ele>41.0</ele><time>2026-03-25T10:03:46.999Z</time></trkpt><trkpt lat="44.51258700237135" lon="11.312536817093738"><ele>40.33333333333333</ele><time>2026-03-25T10:03:47.999Z</time></trkpt><trkpt lat="44.51252942838863" lon="11.312748968746318"><ele>39.666666666666664</ele><time>2026-03-25T10:03:48.999Z</time></trkpt><trkpt lat="44.512471088852166" lon="11.312967371866787"><ele>39.0</ele><time>2026-03-25T10:03:50Z</time></trkpt><trkpt lat="44.51241320935191" lon="11.313173617981983"><ele>39.0</ele><time>2026-03-25T10:03:51Z</time></trkpt><trkpt lat="44.51235776225875" lon="11.313387950895672"><ele>39.0</ele><time>2026-03-25T10:03:52Z</time></trkpt><trkpt lat="44.51230086172113" lon="11.313601369627087"><ele>39.0</ele><time>2026-03-25T10:03:53Z</time></trkpt><trkpt lat="44.512242246102524" lon="11.313815602922151"><ele>38.666666666666664</ele><time>2026-03-25T10:03:54Z</time></trkpt><trkpt lat="44.512187875582285" lon="11.314027164676009"><ele>38.33333333333333</ele><time>2026-03-25T10:03:55Z</time></trkpt><trkpt lat="44.51213157696356" lon="11.314242346549012"><ele>38.0</ele><time>2026-03-25T10:03:56Z</time></trkpt><trkpt lat="44.51207607935182" lon="11.314458623925956"><ele>38.666666666666664</ele><time>2026-03-25T10:03:57Z</time></trkpt><trkpt lat="44.5120199816848" lon="11.314674026688513"><ele>39.333333333333336</ele><time>2026-03-25T10:03:58Z</time></trkpt><trkpt lat="44.51196403379419" lon="11.314888992219593"><ele>40.0</ele><time>2026-03-25T10:03:59Z</time></trkpt><trkpt lat="44.51191028377776" lon="11.315102814841024"><ele>40.0</ele><time>2026-03-25T10:04:00Z</time></trkpt><trkpt lat="44.51185863572549" lon="11.315319998100877"><ele>40.0</ele><time>2026-03-25T10:04:01Z</time></trkpt><trkpt lat="44.51179980701839" lon="11.315523591450724"><ele>40.0</ele><time>2026-03-25T10:04:02Z</time></trkpt><trkpt lat="44.511739367060066" lon="11.315726419517453"><ele>39.66666666666667</ele><time>2026-03-25T10:04:03Z</time></trkpt><trkpt lat="44.511679760825295" lon="11.315929693400335"><ele>39.333333333333336</ele><time>2026-03-25T10:04:04Z</time></trkpt><trkpt lat="44.51161892241887" lon="11.316133909288167"><ele>39.0</ele><time>2026-03-25T10:04:05Z</time></trkpt><trkpt lat="44.51156855123811" lon="11.316326102088235"><ele>39.0</ele><time>2026-03-25T10:04:06Z</time></trkpt><trkpt lat="44.51151528480227" lon="11.31650918260452"><ele>39.0</ele><time>2026-03-25T10:04:07Z</time></trkpt><trkpt lat="44.511468834165214" lon="11.316696004712663"><ele>39.0</ele><time>2026-03-25T10:04:08Z</time></trkpt><trkpt lat="44.51142165002973" lon="11.316882187507378"><ele>39.0</ele><time>2026-03-25T10:04:09Z</time></trkpt><trkpt lat="44.51137241604552" lon="11.317068309356715"><ele>39.0</ele><time>2026-03-25T10:04:10Z</time></trkpt><trkpt lat="44.511320392700306" lon="11.317250329061933"><ele>39.0</ele><time>2026-03-25T10:04:11Z</time></trkpt><trkpt lat="44.511273738906084" lon="11.317429173900557"><ele>39.0</ele><time>2026-03-25T10:04:12Z</time></trkpt><trkpt lat="44.51122452927767" lon="11.317611317151272"><ele>39.0</ele><time>2026-03-25T10:04:13Z</time></trkpt><trkpt lat="44.51117855231018" lon="11.31777587924751"><ele>39.0</ele><time>2026-03-25T10:04:14Z</time></trkpt><trkpt lat="44.511125807588925" lon="11.31793969336992"><ele>39.0</ele><time>2026-03-25T10:04:15Z</time></trkpt><trkpt lat="44.51108154300007" lon="11.318099251945402"><ele>39.0</ele><time>2026-03-25T10:04:16Z</time></trkpt><trkpt lat="44.511050083219686" lon="11.318252125963072"><ele>39.0</ele><time>2026-03-25T10:04:17Z</time></trkpt><trkpt lat="44.51101671982207" lon="11.318393438298159"><ele>38.8</ele><time>2026-03-25T10:04:18Z</time></trkpt><trkpt lat="44.51097767340422" lon="11.318541678181644"><ele>38.599999999999994</ele><time>2026-03-25T10:04:19Z</time></trkpt><trkpt lat="44.510938215074646" lon="11.31869295487986"><ele>38.4</ele><time>2026-03-25T10:04:20Z</time></trkpt><trkpt lat="44.51089931831873" lon="11.318839385590659"><ele>38.199999999999996</ele><time>2026-03-25T10:04:21Z</time></trkpt><trkpt lat="44.510864263580025" lon="11.318982720656672"><ele>38.0</ele><time>2026-03-25T10:04:22Z</time></trkpt><trkpt lat="44.510828840403455" lon="11.319127381424458"><ele>38.0</ele><time>2026-03-25T10:04:23Z</time></trkpt><trkpt lat="44.51079556747429" lon="11.319264218861042"><ele>38.0</ele><time>2026-03-25T10:04:24Z</time></trkpt><trkpt lat="44.510770549958444" lon="11.319396218792901"><ele>38.0</ele><time>2026-03-25T10:04:25Z</time></trkpt><trkpt lat="44.51073376773454" lon="11.319532524196397"><ele>38.0</ele><time>2026-03-25T10:04:26Z</time></trkpt><trkpt lat="44.510696615567966" lon="11.319665477765149"><ele>38.0</ele><time>2026-03-25T10:04:27Z</time></trkpt><trkpt lat="44.51066475910334" lon="11.319798390873462"><ele>38.199999999999996</ele><time>2026-03-25T10:04:28Z</time></trkpt><trkpt lat="44.51063446939486" lon="11.31992567703381"><ele>38.4</ele><time>2026-03-25T10:04:29Z</time></trkpt><trkpt lat="44.51060554769295" lon="11.32004945663835"><ele>38.599999999999994</ele><time>2026-03-25T10:04:30Z</time></trkpt><trkpt lat="44.510574461917685" lon="11.32017838840315"><ele>38.8</ele><time>2026-03-25T10:04:31Z</time></trkpt><trkpt lat="44.51054078270664" lon="11.32030378828337"><ele>39.0</ele><time>2026-03-25T10:04:32Z</time></trkpt><trkpt lat="44.51051125846207" lon="11.320428157842036"><ele>39.0</ele><time>2026-03-25T10:04:33Z</time></trkpt><trkpt lat="44.51047914820573" lon="11.320548073387378"><ele>39.0</ele><time>2026-03-25T10:04:34Z</time></trkpt><trkpt lat="44.51045473807774" lon="11.320658054242552"><ele>39.0</ele><time>2026-03-25T10:04:35Z</time></trkpt><trkpt lat="44.51042885029896" lon="11.320770663900165"><ele>39.0</ele><time>2026-03-25T10:04:36Z</time></trkpt><trkpt lat="44.510402195006954" lon="11.320890916802"><ele>39.0</ele><time>2026-03-25T10:04:37Z</time></trkpt><trkpt lat="44.51035552068187" lon="11.32098633859012"><ele>39.0</ele><time>2026-03-25T10:04:38Z</time></trkpt><trkpt lat="44.51033807951017" lon="11.32110896850476"><ele>39.0</ele><time>2026-03-25T10:04:39Z</time></trkpt><trkpt lat="44.510306512733855" lon="11.321220866258423"><ele>39.0</ele><time>2026-03-25T10:04:40Z</time></trkpt><trkpt lat="44.510279991977875" lon="11.321322471061888"><ele>39.0</ele><time>2026-03-25T10:04:41Z</time></trkpt><trkpt lat="44.510246975809565" lon="11.321416462055035"><ele>39.0</ele><time>2026-03-25T10:04:42Z</time></trkpt><trkpt lat="44.51021664853157" lon="11.321598238667134"><ele>39.0</ele><time>2026-03-25T10:04:44Z</time></trkpt><trkpt lat="44.51018450283698" lon="11.321705570371323"><ele>39.0</ele><time>2026-03-25T10:04:45Z</time></trkpt><trkpt lat="44.51014414091077" lon="11.321828078853134"><ele>39.0</ele><time>2026-03-25T10:04:46Z</time></trkpt><trkpt lat="44.51012200422119" lon="11.321938053919249"><ele>39.0</ele><time>2026-03-25T10:04:47Z</time></trkpt><trkpt lat="44.510084541065595" lon="11.322041106914204"><ele>39.0</ele><time>2026-03-25T10:04:48Z</time></trkpt><trkpt lat="44.510055534601335" lon="11.32214443789132"><ele>39.0</ele><time>2026-03-25T10:04:49Z</time></trkpt><trkpt lat="44.51002657118482" lon="11.322227192316472"><ele>39.0</ele><time>2026-03-25T10:04:50Z</time></trkpt><trkpt lat="44.51000753824076" lon="11.322318283708"><ele>38.8</ele><time>2026-03-25T10:04:51Z</time></trkpt><trkpt lat="44.509949003922166" lon="11.322493402514368"><ele>38.599999999999994</ele><time>2026-03-25T10:04:53Z</time></trkpt><trkpt lat="44.509924983409284" lon="11.322587828702348"><ele>38.4</ele><time>2026-03-25T10:04:54Z</time></trkpt><trkpt lat="44.5098974487189" lon="11.32270320018114"><ele>38.199999999999996</ele><time>2026-03-25T10:04:55Z</time></trkpt><trkpt lat="44.50986536409148" lon="11.322828186161518"><ele>38.0</ele><time>2026-03-25T10:04:56Z</time></trkpt><trkpt lat="44.509832621570865" lon="11.322914076915632"><ele>38.0</ele><time>2026-03-25T10:04:57Z</time></trkpt><trkpt lat="44.50980479552531" lon="11.323018675315774"><ele>38.0</ele><time>2026-03-25T10:04:58Z</time></trkpt><trkpt lat="44.50977741949676" lon="11.323115251488355"><ele>38.0</ele><time>2026-03-25T10:04:59Z</time></trkpt><trkpt lat="44.509746025420775" lon="11.323204348030018"><ele>38.0</ele><time>2026-03-25T10:05:00Z</time></trkpt><trkpt lat="44.509712290751715" lon="11.323308119469424"><ele>38.0</ele><time>2026-03-25T10:05:01Z</time></trkpt><trkpt lat="44.509678551912174" lon="11.323424077702276"><ele>38.0</ele><time>2026-03-25T10:05:02Z</time></trkpt><trkpt lat="44.50965292705072" lon="11.323512487758398"><ele>38.0</ele><time>2026-03-25T10:05:03Z</time></trkpt><trkpt lat="44.50963415215238" lon="11.323605324198807"><ele>38.0</ele><time>2026-03-25T10:05:04Z</time></trkpt><trkpt lat="44.50961361135751" lon="11.323707663666676"><ele>38.0</ele><time>2026-03-25T10:05:05Z</time></trkpt><trkpt lat="44.50958004613783" lon="11.323794039883266"><ele>38.0</ele><time>2026-03-25T10:05:06Z</time></trkpt><trkpt lat="44.50955314629853" lon="11.323886285265708"><ele>38.0</ele><time>2026-03-25T10:05:07Z</time></trkpt><trkpt lat="44.509527376774564" lon="11.323979875152798"><ele>38.0</ele><time>2026-03-25T10:05:08Z</time></trkpt><trkpt lat="44.50950786870655" lon="11.324079284170782"><ele>38.0</ele><time>2026-03-25T10:05:09Z</time></trkpt><trkpt lat="44.509491612007515" lon="11.324193278236468"><ele>38.0</ele><time>2026-03-25T10:05:10Z</time></trkpt><trkpt lat="44.50946311488943" lon="11.324289439999868"><ele>38.0</ele><time>2026-03-25T10:05:11Z</time></trkpt><trkpt lat="44.509439881786065" lon="11.324392717059336"><ele>38.0</ele><time>2026-03-25T10:05:12Z</time></trkpt><trkpt lat="44.509417266524764" lon="11.324488970573722"><ele>38.0</ele><time>2026-03-25T10:05:13Z</time></trkpt><trkpt lat="44.50938167064515" lon="11.32459170283261"><ele>38.0</ele><time>2026-03-25T10:05:14Z</time></trkpt><trkpt lat="44.50934682396037" lon="11.324680256569414"><ele>38.0</ele><time>2026-03-25T10:05:15Z</time></trkpt><trkpt lat="44.50932861696744" lon="11.324785400263996"><ele>38.0</ele><time>2026-03-25T10:05:16Z</time></trkpt><trkpt lat="44.50929431105326" lon="11.324935526212927"><ele>38.0</ele><time>2026-03-25T10:05:18Z</time></trkpt><trkpt lat="44.50926746800848" lon="11.32501564173558"><ele>38.0</ele><time>2026-03-25T10:05:19Z</time></trkpt><trkpt lat="44.50922063683057" lon="11.325164541658204"><ele>38.0</ele><time>2026-03-25T10:05:21Z</time></trkpt><trkpt lat="44.50919403660845" lon="11.325244709705972"><ele>38.0</ele><time>2026-03-25T10:05:22Z</time></trkpt><trkpt lat="44.50916961430824" lon="11.325335624908016"><ele>38.0</ele><time>2026-03-25T10:05:23Z</time></trkpt><trkpt lat="44.5091125221083" lon="11.325489536069904"><ele>38.33333333333333</ele><time>2026-03-25T10:05:25Z</time></trkpt><trkpt lat="44.50908238290176" lon="11.325574985903636"><ele>38.666666666666664</ele><time>2026-03-25T10:05:26Z</time></trkpt><trkpt lat="44.509023904629565" lon="11.325735271245314"><ele>39.0</ele><time>2026-03-25T10:05:28Z</time></trkpt><trkpt lat="44.50898502627633" lon="11.325819570833614"><ele>39.333333333333336</ele><time>2026-03-25T10:05:29Z</time></trkpt><trkpt lat="44.508949096968585" lon="11.325906035481966"><ele>39.66666666666667</ele><time>2026-03-25T10:05:30Z</time></trkpt><trkpt lat="44.508912449532524" lon="11.325997911512825"><ele>40.0</ele><time>2026-03-25T10:05:31Z</time></trkpt><trkpt lat="44.50887696218205" lon="11.326094675547234"><ele>40.0</ele><time>2026-03-25T10:05:32Z</time></trkpt><trkpt lat="44.50884389975255" lon="11.326174978840138"><ele>40.0</ele><time>2026-03-25T10:05:33Z</time></trkpt><trkpt lat="44.50880556165524" lon="11.326264546723984"><ele>40.0</ele><time>2026-03-25T10:05:34Z</time></trkpt><trkpt lat="44.50877013593885" lon="11.326355195104213"><ele>40.0</ele><time>2026-03-25T10:05:35Z</time></trkpt><trkpt lat="44.508732458721276" lon="11.32645024792972"><ele>40.0</ele><time>2026-03-25T10:05:36Z</time></trkpt><trkpt lat="44.5086984704753" lon="11.326557251407673"><ele>40.0</ele><time>2026-03-25T10:05:37Z</time></trkpt><trkpt lat="44.5086568044774" lon="11.326658491581206"><ele>40.0</ele><time>2026-03-25T10:05:38Z</time></trkpt><trkpt lat="44.508615917715105" lon="11.326742191162996"><ele>40.0</ele><time>2026-03-25T10:05:39Z</time></trkpt><trkpt lat="44.50857929058672" lon="11.326829757708197"><ele>40.0</ele><time>2026-03-25T10:05:40Z</time></trkpt><trkpt lat="44.5085465461351" lon="11.326916035437765"><ele>40.0</ele><time>2026-03-25T10:05:41Z</time></trkpt><trkpt lat="44.50850856799164" lon="11.327003375026358"><ele>40.0</ele><time>2026-03-25T10:05:42Z</time></trkpt><trkpt lat="44.50847261018502" lon="11.32708770989142"><ele>40.0</ele><time>2026-03-25T10:05:43Z</time></trkpt><trkpt lat="44.50843988466079" lon="11.327174445489273"><ele>40.0</ele><time>2026-03-25T10:05:44Z</time></trkpt><trkpt lat="44.50840451791965" lon="11.327268063913946"><ele>40.0</ele><time>2026-03-25T10:05:45Z</time></trkpt><trkpt lat="44.508370373003736" lon="11.327375553750318"><ele>40.0</ele><time>2026-03-25T10:05:46Z</time></trkpt><trkpt lat="44.50832636881903" lon="11.327477872451965"><ele>40.0</ele><time>2026-03-25T10:05:47Z</time></trkpt><trkpt lat="44.50829490719261" lon="11.327572556401433"><ele>40.0</ele><time>2026-03-25T10:05:48Z</time></trkpt><trkpt lat="44.50826561669638" lon="11.327668118405173"><ele>40.0</ele><time>2026-03-25T10:05:49Z</time></trkpt><trkpt lat="44.50823206401752" lon="11.327772243066345"><ele>40.0</ele><time>2026-03-25T10:05:50Z</time></trkpt><trkpt lat="44.50819728455716" lon="11.327874410973893"><ele>40.0</ele><time>2026-03-25T10:05:51Z</time></trkpt><trkpt lat="44.50816574110842" lon="11.327974245094934"><ele>40.0</ele><time>2026-03-25T10:05:52Z</time></trkpt><trkpt lat="44.50813744758026" lon="11.328069880947476"><ele>40.0</ele><time>2026-03-25T10:05:53Z</time></trkpt><trkpt lat="44.50810739071127" lon="11.328156227916036"><ele>40.0</ele><time>2026-03-25T10:05:54Z</time></trkpt><trkpt lat="44.5080821084884" lon="11.328248384929497"><ele>40.0</ele><time>2026-03-25T10:05:55Z</time></trkpt><trkpt lat="44.50805794231053" lon="11.328336108777066"><ele>40.0</ele><time>2026-03-25T10:05:56Z</time></trkpt><trkpt lat="44.50802591876443" lon="11.328435219955535"><ele>40.0</ele><time>2026-03-25T10:05:57Z</time></trkpt><trkpt lat="44.50800364583497" lon="11.328541721498631"><ele>40.16666666666667</ele><time>2026-03-25T10:05:58Z</time></trkpt><trkpt lat="44.50798072053245" lon="11.328645158424674"><ele>40.333333333333336</ele><time>2026-03-25T10:05:59Z</time></trkpt><trkpt lat="44.507961575178754" lon="11.328742084880615"><ele>40.5</ele><time>2026-03-25T10:06:00Z</time></trkpt><trkpt lat="44.50794169310444" lon="11.328918587967118"><ele>40.666666666666664</ele><time>2026-03-25T10:06:02Z</time></trkpt><trkpt lat="44.5079282524757" lon="11.329018999559471"><ele>40.83333333333333</ele><time>2026-03-25T10:06:03Z</time></trkpt><trkpt lat="44.50791252948611" lon="11.329117975018002"><ele>41.0</ele><time>2026-03-25T10:06:04Z</time></trkpt><trkpt lat="44.5078962856966" lon="11.329211281905092"><ele>41.0</ele><time>2026-03-25T10:06:05Z</time></trkpt><trkpt lat="44.50788157661839" lon="11.329297689525117"><ele>41.0</ele><time>2026-03-25T10:06:06Z</time></trkpt><trkpt lat="44.50786935192955" lon="11.329391870592124"><ele>41.0</ele><time>2026-03-25T10:06:07Z</time></trkpt><trkpt lat="44.507845256976594" lon="11.329578453104029"><ele>41.0</ele><time>2026-03-25T10:06:09Z</time></trkpt><trkpt lat="44.50782877126978" lon="11.329676396599638"><ele>41.0</ele><time>2026-03-25T10:06:10Z</time></trkpt><trkpt lat="44.50781211473108" lon="11.329784207708784"><ele>41.0</ele><time>2026-03-25T10:06:11Z</time></trkpt><trkpt lat="44.50779828284428" lon="11.329892513316997"><ele>41.0</ele><time>2026-03-25T10:06:12Z</time></trkpt><trkpt lat="44.507782546800854" lon="11.329994917500144"><ele>41.0</ele><time>2026-03-25T10:06:13Z</time></trkpt><trkpt lat="44.50776961156782" lon="11.330089780962004"><ele>41.0</ele><time>2026-03-25T10:06:14Z</time></trkpt><trkpt lat="44.50775553727757" lon="11.330181817268814"><ele>41.0</ele><time>2026-03-25T10:06:15Z</time></trkpt><trkpt lat="44.50773952936356" lon="11.330351486045881"><ele>41.0</ele><time>2026-03-25T10:06:17Z</time></trkpt><trkpt lat="44.50772394189487" lon="11.330464580835669"><ele>41.0</ele><time>2026-03-25T10:06:18Z</time></trkpt><trkpt lat="44.50768568372343" lon="11.33062747963277"><ele>40.599999999999994</ele><time>2026-03-25T10:06:20Z</time></trkpt><trkpt lat="44.507679424184225" lon="11.330776691190742"><ele>40.199999999999996</ele><time>2026-03-25T10:06:22Z</time></trkpt><trkpt lat="44.50767273441955" lon="11.330936158222883"><ele>39.8</ele><time>2026-03-25T10:06:24Z</time></trkpt><trkpt lat="44.50771435705899" lon="11.331013676944746"><ele>39.4</ele><time>2026-03-25T10:06:25Z</time></trkpt><trkpt lat="44.50768494531823" lon="11.331206771406606"><ele>39.0</ele><time>2026-03-25T10:06:27Z</time></trkpt><trkpt lat="44.50767730884946" lon="11.331309720335918"><ele>39.0</ele><time>2026-03-25T10:06:28Z</time></trkpt><trkpt lat="44.50767675946287" lon="11.331405196358997"><ele>39.0</ele><time>2026-03-25T10:06:29Z</time></trkpt><trkpt lat="44.50765725446838" lon="11.331500445910056"><ele>39.0</ele><time>2026-03-25T10:06:30Z</time></trkpt><trkpt lat="44.50761078119675" lon="11.331678612893633"><ele>39.0</ele><time>2026-03-25T10:06:32Z</time></trkpt><trkpt lat="44.50766755270362" lon="11.331776162779198"><ele>39.0</ele><time>2026-03-25T10:06:33Z</time></trkpt><trkpt lat="44.50766435076806" lon="11.33187045175191"><ele>39.0</ele><time>2026-03-25T10:06:34Z</time></trkpt><trkpt lat="44.50766124721096" lon="11.331961843778332"><ele>39.0</ele><time>2026-03-25T10:06:35Z</time></trkpt><trkpt lat="44.50754937384277" lon="11.33206399262033"><ele>39.0</ele><time>2026-03-25T10:06:36Z</time></trkpt><trkpt lat="44.50753095771738" lon="11.332191479532883"><ele>39.0</ele><time>2026-03-25T10:06:37Z</time></trkpt><trkpt lat="44.507529402562795" lon="11.332293089847447"><ele>39.0</ele><time>2026-03-25T10:06:38Z</time></trkpt><trkpt lat="44.50751951120705" lon="11.332399370568817"><ele>39.0</ele><time>2026-03-25T10:06:39Z</time></trkpt><trkpt lat="44.507504909118616" lon="11.332518420708313"><ele>39.333333333333336</ele><time>2026-03-25T10:06:40Z</time></trkpt><trkpt lat="44.5074843192613" lon="11.33263762039404"><ele>39.666666666666664</ele><time>2026-03-25T10:06:41Z</time></trkpt><trkpt lat="44.507460701173905" lon="11.332766156271756"><ele>40.0</ele><time>2026-03-25T10:06:42Z</time></trkpt><trkpt lat="44.50743937018086" lon="11.332879607219207"><ele>40.33333333333333</ele><time>2026-03-25T10:06:43Z</time></trkpt><trkpt lat="44.507425999015496" lon="11.332976643288331"><ele>40.666666666666664</ele><time>2026-03-25T10:06:44Z</time></trkpt><trkpt lat="44.50740950741786" lon="11.333077825066532"><ele>41.0</ele><time>2026-03-25T10:06:45Z</time></trkpt><trkpt lat="44.50739258492984" lon="11.333171603954895"><ele>41.0</ele><time>2026-03-25T10:06:46Z</time></trkpt><trkpt lat="44.50737806218099" lon="11.33326012628706"><ele>41.0</ele><time>2026-03-25T10:06:47Z</time></trkpt><trkpt lat="44.50735237968505" lon="11.333359695080222"><ele>41.0</ele><time>2026-03-25T10:06:48Z</time></trkpt><trkpt lat="44.50733392832131" lon="11.333467233944281"><ele>41.0</ele><time>2026-03-25T10:06:49Z</time></trkpt><trkpt lat="44.50743407652918" lon="11.333632864651717"><ele>41.0</ele><time>2026-03-25T10:06:50Z</time></trkpt><trkpt lat="44.50741619923715" lon="11.333721219143765"><ele>41.0</ele><time>2026-03-25T10:06:51Z</time></trkpt><trkpt lat="44.507270591358804" lon="11.333757792373031"><ele>41.0</ele><time>2026-03-25T10:06:52Z</time></trkpt><trkpt lat="44.507244382008174" lon="11.333853360557097"><ele>41.0</ele><time>2026-03-25T10:06:53Z</time></trkpt><trkpt lat="44.507244095216656" lon="11.333948549615071"><ele>41.0</ele><time>2026-03-25T10:06:54Z</time></trkpt><trkpt lat="44.50723865639427" lon="11.334039436476804"><ele>41.0</ele><time>2026-03-25T10:06:55Z</time></trkpt><trkpt lat="44.5072237483459" lon="11.334127356086155"><ele>41.0</ele><time>2026-03-25T10:06:56Z</time></trkpt><trkpt lat="44.507191664214474" lon="11.334260424674603"><ele>41.0</ele><time>2026-03-25T10:06:58Z</time></trkpt><trkpt lat="44.50715523575563" lon="11.334415428338616"><ele>40.8</ele><time>2026-03-25T10:07:00Z</time></trkpt><trkpt lat="44.50716469306825" lon="11.334591385631521"><ele>40.599999999999994</ele><time>2026-03-25T10:07:02Z</time></trkpt><trkpt lat="44.50716615171539" lon="11.33468768250817"><ele>40.4</ele><time>2026-03-25T10:07:03Z</time></trkpt><trkpt lat="44.50717899656436" lon="11.334844243846025"><ele>40.2</ele><time>2026-03-25T10:07:05Z</time></trkpt><trkpt lat="44.507159121665886" lon="11.335001049282724"><ele>40.0</ele><time>2026-03-25T10:07:07Z</time></trkpt><trkpt lat="44.50713952117045" lon="11.335097919146719"><ele>40.0</ele><time>2026-03-25T10:07:08Z</time></trkpt><trkpt lat="44.507158216572385" lon="11.335222998704936"><ele>40.0</ele><time>2026-03-25T10:07:09Z</time></trkpt><trkpt lat="44.507129663755705" lon="11.335329590411828"><ele>40.0</ele><time>2026-03-25T10:07:10Z</time></trkpt><trkpt lat="44.50711617834787" lon="11.33546471166635"><ele>40.0</ele><time>2026-03-25T10:07:11Z</time></trkpt><trkpt lat="44.507099856954795" lon="11.335554600767917"><ele>40.0</ele><time>2026-03-25T10:07:12Z</time></trkpt><trkpt lat="44.507043560099724" lon="11.335621770413994"><ele>40.0</ele><time>2026-03-25T10:07:13Z</time></trkpt><trkpt lat="44.507068216783686" lon="11.335731652318016"><ele>40.0</ele><time>2026-03-25T10:07:14Z</time></trkpt><trkpt lat="44.50704018104867" lon="11.335823223539297"><ele>40.0</ele><time>2026-03-25T10:07:15Z</time></trkpt><trkpt lat="44.50701304424271" lon="11.335934232093365"><ele>40.0</ele><time>2026-03-25T10:07:16Z</time></trkpt><trkpt lat="44.506990101692594" lon="11.336053442967884"><ele>40.0</ele><time>2026-03-25T10:07:17Z</time></trkpt><trkpt lat="44.50695438396779" lon="11.336179055300791"><ele>40.0</ele><time>2026-03-25T10:07:18Z</time></trkpt><trkpt lat="44.50699032592212" lon="11.336306349205001"><ele>40.0</ele><time>2026-03-25T10:07:19Z</time></trkpt><trkpt lat="44.50698983657612" lon="11.336430275528867"><ele>39.75</ele><time>2026-03-25T10:07:20Z</time></trkpt><trkpt lat="44.50700019359705" lon="11.336560648147369"><ele>39.5</ele><time>2026-03-25T10:07:21Z</time></trkpt><trkpt lat="44.507018825000124" lon="11.336689390203002"><ele>39.25</ele><time>2026-03-25T10:07:22Z</time></trkpt><trkpt lat="44.50689831973168" lon="11.33678406673374"><ele>39.0</ele><time>2026-03-25T10:07:23Z</time></trkpt><trkpt lat="44.507045375944244" lon="11.336935043730575"><ele>39.0</ele><time>2026-03-25T10:07:24Z</time></trkpt><trkpt lat="44.50701873987205" lon="11.337057918920213"><ele>39.0</ele><time>2026-03-25T10:07:25Z</time></trkpt><trkpt lat="44.50703116812248" lon="11.337184054022758"><ele>39.0</ele><time>2026-03-25T10:07:26Z</time></trkpt><trkpt lat="44.50706404217833" lon="11.337329213654247"><ele>39.0</ele><time>2026-03-25T10:07:27Z</time></trkpt><trkpt lat="44.507055021575106" lon="11.337416770548648"><ele>39.0</ele><time>2026-03-25T10:07:28Z</time></trkpt><trkpt lat="44.5070443799317" lon="11.337516961033549"><ele>39.0</ele><time>2026-03-25T10:07:29Z</time></trkpt><trkpt lat="44.5070619020882" lon="11.337663042708797"><ele>39.2</ele><time>2026-03-25T10:07:30Z</time></trkpt><trkpt lat="44.50701400326217" lon="11.337783678173217"><ele>39.4</ele><time>2026-03-25T10:07:31Z</time></trkpt><trkpt lat="44.50710101282178" lon="11.337925563131524"><ele>39.6</ele><time>2026-03-25T10:07:32Z</time></trkpt><trkpt lat="44.50711736004863" lon="11.338052601559781"><ele>39.8</ele><time>2026-03-25T10:07:33Z</time></trkpt><trkpt lat="44.50709661621446" lon="11.338159953631987"><ele>40.0</ele><time>2026-03-25T10:07:34Z</time></trkpt><trkpt lat="44.507089348917205" lon="11.338268370159158"><ele>40.14285714285714</ele><time>2026-03-25T10:07:35Z</time></trkpt><trkpt lat="44.5070886635363" lon="11.338374121191777"><ele>40.285714285714285</ele><time>2026-03-25T10:07:36Z</time></trkpt><trkpt lat="44.507081427078845" lon="11.338465689158525"><ele>40.42857142857143</ele><time>2026-03-25T10:07:37Z</time></trkpt><trkpt lat="44.507070314581405" lon="11.338560592741512"><ele>40.57142857142857</ele><time>2026-03-25T10:07:38Z</time></trkpt><trkpt lat="44.50705260864826" lon="11.338655124661694"><ele>40.714285714285715</ele><time>2026-03-25T10:07:39Z</time></trkpt><trkpt lat="44.507048675395545" lon="11.33874601031879"><ele>40.857142857142854</ele><time>2026-03-25T10:07:40Z</time></trkpt><trkpt lat="44.507040886870605" lon="11.338846319880526"><ele>41.0</ele><time>2026-03-25T10:07:41Z</time></trkpt><trkpt lat="44.50701808120464" lon="11.33895207068029"><ele>41.199999999999996</ele><time>2026-03-25T10:07:42Z</time></trkpt><trkpt lat="44.50697279378045" lon="11.339051188049012"><ele>41.4</ele><time>2026-03-25T10:07:43Z</time></trkpt><trkpt lat="44.506891424193675" lon="11.339092601953249"><ele>41.6</ele><time>2026-03-25T10:07:44Z</time></trkpt><trkpt lat="44.50688522299452" lon="11.339194301425891"><ele>41.8</ele><time>2026-03-25T10:07:45Z</time></trkpt><trkpt lat="44.50685796598655" lon="11.339289149792032"><ele>42.0</ele><time>2026-03-25T10:07:46Z</time></trkpt><trkpt lat="44.50682329832846" lon="11.339479466050344"><ele>42.0</ele><time>2026-03-25T10:07:48Z</time></trkpt><trkpt lat="44.506842861378566" lon="11.339600207256263"><ele>42.0</ele><time>2026-03-25T10:07:49Z</time></trkpt><trkpt lat="44.506876180680514" lon="11.339722139647739"><ele>42.0</ele><time>2026-03-25T10:07:50Z</time></trkpt><trkpt lat="44.50689038970125" lon="11.339825735818353"><ele>42.0</ele><time>2026-03-25T10:07:51Z</time></trkpt><trkpt lat="44.50688767068354" lon="11.339941344473848"><ele>42.0</ele><time>2026-03-25T10:07:52Z</time></trkpt><trkpt lat="44.50686924567159" lon="11.340070382071728"><ele>42.0</ele><time>2026-03-25T10:07:53Z</time></trkpt><trkpt lat="44.5068659175178" lon="11.340170170687914"><ele>42.0</ele><time>2026-03-25T10:07:54Z</time></trkpt><trkpt lat="44.50686916105836" lon="11.340290245189031"><ele>42.0</ele><time>2026-03-25T10:07:56Z</time></trkpt><trkpt lat="44.506872742398514" lon="11.34043805357486"><ele>42.0</ele><time>2026-03-25T10:07:58Z</time></trkpt><trkpt lat="44.506869516741844" lon="11.3405815707819"><ele>42.0</ele><time>2026-03-25T10:08:00Z</time></trkpt><trkpt lat="44.50686519437171" lon="11.34068569630504"><ele>42.0</ele><time>2026-03-25T10:08:01Z</time></trkpt><trkpt lat="44.50684926621877" lon="11.340792850488889"><ele>42.0</ele><time>2026-03-25T10:08:02Z</time></trkpt><trkpt lat="44.50683424581904" lon="11.340890228487497"><ele>42.0</ele><time>2026-03-25T10:08:03Z</time></trkpt><trkpt lat="44.506835091896086" lon="11.341028329452616"><ele>42.0</ele><time>2026-03-25T10:08:05Z</time></trkpt><trkpt lat="44.506828245105275" lon="11.341123683278099"><ele>42.0</ele><time>2026-03-25T10:08:06Z</time></trkpt><trkpt lat="44.506795215229936" lon="11.341280846396252"><ele>42.0</ele><time>2026-03-25T10:08:07Z</time></trkpt><trkpt lat="44.50676641745386" lon="11.341435817397402"><ele>42.0</ele><time>2026-03-25T10:08:08Z</time></trkpt><trkpt lat="44.5067358470113" lon="11.341543848687122"><ele>41.6</ele><time>2026-03-25T10:08:09Z</time></trkpt><trkpt lat="44.50669986752594" lon="11.34168379216256"><ele>41.2</ele><time>2026-03-25T10:08:13Z</time></trkpt><trkpt lat="44.506676214348154" lon="11.34180004873137"><ele>40.8</ele><time>2026-03-25T10:08:14Z</time></trkpt><trkpt lat="44.50666530249809" lon="11.34191617643909"><ele>40.4</ele><time>2026-03-25T10:08:15Z</time></trkpt><trkpt lat="44.506647651593624" lon="11.342053739097581"><ele>40.0</ele><time>2026-03-25T10:08:16Z</time></trkpt><trkpt lat="44.506605211575845" lon="11.342211474229691"><ele>40.2</ele><time>2026-03-25T10:08:17Z</time></trkpt><trkpt lat="44.50659456635644" lon="11.342308555909362"><ele>40.4</ele><time>2026-03-25T10:08:18Z</time></trkpt><trkpt lat="44.50658849524563" lon="11.342471671175373"><ele>40.599999999999994</ele><time>2026-03-25T10:08:20Z</time></trkpt><trkpt lat="44.50658556102289" lon="11.342589856617202"><ele>40.8</ele><time>2026-03-25T10:08:22Z</time></trkpt><trkpt lat="44.50654615014129" lon="11.342742382554194"><ele>41.0</ele><time>2026-03-25T10:08:24Z</time></trkpt><trkpt lat="44.50651265499872" lon="11.342880444181226"><ele>40.99999999999999</ele><time>2026-03-25T10:08:26Z</time></trkpt><trkpt lat="44.50652831908634" lon="11.342973901282972"><ele>41.0</ele><time>2026-03-25T10:08:28Z</time></trkpt><trkpt lat="44.50651089166324" lon="11.343069436115229"><ele>41.0</ele><time>2026-03-25T10:08:31Z</time></trkpt><trkpt lat="44.50649770611953" lon="11.343160493242747"><ele>41.0</ele><time>2026-03-25T10:08:33Z</time></trkpt><trkpt lat="44.50648261766126" lon="11.343247447635644"><ele>41.0</ele><time>2026-03-25T10:08:35Z</time></trkpt><trkpt lat="44.50646672161688" lon="11.343338660576984"><ele>40.99999999999999</ele><time>2026-03-25T10:08:37Z</time></trkpt><trkpt lat="44.506461586679094" lon="11.343480243296812"><ele>41.0</ele><time>2026-03-25T10:08:42Z</time></trkpt><trkpt lat="44.50644667808698" lon="11.343587899944094"><ele>41.5</ele><time>2026-03-25T10:08:47Z</time></trkpt><trkpt lat="44.50650795062994" lon="11.343512830888976"><ele>42.0</ele><time>2026-03-25T10:09:04Z</time></trkpt><trkpt lat="44.50652858203739" lon="11.343427820985035"><ele>42.5</ele><time>2026-03-25T10:09:07Z</time></trkpt><trkpt lat="44.506656737496684" lon="11.34342158168251"><ele>43.0</ele><time>2026-03-25T10:09:43Z</time></trkpt><trkpt lat="44.50705536196714" lon="11.343590400150552"><ele>43.0</ele><time>2026-03-25T10:09:45Z</time></trkpt><trkpt lat="44.50704993018906" lon="11.343706284836417"><ele>43.0</ele><time>2026-03-25T10:09:47Z</time></trkpt><trkpt lat="44.50701174429207" lon="11.343784099412126"><ele>43.0</ele><time>2026-03-25T10:09:51Z</time></trkpt><trkpt lat="44.50696750129413" lon="11.343847558530458"><ele>43.0</ele><time>2026-03-25T10:09:54Z</time></trkpt><trkpt lat="44.506713570995615" lon="11.344414066594346"><ele>43.5</ele><time>2026-03-25T10:10:47.018Z</time></trkpt><trkpt lat="44.50668097430658" lon="11.34449583021028"><ele>44.0</ele><time>2026-03-25T10:10:49.019Z</time></trkpt><trkpt lat="44.507118277586095" lon="11.34260559991609"><ele>10.0</ele><time>2026-03-25T10:13:55.158Z</time></trkpt><trkpt lat="45.417857436234506" lon="11.889540942339153"><ele>10.0</ele><time>2026-03-25T11:29:01.937Z</time></trkpt><trkpt lat="45.41788735031645" lon="11.88974428930665"><ele>10.0</ele><time>2026-03-25T11:29:03.937Z</time></trkpt><trkpt lat="45.417939841567346" lon="11.889879554690738"><ele>10.0</ele><time>2026-03-25T11:29:04.937Z</time></trkpt><trkpt lat="45.4179784430553" lon="11.889986395139353"><ele>10.0</ele><time>2026-03-25T11:29:05.937Z</time></trkpt><trkpt lat="45.418011203538136" lon="11.890069069701815"><ele>10.0</ele><time>2026-03-25T11:29:06.975Z</time></trkpt><trkpt lat="45.418020546998605" lon="11.890167587535762"><ele>9.666666666666668</ele><time>2026-03-25T11:29:08.975Z</time></trkpt><trkpt lat="45.41801376004679" lon="11.890263702221132"><ele>9.333333333333334</ele><time>2026-03-25T11:29:12.982Z</time></trkpt><trkpt lat="45.41804209780444" lon="11.89036606813172"><ele>9.0</ele><time>2026-03-25T11:29:14.982Z</time></trkpt><trkpt lat="45.41809709125303" lon="11.890435559751852"><ele>8.666666666666666</ele><time>2026-03-25T11:29:16.984Z</time></trkpt><trkpt lat="45.418216196876465" lon="11.890528061538507"><ele>8.333333333333332</ele><time>2026-03-25T11:29:22.99Z</time></trkpt><trkpt lat="45.41815886600391" lon="11.890568291354148"><ele>8.0</ele><time>2026-03-25T11:29:24.991Z</time></trkpt><trkpt lat="45.41815994899601" lon="11.890697626826"><ele>8.0</ele><time>2026-03-25T11:29:29.994Z</time></trkpt><trkpt lat="45.41820099446033" lon="11.890782296496564"><ele>8.0</ele><time>2026-03-25T11:29:31.994Z</time></trkpt><trkpt lat="45.41824676009671" lon="11.890876102127956"><ele>8.0</ele><time>2026-03-25T11:29:34.996Z</time></trkpt><trkpt lat="45.41827388604696" lon="11.890960357754961"><ele>8.0</ele><time>2026-03-25T11:29:37.996Z</time></trkpt><trkpt lat="45.41833262122795" lon="11.891280379568151"><ele>10.0</ele><time>2026-03-25T11:29:55.999Z</time></trkpt><trkpt lat="45.41835143559499" lon="11.892049407852312"><ele>10.0</ele><time>2026-03-25T11:30:17Z</time></trkpt><trkpt lat="45.41838645095888" lon="11.892142353955954"><ele>10.0</ele><time>2026-03-25T11:30:21Z</time></trkpt><trkpt lat="45.418402952542586" lon="11.89223469857037"><ele>10.0</ele><time>2026-03-25T11:30:26Z</time></trkpt><trkpt lat="45.418438570429565" lon="11.892332762279118"><ele>10.0</ele><time>2026-03-25T11:30:33Z</time></trkpt><trkpt lat="45.4184513958993" lon="11.892464893617683"><ele>10.0</ele><time>2026-03-25T11:30:36Z</time></trkpt><trkpt lat="45.41845681437519" lon="11.892557957693935"><ele>10.0</ele><time>2026-03-25T11:30:38Z</time></trkpt><trkpt lat="45.41849758540546" lon="11.892649965355625"><ele>9.666666666666668</ele><time>2026-03-25T11:30:46Z</time></trkpt><trkpt lat="45.41853990112668" lon="11.892750990004423"><ele>9.333333333333334</ele><time>2026-03-25T11:30:49Z</time></trkpt><trkpt lat="45.418583304228164" lon="11.892866983369117"><ele>9.0</ele><time>2026-03-25T11:30:52Z</time></trkpt><trkpt lat="45.41860894575328" lon="11.892958103310653"><ele>8.666666666666666</ele><time>2026-03-25T11:30:54Z</time></trkpt><trkpt lat="45.418642175975755" lon="11.893110640750834"><ele>8.333333333333332</ele><time>2026-03-25T11:30:56Z</time></trkpt><trkpt lat="45.41866335048632" lon="11.893208079651647"><ele>8.0</ele><time>2026-03-25T11:30:57Z</time></trkpt><trkpt lat="45.41868248530026" lon="11.893302637060069"><ele>7.800000000000001</ele><time>2026-03-25T11:30:58Z</time></trkpt><trkpt lat="45.41871802327511" lon="11.89348118377072"><ele>7.6000000000000005</ele><time>2026-03-25T11:31:00Z</time></trkpt><trkpt lat="45.418734410318244" lon="11.893606077821458"><ele>7.3999999999999995</ele><time>2026-03-25T11:31:01Z</time></trkpt><trkpt lat="45.41875412750574" lon="11.893696642004713"><ele>7.199999999999999</ele><time>2026-03-25T11:31:02Z</time></trkpt><trkpt lat="45.41877600505326" lon="11.893799069873637"><ele>7.0</ele><time>2026-03-25T11:31:03Z</time></trkpt><trkpt lat="45.418809608824276" lon="11.893965031406305"><ele>7.199999999999999</ele><time>2026-03-25T11:31:04Z</time></trkpt><trkpt lat="45.41884594844743" lon="11.894094114433786"><ele>7.3999999999999995</ele><time>2026-03-25T11:31:05Z</time></trkpt><trkpt lat="45.41885675569238" lon="11.894216249463534"><ele>7.6000000000000005</ele><time>2026-03-25T11:31:06Z</time></trkpt><trkpt lat="45.418859416730136" lon="11.89433086260139"><ele>7.800000000000001</ele><time>2026-03-25T11:31:07Z</time></trkpt><trkpt lat="45.418874886993315" lon="11.894466885718439"><ele>8.0</ele><time>2026-03-25T11:31:08Z</time></trkpt><trkpt lat="45.41890025709895" lon="11.894602855693385"><ele>8.25</ele><time>2026-03-25T11:31:09Z</time></trkpt><trkpt lat="45.418943430977706" lon="11.894792444270008"><ele>8.5</ele><time>2026-03-25T11:31:10Z</time></trkpt><trkpt lat="45.41897955793697" lon="11.89495163092336"><ele>8.75</ele><time>2026-03-25T11:31:11Z</time></trkpt><trkpt lat="45.419013763453414" lon="11.8951118578391"><ele>9.0</ele><time>2026-03-25T11:31:12.001Z</time></trkpt><trkpt lat="45.419038809824436" lon="11.89526689750363"><ele>9.25</ele><time>2026-03-25T11:31:13.001Z</time></trkpt><trkpt lat="45.41907021338201" lon="11.8954142808296"><ele>9.5</ele><time>2026-03-25T11:31:14.001Z</time></trkpt><trkpt lat="45.41909045762894" lon="11.895573751692304"><ele>9.75</ele><time>2026-03-25T11:31:15.001Z</time></trkpt><trkpt lat="45.419110546914546" lon="11.895733212762105"><ele>10.0</ele><time>2026-03-25T11:31:16.001Z</time></trkpt><trkpt lat="45.41914858621966" lon="11.895901040084004"><ele>10.0</ele><time>2026-03-25T11:31:17.001Z</time></trkpt><trkpt lat="45.41918563188434" lon="11.896086585623278"><ele>10.0</ele><time>2026-03-25T11:31:18.001Z</time></trkpt><trkpt lat="45.41922702347932" lon="11.896276257113515"><ele>10.0</ele><time>2026-03-25T11:31:19.001Z</time></trkpt><trkpt lat="45.41926362676661" lon="11.896466252112976"><ele>10.0</ele><time>2026-03-25T11:31:20.001Z</time></trkpt><trkpt lat="45.41929222148008" lon="11.896644726491429"><ele>9.5</ele><time>2026-03-25T11:31:21.001Z</time></trkpt><trkpt lat="45.419341242311894" lon="11.896847815362698"><ele>9.0</ele><time>2026-03-25T11:31:22.001Z</time></trkpt><trkpt lat="45.41938252313997" lon="11.89706616091395"><ele>8.5</ele><time>2026-03-25T11:31:23.001Z</time></trkpt><trkpt lat="45.41941002677924" lon="11.897257589435323"><ele>8.0</ele><time>2026-03-25T11:31:24.001Z</time></trkpt><trkpt lat="45.41944734311581" lon="11.897449668931392"><ele>8.333333333333332</ele><time>2026-03-25T11:31:25.001Z</time></trkpt><trkpt lat="45.41949058617853" lon="11.897663859854699"><ele>8.666666666666666</ele><time>2026-03-25T11:31:26.001Z</time></trkpt><trkpt lat="45.41952962385729" lon="11.897862655758779"><ele>9.0</ele><time>2026-03-25T11:31:27.001Z</time></trkpt><trkpt lat="45.41957300216697" lon="11.898069764916215"><ele>9.0</ele><time>2026-03-25T11:31:28Z</time></trkpt><trkpt lat="45.41961017843181" lon="11.89827813725415"><ele>9.0</ele><time>2026-03-25T11:31:29Z</time></trkpt><trkpt lat="45.41964821048887" lon="11.898487669029768"><ele>9.0</ele><time>2026-03-25T11:31:30Z</time></trkpt><trkpt lat="45.4196857127849" lon="11.898703742666784"><ele>9.0</ele><time>2026-03-25T11:31:31Z</time></trkpt><trkpt lat="45.41972519807912" lon="11.898900360822838"><ele>9.0</ele><time>2026-03-25T11:31:32Z</time></trkpt><trkpt lat="45.419759197446865" lon="11.899096242463257"><ele>9.0</ele><time>2026-03-25T11:31:33Z</time></trkpt><trkpt lat="45.41979448223549" lon="11.899297819707659"><ele>9.0</ele><time>2026-03-25T11:31:34Z</time></trkpt><trkpt lat="45.41982481846156" lon="11.89950165393914"><ele>8.666666666666666</ele><time>2026-03-25T11:31:35Z</time></trkpt><trkpt lat="45.41985604889256" lon="11.899716199065598"><ele>8.333333333333332</ele><time>2026-03-25T11:31:36Z</time></trkpt><trkpt lat="45.419896593353116" lon="11.899926062360963"><ele>8.0</ele><time>2026-03-25T11:31:37Z</time></trkpt><trkpt lat="45.41990887202403" lon="11.900152409865367"><ele>9.0</ele><time>2026-03-25T11:31:38Z</time></trkpt><trkpt lat="45.41992407958111" lon="11.900359764769654"><ele>10.0</ele><time>2026-03-25T11:31:39Z</time></trkpt><trkpt lat="45.419960103974454" lon="11.90056638983932"><ele>11.0</ele><time>2026-03-25T11:31:40Z</time></trkpt><trkpt lat="45.41998960928908" lon="11.900767048442974"><ele>12.0</ele><time>2026-03-25T11:31:41Z</time></trkpt><trkpt lat="45.42002207476599" lon="11.900973222678118"><ele>12.25</ele><time>2026-03-25T11:31:42Z</time></trkpt><trkpt lat="45.420070238714985" lon="11.901197201176716"><ele>12.5</ele><time>2026-03-25T11:31:43Z</time></trkpt><trkpt lat="45.42010830458735" lon="11.901394276539865"><ele>12.75</ele><time>2026-03-25T11:31:44Z</time></trkpt><trkpt lat="45.42014996303328" lon="11.901585479064844"><ele>13.0</ele><time>2026-03-25T11:31:45Z</time></trkpt><trkpt lat="45.420190206949194" lon="11.901790902559942"><ele>11.666666666666666</ele><time>2026-03-25T11:31:46Z</time></trkpt><trkpt lat="45.420222539521525" lon="11.902004966896119"><ele>10.333333333333332</ele><time>2026-03-25T11:31:47Z</time></trkpt><trkpt lat="45.42026773773928" lon="11.902215207413976"><ele>9.0</ele><time>2026-03-25T11:31:48Z</time></trkpt><trkpt lat="45.42031632655328" lon="11.902417362959183"><ele>8.75</ele><time>2026-03-25T11:31:49Z</time></trkpt><trkpt lat="45.42036286682953" lon="11.902602446415392"><ele>8.5</ele><time>2026-03-25T11:31:50Z</time></trkpt><trkpt lat="45.42040697950184" lon="11.902791986238462"><ele>8.25</ele><time>2026-03-25T11:31:51Z</time></trkpt><trkpt lat="45.42045333039377" lon="11.902981632467467"><ele>8.0</ele><time>2026-03-25T11:31:52Z</time></trkpt><trkpt lat="45.42049637751482" lon="11.903177039629195"><ele>8.0</ele><time>2026-03-25T11:31:53Z</time></trkpt><trkpt lat="45.42054102228708" lon="11.903367929619618"><ele>8.0</ele><time>2026-03-25T11:31:54Z</time></trkpt><trkpt lat="45.42058536815309" lon="11.903558866638832"><ele>8.0</ele><time>2026-03-25T11:31:55Z</time></trkpt><trkpt lat="45.42062951993289" lon="11.903747107669389"><ele>8.0</ele><time>2026-03-25T11:31:56Z</time></trkpt><trkpt lat="45.42068744709295" lon="11.903934201889697"><ele>8.0</ele><time>2026-03-25T11:31:57Z</time></trkpt><trkpt lat="45.420728910295054" lon="11.904119986631049"><ele>8.0</ele><time>2026-03-25T11:31:58Z</time></trkpt><trkpt lat="45.42077696071959" lon="11.904311592768718"><ele>8.0</ele><time>2026-03-25T11:31:59Z</time></trkpt><trkpt lat="45.42081946221322" lon="11.90450783177184"><ele>8.0</ele><time>2026-03-25T11:32:00Z</time></trkpt><trkpt lat="45.42086029542142" lon="11.904708754029691"><ele>8.5</ele><time>2026-03-25T11:32:01Z</time></trkpt><trkpt lat="45.420893166802664" lon="11.904889049279307"><ele>9.0</ele><time>2026-03-25T11:32:02Z</time></trkpt><trkpt lat="45.420935868217875" lon="11.905078647574324"><ele>9.5</ele><time>2026-03-25T11:32:03Z</time></trkpt><trkpt lat="45.420979430719264" lon="11.905274688481207"><ele>10.0</ele><time>2026-03-25T11:32:04Z</time></trkpt><trkpt lat="45.42103063274014" lon="11.90547039485253"><ele>10.0</ele><time>2026-03-25T11:32:05Z</time></trkpt><trkpt lat="45.42107754697082" lon="11.905672037145095"><ele>10.0</ele><time>2026-03-25T11:32:06Z</time></trkpt><trkpt lat="45.42110722898567" lon="11.905852721594432"><ele>10.0</ele><time>2026-03-25T11:32:07Z</time></trkpt><trkpt lat="45.421149057497516" lon="11.906041036704309"><ele>10.0</ele><time>2026-03-25T11:32:08Z</time></trkpt><trkpt lat="45.4211940481783" lon="11.906234926294632"><ele>10.5</ele><time>2026-03-25T11:32:09Z</time></trkpt><trkpt lat="45.421235513836315" lon="11.906438379920246"><ele>11.0</ele><time>2026-03-25T11:32:10Z</time></trkpt><trkpt lat="45.42127925041057" lon="11.906633919726493"><ele>11.5</ele><time>2026-03-25T11:32:11Z</time></trkpt><trkpt lat="45.4213248903967" lon="11.90683015675617"><ele>12.0</ele><time>2026-03-25T11:32:12Z</time></trkpt><trkpt lat="45.421368851614076" lon="11.907019210562629"><ele>11.0</ele><time>2026-03-25T11:32:13Z</time></trkpt><trkpt lat="45.42141906391636" lon="11.90721610860353"><ele>10.0</ele><time>2026-03-25T11:32:14Z</time></trkpt><trkpt lat="45.421465032256854" lon="11.907401228585469"><ele>9.0</ele><time>2026-03-25T11:32:15Z</time></trkpt><trkpt lat="45.42151447946264" lon="11.907604987303205"><ele>8.0</ele><time>2026-03-25T11:32:16Z</time></trkpt><trkpt lat="45.42155923009522" lon="11.907810867784198"><ele>8.0</ele><time>2026-03-25T11:32:17Z</time></trkpt><trkpt lat="45.42160755696603" lon="11.908017269744747"><ele>8.0</ele><time>2026-03-25T11:32:18Z</time></trkpt><trkpt lat="45.4216564910559" lon="11.908224636233417"><ele>8.0</ele><time>2026-03-25T11:32:19Z</time></trkpt><trkpt lat="45.42168481685381" lon="11.908433840507188"><ele>8.0</ele><time>2026-03-25T11:32:20Z</time></trkpt><trkpt lat="45.421734356038414" lon="11.90863907799153"><ele>8.0</ele><time>2026-03-25T11:32:21Z</time></trkpt><trkpt lat="45.42178878232197" lon="11.908837864293403"><ele>8.0</ele><time>2026-03-25T11:32:22Z</time></trkpt><trkpt lat="45.42184589963294" lon="11.909037422106291"><ele>8.0</ele><time>2026-03-25T11:32:23Z</time></trkpt><trkpt lat="45.42188601878736" lon="11.909228876524326"><ele>8.0</ele><time>2026-03-25T11:32:24Z</time></trkpt><trkpt lat="45.42193119178328" lon="11.90944283762292"><ele>8.0</ele><time>2026-03-25T11:32:25Z</time></trkpt><trkpt lat="45.42198130056233" lon="11.909650822657495"><ele>8.0</ele><time>2026-03-25T11:32:26Z</time></trkpt><trkpt lat="45.42202259379949" lon="11.909856263355673"><ele>8.0</ele><time>2026-03-25T11:32:27Z</time></trkpt><trkpt lat="45.42206240519296" lon="11.910067515348496"><ele>8.0</ele><time>2026-03-25T11:32:28Z</time></trkpt><trkpt lat="45.42211325831901" lon="11.910274545079567"><ele>8.0</ele><time>2026-03-25T11:32:29Z</time></trkpt><trkpt lat="45.42214635664092" lon="11.910467954282671"><ele>8.0</ele><time>2026-03-25T11:32:30Z</time></trkpt><trkpt lat="45.42218940083441" lon="11.910663873210257"><ele>8.0</ele><time>2026-03-25T11:32:31Z</time></trkpt><trkpt lat="45.42224227553588" lon="11.910874698079418"><ele>8.0</ele><time>2026-03-25T11:32:32Z</time></trkpt><trkpt lat="45.42228325920678" lon="11.9110800995842"><ele>8.25</ele><time>2026-03-25T11:32:33Z</time></trkpt><trkpt lat="45.422319232661344" lon="11.91129059377818"><ele>8.5</ele><time>2026-03-25T11:32:34Z</time></trkpt><trkpt lat="45.42235371905803" lon="11.911481285055453"><ele>8.75</ele><time>2026-03-25T11:32:35Z</time></trkpt><trkpt lat="45.42239637918325" lon="11.911673322220645"><ele>9.0</ele><time>2026-03-25T11:32:36Z</time></trkpt><trkpt lat="45.42244638894113" lon="11.911896114404781"><ele>9.0</ele><time>2026-03-25T11:32:37Z</time></trkpt><trkpt lat="45.42249670936711" lon="11.91210784544577"><ele>9.0</ele><time>2026-03-25T11:32:38Z</time></trkpt><trkpt lat="45.42254783015903" lon="11.912315303360216"><ele>9.0</ele><time>2026-03-25T11:32:39Z</time></trkpt><trkpt lat="45.422597687091816" lon="11.912528466749846"><ele>9.666666666666666</ele><time>2026-03-25T11:32:40Z</time></trkpt><trkpt lat="45.42264018432324" lon="11.912749953064685"><ele>10.333333333333332</ele><time>2026-03-25T11:32:41Z</time></trkpt><trkpt lat="45.42269008151512" lon="11.912970646957032"><ele>11.0</ele><time>2026-03-25T11:32:42Z</time></trkpt><trkpt lat="45.42275355675541" lon="11.913194086912553"><ele>11.333333333333332</ele><time>2026-03-25T11:32:43Z</time></trkpt><trkpt lat="45.42280964220137" lon="11.913437238659634"><ele>11.666666666666666</ele><time>2026-03-25T11:32:44Z</time></trkpt><trkpt lat="45.42286652236233" lon="11.913674366921814"><ele>12.0</ele><time>2026-03-25T11:32:45Z</time></trkpt><trkpt lat="45.422907941119554" lon="11.913923394387089"><ele>12.0</ele><time>2026-03-25T11:32:46Z</time></trkpt><trkpt lat="45.422933322555394" lon="11.914169323319722"><ele>12.0</ele><time>2026-03-25T11:32:47Z</time></trkpt><trkpt lat="45.422958692741304" lon="11.9143985486492"><ele>12.0</ele><time>2026-03-25T11:32:48Z</time></trkpt><trkpt lat="45.42298787762363" lon="11.914634188181237"><ele>12.0</ele><time>2026-03-25T11:32:49Z</time></trkpt><trkpt lat="45.42305096269042" lon="11.914910963751005"><ele>12.0</ele><time>2026-03-25T11:32:50Z</time></trkpt><trkpt lat="45.42310446645449" lon="11.915170817513946"><ele>12.0</ele><time>2026-03-25T11:32:51Z</time></trkpt><trkpt lat="45.423149433907696" lon="11.915453138015346"><ele>11.666666666666666</ele><time>2026-03-25T11:32:52Z</time></trkpt><trkpt lat="45.42320555551041" lon="11.915739893603378"><ele>11.333333333333332</ele><time>2026-03-25T11:32:53Z</time></trkpt><trkpt lat="45.42325323797533" lon="11.916063489647126"><ele>11.0</ele><time>2026-03-25T11:32:54Z</time></trkpt><trkpt lat="45.423305107695384" lon="11.916364376307639"><ele>10.0</ele><time>2026-03-25T11:32:55Z</time></trkpt><trkpt lat="45.423363334033134" lon="11.916661342119507"><ele>9.0</ele><time>2026-03-25T11:32:56Z</time></trkpt><trkpt lat="45.423421142485246" lon="11.916965616153158"><ele>8.0</ele><time>2026-03-25T11:32:57Z</time></trkpt><trkpt lat="45.42347893222471" lon="11.917272206378282"><ele>7.5</ele><time>2026-03-25T11:32:58Z</time></trkpt><trkpt lat="45.423537260423316" lon="11.917588814253731"><ele>7.0</ele><time>2026-03-25T11:32:59Z</time></trkpt><trkpt lat="45.423591072130286" lon="11.91790354196119"><ele>7.0</ele><time>2026-03-25T11:33:00Z</time></trkpt><trkpt lat="45.42364775113592" lon="11.918256237034145"><ele>7.0</ele><time>2026-03-25T11:33:01Z</time></trkpt><trkpt lat="45.42371497979884" lon="11.91859146346845"><ele>6.5</ele><time>2026-03-25T11:33:02Z</time></trkpt><trkpt lat="45.42376894287867" lon="11.918924797887787"><ele>6.0</ele><time>2026-03-25T11:33:03Z</time></trkpt><trkpt lat="45.423819106008594" lon="11.9192558503231"><ele>6.0</ele><time>2026-03-25T11:33:03.999Z</time></trkpt><trkpt lat="45.42386363083978" lon="11.919589269414761"><ele>6.0</ele><time>2026-03-25T11:33:04.999Z</time></trkpt><trkpt lat="45.42392025113931" lon="11.919935504018513"><ele>6.0</ele><time>2026-03-25T11:33:05.999Z</time></trkpt><trkpt lat="45.42398378914132" lon="11.92028730004689"><ele>6.0</ele><time>2026-03-25T11:33:06.999Z</time></trkpt><trkpt lat="45.42404826533975" lon="11.920650828849977"><ele>5.5</ele><time>2026-03-25T11:33:07.999Z</time></trkpt><trkpt lat="45.424114941820434" lon="11.92101257912076"><ele>5.0</ele><time>2026-03-25T11:33:08.999Z</time></trkpt><trkpt lat="45.42417930145836" lon="11.921388658617724"><ele>7.0</ele><time>2026-03-25T11:33:09.999Z</time></trkpt><trkpt lat="45.42425296747409" lon="11.921750211721124"><ele>9.0</ele><time>2026-03-25T11:33:10.999Z</time></trkpt><trkpt lat="45.42432853800498" lon="11.922122124488569"><ele>9.0</ele><time>2026-03-25T11:33:11.999Z</time></trkpt><trkpt lat="45.42439140885763" lon="11.922494953140232"><ele>9.0</ele><time>2026-03-25T11:33:12.999Z</time></trkpt><trkpt lat="45.42445165379787" lon="11.922868701635517"><ele>9.5</ele><time>2026-03-25T11:33:13.999Z</time></trkpt><trkpt lat="45.42452880863101" lon="11.923254072682761"><ele>10.0</ele><time>2026-03-25T11:33:14.999Z</time></trkpt><trkpt lat="45.42460354585655" lon="11.923655869248854"><ele>10.5</ele><time>2026-03-25T11:33:15.999Z</time></trkpt><trkpt lat="45.4246802849126" lon="11.924032333977513"><ele>11.0</ele><time>2026-03-25T11:33:16.999Z</time></trkpt><trkpt lat="45.424760827519854" lon="11.924417164338138"><ele>10.0</ele><time>2026-03-25T11:33:18Z</time></trkpt><trkpt lat="45.42482448804004" lon="11.924794905370076"><ele>9.0</ele><time>2026-03-25T11:33:19Z</time></trkpt><trkpt lat="45.42491358963299" lon="11.925181826635168"><ele>9.0</ele><time>2026-03-25T11:33:20Z</time></trkpt><trkpt lat="45.42500413541593" lon="11.92558380181876"><ele>9.0</ele><time>2026-03-25T11:33:21Z</time></trkpt><trkpt lat="45.4250955983891" lon="11.925992869755241"><ele>10.5</ele><time>2026-03-25T11:33:22Z</time></trkpt><trkpt lat="45.4251940495976" lon="11.926413107935415"><ele>12.0</ele><time>2026-03-25T11:33:23Z</time></trkpt><trkpt lat="45.42528750977473" lon="11.926835571019849"><ele>12.0</ele><time>2026-03-25T11:33:24Z</time></trkpt><trkpt lat="45.42537623395382" lon="11.927240737119703"><ele>12.0</ele><time>2026-03-25T11:33:25Z</time></trkpt><trkpt lat="45.42547516322529" lon="11.9276561593301"><ele>10.0</ele><time>2026-03-25T11:33:26Z</time></trkpt><trkpt lat="45.425547227471554" lon="11.928089335717752"><ele>8.0</ele><time>2026-03-25T11:33:27Z</time></trkpt><trkpt lat="45.42563223577814" lon="11.928513604438752"><ele>8.0</ele><time>2026-03-25T11:33:28Z</time></trkpt><trkpt lat="45.42571343598112" lon="11.928953931537079"><ele>8.0</ele><time>2026-03-25T11:33:29Z</time></trkpt><trkpt lat="45.42581173029792" lon="11.929416878901561"><ele>8.5</ele><time>2026-03-25T11:33:30Z</time></trkpt><trkpt lat="45.425892200158394" lon="11.929866895826335"><ele>9.0</ele><time>2026-03-25T11:33:31Z</time></trkpt><trkpt lat="45.42597633256574" lon="11.930302696284658"><ele>9.0</ele><time>2026-03-25T11:33:32Z</time></trkpt><trkpt lat="45.426072221924386" lon="11.930752623729399"><ele>9.0</ele><time>2026-03-25T11:33:33Z</time></trkpt><trkpt lat="45.42616658374706" lon="11.931197904377727"><ele>9.0</ele><time>2026-03-25T11:33:34Z</time></trkpt><trkpt lat="45.42625459639726" lon="11.931651753357091"><ele>9.0</ele><time>2026-03-25T11:33:35Z</time></trkpt><trkpt lat="45.426327820278864" lon="11.932124247248696"><ele>9.0</ele><time>2026-03-25T11:33:36Z</time></trkpt><trkpt lat="45.4263930982104" lon="11.932606203310495"><ele>9.0</ele><time>2026-03-25T11:33:37Z</time></trkpt><trkpt lat="45.42648998815322" lon="11.933082597748522"><ele>10.0</ele><time>2026-03-25T11:33:38Z</time></trkpt><trkpt lat="45.42658667725993" lon="11.933558467003378"><ele>11.0</ele><time>2026-03-25T11:33:39Z</time></trkpt><trkpt lat="45.426669049258685" lon="11.934026301100308"><ele>11.0</ele><time>2026-03-25T11:33:40Z</time></trkpt><trkpt lat="45.42675201921167" lon="11.934490846622749"><ele>11.0</ele><time>2026-03-25T11:33:41Z</time></trkpt><trkpt lat="45.42683853739117" lon="11.934954341998703"><ele>11.5</ele><time>2026-03-25T11:33:42Z</time></trkpt><trkpt lat="45.4269285691828" lon="11.935415198907258"><ele>12.0</ele><time>2026-03-25T11:33:43Z</time></trkpt><trkpt lat="45.42701705422511" lon="11.935883297724727"><ele>12.0</ele><time>2026-03-25T11:33:44Z</time></trkpt><trkpt lat="45.42710788118618" lon="11.936371347002408"><ele>12.0</ele><time>2026-03-25T11:33:45Z</time></trkpt><trkpt lat="45.427199572271384" lon="11.936849164925029"><ele>10.5</ele><time>2026-03-25T11:33:46Z</time></trkpt><trkpt lat="45.427286166568344" lon="11.93732649210456"><ele>9.0</ele><time>2026-03-25T11:33:47Z</time></trkpt><trkpt lat="45.42737539709675" lon="11.937808806118928"><ele>8.5</ele><time>2026-03-25T11:33:48Z</time></trkpt><trkpt lat="45.427469444610026" lon="11.93829674505611"><ele>8.0</ele><time>2026-03-25T11:33:49Z</time></trkpt><trkpt lat="45.42756214172287" lon="11.93878725502009"><ele>8.0</ele><time>2026-03-25T11:33:50Z</time></trkpt><trkpt lat="45.42765218794528" lon="11.939276701520484"><ele>8.0</ele><time>2026-03-25T11:33:51Z</time></trkpt><trkpt lat="45.427744026323275" lon="11.939771184404792"><ele>8.5</ele><time>2026-03-25T11:33:52Z</time></trkpt><trkpt lat="45.42784015684717" lon="11.940265818787921"><ele>9.0</ele><time>2026-03-25T11:33:53Z</time></trkpt><trkpt lat="45.42793834325117" lon="11.94075527985136"><ele>9.5</ele><time>2026-03-25T11:33:54Z</time></trkpt><trkpt lat="45.42803246757579" lon="11.941251744774945"><ele>10.0</ele><time>2026-03-25T11:33:55Z</time></trkpt><trkpt lat="45.428117328431604" lon="11.941762650980792"><ele>11.0</ele><time>2026-03-25T11:33:56Z</time></trkpt><trkpt lat="45.428210356224476" lon="11.942271162535565"><ele>12.0</ele><time>2026-03-25T11:33:57Z</time></trkpt><trkpt lat="45.42832269149118" lon="11.94277952805144"><ele>12.0</ele><time>2026-03-25T11:33:58Z</time></trkpt><trkpt lat="45.42843280001175" lon="11.943278001614145"><ele>12.0</ele><time>2026-03-25T11:33:59Z</time></trkpt><trkpt lat="45.42854292919783" lon="11.94378405099162"><ele>12.5</ele><time>2026-03-25T11:34:00Z</time></trkpt><trkpt lat="45.428648164817794" lon="11.944300316943542"><ele>13.0</ele><time>2026-03-25T11:34:01Z</time></trkpt><trkpt lat="45.42875173292143" lon="11.94480145044952"><ele>12.5</ele><time>2026-03-25T11:34:02Z</time></trkpt><trkpt lat="45.4288626966322" lon="11.945311927297354"><ele>12.0</ele><time>2026-03-25T11:34:03Z</time></trkpt><trkpt lat="45.428975698355174" lon="11.945813468296985"><ele>13.0</ele><time>2026-03-25T11:34:04Z</time></trkpt><trkpt lat="45.42908810262158" lon="11.94632392774343"><ele>14.0</ele><time>2026-03-25T11:34:05Z</time></trkpt><trkpt lat="45.42919590478952" lon="11.946841637948326"><ele>14.0</ele><time>2026-03-25T11:34:06Z</time></trkpt><trkpt lat="45.42929917330774" lon="11.947360009186141"><ele>14.0</ele><time>2026-03-25T11:34:07Z</time></trkpt><trkpt lat="45.42940209183507" lon="11.947873162501278"><ele>12.0</ele><time>2026-03-25T11:34:08Z</time></trkpt><trkpt lat="45.42950782011748" lon="11.948383351137878"><ele>10.0</ele><time>2026-03-25T11:34:09Z</time></trkpt><trkpt lat="45.42959913742831" lon="11.948892419965283"><ele>10.0</ele><time>2026-03-25T11:34:10Z</time></trkpt><trkpt lat="45.4297070105084" lon="11.949421321074098"><ele>10.0</ele><time>2026-03-25T11:34:11Z</time></trkpt><trkpt lat="45.429806698707914" lon="11.949963149914938"><ele>10.5</ele><time>2026-03-25T11:34:12Z</time></trkpt><trkpt lat="45.42990611246317" lon="11.95050731056948"><ele>11.0</ele><time>2026-03-25T11:34:13Z</time></trkpt><trkpt lat="45.430021360517614" lon="11.951039825190898"><ele>11.0</ele><time>2026-03-25T11:34:14Z</time></trkpt><trkpt lat="45.430128774473424" lon="11.95156323839167"><ele>11.0</ele><time>2026-03-25T11:34:15Z</time></trkpt><trkpt lat="45.43022495477573" lon="11.952101529464136"><ele>10.0</ele><time>2026-03-25T11:34:16Z</time></trkpt><trkpt lat="45.43032456250676" lon="11.952652339051342"><ele>9.0</ele><time>2026-03-25T11:34:17Z</time></trkpt><trkpt lat="45.430414770029074" lon="11.953219263063897"><ele>9.0</ele><time>2026-03-25T11:34:18Z</time></trkpt><trkpt lat="45.43051252370726" lon="11.95377985554102"><ele>9.0</ele><time>2026-03-25T11:34:19Z</time></trkpt><trkpt lat="45.430606867423094" lon="11.954331651964875"><ele>9.5</ele><time>2026-03-25T11:34:20Z</time></trkpt><trkpt lat="45.43071530054018" lon="11.954891803705298"><ele>10.0</ele><time>2026-03-25T11:34:21Z</time></trkpt><trkpt lat="45.4308109823218" lon="11.95545108713617"><ele>9.5</ele><time>2026-03-25T11:34:22Z</time></trkpt><trkpt lat="45.43089687308877" lon="11.95601179611083"><ele>9.0</ele><time>2026-03-25T11:34:23Z</time></trkpt><trkpt lat="45.43100559062463" lon="11.956573828999081"><ele>9.0</ele><time>2026-03-25T11:34:24Z</time></trkpt><trkpt lat="45.431116773637974" lon="11.957148544883475"><ele>9.0</ele><time>2026-03-25T11:34:25Z</time></trkpt><trkpt lat="45.431238314611306" lon="11.957728578249304"><ele>9.0</ele><time>2026-03-25T11:34:26Z</time></trkpt><trkpt lat="45.43134911736407" lon="11.958302545852098"><ele>9.0</ele><time>2026-03-25T11:34:27Z</time></trkpt><trkpt lat="45.431458996427594" lon="11.958878487663831"><ele>8.5</ele><time>2026-03-25T11:34:28Z</time></trkpt><trkpt lat="45.4315698408199" lon="11.959452019816016"><ele>8.0</ele><time>2026-03-25T11:34:29Z</time></trkpt><trkpt lat="45.43167854725985" lon="11.96002365198145"><ele>9.0</ele><time>2026-03-25T11:34:30Z</time></trkpt><trkpt lat="45.431795570548175" lon="11.96061014627611"><ele>10.0</ele><time>2026-03-25T11:34:31Z</time></trkpt><trkpt lat="45.43190886247271" lon="11.961194565396912"><ele>9.5</ele><time>2026-03-25T11:34:32Z</time></trkpt><trkpt lat="45.43201995149366" lon="11.961781608639937"><ele>9.0</ele><time>2026-03-25T11:34:33Z</time></trkpt><trkpt lat="45.43213426206028" lon="11.962369448571112"><ele>9.5</ele><time>2026-03-25T11:34:34Z</time></trkpt><trkpt lat="45.43225048462666" lon="11.96296092693431"><ele>10.0</ele><time>2026-03-25T11:34:35Z</time></trkpt><trkpt lat="45.432363244522094" lon="11.963554714034599"><ele>9.5</ele><time>2026-03-25T11:34:36Z</time></trkpt><trkpt lat="45.432475964382974" lon="11.964151274835002"><ele>9.0</ele><time>2026-03-25T11:34:37Z</time></trkpt><trkpt lat="45.43259404517225" lon="11.964748848651789"><ele>9.0</ele><time>2026-03-25T11:34:38Z</time></trkpt><trkpt lat="45.432709758254354" lon="11.965343386699214"><ele>9.0</ele><time>2026-03-25T11:34:39Z</time></trkpt><trkpt lat="45.43282582114199" lon="11.965942436971325"><ele>8.5</ele><time>2026-03-25T11:34:40Z</time></trkpt><trkpt lat="45.43294244597861" lon="11.966544949957605"><ele>8.0</ele><time>2026-03-25T11:34:41Z</time></trkpt><trkpt lat="45.4330596597417" lon="11.967149399981368"><ele>7.5</ele><time>2026-03-25T11:34:42Z</time></trkpt><trkpt lat="45.433176561787675" lon="11.967756398443079"><ele>7.0</ele><time>2026-03-25T11:34:43Z</time></trkpt><trkpt lat="45.43329520500195" lon="11.968363462202278"><ele>7.0</ele><time>2026-03-25T11:34:44Z</time></trkpt><trkpt lat="45.4334125216048" lon="11.968971027224768"><ele>7.0</ele><time>2026-03-25T11:34:45Z</time></trkpt><trkpt lat="45.43353041704937" lon="11.96958225217134"><ele>6.5</ele><time>2026-03-25T11:34:46Z</time></trkpt><trkpt lat="45.433648409795886" lon="11.97019357921661"><ele>6.0</ele><time>2026-03-25T11:34:47Z</time></trkpt><trkpt lat="45.433767003793186" lon="11.97080745583271"><ele>8.0</ele><time>2026-03-25T11:34:48Z</time></trkpt><trkpt lat="45.43388577457878" lon="11.971426718691728"><ele>8.0</ele><time>2026-03-25T11:34:49Z</time></trkpt><trkpt lat="45.43400515429157" lon="11.972050427990808"><ele>4.0</ele><time>2026-03-25T11:34:50Z</time></trkpt><trkpt lat="45.434125019574225" lon="11.972673191619245"><ele>4.0</ele><time>2026-03-25T11:34:51Z</time></trkpt><trkpt lat="45.43424532944729" lon="11.973296868475165"><ele>6.0</ele><time>2026-03-25T11:34:52Z</time></trkpt><trkpt lat="45.43436603583515" lon="11.973921268859325"><ele>6.0</ele><time>2026-03-25T11:34:53Z</time></trkpt><trkpt lat="45.43448797668443" lon="11.974547791959"><ele>7.0</ele><time>2026-03-25T11:34:54Z</time></trkpt><trkpt lat="45.43461057976498" lon="11.97517857220783"><ele>5.0</ele><time>2026-03-25T11:34:55Z</time></trkpt><trkpt lat="45.43473422102272" lon="11.975813662597657"><ele>5.0</ele><time>2026-03-25T11:34:56Z</time></trkpt><trkpt lat="45.434853454129964" lon="11.976445843419896"><ele>6.0</ele><time>2026-03-25T11:34:57Z</time></trkpt><trkpt lat="45.434974312448546" lon="11.977083632072247"><ele>5.0</ele><time>2026-03-25T11:34:58Z</time></trkpt><trkpt lat="45.43509810962078" lon="11.977724228753216"><ele>6.0</ele><time>2026-03-25T11:34:59Z</time></trkpt><trkpt lat="45.43522362038249" lon="11.978370663092901"><ele>6.0</ele><time>2026-03-25T11:35:00Z</time></trkpt><trkpt lat="45.4353489065281" lon="11.979013121285405"><ele>7.0</ele><time>2026-03-25T11:35:01Z</time></trkpt><trkpt lat="45.43547529343997" lon="11.979656374926106"><ele>6.0</ele><time>2026-03-25T11:35:02Z</time></trkpt><trkpt lat="45.43559879403671" lon="11.980301483905961"><ele>5.0</ele><time>2026-03-25T11:35:03Z</time></trkpt><trkpt lat="45.43572424399141" lon="11.980950608068804"><ele>5.0</ele><time>2026-03-25T11:35:04Z</time></trkpt><trkpt lat="45.43584916618194" lon="11.981602886446355"><ele>5.0</ele><time>2026-03-25T11:35:05Z</time></trkpt><trkpt lat="45.435977664429664" lon="11.98225740846644"><ele>6.0</ele><time>2026-03-25T11:35:06Z</time></trkpt><trkpt lat="45.4361067061816" lon="11.98291116011524"><ele>6.0</ele><time>2026-03-25T11:35:07Z</time></trkpt><trkpt lat="45.43623326399364" lon="11.983566528356908"><ele>8.0</ele><time>2026-03-25T11:35:08Z</time></trkpt><trkpt lat="45.43636046018995" lon="11.984225040523093"><ele>8.0</ele><time>2026-03-25T11:35:09Z</time></trkpt><trkpt lat="45.436486480111206" lon="11.984884488114915"><ele>7.0</ele><time>2026-03-25T11:35:10Z</time></trkpt><trkpt lat="45.43661404773799" lon="11.985546529291632"><ele>6.0</ele><time>2026-03-25T11:35:11Z</time></trkpt><trkpt lat="45.43674073959274" lon="11.986207985694996"><ele>5.0</ele><time>2026-03-25T11:35:12Z</time></trkpt><trkpt lat="45.436869723932446" lon="11.986873695940721"><ele>4.0</ele><time>2026-03-25T11:35:12.999Z</time></trkpt><trkpt lat="45.43699955326278" lon="11.987541904494764"><ele>4.0</ele><time>2026-03-25T11:35:13.999Z</time></trkpt><trkpt lat="45.437130499524905" lon="11.988211209602998"><ele>6.0</ele><time>2026-03-25T11:35:14.999Z</time></trkpt><trkpt lat="45.43725864320389" lon="11.988880235791987"><ele>5.0</ele><time>2026-03-25T11:35:15.999Z</time></trkpt><trkpt lat="45.43738833813066" lon="11.98955198617825"><ele>5.0</ele><time>2026-03-25T11:35:16.999Z</time></trkpt><trkpt lat="45.43751903641491" lon="11.99022610671573"><ele>5.0</ele><time>2026-03-25T11:35:17.999Z</time></trkpt><trkpt lat="45.43764993676297" lon="11.990899919021468"><ele>5.0</ele><time>2026-03-25T11:35:18.999Z</time></trkpt><trkpt lat="45.4377838747377" lon="11.99157765105159"><ele>4.0</ele><time>2026-03-25T11:35:19.999Z</time></trkpt><trkpt lat="45.437916793147856" lon="11.992253995981965"><ele>5.0</ele><time>2026-03-25T11:35:20.999Z</time></trkpt><trkpt lat="45.43804586873608" lon="11.992932383925098"><ele>5.0</ele><time>2026-03-25T11:35:21.999Z</time></trkpt><trkpt lat="45.43817851590857" lon="11.993619637210788"><ele>5.0</ele><time>2026-03-25T11:35:23Z</time></trkpt><trkpt lat="45.43831324219288" lon="11.99430422931958"><ele>5.0</ele><time>2026-03-25T11:35:24Z</time></trkpt><trkpt lat="45.43844537862689" lon="11.994988800756758"><ele>5.0</ele><time>2026-03-25T11:35:25Z</time></trkpt><trkpt lat="45.43858024425318" lon="11.995681684017466"><ele>5.0</ele><time>2026-03-25T11:35:26Z</time></trkpt><trkpt lat="45.43870924690156" lon="11.99636307508317"><ele>4.0</ele><time>2026-03-25T11:35:27Z</time></trkpt><trkpt lat="45.43884156947217" lon="11.997048104671263"><ele>5.0</ele><time>2026-03-25T11:35:28Z</time></trkpt><trkpt lat="45.43897102645189" lon="11.997737804750354"><ele>5.0</ele><time>2026-03-25T11:35:29Z</time></trkpt><trkpt lat="45.439112299713095" lon="11.998426510168295"><ele>5.0</ele><time>2026-03-25T11:35:30Z</time></trkpt><trkpt lat="45.43924397943835" lon="11.99911861015373"><ele>6.0</ele><time>2026-03-25T11:35:31Z</time></trkpt><trkpt lat="45.43937964644314" lon="11.99982456402454"><ele>6.0</ele><time>2026-03-25T11:35:32Z</time></trkpt><trkpt lat="45.43951705668662" lon="12.000528822875175"><ele>5.0</ele><time>2026-03-25T11:35:33Z</time></trkpt><trkpt lat="45.43965008405059" lon="12.001233715398737"><ele>5.0</ele><time>2026-03-25T11:35:34Z</time></trkpt><trkpt lat="45.43978673948245" lon="12.001938265342787"><ele>5.0</ele><time>2026-03-25T11:35:35Z</time></trkpt><trkpt lat="45.43991808269007" lon="12.002646414575285"><ele>4.0</ele><time>2026-03-25T11:35:36Z</time></trkpt><trkpt lat="45.44005302421248" lon="12.003354365564306"><ele>4.0</ele><time>2026-03-25T11:35:37Z</time></trkpt><trkpt lat="45.44018770595931" lon="12.00405987737319"><ele>6.0</ele><time>2026-03-25T11:35:38Z</time></trkpt><trkpt lat="45.44032104259933" lon="12.00476785904622"><ele>6.0</ele><time>2026-03-25T11:35:39Z</time></trkpt><trkpt lat="45.44045438471648" lon="12.005479415280993"><ele>6.0</ele><time>2026-03-25T11:35:40Z</time></trkpt><trkpt lat="45.440586448772194" lon="12.006189524654626"><ele>8.0</ele><time>2026-03-25T11:35:41Z</time></trkpt><trkpt lat="45.4407170478456" lon="12.006899235353764"><ele>8.0</ele><time>2026-03-25T11:35:42Z</time></trkpt><trkpt lat="45.44085345204025" lon="12.007621756539315"><ele>7.0</ele><time>2026-03-25T11:35:43Z</time></trkpt><trkpt lat="45.44098973450368" lon="12.008334601618223"><ele>7.0</ele><time>2026-03-25T11:35:44Z</time></trkpt><trkpt lat="45.44112666737457" lon="12.009047050854289"><ele>5.0</ele><time>2026-03-25T11:35:45Z</time></trkpt><trkpt lat="45.44126440845282" lon="12.009758223969447"><ele>5.0</ele><time>2026-03-25T11:35:46Z</time></trkpt><trkpt lat="45.44140294305173" lon="12.010472815111635"><ele>5.0</ele><time>2026-03-25T11:35:47Z</time></trkpt><trkpt lat="45.44154423995646" lon="12.01119106507987"><ele>5.0</ele><time>2026-03-25T11:35:48Z</time></trkpt><trkpt lat="45.44168270535264" lon="12.011912108033085"><ele>5.0</ele><time>2026-03-25T11:35:49Z</time></trkpt><trkpt lat="45.44182349696065" lon="12.01263266727438"><ele>5.0</ele><time>2026-03-25T11:35:50Z</time></trkpt><trkpt lat="45.44196643297041" lon="12.013359848024022"><ele>5.0</ele><time>2026-03-25T11:35:51Z</time></trkpt><trkpt lat="45.4421023271277" lon="12.014081405159937"><ele>6.0</ele><time>2026-03-25T11:35:52Z</time></trkpt><trkpt lat="45.44224186749701" lon="12.014806126360236"><ele>6.0</ele><time>2026-03-25T11:35:53Z</time></trkpt><trkpt lat="45.4423849390148" lon="12.015535280385514"><ele>5.0</ele><time>2026-03-25T11:35:54Z</time></trkpt><trkpt lat="45.442524571152" lon="12.016261333244538"><ele>5.0</ele><time>2026-03-25T11:35:55Z</time></trkpt><trkpt lat="45.442666622028575" lon="12.016986496606933"><ele>8.0</ele><time>2026-03-25T11:35:56Z</time></trkpt><trkpt lat="45.44280856573615" lon="12.017713879318537"><ele>6.0</ele><time>2026-03-25T11:35:57Z</time></trkpt><trkpt lat="45.44295755464417" lon="12.018439005210073"><ele>7.0</ele><time>2026-03-25T11:35:58Z</time></trkpt><trkpt lat="45.443107558785826" lon="12.019178134901264"><ele>7.0</ele><time>2026-03-25T11:35:59Z</time></trkpt><trkpt lat="45.443253375819474" lon="12.019917879291084"><ele>6.0</ele><time>2026-03-25T11:36:00Z</time></trkpt><trkpt lat="45.44339296672719" lon="12.020659754139835"><ele>6.0</ele><time>2026-03-25T11:36:01Z</time></trkpt><trkpt lat="45.44354158992922" lon="12.021399852124521"><ele>5.0</ele><time>2026-03-25T11:36:02Z</time></trkpt><trkpt lat="45.443691184860874" lon="12.022144483928516"><ele>6.0</ele><time>2026-03-25T11:36:03Z</time></trkpt><trkpt lat="45.44383785906404" lon="12.022888301838984"><ele>5.0</ele><time>2026-03-25T11:36:04Z</time></trkpt><trkpt lat="45.443983417125246" lon="12.023628069991595"><ele>5.0</ele><time>2026-03-25T11:36:05Z</time></trkpt><trkpt lat="45.444137141028556" lon="12.024378864210394"><ele>5.0</ele><time>2026-03-25T11:36:06Z</time></trkpt><trkpt lat="45.44427686575113" lon="12.025120735417119"><ele>4.0</ele><time>2026-03-25T11:36:07Z</time></trkpt><trkpt lat="45.44442760053329" lon="12.02588025045711"><ele>4.0</ele><time>2026-03-25T11:36:08Z</time></trkpt><trkpt lat="45.44456586712614" lon="12.026633957547967"><ele>5.0</ele><time>2026-03-25T11:36:09Z</time></trkpt><trkpt lat="45.444716063627055" lon="12.027388253378177"><ele>4.0</ele><time>2026-03-25T11:36:10Z</time></trkpt><trkpt lat="45.44487558017159" lon="12.028140557772296"><ele>5.0</ele><time>2026-03-25T11:36:11Z</time></trkpt><trkpt lat="45.4450325996423" lon="12.028896443864832"><ele>4.0</ele><time>2026-03-25T11:36:12Z</time></trkpt><trkpt lat="45.44518360943286" lon="12.029644538713661"><ele>2.0</ele><time>2026-03-25T11:36:13Z</time></trkpt><trkpt lat="45.44533290878677" lon="12.030395977457394"><ele>2.0</ele><time>2026-03-25T11:36:14Z</time></trkpt><trkpt lat="45.445495055753405" lon="12.031157627604127"><ele>4.0</ele><time>2026-03-25T11:36:15Z</time></trkpt><trkpt lat="45.44564647482155" lon="12.031913132076042"><ele>4.0</ele><time>2026-03-25T11:36:16Z</time></trkpt><trkpt lat="45.44580828793453" lon="12.032671581874915"><ele>3.0</ele><time>2026-03-25T11:36:17Z</time></trkpt><trkpt lat="45.44596665545259" lon="12.033436710619956"><ele>4.0</ele><time>2026-03-25T11:36:18Z</time></trkpt><trkpt lat="45.44611759359" lon="12.03419465930485"><ele>4.0</ele><time>2026-03-25T11:36:19Z</time></trkpt><trkpt lat="45.44627743779128" lon="12.034955495685018"><ele>4.0</ele><time>2026-03-25T11:36:20Z</time></trkpt><trkpt lat="45.44643517446083" lon="12.035719513056058"><ele>5.0</ele><time>2026-03-25T11:36:21Z</time></trkpt><trkpt lat="45.446583750462494" lon="12.036483256750147"><ele>4.0</ele><time>2026-03-25T11:36:22Z</time></trkpt><trkpt lat="45.446747267852096" lon="12.037250046077896"><ele>3.0</ele><time>2026-03-25T11:36:23Z</time></trkpt><trkpt lat="45.44689623316526" lon="12.038018774376697"><ele>4.0</ele><time>2026-03-25T11:36:24Z</time></trkpt><trkpt lat="45.44704690636647" lon="12.03878251333714"><ele>4.0</ele><time>2026-03-25T11:36:25Z</time></trkpt><trkpt lat="45.44720850135573" lon="12.039556243897149"><ele>3.0</ele><time>2026-03-25T11:36:26Z</time></trkpt><trkpt lat="45.44736570528739" lon="12.040316905357155"><ele>3.0</ele><time>2026-03-25T11:36:27Z</time></trkpt><trkpt lat="45.44751601994141" lon="12.041071213686823"><ele>4.0</ele><time>2026-03-25T11:36:28Z</time></trkpt><trkpt lat="45.44766610614454" lon="12.041834229030293"><ele>4.0</ele><time>2026-03-25T11:36:29Z</time></trkpt><trkpt lat="45.4478167293596" lon="12.042593398787742"><ele>5.0</ele><time>2026-03-25T11:36:30Z</time></trkpt><trkpt lat="45.447971665911446" lon="12.043351070168969"><ele>5.0</ele><time>2026-03-25T11:36:31Z</time></trkpt><trkpt lat="45.448130396278685" lon="12.044115482250756"><ele>5.0</ele><time>2026-03-25T11:36:32Z</time></trkpt><trkpt lat="45.44828533438267" lon="12.044873044566147"><ele>4.0</ele><time>2026-03-25T11:36:33Z</time></trkpt><trkpt lat="45.44843492112848" lon="12.045626714068884"><ele>4.0</ele><time>2026-03-25T11:36:34Z</time></trkpt><trkpt lat="45.44858372777311" lon="12.046384586363285"><ele>4.0</ele><time>2026-03-25T11:36:35Z</time></trkpt><trkpt lat="45.448736262745996" lon="12.047149924794509"><ele>4.0</ele><time>2026-03-25T11:36:36Z</time></trkpt><trkpt lat="45.44888853100416" lon="12.047922891655862"><ele>3.0</ele><time>2026-03-25T11:36:37Z</time></trkpt><trkpt lat="45.44904716313898" lon="12.04870637616221"><ele>2.0</ele><time>2026-03-25T11:36:38Z</time></trkpt><trkpt lat="45.449195670045924" lon="12.0494604502989"><ele>2.0</ele><time>2026-03-25T11:36:39Z</time></trkpt><trkpt lat="45.449344096561084" lon="12.05022107216171"><ele>5.0</ele><time>2026-03-25T11:36:40Z</time></trkpt><trkpt lat="45.449493567843625" lon="12.050987786536407"><ele>2.0</ele><time>2026-03-25T11:36:41Z</time></trkpt><trkpt lat="45.4496571231761" lon="12.051761915012325"><ele>2.0</ele><time>2026-03-25T11:36:42Z</time></trkpt><trkpt lat="45.44980870196323" lon="12.052539809857839"><ele>2.0</ele><time>2026-03-25T11:36:43Z</time></trkpt><trkpt lat="45.44995123026349" lon="12.053301132244245"><ele>2.0</ele><time>2026-03-25T11:36:44Z</time></trkpt><trkpt lat="45.45009959050685" lon="12.05407661646033"><ele>5.0</ele><time>2026-03-25T11:36:45Z</time></trkpt><trkpt lat="45.450246237521625" lon="12.05484648219786"><ele>5.0</ele><time>2026-03-25T11:36:46Z</time></trkpt><trkpt lat="45.450407175761306" lon="12.05559890690038"><ele>3.0</ele><time>2026-03-25T11:36:47Z</time></trkpt><trkpt lat="45.450558259831126" lon="12.05635209660704"><ele>3.0</ele><time>2026-03-25T11:36:48Z</time></trkpt><trkpt lat="45.45070509058918" lon="12.05709399400243"><ele>3.0</ele><time>2026-03-25T11:36:49Z</time></trkpt><trkpt lat="45.45085491711271" lon="12.05784328324626"><ele>3.0</ele><time>2026-03-25T11:36:50Z</time></trkpt><trkpt lat="45.451002675100646" lon="12.058595070159296"><ele>3.0</ele><time>2026-03-25T11:36:51Z</time></trkpt><trkpt lat="45.4511556506003" lon="12.05934572840875"><ele>3.0</ele><time>2026-03-25T11:36:52Z</time></trkpt><trkpt lat="45.451300706782625" lon="12.06009728428217"><ele>3.0</ele><time>2026-03-25T11:36:53Z</time></trkpt><trkpt lat="45.45144916165325" lon="12.060851768538374"><ele>3.0</ele><time>2026-03-25T11:36:54Z</time></trkpt><trkpt lat="45.451600495082864" lon="12.061612177928401"><ele>3.0</ele><time>2026-03-25T11:36:55Z</time></trkpt><trkpt lat="45.45174938828103" lon="12.062367016746954"><ele>4.0</ele><time>2026-03-25T11:36:56Z</time></trkpt><trkpt lat="45.45189856086222" lon="12.063123851835856"><ele>3.0</ele><time>2026-03-25T11:36:57Z</time></trkpt><trkpt lat="45.452046865712376" lon="12.063878292731287"><ele>3.0</ele><time>2026-03-25T11:36:58Z</time></trkpt><trkpt lat="45.45219911491641" lon="12.064632357480503"><ele>2.0</ele><time>2026-03-25T11:36:59Z</time></trkpt><trkpt lat="45.45235349272082" lon="12.06539014857681"><ele>2.0</ele><time>2026-03-25T11:37:00Z</time></trkpt><trkpt lat="45.452511581738435" lon="12.066141623590886"><ele>3.0</ele><time>2026-03-25T11:37:01Z</time></trkpt><trkpt lat="45.45266468284278" lon="12.066900366624651"><ele>4.0</ele><time>2026-03-25T11:37:02Z</time></trkpt><trkpt lat="45.45282475675186" lon="12.067649407269798"><ele>2.0</ele><time>2026-03-25T11:37:03Z</time></trkpt><trkpt lat="45.45297527904722" lon="12.068408067721462"><ele>3.0</ele><time>2026-03-25T11:37:04Z</time></trkpt><trkpt lat="45.45312356018528" lon="12.069168745342457"><ele>3.0</ele><time>2026-03-25T11:37:05Z</time></trkpt><trkpt lat="45.453271218985" lon="12.06993082370073"><ele>3.0</ele><time>2026-03-25T11:37:06Z</time></trkpt><trkpt lat="45.453427234970995" lon="12.070685998689147"><ele>4.0</ele><time>2026-03-25T11:37:07Z</time></trkpt><trkpt lat="45.45357840210267" lon="12.07144443915666"><ele>4.0</ele><time>2026-03-25T11:37:08Z</time></trkpt><trkpt lat="45.45373418150758" lon="12.072205734666293"><ele>5.0</ele><time>2026-03-25T11:37:09Z</time></trkpt><trkpt lat="45.45388676095093" lon="12.072968913278814"><ele>7.0</ele><time>2026-03-25T11:37:10Z</time></trkpt><trkpt lat="45.45404462829936" lon="12.073728674432125"><ele>4.0</ele><time>2026-03-25T11:37:11Z</time></trkpt><trkpt lat="45.45418517564407" lon="12.074474184426009"><ele>2.0</ele><time>2026-03-25T11:37:12Z</time></trkpt><trkpt lat="45.4543375798658" lon="12.075230520007871"><ele>2.0</ele><time>2026-03-25T11:37:13Z</time></trkpt><trkpt lat="45.45448187236685" lon="12.075986664078304"><ele>2.0</ele><time>2026-03-25T11:37:14Z</time></trkpt><trkpt lat="45.45463279099674" lon="12.076744784767099"><ele>1.0</ele><time>2026-03-25T11:37:15Z</time></trkpt><trkpt lat="45.45478424259175" lon="12.077501626943176"><ele>1.0</ele><time>2026-03-25T11:37:16Z</time></trkpt><trkpt lat="45.454934478525885" lon="12.078257915607443"><ele>3.0</ele><time>2026-03-25T11:37:17Z</time></trkpt><trkpt lat="45.455090233389214" lon="12.0790135545348"><ele>3.0</ele><time>2026-03-25T11:37:18Z</time></trkpt><trkpt lat="45.45523640283287" lon="12.079772065543679"><ele>2.0</ele><time>2026-03-25T11:37:19Z</time></trkpt><trkpt lat="45.45538327821201" lon="12.080517895662796"><ele>2.0</ele><time>2026-03-25T11:37:20Z</time></trkpt><trkpt lat="45.45553412966733" lon="12.08127038524978"><ele>2.0</ele><time>2026-03-25T11:37:21Z</time></trkpt><trkpt lat="45.45567853527984" lon="12.082015141939069"><ele>1.0</ele><time>2026-03-25T11:37:22Z</time></trkpt><trkpt lat="45.45582666550618" lon="12.082764695486631"><ele>1.0</ele><time>2026-03-25T11:37:23Z</time></trkpt><trkpt lat="45.45598105962248" lon="12.083520991671858"><ele>3.0</ele><time>2026-03-25T11:37:24Z</time></trkpt><trkpt lat="45.4561251911086" lon="12.084280447275702"><ele>2.0</ele><time>2026-03-25T11:37:25Z</time></trkpt><trkpt lat="45.45627134169371" lon="12.085033825679744"><ele>1.0</ele><time>2026-03-25T11:37:26Z</time></trkpt><trkpt lat="45.45641936134318" lon="12.085786197793716"><ele>1.0</ele><time>2026-03-25T11:37:27Z</time></trkpt><trkpt lat="45.45656870994815" lon="12.086541135526494"><ele>4.0</ele><time>2026-03-25T11:37:28Z</time></trkpt><trkpt lat="45.45671630422462" lon="12.087294233275365"><ele>3.0</ele><time>2026-03-25T11:37:29Z</time></trkpt><trkpt lat="45.45686539376773" lon="12.088048745504377"><ele>1.0</ele><time>2026-03-25T11:37:30Z</time></trkpt><trkpt lat="45.45701507729825" lon="12.08880322477928"><ele>2.0</ele><time>2026-03-25T11:37:31Z</time></trkpt><trkpt lat="45.45716434240522" lon="12.08956091184253"><ele>2.0</ele><time>2026-03-25T11:37:32Z</time></trkpt><trkpt lat="45.45731441697578" lon="12.090330754498902"><ele>2.0</ele><time>2026-03-25T11:37:33Z</time></trkpt><trkpt lat="45.457449184930965" lon="12.091085970159329"><ele>1.0</ele><time>2026-03-25T11:37:34Z</time></trkpt><trkpt lat="45.457588982115695" lon="12.09184916006711"><ele>2.0</ele><time>2026-03-25T11:37:35Z</time></trkpt><trkpt lat="45.45772840340055" lon="12.092611367693594"><ele>2.0</ele><time>2026-03-25T11:37:36Z</time></trkpt><trkpt lat="45.4578730439937" lon="12.09337465055217"><ele>2.0</ele><time>2026-03-25T11:37:37Z</time></trkpt><trkpt lat="45.458023294137156" lon="12.094136508608447"><ele>2.0</ele><time>2026-03-25T11:37:38Z</time></trkpt><trkpt lat="45.45817441037187" lon="12.09489625285666"><ele>2.0</ele><time>2026-03-25T11:37:39Z</time></trkpt><trkpt lat="45.45832569817138" lon="12.095656113070556"><ele>2.0</ele><time>2026-03-25T11:37:40Z</time></trkpt><trkpt lat="45.45847751946089" lon="12.096415264856276"><ele>2.0</ele><time>2026-03-25T11:37:41Z</time></trkpt><trkpt lat="45.45862811034414" lon="12.09717544231463"><ele>0.0</ele><time>2026-03-25T11:37:42Z</time></trkpt><trkpt lat="45.45877937034617" lon="12.097937684163577"><ele>1.0</ele><time>2026-03-25T11:37:43Z</time></trkpt><trkpt lat="45.45892745981904" lon="12.09869469419458"><ele>0.0</ele><time>2026-03-25T11:37:44Z</time></trkpt><trkpt lat="45.45907805598389" lon="12.09944953176171"><ele>2.0</ele><time>2026-03-25T11:37:45Z</time></trkpt><trkpt lat="45.45922854199971" lon="12.100208976083898"><ele>1.0</ele><time>2026-03-25T11:37:46Z</time></trkpt><trkpt lat="45.45937995724507" lon="12.100972236225367"><ele>0.0</ele><time>2026-03-25T11:37:47Z</time></trkpt><trkpt lat="45.45953045291216" lon="12.101731042128161"><ele>2.0</ele><time>2026-03-25T11:37:48Z</time></trkpt><trkpt lat="45.45968305943045" lon="12.102488890392724"><ele>2.0</ele><time>2026-03-25T11:37:49Z</time></trkpt><trkpt lat="45.459834072858754" lon="12.103241807349807"><ele>2.0</ele><time>2026-03-25T11:37:50Z</time></trkpt><trkpt lat="45.45998392226733" lon="12.103997971665825"><ele>2.0</ele><time>2026-03-25T11:37:51Z</time></trkpt><trkpt lat="45.46013192485664" lon="12.10475672245838"><ele>1.0</ele><time>2026-03-25T11:37:52Z</time></trkpt><trkpt lat="45.460279835485736" lon="12.105513634673944"><ele>0.0</ele><time>2026-03-25T11:37:53Z</time></trkpt><trkpt lat="45.460428460576" lon="12.106269757636415"><ele>0.0</ele><time>2026-03-25T11:37:54Z</time></trkpt><trkpt lat="45.46057840798684" lon="12.107026933414193"><ele>0.0</ele><time>2026-03-25T11:37:55Z</time></trkpt><trkpt lat="45.46072917327817" lon="12.107783855711606"><ele>0.0</ele><time>2026-03-25T11:37:56Z</time></trkpt><trkpt lat="45.46087792770502" lon="12.108538755748029"><ele>2.0</ele><time>2026-03-25T11:37:57Z</time></trkpt><trkpt lat="45.461027845999695" lon="12.109293611180384"><ele>2.0</ele><time>2026-03-25T11:37:58Z</time></trkpt><trkpt lat="45.4611761443887" lon="12.110046546405234"><ele>1.0</ele><time>2026-03-25T11:37:59Z</time></trkpt><trkpt lat="45.46133010980089" lon="12.110798323514247"><ele>1.0</ele><time>2026-03-25T11:38:00Z</time></trkpt><trkpt lat="45.461486250745445" lon="12.11155224725598"><ele>-1.0</ele><time>2026-03-25T11:38:01Z</time></trkpt><trkpt lat="45.461645983439915" lon="12.11229656204601"><ele>2.0</ele><time>2026-03-25T11:38:02Z</time></trkpt><trkpt lat="45.46180855571058" lon="12.11304381331328"><ele>1.0</ele><time>2026-03-25T11:38:03Z</time></trkpt><trkpt lat="45.46197401097955" lon="12.113789346109641"><ele>-1.0</ele><time>2026-03-25T11:38:04Z</time></trkpt><trkpt lat="45.46214051535827" lon="12.11453701928124"><ele>-1.0</ele><time>2026-03-25T11:38:05Z</time></trkpt><trkpt lat="45.46231015021087" lon="12.115282338074419"><ele>1.0</ele><time>2026-03-25T11:38:06Z</time></trkpt><trkpt lat="45.462476965400214" lon="12.116029129877145"><ele>2.0</ele><time>2026-03-25T11:38:07Z</time></trkpt><trkpt lat="45.462642660293184" lon="12.116776272340957"><ele>3.0</ele><time>2026-03-25T11:38:08Z</time></trkpt><trkpt lat="45.46280705792403" lon="12.117523041786347"><ele>3.0</ele><time>2026-03-25T11:38:09Z</time></trkpt><trkpt lat="45.46296606385861" lon="12.118273422500254"><ele>3.0</ele><time>2026-03-25T11:38:10Z</time></trkpt><trkpt lat="45.463124918424796" lon="12.119023329926057"><ele>4.0</ele><time>2026-03-25T11:38:11Z</time></trkpt><trkpt lat="45.463280780420796" lon="12.119774682959317"><ele>6.0</ele><time>2026-03-25T11:38:12Z</time></trkpt><trkpt lat="45.46343352095158" lon="12.120528079264483"><ele>6.0</ele><time>2026-03-25T11:38:13Z</time></trkpt><trkpt lat="45.463586001415585" lon="12.121284680382267"><ele>6.0</ele><time>2026-03-25T11:38:14Z</time></trkpt><trkpt lat="45.46374087568899" lon="12.122037561904763"><ele>2.0</ele><time>2026-03-25T11:38:15Z</time></trkpt><trkpt lat="45.463897337233966" lon="12.122792773063882"><ele>1.0</ele><time>2026-03-25T11:38:16Z</time></trkpt><trkpt lat="45.46405788221065" lon="12.12354531883955"><ele>3.0</ele><time>2026-03-25T11:38:17Z</time></trkpt><trkpt lat="45.46421882533137" lon="12.124296647949075"><ele>3.0</ele><time>2026-03-25T11:38:18Z</time></trkpt><trkpt lat="45.46438212756334" lon="12.12505025735461"><ele>1.0</ele><time>2026-03-25T11:38:19Z</time></trkpt><trkpt lat="45.464544085416335" lon="12.12580307963753"><ele>2.0</ele><time>2026-03-25T11:38:20Z</time></trkpt><trkpt lat="45.46470913264262" lon="12.126557954506307"><ele>1.0</ele><time>2026-03-25T11:38:21Z</time></trkpt><trkpt lat="45.46487134725021" lon="12.127313693370494"><ele>0.0</ele><time>2026-03-25T11:38:22Z</time></trkpt><trkpt lat="45.46503441589701" lon="12.128062442270325"><ele>1.0</ele><time>2026-03-25T11:38:23Z</time></trkpt><trkpt lat="45.46519493234157" lon="12.128814358087434"><ele>2.0</ele><time>2026-03-25T11:38:24Z</time></trkpt><trkpt lat="45.465357770417604" lon="12.129566236684695"><ele>2.0</ele><time>2026-03-25T11:38:25Z</time></trkpt><trkpt lat="45.465517500228394" lon="12.130314942491086"><ele>2.0</ele><time>2026-03-25T11:38:26Z</time></trkpt><trkpt lat="45.465679901629365" lon="12.131065458765027"><ele>1.0</ele><time>2026-03-25T11:38:27Z</time></trkpt><trkpt lat="45.46584130040872" lon="12.131814256401709"><ele>0.0</ele><time>2026-03-25T11:38:28Z</time></trkpt><trkpt lat="45.46600306132626" lon="12.132563670349612"><ele>0.0</ele><time>2026-03-25T11:38:29Z</time></trkpt><trkpt lat="45.46616336030694" lon="12.133308725175528"><ele>0.0</ele><time>2026-03-25T11:38:30Z</time></trkpt><trkpt lat="45.46632261382856" lon="12.134047483166775"><ele>1.0</ele><time>2026-03-25T11:38:31Z</time></trkpt><trkpt lat="45.46648160196055" lon="12.134781336888949"><ele>1.0</ele><time>2026-03-25T11:38:32Z</time></trkpt><trkpt lat="45.46663822257167" lon="12.135509467724884"><ele>1.0</ele><time>2026-03-25T11:38:33Z</time></trkpt><trkpt lat="45.46679563277559" lon="12.136233612493411"><ele>1.0</ele><time>2026-03-25T11:38:34Z</time></trkpt><trkpt lat="45.466949997077485" lon="12.13694967972186"><ele>2.0</ele><time>2026-03-25T11:38:35Z</time></trkpt><trkpt lat="45.46710433311157" lon="12.137662817713185"><ele>0.0</ele><time>2026-03-25T11:38:36Z</time></trkpt><trkpt lat="45.46725611926965" lon="12.138368972225768"><ele>1.0</ele><time>2026-03-25T11:38:37Z</time></trkpt><trkpt lat="45.4674044312649" lon="12.139068985693772"><ele>1.0</ele><time>2026-03-25T11:38:38Z</time></trkpt><trkpt lat="45.467554434197396" lon="12.139764023605794"><ele>1.0</ele><time>2026-03-25T11:38:39Z</time></trkpt><trkpt lat="45.46770180361311" lon="12.14045390957592"><ele>-1.0</ele><time>2026-03-25T11:38:40Z</time></trkpt><trkpt lat="45.46785026516066" lon="12.141137751856023"><ele>1.0</ele><time>2026-03-25T11:38:41Z</time></trkpt><trkpt lat="45.46799642213376" lon="12.141815535270815"><ele>0.0</ele><time>2026-03-25T11:38:42Z</time></trkpt><trkpt lat="45.46814239947868" lon="12.142488278199176"><ele>0.0</ele><time>2026-03-25T11:38:43Z</time></trkpt><trkpt lat="45.46828442813763" lon="12.143153450367915"><ele>0.0</ele><time>2026-03-25T11:38:44Z</time></trkpt><trkpt lat="45.468427475316616" lon="12.143813590449453"><ele>0.0</ele><time>2026-03-25T11:38:45Z</time></trkpt><trkpt lat="45.46856854717433" lon="12.144467314979844"><ele>1.0</ele><time>2026-03-25T11:38:46Z</time></trkpt><trkpt lat="45.46870849305252" lon="12.145114673171205"><ele>3.0</ele><time>2026-03-25T11:38:47Z</time></trkpt><trkpt lat="45.46884749828742" lon="12.145757030853725"><ele>3.0</ele><time>2026-03-25T11:38:48Z</time></trkpt><trkpt lat="45.46898288406299" lon="12.146392873302165"><ele>3.0</ele><time>2026-03-25T11:38:49Z</time></trkpt><trkpt lat="45.46911766610448" lon="12.147020295169748"><ele>0.0</ele><time>2026-03-25T11:38:50Z</time></trkpt><trkpt lat="45.4692516759537" lon="12.14764676708898"><ele>0.0</ele><time>2026-03-25T11:38:51Z</time></trkpt><trkpt lat="45.46938550212675" lon="12.148268266964914"><ele>0.0</ele><time>2026-03-25T11:38:52Z</time></trkpt><trkpt lat="45.46951791690484" lon="12.148886298080317"><ele>-1.0</ele><time>2026-03-25T11:38:53Z</time></trkpt><trkpt lat="45.46965022621973" lon="12.149501372689835"><ele>-1.0</ele><time>2026-03-25T11:38:54Z</time></trkpt><trkpt lat="45.46978192561766" lon="12.150112367544452"><ele>-1.0</ele><time>2026-03-25T11:38:55Z</time></trkpt><trkpt lat="45.46991329597241" lon="12.150720133777849"><ele>-1.0</ele><time>2026-03-25T11:38:56Z</time></trkpt><trkpt lat="45.470042535313745" lon="12.151325599675541"><ele>-1.0</ele><time>2026-03-25T11:38:57Z</time></trkpt><trkpt lat="45.47017165441506" lon="12.151927248707404"><ele>-0.5</ele><time>2026-03-25T11:38:58Z</time></trkpt><trkpt lat="45.470301138331074" lon="12.15252584109205"><ele>0.0</ele><time>2026-03-25T11:38:59Z</time></trkpt><trkpt lat="45.47042865074674" lon="12.153120163377686"><ele>-0.5</ele><time>2026-03-25T11:39:00Z</time></trkpt><trkpt lat="45.47055545765595" lon="12.153714018725804"><ele>-1.0</ele><time>2026-03-25T11:39:01Z</time></trkpt><trkpt lat="45.47068207517689" lon="12.1543035492955"><ele>0.0</ele><time>2026-03-25T11:39:02Z</time></trkpt><trkpt lat="45.47080781077929" lon="12.154889515105069"><ele>1.0</ele><time>2026-03-25T11:39:03Z</time></trkpt><trkpt lat="45.47093189174596" lon="12.155473747858817"><ele>0.5</ele><time>2026-03-25T11:39:04Z</time></trkpt><trkpt lat="45.47106088317823" lon="12.156054626413324"><ele>0.0</ele><time>2026-03-25T11:39:05Z</time></trkpt><trkpt lat="45.471185239130676" lon="12.156632657557997"><ele>-0.5</ele><time>2026-03-25T11:39:06Z</time></trkpt><trkpt lat="45.47130732354713" lon="12.15720905557782"><ele>-1.0</ele><time>2026-03-25T11:39:07Z</time></trkpt><trkpt lat="45.47142913570671" lon="12.157789530587726"><ele>1.5</ele><time>2026-03-25T11:39:08Z</time></trkpt><trkpt lat="45.471552683199555" lon="12.158357109456839"><ele>4.0</ele><time>2026-03-25T11:39:09Z</time></trkpt><trkpt lat="45.47167443408086" lon="12.158938612530989"><ele>3.0</ele><time>2026-03-25T11:39:10Z</time></trkpt><trkpt lat="45.47180711712226" lon="12.159529065751126"><ele>2.0</ele><time>2026-03-25T11:39:11Z</time></trkpt><trkpt lat="45.47192818246416" lon="12.16009878513182"><ele>2.0</ele><time>2026-03-25T11:39:12Z</time></trkpt><trkpt lat="45.47204480215717" lon="12.160679173960869"><ele>2.0</ele><time>2026-03-25T11:39:13Z</time></trkpt><trkpt lat="45.472165713786566" lon="12.161241292607967"><ele>1.5</ele><time>2026-03-25T11:39:14Z</time></trkpt><trkpt lat="45.472288414557035" lon="12.161799338150036"><ele>1.0</ele><time>2026-03-25T11:39:15Z</time></trkpt><trkpt lat="45.47241293326748" lon="12.162357826932288"><ele>1.0</ele><time>2026-03-25T11:39:16Z</time></trkpt><trkpt lat="45.4725373682582" lon="12.162917859983656"><ele>1.0</ele><time>2026-03-25T11:39:17Z</time></trkpt><trkpt lat="45.472665353530395" lon="12.163483396195353"><ele>0.5</ele><time>2026-03-25T11:39:18Z</time></trkpt><trkpt lat="45.472792700793" lon="12.164043436438117"><ele>0.0</ele><time>2026-03-25T11:39:19Z</time></trkpt><trkpt lat="45.47292174612832" lon="12.164599829514522"><ele>0.5</ele><time>2026-03-25T11:39:20Z</time></trkpt><trkpt lat="45.473047164392554" lon="12.165163598438626"><ele>1.0</ele><time>2026-03-25T11:39:21Z</time></trkpt><trkpt lat="45.473168776016834" lon="12.165730688683569"><ele>1.0</ele><time>2026-03-25T11:39:22Z</time></trkpt><trkpt lat="45.47328490182121" lon="12.166296089717987"><ele>1.0</ele><time>2026-03-25T11:39:23Z</time></trkpt><trkpt lat="45.473414973237475" lon="12.1668785138417"><ele>0.5</ele><time>2026-03-25T11:39:24Z</time></trkpt><trkpt lat="45.47354365005793" lon="12.167454809858643"><ele>0.0</ele><time>2026-03-25T11:39:25Z</time></trkpt><trkpt lat="45.47365034437937" lon="12.168011548674496"><ele>0.0</ele><time>2026-03-25T11:39:26Z</time></trkpt><trkpt lat="45.473777527155995" lon="12.168581211358912"><ele>0.0</ele><time>2026-03-25T11:39:27Z</time></trkpt><trkpt lat="45.473895004089094" lon="12.169133514440162"><ele>0.0</ele><time>2026-03-25T11:39:28Z</time></trkpt><trkpt lat="45.47401171526977" lon="12.169687712429761"><ele>0.0</ele><time>2026-03-25T11:39:29Z</time></trkpt><trkpt lat="45.47411649175964" lon="12.170246270515644"><ele>1.0</ele><time>2026-03-25T11:39:30Z</time></trkpt><trkpt lat="45.474204544973134" lon="12.170795724581541"><ele>2.0</ele><time>2026-03-25T11:39:31Z</time></trkpt><trkpt lat="45.47431066041976" lon="12.171333351988284"><ele>1.0</ele><time>2026-03-25T11:39:32Z</time></trkpt><trkpt lat="45.47444118479466" lon="12.17188197023395"><ele>0.0</ele><time>2026-03-25T11:39:33Z</time></trkpt><trkpt lat="45.47455193656807" lon="12.172411713449367"><ele>0.5</ele><time>2026-03-25T11:39:34Z</time></trkpt><trkpt lat="45.47467256696462" lon="12.172958038920275"><ele>1.0</ele><time>2026-03-25T11:39:35Z</time></trkpt><trkpt lat="45.47480265586095" lon="12.173530003766995"><ele>1.0</ele><time>2026-03-25T11:39:36Z</time></trkpt><trkpt lat="45.47489942362304" lon="12.174062844421437"><ele>1.0</ele><time>2026-03-25T11:39:37Z</time></trkpt><trkpt lat="45.47500585195805" lon="12.174599405493556"><ele>1.0</ele><time>2026-03-25T11:39:38Z</time></trkpt><trkpt lat="45.475116166671405" lon="12.175146859819115"><ele>1.0</ele><time>2026-03-25T11:39:39Z</time></trkpt><trkpt lat="45.475215121768485" lon="12.175687114406347"><ele>1.0</ele><time>2026-03-25T11:39:40Z</time></trkpt><trkpt lat="45.47532925247102" lon="12.176195748179172"><ele>1.0</ele><time>2026-03-25T11:39:41Z</time></trkpt><trkpt lat="45.47542496777656" lon="12.176724708733314"><ele>1.0</ele><time>2026-03-25T11:39:42Z</time></trkpt><trkpt lat="45.475518947845096" lon="12.177259226316199"><ele>1.0</ele><time>2026-03-25T11:39:43Z</time></trkpt><trkpt lat="45.47561710285209" lon="12.177771712807532"><ele>0.0</ele><time>2026-03-25T11:39:44Z</time></trkpt><trkpt lat="45.475716633239294" lon="12.178315871590812"><ele>-1.0</ele><time>2026-03-25T11:39:45Z</time></trkpt><trkpt lat="45.475835484714416" lon="12.178866915127688"><ele>-0.5</ele><time>2026-03-25T11:39:46Z</time></trkpt><trkpt lat="45.47595031669838" lon="12.179404828389107"><ele>0.0</ele><time>2026-03-25T11:39:47Z</time></trkpt><trkpt lat="45.47605575267608" lon="12.179942125509244"><ele>0.0</ele><time>2026-03-25T11:39:48Z</time></trkpt><trkpt lat="45.47617097080556" lon="12.18047765642277"><ele>0.0</ele><time>2026-03-25T11:39:49Z</time></trkpt><trkpt lat="45.47629555888278" lon="12.18101118510432"><ele>0.0</ele><time>2026-03-25T11:39:50Z</time></trkpt><trkpt lat="45.47642390424639" lon="12.181534174847387"><ele>0.0</ele><time>2026-03-25T11:39:51Z</time></trkpt><trkpt lat="45.47655344928347" lon="12.182075105350917"><ele>0.5</ele><time>2026-03-25T11:39:52Z</time></trkpt><trkpt lat="45.47666228479921" lon="12.182607277941363"><ele>1.0</ele><time>2026-03-25T11:39:53Z</time></trkpt><trkpt lat="45.4767914775198" lon="12.183119972431006"><ele>1.0</ele><time>2026-03-25T11:39:54Z</time></trkpt><trkpt lat="45.47689675583597" lon="12.183603122858385"><ele>1.0</ele><time>2026-03-25T11:39:55Z</time></trkpt><trkpt lat="45.47700409499843" lon="12.184109013772469"><ele>1.5</ele><time>2026-03-25T11:39:56Z</time></trkpt><trkpt lat="45.47711561327706" lon="12.184579639280866"><ele>2.0</ele><time>2026-03-25T11:39:57Z</time></trkpt><trkpt lat="45.47723059093346" lon="12.185022271830375"><ele>2.5</ele><time>2026-03-25T11:39:58Z</time></trkpt><trkpt lat="45.47734649448487" lon="12.185464770023376"><ele>3.0</ele><time>2026-03-25T11:39:59Z</time></trkpt><trkpt lat="45.47745954329987" lon="12.185908782354842"><ele>2.5</ele><time>2026-03-25T11:40:00Z</time></trkpt><trkpt lat="45.47757200287021" lon="12.186335993162064"><ele>2.0</ele><time>2026-03-25T11:40:01Z</time></trkpt><trkpt lat="45.47767828990141" lon="12.186764194373275"><ele>2.0</ele><time>2026-03-25T11:40:02Z</time></trkpt><trkpt lat="45.477796709906805" lon="12.187210248636301"><ele>2.0</ele><time>2026-03-25T11:40:03Z</time></trkpt><trkpt lat="45.47789945162976" lon="12.187624018599175"><ele>1.5</ele><time>2026-03-25T11:40:04Z</time></trkpt><trkpt lat="45.47795736367776" lon="12.188001720694476"><ele>1.0</ele><time>2026-03-25T11:40:05Z</time></trkpt><trkpt lat="45.47803083661172" lon="12.188391381162802"><ele>0.5</ele><time>2026-03-25T11:40:06Z</time></trkpt><trkpt lat="45.478125449318874" lon="12.188794432333347"><ele>0.0</ele><time>2026-03-25T11:40:07Z</time></trkpt><trkpt lat="45.47822232441606" lon="12.189229791005816"><ele>1.0</ele><time>2026-03-25T11:40:08Z</time></trkpt><trkpt lat="45.47832101505411" lon="12.189626752151872"><ele>2.0</ele><time>2026-03-25T11:40:09Z</time></trkpt><trkpt lat="45.478380246333344" lon="12.18996779424406"><ele>2.0</ele><time>2026-03-25T11:40:10Z</time></trkpt><trkpt lat="45.478449952225304" lon="12.190322766262408"><ele>2.0</ele><time>2026-03-25T11:40:11Z</time></trkpt><trkpt lat="45.47853092257972" lon="12.190702537297033"><ele>1.5</ele><time>2026-03-25T11:40:12Z</time></trkpt><trkpt lat="45.47860405255066" lon="12.191077391369939"><ele>1.0</ele><time>2026-03-25T11:40:13Z</time></trkpt><trkpt lat="45.47867804029688" lon="12.191446639616201"><ele>1.5</ele><time>2026-03-25T11:40:14Z</time></trkpt><trkpt lat="45.47875101877022" lon="12.191817805574747"><ele>2.0</ele><time>2026-03-25T11:40:15Z</time></trkpt><trkpt lat="45.47882104251538" lon="12.192185212597371"><ele>1.0</ele><time>2026-03-25T11:40:16Z</time></trkpt><trkpt lat="45.478888734887946" lon="12.19254479065256"><ele>0.0</ele><time>2026-03-25T11:40:17Z</time></trkpt><trkpt lat="45.47895322865768" lon="12.192901646601188"><ele>0.0</ele><time>2026-03-25T11:40:18Z</time></trkpt><trkpt lat="45.47902336583206" lon="12.193268359794793"><ele>0.0</ele><time>2026-03-25T11:40:19Z</time></trkpt><trkpt lat="45.47909524563388" lon="12.193636886479517"><ele>0.5</ele><time>2026-03-25T11:40:20Z</time></trkpt><trkpt lat="45.47917522155822" lon="12.194014254832279"><ele>1.0</ele><time>2026-03-25T11:40:21Z</time></trkpt><trkpt lat="45.479248967592916" lon="12.19438794614798"><ele>1.0</ele><time>2026-03-25T11:40:22Z</time></trkpt><trkpt lat="45.47932804435464" lon="12.194762215319125"><ele>1.0</ele><time>2026-03-25T11:40:23Z</time></trkpt><trkpt lat="45.47940765994736" lon="12.195132292080618"><ele>1.5</ele><time>2026-03-25T11:40:24Z</time></trkpt><trkpt lat="45.47948326471589" lon="12.195499575949684"><ele>2.0</ele><time>2026-03-25T11:40:25Z</time></trkpt><trkpt lat="45.47955479430694" lon="12.195867856352955"><ele>2.0</ele><time>2026-03-25T11:40:26Z</time></trkpt><trkpt lat="45.47963116491313" lon="12.196237087761691"><ele>2.0</ele><time>2026-03-25T11:40:27Z</time></trkpt><trkpt lat="45.47971212833289" lon="12.196611031284165"><ele>2.0</ele><time>2026-03-25T11:40:28Z</time></trkpt><trkpt lat="45.4797994793253" lon="12.196981208394229"><ele>2.0</ele><time>2026-03-25T11:40:29Z</time></trkpt><trkpt lat="45.47988464240772" lon="12.197351200181757"><ele>2.5</ele><time>2026-03-25T11:40:30Z</time></trkpt><trkpt lat="45.479964364378304" lon="12.197726992476374"><ele>3.0</ele><time>2026-03-25T11:40:31Z</time></trkpt><trkpt lat="45.48004847910519" lon="12.198093921963821"><ele>2.0</ele><time>2026-03-25T11:40:32Z</time></trkpt><trkpt lat="45.48012815218182" lon="12.198455651605245"><ele>1.0</ele><time>2026-03-25T11:40:33Z</time></trkpt><trkpt lat="45.48020821417509" lon="12.198820811230723"><ele>1.0</ele><time>2026-03-25T11:40:34Z</time></trkpt><trkpt lat="45.4803030931736" lon="12.199171496386608"><ele>1.0</ele><time>2026-03-25T11:40:35Z</time></trkpt><trkpt lat="45.48039220127407" lon="12.199526457527632"><ele>1.0</ele><time>2026-03-25T11:40:36Z</time></trkpt><trkpt lat="45.48048467949389" lon="12.199885430286162"><ele>1.0</ele><time>2026-03-25T11:40:37Z</time></trkpt><trkpt lat="45.480580091499455" lon="12.20023944916491"><ele>1.0</ele><time>2026-03-25T11:40:38Z</time></trkpt><trkpt lat="45.48067305867326" lon="12.200605107903613"><ele>1.0</ele><time>2026-03-25T11:40:39Z</time></trkpt><trkpt lat="45.48076115634155" lon="12.200971846973129"><ele>1.0</ele><time>2026-03-25T11:40:40Z</time></trkpt><trkpt lat="45.480864897274785" lon="12.201329289251447"><ele>1.0</ele><time>2026-03-25T11:40:41Z</time></trkpt><trkpt lat="45.480959401230685" lon="12.201691150133831"><ele>1.0</ele><time>2026-03-25T11:40:42Z</time></trkpt><trkpt lat="45.48105062055017" lon="12.202056020159814"><ele>1.0</ele><time>2026-03-25T11:40:43Z</time></trkpt><trkpt lat="45.4811444199879" lon="12.202407777670645"><ele>0.5</ele><time>2026-03-25T11:40:44Z</time></trkpt><trkpt lat="45.481240388352724" lon="12.202773564111009"><ele>0.0</ele><time>2026-03-25T11:40:45Z</time></trkpt><trkpt lat="45.481328819184355" lon="12.203131509174224"><ele>0.5</ele><time>2026-03-25T11:40:46Z</time></trkpt><trkpt lat="45.48141387475595" lon="12.203480515554425"><ele>1.0</ele><time>2026-03-25T11:40:47Z</time></trkpt><trkpt lat="45.481506573700855" lon="12.20384718305821"><ele>1.0</ele><time>2026-03-25T11:40:48Z</time></trkpt><trkpt lat="45.481592616111485" lon="12.204199147421434"><ele>1.0</ele><time>2026-03-25T11:40:49Z</time></trkpt><trkpt lat="45.48167680148701" lon="12.204560208312554"><ele>1.5</ele><time>2026-03-25T11:40:50Z</time></trkpt><trkpt lat="45.48177277698784" lon="12.20491956730734"><ele>2.0</ele><time>2026-03-25T11:40:51Z</time></trkpt><trkpt lat="45.481868912244636" lon="12.205271716460615"><ele>2.0</ele><time>2026-03-25T11:40:52Z</time></trkpt><trkpt lat="45.48195659257069" lon="12.205620193853214"><ele>2.0</ele><time>2026-03-25T11:40:53Z</time></trkpt><trkpt lat="45.482042497358094" lon="12.205962829231389"><ele>2.0</ele><time>2026-03-25T11:40:54Z</time></trkpt><trkpt lat="45.482106607709994" lon="12.20630795272191"><ele>2.0</ele><time>2026-03-25T11:40:55Z</time></trkpt><trkpt lat="45.482181618894344" lon="12.20665236481799"><ele>0.5</ele><time>2026-03-25T11:40:56Z</time></trkpt><trkpt lat="45.48226823202442" lon="12.20699791784991"><ele>-1.0</ele><time>2026-03-25T11:40:57Z</time></trkpt><trkpt lat="45.48234525845777" lon="12.20734178074062"><ele>-1.0</ele><time>2026-03-25T11:40:58Z</time></trkpt><trkpt lat="45.4824105642692" lon="12.207671624714099"><ele>-1.0</ele><time>2026-03-25T11:40:59Z</time></trkpt><trkpt lat="45.482482351458664" lon="12.207998980688266"><ele>-0.5</ele><time>2026-03-25T11:41:00Z</time></trkpt><trkpt lat="45.48255387964783" lon="12.208330311800122"><ele>0.0</ele><time>2026-03-25T11:41:01Z</time></trkpt><trkpt lat="45.48261899232311" lon="12.208654521826778"><ele>0.0</ele><time>2026-03-25T11:41:02Z</time></trkpt><trkpt lat="45.482683413700144" lon="12.208978875832642"><ele>0.0</ele><time>2026-03-25T11:41:03Z</time></trkpt><trkpt lat="45.48275388416341" lon="12.209327689265782"><ele>0.0</ele><time>2026-03-25T11:41:04Z</time></trkpt><trkpt lat="45.48283702120947" lon="12.209659968159372"><ele>0.0</ele><time>2026-03-25T11:41:05Z</time></trkpt><trkpt lat="45.48290125242335" lon="12.209960086529547"><ele>0.0</ele><time>2026-03-25T11:41:06Z</time></trkpt><trkpt lat="45.482974537276334" lon="12.210258481711172"><ele>0.0</ele><time>2026-03-25T11:41:07Z</time></trkpt><trkpt lat="45.483052308653996" lon="12.210548067610212"><ele>0.0</ele><time>2026-03-25T11:41:08Z</time></trkpt><trkpt lat="45.483126576870966" lon="12.210835728309602"><ele>0.3333333333333333</ele><time>2026-03-25T11:41:09Z</time></trkpt><trkpt lat="45.48319480128497" lon="12.21114000760567"><ele>0.6666666666666666</ele><time>2026-03-25T11:41:10Z</time></trkpt><trkpt lat="45.48324913788535" lon="12.211434712083467"><ele>1.0</ele><time>2026-03-25T11:41:11Z</time></trkpt><trkpt lat="45.48330395085745" lon="12.211730349216834"><ele>1.0</ele><time>2026-03-25T11:41:12Z</time></trkpt><trkpt lat="45.48336134149211" lon="12.212013095151546"><ele>1.0</ele><time>2026-03-25T11:41:13Z</time></trkpt><trkpt lat="45.48339617249637" lon="12.212287787163499"><ele>1.0</ele><time>2026-03-25T11:41:14Z</time></trkpt><trkpt lat="45.48343681314424" lon="12.212567933870613"><ele>1.0</ele><time>2026-03-25T11:41:15Z</time></trkpt><trkpt lat="45.4834853625271" lon="12.212863378980977"><ele>1.0</ele><time>2026-03-25T11:41:16Z</time></trkpt><trkpt lat="45.48353786108716" lon="12.213151317346421"><ele>1.0</ele><time>2026-03-25T11:41:17Z</time></trkpt><trkpt lat="45.483570520373554" lon="12.21342585820308"><ele>0.6666666666666666</ele><time>2026-03-25T11:41:18Z</time></trkpt><trkpt lat="45.483616623931354" lon="12.213698346550869"><ele>0.3333333333333333</ele><time>2026-03-25T11:41:19Z</time></trkpt><trkpt lat="45.483646623361516" lon="12.213957294891049"><ele>0.0</ele><time>2026-03-25T11:41:20Z</time></trkpt><trkpt lat="45.48368546228862" lon="12.21422836914142"><ele>0.0</ele><time>2026-03-25T11:41:21Z</time></trkpt><trkpt lat="45.48372525988727" lon="12.214488209307323"><ele>0.0</ele><time>2026-03-25T11:41:22Z</time></trkpt><trkpt lat="45.483744697536544" lon="12.214739009096062"><ele>0.0</ele><time>2026-03-25T11:41:23Z</time></trkpt><trkpt lat="45.483772291140525" lon="12.21499700575592"><ele>1.0</ele><time>2026-03-25T11:41:24Z</time></trkpt><trkpt lat="45.48378955061418" lon="12.215233312866964"><ele>2.0</ele><time>2026-03-25T11:41:25Z</time></trkpt><trkpt lat="45.483810814861194" lon="12.215472218454305"><ele>3.0</ele><time>2026-03-25T11:41:26Z</time></trkpt><trkpt lat="45.483835691102996" lon="12.215725892370163"><ele>3.0</ele><time>2026-03-25T11:41:27Z</time></trkpt><trkpt lat="45.483861761033566" lon="12.215986501408684"><ele>3.0</ele><time>2026-03-25T11:41:28Z</time></trkpt><trkpt lat="45.483878796677935" lon="12.216228116629633"><ele>3.0</ele><time>2026-03-25T11:41:29Z</time></trkpt><trkpt lat="45.48388619599465" lon="12.216460636763772"><ele>2.0</ele><time>2026-03-25T11:41:30Z</time></trkpt><trkpt lat="45.48390947413507" lon="12.21670969102926"><ele>1.0</ele><time>2026-03-25T11:41:31Z</time></trkpt><trkpt lat="45.48391479224368" lon="12.216929459038507"><ele>0.0</ele><time>2026-03-25T11:41:32Z</time></trkpt><trkpt lat="45.48392512899043" lon="12.21715409107226"><ele>0.6666666666666666</ele><time>2026-03-25T11:41:33Z</time></trkpt><trkpt lat="45.48393879449631" lon="12.21737566791694"><ele>1.3333333333333333</ele><time>2026-03-25T11:41:34Z</time></trkpt><trkpt lat="45.483951556232" lon="12.21759799466227"><ele>2.0</ele><time>2026-03-25T11:41:35Z</time></trkpt><trkpt lat="45.48396861267677" lon="12.217818343314185"><ele>2.0</ele><time>2026-03-25T11:41:36Z</time></trkpt><trkpt lat="45.483984219526356" lon="12.218030006024275"><ele>2.0</ele><time>2026-03-25T11:41:37Z</time></trkpt><trkpt lat="45.4839951298547" lon="12.21823146216495"><ele>2.0</ele><time>2026-03-25T11:41:38Z</time></trkpt><trkpt lat="45.48400620725637" lon="12.218429469234012"><ele>2.0</ele><time>2026-03-25T11:41:39Z</time></trkpt><trkpt lat="45.48402149473705" lon="12.218640282693062"><ele>2.5</ele><time>2026-03-25T11:41:40Z</time></trkpt><trkpt lat="45.48403375200172" lon="12.21884014039568"><ele>3.0</ele><time>2026-03-25T11:41:41.001Z</time></trkpt><trkpt lat="45.48404197723007" lon="12.21903188987678"><ele>3.5</ele><time>2026-03-25T11:41:42.001Z</time></trkpt><trkpt lat="45.48405885864741" lon="12.219221046915736"><ele>4.0</ele><time>2026-03-25T11:41:43.001Z</time></trkpt><trkpt lat="45.484064383322874" lon="12.219421385577137"><ele>4.0</ele><time>2026-03-25T11:41:44.001Z</time></trkpt><trkpt lat="45.48409075162735" lon="12.219627108844332"><ele>4.0</ele><time>2026-03-25T11:41:45.001Z</time></trkpt><trkpt lat="45.48411317508057" lon="12.219826022701303"><ele>4.0</ele><time>2026-03-25T11:41:46.001Z</time></trkpt><trkpt lat="45.48412377969846" lon="12.220007072670466"><ele>4.0</ele><time>2026-03-25T11:41:47.001Z</time></trkpt><trkpt lat="45.484134691891" lon="12.220187397778204"><ele>3.75</ele><time>2026-03-25T11:41:48.001Z</time></trkpt><trkpt lat="45.48414495681229" lon="12.2203807631482"><ele>3.5</ele><time>2026-03-25T11:41:49.001Z</time></trkpt><trkpt lat="45.48415451095637" lon="12.220568950727545"><ele>3.25</ele><time>2026-03-25T11:41:50.001Z</time></trkpt><trkpt lat="45.48416750216382" lon="12.220757234812341"><ele>3.0</ele><time>2026-03-25T11:41:51.001Z</time></trkpt><trkpt lat="45.48417032542933" lon="12.220942376573442"><ele>2.75</ele><time>2026-03-25T11:41:52.001Z</time></trkpt><trkpt lat="45.484176495680344" lon="12.221138608968436"><ele>2.5</ele><time>2026-03-25T11:41:53.001Z</time></trkpt><trkpt lat="45.48417352072322" lon="12.221324815425"><ele>2.25</ele><time>2026-03-25T11:41:54.001Z</time></trkpt><trkpt lat="45.48416635427506" lon="12.221513700367417"><ele>2.0</ele><time>2026-03-25T11:41:55.001Z</time></trkpt><trkpt lat="45.484163598056846" lon="12.221705559632145"><ele>1.75</ele><time>2026-03-25T11:41:56.001Z</time></trkpt><trkpt lat="45.48415730521559" lon="12.221897845370833"><ele>1.5</ele><time>2026-03-25T11:41:57.001Z</time></trkpt><trkpt lat="45.4841461162882" lon="12.222089661492793"><ele>1.25</ele><time>2026-03-25T11:41:58.001Z</time></trkpt><trkpt lat="45.4841368583832" lon="12.22228580701153"><ele>1.0</ele><time>2026-03-25T11:41:59.001Z</time></trkpt><trkpt lat="45.484123603820784" lon="12.222484191606481"><ele>1.0</ele><time>2026-03-25T11:42:00.001Z</time></trkpt><trkpt lat="45.48410657580805" lon="12.22267795157091"><ele>1.0</ele><time>2026-03-25T11:42:01Z</time></trkpt><trkpt lat="45.48409084966815" lon="12.222870967515195"><ele>1.0</ele><time>2026-03-25T11:42:02Z</time></trkpt><trkpt lat="45.48407694445486" lon="12.223059991486661"><ele>1.0</ele><time>2026-03-25T11:42:03Z</time></trkpt><trkpt lat="45.48406014400775" lon="12.223250905636288"><ele>1.0</ele><time>2026-03-25T11:42:04Z</time></trkpt><trkpt lat="45.48404111691516" lon="12.223439318181168"><ele>1.0</ele><time>2026-03-25T11:42:05Z</time></trkpt><trkpt lat="45.484017746599136" lon="12.223622280973347"><ele>1.0</ele><time>2026-03-25T11:42:06Z</time></trkpt><trkpt lat="45.483989970931574" lon="12.223806945777598"><ele>1.0</ele><time>2026-03-25T11:42:07Z</time></trkpt><trkpt lat="45.48395301306599" lon="12.223996575177816"><ele>1.25</ele><time>2026-03-25T11:42:08Z</time></trkpt><trkpt lat="45.48391658923907" lon="12.224183101174336"><ele>1.5</ele><time>2026-03-25T11:42:09Z</time></trkpt><trkpt lat="45.4838858096075" lon="12.224361492200169"><ele>1.75</ele><time>2026-03-25T11:42:10Z</time></trkpt><trkpt lat="45.48384954657684" lon="12.224540730056473"><ele>2.0</ele><time>2026-03-25T11:42:11Z</time></trkpt><trkpt lat="45.48380734791993" lon="12.224727399045793"><ele>1.75</ele><time>2026-03-25T11:42:12Z</time></trkpt><trkpt lat="45.48376382964839" lon="12.2249110021661"><ele>1.5</ele><time>2026-03-25T11:42:13Z</time></trkpt><trkpt lat="45.483721671604144" lon="12.225091348841216"><ele>1.25</ele><time>2026-03-25T11:42:14Z</time></trkpt><trkpt lat="45.48367766699315" lon="12.225271069116234"><ele>1.0</ele><time>2026-03-25T11:42:15Z</time></trkpt><trkpt lat="45.483632621273316" lon="12.22545063418051"><ele>1.0</ele><time>2026-03-25T11:42:16Z</time></trkpt><trkpt lat="45.48358605973571" lon="12.225628976875608"><ele>1.0</ele><time>2026-03-25T11:42:17Z</time></trkpt><trkpt lat="45.48353978499511" lon="12.225811211946697"><ele>1.0</ele><time>2026-03-25T11:42:18Z</time></trkpt><trkpt lat="45.48349352683008" lon="12.225992736262095"><ele>1.0</ele><time>2026-03-25T11:42:19Z</time></trkpt><trkpt lat="45.483445334393565" lon="12.22617211572019"><ele>0.75</ele><time>2026-03-25T11:42:20Z</time></trkpt><trkpt lat="45.48338844253843" lon="12.22634650829491"><ele>0.5</ele><time>2026-03-25T11:42:21Z</time></trkpt><trkpt lat="45.48333149273823" lon="12.226513556389802"><ele>0.25</ele><time>2026-03-25T11:42:22Z</time></trkpt><trkpt lat="45.48327809577696" lon="12.226686142193985"><ele>0.0</ele><time>2026-03-25T11:42:23Z</time></trkpt><trkpt lat="45.48322338858122" lon="12.22685374106019"><ele>0.0</ele><time>2026-03-25T11:42:24Z</time></trkpt><trkpt lat="45.483183024442724" lon="12.227033428872065"><ele>0.0</ele><time>2026-03-25T11:42:25Z</time></trkpt><trkpt lat="45.48314229589748" lon="12.227218734213345"><ele>0.0</ele><time>2026-03-25T11:42:26Z</time></trkpt><trkpt lat="45.483092513354215" lon="12.227403200604106"><ele>0.0</ele><time>2026-03-25T11:42:27Z</time></trkpt><trkpt lat="45.483038353520506" lon="12.227577927695858"><ele>0.25</ele><time>2026-03-25T11:42:28Z</time></trkpt><trkpt lat="45.48297835099876" lon="12.227747573423645"><ele>0.5</ele><time>2026-03-25T11:42:29Z</time></trkpt><trkpt lat="45.48291928370422" lon="12.227918402459544"><ele>0.75</ele><time>2026-03-25T11:42:30Z</time></trkpt><trkpt lat="45.48286398067926" lon="12.228082751204749"><ele>1.0</ele><time>2026-03-25T11:42:31Z</time></trkpt><trkpt lat="45.482802917245344" lon="12.228249667476241"><ele>1.0</ele><time>2026-03-25T11:42:32Z</time></trkpt><trkpt lat="45.48274637966697" lon="12.228412275509253"><ele>1.0</ele><time>2026-03-25T11:42:33Z</time></trkpt><trkpt lat="45.482693852956125" lon="12.228567185221452"><ele>1.0</ele><time>2026-03-25T11:42:34Z</time></trkpt><trkpt lat="45.48264529616111" lon="12.228719763448227"><ele>1.0</ele><time>2026-03-25T11:42:35Z</time></trkpt><trkpt lat="45.48260221469799" lon="12.228874144154293"><ele>1.2000000000000002</ele><time>2026-03-25T11:42:36Z</time></trkpt><trkpt lat="45.482557119755874" lon="12.229024577655212"><ele>1.4000000000000001</ele><time>2026-03-25T11:42:37Z</time></trkpt><trkpt lat="45.4825233362682" lon="12.229170342184739"><ele>1.6</ele><time>2026-03-25T11:42:38Z</time></trkpt><trkpt lat="45.482488421386854" lon="12.229322863861821"><ele>1.8</ele><time>2026-03-25T11:42:39Z</time></trkpt><trkpt lat="45.482450889430744" lon="12.229463106920454"><ele>2.0</ele><time>2026-03-25T11:42:40Z</time></trkpt><trkpt lat="45.482416658770674" lon="12.229601180795342"><ele>2.0</ele><time>2026-03-25T11:42:41Z</time></trkpt><trkpt lat="45.48238614266424" lon="12.229737603669872"><ele>2.0</ele><time>2026-03-25T11:42:42Z</time></trkpt><trkpt lat="45.4823497192952" lon="12.229858408736508"><ele>2.0</ele><time>2026-03-25T11:42:43Z</time></trkpt><trkpt lat="45.48231537559499" lon="12.229987684772947"><ele>2.0</ele><time>2026-03-25T11:42:44Z</time></trkpt><trkpt lat="45.48228673068089" lon="12.230107854959869"><ele>2.0</ele><time>2026-03-25T11:42:45Z</time></trkpt><trkpt lat="45.48225488197112" lon="12.230226789752626"><ele>1.9999999999999998</ele><time>2026-03-25T11:42:46Z</time></trkpt><trkpt lat="45.48223301249308" lon="12.230327803679183"><ele>2.0</ele><time>2026-03-25T11:42:47Z</time></trkpt><trkpt lat="45.48220428787084" lon="12.23043596078843"><ele>2.0</ele><time>2026-03-25T11:42:48Z</time></trkpt><trkpt lat="45.482180807498004" lon="12.230533552974807"><ele>2.0</ele><time>2026-03-25T11:42:49Z</time></trkpt><trkpt lat="45.482153446620586" lon="12.230632551854384"><ele>1.9999999999999998</ele><time>2026-03-25T11:42:50Z</time></trkpt><trkpt lat="45.48212889634935" lon="12.23073018042178"><ele>2.0</ele><time>2026-03-25T11:42:51Z</time></trkpt><trkpt lat="45.48211107456957" lon="12.230837112254513"><ele>1.857142857142857</ele><time>2026-03-25T11:42:52Z</time></trkpt><trkpt lat="45.482086208144096" lon="12.23093201600665"><ele>1.714285714285714</ele><time>2026-03-25T11:42:53Z</time></trkpt><trkpt lat="45.482057812114924" lon="12.231021642528923"><ele>1.5714285714285714</ele><time>2026-03-25T11:42:54Z</time></trkpt><trkpt lat="45.48203509120025" lon="12.231116670488849"><ele>1.4285714285714284</ele><time>2026-03-25T11:42:55Z</time></trkpt><trkpt lat="45.482018345457824" lon="12.231225909203099"><ele>1.2857142857142856</ele><time>2026-03-25T11:42:56Z</time></trkpt><trkpt lat="45.48199799074057" lon="12.23132241569214"><ele>1.1428571428571428</ele><time>2026-03-25T11:42:57Z</time></trkpt><trkpt lat="45.48197991126919" lon="12.231436362617105"><ele>1.0</ele><time>2026-03-25T11:42:58Z</time></trkpt><trkpt lat="45.48195367526004" lon="12.231536794623809"><ele>1.3333333333333333</ele><time>2026-03-25T11:42:59Z</time></trkpt><trkpt lat="45.48193091480706" lon="12.231631483543955"><ele>1.6666666666666665</ele><time>2026-03-25T11:43:00Z</time></trkpt><trkpt lat="45.481899674559216" lon="12.231715639264188"><ele>2.0</ele><time>2026-03-25T11:43:01Z</time></trkpt><trkpt lat="45.48186190617787" lon="12.23189520700971"><ele>2.3333333333333335</ele><time>2026-03-25T11:43:03Z</time></trkpt><trkpt lat="45.481841313919745" lon="12.231989128513225"><ele>2.6666666666666665</ele><time>2026-03-25T11:43:04Z</time></trkpt><trkpt lat="45.48181035214375" lon="12.232079413715471"><ele>3.0</ele><time>2026-03-25T11:43:05Z</time></trkpt><trkpt lat="45.48179634912785" lon="12.23216709242544"><ele>3.4</ele><time>2026-03-25T11:43:06Z</time></trkpt><trkpt lat="45.481772805976256" lon="12.232338338085276"><ele>3.8</ele><time>2026-03-25T11:43:08Z</time></trkpt><trkpt lat="45.48173563626016" lon="12.232430684425335"><ele>4.2</ele><time>2026-03-25T11:43:08.999Z</time></trkpt><trkpt lat="45.481709454882186" lon="12.232539200224435"><ele>4.6</ele><time>2026-03-25T11:43:09.999Z</time></trkpt><trkpt lat="45.48164695652121" lon="12.232683828320983"><ele>5.0</ele><time>2026-03-25T11:43:11.999Z</time></trkpt><trkpt lat="45.48159213695308" lon="12.232835037207083"><ele>5.0</ele><time>2026-03-25T11:43:13.999Z</time></trkpt><trkpt lat="45.481557119089565" lon="12.232965099554567"><ele>5.0</ele><time>2026-03-25T11:43:15.999Z</time></trkpt><trkpt lat="45.48151259836029" lon="12.233074040110965"><ele>5.0</ele><time>2026-03-25T11:43:17.999Z</time></trkpt><trkpt lat="45.48147600539852" lon="12.233219511830692"><ele>5.0</ele><time>2026-03-25T11:43:19.999Z</time></trkpt><trkpt lat="45.48144212752281" lon="12.233370103074538"><ele>5.0</ele><time>2026-03-25T11:43:21.999Z</time></trkpt><trkpt lat="45.481418961365655" lon="12.2334949744704"><ele>4.5</ele><time>2026-03-25T11:43:23.999Z</time></trkpt><trkpt lat="45.48141321343925" lon="12.233596873920742"><ele>4.0</ele><time>2026-03-25T11:43:25.999Z</time></trkpt><trkpt lat="45.48136533220044" lon="12.23367841014817"><ele>3.5</ele><time>2026-03-25T11:43:32.999Z</time></trkpt><trkpt lat="45.48135579428215" lon="12.23356557925967"><ele>3.0</ele><time>2026-03-25T11:43:44.999Z</time></trkpt><trkpt lat="45.48138209480229" lon="12.23342387347812"><ele>2.5</ele><time>2026-03-25T11:43:47Z</time></trkpt><trkpt lat="45.481400179394285" lon="12.233305659476725"><ele>2.0</ele><time>2026-03-25T11:43:48Z</time></trkpt><trkpt lat="45.48142216723668" lon="12.233221166786453"><ele>2.6</ele><time>2026-03-25T11:43:49Z</time></trkpt><trkpt lat="45.48146113206468" lon="12.233055460459063"><ele>3.2</ele><time>2026-03-25T11:43:51Z</time></trkpt><trkpt lat="45.4814925040085" lon="12.2329269372243"><ele>3.8</ele><time>2026-03-25T11:43:53Z</time></trkpt><trkpt lat="45.481507929750386" lon="12.232811142640955"><ele>4.4</ele><time>2026-03-25T11:43:55Z</time></trkpt><trkpt lat="45.48151733376786" lon="12.232702956755796"><ele>5.0</ele><time>2026-03-25T11:43:57Z</time></trkpt><trkpt lat="45.48153520615438" lon="12.232598683893144"><ele>5.0</ele><time>2026-03-25T11:43:59Z</time></trkpt><trkpt lat="45.48155569357817" lon="12.232488808122387"><ele>5.0</ele><time>2026-03-25T11:44:01Z</time></trkpt><trkpt lat="45.48158797351759" lon="12.23238908157885"><ele>5.0</ele><time>2026-03-25T11:44:03Z</time></trkpt><trkpt lat="45.48161261774191" lon="12.232278322259063"><ele>5.0</ele><time>2026-03-25T11:44:07Z</time></trkpt><trkpt lat="45.48164309066333" lon="12.232198553585878"><ele>5.0</ele><time>2026-03-25T11:44:12Z</time></trkpt><trkpt lat="45.481677036732755" lon="12.232105127562773"><ele>5.0</ele><time>2026-03-25T11:44:15.999Z</time></trkpt><trkpt lat="45.48170148569839" lon="12.232009868700034"><ele>5.0</ele><time>2026-03-25T11:44:19.999Z</time></trkpt><trkpt lat="45.481715904435234" lon="12.231894203339145"><ele>4.5</ele><time>2026-03-25T11:44:23.999Z</time></trkpt><trkpt lat="45.48176213580319" lon="12.231806264154573"><ele>4.0</ele><time>2026-03-25T11:44:28.999Z</time></trkpt><trkpt lat="45.481798975215476" lon="12.231730136645899"><ele>3.5</ele><time>2026-03-25T11:44:37.999Z</time></trkpt><trkpt lat="45.48186929210323" lon="12.231640141716525"><ele>3.0</ele><time>2026-03-25T11:44:42.999Z</time></trkpt><trkpt lat="45.48210588801448" lon="12.231781210492766"><ele>2.9999999999999996</ele><time>2026-03-25T11:45:03.074Z</time></trkpt><trkpt lat="45.482132672892426" lon="12.231916894830112"><ele>3.0</ele><time>2026-03-25T11:45:08.999Z</time></trkpt><trkpt lat="45.482189183022115" lon="12.231980254011944"><ele>3.0</ele><time>2026-03-25T11:45:23.999Z</time></trkpt><trkpt lat="45.48218113267624" lon="12.232079015782325"><ele>3.0</ele><time>2026-03-25T11:45:29.999Z</time></trkpt><trkpt lat="45.482151048318705" lon="12.232167782120182"><ele>3.0</ele><time>2026-03-25T11:45:36.999Z</time></trkpt><trkpt lat="45.48215332629151" lon="12.232258430816469"><ele>2.9999999999999996</ele><time>2026-03-25T11:45:45.999Z</time></trkpt><trkpt lat="45.48216360102346" lon="12.232169838482209"><ele>3.0</ele><time>2026-03-25T11:46:25Z</time></trkpt><trkpt lat="45.48217615490629" lon="12.232080534867052"><ele>2.9999999999999996</ele><time>2026-03-25T11:46:32.999Z</time></trkpt><trkpt lat="45.48217007672267" lon="12.231986309716975"><ele>3.0</ele><time>2026-03-25T11:46:43.999Z</time></trkpt><trkpt lat="45.48217945707813" lon="12.231892801899072"><ele>3.0</ele><time>2026-03-25T11:46:50.999Z</time></trkpt><trkpt lat="45.48217643066263" lon="12.23179535143604"><ele>3.0</ele><time>2026-03-25T11:46:59.999Z</time></trkpt><trkpt lat="45.48219118111604" lon="12.231705630412621"><ele>3.0</ele><time>2026-03-25T11:47:07.999Z</time></trkpt><trkpt lat="45.48220511915564" lon="12.23161580622484"><ele>2.9999999999999996</ele><time>2026-03-25T11:47:14.999Z</time></trkpt><trkpt lat="45.48222243054124" lon="12.231519140000293"><ele>3.0</ele><time>2026-03-25T11:47:23.999Z</time></trkpt><trkpt lat="45.48224465854725" lon="12.231423980863989"><ele>2.714285714285714</ele><time>2026-03-25T11:47:31.999Z</time></trkpt><trkpt lat="45.48228149803293" lon="12.231330477828287"><ele>2.4285714285714284</ele><time>2026-03-25T11:47:39.999Z</time></trkpt><trkpt lat="45.48229826616197" lon="12.231239485099486"><ele>2.142857142857143</ele><time>2026-03-25T11:47:46.999Z</time></trkpt><trkpt lat="45.48231726418938" lon="12.231145110788047"><ele>1.857142857142857</ele><time>2026-03-25T11:47:53.999Z</time></trkpt><trkpt lat="45.48236289143252" lon="12.231075999560145"><ele>1.5714285714285712</ele><time>2026-03-25T11:48:00Z</time></trkpt><trkpt lat="45.48240374282896" lon="12.231000834549807"><ele>1.2857142857142856</ele><time>2026-03-25T11:48:08Z</time></trkpt><trkpt lat="45.482440698259715" lon="12.230926558232483"><ele>1.0</ele><time>2026-03-25T11:48:14Z</time></trkpt><trkpt lat="45.48253312532805" lon="12.230918892187686"><ele>1.0</ele><time>2026-03-25T11:49:25.999Z</time></trkpt><trkpt lat="45.48254134376791" lon="12.231009479129607"><ele>1.0</ele><time>2026-03-25T11:53:31.999Z</time></trkpt><trkpt lat="45.78126434060196" lon="12.832444100432458"><ele>5.0</ele><time>2026-03-25T12:37:23.486Z</time></trkpt></trkseg></trk></gpx>